<?xml version='1.0' encoding='UTF-8'?><gpx version="1.1" creator="JPX - https://github.com/jenetics/jpx" xmlns="http://www.topografix.com/GPX/1/1"><trk><trkseg><trkpt lat="44.8479628" lon="8.5754914"><ele>103.0</ele><time>2026-05-03T08:15:08.215Z</time></trkpt><trkpt lat="44.8480039" lon="8.5755812"><ele>103.0</ele><time>2026-05-03T08:15:11.129Z</time></trkpt><trkpt lat="44.8480221" lon="8.5756817"><ele>103.0</ele><time>2026-05-03T08:15:16.13Z</time></trkpt><trkpt lat="44.8480643" lon="8.5757516"><ele>103.0</ele><time>2026-05-03T08:15:20.13Z</time></trkpt><trkpt lat="44.8480711" lon="8.5758432"><ele>103.0</ele><time>2026-05-03T08:15:36.129Z</time></trkpt><trkpt lat="44.8480067" lon="8.5758508"><ele>103.0</ele><time>2026-05-03T08:15:51.131Z</time></trkpt><trkpt lat="44.8479799" lon="8.575813"><ele>103.0</ele><time>2026-05-03T08:18:32.134Z</time></trkpt><trkpt lat="44.8479515" lon="8.5757332"><ele>103.0</ele><time>2026-05-03T08:18:37.133Z</time></trkpt><trkpt lat="44.8479294" lon="8.5756215"><ele>103.00000000000001</ele><time>2026-05-03T08:18:39.133Z</time></trkpt><trkpt lat="44.8479039" lon="8.5755207"><ele>103.0</ele><time>2026-05-03T08:18:42.133Z</time></trkpt><trkpt lat="44.8478698" lon="8.5754318"><ele>103.0</ele><time>2026-05-03T08:18:59.135Z</time></trkpt><trkpt lat="44.8477894" lon="8.5753949"><ele>103.0</ele><time>2026-05-03T08:19:02.135Z</time></trkpt><trkpt lat="44.8477129" lon="8.5754701"><ele>103.00000000000001</ele><time>2026-05-03T08:19:04.135Z</time></trkpt><trkpt lat="44.8476468" lon="8.5755944"><ele>103.0</ele><time>2026-05-03T08:19:06.134Z</time></trkpt><trkpt lat="44.8475737" lon="8.5757027"><ele>103.0</ele><time>2026-05-03T08:19:08.134Z</time></trkpt><trkpt lat="44.8475023" lon="8.5758253"><ele>103.0</ele><time>2026-05-03T08:19:10.134Z</time></trkpt><trkpt lat="44.8474309" lon="8.5759493"><ele>103.0</ele><time>2026-05-03T08:19:12.134Z</time></trkpt><trkpt lat="44.8473512" lon="8.5760818"><ele>103.0</ele><time>2026-05-03T08:19:14.135Z</time></trkpt><trkpt lat="44.8473089" lon="8.5761512"><ele>103.0</ele><time>2026-05-03T08:19:15.135Z</time></trkpt><trkpt lat="44.84723" lon="8.5762831"><ele>102.80000000000001</ele><time>2026-05-03T08:19:17.135Z</time></trkpt><trkpt lat="44.8471879" lon="8.5763545"><ele>102.6</ele><time>2026-05-03T08:19:18.134Z</time></trkpt><trkpt lat="44.8471439" lon="8.576423"><ele>102.4</ele><time>2026-05-03T08:19:19.135Z</time></trkpt><trkpt lat="44.847047" lon="8.5765385"><ele>102.19999999999999</ele><time>2026-05-03T08:19:21.134Z</time></trkpt><trkpt lat="44.8469517" lon="8.5766438"><ele>102.0</ele><time>2026-05-03T08:19:23.134Z</time></trkpt><trkpt lat="44.8468639" lon="8.5767316"><ele>102.33333333333333</ele><time>2026-05-03T08:19:25.135Z</time></trkpt><trkpt lat="44.8467672" lon="8.5768131"><ele>102.66666666666666</ele><time>2026-05-03T08:19:27.135Z</time></trkpt><trkpt lat="44.8467081" lon="8.5768614"><ele>103.0</ele><time>2026-05-03T08:19:28.134Z</time></trkpt><trkpt lat="44.8466373" lon="8.5769224"><ele>103.33333333333333</ele><time>2026-05-03T08:19:29.134Z</time></trkpt><trkpt lat="44.8465785" lon="8.5769719"><ele>103.66666666666666</ele><time>2026-05-03T08:19:30.134Z</time></trkpt><trkpt lat="44.8465147" lon="8.5770218"><ele>104.0</ele><time>2026-05-03T08:19:31.135Z</time></trkpt><trkpt lat="44.8464147" lon="8.5771173"><ele>104.25</ele><time>2026-05-03T08:19:33.134Z</time></trkpt><trkpt lat="44.8463172" lon="8.5771869"><ele>104.5</ele><time>2026-05-03T08:19:35.134Z</time></trkpt><trkpt lat="44.8461878" lon="8.5772118"><ele>104.75</ele><time>2026-05-03T08:19:37.134Z</time></trkpt><trkpt lat="44.8460777" lon="8.5772666"><ele>105.0</ele><time>2026-05-03T08:19:39.135Z</time></trkpt><trkpt lat="44.8459737" lon="8.5773054"><ele>104.83333333333333</ele><time>2026-05-03T08:19:41.135Z</time></trkpt><trkpt lat="44.8459075" lon="8.5773039"><ele>104.66666666666666</ele><time>2026-05-03T08:19:43.136Z</time></trkpt><trkpt lat="44.8458417" lon="8.5772708"><ele>104.5</ele><time>2026-05-03T08:19:46.135Z</time></trkpt><trkpt lat="44.8457623" lon="8.5771884"><ele>104.33333333333333</ele><time>2026-05-03T08:19:49.135Z</time></trkpt><trkpt lat="44.8456858" lon="8.5770937"><ele>104.16666666666666</ele><time>2026-05-03T08:19:51.136Z</time></trkpt><trkpt lat="44.8456378" lon="8.5770333"><ele>104.0</ele><time>2026-05-03T08:19:52.136Z</time></trkpt><trkpt lat="44.8455837" lon="8.5768979"><ele>103.80000000000001</ele><time>2026-05-03T08:19:54.135Z</time></trkpt><trkpt lat="44.8455336" lon="8.5767932"><ele>103.60000000000001</ele><time>2026-05-03T08:19:56.135Z</time></trkpt><trkpt lat="44.845445" lon="8.5766952"><ele>103.4</ele><time>2026-05-03T08:19:58.136Z</time></trkpt><trkpt lat="44.8453654" lon="8.5765839"><ele>103.2</ele><time>2026-05-03T08:20:00.135Z</time></trkpt><trkpt lat="44.8452891" lon="8.5764828"><ele>103.0</ele><time>2026-05-03T08:20:02.136Z</time></trkpt><trkpt lat="44.8452102" lon="8.5763766"><ele>103.0</ele><time>2026-05-03T08:20:04.135Z</time></trkpt><trkpt lat="44.8451289" lon="8.5762783"><ele>103.0</ele><time>2026-05-03T08:20:06.136Z</time></trkpt><trkpt lat="44.8450397" lon="8.5761568"><ele>103.0</ele><time>2026-05-03T08:20:08.135Z</time></trkpt><trkpt lat="44.8449889" lon="8.5760955"><ele>103.0</ele><time>2026-05-03T08:20:09.136Z</time></trkpt><trkpt lat="44.8449257" lon="8.5760206"><ele>103.0</ele><time>2026-05-03T08:20:11.135Z</time></trkpt><trkpt lat="44.8448742" lon="8.5759524"><ele>103.00000000000001</ele><time>2026-05-03T08:20:14.135Z</time></trkpt><trkpt lat="44.8447979" lon="8.575998"><ele>103.0</ele><time>2026-05-03T08:20:17.135Z</time></trkpt><trkpt lat="44.8447289" lon="8.5761569"><ele>103.0</ele><time>2026-05-03T08:20:19.135Z</time></trkpt><trkpt lat="44.8447083" lon="8.5762551"><ele>103.0</ele><time>2026-05-03T08:20:20.135Z</time></trkpt><trkpt lat="44.844679" lon="8.5763463"><ele>103.00000000000001</ele><time>2026-05-03T08:20:21.135Z</time></trkpt><trkpt lat="44.844648" lon="8.5764341"><ele>103.0</ele><time>2026-05-03T08:20:22.136Z</time></trkpt><trkpt lat="44.8446163" lon="8.5765193"><ele>103.0</ele><time>2026-05-03T08:20:23.136Z</time></trkpt><trkpt lat="44.8445876" lon="8.5765992"><ele>103.0</ele><time>2026-05-03T08:20:24.136Z</time></trkpt><trkpt lat="44.8445451" lon="8.5767544"><ele>103.0</ele><time>2026-05-03T08:20:26.136Z</time></trkpt><trkpt lat="44.8444983" lon="8.5768799"><ele>103.0</ele><time>2026-05-03T08:20:28.136Z</time></trkpt><trkpt lat="44.8444621" lon="8.5769941"><ele>103.0</ele><time>2026-05-03T08:20:30.137Z</time></trkpt><trkpt lat="44.8444668" lon="8.5771311"><ele>103.00000000000001</ele><time>2026-05-03T08:20:32.137Z</time></trkpt><trkpt lat="44.8444664" lon="8.5772359"><ele>103.0</ele><time>2026-05-03T08:20:34.136Z</time></trkpt><trkpt lat="44.8444559" lon="8.5773724"><ele>103.0</ele><time>2026-05-03T08:20:36.137Z</time></trkpt><trkpt lat="44.8444591" lon="8.5775024"><ele>103.0</ele><time>2026-05-03T08:20:38.136Z</time></trkpt><trkpt lat="44.8444115" lon="8.5776016"><ele>103.00000000000001</ele><time>2026-05-03T08:20:41.136Z</time></trkpt><trkpt lat="44.8443376" lon="8.5776584"><ele>103.0</ele><time>2026-05-03T08:20:43.137Z</time></trkpt><trkpt lat="44.8442542" lon="8.5777287"><ele>103.2</ele><time>2026-05-03T08:20:45.137Z</time></trkpt><trkpt lat="44.8441884" lon="8.5777382"><ele>103.4</ele><time>2026-05-03T08:20:46.136Z</time></trkpt><trkpt lat="44.8441059" lon="8.5778033"><ele>103.60000000000001</ele><time>2026-05-03T08:20:48.137Z</time></trkpt><trkpt lat="44.8440073" lon="8.5778423"><ele>103.80000000000001</ele><time>2026-05-03T08:20:50.137Z</time></trkpt><trkpt lat="44.8439119" lon="8.577783"><ele>104.0</ele><time>2026-05-03T08:20:52.137Z</time></trkpt><trkpt lat="44.8438028" lon="8.5777202"><ele>104.0</ele><time>2026-05-03T08:20:54.136Z</time></trkpt><trkpt lat="44.8436958" lon="8.5776562"><ele>104.0</ele><time>2026-05-03T08:20:56.137Z</time></trkpt><trkpt lat="44.843581" lon="8.5776085"><ele>104.0</ele><time>2026-05-03T08:20:58.136Z</time></trkpt><trkpt lat="44.8434612" lon="8.5775861"><ele>104.0</ele><time>2026-05-03T08:21:00.136Z</time></trkpt><trkpt lat="44.8433963" lon="8.5775984"><ele>104.0</ele><time>2026-05-03T08:21:01.136Z</time></trkpt><trkpt lat="44.843332" lon="8.5776293"><ele>104.33333333333333</ele><time>2026-05-03T08:21:02.136Z</time></trkpt><trkpt lat="44.8432716" lon="8.5776662"><ele>104.66666666666666</ele><time>2026-05-03T08:21:03.137Z</time></trkpt><trkpt lat="44.8431745" lon="8.5777115"><ele>105.0</ele><time>2026-05-03T08:21:05.137Z</time></trkpt><trkpt lat="44.843111" lon="8.5777041"><ele>105.33333333333334</ele><time>2026-05-03T08:21:07.137Z</time></trkpt><trkpt lat="44.8430346" lon="8.577753"><ele>105.66666666666667</ele><time>2026-05-03T08:21:09.136Z</time></trkpt><trkpt lat="44.8429697" lon="8.5778236"><ele>106.0</ele><time>2026-05-03T08:21:11.137Z</time></trkpt><trkpt lat="44.8429126" lon="8.5779253"><ele>105.8</ele><time>2026-05-03T08:21:13.138Z</time></trkpt><trkpt lat="44.8428358" lon="8.5780195"><ele>105.6</ele><time>2026-05-03T08:21:15.138Z</time></trkpt><trkpt lat="44.8427292" lon="8.5780826"><ele>105.4</ele><time>2026-05-03T08:21:17.138Z</time></trkpt><trkpt lat="44.8426339" lon="8.5781573"><ele>105.2</ele><time>2026-05-03T08:21:19.137Z</time></trkpt><trkpt lat="44.8425922" lon="8.5782921"><ele>105.0</ele><time>2026-05-03T08:21:21.138Z</time></trkpt><trkpt lat="44.8426124" lon="8.5784642"><ele>105.66666666666667</ele><time>2026-05-03T08:21:23.137Z</time></trkpt><trkpt lat="44.8426322" lon="8.5785611"><ele>106.33333333333334</ele><time>2026-05-03T08:21:25.137Z</time></trkpt><trkpt lat="44.8427085" lon="8.5784923"><ele>107.0</ele><time>2026-05-03T08:21:36.138Z</time></trkpt><trkpt lat="44.8426971" lon="8.5783539"><ele>107.66666666666667</ele><time>2026-05-03T08:21:38.137Z</time></trkpt><trkpt lat="44.842701" lon="8.5782101"><ele>108.33333333333334</ele><time>2026-05-03T08:21:40.138Z</time></trkpt><trkpt lat="44.8427472" lon="8.5781133"><ele>109.0</ele><time>2026-05-03T08:21:42.137Z</time></trkpt><trkpt lat="44.8428241" lon="8.5780475"><ele>109.0</ele><time>2026-05-03T08:21:44.137Z</time></trkpt><trkpt lat="44.8429092" lon="8.5779711"><ele>109.0</ele><time>2026-05-03T08:21:46.137Z</time></trkpt><trkpt lat="44.8429892" lon="8.5779144"><ele>109.0</ele><time>2026-05-03T08:21:48.138Z</time></trkpt><trkpt lat="44.8430781" lon="8.5778271"><ele>109.0</ele><time>2026-05-03T08:21:50.138Z</time></trkpt><trkpt lat="44.8431132" lon="8.5776954"><ele>109.0</ele><time>2026-05-03T08:21:52.137Z</time></trkpt><trkpt lat="44.8430869" lon="8.5776085"><ele>108.50000000000001</ele><time>2026-05-03T08:21:53.137Z</time></trkpt><trkpt lat="44.8430422" lon="8.5775446"><ele>108.0</ele><time>2026-05-03T08:21:54.138Z</time></trkpt><trkpt lat="44.8429972" lon="8.5774798"><ele>107.5</ele><time>2026-05-03T08:21:55.137Z</time></trkpt><trkpt lat="44.8429492" lon="8.577418"><ele>107.0</ele><time>2026-05-03T08:21:56.138Z</time></trkpt><trkpt lat="44.8428751" lon="8.5772862"><ele>106.50000000000001</ele><time>2026-05-03T08:21:58.138Z</time></trkpt><trkpt lat="44.8428177" lon="8.577139"><ele>106.0</ele><time>2026-05-03T08:22:00.139Z</time></trkpt><trkpt lat="44.84276" lon="8.576984"><ele>105.85714285714286</ele><time>2026-05-03T08:22:02.139Z</time></trkpt><trkpt lat="44.8427287" lon="8.5768957"><ele>105.71428571428571</ele><time>2026-05-03T08:22:03.138Z</time></trkpt><trkpt lat="44.8427034" lon="8.5768141"><ele>105.57142857142857</ele><time>2026-05-03T08:22:04.138Z</time></trkpt><trkpt lat="44.8426781" lon="8.5767326"><ele>105.42857142857143</ele><time>2026-05-03T08:22:05.139Z</time></trkpt><trkpt lat="44.842647" lon="8.5766456"><ele>105.28571428571428</ele><time>2026-05-03T08:22:06.139Z</time></trkpt><trkpt lat="44.8426223" lon="8.5765639"><ele>105.14285714285714</ele><time>2026-05-03T08:22:07.138Z</time></trkpt><trkpt lat="44.8426009" lon="8.576479"><ele>105.0</ele><time>2026-05-03T08:22:08.138Z</time></trkpt><trkpt lat="44.8425791" lon="8.5763947"><ele>104.85714285714286</ele><time>2026-05-03T08:22:09.139Z</time></trkpt><trkpt lat="44.842558" lon="8.5763042"><ele>104.71428571428572</ele><time>2026-05-03T08:22:10.138Z</time></trkpt><trkpt lat="44.8425381" lon="8.5762091"><ele>104.57142857142857</ele><time>2026-05-03T08:22:11.139Z</time></trkpt><trkpt lat="44.8425142" lon="8.576122"><ele>104.42857142857143</ele><time>2026-05-03T08:22:12.138Z</time></trkpt><trkpt lat="44.8424807" lon="8.5760379"><ele>104.28571428571429</ele><time>2026-05-03T08:22:13.139Z</time></trkpt><trkpt lat="44.8424471" lon="8.5759439"><ele>104.14285714285714</ele><time>2026-05-03T08:22:14.138Z</time></trkpt><trkpt lat="44.8424154" lon="8.5758483"><ele>104.0</ele><time>2026-05-03T08:22:15.138Z</time></trkpt><trkpt lat="44.8423954" lon="8.5757479"><ele>104.0</ele><time>2026-05-03T08:22:16.138Z</time></trkpt><trkpt lat="44.8423677" lon="8.5756608"><ele>104.0</ele><time>2026-05-03T08:22:17.138Z</time></trkpt><trkpt lat="44.842342" lon="8.5755708"><ele>104.0</ele><time>2026-05-03T08:22:18.139Z</time></trkpt><trkpt lat="44.84231" lon="8.5754764"><ele>104.0</ele><time>2026-05-03T08:22:19.138Z</time></trkpt><trkpt lat="44.842275" lon="8.575379"><ele>104.0</ele><time>2026-05-03T08:22:20.138Z</time></trkpt><trkpt lat="44.8422411" lon="8.575296"><ele>104.0</ele><time>2026-05-03T08:22:21.139Z</time></trkpt><trkpt lat="44.8422069" lon="8.5752144"><ele>104.0</ele><time>2026-05-03T08:22:22.138Z</time></trkpt><trkpt lat="44.8421774" lon="8.5751273"><ele>104.14285714285714</ele><time>2026-05-03T08:22:23.139Z</time></trkpt><trkpt lat="44.8421462" lon="8.5750381"><ele>104.28571428571429</ele><time>2026-05-03T08:22:24.138Z</time></trkpt><trkpt lat="44.8421208" lon="8.5749374"><ele>104.42857142857143</ele><time>2026-05-03T08:22:25.139Z</time></trkpt><trkpt lat="44.842091" lon="8.5748498"><ele>104.57142857142857</ele><time>2026-05-03T08:22:26.139Z</time></trkpt><trkpt lat="44.8420585" lon="8.574766"><ele>104.71428571428572</ele><time>2026-05-03T08:22:27.138Z</time></trkpt><trkpt lat="44.8420225" lon="8.57468"><ele>104.85714285714286</ele><time>2026-05-03T08:22:28.139Z</time></trkpt><trkpt lat="44.8419854" lon="8.5745886"><ele>105.0</ele><time>2026-05-03T08:22:29.138Z</time></trkpt><trkpt lat="44.8419429" lon="8.5744655"><ele>105.0</ele><time>2026-05-03T08:22:31.139Z</time></trkpt><trkpt lat="44.8419181" lon="8.5743399"><ele>105.0</ele><time>2026-05-03T08:22:34.139Z</time></trkpt><trkpt lat="44.8418485" lon="8.574243"><ele>105.0</ele><time>2026-05-03T08:22:39.138Z</time></trkpt><trkpt lat="44.841768" lon="8.5742316"><ele>105.0</ele><time>2026-05-03T08:22:40.138Z</time></trkpt><trkpt lat="44.841697" lon="8.5742486"><ele>105.0</ele><time>2026-05-03T08:22:41.138Z</time></trkpt><trkpt lat="44.8416356" lon="8.5742794"><ele>105.0</ele><time>2026-05-03T08:22:42.139Z</time></trkpt><trkpt lat="44.8415303" lon="8.5743425"><ele>105.0</ele><time>2026-05-03T08:22:44.139Z</time></trkpt><trkpt lat="44.8414207" lon="8.5743818"><ele>105.0</ele><time>2026-05-03T08:22:46.139Z</time></trkpt><trkpt lat="44.8413053" lon="8.5744118"><ele>105.0</ele><time>2026-05-03T08:22:48.139Z</time></trkpt><trkpt lat="44.841238" lon="8.5744268"><ele>105.0</ele><time>2026-05-03T08:22:49.139Z</time></trkpt><trkpt lat="44.8411748" lon="8.5744429"><ele>105.0</ele><time>2026-05-03T08:22:50.139Z</time></trkpt><trkpt lat="44.8411121" lon="8.5744606"><ele>105.0</ele><time>2026-05-03T08:22:51.14Z</time></trkpt><trkpt lat="44.8409952" lon="8.574495"><ele>104.83333333333333</ele><time>2026-05-03T08:22:53.139Z</time></trkpt><trkpt lat="44.8408799" lon="8.5745275"><ele>104.66666666666666</ele><time>2026-05-03T08:22:55.139Z</time></trkpt><trkpt lat="44.8408174" lon="8.5745512"><ele>104.5</ele><time>2026-05-03T08:22:56.139Z</time></trkpt><trkpt lat="44.8407456" lon="8.5745644"><ele>104.33333333333333</ele><time>2026-05-03T08:22:57.139Z</time></trkpt><trkpt lat="44.8406808" lon="8.5745764"><ele>104.16666666666666</ele><time>2026-05-03T08:22:58.14Z</time></trkpt><trkpt lat="44.8405709" lon="8.5746046"><ele>104.0</ele><time>2026-05-03T08:23:00.139Z</time></trkpt><trkpt lat="44.8404506" lon="8.5746276"><ele>103.99999999999999</ele><time>2026-05-03T08:23:02.139Z</time></trkpt><trkpt lat="44.8403838" lon="8.5746427"><ele>104.0</ele><time>2026-05-03T08:23:03.14Z</time></trkpt><trkpt lat="44.840319" lon="8.5746558"><ele>104.0</ele><time>2026-05-03T08:23:04.14Z</time></trkpt><trkpt lat="44.8402021" lon="8.574682"><ele>104.0</ele><time>2026-05-03T08:23:06.14Z</time></trkpt><trkpt lat="44.8400856" lon="8.574706"><ele>103.99999999999999</ele><time>2026-05-03T08:23:08.14Z</time></trkpt><trkpt lat="44.8400174" lon="8.5747309"><ele>104.0</ele><time>2026-05-03T08:23:09.14Z</time></trkpt><trkpt lat="44.8399497" lon="8.5747458"><ele>103.85714285714285</ele><time>2026-05-03T08:23:10.14Z</time></trkpt><trkpt lat="44.839879" lon="8.5747585"><ele>103.71428571428572</ele><time>2026-05-03T08:23:11.14Z</time></trkpt><trkpt lat="44.839806" lon="8.5747718"><ele>103.57142857142857</ele><time>2026-05-03T08:23:12.139Z</time></trkpt><trkpt lat="44.8397332" lon="8.5747845"><ele>103.42857142857142</ele><time>2026-05-03T08:23:13.14Z</time></trkpt><trkpt lat="44.8396603" lon="8.5747902"><ele>103.28571428571428</ele><time>2026-05-03T08:23:14.139Z</time></trkpt><trkpt lat="44.8395874" lon="8.5747761"><ele>103.14285714285714</ele><time>2026-05-03T08:23:15.139Z</time></trkpt><trkpt lat="44.8395076" lon="8.5747745"><ele>103.0</ele><time>2026-05-03T08:23:16.139Z</time></trkpt><trkpt lat="44.8394264" lon="8.5747768"><ele>103.00000000000001</ele><time>2026-05-03T08:23:17.139Z</time></trkpt><trkpt lat="44.8393476" lon="8.5747763"><ele>103.0</ele><time>2026-05-03T08:23:18.14Z</time></trkpt><trkpt lat="44.8392649" lon="8.5747772"><ele>103.0</ele><time>2026-05-03T08:23:19.139Z</time></trkpt><trkpt lat="44.8391827" lon="8.5747822"><ele>103.0</ele><time>2026-05-03T08:23:20.14Z</time></trkpt><trkpt lat="44.8390926" lon="8.5747886"><ele>103.00000000000001</ele><time>2026-05-03T08:23:21.139Z</time></trkpt><trkpt lat="44.839002" lon="8.5747987"><ele>103.0</ele><time>2026-05-03T08:23:22.139Z</time></trkpt><trkpt lat="44.8389111" lon="8.5748009"><ele>103.00000000000001</ele><time>2026-05-03T08:23:23.14Z</time></trkpt><trkpt lat="44.8388186" lon="8.5748103"><ele>103.0</ele><time>2026-05-03T08:23:24.139Z</time></trkpt><trkpt lat="44.8387322" lon="8.574813"><ele>103.0</ele><time>2026-05-03T08:23:25.14Z</time></trkpt><trkpt lat="44.8386504" lon="8.5748198"><ele>103.0</ele><time>2026-05-03T08:23:26.14Z</time></trkpt><trkpt lat="44.8385638" lon="8.5748253"><ele>103.00000000000001</ele><time>2026-05-03T08:23:27.14Z</time></trkpt><trkpt lat="44.8384796" lon="8.574829"><ele>103.0</ele><time>2026-05-03T08:23:28.141Z</time></trkpt><trkpt lat="44.8384013" lon="8.574834"><ele>103.00000000000001</ele><time>2026-05-03T08:23:29.14Z</time></trkpt><trkpt lat="44.8383229" lon="8.5748398"><ele>103.0</ele><time>2026-05-03T08:23:30.141Z</time></trkpt><trkpt lat="44.8382377" lon="8.5748456"><ele>103.0</ele><time>2026-05-03T08:23:31.14Z</time></trkpt><trkpt lat="44.8381547" lon="8.5748564"><ele>103.0</ele><time>2026-05-03T08:23:32.141Z</time></trkpt><trkpt lat="44.8380674" lon="8.5748651"><ele>103.00000000000001</ele><time>2026-05-03T08:23:33.14Z</time></trkpt><trkpt lat="44.8379762" lon="8.574869"><ele>103.0</ele><time>2026-05-03T08:23:34.14Z</time></trkpt><trkpt lat="44.8378841" lon="8.5748794"><ele>103.00000000000001</ele><time>2026-05-03T08:23:35.14Z</time></trkpt><trkpt lat="44.8377966" lon="8.5748918"><ele>103.0</ele><time>2026-05-03T08:23:36.141Z</time></trkpt><trkpt lat="44.8377155" lon="8.574902"><ele>103.0</ele><time>2026-05-03T08:23:37.14Z</time></trkpt><trkpt lat="44.8376343" lon="8.5749116"><ele>103.0</ele><time>2026-05-03T08:23:38.14Z</time></trkpt><trkpt lat="44.8375486" lon="8.5749157"><ele>103.00000000000001</ele><time>2026-05-03T08:23:39.14Z</time></trkpt><trkpt lat="44.8374633" lon="8.574923"><ele>103.0</ele><time>2026-05-03T08:23:40.141Z</time></trkpt><trkpt lat="44.8373785" lon="8.5749334"><ele>102.83333333333334</ele><time>2026-05-03T08:23:41.14Z</time></trkpt><trkpt lat="44.8372935" lon="8.5749406"><ele>102.66666666666667</ele><time>2026-05-03T08:23:42.141Z</time></trkpt><trkpt lat="44.8372108" lon="8.5749466"><ele>102.5</ele><time>2026-05-03T08:23:43.141Z</time></trkpt><trkpt lat="44.8371242" lon="8.5749548"><ele>102.33333333333334</ele><time>2026-05-03T08:23:44.141Z</time></trkpt><trkpt lat="44.837034" lon="8.57496"><ele>102.16666666666667</ele><time>2026-05-03T08:23:45.14Z</time></trkpt><trkpt lat="44.8369422" lon="8.574962"><ele>102.0</ele><time>2026-05-03T08:23:46.14Z</time></trkpt><trkpt lat="44.8368518" lon="8.5749593"><ele>102.33333333333333</ele><time>2026-05-03T08:23:47.14Z</time></trkpt><trkpt lat="44.8367626" lon="8.5749534"><ele>102.66666666666666</ele><time>2026-05-03T08:23:48.141Z</time></trkpt><trkpt lat="44.8366753" lon="8.5749416"><ele>103.0</ele><time>2026-05-03T08:23:49.14Z</time></trkpt><trkpt lat="44.8365895" lon="8.5749288"><ele>103.33333333333333</ele><time>2026-05-03T08:23:50.141Z</time></trkpt><trkpt lat="44.8365029" lon="8.5749159"><ele>103.66666666666666</ele><time>2026-05-03T08:23:51.14Z</time></trkpt><trkpt lat="44.8364113" lon="8.5749092"><ele>104.0</ele><time>2026-05-03T08:23:52.14Z</time></trkpt><trkpt lat="44.8363219" lon="8.574918"><ele>103.99999999999999</ele><time>2026-05-03T08:23:53.141Z</time></trkpt><trkpt lat="44.8362444" lon="8.5749578"><ele>104.0</ele><time>2026-05-03T08:23:54.14Z</time></trkpt><trkpt lat="44.8361698" lon="8.5750005"><ele>104.0</ele><time>2026-05-03T08:23:55.14Z</time></trkpt><trkpt lat="44.8360929" lon="8.575044"><ele>104.0</ele><time>2026-05-03T08:23:56.141Z</time></trkpt><trkpt lat="44.8360126" lon="8.5750779"><ele>103.99999999999999</ele><time>2026-05-03T08:23:57.141Z</time></trkpt><trkpt lat="44.8359317" lon="8.5751108"><ele>104.0</ele><time>2026-05-03T08:23:58.14Z</time></trkpt><trkpt lat="44.8358459" lon="8.5751518"><ele>103.66666666666666</ele><time>2026-05-03T08:23:59.14Z</time></trkpt><trkpt lat="44.8357664" lon="8.5751937"><ele>103.33333333333333</ele><time>2026-05-03T08:24:00.14Z</time></trkpt><trkpt lat="44.8356914" lon="8.5752532"><ele>103.0</ele><time>2026-05-03T08:24:01.141Z</time></trkpt><trkpt lat="44.8356239" lon="8.5753315"><ele>102.66666666666666</ele><time>2026-05-03T08:24:02.141Z</time></trkpt><trkpt lat="44.8355661" lon="8.5754316"><ele>102.33333333333333</ele><time>2026-05-03T08:24:03.14Z</time></trkpt><trkpt lat="44.8355159" lon="8.5755368"><ele>102.0</ele><time>2026-05-03T08:24:04.141Z</time></trkpt><trkpt lat="44.8354668" lon="8.5756484"><ele>101.6</ele><time>2026-05-03T08:24:05.141Z</time></trkpt><trkpt lat="44.8354159" lon="8.5757555"><ele>101.19999999999999</ele><time>2026-05-03T08:24:06.141Z</time></trkpt><trkpt lat="44.8353637" lon="8.5758608"><ele>100.8</ele><time>2026-05-03T08:24:07.141Z</time></trkpt><trkpt lat="44.835309" lon="8.5759618"><ele>100.4</ele><time>2026-05-03T08:24:08.141Z</time></trkpt><trkpt lat="44.8352536" lon="8.5760677"><ele>100.0</ele><time>2026-05-03T08:24:09.14Z</time></trkpt><trkpt lat="44.8351965" lon="8.5761766"><ele>100.0</ele><time>2026-05-03T08:24:10.141Z</time></trkpt><trkpt lat="44.8351409" lon="8.5762818"><ele>100.0</ele><time>2026-05-03T08:24:11.14Z</time></trkpt><trkpt lat="44.8350838" lon="8.5763861"><ele>100.0</ele><time>2026-05-03T08:24:12.142Z</time></trkpt><trkpt lat="44.8350231" lon="8.5764916"><ele>100.0</ele><time>2026-05-03T08:24:13.142Z</time></trkpt><trkpt lat="44.8349621" lon="8.5765971"><ele>100.0</ele><time>2026-05-03T08:24:14.141Z</time></trkpt><trkpt lat="44.8349011" lon="8.5766985"><ele>100.6</ele><time>2026-05-03T08:24:15.142Z</time></trkpt><trkpt lat="44.8348413" lon="8.5767964"><ele>101.2</ele><time>2026-05-03T08:24:16.142Z</time></trkpt><trkpt lat="44.834783" lon="8.5768921"><ele>101.80000000000001</ele><time>2026-05-03T08:24:17.141Z</time></trkpt><trkpt lat="44.834724" lon="8.576996"><ele>102.4</ele><time>2026-05-03T08:24:18.141Z</time></trkpt><trkpt lat="44.834662" lon="8.5770978"><ele>103.0</ele><time>2026-05-03T08:24:19.142Z</time></trkpt><trkpt lat="44.8345997" lon="8.5772035"><ele>103.0</ele><time>2026-05-03T08:24:20.141Z</time></trkpt><trkpt lat="44.8345373" lon="8.5773057"><ele>103.0</ele><time>2026-05-03T08:24:21.141Z</time></trkpt><trkpt lat="44.8344758" lon="8.5774066"><ele>103.0</ele><time>2026-05-03T08:24:22.141Z</time></trkpt><trkpt lat="44.8344135" lon="8.5775059"><ele>103.0</ele><time>2026-05-03T08:24:23.142Z</time></trkpt><trkpt lat="44.8343511" lon="8.5776079"><ele>103.0</ele><time>2026-05-03T08:24:24.142Z</time></trkpt><trkpt lat="44.8342878" lon="8.5777051"><ele>103.2</ele><time>2026-05-03T08:24:25.141Z</time></trkpt><trkpt lat="44.8342224" lon="8.5777955"><ele>103.4</ele><time>2026-05-03T08:24:26.141Z</time></trkpt><trkpt lat="44.8341544" lon="8.5778837"><ele>103.60000000000001</ele><time>2026-05-03T08:24:27.142Z</time></trkpt><trkpt lat="44.8340862" lon="8.5779705"><ele>103.80000000000001</ele><time>2026-05-03T08:24:28.142Z</time></trkpt><trkpt lat="44.8340155" lon="8.5780568"><ele>104.0</ele><time>2026-05-03T08:24:29.142Z</time></trkpt><trkpt lat="44.8339426" lon="8.5781412"><ele>104.0</ele><time>2026-05-03T08:24:30.141Z</time></trkpt><trkpt lat="44.8338674" lon="8.5782207"><ele>104.0</ele><time>2026-05-03T08:24:31.141Z</time></trkpt><trkpt lat="44.83379" lon="8.578295"><ele>104.0</ele><time>2026-05-03T08:24:32.142Z</time></trkpt><trkpt lat="44.8337093" lon="8.5783639"><ele>104.0</ele><time>2026-05-03T08:24:33.141Z</time></trkpt><trkpt lat="44.8336254" lon="8.5784277"><ele>104.0</ele><time>2026-05-03T08:24:34.141Z</time></trkpt><trkpt lat="44.8335391" lon="8.5784858"><ele>103.80000000000001</ele><time>2026-05-03T08:24:35.141Z</time></trkpt><trkpt lat="44.833452" lon="8.5785399"><ele>103.60000000000001</ele><time>2026-05-03T08:24:36.141Z</time></trkpt><trkpt lat="44.8333661" lon="8.5785954"><ele>103.4</ele><time>2026-05-03T08:24:37.142Z</time></trkpt><trkpt lat="44.8332825" lon="8.578656"><ele>103.2</ele><time>2026-05-03T08:24:38.142Z</time></trkpt><trkpt lat="44.8331985" lon="8.5787149"><ele>103.0</ele><time>2026-05-03T08:24:39.141Z</time></trkpt><trkpt lat="44.833114" lon="8.5787704"><ele>103.0</ele><time>2026-05-03T08:24:40.141Z</time></trkpt><trkpt lat="44.8330294" lon="8.5788264"><ele>103.0</ele><time>2026-05-03T08:24:41.141Z</time></trkpt><trkpt lat="44.8329448" lon="8.5788869"><ele>103.0</ele><time>2026-05-03T08:24:42.141Z</time></trkpt><trkpt lat="44.8328612" lon="8.5789529"><ele>103.0</ele><time>2026-05-03T08:24:43.142Z</time></trkpt><trkpt lat="44.8327758" lon="8.5790148"><ele>103.0</ele><time>2026-05-03T08:24:44.142Z</time></trkpt><trkpt lat="44.8326892" lon="8.5790726"><ele>103.4</ele><time>2026-05-03T08:24:45.141Z</time></trkpt><trkpt lat="44.8326031" lon="8.5791279"><ele>103.80000000000001</ele><time>2026-05-03T08:24:46.141Z</time></trkpt><trkpt lat="44.8325167" lon="8.5791714"><ele>104.2</ele><time>2026-05-03T08:24:47.141Z</time></trkpt><trkpt lat="44.8324286" lon="8.579208"><ele>104.6</ele><time>2026-05-03T08:24:48.142Z</time></trkpt><trkpt lat="44.8323397" lon="8.5792424"><ele>105.0</ele><time>2026-05-03T08:24:49.141Z</time></trkpt><trkpt lat="44.8322475" lon="8.5792796"><ele>105.0</ele><time>2026-05-03T08:24:50.141Z</time></trkpt><trkpt lat="44.8321553" lon="8.5793195"><ele>105.0</ele><time>2026-05-03T08:24:51.142Z</time></trkpt><trkpt lat="44.8320645" lon="8.5793622"><ele>105.0</ele><time>2026-05-03T08:24:52.141Z</time></trkpt><trkpt lat="44.8319743" lon="8.5794076"><ele>105.0</ele><time>2026-05-03T08:24:53.142Z</time></trkpt><trkpt lat="44.8318849" lon="8.5794534"><ele>105.0</ele><time>2026-05-03T08:24:54.141Z</time></trkpt><trkpt lat="44.831798" lon="8.5794993"><ele>104.8</ele><time>2026-05-03T08:24:55.141Z</time></trkpt><trkpt lat="44.8317104" lon="8.5795394"><ele>104.6</ele><time>2026-05-03T08:24:56.142Z</time></trkpt><trkpt lat="44.8316252" lon="8.5795764"><ele>104.4</ele><time>2026-05-03T08:24:57.142Z</time></trkpt><trkpt lat="44.8315357" lon="8.5796084"><ele>104.2</ele><time>2026-05-03T08:24:58.143Z</time></trkpt><trkpt lat="44.8314422" lon="8.5796381"><ele>104.0</ele><time>2026-05-03T08:24:59.143Z</time></trkpt><trkpt lat="44.8313467" lon="8.5796676"><ele>104.0</ele><time>2026-05-03T08:25:00.143Z</time></trkpt><trkpt lat="44.8312533" lon="8.5796973"><ele>104.0</ele><time>2026-05-03T08:25:01.142Z</time></trkpt><trkpt lat="44.8311629" lon="8.5797269"><ele>104.0</ele><time>2026-05-03T08:25:02.142Z</time></trkpt><trkpt lat="44.8310721" lon="8.5797556"><ele>104.0</ele><time>2026-05-03T08:25:03.142Z</time></trkpt><trkpt lat="44.8309802" lon="8.5797832"><ele>104.0</ele><time>2026-05-03T08:25:04.142Z</time></trkpt><trkpt lat="44.8308883" lon="8.579812"><ele>104.0</ele><time>2026-05-03T08:25:05.142Z</time></trkpt><trkpt lat="44.8307965" lon="8.5798464"><ele>104.0</ele><time>2026-05-03T08:25:06.142Z</time></trkpt><trkpt lat="44.8307071" lon="8.5798865"><ele>104.0</ele><time>2026-05-03T08:25:07.142Z</time></trkpt><trkpt lat="44.8306188" lon="8.5799285"><ele>104.0</ele><time>2026-05-03T08:25:08.142Z</time></trkpt><trkpt lat="44.8305298" lon="8.5799709"><ele>104.0</ele><time>2026-05-03T08:25:09.142Z</time></trkpt><trkpt lat="44.8304412" lon="8.5800154"><ele>104.0</ele><time>2026-05-03T08:25:10.143Z</time></trkpt><trkpt lat="44.8303542" lon="8.5800643"><ele>104.0</ele><time>2026-05-03T08:25:11.143Z</time></trkpt><trkpt lat="44.8302679" lon="8.5801184"><ele>104.0</ele><time>2026-05-03T08:25:12.142Z</time></trkpt><trkpt lat="44.8301818" lon="8.5801803"><ele>104.0</ele><time>2026-05-03T08:25:13.142Z</time></trkpt><trkpt lat="44.8300971" lon="8.5802474"><ele>104.0</ele><time>2026-05-03T08:25:14.142Z</time></trkpt><trkpt lat="44.8300134" lon="8.5803168"><ele>103.80000000000001</ele><time>2026-05-03T08:25:15.143Z</time></trkpt><trkpt lat="44.8299313" lon="8.5803858"><ele>103.60000000000001</ele><time>2026-05-03T08:25:16.142Z</time></trkpt><trkpt lat="44.8298479" lon="8.580447"><ele>103.4</ele><time>2026-05-03T08:25:17.142Z</time></trkpt><trkpt lat="44.8297595" lon="8.5804995"><ele>103.2</ele><time>2026-05-03T08:25:18.142Z</time></trkpt><trkpt lat="44.8296712" lon="8.5805502"><ele>103.0</ele><time>2026-05-03T08:25:19.142Z</time></trkpt><trkpt lat="44.8295853" lon="8.5806066"><ele>103.0</ele><time>2026-05-03T08:25:20.143Z</time></trkpt><trkpt lat="44.8295009" lon="8.5806715"><ele>103.0</ele><time>2026-05-03T08:25:21.143Z</time></trkpt><trkpt lat="44.829417" lon="8.5807399"><ele>103.0</ele><time>2026-05-03T08:25:22.142Z</time></trkpt><trkpt lat="44.8293329" lon="8.5807996"><ele>103.0</ele><time>2026-05-03T08:25:23.143Z</time></trkpt><trkpt lat="44.8292463" lon="8.580859"><ele>103.0</ele><time>2026-05-03T08:25:24.143Z</time></trkpt><trkpt lat="44.8291587" lon="8.5809141"><ele>103.0</ele><time>2026-05-03T08:25:25.143Z</time></trkpt><trkpt lat="44.8290712" lon="8.5809675"><ele>103.0</ele><time>2026-05-03T08:25:26.142Z</time></trkpt><trkpt lat="44.8289827" lon="8.5810206"><ele>103.0</ele><time>2026-05-03T08:25:27.142Z</time></trkpt><trkpt lat="44.8288932" lon="8.5810738"><ele>103.0</ele><time>2026-05-03T08:25:28.142Z</time></trkpt><trkpt lat="44.8288037" lon="8.581128"><ele>103.0</ele><time>2026-05-03T08:25:29.142Z</time></trkpt><trkpt lat="44.8287151" lon="8.5811838"><ele>103.0</ele><time>2026-05-03T08:25:30.142Z</time></trkpt><trkpt lat="44.8286277" lon="8.5812408"><ele>103.0</ele><time>2026-05-03T08:25:31.143Z</time></trkpt><trkpt lat="44.8285381" lon="8.5812967"><ele>103.0</ele><time>2026-05-03T08:25:32.142Z</time></trkpt><trkpt lat="44.8284477" lon="8.5813454"><ele>103.0</ele><time>2026-05-03T08:25:33.142Z</time></trkpt><trkpt lat="44.8283559" lon="8.5813829"><ele>103.0</ele><time>2026-05-03T08:25:34.142Z</time></trkpt><trkpt lat="44.8282628" lon="8.5814096"><ele>103.0</ele><time>2026-05-03T08:25:35.142Z</time></trkpt><trkpt lat="44.8281708" lon="8.581426"><ele>103.0</ele><time>2026-05-03T08:25:36.143Z</time></trkpt><trkpt lat="44.8280755" lon="8.5814399"><ele>103.0</ele><time>2026-05-03T08:25:37.143Z</time></trkpt><trkpt lat="44.8279792" lon="8.5814494"><ele>103.0</ele><time>2026-05-03T08:25:38.142Z</time></trkpt><trkpt lat="44.8278842" lon="8.5814564"><ele>103.0</ele><time>2026-05-03T08:25:39.142Z</time></trkpt><trkpt lat="44.82779" lon="8.5814615"><ele>103.0</ele><time>2026-05-03T08:25:40.143Z</time></trkpt><trkpt lat="44.8276972" lon="8.5814652"><ele>103.0</ele><time>2026-05-03T08:25:41.143Z</time></trkpt><trkpt lat="44.8276058" lon="8.5814674"><ele>103.0</ele><time>2026-05-03T08:25:42.143Z</time></trkpt><trkpt lat="44.8275134" lon="8.5814706"><ele>103.0</ele><time>2026-05-03T08:25:43.143Z</time></trkpt><trkpt lat="44.8274231" lon="8.5814804"><ele>103.0</ele><time>2026-05-03T08:25:44.144Z</time></trkpt><trkpt lat="44.827333" lon="8.5814893"><ele>103.60000000000001</ele><time>2026-05-03T08:25:45.144Z</time></trkpt><trkpt lat="44.8272431" lon="8.5814975"><ele>104.2</ele><time>2026-05-03T08:25:46.143Z</time></trkpt><trkpt lat="44.8271506" lon="8.5815015"><ele>104.8</ele><time>2026-05-03T08:25:47.143Z</time></trkpt><trkpt lat="44.8270597" lon="8.5815053"><ele>105.4</ele><time>2026-05-03T08:25:48.143Z</time></trkpt><trkpt lat="44.8269667" lon="8.581511"><ele>106.0</ele><time>2026-05-03T08:25:49.144Z</time></trkpt><trkpt lat="44.8268731" lon="8.5815209"><ele>105.8</ele><time>2026-05-03T08:25:50.143Z</time></trkpt><trkpt lat="44.8267784" lon="8.5815294"><ele>105.6</ele><time>2026-05-03T08:25:51.143Z</time></trkpt><trkpt lat="44.8266845" lon="8.5815384"><ele>105.4</ele><time>2026-05-03T08:25:52.143Z</time></trkpt><trkpt lat="44.8265918" lon="8.5815464"><ele>105.2</ele><time>2026-05-03T08:25:53.143Z</time></trkpt><trkpt lat="44.8264988" lon="8.5815538"><ele>105.0</ele><time>2026-05-03T08:25:54.144Z</time></trkpt><trkpt lat="44.8264072" lon="8.5815595"><ele>105.0</ele><time>2026-05-03T08:25:55.143Z</time></trkpt><trkpt lat="44.8263149" lon="8.5815656"><ele>105.0</ele><time>2026-05-03T08:25:56.143Z</time></trkpt><trkpt lat="44.8262233" lon="8.5815731"><ele>105.0</ele><time>2026-05-03T08:25:57.144Z</time></trkpt><trkpt lat="44.8261317" lon="8.5815804"><ele>105.0</ele><time>2026-05-03T08:25:58.143Z</time></trkpt><trkpt lat="44.8260392" lon="8.5815889"><ele>105.0</ele><time>2026-05-03T08:25:59.143Z</time></trkpt><trkpt lat="44.8259464" lon="8.5815979"><ele>105.0</ele><time>2026-05-03T08:26:00.143Z</time></trkpt><trkpt lat="44.8258537" lon="8.5816053"><ele>105.0</ele><time>2026-05-03T08:26:01.143Z</time></trkpt><trkpt lat="44.8257601" lon="8.5816134"><ele>105.0</ele><time>2026-05-03T08:26:02.144Z</time></trkpt><trkpt lat="44.8256665" lon="8.5816221"><ele>105.0</ele><time>2026-05-03T08:26:03.143Z</time></trkpt><trkpt lat="44.8255729" lon="8.58163"><ele>105.0</ele><time>2026-05-03T08:26:04.143Z</time></trkpt><trkpt lat="44.8254794" lon="8.5816356"><ele>105.0</ele><time>2026-05-03T08:26:05.143Z</time></trkpt><trkpt lat="44.8253865" lon="8.5816401"><ele>105.0</ele><time>2026-05-03T08:26:06.143Z</time></trkpt><trkpt lat="44.8252948" lon="8.581645"><ele>105.0</ele><time>2026-05-03T08:26:07.143Z</time></trkpt><trkpt lat="44.825202" lon="8.5816526"><ele>105.0</ele><time>2026-05-03T08:26:08.144Z</time></trkpt><trkpt lat="44.8251087" lon="8.5816599"><ele>105.0</ele><time>2026-05-03T08:26:09.143Z</time></trkpt><trkpt lat="44.8250159" lon="8.5816666"><ele>105.0</ele><time>2026-05-03T08:26:10.143Z</time></trkpt><trkpt lat="44.8249229" lon="8.5816734"><ele>105.0</ele><time>2026-05-03T08:26:11.143Z</time></trkpt><trkpt lat="44.8248297" lon="8.5816802"><ele>105.0</ele><time>2026-05-03T08:26:12.143Z</time></trkpt><trkpt lat="44.8247359" lon="8.5816843"><ele>105.0</ele><time>2026-05-03T08:26:13.144Z</time></trkpt><trkpt lat="44.8246424" lon="8.5816867"><ele>105.0</ele><time>2026-05-03T08:26:14.143Z</time></trkpt><trkpt lat="44.8245497" lon="8.5816903"><ele>105.0</ele><time>2026-05-03T08:26:15.143Z</time></trkpt><trkpt lat="44.8244571" lon="8.5816963"><ele>105.0</ele><time>2026-05-03T08:26:16.144Z</time></trkpt><trkpt lat="44.8243596" lon="8.5817"><ele>105.0</ele><time>2026-05-03T08:26:17.143Z</time></trkpt><trkpt lat="44.8242652" lon="8.5817029"><ele>105.0</ele><time>2026-05-03T08:26:18.143Z</time></trkpt><trkpt lat="44.8241709" lon="8.5817075"><ele>105.0</ele><time>2026-05-03T08:26:19.143Z</time></trkpt><trkpt lat="44.824077" lon="8.5817144"><ele>105.2</ele><time>2026-05-03T08:26:20.143Z</time></trkpt><trkpt lat="44.8239834" lon="8.5817224"><ele>105.4</ele><time>2026-05-03T08:26:21.143Z</time></trkpt><trkpt lat="44.8238891" lon="8.5817317"><ele>105.6</ele><time>2026-05-03T08:26:22.143Z</time></trkpt><trkpt lat="44.8237942" lon="8.5817386"><ele>105.8</ele><time>2026-05-03T08:26:23.143Z</time></trkpt><trkpt lat="44.8236982" lon="8.5817434"><ele>106.0</ele><time>2026-05-03T08:26:24.143Z</time></trkpt><trkpt lat="44.8236014" lon="8.5817494"><ele>106.0</ele><time>2026-05-03T08:26:25.144Z</time></trkpt><trkpt lat="44.823506" lon="8.5817572"><ele>106.0</ele><time>2026-05-03T08:26:26.145Z</time></trkpt><trkpt lat="44.8234101" lon="8.5817657"><ele>106.0</ele><time>2026-05-03T08:26:27.144Z</time></trkpt><trkpt lat="44.8233133" lon="8.5817754"><ele>106.0</ele><time>2026-05-03T08:26:28.144Z</time></trkpt><trkpt lat="44.8232153" lon="8.5817875"><ele>106.0</ele><time>2026-05-03T08:26:29.144Z</time></trkpt><trkpt lat="44.8231174" lon="8.5817997"><ele>106.0</ele><time>2026-05-03T08:26:30.145Z</time></trkpt><trkpt lat="44.8230187" lon="8.5818109"><ele>106.0</ele><time>2026-05-03T08:26:31.145Z</time></trkpt><trkpt lat="44.8229179" lon="8.5818206"><ele>106.0</ele><time>2026-05-03T08:26:32.145Z</time></trkpt><trkpt lat="44.8228182" lon="8.5818277"><ele>106.0</ele><time>2026-05-03T08:26:33.144Z</time></trkpt><trkpt lat="44.8227188" lon="8.5818334"><ele>106.0</ele><time>2026-05-03T08:26:34.144Z</time></trkpt><trkpt lat="44.8226183" lon="8.5818399"><ele>105.8</ele><time>2026-05-03T08:26:35.144Z</time></trkpt><trkpt lat="44.8225168" lon="8.5818471"><ele>105.6</ele><time>2026-05-03T08:26:36.144Z</time></trkpt><trkpt lat="44.8224167" lon="8.5818577"><ele>105.4</ele><time>2026-05-03T08:26:37.144Z</time></trkpt><trkpt lat="44.8223182" lon="8.5818673"><ele>105.2</ele><time>2026-05-03T08:26:38.144Z</time></trkpt><trkpt lat="44.8222191" lon="8.5818744"><ele>105.0</ele><time>2026-05-03T08:26:39.144Z</time></trkpt><trkpt lat="44.822121" lon="8.5818822"><ele>105.0</ele><time>2026-05-03T08:26:40.145Z</time></trkpt><trkpt lat="44.8220238" lon="8.58189"><ele>105.0</ele><time>2026-05-03T08:26:41.144Z</time></trkpt><trkpt lat="44.8219247" lon="8.5818952"><ele>105.0</ele><time>2026-05-03T08:26:42.144Z</time></trkpt><trkpt lat="44.8218257" lon="8.5818996"><ele>105.0</ele><time>2026-05-03T08:26:43.145Z</time></trkpt><trkpt lat="44.8217272" lon="8.5819071"><ele>105.0</ele><time>2026-05-03T08:26:44.145Z</time></trkpt><trkpt lat="44.8216288" lon="8.5819176"><ele>105.0</ele><time>2026-05-03T08:26:45.144Z</time></trkpt><trkpt lat="44.8215315" lon="8.5819274"><ele>105.0</ele><time>2026-05-03T08:26:46.145Z</time></trkpt><trkpt lat="44.8214349" lon="8.5819375"><ele>105.0</ele><time>2026-05-03T08:26:47.144Z</time></trkpt><trkpt lat="44.8213405" lon="8.581946"><ele>105.0</ele><time>2026-05-03T08:26:48.145Z</time></trkpt><trkpt lat="44.8212437" lon="8.5819531"><ele>105.0</ele><time>2026-05-03T08:26:49.145Z</time></trkpt><trkpt lat="44.821146" lon="8.5819604"><ele>105.0</ele><time>2026-05-03T08:26:50.144Z</time></trkpt><trkpt lat="44.8210485" lon="8.58197"><ele>105.0</ele><time>2026-05-03T08:26:51.144Z</time></trkpt><trkpt lat="44.8209508" lon="8.5819791"><ele>105.0</ele><time>2026-05-03T08:26:52.144Z</time></trkpt><trkpt lat="44.820856" lon="8.5819892"><ele>105.0</ele><time>2026-05-03T08:26:53.144Z</time></trkpt><trkpt lat="44.8207592" lon="8.5819989"><ele>105.0</ele><time>2026-05-03T08:26:54.145Z</time></trkpt><trkpt lat="44.8206615" lon="8.5820053"><ele>105.2</ele><time>2026-05-03T08:26:55.144Z</time></trkpt><trkpt lat="44.8205634" lon="8.5820101"><ele>105.4</ele><time>2026-05-03T08:26:56.144Z</time></trkpt><trkpt lat="44.820466" lon="8.5820164"><ele>105.6</ele><time>2026-05-03T08:26:57.145Z</time></trkpt><trkpt lat="44.8203674" lon="8.5820221"><ele>105.8</ele><time>2026-05-03T08:26:58.144Z</time></trkpt><trkpt lat="44.8202695" lon="8.5820278"><ele>106.0</ele><time>2026-05-03T08:26:59.144Z</time></trkpt><trkpt lat="44.8201727" lon="8.5820337"><ele>106.19999999999999</ele><time>2026-05-03T08:27:00.145Z</time></trkpt><trkpt lat="44.8200767" lon="8.5820414"><ele>106.39999999999999</ele><time>2026-05-03T08:27:01.144Z</time></trkpt><trkpt lat="44.8199807" lon="8.5820522"><ele>106.6</ele><time>2026-05-03T08:27:02.144Z</time></trkpt><trkpt lat="44.8198849" lon="8.5820627"><ele>106.8</ele><time>2026-05-03T08:27:03.145Z</time></trkpt><trkpt lat="44.8197884" lon="8.5820707"><ele>107.0</ele><time>2026-05-03T08:27:04.144Z</time></trkpt><trkpt lat="44.81969" lon="8.5820797"><ele>107.0</ele><time>2026-05-03T08:27:05.144Z</time></trkpt><trkpt lat="44.8195917" lon="8.5820872"><ele>106.99999999999999</ele><time>2026-05-03T08:27:06.145Z</time></trkpt><trkpt lat="44.8194944" lon="8.5820944"><ele>106.99999999999999</ele><time>2026-05-03T08:27:07.146Z</time></trkpt><trkpt lat="44.8193972" lon="8.5821015"><ele>107.0</ele><time>2026-05-03T08:27:08.145Z</time></trkpt><trkpt lat="44.8193009" lon="8.582109"><ele>107.0</ele><time>2026-05-03T08:27:09.146Z</time></trkpt><trkpt lat="44.8192049" lon="8.5821155"><ele>106.6</ele><time>2026-05-03T08:27:10.145Z</time></trkpt><trkpt lat="44.819107" lon="8.582122"><ele>106.19999999999999</ele><time>2026-05-03T08:27:11.146Z</time></trkpt><trkpt lat="44.8190092" lon="8.5821284"><ele>105.8</ele><time>2026-05-03T08:27:12.145Z</time></trkpt><trkpt lat="44.8189118" lon="8.5821349"><ele>105.4</ele><time>2026-05-03T08:27:13.146Z</time></trkpt><trkpt lat="44.8188141" lon="8.5821408"><ele>105.0</ele><time>2026-05-03T08:27:14.146Z</time></trkpt><trkpt lat="44.8187156" lon="8.5821497"><ele>105.0</ele><time>2026-05-03T08:27:15.145Z</time></trkpt><trkpt lat="44.8186183" lon="8.5821604"><ele>105.0</ele><time>2026-05-03T08:27:16.146Z</time></trkpt><trkpt lat="44.8185208" lon="8.5821671"><ele>105.0</ele><time>2026-05-03T08:27:17.146Z</time></trkpt><trkpt lat="44.8184239" lon="8.5821736"><ele>105.0</ele><time>2026-05-03T08:27:18.145Z</time></trkpt><trkpt lat="44.8183265" lon="8.5821834"><ele>105.0</ele><time>2026-05-03T08:27:19.146Z</time></trkpt><trkpt lat="44.818229" lon="8.5821918"><ele>105.2</ele><time>2026-05-03T08:27:20.145Z</time></trkpt><trkpt lat="44.8181309" lon="8.5821979"><ele>105.4</ele><time>2026-05-03T08:27:21.145Z</time></trkpt><trkpt lat="44.8180308" lon="8.5822029"><ele>105.6</ele><time>2026-05-03T08:27:22.145Z</time></trkpt><trkpt lat="44.8179306" lon="8.5822085"><ele>105.8</ele><time>2026-05-03T08:27:23.146Z</time></trkpt><trkpt lat="44.8178306" lon="8.5822156"><ele>106.0</ele><time>2026-05-03T08:27:24.145Z</time></trkpt><trkpt lat="44.817733" lon="8.5822254"><ele>106.4</ele><time>2026-05-03T08:27:25.145Z</time></trkpt><trkpt lat="44.8176349" lon="8.5822343"><ele>106.8</ele><time>2026-05-03T08:27:26.145Z</time></trkpt><trkpt lat="44.8175365" lon="8.5822434"><ele>107.20000000000002</ele><time>2026-05-03T08:27:27.146Z</time></trkpt><trkpt lat="44.8174373" lon="8.5822516"><ele>107.60000000000001</ele><time>2026-05-03T08:27:28.145Z</time></trkpt><trkpt lat="44.817339" lon="8.5822587"><ele>108.0</ele><time>2026-05-03T08:27:29.146Z</time></trkpt><trkpt lat="44.8172421" lon="8.5822654"><ele>108.0</ele><time>2026-05-03T08:27:30.146Z</time></trkpt><trkpt lat="44.8171476" lon="8.5822718"><ele>108.00000000000001</ele><time>2026-05-03T08:27:31.145Z</time></trkpt><trkpt lat="44.8170516" lon="8.5822802"><ele>108.00000000000001</ele><time>2026-05-03T08:27:32.145Z</time></trkpt><trkpt lat="44.8169553" lon="8.5822881"><ele>108.0</ele><time>2026-05-03T08:27:33.145Z</time></trkpt><trkpt lat="44.8168591" lon="8.5822917"><ele>108.0</ele><time>2026-05-03T08:27:34.145Z</time></trkpt><trkpt lat="44.816763" lon="8.5822924"><ele>107.80000000000001</ele><time>2026-05-03T08:27:35.146Z</time></trkpt><trkpt lat="44.8166676" lon="8.5822965"><ele>107.60000000000001</ele><time>2026-05-03T08:27:36.145Z</time></trkpt><trkpt lat="44.8165721" lon="8.5823086"><ele>107.39999999999999</ele><time>2026-05-03T08:27:37.145Z</time></trkpt><trkpt lat="44.8164759" lon="8.5823262"><ele>107.19999999999999</ele><time>2026-05-03T08:27:38.145Z</time></trkpt><trkpt lat="44.8163792" lon="8.5823452"><ele>107.0</ele><time>2026-05-03T08:27:39.145Z</time></trkpt><trkpt lat="44.8162838" lon="8.5823678"><ele>107.0</ele><time>2026-05-03T08:27:40.145Z</time></trkpt><trkpt lat="44.816187" lon="8.5823965"><ele>106.99999999999999</ele><time>2026-05-03T08:27:41.146Z</time></trkpt><trkpt lat="44.8160917" lon="8.5824296"><ele>106.99999999999999</ele><time>2026-05-03T08:27:42.145Z</time></trkpt><trkpt lat="44.815999" lon="8.5824668"><ele>107.0</ele><time>2026-05-03T08:27:43.145Z</time></trkpt><trkpt lat="44.8159065" lon="8.5825084"><ele>107.0</ele><time>2026-05-03T08:27:44.146Z</time></trkpt><trkpt lat="44.8158133" lon="8.582553"><ele>107.19999999999999</ele><time>2026-05-03T08:27:45.145Z</time></trkpt><trkpt lat="44.8157213" lon="8.5826045"><ele>107.39999999999999</ele><time>2026-05-03T08:27:46.145Z</time></trkpt><trkpt lat="44.8156302" lon="8.5826613"><ele>107.60000000000001</ele><time>2026-05-03T08:27:47.145Z</time></trkpt><trkpt lat="44.81554" lon="8.5827162"><ele>107.80000000000001</ele><time>2026-05-03T08:27:48.145Z</time></trkpt><trkpt lat="44.815449" lon="8.5827688"><ele>108.0</ele><time>2026-05-03T08:27:49.145Z</time></trkpt><trkpt lat="44.8153574" lon="8.5828174"><ele>108.0</ele><time>2026-05-03T08:27:50.145Z</time></trkpt><trkpt lat="44.8152664" lon="8.5828637"><ele>108.00000000000001</ele><time>2026-05-03T08:27:51.145Z</time></trkpt><trkpt lat="44.8151762" lon="8.5829117"><ele>108.00000000000001</ele><time>2026-05-03T08:27:52.146Z</time></trkpt><trkpt lat="44.8150853" lon="8.5829611"><ele>108.0</ele><time>2026-05-03T08:27:53.147Z</time></trkpt><trkpt lat="44.8149938" lon="8.5830109"><ele>108.0</ele><time>2026-05-03T08:27:54.146Z</time></trkpt><trkpt lat="44.8149017" lon="8.5830615"><ele>108.0</ele><time>2026-05-03T08:27:55.147Z</time></trkpt><trkpt lat="44.8148109" lon="8.5831115"><ele>108.00000000000001</ele><time>2026-05-03T08:27:56.146Z</time></trkpt><trkpt lat="44.8147196" lon="8.5831609"><ele>108.00000000000001</ele><time>2026-05-03T08:27:57.147Z</time></trkpt><trkpt lat="44.8146292" lon="8.5832112"><ele>108.0</ele><time>2026-05-03T08:27:58.147Z</time></trkpt><trkpt lat="44.8145389" lon="8.583263"><ele>108.0</ele><time>2026-05-03T08:27:59.146Z</time></trkpt><trkpt lat="44.8144476" lon="8.5833145"><ele>108.0</ele><time>2026-05-03T08:28:00.146Z</time></trkpt><trkpt lat="44.814355" lon="8.5833641"><ele>108.00000000000001</ele><time>2026-05-03T08:28:01.146Z</time></trkpt><trkpt lat="44.814262" lon="8.5834127"><ele>108.00000000000001</ele><time>2026-05-03T08:28:02.146Z</time></trkpt><trkpt lat="44.8141703" lon="8.5834604"><ele>108.0</ele><time>2026-05-03T08:28:03.146Z</time></trkpt><trkpt lat="44.8140778" lon="8.5835097"><ele>108.0</ele><time>2026-05-03T08:28:04.146Z</time></trkpt><trkpt lat="44.8139849" lon="8.5835591"><ele>108.0</ele><time>2026-05-03T08:28:05.147Z</time></trkpt><trkpt lat="44.8138928" lon="8.5836066"><ele>108.00000000000001</ele><time>2026-05-03T08:28:06.146Z</time></trkpt><trkpt lat="44.8138011" lon="8.5836535"><ele>108.00000000000001</ele><time>2026-05-03T08:28:07.147Z</time></trkpt><trkpt lat="44.8137081" lon="8.5837018"><ele>108.0</ele><time>2026-05-03T08:28:08.146Z</time></trkpt><trkpt lat="44.813615" lon="8.5837516"><ele>108.0</ele><time>2026-05-03T08:28:09.147Z</time></trkpt><trkpt lat="44.8135228" lon="8.5838042"><ele>108.2</ele><time>2026-05-03T08:28:10.147Z</time></trkpt><trkpt lat="44.8134313" lon="8.5838547"><ele>108.4</ele><time>2026-05-03T08:28:11.146Z</time></trkpt><trkpt lat="44.8133399" lon="8.5839034"><ele>108.60000000000001</ele><time>2026-05-03T08:28:12.146Z</time></trkpt><trkpt lat="44.8132475" lon="8.5839521"><ele>108.80000000000001</ele><time>2026-05-03T08:28:13.147Z</time></trkpt><trkpt lat="44.8131546" lon="8.5840016"><ele>109.0</ele><time>2026-05-03T08:28:14.147Z</time></trkpt><trkpt lat="44.8130632" lon="8.5840509"><ele>109.0</ele><time>2026-05-03T08:28:15.147Z</time></trkpt><trkpt lat="44.8129724" lon="8.5841011"><ele>109.0</ele><time>2026-05-03T08:28:16.146Z</time></trkpt><trkpt lat="44.8128798" lon="8.5841519"><ele>109.0</ele><time>2026-05-03T08:28:17.146Z</time></trkpt><trkpt lat="44.8127868" lon="8.5842022"><ele>109.0</ele><time>2026-05-03T08:28:18.146Z</time></trkpt><trkpt lat="44.8126941" lon="8.584252"><ele>109.0</ele><time>2026-05-03T08:28:19.146Z</time></trkpt><trkpt lat="44.812602" lon="8.5843012"><ele>109.0</ele><time>2026-05-03T08:28:20.146Z</time></trkpt><trkpt lat="44.8125096" lon="8.584349"><ele>109.0</ele><time>2026-05-03T08:28:21.147Z</time></trkpt><trkpt lat="44.812417" lon="8.5843963"><ele>109.0</ele><time>2026-05-03T08:28:22.146Z</time></trkpt><trkpt lat="44.8123243" lon="8.5844425"><ele>109.0</ele><time>2026-05-03T08:28:23.146Z</time></trkpt><trkpt lat="44.812231" lon="8.5844878"><ele>109.0</ele><time>2026-05-03T08:28:24.146Z</time></trkpt><trkpt lat="44.8121362" lon="8.5845265"><ele>109.0</ele><time>2026-05-03T08:28:25.146Z</time></trkpt><trkpt lat="44.8120397" lon="8.5845558"><ele>109.0</ele><time>2026-05-03T08:28:26.147Z</time></trkpt><trkpt lat="44.8119424" lon="8.5845807"><ele>109.0</ele><time>2026-05-03T08:28:27.147Z</time></trkpt><trkpt lat="44.8118459" lon="8.5846053"><ele>109.0</ele><time>2026-05-03T08:28:28.146Z</time></trkpt><trkpt lat="44.8117493" lon="8.5846272"><ele>109.0</ele><time>2026-05-03T08:28:29.146Z</time></trkpt><trkpt lat="44.811652" lon="8.5846424"><ele>109.0</ele><time>2026-05-03T08:28:30.147Z</time></trkpt><trkpt lat="44.8115527" lon="8.5846494"><ele>109.0</ele><time>2026-05-03T08:28:31.146Z</time></trkpt><trkpt lat="44.8114536" lon="8.5846509"><ele>109.0</ele><time>2026-05-03T08:28:32.147Z</time></trkpt><trkpt lat="44.8113543" lon="8.5846483"><ele>109.0</ele><time>2026-05-03T08:28:33.147Z</time></trkpt><trkpt lat="44.8112562" lon="8.5846424"><ele>109.0</ele><time>2026-05-03T08:28:34.146Z</time></trkpt><trkpt lat="44.8111587" lon="8.5846326"><ele>109.0</ele><time>2026-05-03T08:28:35.147Z</time></trkpt><trkpt lat="44.8110614" lon="8.5846188"><ele>109.0</ele><time>2026-05-03T08:28:36.148Z</time></trkpt><trkpt lat="44.8109671" lon="8.5845977"><ele>109.0</ele><time>2026-05-03T08:28:37.147Z</time></trkpt><trkpt lat="44.810873" lon="8.5845715"><ele>109.0</ele><time>2026-05-03T08:28:38.147Z</time></trkpt><trkpt lat="44.810778" lon="8.584541"><ele>109.0</ele><time>2026-05-03T08:28:39.148Z</time></trkpt><trkpt lat="44.8106819" lon="8.5845096"><ele>109.4</ele><time>2026-05-03T08:28:40.148Z</time></trkpt><trkpt lat="44.8105863" lon="8.5844753"><ele>109.80000000000001</ele><time>2026-05-03T08:28:41.147Z</time></trkpt><trkpt lat="44.8104941" lon="8.5844344"><ele>110.19999999999999</ele><time>2026-05-03T08:28:42.148Z</time></trkpt><trkpt lat="44.8104056" lon="8.5843853"><ele>110.6</ele><time>2026-05-03T08:28:43.147Z</time></trkpt><trkpt lat="44.8103156" lon="8.584327"><ele>111.0</ele><time>2026-05-03T08:28:44.147Z</time></trkpt><trkpt lat="44.8102252" lon="8.5842628"><ele>111.19999999999999</ele><time>2026-05-03T08:28:45.147Z</time></trkpt><trkpt lat="44.8101338" lon="8.5841981"><ele>111.39999999999999</ele><time>2026-05-03T08:28:46.147Z</time></trkpt><trkpt lat="44.8100434" lon="8.5841373"><ele>111.6</ele><time>2026-05-03T08:28:47.147Z</time></trkpt><trkpt lat="44.8099529" lon="8.5840808"><ele>111.8</ele><time>2026-05-03T08:28:48.147Z</time></trkpt><trkpt lat="44.809864" lon="8.5840307"><ele>112.0</ele><time>2026-05-03T08:28:49.147Z</time></trkpt><trkpt lat="44.8097737" lon="8.5839883"><ele>112.0</ele><time>2026-05-03T08:28:50.147Z</time></trkpt><trkpt lat="44.8096839" lon="8.5839527"><ele>111.99999999999999</ele><time>2026-05-03T08:28:51.147Z</time></trkpt><trkpt lat="44.8095933" lon="8.5839233"><ele>111.99999999999999</ele><time>2026-05-03T08:28:52.148Z</time></trkpt><trkpt lat="44.8095027" lon="8.5838993"><ele>112.0</ele><time>2026-05-03T08:28:53.148Z</time></trkpt><trkpt lat="44.80941" lon="8.5838793"><ele>112.0</ele><time>2026-05-03T08:28:54.147Z</time></trkpt><trkpt lat="44.8093175" lon="8.5838622"><ele>112.19999999999999</ele><time>2026-05-03T08:28:55.147Z</time></trkpt><trkpt lat="44.8092194" lon="8.58385"><ele>112.39999999999999</ele><time>2026-05-03T08:28:56.147Z</time></trkpt><trkpt lat="44.809116" lon="8.5838418"><ele>112.60000000000001</ele><time>2026-05-03T08:28:57.148Z</time></trkpt><trkpt lat="44.809018" lon="8.5838399"><ele>112.80000000000001</ele><time>2026-05-03T08:28:58.147Z</time></trkpt><trkpt lat="44.8089122" lon="8.5838397"><ele>113.0</ele><time>2026-05-03T08:28:59.147Z</time></trkpt><trkpt lat="44.8088111" lon="8.5838318"><ele>113.0</ele><time>2026-05-03T08:29:00.147Z</time></trkpt><trkpt lat="44.8087155" lon="8.5838199"><ele>113.00000000000001</ele><time>2026-05-03T08:29:01.147Z</time></trkpt><trkpt lat="44.8086225" lon="8.5838027"><ele>113.00000000000001</ele><time>2026-05-03T08:29:02.147Z</time></trkpt><trkpt lat="44.8085292" lon="8.5837732"><ele>113.0</ele><time>2026-05-03T08:29:03.148Z</time></trkpt><trkpt lat="44.8084331" lon="8.583739"><ele>113.0</ele><time>2026-05-03T08:29:04.148Z</time></trkpt><trkpt lat="44.8083423" lon="8.5837005"><ele>112.60000000000001</ele><time>2026-05-03T08:29:05.147Z</time></trkpt><trkpt lat="44.8082588" lon="8.5836616"><ele>112.20000000000002</ele><time>2026-05-03T08:29:06.147Z</time></trkpt><trkpt lat="44.8081713" lon="8.5836244"><ele>111.8</ele><time>2026-05-03T08:29:07.147Z</time></trkpt><trkpt lat="44.8080812" lon="8.5835879"><ele>111.4</ele><time>2026-05-03T08:29:08.147Z</time></trkpt><trkpt lat="44.8079897" lon="8.5835474"><ele>111.0</ele><time>2026-05-03T08:29:09.148Z</time></trkpt><trkpt lat="44.8079004" lon="8.5835082"><ele>111.0</ele><time>2026-05-03T08:29:10.147Z</time></trkpt><trkpt lat="44.8078122" lon="8.5834673"><ele>111.0</ele><time>2026-05-03T08:29:11.147Z</time></trkpt><trkpt lat="44.8077214" lon="8.5834309"><ele>111.0</ele><time>2026-05-03T08:29:12.147Z</time></trkpt><trkpt lat="44.8076325" lon="8.5833901"><ele>111.0</ele><time>2026-05-03T08:29:13.148Z</time></trkpt><trkpt lat="44.8075421" lon="8.5833558"><ele>111.0</ele><time>2026-05-03T08:29:14.147Z</time></trkpt><trkpt lat="44.8074493" lon="8.5833243"><ele>111.6</ele><time>2026-05-03T08:29:15.149Z</time></trkpt><trkpt lat="44.8073529" lon="8.5832943"><ele>112.19999999999999</ele><time>2026-05-03T08:29:16.147Z</time></trkpt><trkpt lat="44.8072529" lon="8.5832661"><ele>112.80000000000001</ele><time>2026-05-03T08:29:17.147Z</time></trkpt><trkpt lat="44.8071579" lon="8.5832407"><ele>113.4</ele><time>2026-05-03T08:29:18.147Z</time></trkpt><trkpt lat="44.8070618" lon="8.5832147"><ele>114.0</ele><time>2026-05-03T08:29:19.148Z</time></trkpt><trkpt lat="44.8069664" lon="8.5831875"><ele>114.0</ele><time>2026-05-03T08:29:20.149Z</time></trkpt><trkpt lat="44.8068716" lon="8.5831572"><ele>114.0</ele><time>2026-05-03T08:29:21.149Z</time></trkpt><trkpt lat="44.8067781" lon="8.5831235"><ele>114.0</ele><time>2026-05-03T08:29:22.148Z</time></trkpt><trkpt lat="44.8066885" lon="8.5830915"><ele>114.0</ele><time>2026-05-03T08:29:23.149Z</time></trkpt><trkpt lat="44.8066034" lon="8.5830631"><ele>114.0</ele><time>2026-05-03T08:29:24.148Z</time></trkpt><trkpt lat="44.8065205" lon="8.5830371"><ele>113.83333333333333</ele><time>2026-05-03T08:29:25.148Z</time></trkpt><trkpt lat="44.8064372" lon="8.5830076"><ele>113.66666666666666</ele><time>2026-05-03T08:29:26.148Z</time></trkpt><trkpt lat="44.806352" lon="8.5829748"><ele>113.5</ele><time>2026-05-03T08:29:27.149Z</time></trkpt><trkpt lat="44.806265" lon="8.5829426"><ele>113.33333333333333</ele><time>2026-05-03T08:29:28.148Z</time></trkpt><trkpt lat="44.8061817" lon="8.5829126"><ele>113.16666666666666</ele><time>2026-05-03T08:29:29.148Z</time></trkpt><trkpt lat="44.8060991" lon="8.5828885"><ele>113.0</ele><time>2026-05-03T08:29:30.148Z</time></trkpt><trkpt lat="44.8060137" lon="8.5828713"><ele>113.16666666666666</ele><time>2026-05-03T08:29:31.148Z</time></trkpt><trkpt lat="44.8059232" lon="8.5828572"><ele>113.33333333333333</ele><time>2026-05-03T08:29:32.148Z</time></trkpt><trkpt lat="44.8058327" lon="8.5828525"><ele>113.5</ele><time>2026-05-03T08:29:33.148Z</time></trkpt><trkpt lat="44.8057455" lon="8.5828484"><ele>113.66666666666666</ele><time>2026-05-03T08:29:34.148Z</time></trkpt><trkpt lat="44.805663" lon="8.582845"><ele>113.83333333333333</ele><time>2026-05-03T08:29:35.148Z</time></trkpt><trkpt lat="44.8055781" lon="8.582846"><ele>114.0</ele><time>2026-05-03T08:29:36.148Z</time></trkpt><trkpt lat="44.8054954" lon="8.5828458"><ele>114.0</ele><time>2026-05-03T08:29:37.148Z</time></trkpt><trkpt lat="44.8054138" lon="8.5828459"><ele>114.0</ele><time>2026-05-03T08:29:38.148Z</time></trkpt><trkpt lat="44.8053325" lon="8.5828479"><ele>114.0</ele><time>2026-05-03T08:29:39.148Z</time></trkpt><trkpt lat="44.8052526" lon="8.5828515"><ele>114.0</ele><time>2026-05-03T08:29:40.149Z</time></trkpt><trkpt lat="44.8051722" lon="8.5828541"><ele>114.0</ele><time>2026-05-03T08:29:41.148Z</time></trkpt><trkpt lat="44.805096" lon="8.5828614"><ele>114.0</ele><time>2026-05-03T08:29:42.149Z</time></trkpt><trkpt lat="44.805022" lon="8.5828606"><ele>114.14285714285714</ele><time>2026-05-03T08:29:43.148Z</time></trkpt><trkpt lat="44.8049506" lon="8.5828592"><ele>114.28571428571428</ele><time>2026-05-03T08:29:44.148Z</time></trkpt><trkpt lat="44.8048693" lon="8.5828597"><ele>114.42857142857142</ele><time>2026-05-03T08:29:45.148Z</time></trkpt><trkpt lat="44.8047872" lon="8.5828594"><ele>114.57142857142856</ele><time>2026-05-03T08:29:46.149Z</time></trkpt><trkpt lat="44.8047204" lon="8.5828561"><ele>114.71428571428571</ele><time>2026-05-03T08:29:47.148Z</time></trkpt><trkpt lat="44.8046537" lon="8.5828437"><ele>114.85714285714283</ele><time>2026-05-03T08:29:48.148Z</time></trkpt><trkpt lat="44.804593" lon="8.5828195"><ele>114.99999999999999</ele><time>2026-05-03T08:29:49.148Z</time></trkpt><trkpt lat="44.8044729" lon="8.5827816"><ele>114.99999999999999</ele><time>2026-05-03T08:29:51.148Z</time></trkpt><trkpt lat="44.8044119" lon="8.5828135"><ele>115.0</ele><time>2026-05-03T08:29:52.148Z</time></trkpt><trkpt lat="44.8043448" lon="8.5828654"><ele>114.99999999999999</ele><time>2026-05-03T08:29:53.148Z</time></trkpt><trkpt lat="44.8042903" lon="8.5829189"><ele>114.99999999999999</ele><time>2026-05-03T08:29:54.148Z</time></trkpt><trkpt lat="44.8042583" lon="8.5830059"><ele>115.0</ele><time>2026-05-03T08:29:55.149Z</time></trkpt><trkpt lat="44.8042166" lon="8.5830882"><ele>114.99999999999999</ele><time>2026-05-03T08:29:56.149Z</time></trkpt><trkpt lat="44.8041615" lon="8.5831572"><ele>114.99999999999999</ele><time>2026-05-03T08:29:57.149Z</time></trkpt><trkpt lat="44.8041034" lon="8.5832183"><ele>115.42857142857142</ele><time>2026-05-03T08:29:58.148Z</time></trkpt><trkpt lat="44.8040405" lon="8.5832689"><ele>115.85714285714286</ele><time>2026-05-03T08:29:59.148Z</time></trkpt><trkpt lat="44.8039742" lon="8.583291"><ele>116.28571428571428</ele><time>2026-05-03T08:30:00.148Z</time></trkpt><trkpt lat="44.8039014" lon="8.5832883"><ele>116.71428571428571</ele><time>2026-05-03T08:30:01.149Z</time></trkpt><trkpt lat="44.8038304" lon="8.5832763"><ele>117.14285714285714</ele><time>2026-05-03T08:30:02.148Z</time></trkpt><trkpt lat="44.8037533" lon="8.5832579"><ele>117.57142857142857</ele><time>2026-05-03T08:30:03.149Z</time></trkpt><trkpt lat="44.8036816" lon="8.5832385"><ele>118.0</ele><time>2026-05-03T08:30:04.148Z</time></trkpt><trkpt lat="44.8036045" lon="8.5832206"><ele>118.00000000000001</ele><time>2026-05-03T08:30:05.15Z</time></trkpt><trkpt lat="44.8035124" lon="8.5832123"><ele>118.0</ele><time>2026-05-03T08:30:06.15Z</time></trkpt><trkpt lat="44.8034272" lon="8.5831944"><ele>118.0</ele><time>2026-05-03T08:30:07.149Z</time></trkpt><trkpt lat="44.8033563" lon="8.5831695"><ele>118.0</ele><time>2026-05-03T08:30:08.15Z</time></trkpt><trkpt lat="44.8032696" lon="8.5831321"><ele>118.00000000000001</ele><time>2026-05-03T08:30:09.149Z</time></trkpt><trkpt lat="44.8031784" lon="8.5830818"><ele>118.0</ele><time>2026-05-03T08:30:10.149Z</time></trkpt><trkpt lat="44.803091" lon="8.5830528"><ele>118.00000000000001</ele><time>2026-05-03T08:30:11.149Z</time></trkpt><trkpt lat="44.8030051" lon="8.5830228"><ele>118.0</ele><time>2026-05-03T08:30:12.149Z</time></trkpt><trkpt lat="44.8029167" lon="8.582999"><ele>118.0</ele><time>2026-05-03T08:30:13.149Z</time></trkpt><trkpt lat="44.8028297" lon="8.5829747"><ele>118.0</ele><time>2026-05-03T08:30:14.15Z</time></trkpt><trkpt lat="44.8027442" lon="8.5829456"><ele>118.00000000000001</ele><time>2026-05-03T08:30:15.149Z</time></trkpt><trkpt lat="44.8026556" lon="8.5829139"><ele>118.0</ele><time>2026-05-03T08:30:16.15Z</time></trkpt><trkpt lat="44.8025698" lon="8.5828839"><ele>117.50000000000001</ele><time>2026-05-03T08:30:17.149Z</time></trkpt><trkpt lat="44.8024844" lon="8.5828575"><ele>117.0</ele><time>2026-05-03T08:30:18.15Z</time></trkpt><trkpt lat="44.8023976" lon="8.5828262"><ele>116.5</ele><time>2026-05-03T08:30:19.15Z</time></trkpt><trkpt lat="44.8023154" lon="8.5827952"><ele>116.0</ele><time>2026-05-03T08:30:20.15Z</time></trkpt><trkpt lat="44.8022306" lon="8.5827616"><ele>115.50000000000001</ele><time>2026-05-03T08:30:21.15Z</time></trkpt><trkpt lat="44.8021448" lon="8.5827316"><ele>115.0</ele><time>2026-05-03T08:30:22.149Z</time></trkpt><trkpt lat="44.8020619" lon="8.5827041"><ele>114.33333333333334</ele><time>2026-05-03T08:30:23.15Z</time></trkpt><trkpt lat="44.8019765" lon="8.5826763"><ele>113.66666666666667</ele><time>2026-05-03T08:30:24.149Z</time></trkpt><trkpt lat="44.8018914" lon="8.5826499"><ele>113.0</ele><time>2026-05-03T08:30:25.149Z</time></trkpt><trkpt lat="44.8018004" lon="8.5826231"><ele>112.33333333333334</ele><time>2026-05-03T08:30:26.15Z</time></trkpt><trkpt lat="44.8017134" lon="8.5825945"><ele>111.66666666666667</ele><time>2026-05-03T08:30:27.149Z</time></trkpt><trkpt lat="44.8016272" lon="8.5825687"><ele>111.0</ele><time>2026-05-03T08:30:28.149Z</time></trkpt><trkpt lat="44.801542" lon="8.5825415"><ele>111.0</ele><time>2026-05-03T08:30:29.149Z</time></trkpt><trkpt lat="44.8014553" lon="8.5825151"><ele>111.0</ele><time>2026-05-03T08:30:30.15Z</time></trkpt><trkpt lat="44.801367" lon="8.5824866"><ele>111.0</ele><time>2026-05-03T08:30:31.149Z</time></trkpt><trkpt lat="44.801273" lon="8.5824564"><ele>111.0</ele><time>2026-05-03T08:30:32.149Z</time></trkpt><trkpt lat="44.8011784" lon="8.5824277"><ele>111.0</ele><time>2026-05-03T08:30:33.149Z</time></trkpt><trkpt lat="44.8010836" lon="8.5823988"><ele>111.0</ele><time>2026-05-03T08:30:34.149Z</time></trkpt><trkpt lat="44.8009869" lon="8.5823674"><ele>111.0</ele><time>2026-05-03T08:30:35.149Z</time></trkpt><trkpt lat="44.800892" lon="8.5823367"><ele>111.0</ele><time>2026-05-03T08:30:36.15Z</time></trkpt><trkpt lat="44.8007933" lon="8.5823066"><ele>111.0</ele><time>2026-05-03T08:30:37.15Z</time></trkpt><trkpt lat="44.8006952" lon="8.5822785"><ele>111.0</ele><time>2026-05-03T08:30:38.149Z</time></trkpt><trkpt lat="44.8005955" lon="8.5822484"><ele>111.0</ele><time>2026-05-03T08:30:39.149Z</time></trkpt><trkpt lat="44.8004969" lon="8.5822166"><ele>111.0</ele><time>2026-05-03T08:30:40.149Z</time></trkpt><trkpt lat="44.8003979" lon="8.5821855"><ele>111.0</ele><time>2026-05-03T08:30:41.15Z</time></trkpt><trkpt lat="44.8003002" lon="8.5821558"><ele>111.0</ele><time>2026-05-03T08:30:42.15Z</time></trkpt><trkpt lat="44.8002025" lon="8.5821263"><ele>111.0</ele><time>2026-05-03T08:30:43.149Z</time></trkpt><trkpt lat="44.800105" lon="8.5820957"><ele>111.0</ele><time>2026-05-03T08:30:44.149Z</time></trkpt><trkpt lat="44.8000038" lon="8.5820652"><ele>111.0</ele><time>2026-05-03T08:30:45.149Z</time></trkpt><trkpt lat="44.7999019" lon="8.5820322"><ele>111.0</ele><time>2026-05-03T08:30:46.149Z</time></trkpt><trkpt lat="44.7997997" lon="8.5819977"><ele>111.0</ele><time>2026-05-03T08:30:47.15Z</time></trkpt><trkpt lat="44.7996971" lon="8.5819639"><ele>111.0</ele><time>2026-05-03T08:30:48.149Z</time></trkpt><trkpt lat="44.7995968" lon="8.5819329"><ele>111.0</ele><time>2026-05-03T08:30:49.151Z</time></trkpt><trkpt lat="44.7994973" lon="8.5819013"><ele>111.0</ele><time>2026-05-03T08:30:50.15Z</time></trkpt><trkpt lat="44.7993975" lon="8.581867"><ele>111.0</ele><time>2026-05-03T08:30:51.151Z</time></trkpt><trkpt lat="44.7992968" lon="8.5818336"><ele>111.0</ele><time>2026-05-03T08:30:52.151Z</time></trkpt><trkpt lat="44.7991936" lon="8.5818066"><ele>111.0</ele><time>2026-05-03T08:30:53.15Z</time></trkpt><trkpt lat="44.7990959" lon="8.5817781"><ele>111.19999999999999</ele><time>2026-05-03T08:30:54.15Z</time></trkpt><trkpt lat="44.7990016" lon="8.5817507"><ele>111.39999999999999</ele><time>2026-05-03T08:30:55.15Z</time></trkpt><trkpt lat="44.7989047" lon="8.5817233"><ele>111.6</ele><time>2026-05-03T08:30:56.15Z</time></trkpt><trkpt lat="44.79881" lon="8.5816912"><ele>111.8</ele><time>2026-05-03T08:30:57.15Z</time></trkpt><trkpt lat="44.7987146" lon="8.5816586"><ele>112.0</ele><time>2026-05-03T08:30:58.15Z</time></trkpt><trkpt lat="44.79862" lon="8.5816268"><ele>112.0</ele><time>2026-05-03T08:30:59.15Z</time></trkpt><trkpt lat="44.7985272" lon="8.5815972"><ele>111.99999999999999</ele><time>2026-05-03T08:31:00.15Z</time></trkpt><trkpt lat="44.7984319" lon="8.5815673"><ele>111.99999999999999</ele><time>2026-05-03T08:31:01.15Z</time></trkpt><trkpt lat="44.7983349" lon="8.5815425"><ele>112.0</ele><time>2026-05-03T08:31:02.15Z</time></trkpt><trkpt lat="44.798239" lon="8.5815238"><ele>112.0</ele><time>2026-05-03T08:31:03.15Z</time></trkpt><trkpt lat="44.7981428" lon="8.5815125"><ele>112.6</ele><time>2026-05-03T08:31:04.15Z</time></trkpt><trkpt lat="44.7980497" lon="8.5815065"><ele>113.19999999999999</ele><time>2026-05-03T08:31:05.15Z</time></trkpt><trkpt lat="44.7979552" lon="8.5815055"><ele>113.8</ele><time>2026-05-03T08:31:06.15Z</time></trkpt><trkpt lat="44.7978553" lon="8.5814955"><ele>114.4</ele><time>2026-05-03T08:31:07.151Z</time></trkpt><trkpt lat="44.7977549" lon="8.5814812"><ele>115.0</ele><time>2026-05-03T08:31:08.15Z</time></trkpt><trkpt lat="44.7976558" lon="8.581464"><ele>115.2</ele><time>2026-05-03T08:31:09.15Z</time></trkpt><trkpt lat="44.7975599" lon="8.5814492"><ele>115.4</ele><time>2026-05-03T08:31:10.15Z</time></trkpt><trkpt lat="44.7974628" lon="8.5814321"><ele>115.6</ele><time>2026-05-03T08:31:11.151Z</time></trkpt><trkpt lat="44.7973648" lon="8.5814178"><ele>115.8</ele><time>2026-05-03T08:31:12.15Z</time></trkpt><trkpt lat="44.7972692" lon="8.5814057"><ele>116.0</ele><time>2026-05-03T08:31:13.151Z</time></trkpt><trkpt lat="44.7971743" lon="8.5813981"><ele>116.0</ele><time>2026-05-03T08:31:14.151Z</time></trkpt><trkpt lat="44.7970768" lon="8.5813912"><ele>116.0</ele><time>2026-05-03T08:31:15.15Z</time></trkpt><trkpt lat="44.7969804" lon="8.5813855"><ele>116.0</ele><time>2026-05-03T08:31:16.15Z</time></trkpt><trkpt lat="44.7968839" lon="8.5813797"><ele>116.0</ele><time>2026-05-03T08:31:17.151Z</time></trkpt><trkpt lat="44.796787" lon="8.5813721"><ele>116.0</ele><time>2026-05-03T08:31:18.15Z</time></trkpt><trkpt lat="44.7966864" lon="8.581364"><ele>116.0</ele><time>2026-05-03T08:31:19.15Z</time></trkpt><trkpt lat="44.7965845" lon="8.5813628"><ele>116.0</ele><time>2026-05-03T08:31:20.15Z</time></trkpt><trkpt lat="44.7964849" lon="8.5813675"><ele>116.0</ele><time>2026-05-03T08:31:21.15Z</time></trkpt><trkpt lat="44.7963898" lon="8.5813749"><ele>116.0</ele><time>2026-05-03T08:31:22.15Z</time></trkpt><trkpt lat="44.7962925" lon="8.5813794"><ele>116.0</ele><time>2026-05-03T08:31:23.15Z</time></trkpt><trkpt lat="44.7961906" lon="8.5813817"><ele>116.0</ele><time>2026-05-03T08:31:24.15Z</time></trkpt><trkpt lat="44.7960919" lon="8.5813877"><ele>116.0</ele><time>2026-05-03T08:31:25.15Z</time></trkpt><trkpt lat="44.7959921" lon="8.5813976"><ele>116.0</ele><time>2026-05-03T08:31:26.151Z</time></trkpt><trkpt lat="44.7958994" lon="8.5814116"><ele>116.0</ele><time>2026-05-03T08:31:27.15Z</time></trkpt><trkpt lat="44.7958065" lon="8.5814246"><ele>116.0</ele><time>2026-05-03T08:31:28.15Z</time></trkpt><trkpt lat="44.7957119" lon="8.5814338"><ele>116.4</ele><time>2026-05-03T08:31:29.15Z</time></trkpt><trkpt lat="44.7956143" lon="8.5814385"><ele>116.8</ele><time>2026-05-03T08:31:30.15Z</time></trkpt><trkpt lat="44.795516" lon="8.5814444"><ele>117.20000000000002</ele><time>2026-05-03T08:31:31.151Z</time></trkpt><trkpt lat="44.7954175" lon="8.5814538"><ele>117.60000000000001</ele><time>2026-05-03T08:31:32.15Z</time></trkpt><trkpt lat="44.7953191" lon="8.5814633"><ele>118.0</ele><time>2026-05-03T08:31:33.151Z</time></trkpt><trkpt lat="44.7952211" lon="8.5814736"><ele>118.0</ele><time>2026-05-03T08:31:34.151Z</time></trkpt><trkpt lat="44.7951228" lon="8.5814874"><ele>118.00000000000001</ele><time>2026-05-03T08:31:35.151Z</time></trkpt><trkpt lat="44.7950268" lon="8.5814996"><ele>118.00000000000001</ele><time>2026-05-03T08:31:36.152Z</time></trkpt><trkpt lat="44.7949315" lon="8.5815103"><ele>118.0</ele><time>2026-05-03T08:31:37.152Z</time></trkpt><trkpt lat="44.7948344" lon="8.5815199"><ele>118.0</ele><time>2026-05-03T08:31:38.152Z</time></trkpt><trkpt lat="44.7947372" lon="8.5815314"><ele>118.0</ele><time>2026-05-03T08:31:39.151Z</time></trkpt><trkpt lat="44.7946405" lon="8.5815434"><ele>118.00000000000001</ele><time>2026-05-03T08:31:40.152Z</time></trkpt><trkpt lat="44.7945446" lon="8.5815545"><ele>118.00000000000001</ele><time>2026-05-03T08:31:41.151Z</time></trkpt><trkpt lat="44.7944486" lon="8.5815651"><ele>118.0</ele><time>2026-05-03T08:31:42.151Z</time></trkpt><trkpt lat="44.7943516" lon="8.5815705"><ele>118.0</ele><time>2026-05-03T08:31:43.151Z</time></trkpt><trkpt lat="44.7942539" lon="8.5815672"><ele>118.0</ele><time>2026-05-03T08:31:44.151Z</time></trkpt><trkpt lat="44.794156" lon="8.5815485"><ele>118.00000000000001</ele><time>2026-05-03T08:31:45.151Z</time></trkpt><trkpt lat="44.7940588" lon="8.5815067"><ele>118.00000000000001</ele><time>2026-05-03T08:31:46.151Z</time></trkpt><trkpt lat="44.7939692" lon="8.581445"><ele>118.0</ele><time>2026-05-03T08:31:47.151Z</time></trkpt><trkpt lat="44.7938869" lon="8.581365"><ele>118.0</ele><time>2026-05-03T08:31:48.152Z</time></trkpt><trkpt lat="44.7938084" lon="8.5812752"><ele>118.0</ele><time>2026-05-03T08:31:49.151Z</time></trkpt><trkpt lat="44.7937309" lon="8.5811924"><ele>118.00000000000001</ele><time>2026-05-03T08:31:50.151Z</time></trkpt><trkpt lat="44.7936504" lon="8.5811177"><ele>118.00000000000001</ele><time>2026-05-03T08:31:51.152Z</time></trkpt><trkpt lat="44.7935676" lon="8.5810457"><ele>118.0</ele><time>2026-05-03T08:31:52.151Z</time></trkpt><trkpt lat="44.7934852" lon="8.5809737"><ele>118.0</ele><time>2026-05-03T08:31:53.151Z</time></trkpt><trkpt lat="44.7934028" lon="8.5809001"><ele>118.80000000000001</ele><time>2026-05-03T08:31:54.151Z</time></trkpt><trkpt lat="44.7933207" lon="8.5808271"><ele>119.60000000000001</ele><time>2026-05-03T08:31:55.151Z</time></trkpt><trkpt lat="44.7932373" lon="8.5807552"><ele>120.39999999999999</ele><time>2026-05-03T08:31:56.151Z</time></trkpt><trkpt lat="44.7931541" lon="8.5806849"><ele>121.19999999999999</ele><time>2026-05-03T08:31:57.151Z</time></trkpt><trkpt lat="44.7930693" lon="8.580616"><ele>122.0</ele><time>2026-05-03T08:31:58.151Z</time></trkpt><trkpt lat="44.7929844" lon="8.5805481"><ele>122.0</ele><time>2026-05-03T08:31:59.151Z</time></trkpt><trkpt lat="44.7929018" lon="8.580475"><ele>121.99999999999999</ele><time>2026-05-03T08:32:00.151Z</time></trkpt><trkpt lat="44.7928248" lon="8.5804076"><ele>121.99999999999999</ele><time>2026-05-03T08:32:01.151Z</time></trkpt><trkpt lat="44.7927428" lon="8.5803415"><ele>122.0</ele><time>2026-05-03T08:32:02.152Z</time></trkpt><trkpt lat="44.7926579" lon="8.5802762"><ele>122.0</ele><time>2026-05-03T08:32:03.152Z</time></trkpt><trkpt lat="44.7925728" lon="8.5802088"><ele>122.0</ele><time>2026-05-03T08:32:04.151Z</time></trkpt><trkpt lat="44.792489" lon="8.5801363"><ele>121.99999999999999</ele><time>2026-05-03T08:32:05.152Z</time></trkpt><trkpt lat="44.792405" lon="8.580063"><ele>121.99999999999999</ele><time>2026-05-03T08:32:06.152Z</time></trkpt><trkpt lat="44.7923209" lon="8.5799923"><ele>122.0</ele><time>2026-05-03T08:32:07.151Z</time></trkpt><trkpt lat="44.7922341" lon="8.5799197"><ele>122.0</ele><time>2026-05-03T08:32:08.151Z</time></trkpt><trkpt lat="44.7921508" lon="8.5798481"><ele>122.0</ele><time>2026-05-03T08:32:09.151Z</time></trkpt><trkpt lat="44.7920686" lon="8.5797756"><ele>121.99999999999999</ele><time>2026-05-03T08:32:10.152Z</time></trkpt><trkpt lat="44.7919862" lon="8.5797008"><ele>121.99999999999999</ele><time>2026-05-03T08:32:11.151Z</time></trkpt><trkpt lat="44.7919037" lon="8.5796253"><ele>122.0</ele><time>2026-05-03T08:32:12.151Z</time></trkpt><trkpt lat="44.7918242" lon="8.579549"><ele>122.0</ele><time>2026-05-03T08:32:13.151Z</time></trkpt><trkpt lat="44.7917459" lon="8.5794733"><ele>121.8</ele><time>2026-05-03T08:32:14.151Z</time></trkpt><trkpt lat="44.7916666" lon="8.5793985"><ele>121.6</ele><time>2026-05-03T08:32:15.151Z</time></trkpt><trkpt lat="44.791586" lon="8.5793215"><ele>121.39999999999999</ele><time>2026-05-03T08:32:16.152Z</time></trkpt><trkpt lat="44.7915017" lon="8.5792516"><ele>121.19999999999999</ele><time>2026-05-03T08:32:17.153Z</time></trkpt><trkpt lat="44.7914165" lon="8.5791792"><ele>121.0</ele><time>2026-05-03T08:32:18.152Z</time></trkpt><trkpt lat="44.7913263" lon="8.5791083"><ele>121.0</ele><time>2026-05-03T08:32:19.152Z</time></trkpt><trkpt lat="44.7912347" lon="8.5790422"><ele>121.0</ele><time>2026-05-03T08:32:20.152Z</time></trkpt><trkpt lat="44.7911461" lon="8.5789794"><ele>121.0</ele><time>2026-05-03T08:32:21.153Z</time></trkpt><trkpt lat="44.7910565" lon="8.5789194"><ele>121.0</ele><time>2026-05-03T08:32:22.152Z</time></trkpt><trkpt lat="44.7909709" lon="8.5788584"><ele>121.0</ele><time>2026-05-03T08:32:23.152Z</time></trkpt><trkpt lat="44.7908812" lon="8.5787937"><ele>121.0</ele><time>2026-05-03T08:32:24.152Z</time></trkpt><trkpt lat="44.7907912" lon="8.5787243"><ele>121.0</ele><time>2026-05-03T08:32:25.152Z</time></trkpt><trkpt lat="44.7907025" lon="8.5786587"><ele>121.0</ele><time>2026-05-03T08:32:26.152Z</time></trkpt><trkpt lat="44.7906165" lon="8.5785929"><ele>121.0</ele><time>2026-05-03T08:32:27.152Z</time></trkpt><trkpt lat="44.7905324" lon="8.5785284"><ele>121.0</ele><time>2026-05-03T08:32:28.153Z</time></trkpt><trkpt lat="44.7904525" lon="8.5784593"><ele>120.8</ele><time>2026-05-03T08:32:29.153Z</time></trkpt><trkpt lat="44.7903738" lon="8.5783788"><ele>120.6</ele><time>2026-05-03T08:32:30.152Z</time></trkpt><trkpt lat="44.790302" lon="8.5782939"><ele>120.4</ele><time>2026-05-03T08:32:31.152Z</time></trkpt><trkpt lat="44.790233" lon="8.5781935"><ele>120.2</ele><time>2026-05-03T08:32:32.152Z</time></trkpt><trkpt lat="44.7901737" lon="8.5780834"><ele>120.0</ele><time>2026-05-03T08:32:33.152Z</time></trkpt><trkpt lat="44.7901219" lon="8.5779651"><ele>120.6</ele><time>2026-05-03T08:32:34.152Z</time></trkpt><trkpt lat="44.7900879" lon="8.5778455"><ele>121.2</ele><time>2026-05-03T08:32:35.152Z</time></trkpt><trkpt lat="44.7900617" lon="8.577722"><ele>121.80000000000001</ele><time>2026-05-03T08:32:36.152Z</time></trkpt><trkpt lat="44.7900376" lon="8.5775927"><ele>122.4</ele><time>2026-05-03T08:32:37.152Z</time></trkpt><trkpt lat="44.7900143" lon="8.5774657"><ele>123.0</ele><time>2026-05-03T08:32:38.153Z</time></trkpt><trkpt lat="44.7899809" lon="8.5773355"><ele>123.0</ele><time>2026-05-03T08:32:39.153Z</time></trkpt><trkpt lat="44.7899405" lon="8.5772079"><ele>123.00000000000001</ele><time>2026-05-03T08:32:40.153Z</time></trkpt><trkpt lat="44.7898964" lon="8.5770872"><ele>123.00000000000001</ele><time>2026-05-03T08:32:41.152Z</time></trkpt><trkpt lat="44.7898479" lon="8.5769666"><ele>123.0</ele><time>2026-05-03T08:32:42.152Z</time></trkpt><trkpt lat="44.7898006" lon="8.5768521"><ele>123.0</ele><time>2026-05-03T08:32:43.152Z</time></trkpt><trkpt lat="44.7897526" lon="8.5767383"><ele>123.0</ele><time>2026-05-03T08:32:44.152Z</time></trkpt><trkpt lat="44.7897021" lon="8.576617"><ele>123.00000000000001</ele><time>2026-05-03T08:32:45.152Z</time></trkpt><trkpt lat="44.7896557" lon="8.5765081"><ele>123.00000000000001</ele><time>2026-05-03T08:32:46.152Z</time></trkpt><trkpt lat="44.7896037" lon="8.5763951"><ele>123.0</ele><time>2026-05-03T08:32:47.152Z</time></trkpt><trkpt lat="44.7895489" lon="8.5762837"><ele>123.0</ele><time>2026-05-03T08:32:48.153Z</time></trkpt><trkpt lat="44.789489" lon="8.5761725"><ele>123.0</ele><time>2026-05-03T08:32:49.152Z</time></trkpt><trkpt lat="44.7894175" lon="8.5760763"><ele>123.00000000000001</ele><time>2026-05-03T08:32:50.152Z</time></trkpt><trkpt lat="44.7893523" lon="8.5759772"><ele>123.00000000000001</ele><time>2026-05-03T08:32:51.152Z</time></trkpt><trkpt lat="44.7892834" lon="8.5758807"><ele>123.0</ele><time>2026-05-03T08:32:52.152Z</time></trkpt><trkpt lat="44.7892113" lon="8.5757874"><ele>123.0</ele><time>2026-05-03T08:32:53.152Z</time></trkpt><trkpt lat="44.7891366" lon="8.5756991"><ele>122.60000000000001</ele><time>2026-05-03T08:32:54.152Z</time></trkpt><trkpt lat="44.7890645" lon="8.5756085"><ele>122.20000000000002</ele><time>2026-05-03T08:32:55.153Z</time></trkpt><trkpt lat="44.7889914" lon="8.5755197"><ele>121.8</ele><time>2026-05-03T08:32:56.152Z</time></trkpt><trkpt lat="44.7889152" lon="8.5754367"><ele>121.4</ele><time>2026-05-03T08:32:57.152Z</time></trkpt><trkpt lat="44.7888388" lon="8.5753566"><ele>121.0</ele><time>2026-05-03T08:32:58.152Z</time></trkpt><trkpt lat="44.7887592" lon="8.5752797"><ele>120.6</ele><time>2026-05-03T08:32:59.153Z</time></trkpt><trkpt lat="44.7886778" lon="8.5752004"><ele>120.19999999999999</ele><time>2026-05-03T08:33:00.153Z</time></trkpt><trkpt lat="44.7885993" lon="8.5751206"><ele>119.80000000000001</ele><time>2026-05-03T08:33:01.153Z</time></trkpt><trkpt lat="44.7885238" lon="8.5750375"><ele>119.4</ele><time>2026-05-03T08:33:02.153Z</time></trkpt><trkpt lat="44.7884471" lon="8.5749547"><ele>119.0</ele><time>2026-05-03T08:33:03.154Z</time></trkpt><trkpt lat="44.7883717" lon="8.5748722"><ele>118.6</ele><time>2026-05-03T08:33:04.154Z</time></trkpt><trkpt lat="44.7883" lon="8.5747899"><ele>118.2</ele><time>2026-05-03T08:33:05.153Z</time></trkpt><trkpt lat="44.7882311" lon="8.5747063"><ele>117.79999999999998</ele><time>2026-05-03T08:33:06.154Z</time></trkpt><trkpt lat="44.7881604" lon="8.5746256"><ele>117.39999999999999</ele><time>2026-05-03T08:33:07.153Z</time></trkpt><trkpt lat="44.7880882" lon="8.5745447"><ele>117.0</ele><time>2026-05-03T08:33:08.153Z</time></trkpt><trkpt lat="44.7880177" lon="8.5744605"><ele>116.8</ele><time>2026-05-03T08:33:09.153Z</time></trkpt><trkpt lat="44.7879455" lon="8.5743791"><ele>116.6</ele><time>2026-05-03T08:33:10.153Z</time></trkpt><trkpt lat="44.7878745" lon="8.5743008"><ele>116.39999999999999</ele><time>2026-05-03T08:33:11.154Z</time></trkpt><trkpt lat="44.7878049" lon="8.5742258"><ele>116.19999999999999</ele><time>2026-05-03T08:33:12.154Z</time></trkpt><trkpt lat="44.7877313" lon="8.5741492"><ele>116.0</ele><time>2026-05-03T08:33:13.154Z</time></trkpt><trkpt lat="44.7876594" lon="8.5740775"><ele>115.99999999999999</ele><time>2026-05-03T08:33:14.153Z</time></trkpt><trkpt lat="44.787591" lon="8.574"><ele>116.0</ele><time>2026-05-03T08:33:15.153Z</time></trkpt><trkpt lat="44.7875269" lon="8.5739222"><ele>116.0</ele><time>2026-05-03T08:33:16.153Z</time></trkpt><trkpt lat="44.7874636" lon="8.5738407"><ele>116.0</ele><time>2026-05-03T08:33:17.153Z</time></trkpt><trkpt lat="44.7873966" lon="8.5737691"><ele>115.99999999999999</ele><time>2026-05-03T08:33:18.153Z</time></trkpt><trkpt lat="44.7873348" lon="8.5737"><ele>116.0</ele><time>2026-05-03T08:33:19.154Z</time></trkpt><trkpt lat="44.7872766" lon="8.5736355"><ele>116.42857142857144</ele><time>2026-05-03T08:33:20.154Z</time></trkpt><trkpt lat="44.7872217" lon="8.5735797"><ele>116.85714285714286</ele><time>2026-05-03T08:33:21.153Z</time></trkpt><trkpt lat="44.7871622" lon="8.5735233"><ele>117.28571428571429</ele><time>2026-05-03T08:33:22.154Z</time></trkpt><trkpt lat="44.7870999" lon="8.5734715"><ele>117.71428571428572</ele><time>2026-05-03T08:33:23.153Z</time></trkpt><trkpt lat="44.787041" lon="8.5734255"><ele>118.14285714285714</ele><time>2026-05-03T08:33:24.153Z</time></trkpt><trkpt lat="44.7869691" lon="8.5733749"><ele>118.57142857142857</ele><time>2026-05-03T08:33:25.153Z</time></trkpt><trkpt lat="44.7869051" lon="8.5733183"><ele>119.0</ele><time>2026-05-03T08:33:26.153Z</time></trkpt><trkpt lat="44.7868398" lon="8.5732567"><ele>119.99999999999999</ele><time>2026-05-03T08:33:27.154Z</time></trkpt><trkpt lat="44.7867794" lon="8.573199"><ele>121.0</ele><time>2026-05-03T08:33:28.153Z</time></trkpt><trkpt lat="44.7867155" lon="8.5731565"><ele>122.0</ele><time>2026-05-03T08:33:29.154Z</time></trkpt><trkpt lat="44.78663" lon="8.5731014"><ele>123.0</ele><time>2026-05-03T08:33:31.154Z</time></trkpt><trkpt lat="44.7866155" lon="8.5729939"><ele>123.99999999999999</ele><time>2026-05-03T08:33:33.153Z</time></trkpt><trkpt lat="44.7866295" lon="8.5728571"><ele>125.0</ele><time>2026-05-03T08:33:35.153Z</time></trkpt><trkpt lat="44.7866454" lon="8.5726857"><ele>125.4</ele><time>2026-05-03T08:33:37.154Z</time></trkpt><trkpt lat="44.7866565" lon="8.5725898"><ele>125.8</ele><time>2026-05-03T08:33:38.153Z</time></trkpt><trkpt lat="44.7866742" lon="8.5725027"><ele>126.19999999999999</ele><time>2026-05-03T08:33:39.153Z</time></trkpt><trkpt lat="44.7866946" lon="8.5723401"><ele>126.6</ele><time>2026-05-03T08:33:41.153Z</time></trkpt><trkpt lat="44.7866377" lon="8.572217"><ele>127.0</ele><time>2026-05-03T08:33:43.154Z</time></trkpt><trkpt lat="44.7865204" lon="8.5721515"><ele>127.00000000000001</ele><time>2026-05-03T08:33:45.155Z</time></trkpt><trkpt lat="44.7864496" lon="8.5721324"><ele>127.0</ele><time>2026-05-03T08:33:46.154Z</time></trkpt><trkpt lat="44.7863813" lon="8.57212"><ele>127.0</ele><time>2026-05-03T08:33:47.155Z</time></trkpt><trkpt lat="44.7863137" lon="8.5720806"><ele>127.0</ele><time>2026-05-03T08:33:48.154Z</time></trkpt><trkpt lat="44.7862397" lon="8.5720529"><ele>127.00000000000001</ele><time>2026-05-03T08:33:49.155Z</time></trkpt><trkpt lat="44.7861474" lon="8.572001"><ele>127.0</ele><time>2026-05-03T08:33:50.154Z</time></trkpt><trkpt lat="44.7860685" lon="8.5719531"><ele>126.16666666666667</ele><time>2026-05-03T08:33:51.155Z</time></trkpt><trkpt lat="44.7859991" lon="8.5719214"><ele>125.33333333333334</ele><time>2026-05-03T08:33:52.155Z</time></trkpt><trkpt lat="44.7859263" lon="8.5718839"><ele>124.5</ele><time>2026-05-03T08:33:53.154Z</time></trkpt><trkpt lat="44.7858562" lon="8.5718566"><ele>123.66666666666666</ele><time>2026-05-03T08:33:54.154Z</time></trkpt><trkpt lat="44.785795" lon="8.5718225"><ele>122.83333333333333</ele><time>2026-05-03T08:33:55.154Z</time></trkpt><trkpt lat="44.7857077" lon="8.5717395"><ele>122.0</ele><time>2026-05-03T08:33:57.155Z</time></trkpt><trkpt lat="44.7856045" lon="8.5717115"><ele>121.99999999999999</ele><time>2026-05-03T08:33:59.154Z</time></trkpt><trkpt lat="44.7854798" lon="8.5716824"><ele>122.0</ele><time>2026-05-03T08:34:01.155Z</time></trkpt><trkpt lat="44.7854176" lon="8.5716648"><ele>122.0</ele><time>2026-05-03T08:34:02.154Z</time></trkpt><trkpt lat="44.7853539" lon="8.5716524"><ele>122.0</ele><time>2026-05-03T08:34:03.155Z</time></trkpt><trkpt lat="44.7852902" lon="8.5716436"><ele>121.99999999999999</ele><time>2026-05-03T08:34:04.154Z</time></trkpt><trkpt lat="44.7851639" lon="8.571619"><ele>122.0</ele><time>2026-05-03T08:34:06.155Z</time></trkpt><trkpt lat="44.785096" lon="8.5716072"><ele>121.99999999999999</ele><time>2026-05-03T08:34:07.154Z</time></trkpt><trkpt lat="44.7850257" lon="8.5715915"><ele>122.0</ele><time>2026-05-03T08:34:08.154Z</time></trkpt><trkpt lat="44.7849525" lon="8.5715754"><ele>121.99999999999999</ele><time>2026-05-03T08:34:09.154Z</time></trkpt><trkpt lat="44.7848835" lon="8.5715603"><ele>121.99999999999999</ele><time>2026-05-03T08:34:10.154Z</time></trkpt><trkpt lat="44.7848114" lon="8.5715466"><ele>122.0</ele><time>2026-05-03T08:34:11.154Z</time></trkpt><trkpt lat="44.7847342" lon="8.5715295"><ele>121.99999999999999</ele><time>2026-05-03T08:34:12.155Z</time></trkpt><trkpt lat="44.7846556" lon="8.5715082"><ele>121.99999999999999</ele><time>2026-05-03T08:34:13.154Z</time></trkpt><trkpt lat="44.7845741" lon="8.5714838"><ele>121.99999999999999</ele><time>2026-05-03T08:34:14.155Z</time></trkpt><trkpt lat="44.7844985" lon="8.5714497"><ele>122.0</ele><time>2026-05-03T08:34:15.155Z</time></trkpt><trkpt lat="44.7844288" lon="8.5714133"><ele>122.0</ele><time>2026-05-03T08:34:16.154Z</time></trkpt><trkpt lat="44.7843606" lon="8.5713698"><ele>122.0</ele><time>2026-05-03T08:34:17.154Z</time></trkpt><trkpt lat="44.7842879" lon="8.5713304"><ele>121.99999999999999</ele><time>2026-05-03T08:34:18.154Z</time></trkpt><trkpt lat="44.7842186" lon="8.5712912"><ele>122.0</ele><time>2026-05-03T08:34:19.154Z</time></trkpt><trkpt lat="44.7841498" lon="8.5712451"><ele>121.99999999999999</ele><time>2026-05-03T08:34:20.154Z</time></trkpt><trkpt lat="44.7840813" lon="8.5711916"><ele>122.0</ele><time>2026-05-03T08:34:21.154Z</time></trkpt><trkpt lat="44.784026" lon="8.5711428"><ele>122.0</ele><time>2026-05-03T08:34:22.155Z</time></trkpt><trkpt lat="44.7839271" lon="8.5710678"><ele>122.0</ele><time>2026-05-03T08:34:24.155Z</time></trkpt><trkpt lat="44.7838618" lon="8.5710273"><ele>121.99999999999999</ele><time>2026-05-03T08:34:30.155Z</time></trkpt><trkpt lat="44.7838344" lon="8.5711722"><ele>122.0</ele><time>2026-05-03T08:34:33.155Z</time></trkpt><trkpt lat="44.783833" lon="8.5712694"><ele>121.99999999999999</ele><time>2026-05-03T08:34:34.155Z</time></trkpt><trkpt lat="44.7838209" lon="8.5714454"><ele>122.0</ele><time>2026-05-03T08:34:36.155Z</time></trkpt><trkpt lat="44.7838202" lon="8.5715432"><ele>122.0</ele><time>2026-05-03T08:34:37.155Z</time></trkpt><trkpt lat="44.7838179" lon="8.5716529"><ele>122.0</ele><time>2026-05-03T08:34:38.155Z</time></trkpt><trkpt lat="44.7838143" lon="8.5717601"><ele>121.99999999999999</ele><time>2026-05-03T08:34:39.155Z</time></trkpt><trkpt lat="44.783815" lon="8.5718671"><ele>122.0</ele><time>2026-05-03T08:34:40.156Z</time></trkpt><trkpt lat="44.783816" lon="8.5719754"><ele>121.99999999999999</ele><time>2026-05-03T08:34:41.155Z</time></trkpt><trkpt lat="44.7838148" lon="8.5720808"><ele>122.0</ele><time>2026-05-03T08:34:42.155Z</time></trkpt><trkpt lat="44.7837993" lon="8.5721973"><ele>122.0</ele><time>2026-05-03T08:34:43.156Z</time></trkpt><trkpt lat="44.7837917" lon="8.5723072"><ele>122.0</ele><time>2026-05-03T08:34:44.155Z</time></trkpt><trkpt lat="44.7837816" lon="8.5724181"><ele>121.99999999999999</ele><time>2026-05-03T08:34:45.155Z</time></trkpt><trkpt lat="44.7837688" lon="8.5725359"><ele>122.0</ele><time>2026-05-03T08:34:46.156Z</time></trkpt><trkpt lat="44.7837569" lon="8.5726597"><ele>121.99999999999999</ele><time>2026-05-03T08:34:47.155Z</time></trkpt><trkpt lat="44.7837433" lon="8.5727841"><ele>122.0</ele><time>2026-05-03T08:34:48.155Z</time></trkpt><trkpt lat="44.7837342" lon="8.5729085"><ele>122.0</ele><time>2026-05-03T08:34:49.155Z</time></trkpt><trkpt lat="44.7837308" lon="8.5730273"><ele>122.0</ele><time>2026-05-03T08:34:50.156Z</time></trkpt><trkpt lat="44.7837262" lon="8.5731352"><ele>121.99999999999999</ele><time>2026-05-03T08:34:51.156Z</time></trkpt><trkpt lat="44.7837205" lon="8.5732443"><ele>122.0</ele><time>2026-05-03T08:34:52.155Z</time></trkpt><trkpt lat="44.7837114" lon="8.5733504"><ele>122.33333333333333</ele><time>2026-05-03T08:34:53.156Z</time></trkpt><trkpt lat="44.7836893" lon="8.5734504"><ele>122.66666666666666</ele><time>2026-05-03T08:34:54.155Z</time></trkpt><trkpt lat="44.7836819" lon="8.5735461"><ele>123.0</ele><time>2026-05-03T08:34:55.156Z</time></trkpt><trkpt lat="44.7836648" lon="8.5737077"><ele>123.33333333333334</ele><time>2026-05-03T08:34:57.155Z</time></trkpt><trkpt lat="44.7836504" lon="8.5738241"><ele>123.66666666666667</ele><time>2026-05-03T08:34:59.155Z</time></trkpt><trkpt lat="44.7836266" lon="8.5739198"><ele>124.0</ele><time>2026-05-03T08:35:01.156Z</time></trkpt><trkpt lat="44.7835813" lon="8.5740047"><ele>123.71428571428572</ele><time>2026-05-03T08:35:04.156Z</time></trkpt><trkpt lat="44.7835019" lon="8.5739946"><ele>123.42857142857144</ele><time>2026-05-03T08:35:06.155Z</time></trkpt><trkpt lat="44.7834339" lon="8.5739609"><ele>123.14285714285714</ele><time>2026-05-03T08:35:07.155Z</time></trkpt><trkpt lat="44.7833668" lon="8.5739375"><ele>122.85714285714286</ele><time>2026-05-03T08:35:08.156Z</time></trkpt><trkpt lat="44.7832912" lon="8.5739301"><ele>122.57142857142857</ele><time>2026-05-03T08:35:09.155Z</time></trkpt><trkpt lat="44.7832158" lon="8.5739274"><ele>122.28571428571428</ele><time>2026-05-03T08:35:10.156Z</time></trkpt><trkpt lat="44.7831439" lon="8.5739196"><ele>121.99999999999999</ele><time>2026-05-03T08:35:11.155Z</time></trkpt><trkpt lat="44.7830656" lon="8.5739122"><ele>121.99999999999999</ele><time>2026-05-03T08:35:12.155Z</time></trkpt><trkpt lat="44.7829855" lon="8.5739081"><ele>122.0</ele><time>2026-05-03T08:35:13.157Z</time></trkpt><trkpt lat="44.782905" lon="8.5739081"><ele>122.0</ele><time>2026-05-03T08:35:14.156Z</time></trkpt><trkpt lat="44.7828324" lon="8.5739115"><ele>122.0</ele><time>2026-05-03T08:35:15.157Z</time></trkpt><trkpt lat="44.7827512" lon="8.5739185"><ele>121.99999999999999</ele><time>2026-05-03T08:35:16.156Z</time></trkpt><trkpt lat="44.7826691" lon="8.573923"><ele>122.0</ele><time>2026-05-03T08:35:17.156Z</time></trkpt><trkpt lat="44.7825847" lon="8.5739318"><ele>122.39999999999999</ele><time>2026-05-03T08:35:18.157Z</time></trkpt><trkpt lat="44.7824946" lon="8.5739376"><ele>122.79999999999998</ele><time>2026-05-03T08:35:19.157Z</time></trkpt><trkpt lat="44.7824051" lon="8.5739468"><ele>123.2</ele><time>2026-05-03T08:35:20.156Z</time></trkpt><trkpt lat="44.7823086" lon="8.5739491"><ele>123.6</ele><time>2026-05-03T08:35:21.156Z</time></trkpt><trkpt lat="44.7822161" lon="8.5739733"><ele>124.0</ele><time>2026-05-03T08:35:22.157Z</time></trkpt><trkpt lat="44.7821288" lon="8.5739871"><ele>124.0</ele><time>2026-05-03T08:35:23.156Z</time></trkpt><trkpt lat="44.782043" lon="8.5740054"><ele>124.0</ele><time>2026-05-03T08:35:24.156Z</time></trkpt><trkpt lat="44.7819499" lon="8.5740294"><ele>124.0</ele><time>2026-05-03T08:35:25.157Z</time></trkpt><trkpt lat="44.7818628" lon="8.5740642"><ele>124.0</ele><time>2026-05-03T08:35:26.156Z</time></trkpt><trkpt lat="44.7817678" lon="8.5741119"><ele>124.0</ele><time>2026-05-03T08:35:27.156Z</time></trkpt><trkpt lat="44.781677" lon="8.5741573"><ele>124.00000000000001</ele><time>2026-05-03T08:35:28.156Z</time></trkpt><trkpt lat="44.7815877" lon="8.574201"><ele>124.0</ele><time>2026-05-03T08:35:29.156Z</time></trkpt><trkpt lat="44.7815044" lon="8.5742412"><ele>124.0</ele><time>2026-05-03T08:35:30.156Z</time></trkpt><trkpt lat="44.7814211" lon="8.5742761"><ele>124.0</ele><time>2026-05-03T08:35:31.156Z</time></trkpt><trkpt lat="44.7813411" lon="8.5743073"><ele>124.00000000000001</ele><time>2026-05-03T08:35:32.156Z</time></trkpt><trkpt lat="44.7812601" lon="8.5743316"><ele>124.0</ele><time>2026-05-03T08:35:33.157Z</time></trkpt><trkpt lat="44.7811771" lon="8.5743511"><ele>124.0</ele><time>2026-05-03T08:35:34.156Z</time></trkpt><trkpt lat="44.7810838" lon="8.5743589"><ele>124.0</ele><time>2026-05-03T08:35:35.156Z</time></trkpt><trkpt lat="44.7809942" lon="8.5743675"><ele>124.0</ele><time>2026-05-03T08:35:36.156Z</time></trkpt><trkpt lat="44.7809036" lon="8.5743786"><ele>124.0</ele><time>2026-05-03T08:35:37.156Z</time></trkpt><trkpt lat="44.7808099" lon="8.5743874"><ele>124.0</ele><time>2026-05-03T08:35:38.157Z</time></trkpt><trkpt lat="44.7807177" lon="8.5743952"><ele>124.00000000000001</ele><time>2026-05-03T08:35:39.156Z</time></trkpt><trkpt lat="44.7806268" lon="8.5744039"><ele>124.0</ele><time>2026-05-03T08:35:40.156Z</time></trkpt><trkpt lat="44.7805358" lon="8.5744118"><ele>124.0</ele><time>2026-05-03T08:35:41.156Z</time></trkpt><trkpt lat="44.7804474" lon="8.5744179"><ele>124.0</ele><time>2026-05-03T08:35:42.156Z</time></trkpt><trkpt lat="44.7803577" lon="8.5744255"><ele>124.00000000000001</ele><time>2026-05-03T08:35:43.156Z</time></trkpt><trkpt lat="44.7802735" lon="8.5744348"><ele>124.0</ele><time>2026-05-03T08:35:44.157Z</time></trkpt><trkpt lat="44.7801813" lon="8.5744476"><ele>124.0</ele><time>2026-05-03T08:35:45.157Z</time></trkpt><trkpt lat="44.7800896" lon="8.5744591"><ele>124.0</ele><time>2026-05-03T08:35:46.156Z</time></trkpt><trkpt lat="44.7799989" lon="8.5744719"><ele>124.0</ele><time>2026-05-03T08:35:47.157Z</time></trkpt><trkpt lat="44.7799087" lon="8.5744848"><ele>124.0</ele><time>2026-05-03T08:35:48.156Z</time></trkpt><trkpt lat="44.7798202" lon="8.5744981"><ele>124.0</ele><time>2026-05-03T08:35:49.156Z</time></trkpt><trkpt lat="44.7797307" lon="8.5745117"><ele>123.83333333333334</ele><time>2026-05-03T08:35:50.156Z</time></trkpt><trkpt lat="44.7796399" lon="8.5745235"><ele>123.66666666666667</ele><time>2026-05-03T08:35:51.157Z</time></trkpt><trkpt lat="44.7795495" lon="8.5745312"><ele>123.5</ele><time>2026-05-03T08:35:52.157Z</time></trkpt><trkpt lat="44.7794608" lon="8.5745343"><ele>123.33333333333334</ele><time>2026-05-03T08:35:53.156Z</time></trkpt><trkpt lat="44.7793751" lon="8.5745383"><ele>123.16666666666667</ele><time>2026-05-03T08:35:54.156Z</time></trkpt><trkpt lat="44.779287" lon="8.5745453"><ele>123.0</ele><time>2026-05-03T08:35:55.156Z</time></trkpt><trkpt lat="44.7791979" lon="8.574553"><ele>123.4</ele><time>2026-05-03T08:35:56.157Z</time></trkpt><trkpt lat="44.7791084" lon="8.5745614"><ele>123.80000000000001</ele><time>2026-05-03T08:35:57.157Z</time></trkpt><trkpt lat="44.7790215" lon="8.5745667"><ele>124.2</ele><time>2026-05-03T08:35:58.157Z</time></trkpt><trkpt lat="44.7789324" lon="8.5745673"><ele>124.6</ele><time>2026-05-03T08:35:59.158Z</time></trkpt><trkpt lat="44.7788402" lon="8.574563"><ele>125.0</ele><time>2026-05-03T08:36:00.158Z</time></trkpt><trkpt lat="44.7787483" lon="8.5745553"><ele>125.0</ele><time>2026-05-03T08:36:01.157Z</time></trkpt><trkpt lat="44.7786567" lon="8.5745431"><ele>125.0</ele><time>2026-05-03T08:36:02.157Z</time></trkpt><trkpt lat="44.778566" lon="8.5745275"><ele>125.0</ele><time>2026-05-03T08:36:03.157Z</time></trkpt><trkpt lat="44.7784748" lon="8.5745099"><ele>125.0</ele><time>2026-05-03T08:36:04.157Z</time></trkpt><trkpt lat="44.7783809" lon="8.5744923"><ele>125.0</ele><time>2026-05-03T08:36:05.158Z</time></trkpt><trkpt lat="44.7782865" lon="8.5744753"><ele>124.8</ele><time>2026-05-03T08:36:06.157Z</time></trkpt><trkpt lat="44.7781949" lon="8.5744587"><ele>124.6</ele><time>2026-05-03T08:36:07.157Z</time></trkpt><trkpt lat="44.7781041" lon="8.57444"><ele>124.4</ele><time>2026-05-03T08:36:08.157Z</time></trkpt><trkpt lat="44.7780133" lon="8.5744163"><ele>124.2</ele><time>2026-05-03T08:36:09.158Z</time></trkpt><trkpt lat="44.7779211" lon="8.5743904"><ele>124.0</ele><time>2026-05-03T08:36:10.158Z</time></trkpt><trkpt lat="44.7778301" lon="8.574365"><ele>124.0</ele><time>2026-05-03T08:36:11.158Z</time></trkpt><trkpt lat="44.7777395" lon="8.5743399"><ele>124.0</ele><time>2026-05-03T08:36:12.158Z</time></trkpt><trkpt lat="44.7776501" lon="8.5743128"><ele>124.0</ele><time>2026-05-03T08:36:13.158Z</time></trkpt><trkpt lat="44.7775619" lon="8.5742802"><ele>124.0</ele><time>2026-05-03T08:36:14.157Z</time></trkpt><trkpt lat="44.7774704" lon="8.5742414"><ele>124.0</ele><time>2026-05-03T08:36:15.157Z</time></trkpt><trkpt lat="44.7773771" lon="8.5742025"><ele>123.80000000000001</ele><time>2026-05-03T08:36:16.157Z</time></trkpt><trkpt lat="44.7772836" lon="8.5741649"><ele>123.60000000000001</ele><time>2026-05-03T08:36:17.157Z</time></trkpt><trkpt lat="44.7771916" lon="8.5741274"><ele>123.4</ele><time>2026-05-03T08:36:18.158Z</time></trkpt><trkpt lat="44.7771013" lon="8.5740863"><ele>123.2</ele><time>2026-05-03T08:36:19.158Z</time></trkpt><trkpt lat="44.7770153" lon="8.5740456"><ele>123.0</ele><time>2026-05-03T08:36:20.157Z</time></trkpt><trkpt lat="44.7769347" lon="8.5740069"><ele>123.0</ele><time>2026-05-03T08:36:21.157Z</time></trkpt><trkpt lat="44.7768621" lon="8.5739692"><ele>123.0</ele><time>2026-05-03T08:36:22.157Z</time></trkpt><trkpt lat="44.7767959" lon="8.5739311"><ele>123.0</ele><time>2026-05-03T08:36:23.157Z</time></trkpt><trkpt lat="44.776732" lon="8.5738963"><ele>123.0</ele><time>2026-05-03T08:36:24.157Z</time></trkpt><trkpt lat="44.7766688" lon="8.5738637"><ele>123.0</ele><time>2026-05-03T08:36:25.157Z</time></trkpt><trkpt lat="44.7766089" lon="8.5738312"><ele>123.0</ele><time>2026-05-03T08:36:26.157Z</time></trkpt><trkpt lat="44.7765105" lon="8.5737291"><ele>122.14285714285717</ele><time>2026-05-03T08:36:28.157Z</time></trkpt><trkpt lat="44.7764813" lon="8.5736387"><ele>121.28571428571429</ele><time>2026-05-03T08:36:29.157Z</time></trkpt><trkpt lat="44.7764595" lon="8.5735374"><ele>120.42857142857144</ele><time>2026-05-03T08:36:30.158Z</time></trkpt><trkpt lat="44.7764288" lon="8.57345"><ele>119.57142857142858</ele><time>2026-05-03T08:36:31.158Z</time></trkpt><trkpt lat="44.7763836" lon="8.5733857"><ele>118.71428571428572</ele><time>2026-05-03T08:36:32.157Z</time></trkpt><trkpt lat="44.7763162" lon="8.5733588"><ele>117.85714285714286</ele><time>2026-05-03T08:36:33.158Z</time></trkpt><trkpt lat="44.7762329" lon="8.5733569"><ele>117.0</ele><time>2026-05-03T08:36:34.158Z</time></trkpt><trkpt lat="44.7761455" lon="8.5733765"><ele>117.0</ele><time>2026-05-03T08:36:35.158Z</time></trkpt><trkpt lat="44.7760581" lon="8.5733887"><ele>116.99999999999999</ele><time>2026-05-03T08:36:36.158Z</time></trkpt><trkpt lat="44.7759689" lon="8.5733802"><ele>116.99999999999999</ele><time>2026-05-03T08:36:37.157Z</time></trkpt><trkpt lat="44.7758835" lon="8.5733446"><ele>117.0</ele><time>2026-05-03T08:36:38.158Z</time></trkpt><trkpt lat="44.7757973" lon="8.57328"><ele>117.0</ele><time>2026-05-03T08:36:39.158Z</time></trkpt><trkpt lat="44.7757146" lon="8.5732011"><ele>117.0</ele><time>2026-05-03T08:36:40.159Z</time></trkpt><trkpt lat="44.7756324" lon="8.5731264"><ele>116.99999999999999</ele><time>2026-05-03T08:36:41.159Z</time></trkpt><trkpt lat="44.7755499" lon="8.5730552"><ele>116.99999999999999</ele><time>2026-05-03T08:36:42.158Z</time></trkpt><trkpt lat="44.7754646" lon="8.5729841"><ele>117.0</ele><time>2026-05-03T08:36:43.159Z</time></trkpt><trkpt lat="44.7753775" lon="8.5729116"><ele>117.0</ele><time>2026-05-03T08:36:44.158Z</time></trkpt><trkpt lat="44.7752893" lon="8.572835"><ele>117.0</ele><time>2026-05-03T08:36:45.158Z</time></trkpt><trkpt lat="44.7752036" lon="8.5727592"><ele>116.99999999999999</ele><time>2026-05-03T08:36:46.158Z</time></trkpt><trkpt lat="44.7751161" lon="8.572684"><ele>116.99999999999999</ele><time>2026-05-03T08:36:47.158Z</time></trkpt><trkpt lat="44.775028" lon="8.5726109"><ele>117.0</ele><time>2026-05-03T08:36:48.158Z</time></trkpt><trkpt lat="44.7749446" lon="8.5725385"><ele>117.0</ele><time>2026-05-03T08:36:49.158Z</time></trkpt><trkpt lat="44.7748617" lon="8.5724673"><ele>117.0</ele><time>2026-05-03T08:36:50.158Z</time></trkpt><trkpt lat="44.774779" lon="8.5723993"><ele>116.99999999999999</ele><time>2026-05-03T08:36:51.158Z</time></trkpt><trkpt lat="44.7746971" lon="8.57233"><ele>116.99999999999999</ele><time>2026-05-03T08:36:52.158Z</time></trkpt><trkpt lat="44.7746128" lon="8.5722619"><ele>117.0</ele><time>2026-05-03T08:36:53.159Z</time></trkpt><trkpt lat="44.7745294" lon="8.5721941"><ele>117.0</ele><time>2026-05-03T08:36:54.158Z</time></trkpt><trkpt lat="44.7744458" lon="8.5721248"><ele>117.0</ele><time>2026-05-03T08:36:55.158Z</time></trkpt><trkpt lat="44.774363" lon="8.5720564"><ele>116.99999999999999</ele><time>2026-05-03T08:36:56.159Z</time></trkpt><trkpt lat="44.7742782" lon="8.5719855"><ele>116.99999999999999</ele><time>2026-05-03T08:36:57.159Z</time></trkpt><trkpt lat="44.7741974" lon="8.5719189"><ele>117.0</ele><time>2026-05-03T08:36:58.158Z</time></trkpt><trkpt lat="44.7741155" lon="8.5718529"><ele>117.0</ele><time>2026-05-03T08:36:59.158Z</time></trkpt><trkpt lat="44.774036" lon="8.5717896"><ele>116.39999999999999</ele><time>2026-05-03T08:37:00.158Z</time></trkpt><trkpt lat="44.7739544" lon="8.571723"><ele>115.79999999999998</ele><time>2026-05-03T08:37:01.158Z</time></trkpt><trkpt lat="44.7738777" lon="8.5716625"><ele>115.2</ele><time>2026-05-03T08:37:02.159Z</time></trkpt><trkpt lat="44.773798" lon="8.5715964"><ele>114.6</ele><time>2026-05-03T08:37:03.158Z</time></trkpt><trkpt lat="44.7737186" lon="8.571526"><ele>114.0</ele><time>2026-05-03T08:37:04.158Z</time></trkpt><trkpt lat="44.7736385" lon="8.5714602"><ele>114.0</ele><time>2026-05-03T08:37:05.158Z</time></trkpt><trkpt lat="44.7735577" lon="8.5713944"><ele>114.0</ele><time>2026-05-03T08:37:06.158Z</time></trkpt><trkpt lat="44.7734743" lon="8.5713261"><ele>114.0</ele><time>2026-05-03T08:37:07.158Z</time></trkpt><trkpt lat="44.7733889" lon="8.571257"><ele>114.0</ele><time>2026-05-03T08:37:08.159Z</time></trkpt><trkpt lat="44.7733049" lon="8.5711895"><ele>114.0</ele><time>2026-05-03T08:37:09.159Z</time></trkpt><trkpt lat="44.7732198" lon="8.571122"><ele>114.2</ele><time>2026-05-03T08:37:10.159Z</time></trkpt><trkpt lat="44.7731359" lon="8.5710538"><ele>114.4</ele><time>2026-05-03T08:37:11.158Z</time></trkpt><trkpt lat="44.7730499" lon="8.5709851"><ele>114.6</ele><time>2026-05-03T08:37:12.159Z</time></trkpt><trkpt lat="44.7729658" lon="8.5709157"><ele>114.8</ele><time>2026-05-03T08:37:13.158Z</time></trkpt><trkpt lat="44.7728817" lon="8.5708458"><ele>115.0</ele><time>2026-05-03T08:37:14.158Z</time></trkpt><trkpt lat="44.7727962" lon="8.5707781"><ele>115.0</ele><time>2026-05-03T08:37:15.159Z</time></trkpt><trkpt lat="44.7727106" lon="8.5707096"><ele>115.0</ele><time>2026-05-03T08:37:16.158Z</time></trkpt><trkpt lat="44.7726254" lon="8.5706402"><ele>115.0</ele><time>2026-05-03T08:37:17.158Z</time></trkpt><trkpt lat="44.7725405" lon="8.5705704"><ele>115.0</ele><time>2026-05-03T08:37:18.158Z</time></trkpt><trkpt lat="44.7724561" lon="8.5705018"><ele>115.0</ele><time>2026-05-03T08:37:19.158Z</time></trkpt><trkpt lat="44.772373" lon="8.5704339"><ele>115.0</ele><time>2026-05-03T08:37:20.158Z</time></trkpt><trkpt lat="44.7722886" lon="8.5703655"><ele>115.0</ele><time>2026-05-03T08:37:21.159Z</time></trkpt><trkpt lat="44.7722052" lon="8.5702994"><ele>115.0</ele><time>2026-05-03T08:37:22.158Z</time></trkpt><trkpt lat="44.7721213" lon="8.5702334"><ele>115.0</ele><time>2026-05-03T08:37:23.158Z</time></trkpt><trkpt lat="44.7720377" lon="8.5701662"><ele>115.0</ele><time>2026-05-03T08:37:24.16Z</time></trkpt><trkpt lat="44.7719533" lon="8.5700983"><ele>115.0</ele><time>2026-05-03T08:37:25.159Z</time></trkpt><trkpt lat="44.7718703" lon="8.5700331"><ele>115.0</ele><time>2026-05-03T08:37:26.159Z</time></trkpt><trkpt lat="44.7717884" lon="8.569968"><ele>115.0</ele><time>2026-05-03T08:37:27.159Z</time></trkpt><trkpt lat="44.7717064" lon="8.5699016"><ele>115.0</ele><time>2026-05-03T08:37:28.159Z</time></trkpt><trkpt lat="44.7716261" lon="8.5698347"><ele>115.0</ele><time>2026-05-03T08:37:29.16Z</time></trkpt><trkpt lat="44.7715441" lon="8.5697682"><ele>115.6</ele><time>2026-05-03T08:37:30.159Z</time></trkpt><trkpt lat="44.7714616" lon="8.569703"><ele>116.2</ele><time>2026-05-03T08:37:31.159Z</time></trkpt><trkpt lat="44.7713783" lon="8.5696385"><ele>116.80000000000001</ele><time>2026-05-03T08:37:32.159Z</time></trkpt><trkpt lat="44.7712961" lon="8.5695737"><ele>117.4</ele><time>2026-05-03T08:37:33.159Z</time></trkpt><trkpt lat="44.7712162" lon="8.5695088"><ele>118.0</ele><time>2026-05-03T08:37:34.16Z</time></trkpt><trkpt lat="44.7711343" lon="8.5694401"><ele>118.2</ele><time>2026-05-03T08:37:35.16Z</time></trkpt><trkpt lat="44.771054" lon="8.5693667"><ele>118.4</ele><time>2026-05-03T08:37:36.159Z</time></trkpt><trkpt lat="44.7709756" lon="8.5692872"><ele>118.60000000000001</ele><time>2026-05-03T08:37:37.16Z</time></trkpt><trkpt lat="44.7708988" lon="8.5692002"><ele>118.80000000000001</ele><time>2026-05-03T08:37:38.16Z</time></trkpt><trkpt lat="44.770827" lon="8.5691051"><ele>119.0</ele><time>2026-05-03T08:37:39.16Z</time></trkpt><trkpt lat="44.7707612" lon="8.5690028"><ele>119.2</ele><time>2026-05-03T08:37:40.159Z</time></trkpt><trkpt lat="44.7707019" lon="8.568891"><ele>119.4</ele><time>2026-05-03T08:37:41.159Z</time></trkpt><trkpt lat="44.7706461" lon="8.5687759"><ele>119.6</ele><time>2026-05-03T08:37:42.159Z</time></trkpt><trkpt lat="44.7705929" lon="8.5686636"><ele>119.8</ele><time>2026-05-03T08:37:43.159Z</time></trkpt><trkpt lat="44.770537" lon="8.5685506"><ele>120.0</ele><time>2026-05-03T08:37:44.159Z</time></trkpt><trkpt lat="44.7704803" lon="8.5684425"><ele>120.0</ele><time>2026-05-03T08:37:45.159Z</time></trkpt><trkpt lat="44.7704224" lon="8.5683421"><ele>120.0</ele><time>2026-05-03T08:37:46.159Z</time></trkpt><trkpt lat="44.7703584" lon="8.5682468"><ele>120.0</ele><time>2026-05-03T08:37:47.159Z</time></trkpt><trkpt lat="44.7702867" lon="8.5681597"><ele>120.0</ele><time>2026-05-03T08:37:48.159Z</time></trkpt><trkpt lat="44.7702049" lon="8.5680834"><ele>120.0</ele><time>2026-05-03T08:37:49.159Z</time></trkpt><trkpt lat="44.7701178" lon="8.5680198"><ele>120.0</ele><time>2026-05-03T08:37:50.159Z</time></trkpt><trkpt lat="44.7700261" lon="8.5679654"><ele>120.0</ele><time>2026-05-03T08:37:51.16Z</time></trkpt><trkpt lat="44.7699341" lon="8.5679178"><ele>120.0</ele><time>2026-05-03T08:37:52.16Z</time></trkpt><trkpt lat="44.7698418" lon="8.5678765"><ele>120.0</ele><time>2026-05-03T08:37:53.16Z</time></trkpt><trkpt lat="44.7697508" lon="8.5678413"><ele>120.0</ele><time>2026-05-03T08:37:54.159Z</time></trkpt><trkpt lat="44.769658" lon="8.5678097"><ele>119.2</ele><time>2026-05-03T08:37:55.159Z</time></trkpt><trkpt lat="44.7695638" lon="8.5677769"><ele>118.4</ele><time>2026-05-03T08:37:56.159Z</time></trkpt><trkpt lat="44.7694731" lon="8.5677436"><ele>117.6</ele><time>2026-05-03T08:37:57.159Z</time></trkpt><trkpt lat="44.769381" lon="8.5677069"><ele>116.8</ele><time>2026-05-03T08:37:58.159Z</time></trkpt><trkpt lat="44.7692867" lon="8.5676659"><ele>116.0</ele><time>2026-05-03T08:37:59.16Z</time></trkpt><trkpt lat="44.7691958" lon="8.5676241"><ele>116.0</ele><time>2026-05-03T08:38:00.16Z</time></trkpt><trkpt lat="44.7691042" lon="8.5675836"><ele>116.0</ele><time>2026-05-03T08:38:01.159Z</time></trkpt><trkpt lat="44.769019" lon="8.5675384"><ele>116.0</ele><time>2026-05-03T08:38:02.159Z</time></trkpt><trkpt lat="44.7689321" lon="8.5674934"><ele>116.0</ele><time>2026-05-03T08:38:03.159Z</time></trkpt><trkpt lat="44.7688416" lon="8.567443"><ele>116.0</ele><time>2026-05-03T08:38:04.159Z</time></trkpt><trkpt lat="44.7687602" lon="8.5673892"><ele>116.0</ele><time>2026-05-03T08:38:05.16Z</time></trkpt><trkpt lat="44.7686783" lon="8.5673358"><ele>116.0</ele><time>2026-05-03T08:38:06.159Z</time></trkpt><trkpt lat="44.768597" lon="8.5672652"><ele>116.0</ele><time>2026-05-03T08:38:07.16Z</time></trkpt><trkpt lat="44.7685125" lon="8.5671884"><ele>116.0</ele><time>2026-05-03T08:38:08.161Z</time></trkpt><trkpt lat="44.7684275" lon="8.5671064"><ele>116.0</ele><time>2026-05-03T08:38:09.161Z</time></trkpt><trkpt lat="44.7683466" lon="8.5670242"><ele>115.6</ele><time>2026-05-03T08:38:10.161Z</time></trkpt><trkpt lat="44.76827" lon="8.5669372"><ele>115.19999999999999</ele><time>2026-05-03T08:38:11.161Z</time></trkpt><trkpt lat="44.768198" lon="8.5668466"><ele>114.80000000000001</ele><time>2026-05-03T08:38:12.16Z</time></trkpt><trkpt lat="44.7681309" lon="8.5667509"><ele>114.4</ele><time>2026-05-03T08:38:13.16Z</time></trkpt><trkpt lat="44.7680671" lon="8.5666497"><ele>114.0</ele><time>2026-05-03T08:38:14.161Z</time></trkpt><trkpt lat="44.7680036" lon="8.5665466"><ele>114.0</ele><time>2026-05-03T08:38:15.16Z</time></trkpt><trkpt lat="44.7679396" lon="8.5664455"><ele>114.0</ele><time>2026-05-03T08:38:16.161Z</time></trkpt><trkpt lat="44.7678797" lon="8.5663447"><ele>114.0</ele><time>2026-05-03T08:38:17.16Z</time></trkpt><trkpt lat="44.7678204" lon="8.5662407"><ele>114.0</ele><time>2026-05-03T08:38:18.16Z</time></trkpt><trkpt lat="44.7677622" lon="8.5661381"><ele>114.0</ele><time>2026-05-03T08:38:19.16Z</time></trkpt><trkpt lat="44.7677044" lon="8.5660338"><ele>114.6</ele><time>2026-05-03T08:38:20.161Z</time></trkpt><trkpt lat="44.7676469" lon="8.5659309"><ele>115.2</ele><time>2026-05-03T08:38:21.161Z</time></trkpt><trkpt lat="44.7675884" lon="8.5658299"><ele>115.79999999999998</ele><time>2026-05-03T08:38:22.161Z</time></trkpt><trkpt lat="44.7675284" lon="8.5657284"><ele>116.39999999999999</ele><time>2026-05-03T08:38:23.16Z</time></trkpt><trkpt lat="44.7674695" lon="8.5656281"><ele>117.0</ele><time>2026-05-03T08:38:24.16Z</time></trkpt><trkpt lat="44.7674097" lon="8.565528"><ele>117.0</ele><time>2026-05-03T08:38:25.161Z</time></trkpt><trkpt lat="44.7673518" lon="8.5654293"><ele>117.0</ele><time>2026-05-03T08:38:26.161Z</time></trkpt><trkpt lat="44.76729" lon="8.5653285"><ele>117.0</ele><time>2026-05-03T08:38:27.16Z</time></trkpt><trkpt lat="44.7672269" lon="8.5652355"><ele>117.0</ele><time>2026-05-03T08:38:28.161Z</time></trkpt><trkpt lat="44.7671652" lon="8.565156"><ele>117.0</ele><time>2026-05-03T08:38:29.16Z</time></trkpt><trkpt lat="44.7671085" lon="8.5650852"><ele>117.0</ele><time>2026-05-03T08:38:30.161Z</time></trkpt><trkpt lat="44.7670639" lon="8.5650126"><ele>117.14285714285715</ele><time>2026-05-03T08:38:31.16Z</time></trkpt><trkpt lat="44.767033" lon="8.5649329"><ele>117.2857142857143</ele><time>2026-05-03T08:38:32.161Z</time></trkpt><trkpt lat="44.767007" lon="8.5648451"><ele>117.42857142857143</ele><time>2026-05-03T08:38:33.161Z</time></trkpt><trkpt lat="44.7669716" lon="8.5647681"><ele>117.57142857142858</ele><time>2026-05-03T08:38:34.161Z</time></trkpt><trkpt lat="44.7669154" lon="8.5647139"><ele>117.71428571428572</ele><time>2026-05-03T08:38:35.16Z</time></trkpt><trkpt lat="44.766838" lon="8.5646903"><ele>117.85714285714286</ele><time>2026-05-03T08:38:36.161Z</time></trkpt><trkpt lat="44.7667561" lon="8.5646918"><ele>118.0</ele><time>2026-05-03T08:38:37.16Z</time></trkpt><trkpt lat="44.7666764" lon="8.5647086"><ele>118.00000000000001</ele><time>2026-05-03T08:38:38.16Z</time></trkpt><trkpt lat="44.7665983" lon="8.5647284"><ele>118.0</ele><time>2026-05-03T08:38:39.16Z</time></trkpt><trkpt lat="44.7665218" lon="8.5647333"><ele>118.0</ele><time>2026-05-03T08:38:40.16Z</time></trkpt><trkpt lat="44.7664434" lon="8.5647167"><ele>118.0</ele><time>2026-05-03T08:38:41.16Z</time></trkpt><trkpt lat="44.7663657" lon="8.5646998"><ele>118.00000000000001</ele><time>2026-05-03T08:38:42.16Z</time></trkpt><trkpt lat="44.7662883" lon="8.5646835"><ele>118.0</ele><time>2026-05-03T08:38:43.16Z</time></trkpt><trkpt lat="44.7662104" lon="8.5646715"><ele>118.00000000000001</ele><time>2026-05-03T08:38:44.16Z</time></trkpt><trkpt lat="44.766133" lon="8.5646569"><ele>118.0</ele><time>2026-05-03T08:38:45.16Z</time></trkpt><trkpt lat="44.7660537" lon="8.5646413"><ele>118.0</ele><time>2026-05-03T08:38:46.16Z</time></trkpt><trkpt lat="44.7659719" lon="8.564625"><ele>118.0</ele><time>2026-05-03T08:38:47.161Z</time></trkpt><trkpt lat="44.7658894" lon="8.5646104"><ele>118.00000000000001</ele><time>2026-05-03T08:38:48.161Z</time></trkpt><trkpt lat="44.7658089" lon="8.5645976"><ele>118.0</ele><time>2026-05-03T08:38:49.16Z</time></trkpt><trkpt lat="44.7657279" lon="8.564581"><ele>118.00000000000001</ele><time>2026-05-03T08:38:50.161Z</time></trkpt><trkpt lat="44.7656456" lon="8.5645624"><ele>118.0</ele><time>2026-05-03T08:38:51.161Z</time></trkpt><trkpt lat="44.7655614" lon="8.5645446"><ele>118.0</ele><time>2026-05-03T08:38:52.161Z</time></trkpt><trkpt lat="44.765478" lon="8.5645279"><ele>118.0</ele><time>2026-05-03T08:38:53.161Z</time></trkpt><trkpt lat="44.7653937" lon="8.564513"><ele>118.00000000000001</ele><time>2026-05-03T08:38:54.162Z</time></trkpt><trkpt lat="44.7653077" lon="8.5644932"><ele>118.0</ele><time>2026-05-03T08:38:55.161Z</time></trkpt><trkpt lat="44.7652193" lon="8.5644708"><ele>119.00000000000001</ele><time>2026-05-03T08:38:56.161Z</time></trkpt><trkpt lat="44.7651338" lon="8.5644494"><ele>120.0</ele><time>2026-05-03T08:38:57.162Z</time></trkpt><trkpt lat="44.7650464" lon="8.5644284"><ele>121.0</ele><time>2026-05-03T08:38:58.161Z</time></trkpt><trkpt lat="44.7649567" lon="8.5644132"><ele>122.0</ele><time>2026-05-03T08:38:59.161Z</time></trkpt><trkpt lat="44.7648672" lon="8.5644006"><ele>123.00000000000001</ele><time>2026-05-03T08:39:00.162Z</time></trkpt><trkpt lat="44.7647798" lon="8.5643864"><ele>124.0</ele><time>2026-05-03T08:39:01.161Z</time></trkpt><trkpt lat="44.7646908" lon="8.5643726"><ele>124.0</ele><time>2026-05-03T08:39:02.161Z</time></trkpt><trkpt lat="44.7646005" lon="8.5643561"><ele>124.0</ele><time>2026-05-03T08:39:03.161Z</time></trkpt><trkpt lat="44.7645097" lon="8.5643361"><ele>124.0</ele><time>2026-05-03T08:39:04.161Z</time></trkpt><trkpt lat="44.7644194" lon="8.5643137"><ele>124.0</ele><time>2026-05-03T08:39:05.161Z</time></trkpt><trkpt lat="44.7643282" lon="8.5642846"><ele>124.0</ele><time>2026-05-03T08:39:06.162Z</time></trkpt><trkpt lat="44.764235" lon="8.5642512"><ele>124.4</ele><time>2026-05-03T08:39:07.162Z</time></trkpt><trkpt lat="44.7641444" lon="8.564222"><ele>124.80000000000001</ele><time>2026-05-03T08:39:08.161Z</time></trkpt><trkpt lat="44.7640535" lon="8.5641977"><ele>125.19999999999999</ele><time>2026-05-03T08:39:09.161Z</time></trkpt><trkpt lat="44.7639643" lon="8.564174"><ele>125.6</ele><time>2026-05-03T08:39:10.162Z</time></trkpt><trkpt lat="44.763873" lon="8.5641502"><ele>126.0</ele><time>2026-05-03T08:39:11.161Z</time></trkpt><trkpt lat="44.7637822" lon="8.5641273"><ele>126.0</ele><time>2026-05-03T08:39:12.161Z</time></trkpt><trkpt lat="44.7636934" lon="8.5641026"><ele>126.0</ele><time>2026-05-03T08:39:13.161Z</time></trkpt><trkpt lat="44.7636028" lon="8.5640765"><ele>126.0</ele><time>2026-05-03T08:39:14.161Z</time></trkpt><trkpt lat="44.7635125" lon="8.5640506"><ele>126.0</ele><time>2026-05-03T08:39:15.161Z</time></trkpt><trkpt lat="44.7634209" lon="8.564025"><ele>126.0</ele><time>2026-05-03T08:39:16.161Z</time></trkpt><trkpt lat="44.7633287" lon="8.5640006"><ele>126.19999999999999</ele><time>2026-05-03T08:39:17.162Z</time></trkpt><trkpt lat="44.7632383" lon="8.5639761"><ele>126.39999999999999</ele><time>2026-05-03T08:39:18.162Z</time></trkpt><trkpt lat="44.7631481" lon="8.5639537"><ele>126.6</ele><time>2026-05-03T08:39:19.161Z</time></trkpt><trkpt lat="44.7630554" lon="8.5639298"><ele>126.8</ele><time>2026-05-03T08:39:20.161Z</time></trkpt><trkpt lat="44.7629616" lon="8.5639049"><ele>127.0</ele><time>2026-05-03T08:39:21.162Z</time></trkpt><trkpt lat="44.762866" lon="8.5638798"><ele>127.0</ele><time>2026-05-03T08:39:22.162Z</time></trkpt><trkpt lat="44.7627727" lon="8.5638545"><ele>126.99999999999999</ele><time>2026-05-03T08:39:23.161Z</time></trkpt><trkpt lat="44.7626787" lon="8.56383"><ele>126.99999999999999</ele><time>2026-05-03T08:39:24.161Z</time></trkpt><trkpt lat="44.7625856" lon="8.5638068"><ele>127.0</ele><time>2026-05-03T08:39:25.161Z</time></trkpt><trkpt lat="44.7624929" lon="8.5637832"><ele>127.0</ele><time>2026-05-03T08:39:26.161Z</time></trkpt><trkpt lat="44.7624008" lon="8.5637582"><ele>127.19999999999999</ele><time>2026-05-03T08:39:27.161Z</time></trkpt><trkpt lat="44.7623079" lon="8.5637326"><ele>127.39999999999999</ele><time>2026-05-03T08:39:28.162Z</time></trkpt><trkpt lat="44.7622148" lon="8.563706"><ele>127.60000000000001</ele><time>2026-05-03T08:39:29.162Z</time></trkpt><trkpt lat="44.7621195" lon="8.5636792"><ele>127.80000000000001</ele><time>2026-05-03T08:39:30.161Z</time></trkpt><trkpt lat="44.7620232" lon="8.5636562"><ele>128.0</ele><time>2026-05-03T08:39:31.161Z</time></trkpt><trkpt lat="44.761928" lon="8.5636338"><ele>128.4</ele><time>2026-05-03T08:39:32.161Z</time></trkpt><trkpt lat="44.7618344" lon="8.563608"><ele>128.8</ele><time>2026-05-03T08:39:33.162Z</time></trkpt><trkpt lat="44.7617413" lon="8.5635789"><ele>129.2</ele><time>2026-05-03T08:39:34.162Z</time></trkpt><trkpt lat="44.7616476" lon="8.5635521"><ele>129.6</ele><time>2026-05-03T08:39:35.163Z</time></trkpt><trkpt lat="44.7615533" lon="8.5635274"><ele>130.0</ele><time>2026-05-03T08:39:36.163Z</time></trkpt><trkpt lat="44.7614597" lon="8.5635024"><ele>130.0</ele><time>2026-05-03T08:39:37.162Z</time></trkpt><trkpt lat="44.7613668" lon="8.5634759"><ele>130.0</ele><time>2026-05-03T08:39:38.163Z</time></trkpt><trkpt lat="44.7612729" lon="8.5634505"><ele>130.0</ele><time>2026-05-03T08:39:39.162Z</time></trkpt><trkpt lat="44.7611778" lon="8.5634259"><ele>130.0</ele><time>2026-05-03T08:39:40.162Z</time></trkpt><trkpt lat="44.7610819" lon="8.5633995"><ele>130.0</ele><time>2026-05-03T08:39:41.162Z</time></trkpt><trkpt lat="44.7609852" lon="8.5633711"><ele>129.4</ele><time>2026-05-03T08:39:42.162Z</time></trkpt><trkpt lat="44.7608882" lon="8.5633433"><ele>128.8</ele><time>2026-05-03T08:39:43.163Z</time></trkpt><trkpt lat="44.7607928" lon="8.5633192"><ele>128.2</ele><time>2026-05-03T08:39:44.162Z</time></trkpt><trkpt lat="44.760698" lon="8.563295"><ele>127.6</ele><time>2026-05-03T08:39:45.163Z</time></trkpt><trkpt lat="44.7606028" lon="8.5632702"><ele>127.0</ele><time>2026-05-03T08:39:46.163Z</time></trkpt><trkpt lat="44.7605065" lon="8.5632443"><ele>127.0</ele><time>2026-05-03T08:39:47.163Z</time></trkpt><trkpt lat="44.7604101" lon="8.5632184"><ele>126.99999999999999</ele><time>2026-05-03T08:39:48.163Z</time></trkpt><trkpt lat="44.7603124" lon="8.5631932"><ele>126.99999999999999</ele><time>2026-05-03T08:39:49.162Z</time></trkpt><trkpt lat="44.7602175" lon="8.5631697"><ele>127.0</ele><time>2026-05-03T08:39:50.163Z</time></trkpt><trkpt lat="44.7601222" lon="8.5631453"><ele>127.0</ele><time>2026-05-03T08:39:51.162Z</time></trkpt><trkpt lat="44.760027" lon="8.5631199"><ele>127.39999999999999</ele><time>2026-05-03T08:39:52.163Z</time></trkpt><trkpt lat="44.7599321" lon="8.5630923"><ele>127.79999999999998</ele><time>2026-05-03T08:39:53.163Z</time></trkpt><trkpt lat="44.7598367" lon="8.5630674"><ele>128.2</ele><time>2026-05-03T08:39:54.162Z</time></trkpt><trkpt lat="44.7597408" lon="8.5630448"><ele>128.6</ele><time>2026-05-03T08:39:55.163Z</time></trkpt><trkpt lat="44.7596437" lon="8.5630221"><ele>129.0</ele><time>2026-05-03T08:39:56.162Z</time></trkpt><trkpt lat="44.7595473" lon="8.5629981"><ele>129.0</ele><time>2026-05-03T08:39:57.163Z</time></trkpt><trkpt lat="44.7594515" lon="8.5629758"><ele>129.0</ele><time>2026-05-03T08:39:58.162Z</time></trkpt><trkpt lat="44.7593532" lon="8.5629497"><ele>129.0</ele><time>2026-05-03T08:39:59.162Z</time></trkpt><trkpt lat="44.7592544" lon="8.5629227"><ele>129.0</ele><time>2026-05-03T08:40:00.162Z</time></trkpt><trkpt lat="44.7591574" lon="8.5628953"><ele>129.0</ele><time>2026-05-03T08:40:01.162Z</time></trkpt><trkpt lat="44.7590628" lon="8.562868"><ele>128.8</ele><time>2026-05-03T08:40:02.163Z</time></trkpt><trkpt lat="44.7589668" lon="8.5628415"><ele>128.60000000000002</ele><time>2026-05-03T08:40:03.163Z</time></trkpt><trkpt lat="44.7588708" lon="8.5628148"><ele>128.4</ele><time>2026-05-03T08:40:04.162Z</time></trkpt><trkpt lat="44.7587782" lon="8.5627894"><ele>128.20000000000002</ele><time>2026-05-03T08:40:05.162Z</time></trkpt><trkpt lat="44.7586866" lon="8.562764"><ele>128.0</ele><time>2026-05-03T08:40:06.163Z</time></trkpt><trkpt lat="44.7585922" lon="8.5627393"><ele>128.20000000000002</ele><time>2026-05-03T08:40:07.162Z</time></trkpt><trkpt lat="44.7584968" lon="8.5627139"><ele>128.4</ele><time>2026-05-03T08:40:08.162Z</time></trkpt><trkpt lat="44.7584019" lon="8.5626876"><ele>128.60000000000002</ele><time>2026-05-03T08:40:09.162Z</time></trkpt><trkpt lat="44.758306" lon="8.5626612"><ele>128.8</ele><time>2026-05-03T08:40:10.162Z</time></trkpt><trkpt lat="44.7582102" lon="8.5626325"><ele>129.0</ele><time>2026-05-03T08:40:11.162Z</time></trkpt><trkpt lat="44.7581146" lon="8.5626021"><ele>129.0</ele><time>2026-05-03T08:40:12.163Z</time></trkpt><trkpt lat="44.7580164" lon="8.5625712"><ele>129.0</ele><time>2026-05-03T08:40:13.163Z</time></trkpt><trkpt lat="44.7579167" lon="8.5625395"><ele>129.0</ele><time>2026-05-03T08:40:14.163Z</time></trkpt><trkpt lat="44.7578158" lon="8.5625076"><ele>129.0</ele><time>2026-05-03T08:40:15.163Z</time></trkpt><trkpt lat="44.7577116" lon="8.5624765"><ele>129.0</ele><time>2026-05-03T08:40:16.163Z</time></trkpt><trkpt lat="44.7576082" lon="8.5624461"><ele>128.4</ele><time>2026-05-03T08:40:17.163Z</time></trkpt><trkpt lat="44.7575059" lon="8.5624108"><ele>127.80000000000001</ele><time>2026-05-03T08:40:18.163Z</time></trkpt><trkpt lat="44.7574061" lon="8.5623752"><ele>127.19999999999999</ele><time>2026-05-03T08:40:19.163Z</time></trkpt><trkpt lat="44.7573007" lon="8.5623447"><ele>126.6</ele><time>2026-05-03T08:40:20.163Z</time></trkpt><trkpt lat="44.7571971" lon="8.5623117"><ele>126.0</ele><time>2026-05-03T08:40:21.164Z</time></trkpt><trkpt lat="44.7570928" lon="8.5622785"><ele>126.0</ele><time>2026-05-03T08:40:22.163Z</time></trkpt><trkpt lat="44.7569885" lon="8.5622411"><ele>126.0</ele><time>2026-05-03T08:40:23.163Z</time></trkpt><trkpt lat="44.7568864" lon="8.5622044"><ele>126.0</ele><time>2026-05-03T08:40:24.164Z</time></trkpt><trkpt lat="44.7567864" lon="8.5621726"><ele>126.0</ele><time>2026-05-03T08:40:25.163Z</time></trkpt><trkpt lat="44.7566854" lon="8.5621445"><ele>126.0</ele><time>2026-05-03T08:40:26.163Z</time></trkpt><trkpt lat="44.7565791" lon="8.5621178"><ele>125.4</ele><time>2026-05-03T08:40:27.164Z</time></trkpt><trkpt lat="44.7564773" lon="8.5620885"><ele>124.8</ele><time>2026-05-03T08:40:28.163Z</time></trkpt><trkpt lat="44.7563765" lon="8.5620573"><ele>124.20000000000002</ele><time>2026-05-03T08:40:29.163Z</time></trkpt><trkpt lat="44.7562774" lon="8.5620249"><ele>123.60000000000001</ele><time>2026-05-03T08:40:30.163Z</time></trkpt><trkpt lat="44.7561786" lon="8.5619893"><ele>123.0</ele><time>2026-05-03T08:40:31.164Z</time></trkpt><trkpt lat="44.7560835" lon="8.5619541"><ele>123.0</ele><time>2026-05-03T08:40:32.164Z</time></trkpt><trkpt lat="44.7559878" lon="8.5619194"><ele>123.00000000000001</ele><time>2026-05-03T08:40:33.163Z</time></trkpt><trkpt lat="44.7558907" lon="8.5618831"><ele>123.00000000000001</ele><time>2026-05-03T08:40:34.163Z</time></trkpt><trkpt lat="44.7557917" lon="8.5618439"><ele>123.0</ele><time>2026-05-03T08:40:35.163Z</time></trkpt><trkpt lat="44.755693" lon="8.5618075"><ele>123.0</ele><time>2026-05-03T08:40:36.163Z</time></trkpt><trkpt lat="44.7555983" lon="8.5617738"><ele>123.0</ele><time>2026-05-03T08:40:37.163Z</time></trkpt><trkpt lat="44.7555068" lon="8.5617403"><ele>123.00000000000001</ele><time>2026-05-03T08:40:38.163Z</time></trkpt><trkpt lat="44.7554144" lon="8.5617058"><ele>123.00000000000001</ele><time>2026-05-03T08:40:39.163Z</time></trkpt><trkpt lat="44.7553218" lon="8.5616705"><ele>123.0</ele><time>2026-05-03T08:40:40.163Z</time></trkpt><trkpt lat="44.7552309" lon="8.5616319"><ele>123.0</ele><time>2026-05-03T08:40:41.163Z</time></trkpt><trkpt lat="44.7551378" lon="8.5615862"><ele>122.80000000000001</ele><time>2026-05-03T08:40:42.164Z</time></trkpt><trkpt lat="44.7550418" lon="8.5615342"><ele>122.60000000000001</ele><time>2026-05-03T08:40:43.163Z</time></trkpt><trkpt lat="44.7549457" lon="8.5614832"><ele>122.39999999999999</ele><time>2026-05-03T08:40:44.163Z</time></trkpt><trkpt lat="44.7548533" lon="8.5614336"><ele>122.19999999999999</ele><time>2026-05-03T08:40:45.164Z</time></trkpt><trkpt lat="44.7547678" lon="8.5613821"><ele>122.0</ele><time>2026-05-03T08:40:46.163Z</time></trkpt><trkpt lat="44.7546827" lon="8.5613253"><ele>122.0</ele><time>2026-05-03T08:40:47.163Z</time></trkpt><trkpt lat="44.754596" lon="8.5612573"><ele>121.99999999999999</ele><time>2026-05-03T08:40:48.163Z</time></trkpt><trkpt lat="44.7545128" lon="8.5611919"><ele>121.99999999999999</ele><time>2026-05-03T08:40:49.164Z</time></trkpt><trkpt lat="44.7544295" lon="8.5611297"><ele>122.0</ele><time>2026-05-03T08:40:50.163Z</time></trkpt><trkpt lat="44.7543476" lon="8.5610722"><ele>122.0</ele><time>2026-05-03T08:40:51.163Z</time></trkpt><trkpt lat="44.7542648" lon="8.5610148"><ele>121.6</ele><time>2026-05-03T08:40:52.164Z</time></trkpt><trkpt lat="44.7541825" lon="8.560955"><ele>121.19999999999999</ele><time>2026-05-03T08:40:53.164Z</time></trkpt><trkpt lat="44.7541006" lon="8.5608939"><ele>120.8</ele><time>2026-05-03T08:40:54.164Z</time></trkpt><trkpt lat="44.7540195" lon="8.5608339"><ele>120.4</ele><time>2026-05-03T08:40:55.164Z</time></trkpt><trkpt lat="44.7539396" lon="8.560776"><ele>120.0</ele><time>2026-05-03T08:40:56.163Z</time></trkpt><trkpt lat="44.7538595" lon="8.5607211"><ele>120.0</ele><time>2026-05-03T08:40:57.164Z</time></trkpt><trkpt lat="44.7537804" lon="8.5606661"><ele>120.0</ele><time>2026-05-03T08:40:58.163Z</time></trkpt><trkpt lat="44.7537039" lon="8.5606093"><ele>120.0</ele><time>2026-05-03T08:40:59.163Z</time></trkpt><trkpt lat="44.7536319" lon="8.5605482"><ele>120.0</ele><time>2026-05-03T08:41:00.164Z</time></trkpt><trkpt lat="44.7535591" lon="8.5604823"><ele>120.0</ele><time>2026-05-03T08:41:01.164Z</time></trkpt><trkpt lat="44.7534814" lon="8.5604089"><ele>120.0</ele><time>2026-05-03T08:41:02.165Z</time></trkpt><trkpt lat="44.7534023" lon="8.5603299"><ele>120.4</ele><time>2026-05-03T08:41:03.165Z</time></trkpt><trkpt lat="44.7533237" lon="8.5602433"><ele>120.8</ele><time>2026-05-03T08:41:04.164Z</time></trkpt><trkpt lat="44.7532477" lon="8.560148"><ele>121.19999999999999</ele><time>2026-05-03T08:41:05.165Z</time></trkpt><trkpt lat="44.7531764" lon="8.5600454"><ele>121.6</ele><time>2026-05-03T08:41:06.164Z</time></trkpt><trkpt lat="44.7531106" lon="8.5599329"><ele>122.0</ele><time>2026-05-03T08:41:07.164Z</time></trkpt><trkpt lat="44.7530496" lon="8.5598181"><ele>122.0</ele><time>2026-05-03T08:41:08.165Z</time></trkpt><trkpt lat="44.75299" lon="8.5596998"><ele>121.99999999999999</ele><time>2026-05-03T08:41:09.164Z</time></trkpt><trkpt lat="44.7529392" lon="8.5595781"><ele>121.99999999999999</ele><time>2026-05-03T08:41:10.164Z</time></trkpt><trkpt lat="44.7528944" lon="8.5594494"><ele>122.0</ele><time>2026-05-03T08:41:11.164Z</time></trkpt><trkpt lat="44.752856" lon="8.5593122"><ele>122.0</ele><time>2026-05-03T08:41:12.165Z</time></trkpt><trkpt lat="44.7528244" lon="8.559171"><ele>121.39999999999999</ele><time>2026-05-03T08:41:13.164Z</time></trkpt><trkpt lat="44.7527945" lon="8.5590308"><ele>120.79999999999998</ele><time>2026-05-03T08:41:14.164Z</time></trkpt><trkpt lat="44.7527636" lon="8.5588931"><ele>120.2</ele><time>2026-05-03T08:41:15.165Z</time></trkpt><trkpt lat="44.7527327" lon="8.558757"><ele>119.6</ele><time>2026-05-03T08:41:16.165Z</time></trkpt><trkpt lat="44.7527056" lon="8.5586234"><ele>119.0</ele><time>2026-05-03T08:41:17.164Z</time></trkpt><trkpt lat="44.7526759" lon="8.5584825"><ele>120.0</ele><time>2026-05-03T08:41:18.164Z</time></trkpt><trkpt lat="44.7526449" lon="8.5583425"><ele>121.0</ele><time>2026-05-03T08:41:19.164Z</time></trkpt><trkpt lat="44.7526133" lon="8.5582024"><ele>122.0</ele><time>2026-05-03T08:41:20.164Z</time></trkpt><trkpt lat="44.752581" lon="8.5580643"><ele>123.0</ele><time>2026-05-03T08:41:21.164Z</time></trkpt><trkpt lat="44.7525493" lon="8.5579255"><ele>124.0</ele><time>2026-05-03T08:41:22.164Z</time></trkpt><trkpt lat="44.7525179" lon="8.5577852"><ele>124.0</ele><time>2026-05-03T08:41:23.165Z</time></trkpt><trkpt lat="44.7524867" lon="8.5576448"><ele>124.0</ele><time>2026-05-03T08:41:24.164Z</time></trkpt><trkpt lat="44.7524562" lon="8.5575099"><ele>124.0</ele><time>2026-05-03T08:41:25.164Z</time></trkpt><trkpt lat="44.7524243" lon="8.5573761"><ele>124.0</ele><time>2026-05-03T08:41:26.164Z</time></trkpt><trkpt lat="44.7523949" lon="8.5572435"><ele>124.0</ele><time>2026-05-03T08:41:27.164Z</time></trkpt><trkpt lat="44.7523627" lon="8.5571093"><ele>123.4</ele><time>2026-05-03T08:41:28.164Z</time></trkpt><trkpt lat="44.7523355" lon="8.5569808"><ele>122.80000000000001</ele><time>2026-05-03T08:41:29.164Z</time></trkpt><trkpt lat="44.7523071" lon="8.5568529"><ele>122.19999999999999</ele><time>2026-05-03T08:41:30.164Z</time></trkpt><trkpt lat="44.7522772" lon="8.5567166"><ele>121.6</ele><time>2026-05-03T08:41:31.164Z</time></trkpt><trkpt lat="44.7522465" lon="8.5565775"><ele>121.0</ele><time>2026-05-03T08:41:32.164Z</time></trkpt><trkpt lat="44.7522132" lon="8.5564333"><ele>121.0</ele><time>2026-05-03T08:41:33.165Z</time></trkpt><trkpt lat="44.7521772" lon="8.5562937"><ele>121.0</ele><time>2026-05-03T08:41:34.164Z</time></trkpt><trkpt lat="44.7521387" lon="8.5561547"><ele>121.0</ele><time>2026-05-03T08:41:35.165Z</time></trkpt><trkpt lat="44.7520953" lon="8.5560229"><ele>121.0</ele><time>2026-05-03T08:41:36.164Z</time></trkpt><trkpt lat="44.7520445" lon="8.555905"><ele>121.0</ele><time>2026-05-03T08:41:37.164Z</time></trkpt><trkpt lat="44.7519837" lon="8.5557996"><ele>121.00000000000001</ele><time>2026-05-03T08:41:38.164Z</time></trkpt><trkpt lat="44.7519158" lon="8.5556999"><ele>121.0</ele><time>2026-05-03T08:41:39.164Z</time></trkpt><trkpt lat="44.7518485" lon="8.5556019"><ele>121.0</ele><time>2026-05-03T08:41:40.164Z</time></trkpt><trkpt lat="44.7517861" lon="8.5555063"><ele>121.0</ele><time>2026-05-03T08:41:41.165Z</time></trkpt><trkpt lat="44.751737" lon="8.5554169"><ele>121.00000000000001</ele><time>2026-05-03T08:41:42.164Z</time></trkpt><trkpt lat="44.7516931" lon="8.5553237"><ele>121.0</ele><time>2026-05-03T08:41:43.165Z</time></trkpt><trkpt lat="44.7516503" lon="8.5552291"><ele>121.00000000000001</ele><time>2026-05-03T08:41:44.165Z</time></trkpt><trkpt lat="44.7516043" lon="8.5551345"><ele>121.0</ele><time>2026-05-03T08:41:45.166Z</time></trkpt><trkpt lat="44.7515529" lon="8.5550421"><ele>121.0</ele><time>2026-05-03T08:41:46.165Z</time></trkpt><trkpt lat="44.7514972" lon="8.5549522"><ele>121.0</ele><time>2026-05-03T08:41:47.166Z</time></trkpt><trkpt lat="44.7514386" lon="8.5548627"><ele>121.00000000000001</ele><time>2026-05-03T08:41:48.165Z</time></trkpt><trkpt lat="44.7513812" lon="8.5547886"><ele>121.0</ele><time>2026-05-03T08:41:49.165Z</time></trkpt><trkpt lat="44.7513162" lon="8.5547252"><ele>121.00000000000001</ele><time>2026-05-03T08:41:50.165Z</time></trkpt><trkpt lat="44.7512475" lon="8.5546729"><ele>121.0</ele><time>2026-05-03T08:41:51.165Z</time></trkpt><trkpt lat="44.7511725" lon="8.554622"><ele>121.0</ele><time>2026-05-03T08:41:52.165Z</time></trkpt><trkpt lat="44.7511052" lon="8.5545862"><ele>121.0</ele><time>2026-05-03T08:41:53.166Z</time></trkpt><trkpt lat="44.7510344" lon="8.554551"><ele>121.00000000000001</ele><time>2026-05-03T08:41:54.165Z</time></trkpt><trkpt lat="44.7509653" lon="8.554517"><ele>121.0</ele><time>2026-05-03T08:41:55.165Z</time></trkpt><trkpt lat="44.7508953" lon="8.5544929"><ele>121.50000000000001</ele><time>2026-05-03T08:41:56.165Z</time></trkpt><trkpt lat="44.7508227" lon="8.5544699"><ele>122.0</ele><time>2026-05-03T08:41:57.165Z</time></trkpt><trkpt lat="44.7507438" lon="8.5544491"><ele>122.5</ele><time>2026-05-03T08:41:58.166Z</time></trkpt><trkpt lat="44.7506653" lon="8.5544358"><ele>123.0</ele><time>2026-05-03T08:41:59.165Z</time></trkpt><trkpt lat="44.7505825" lon="8.5544244"><ele>123.50000000000001</ele><time>2026-05-03T08:42:00.165Z</time></trkpt><trkpt lat="44.7504993" lon="8.5544078"><ele>124.0</ele><time>2026-05-03T08:42:01.165Z</time></trkpt><trkpt lat="44.7504156" lon="8.5543879"><ele>124.00000000000001</ele><time>2026-05-03T08:42:02.165Z</time></trkpt><trkpt lat="44.7503305" lon="8.5543694"><ele>124.0</ele><time>2026-05-03T08:42:03.166Z</time></trkpt><trkpt lat="44.7502457" lon="8.5543522"><ele>124.0</ele><time>2026-05-03T08:42:04.165Z</time></trkpt><trkpt lat="44.7501616" lon="8.5543329"><ele>124.0</ele><time>2026-05-03T08:42:05.165Z</time></trkpt><trkpt lat="44.750079" lon="8.5543058"><ele>124.00000000000001</ele><time>2026-05-03T08:42:06.165Z</time></trkpt><trkpt lat="44.7500002" lon="8.5542692"><ele>124.0</ele><time>2026-05-03T08:42:07.166Z</time></trkpt><trkpt lat="44.7499254" lon="8.5542199"><ele>124.00000000000001</ele><time>2026-05-03T08:42:08.165Z</time></trkpt><trkpt lat="44.7498571" lon="8.5541557"><ele>124.0</ele><time>2026-05-03T08:42:09.165Z</time></trkpt><trkpt lat="44.7497978" lon="8.5540793"><ele>124.0</ele><time>2026-05-03T08:42:10.166Z</time></trkpt><trkpt lat="44.7497437" lon="8.5539923"><ele>124.0</ele><time>2026-05-03T08:42:11.165Z</time></trkpt><trkpt lat="44.7496911" lon="8.5538969"><ele>124.00000000000001</ele><time>2026-05-03T08:42:12.166Z</time></trkpt><trkpt lat="44.7496375" lon="8.5537986"><ele>124.0</ele><time>2026-05-03T08:42:13.165Z</time></trkpt><trkpt lat="44.749583" lon="8.5536979"><ele>124.00000000000001</ele><time>2026-05-03T08:42:14.165Z</time></trkpt><trkpt lat="44.7495295" lon="8.5536002"><ele>124.0</ele><time>2026-05-03T08:42:15.165Z</time></trkpt><trkpt lat="44.7494724" lon="8.5535082"><ele>124.0</ele><time>2026-05-03T08:42:16.165Z</time></trkpt><trkpt lat="44.7494185" lon="8.5534322"><ele>124.0</ele><time>2026-05-03T08:42:17.166Z</time></trkpt><trkpt lat="44.7493625" lon="8.5533682"><ele>124.00000000000001</ele><time>2026-05-03T08:42:18.165Z</time></trkpt><trkpt lat="44.7493013" lon="8.5533158"><ele>124.0</ele><time>2026-05-03T08:42:19.166Z</time></trkpt><trkpt lat="44.7492247" lon="8.5532706"><ele>124.33333333333334</ele><time>2026-05-03T08:42:20.165Z</time></trkpt><trkpt lat="44.7491453" lon="8.5532348"><ele>124.66666666666667</ele><time>2026-05-03T08:42:21.165Z</time></trkpt><trkpt lat="44.7490639" lon="8.5532025"><ele>125.0</ele><time>2026-05-03T08:42:22.165Z</time></trkpt><trkpt lat="44.7489796" lon="8.5531685"><ele>125.33333333333334</ele><time>2026-05-03T08:42:23.165Z</time></trkpt><trkpt lat="44.7489007" lon="8.5531366"><ele>125.66666666666667</ele><time>2026-05-03T08:42:24.166Z</time></trkpt><trkpt lat="44.7488093" lon="8.553105"><ele>126.0</ele><time>2026-05-03T08:42:25.165Z</time></trkpt><trkpt lat="44.7487201" lon="8.5530764"><ele>126.0</ele><time>2026-05-03T08:42:26.165Z</time></trkpt><trkpt lat="44.7486319" lon="8.5530472"><ele>126.0</ele><time>2026-05-03T08:42:27.165Z</time></trkpt><trkpt lat="44.7485453" lon="8.553015"><ele>126.0</ele><time>2026-05-03T08:42:28.166Z</time></trkpt><trkpt lat="44.7484553" lon="8.5529795"><ele>126.0</ele><time>2026-05-03T08:42:29.167Z</time></trkpt><trkpt lat="44.7483642" lon="8.5529429"><ele>126.0</ele><time>2026-05-03T08:42:30.166Z</time></trkpt><trkpt lat="44.7482764" lon="8.5529029"><ele>126.19999999999999</ele><time>2026-05-03T08:42:31.166Z</time></trkpt><trkpt lat="44.7481889" lon="8.5528585"><ele>126.39999999999999</ele><time>2026-05-03T08:42:32.166Z</time></trkpt><trkpt lat="44.7481007" lon="8.5528113"><ele>126.6</ele><time>2026-05-03T08:42:33.166Z</time></trkpt><trkpt lat="44.7480144" lon="8.5527612"><ele>126.8</ele><time>2026-05-03T08:42:34.167Z</time></trkpt><trkpt lat="44.7479291" lon="8.5527084"><ele>127.0</ele><time>2026-05-03T08:42:35.166Z</time></trkpt><trkpt lat="44.747843" lon="8.5526578"><ele>127.0</ele><time>2026-05-03T08:42:36.167Z</time></trkpt><trkpt lat="44.7477539" lon="8.5526146"><ele>126.99999999999999</ele><time>2026-05-03T08:42:37.166Z</time></trkpt><trkpt lat="44.7476648" lon="8.5525812"><ele>126.99999999999999</ele><time>2026-05-03T08:42:38.166Z</time></trkpt><trkpt lat="44.7475727" lon="8.5525541"><ele>127.0</ele><time>2026-05-03T08:42:39.167Z</time></trkpt><trkpt lat="44.7474731" lon="8.5525308"><ele>127.0</ele><time>2026-05-03T08:42:40.166Z</time></trkpt><trkpt lat="44.7473755" lon="8.5525079"><ele>127.33333333333334</ele><time>2026-05-03T08:42:41.166Z</time></trkpt><trkpt lat="44.7472817" lon="8.5524854"><ele>127.66666666666667</ele><time>2026-05-03T08:42:42.166Z</time></trkpt><trkpt lat="44.747194" lon="8.5524675"><ele>128.0</ele><time>2026-05-03T08:42:43.166Z</time></trkpt><trkpt lat="44.7471091" lon="8.5524542"><ele>128.33333333333334</ele><time>2026-05-03T08:42:44.166Z</time></trkpt><trkpt lat="44.747028" lon="8.5524456"><ele>128.66666666666666</ele><time>2026-05-03T08:42:45.166Z</time></trkpt><trkpt lat="44.7469527" lon="8.5524257"><ele>129.0</ele><time>2026-05-03T08:42:46.167Z</time></trkpt><trkpt lat="44.7468856" lon="8.5523852"><ele>128.66666666666666</ele><time>2026-05-03T08:42:47.167Z</time></trkpt><trkpt lat="44.7468208" lon="8.552333"><ele>128.33333333333334</ele><time>2026-05-03T08:42:48.166Z</time></trkpt><trkpt lat="44.7467607" lon="8.5522752"><ele>128.0</ele><time>2026-05-03T08:42:49.166Z</time></trkpt><trkpt lat="44.7467033" lon="8.5522128"><ele>127.66666666666667</ele><time>2026-05-03T08:42:50.166Z</time></trkpt><trkpt lat="44.7466475" lon="8.552139"><ele>127.33333333333334</ele><time>2026-05-03T08:42:51.166Z</time></trkpt><trkpt lat="44.746591" lon="8.552058"><ele>127.0</ele><time>2026-05-03T08:42:52.167Z</time></trkpt><trkpt lat="44.7465362" lon="8.5519798"><ele>127.0</ele><time>2026-05-03T08:42:53.166Z</time></trkpt><trkpt lat="44.746481" lon="8.5519074"><ele>126.99999999999999</ele><time>2026-05-03T08:42:54.167Z</time></trkpt><trkpt lat="44.7464305" lon="8.5518397"><ele>126.99999999999999</ele><time>2026-05-03T08:42:55.166Z</time></trkpt><trkpt lat="44.7463504" lon="8.5517208"><ele>127.0</ele><time>2026-05-03T08:42:57.166Z</time></trkpt><trkpt lat="44.746273" lon="8.5515937"><ele>127.0</ele><time>2026-05-03T08:42:59.166Z</time></trkpt><trkpt lat="44.7462286" lon="8.5515182"><ele>127.00000000000001</ele><time>2026-05-03T08:43:00.166Z</time></trkpt><trkpt lat="44.7461761" lon="8.551433"><ele>127.0</ele><time>2026-05-03T08:43:01.166Z</time></trkpt><trkpt lat="44.7461262" lon="8.5513442"><ele>127.0</ele><time>2026-05-03T08:43:02.166Z</time></trkpt><trkpt lat="44.7460712" lon="8.5512573"><ele>127.0</ele><time>2026-05-03T08:43:03.167Z</time></trkpt><trkpt lat="44.7460209" lon="8.5511616"><ele>127.00000000000001</ele><time>2026-05-03T08:43:04.167Z</time></trkpt><trkpt lat="44.7459721" lon="8.5510607"><ele>127.0</ele><time>2026-05-03T08:43:05.166Z</time></trkpt><trkpt lat="44.7459303" lon="8.5509611"><ele>126.83333333333334</ele><time>2026-05-03T08:43:06.166Z</time></trkpt><trkpt lat="44.7458943" lon="8.5508599"><ele>126.66666666666667</ele><time>2026-05-03T08:43:07.166Z</time></trkpt><trkpt lat="44.7458607" lon="8.5507551"><ele>126.5</ele><time>2026-05-03T08:43:08.166Z</time></trkpt><trkpt lat="44.7458264" lon="8.5506503"><ele>126.33333333333334</ele><time>2026-05-03T08:43:09.166Z</time></trkpt><trkpt lat="44.7457902" lon="8.5505481"><ele>126.16666666666667</ele><time>2026-05-03T08:43:10.166Z</time></trkpt><trkpt lat="44.74575" lon="8.550453"><ele>126.0</ele><time>2026-05-03T08:43:11.166Z</time></trkpt><trkpt lat="44.7457109" lon="8.550366"><ele>126.0</ele><time>2026-05-03T08:43:12.167Z</time></trkpt><trkpt lat="44.745631" lon="8.5502229"><ele>126.0</ele><time>2026-05-03T08:43:14.167Z</time></trkpt><trkpt lat="44.745565" lon="8.550092"><ele>126.0</ele><time>2026-05-03T08:43:16.167Z</time></trkpt><trkpt lat="44.7455051" lon="8.5499678"><ele>126.0</ele><time>2026-05-03T08:43:18.167Z</time></trkpt><trkpt lat="44.7454538" lon="8.5498794"><ele>126.0</ele><time>2026-05-03T08:43:20.168Z</time></trkpt><trkpt lat="44.7454079" lon="8.5497818"><ele>126.0</ele><time>2026-05-03T08:43:23.167Z</time></trkpt><trkpt lat="44.7453936" lon="8.5496655"><ele>126.0</ele><time>2026-05-03T08:43:25.168Z</time></trkpt><trkpt lat="44.745398" lon="8.549487"><ele>126.0</ele><time>2026-05-03T08:43:27.167Z</time></trkpt><trkpt lat="44.7453891" lon="8.5493973"><ele>126.0</ele><time>2026-05-03T08:43:28.167Z</time></trkpt><trkpt lat="44.7453768" lon="8.5492859"><ele>126.0</ele><time>2026-05-03T08:43:29.167Z</time></trkpt><trkpt lat="44.745364" lon="8.5491798"><ele>126.0</ele><time>2026-05-03T08:43:30.167Z</time></trkpt><trkpt lat="44.7453425" lon="8.5490514"><ele>125.4</ele><time>2026-05-03T08:43:32.167Z</time></trkpt><trkpt lat="44.7453263" lon="8.5489467"><ele>124.8</ele><time>2026-05-03T08:43:34.167Z</time></trkpt><trkpt lat="44.7452916" lon="8.5488076"><ele>124.20000000000002</ele><time>2026-05-03T08:43:36.167Z</time></trkpt><trkpt lat="44.7452671" lon="8.5487227"><ele>123.60000000000001</ele><time>2026-05-03T08:43:37.167Z</time></trkpt><trkpt lat="44.7452061" lon="8.5485538"><ele>123.0</ele><time>2026-05-03T08:43:39.167Z</time></trkpt><trkpt lat="44.7451676" lon="8.5484491"><ele>123.0</ele><time>2026-05-03T08:43:40.167Z</time></trkpt><trkpt lat="44.7451306" lon="8.5483481"><ele>123.0</ele><time>2026-05-03T08:43:41.167Z</time></trkpt><trkpt lat="44.7451035" lon="8.5482624"><ele>123.0</ele><time>2026-05-03T08:43:42.167Z</time></trkpt><trkpt lat="44.7450473" lon="8.5481175"><ele>123.0</ele><time>2026-05-03T08:43:44.168Z</time></trkpt><trkpt lat="44.7450031" lon="8.5479692"><ele>123.0</ele><time>2026-05-03T08:43:46.167Z</time></trkpt><trkpt lat="44.7449916" lon="8.5478788"><ele>123.0</ele><time>2026-05-03T08:43:47.167Z</time></trkpt><trkpt lat="44.7449942" lon="8.5477795"><ele>122.66666666666667</ele><time>2026-05-03T08:43:48.167Z</time></trkpt><trkpt lat="44.7449948" lon="8.5476768"><ele>122.33333333333334</ele><time>2026-05-03T08:43:49.167Z</time></trkpt><trkpt lat="44.7449919" lon="8.5475722"><ele>122.0</ele><time>2026-05-03T08:43:50.168Z</time></trkpt><trkpt lat="44.7449865" lon="8.5474699"><ele>121.66666666666667</ele><time>2026-05-03T08:43:51.167Z</time></trkpt><trkpt lat="44.7449804" lon="8.5473672"><ele>121.33333333333334</ele><time>2026-05-03T08:43:52.167Z</time></trkpt><trkpt lat="44.7449664" lon="8.5472607"><ele>121.0</ele><time>2026-05-03T08:43:53.167Z</time></trkpt><trkpt lat="44.7449434" lon="8.5471486"><ele>121.00000000000001</ele><time>2026-05-03T08:43:54.168Z</time></trkpt><trkpt lat="44.7449176" lon="8.5470332"><ele>121.0</ele><time>2026-05-03T08:43:55.168Z</time></trkpt><trkpt lat="44.7448919" lon="8.546918"><ele>121.0</ele><time>2026-05-03T08:43:56.168Z</time></trkpt><trkpt lat="44.7448662" lon="8.5468075"><ele>121.0</ele><time>2026-05-03T08:43:57.168Z</time></trkpt><trkpt lat="44.7448406" lon="8.5466961"><ele>121.00000000000001</ele><time>2026-05-03T08:43:58.168Z</time></trkpt><trkpt lat="44.7448178" lon="8.546587"><ele>121.0</ele><time>2026-05-03T08:43:59.168Z</time></trkpt><trkpt lat="44.7447975" lon="8.5464905"><ele>121.0</ele><time>2026-05-03T08:44:00.169Z</time></trkpt><trkpt lat="44.7447719" lon="8.5463315"><ele>121.0</ele><time>2026-05-03T08:44:02.169Z</time></trkpt><trkpt lat="44.7447537" lon="8.5462006"><ele>121.0</ele><time>2026-05-03T08:44:04.168Z</time></trkpt><trkpt lat="44.744733" lon="8.5461041"><ele>121.0</ele><time>2026-05-03T08:44:08.168Z</time></trkpt><trkpt lat="44.7446639" lon="8.5460296"><ele>121.0</ele><time>2026-05-03T08:44:11.168Z</time></trkpt><trkpt lat="44.744606" lon="8.5459186"><ele>121.19999999999999</ele><time>2026-05-03T08:44:13.168Z</time></trkpt><trkpt lat="44.7445614" lon="8.5457604"><ele>121.39999999999999</ele><time>2026-05-03T08:44:15.168Z</time></trkpt><trkpt lat="44.7445175" lon="8.545595"><ele>121.6</ele><time>2026-05-03T08:44:17.168Z</time></trkpt><trkpt lat="44.7444771" lon="8.5454477"><ele>121.8</ele><time>2026-05-03T08:44:19.168Z</time></trkpt><trkpt lat="44.7445051" lon="8.5453547"><ele>122.0</ele><time>2026-05-03T08:44:22.168Z</time></trkpt><trkpt lat="44.7445938" lon="8.5453428"><ele>121.33333333333333</ele><time>2026-05-03T08:44:24.168Z</time></trkpt><trkpt lat="44.7447079" lon="8.5453285"><ele>120.66666666666666</ele><time>2026-05-03T08:44:26.169Z</time></trkpt><trkpt lat="44.7447727" lon="8.5453196"><ele>120.0</ele><time>2026-05-03T08:44:27.168Z</time></trkpt><trkpt lat="44.7448814" lon="8.545316"><ele>119.33333333333334</ele><time>2026-05-03T08:44:29.168Z</time></trkpt><trkpt lat="44.7449467" lon="8.5453145"><ele>118.66666666666667</ele><time>2026-05-03T08:44:30.168Z</time></trkpt><trkpt lat="44.7450284" lon="8.5453085"><ele>118.0</ele><time>2026-05-03T08:44:31.168Z</time></trkpt><trkpt lat="44.745117" lon="8.5453098"><ele>118.00000000000001</ele><time>2026-05-03T08:44:32.168Z</time></trkpt><trkpt lat="44.7452016" lon="8.545302"><ele>118.0</ele><time>2026-05-03T08:44:33.168Z</time></trkpt><trkpt lat="44.7452881" lon="8.5452915"><ele>118.0</ele><time>2026-05-03T08:44:34.169Z</time></trkpt><trkpt lat="44.7453765" lon="8.5452855"><ele>118.0</ele><time>2026-05-03T08:44:35.168Z</time></trkpt><trkpt lat="44.7454593" lon="8.5452894"><ele>118.00000000000001</ele><time>2026-05-03T08:44:36.168Z</time></trkpt><trkpt lat="44.745542" lon="8.5452914"><ele>118.0</ele><time>2026-05-03T08:44:37.168Z</time></trkpt><trkpt lat="44.7456261" lon="8.545294"><ele>118.2</ele><time>2026-05-03T08:44:38.168Z</time></trkpt><trkpt lat="44.7457105" lon="8.545294"><ele>118.4</ele><time>2026-05-03T08:44:39.168Z</time></trkpt><trkpt lat="44.7457986" lon="8.5452872"><ele>118.60000000000001</ele><time>2026-05-03T08:44:40.17Z</time></trkpt><trkpt lat="44.745888" lon="8.5452803"><ele>118.80000000000001</ele><time>2026-05-03T08:44:41.17Z</time></trkpt><trkpt lat="44.7459831" lon="8.5452736"><ele>119.0</ele><time>2026-05-03T08:44:42.169Z</time></trkpt><trkpt lat="44.7460811" lon="8.5452676"><ele>119.4</ele><time>2026-05-03T08:44:43.169Z</time></trkpt><trkpt lat="44.7461792" lon="8.545264"><ele>119.80000000000001</ele><time>2026-05-03T08:44:44.17Z</time></trkpt><trkpt lat="44.7462767" lon="8.5452601"><ele>120.19999999999999</ele><time>2026-05-03T08:44:45.169Z</time></trkpt><trkpt lat="44.7463717" lon="8.5452527"><ele>120.6</ele><time>2026-05-03T08:44:46.169Z</time></trkpt><trkpt lat="44.7464672" lon="8.5452461"><ele>121.0</ele><time>2026-05-03T08:44:47.169Z</time></trkpt><trkpt lat="44.7465653" lon="8.545239"><ele>121.0</ele><time>2026-05-03T08:44:48.169Z</time></trkpt><trkpt lat="44.7466619" lon="8.5452354"><ele>121.0</ele><time>2026-05-03T08:44:49.169Z</time></trkpt><trkpt lat="44.7467598" lon="8.5452318"><ele>121.0</ele><time>2026-05-03T08:44:50.169Z</time></trkpt><trkpt lat="44.7468585" lon="8.5452282"><ele>121.0</ele><time>2026-05-03T08:44:51.17Z</time></trkpt><trkpt lat="44.7469575" lon="8.5452233"><ele>121.0</ele><time>2026-05-03T08:44:52.17Z</time></trkpt><trkpt lat="44.7470578" lon="8.5452168"><ele>121.0</ele><time>2026-05-03T08:44:53.17Z</time></trkpt><trkpt lat="44.7471586" lon="8.5452115"><ele>121.0</ele><time>2026-05-03T08:44:54.17Z</time></trkpt><trkpt lat="44.7472581" lon="8.5452061"><ele>121.0</ele><time>2026-05-03T08:44:55.17Z</time></trkpt><trkpt lat="44.747358" lon="8.5452005"><ele>121.0</ele><time>2026-05-03T08:44:56.169Z</time></trkpt><trkpt lat="44.7474562" lon="8.5451948"><ele>121.0</ele><time>2026-05-03T08:44:57.17Z</time></trkpt><trkpt lat="44.7475553" lon="8.5451907"><ele>121.0</ele><time>2026-05-03T08:44:58.169Z</time></trkpt><trkpt lat="44.7476549" lon="8.5451877"><ele>121.0</ele><time>2026-05-03T08:44:59.169Z</time></trkpt><trkpt lat="44.7477536" lon="8.5451851"><ele>121.0</ele><time>2026-05-03T08:45:00.169Z</time></trkpt><trkpt lat="44.7478532" lon="8.5451807"><ele>121.0</ele><time>2026-05-03T08:45:01.17Z</time></trkpt><trkpt lat="44.7479531" lon="8.5451757"><ele>121.0</ele><time>2026-05-03T08:45:02.169Z</time></trkpt><trkpt lat="44.7480528" lon="8.5451679"><ele>120.8</ele><time>2026-05-03T08:45:03.169Z</time></trkpt><trkpt lat="44.7481526" lon="8.5451624"><ele>120.6</ele><time>2026-05-03T08:45:04.17Z</time></trkpt><trkpt lat="44.7482511" lon="8.5451578"><ele>120.4</ele><time>2026-05-03T08:45:05.169Z</time></trkpt><trkpt lat="44.748348" lon="8.545151"><ele>120.2</ele><time>2026-05-03T08:45:06.17Z</time></trkpt><trkpt lat="44.7484472" lon="8.5451459"><ele>120.0</ele><time>2026-05-03T08:45:07.169Z</time></trkpt><trkpt lat="44.7485473" lon="8.5451419"><ele>119.6</ele><time>2026-05-03T08:45:08.169Z</time></trkpt><trkpt lat="44.7486465" lon="8.5451388"><ele>119.2</ele><time>2026-05-03T08:45:09.169Z</time></trkpt><trkpt lat="44.7487447" lon="8.5451365"><ele>118.80000000000001</ele><time>2026-05-03T08:45:10.17Z</time></trkpt><trkpt lat="44.7488436" lon="8.545133"><ele>118.4</ele><time>2026-05-03T08:45:11.169Z</time></trkpt><trkpt lat="44.7489428" lon="8.5451285"><ele>118.0</ele><time>2026-05-03T08:45:12.17Z</time></trkpt><trkpt lat="44.7490407" lon="8.5451244"><ele>118.0</ele><time>2026-05-03T08:45:13.169Z</time></trkpt><trkpt lat="44.7491379" lon="8.5451181"><ele>118.00000000000001</ele><time>2026-05-03T08:45:14.169Z</time></trkpt><trkpt lat="44.7492362" lon="8.5451128"><ele>118.00000000000001</ele><time>2026-05-03T08:45:15.169Z</time></trkpt><trkpt lat="44.7493362" lon="8.5451099"><ele>118.0</ele><time>2026-05-03T08:45:16.169Z</time></trkpt><trkpt lat="44.7494367" lon="8.5451097"><ele>118.0</ele><time>2026-05-03T08:45:17.169Z</time></trkpt><trkpt lat="44.7495356" lon="8.5451098"><ele>118.0</ele><time>2026-05-03T08:45:18.17Z</time></trkpt><trkpt lat="44.7496366" lon="8.5451054"><ele>118.00000000000001</ele><time>2026-05-03T08:45:19.169Z</time></trkpt><trkpt lat="44.7497369" lon="8.5450972"><ele>118.00000000000001</ele><time>2026-05-03T08:45:20.17Z</time></trkpt><trkpt lat="44.749837" lon="8.5450881"><ele>118.0</ele><time>2026-05-03T08:45:21.169Z</time></trkpt><trkpt lat="44.7499365" lon="8.5450823"><ele>118.0</ele><time>2026-05-03T08:45:22.169Z</time></trkpt><trkpt lat="44.7500351" lon="8.5450779"><ele>118.0</ele><time>2026-05-03T08:45:23.17Z</time></trkpt><trkpt lat="44.7501345" lon="8.5450744"><ele>118.00000000000001</ele><time>2026-05-03T08:45:24.17Z</time></trkpt><trkpt lat="44.7502324" lon="8.5450709"><ele>118.00000000000001</ele><time>2026-05-03T08:45:25.17Z</time></trkpt><trkpt lat="44.7503287" lon="8.5450673"><ele>118.0</ele><time>2026-05-03T08:45:26.171Z</time></trkpt><trkpt lat="44.7504242" lon="8.5450626"><ele>118.0</ele><time>2026-05-03T08:45:27.171Z</time></trkpt><trkpt lat="44.7505176" lon="8.5450543"><ele>118.2</ele><time>2026-05-03T08:45:28.171Z</time></trkpt><trkpt lat="44.7506096" lon="8.5450344"><ele>118.4</ele><time>2026-05-03T08:45:29.171Z</time></trkpt><trkpt lat="44.7506999" lon="8.5450027"><ele>118.60000000000001</ele><time>2026-05-03T08:45:30.17Z</time></trkpt><trkpt lat="44.750789" lon="8.5449608"><ele>118.80000000000001</ele><time>2026-05-03T08:45:31.17Z</time></trkpt><trkpt lat="44.7508749" lon="8.5449067"><ele>119.0</ele><time>2026-05-03T08:45:32.171Z</time></trkpt><trkpt lat="44.7509567" lon="8.5448455"><ele>119.0</ele><time>2026-05-03T08:45:33.17Z</time></trkpt><trkpt lat="44.7510372" lon="8.544777"><ele>119.0</ele><time>2026-05-03T08:45:34.17Z</time></trkpt><trkpt lat="44.7511158" lon="8.5447102"><ele>119.0</ele><time>2026-05-03T08:45:35.17Z</time></trkpt><trkpt lat="44.7511938" lon="8.5446444"><ele>119.0</ele><time>2026-05-03T08:45:36.171Z</time></trkpt><trkpt lat="44.7512734" lon="8.5445843"><ele>119.0</ele><time>2026-05-03T08:45:37.17Z</time></trkpt><trkpt lat="44.7513578" lon="8.5445219"><ele>117.80000000000001</ele><time>2026-05-03T08:45:38.17Z</time></trkpt><trkpt lat="44.7514408" lon="8.5444546"><ele>116.60000000000001</ele><time>2026-05-03T08:45:39.17Z</time></trkpt><trkpt lat="44.7515186" lon="8.5443832"><ele>115.4</ele><time>2026-05-03T08:45:40.171Z</time></trkpt><trkpt lat="44.7515934" lon="8.5443117"><ele>114.2</ele><time>2026-05-03T08:45:41.171Z</time></trkpt><trkpt lat="44.7516675" lon="8.5442461"><ele>113.0</ele><time>2026-05-03T08:45:42.17Z</time></trkpt><trkpt lat="44.7517466" lon="8.5441868"><ele>113.0</ele><time>2026-05-03T08:45:43.17Z</time></trkpt><trkpt lat="44.7518269" lon="8.5441287"><ele>113.00000000000001</ele><time>2026-05-03T08:45:44.171Z</time></trkpt><trkpt lat="44.7519087" lon="8.5440674"><ele>113.00000000000001</ele><time>2026-05-03T08:45:45.17Z</time></trkpt><trkpt lat="44.7519904" lon="8.5440012"><ele>113.0</ele><time>2026-05-03T08:45:46.17Z</time></trkpt><trkpt lat="44.7520733" lon="8.5439338"><ele>113.0</ele><time>2026-05-03T08:45:47.17Z</time></trkpt><trkpt lat="44.7521595" lon="8.5438642"><ele>114.0</ele><time>2026-05-03T08:45:48.17Z</time></trkpt><trkpt lat="44.7522421" lon="8.5437968"><ele>115.00000000000001</ele><time>2026-05-03T08:45:49.17Z</time></trkpt><trkpt lat="44.7523267" lon="8.5437297"><ele>116.00000000000001</ele><time>2026-05-03T08:45:50.17Z</time></trkpt><trkpt lat="44.75241" lon="8.543666"><ele>117.0</ele><time>2026-05-03T08:45:51.171Z</time></trkpt><trkpt lat="44.7524936" lon="8.5435998"><ele>118.0</ele><time>2026-05-03T08:45:52.17Z</time></trkpt><trkpt lat="44.7525745" lon="8.5435325"><ele>118.0</ele><time>2026-05-03T08:45:53.17Z</time></trkpt><trkpt lat="44.7526518" lon="8.543465"><ele>118.00000000000001</ele><time>2026-05-03T08:45:54.171Z</time></trkpt><trkpt lat="44.7527257" lon="8.5433932"><ele>118.00000000000001</ele><time>2026-05-03T08:45:55.17Z</time></trkpt><trkpt lat="44.752795" lon="8.54331"><ele>118.0</ele><time>2026-05-03T08:45:56.17Z</time></trkpt><trkpt lat="44.7528579" lon="8.5432058"><ele>118.0</ele><time>2026-05-03T08:45:57.171Z</time></trkpt><trkpt lat="44.7529053" lon="8.5430904"><ele>118.0</ele><time>2026-05-03T08:45:58.17Z</time></trkpt><trkpt lat="44.7529359" lon="8.5429592"><ele>118.00000000000001</ele><time>2026-05-03T08:45:59.17Z</time></trkpt><trkpt lat="44.7529485" lon="8.5428179"><ele>118.00000000000001</ele><time>2026-05-03T08:46:00.17Z</time></trkpt><trkpt lat="44.7529515" lon="8.5426658"><ele>118.0</ele><time>2026-05-03T08:46:01.17Z</time></trkpt><trkpt lat="44.7529573" lon="8.5425229"><ele>118.0</ele><time>2026-05-03T08:46:02.171Z</time></trkpt><trkpt lat="44.7529653" lon="8.542383"><ele>118.2</ele><time>2026-05-03T08:46:03.17Z</time></trkpt><trkpt lat="44.7529732" lon="8.5422422"><ele>118.4</ele><time>2026-05-03T08:46:04.17Z</time></trkpt><trkpt lat="44.7529786" lon="8.542109"><ele>118.60000000000001</ele><time>2026-05-03T08:46:05.171Z</time></trkpt><trkpt lat="44.7529819" lon="8.5419729"><ele>118.80000000000001</ele><time>2026-05-03T08:46:06.171Z</time></trkpt><trkpt lat="44.752986" lon="8.5418405"><ele>119.0</ele><time>2026-05-03T08:46:07.171Z</time></trkpt><trkpt lat="44.7529938" lon="8.5417096"><ele>119.4</ele><time>2026-05-03T08:46:08.171Z</time></trkpt><trkpt lat="44.7530003" lon="8.5415753"><ele>119.80000000000001</ele><time>2026-05-03T08:46:09.171Z</time></trkpt><trkpt lat="44.753004" lon="8.5414387"><ele>120.19999999999999</ele><time>2026-05-03T08:46:10.171Z</time></trkpt><trkpt lat="44.7530061" lon="8.5413041"><ele>120.6</ele><time>2026-05-03T08:46:11.171Z</time></trkpt><trkpt lat="44.7530007" lon="8.5411746"><ele>121.0</ele><time>2026-05-03T08:46:12.171Z</time></trkpt><trkpt lat="44.7529938" lon="8.5410431"><ele>121.0</ele><time>2026-05-03T08:46:13.171Z</time></trkpt><trkpt lat="44.7529853" lon="8.5409053"><ele>121.0</ele><time>2026-05-03T08:46:14.171Z</time></trkpt><trkpt lat="44.7529748" lon="8.5407747"><ele>121.0</ele><time>2026-05-03T08:46:15.172Z</time></trkpt><trkpt lat="44.7529613" lon="8.5406439"><ele>121.0</ele><time>2026-05-03T08:46:16.172Z</time></trkpt><trkpt lat="44.7529432" lon="8.5405121"><ele>121.0</ele><time>2026-05-03T08:46:17.171Z</time></trkpt><trkpt lat="44.752924" lon="8.5403799"><ele>120.6</ele><time>2026-05-03T08:46:18.171Z</time></trkpt><trkpt lat="44.752903" lon="8.540252"><ele>120.19999999999999</ele><time>2026-05-03T08:46:19.172Z</time></trkpt><trkpt lat="44.7528813" lon="8.5401206"><ele>119.80000000000001</ele><time>2026-05-03T08:46:20.171Z</time></trkpt><trkpt lat="44.7528585" lon="8.5399877"><ele>119.4</ele><time>2026-05-03T08:46:21.172Z</time></trkpt><trkpt lat="44.752837" lon="8.539857"><ele>119.0</ele><time>2026-05-03T08:46:22.171Z</time></trkpt><trkpt lat="44.7528139" lon="8.5397261"><ele>119.0</ele><time>2026-05-03T08:46:23.171Z</time></trkpt><trkpt lat="44.7527938" lon="8.5395984"><ele>119.0</ele><time>2026-05-03T08:46:24.171Z</time></trkpt><trkpt lat="44.7527737" lon="8.539472"><ele>119.0</ele><time>2026-05-03T08:46:25.172Z</time></trkpt><trkpt lat="44.7527531" lon="8.5393419"><ele>119.0</ele><time>2026-05-03T08:46:26.171Z</time></trkpt><trkpt lat="44.7527309" lon="8.53921"><ele>119.0</ele><time>2026-05-03T08:46:27.171Z</time></trkpt><trkpt lat="44.7527086" lon="8.5390731"><ele>119.0</ele><time>2026-05-03T08:46:28.172Z</time></trkpt><trkpt lat="44.7526892" lon="8.5389379"><ele>119.0</ele><time>2026-05-03T08:46:29.171Z</time></trkpt><trkpt lat="44.7526735" lon="8.5388014"><ele>119.0</ele><time>2026-05-03T08:46:30.171Z</time></trkpt><trkpt lat="44.7526622" lon="8.5386653"><ele>119.0</ele><time>2026-05-03T08:46:31.171Z</time></trkpt><trkpt lat="44.7526551" lon="8.5385299"><ele>119.0</ele><time>2026-05-03T08:46:32.172Z</time></trkpt><trkpt lat="44.7526521" lon="8.5383946"><ele>119.0</ele><time>2026-05-03T08:46:33.171Z</time></trkpt><trkpt lat="44.752652" lon="8.5382595"><ele>119.0</ele><time>2026-05-03T08:46:34.171Z</time></trkpt><trkpt lat="44.7526566" lon="8.5381222"><ele>119.0</ele><time>2026-05-03T08:46:35.172Z</time></trkpt><trkpt lat="44.7526664" lon="8.5379865"><ele>119.0</ele><time>2026-05-03T08:46:36.171Z</time></trkpt><trkpt lat="44.752679" lon="8.5378512"><ele>119.0</ele><time>2026-05-03T08:46:37.171Z</time></trkpt><trkpt lat="44.7526932" lon="8.5377174"><ele>119.2</ele><time>2026-05-03T08:46:38.171Z</time></trkpt><trkpt lat="44.7527087" lon="8.5375838"><ele>119.4</ele><time>2026-05-03T08:46:39.172Z</time></trkpt><trkpt lat="44.752726" lon="8.5374518"><ele>119.6</ele><time>2026-05-03T08:46:40.172Z</time></trkpt><trkpt lat="44.7527455" lon="8.5373182"><ele>119.8</ele><time>2026-05-03T08:46:41.172Z</time></trkpt><trkpt lat="44.7527639" lon="8.5371834"><ele>120.0</ele><time>2026-05-03T08:46:42.171Z</time></trkpt><trkpt lat="44.7527816" lon="8.5370527"><ele>120.2</ele><time>2026-05-03T08:46:43.172Z</time></trkpt><trkpt lat="44.7527995" lon="8.5369199"><ele>120.4</ele><time>2026-05-03T08:46:44.171Z</time></trkpt><trkpt lat="44.7528174" lon="8.5367876"><ele>120.6</ele><time>2026-05-03T08:46:45.172Z</time></trkpt><trkpt lat="44.7528353" lon="8.5366548"><ele>120.8</ele><time>2026-05-03T08:46:46.171Z</time></trkpt><trkpt lat="44.7528534" lon="8.5365181"><ele>121.0</ele><time>2026-05-03T08:46:47.172Z</time></trkpt><trkpt lat="44.7528718" lon="8.5363814"><ele>121.0</ele><time>2026-05-03T08:46:48.171Z</time></trkpt><trkpt lat="44.7528892" lon="8.5362492"><ele>121.0</ele><time>2026-05-03T08:46:49.171Z</time></trkpt><trkpt lat="44.7529071" lon="8.5361191"><ele>121.0</ele><time>2026-05-03T08:46:50.171Z</time></trkpt><trkpt lat="44.7529243" lon="8.5359886"><ele>121.0</ele><time>2026-05-03T08:46:51.172Z</time></trkpt><trkpt lat="44.7529419" lon="8.5358585"><ele>121.0</ele><time>2026-05-03T08:46:52.173Z</time></trkpt><trkpt lat="44.752959" lon="8.5357268"><ele>121.19999999999999</ele><time>2026-05-03T08:46:53.173Z</time></trkpt><trkpt lat="44.7529758" lon="8.5355949"><ele>121.39999999999999</ele><time>2026-05-03T08:46:54.172Z</time></trkpt><trkpt lat="44.7529921" lon="8.5354609"><ele>121.6</ele><time>2026-05-03T08:46:55.173Z</time></trkpt><trkpt lat="44.7530079" lon="8.5353278"><ele>121.8</ele><time>2026-05-03T08:46:56.172Z</time></trkpt><trkpt lat="44.7530259" lon="8.5351965"><ele>122.0</ele><time>2026-05-03T08:46:57.172Z</time></trkpt><trkpt lat="44.753045" lon="8.5350649"><ele>122.19999999999999</ele><time>2026-05-03T08:46:58.172Z</time></trkpt><trkpt lat="44.7530641" lon="8.5349335"><ele>122.39999999999999</ele><time>2026-05-03T08:46:59.172Z</time></trkpt><trkpt lat="44.7530817" lon="8.534802"><ele>122.60000000000001</ele><time>2026-05-03T08:47:00.172Z</time></trkpt><trkpt lat="44.7530981" lon="8.5346693"><ele>122.80000000000001</ele><time>2026-05-03T08:47:01.172Z</time></trkpt><trkpt lat="44.7531157" lon="8.5345383"><ele>123.0</ele><time>2026-05-03T08:47:02.172Z</time></trkpt><trkpt lat="44.753135" lon="8.5344084"><ele>123.16666666666667</ele><time>2026-05-03T08:47:03.172Z</time></trkpt><trkpt lat="44.7531509" lon="8.5342762"><ele>123.33333333333334</ele><time>2026-05-03T08:47:04.173Z</time></trkpt><trkpt lat="44.7531673" lon="8.5341425"><ele>123.5</ele><time>2026-05-03T08:47:05.172Z</time></trkpt><trkpt lat="44.7531823" lon="8.5340146"><ele>123.66666666666667</ele><time>2026-05-03T08:47:06.173Z</time></trkpt><trkpt lat="44.7531977" lon="8.5338951"><ele>123.83333333333334</ele><time>2026-05-03T08:47:07.172Z</time></trkpt><trkpt lat="44.7532114" lon="8.5337932"><ele>124.0</ele><time>2026-05-03T08:47:08.173Z</time></trkpt><trkpt lat="44.7532307" lon="8.5336412"><ele>124.16666666666667</ele><time>2026-05-03T08:47:10.172Z</time></trkpt><trkpt lat="44.7532343" lon="8.5335492"><ele>124.33333333333334</ele><time>2026-05-03T08:47:12.173Z</time></trkpt><trkpt lat="44.7532304" lon="8.5334561"><ele>124.5</ele><time>2026-05-03T08:47:14.172Z</time></trkpt><trkpt lat="44.7532175" lon="8.5333191"><ele>124.66666666666666</ele><time>2026-05-03T08:47:16.172Z</time></trkpt><trkpt lat="44.7531812" lon="8.5332372"><ele>124.83333333333333</ele><time>2026-05-03T08:47:17.172Z</time></trkpt><trkpt lat="44.7531204" lon="8.5331631"><ele>125.0</ele><time>2026-05-03T08:47:18.172Z</time></trkpt><trkpt lat="44.7530442" lon="8.5331133"><ele>125.0</ele><time>2026-05-03T08:47:19.172Z</time></trkpt><trkpt lat="44.7529654" lon="8.5330955"><ele>125.0</ele><time>2026-05-03T08:47:20.172Z</time></trkpt><trkpt lat="44.752892" lon="8.5331002"><ele>125.0</ele><time>2026-05-03T08:47:21.173Z</time></trkpt><trkpt lat="44.7528248" lon="8.5331063"><ele>125.0</ele><time>2026-05-03T08:47:22.172Z</time></trkpt><trkpt lat="44.752761" lon="8.5331075"><ele>125.0</ele><time>2026-05-03T08:47:23.173Z</time></trkpt><trkpt lat="44.7526972" lon="8.5331064"><ele>125.0</ele><time>2026-05-03T08:47:24.173Z</time></trkpt><trkpt lat="44.7526294" lon="8.5331059"><ele>125.0</ele><time>2026-05-03T08:47:25.172Z</time></trkpt><trkpt lat="44.7525545" lon="8.5331035"><ele>124.83333333333333</ele><time>2026-05-03T08:47:26.172Z</time></trkpt><trkpt lat="44.7524784" lon="8.5331015"><ele>124.66666666666666</ele><time>2026-05-03T08:47:27.172Z</time></trkpt><trkpt lat="44.7524002" lon="8.5331016"><ele>124.5</ele><time>2026-05-03T08:47:28.172Z</time></trkpt><trkpt lat="44.7523226" lon="8.5331044"><ele>124.33333333333334</ele><time>2026-05-03T08:47:29.173Z</time></trkpt><trkpt lat="44.7522454" lon="8.5331061"><ele>124.16666666666667</ele><time>2026-05-03T08:47:30.172Z</time></trkpt><trkpt lat="44.7521673" lon="8.5331048"><ele>124.0</ele><time>2026-05-03T08:47:31.172Z</time></trkpt><trkpt lat="44.7520886" lon="8.5331031"><ele>124.00000000000001</ele><time>2026-05-03T08:47:32.172Z</time></trkpt><trkpt lat="44.7520083" lon="8.5331024"><ele>124.0</ele><time>2026-05-03T08:47:33.173Z</time></trkpt><trkpt lat="44.7519223" lon="8.5331034"><ele>124.0</ele><time>2026-05-03T08:47:34.172Z</time></trkpt><trkpt lat="44.751842" lon="8.5331061"><ele>124.0</ele><time>2026-05-03T08:47:35.173Z</time></trkpt><trkpt lat="44.7517681" lon="8.5331089"><ele>124.00000000000001</ele><time>2026-05-03T08:47:36.173Z</time></trkpt><trkpt lat="44.7517" lon="8.5331092"><ele>124.0</ele><time>2026-05-03T08:47:37.173Z</time></trkpt><trkpt lat="44.7515852" lon="8.5330783"><ele>124.4</ele><time>2026-05-03T08:47:39.174Z</time></trkpt><trkpt lat="44.7515199" lon="8.5329793"><ele>124.80000000000001</ele><time>2026-05-03T08:47:41.173Z</time></trkpt><trkpt lat="44.751514" lon="8.5327952"><ele>125.19999999999999</ele><time>2026-05-03T08:47:43.173Z</time></trkpt><trkpt lat="44.7515321" lon="8.5326969"><ele>125.6</ele><time>2026-05-03T08:47:44.173Z</time></trkpt><trkpt lat="44.7515604" lon="8.5325956"><ele>126.0</ele><time>2026-05-03T08:47:45.173Z</time></trkpt><trkpt lat="44.7515833" lon="8.5324928"><ele>126.14285714285714</ele><time>2026-05-03T08:47:46.173Z</time></trkpt><trkpt lat="44.7516029" lon="8.5323942"><ele>126.28571428571428</ele><time>2026-05-03T08:47:47.173Z</time></trkpt><trkpt lat="44.7516111" lon="8.5322968"><ele>126.42857142857143</ele><time>2026-05-03T08:47:48.174Z</time></trkpt><trkpt lat="44.7516137" lon="8.5322014"><ele>126.57142857142857</ele><time>2026-05-03T08:47:49.174Z</time></trkpt><trkpt lat="44.751619" lon="8.5320887"><ele>126.71428571428571</ele><time>2026-05-03T08:47:50.173Z</time></trkpt><trkpt lat="44.7516253" lon="8.5319748"><ele>126.85714285714286</ele><time>2026-05-03T08:47:51.173Z</time></trkpt><trkpt lat="44.7516339" lon="8.5318702"><ele>127.0</ele><time>2026-05-03T08:47:52.174Z</time></trkpt><trkpt lat="44.7516425" lon="8.5317672"><ele>127.33333333333334</ele><time>2026-05-03T08:47:53.174Z</time></trkpt><trkpt lat="44.7516512" lon="8.5316541"><ele>127.66666666666667</ele><time>2026-05-03T08:47:54.173Z</time></trkpt><trkpt lat="44.7516612" lon="8.5315438"><ele>128.0</ele><time>2026-05-03T08:47:55.173Z</time></trkpt><trkpt lat="44.7516719" lon="8.5314421"><ele>128.33333333333334</ele><time>2026-05-03T08:47:56.174Z</time></trkpt><trkpt lat="44.751679" lon="8.5313345"><ele>128.66666666666666</ele><time>2026-05-03T08:47:57.174Z</time></trkpt><trkpt lat="44.7516849" lon="8.5312287"><ele>129.0</ele><time>2026-05-03T08:47:58.174Z</time></trkpt><trkpt lat="44.7516959" lon="8.5311093"><ele>129.33333333333334</ele><time>2026-05-03T08:47:59.173Z</time></trkpt><trkpt lat="44.7517059" lon="8.530995"><ele>129.66666666666666</ele><time>2026-05-03T08:48:00.174Z</time></trkpt><trkpt lat="44.75172" lon="8.5308825"><ele>130.0</ele><time>2026-05-03T08:48:01.173Z</time></trkpt><trkpt lat="44.7517319" lon="8.530764"><ele>130.33333333333331</ele><time>2026-05-03T08:48:02.173Z</time></trkpt><trkpt lat="44.7517463" lon="8.5306454"><ele>130.66666666666666</ele><time>2026-05-03T08:48:03.173Z</time></trkpt><trkpt lat="44.7517566" lon="8.5305243"><ele>131.0</ele><time>2026-05-03T08:48:04.173Z</time></trkpt><trkpt lat="44.7517664" lon="8.5304067"><ele>131.66666666666666</ele><time>2026-05-03T08:48:05.173Z</time></trkpt><trkpt lat="44.7517742" lon="8.5302823"><ele>132.33333333333331</ele><time>2026-05-03T08:48:06.173Z</time></trkpt><trkpt lat="44.7517844" lon="8.5301599"><ele>133.0</ele><time>2026-05-03T08:48:07.174Z</time></trkpt><trkpt lat="44.7517962" lon="8.5300411"><ele>133.66666666666666</ele><time>2026-05-03T08:48:08.173Z</time></trkpt><trkpt lat="44.7518061" lon="8.5299127"><ele>134.33333333333334</ele><time>2026-05-03T08:48:09.174Z</time></trkpt><trkpt lat="44.7518137" lon="8.5297968"><ele>135.0</ele><time>2026-05-03T08:48:10.174Z</time></trkpt><trkpt lat="44.751822" lon="8.529689"><ele>135.0</ele><time>2026-05-03T08:48:11.173Z</time></trkpt><trkpt lat="44.751831" lon="8.5295961"><ele>135.0</ele><time>2026-05-03T08:48:12.173Z</time></trkpt><trkpt lat="44.7518481" lon="8.5295071"><ele>135.0</ele><time>2026-05-03T08:48:13.173Z</time></trkpt><trkpt lat="44.7518671" lon="8.5293387"><ele>135.0</ele><time>2026-05-03T08:48:15.173Z</time></trkpt><trkpt lat="44.7518768" lon="8.5291972"><ele>135.0</ele><time>2026-05-03T08:48:17.173Z</time></trkpt><trkpt lat="44.7518848" lon="8.5291071"><ele>135.0</ele><time>2026-05-03T08:48:19.174Z</time></trkpt><trkpt lat="44.751865" lon="8.529014"><ele>135.2</ele><time>2026-05-03T08:48:38.174Z</time></trkpt><trkpt lat="44.7517899" lon="8.5289655"><ele>135.4</ele><time>2026-05-03T08:48:41.174Z</time></trkpt><trkpt lat="44.7516998" lon="8.5289772"><ele>135.6</ele><time>2026-05-03T08:48:43.175Z</time></trkpt><trkpt lat="44.7515994" lon="8.5290258"><ele>135.8</ele><time>2026-05-03T08:48:45.174Z</time></trkpt><trkpt lat="44.7514911" lon="8.529076"><ele>136.0</ele><time>2026-05-03T08:48:47.174Z</time></trkpt><trkpt lat="44.7513735" lon="8.5291219"><ele>135.99999999999997</ele><time>2026-05-03T08:48:49.174Z</time></trkpt><trkpt lat="44.7513101" lon="8.5291483"><ele>136.0</ele><time>2026-05-03T08:48:50.174Z</time></trkpt><trkpt lat="44.7512499" lon="8.5291761"><ele>136.0</ele><time>2026-05-03T08:48:51.174Z</time></trkpt><trkpt lat="44.7511887" lon="8.529201"><ele>136.0</ele><time>2026-05-03T08:48:52.174Z</time></trkpt><trkpt lat="44.7511246" lon="8.529221"><ele>136.0</ele><time>2026-05-03T08:48:53.174Z</time></trkpt><trkpt lat="44.7510632" lon="8.5292437"><ele>135.99999999999997</ele><time>2026-05-03T08:48:54.174Z</time></trkpt><trkpt lat="44.7510009" lon="8.5292663"><ele>136.0</ele><time>2026-05-03T08:48:55.175Z</time></trkpt><trkpt lat="44.7509368" lon="8.5292911"><ele>135.99999999999997</ele><time>2026-05-03T08:48:56.174Z</time></trkpt><trkpt lat="44.7508718" lon="8.5293173"><ele>136.0</ele><time>2026-05-03T08:48:57.174Z</time></trkpt><trkpt lat="44.7508072" lon="8.5293417"><ele>136.0</ele><time>2026-05-03T08:48:58.174Z</time></trkpt><trkpt lat="44.7507404" lon="8.5293679"><ele>136.0</ele><time>2026-05-03T08:48:59.174Z</time></trkpt><trkpt lat="44.7506732" lon="8.5293938"><ele>136.0</ele><time>2026-05-03T08:49:00.174Z</time></trkpt><trkpt lat="44.7506043" lon="8.5294203"><ele>135.99999999999997</ele><time>2026-05-03T08:49:01.174Z</time></trkpt><trkpt lat="44.7505341" lon="8.5294466"><ele>136.0</ele><time>2026-05-03T08:49:02.174Z</time></trkpt><trkpt lat="44.7504646" lon="8.5294748"><ele>136.0</ele><time>2026-05-03T08:49:03.176Z</time></trkpt><trkpt lat="44.7503957" lon="8.5295034"><ele>136.0</ele><time>2026-05-03T08:49:04.175Z</time></trkpt><trkpt lat="44.7503263" lon="8.5295304"><ele>136.0</ele><time>2026-05-03T08:49:05.175Z</time></trkpt><trkpt lat="44.7502547" lon="8.5295575"><ele>136.0</ele><time>2026-05-03T08:49:06.175Z</time></trkpt><trkpt lat="44.7501852" lon="8.5295828"><ele>136.0</ele><time>2026-05-03T08:49:07.175Z</time></trkpt><trkpt lat="44.7501172" lon="8.5296034"><ele>136.0</ele><time>2026-05-03T08:49:08.175Z</time></trkpt><trkpt lat="44.7499955" lon="8.5296393"><ele>135.4</ele><time>2026-05-03T08:49:10.176Z</time></trkpt><trkpt lat="44.7498743" lon="8.5296573"><ele>134.8</ele><time>2026-05-03T08:49:12.176Z</time></trkpt><trkpt lat="44.7497825" lon="8.5296542"><ele>134.20000000000002</ele><time>2026-05-03T08:49:14.175Z</time></trkpt><trkpt lat="44.74981" lon="8.5297374"><ele>133.6</ele><time>2026-05-03T08:49:44.175Z</time></trkpt><trkpt lat="44.7499047" lon="8.5297208"><ele>133.0</ele><time>2026-05-03T08:49:46.176Z</time></trkpt><trkpt lat="44.7500196" lon="8.5297167"><ele>133.0</ele><time>2026-05-03T08:49:48.177Z</time></trkpt><trkpt lat="44.7501474" lon="8.529674"><ele>133.0</ele><time>2026-05-03T08:49:50.176Z</time></trkpt><trkpt lat="44.7502126" lon="8.5296482"><ele>133.0</ele><time>2026-05-03T08:49:51.176Z</time></trkpt><trkpt lat="44.7502793" lon="8.5296247"><ele>133.0</ele><time>2026-05-03T08:49:52.176Z</time></trkpt><trkpt lat="44.7504056" lon="8.5295761"><ele>133.0</ele><time>2026-05-03T08:49:54.177Z</time></trkpt><trkpt lat="44.7504715" lon="8.5295505"><ele>133.5</ele><time>2026-05-03T08:49:55.177Z</time></trkpt><trkpt lat="44.7505368" lon="8.5295261"><ele>134.0</ele><time>2026-05-03T08:49:56.176Z</time></trkpt><trkpt lat="44.7506002" lon="8.5295049"><ele>134.5</ele><time>2026-05-03T08:49:57.177Z</time></trkpt><trkpt lat="44.7507159" lon="8.5294637"><ele>135.0</ele><time>2026-05-03T08:49:59.176Z</time></trkpt><trkpt lat="44.7508061" lon="8.5294226"><ele>135.5</ele><time>2026-05-03T08:50:01.176Z</time></trkpt><trkpt lat="44.7508601" lon="8.5293617"><ele>136.0</ele><time>2026-05-03T08:50:04.177Z</time></trkpt><trkpt lat="44.7508599" lon="8.529256"><ele>136.0</ele><time>2026-05-03T08:50:06.176Z</time></trkpt><trkpt lat="44.7508298" lon="8.5291474"><ele>136.0</ele><time>2026-05-03T08:50:08.176Z</time></trkpt><trkpt lat="44.7507789" lon="8.5290203"><ele>136.0</ele><time>2026-05-03T08:50:10.177Z</time></trkpt><trkpt lat="44.7507354" lon="8.528946"><ele>136.0</ele><time>2026-05-03T08:50:11.177Z</time></trkpt><trkpt lat="44.7506858" lon="8.5288659"><ele>136.0</ele><time>2026-05-03T08:50:12.177Z</time></trkpt><trkpt lat="44.7506172" lon="8.5287329"><ele>136.0</ele><time>2026-05-03T08:50:14.176Z</time></trkpt><trkpt lat="44.7506371" lon="8.528612"><ele>136.0</ele><time>2026-05-03T08:50:17.177Z</time></trkpt><trkpt lat="44.7506846" lon="8.5285317"><ele>136.0</ele><time>2026-05-03T08:50:21.177Z</time></trkpt><trkpt lat="44.7506781" lon="8.528431"><ele>136.0</ele><time>2026-05-03T08:50:24.176Z</time></trkpt><trkpt lat="44.7506524" lon="8.5283017"><ele>136.0</ele><time>2026-05-03T08:50:27.177Z</time></trkpt><trkpt lat="44.7506197" lon="8.528213"><ele>136.0</ele><time>2026-05-03T08:50:29.176Z</time></trkpt><trkpt lat="44.7506019" lon="8.5283061"><ele>136.0</ele><time>2026-05-03T08:50:32.177Z</time></trkpt><trkpt lat="44.7506336" lon="8.5284271"><ele>136.0</ele><time>2026-05-03T08:50:41.178Z</time></trkpt><trkpt lat="44.7506565" lon="8.5285221"><ele>136.0</ele><time>2026-05-03T08:50:43.177Z</time></trkpt><trkpt lat="44.7506231" lon="8.5286256"><ele>136.0</ele><time>2026-05-03T08:50:45.178Z</time></trkpt><trkpt lat="44.7505902" lon="8.5287064"><ele>136.0</ele><time>2026-05-03T08:50:46.177Z</time></trkpt><trkpt lat="44.7505871" lon="8.5288536"><ele>136.0</ele><time>2026-05-03T08:50:48.178Z</time></trkpt><trkpt lat="44.7506593" lon="8.5290009"><ele>136.0</ele><time>2026-05-03T08:50:50.178Z</time></trkpt><trkpt lat="44.7506978" lon="8.5290731"><ele>136.0</ele><time>2026-05-03T08:50:51.177Z</time></trkpt><trkpt lat="44.7507399" lon="8.5291398"><ele>136.0</ele><time>2026-05-03T08:50:52.177Z</time></trkpt><trkpt lat="44.750794" lon="8.529251"><ele>136.0</ele><time>2026-05-03T08:50:54.178Z</time></trkpt><trkpt lat="44.7508155" lon="8.5293383"><ele>136.0</ele><time>2026-05-03T08:50:56.178Z</time></trkpt><trkpt lat="44.7508777" lon="8.529394"><ele>136.0</ele><time>2026-05-03T08:51:16.177Z</time></trkpt><trkpt lat="44.7509752" lon="8.5293647"><ele>136.0</ele><time>2026-05-03T08:51:18.178Z</time></trkpt><trkpt lat="44.7510919" lon="8.529317"><ele>136.0</ele><time>2026-05-03T08:51:20.179Z</time></trkpt><trkpt lat="44.7511629" lon="8.5292891"><ele>136.0</ele><time>2026-05-03T08:51:21.178Z</time></trkpt><trkpt lat="44.7512361" lon="8.5292619"><ele>136.0</ele><time>2026-05-03T08:51:22.178Z</time></trkpt><trkpt lat="44.7512998" lon="8.5292353"><ele>136.0</ele><time>2026-05-03T08:51:23.179Z</time></trkpt><trkpt lat="44.7514135" lon="8.5291787"><ele>136.0</ele><time>2026-05-03T08:51:25.178Z</time></trkpt><trkpt lat="44.7515064" lon="8.5291341"><ele>136.0</ele><time>2026-05-03T08:51:27.178Z</time></trkpt><trkpt lat="44.7516006" lon="8.529091"><ele>136.0</ele><time>2026-05-03T08:51:29.179Z</time></trkpt><trkpt lat="44.7516664" lon="8.5290733"><ele>136.0</ele><time>2026-05-03T08:51:30.178Z</time></trkpt><trkpt lat="44.7517378" lon="8.5290551"><ele>136.0</ele><time>2026-05-03T08:51:31.178Z</time></trkpt><trkpt lat="44.7518049" lon="8.5290301"><ele>136.0</ele><time>2026-05-03T08:51:32.178Z</time></trkpt><trkpt lat="44.7518752" lon="8.5290039"><ele>135.5</ele><time>2026-05-03T08:51:33.178Z</time></trkpt><trkpt lat="44.7519502" lon="8.5289736"><ele>135.0</ele><time>2026-05-03T08:51:34.179Z</time></trkpt><trkpt lat="44.752025" lon="8.5289337"><ele>134.5</ele><time>2026-05-03T08:51:35.178Z</time></trkpt><trkpt lat="44.7520997" lon="8.5288971"><ele>134.0</ele><time>2026-05-03T08:51:36.179Z</time></trkpt><trkpt lat="44.7521753" lon="8.5288672"><ele>133.5</ele><time>2026-05-03T08:51:37.178Z</time></trkpt><trkpt lat="44.7522517" lon="8.5288417"><ele>133.0</ele><time>2026-05-03T08:51:38.178Z</time></trkpt><trkpt lat="44.7523326" lon="8.5288292"><ele>133.0</ele><time>2026-05-03T08:51:39.178Z</time></trkpt><trkpt lat="44.7523956" lon="8.5287981"><ele>133.0</ele><time>2026-05-03T08:51:40.178Z</time></trkpt><trkpt lat="44.7525126" lon="8.5287417"><ele>133.0</ele><time>2026-05-03T08:51:42.178Z</time></trkpt><trkpt lat="44.7526034" lon="8.528703"><ele>133.0</ele><time>2026-05-03T08:51:44.179Z</time></trkpt><trkpt lat="44.7526421" lon="8.5286238"><ele>133.0</ele><time>2026-05-03T08:51:46.178Z</time></trkpt><trkpt lat="44.7526488" lon="8.5284831"><ele>133.0</ele><time>2026-05-03T08:51:48.178Z</time></trkpt><trkpt lat="44.7526347" lon="8.5283364"><ele>133.0</ele><time>2026-05-03T08:51:50.178Z</time></trkpt><trkpt lat="44.7526052" lon="8.5281721"><ele>133.0</ele><time>2026-05-03T08:51:52.179Z</time></trkpt><trkpt lat="44.7525962" lon="8.5280826"><ele>133.0</ele><time>2026-05-03T08:51:53.178Z</time></trkpt><trkpt lat="44.752573" lon="8.5279097"><ele>133.0</ele><time>2026-05-03T08:51:55.178Z</time></trkpt><trkpt lat="44.752555" lon="8.527756"><ele>133.33333333333334</ele><time>2026-05-03T08:51:57.178Z</time></trkpt><trkpt lat="44.7525353" lon="8.5276646"><ele>133.66666666666669</ele><time>2026-05-03T08:52:00.178Z</time></trkpt><trkpt lat="44.7524751" lon="8.5275993"><ele>134.0</ele><time>2026-05-03T08:52:15.18Z</time></trkpt><trkpt lat="44.7523917" lon="8.5275195"><ele>134.33333333333334</ele><time>2026-05-03T08:52:17.18Z</time></trkpt><trkpt lat="44.7523147" lon="8.5274554"><ele>134.66666666666666</ele><time>2026-05-03T08:52:19.179Z</time></trkpt><trkpt lat="44.7522135" lon="8.5274186"><ele>135.0</ele><time>2026-05-03T08:52:21.179Z</time></trkpt><trkpt lat="44.7520926" lon="8.5273677"><ele>135.0</ele><time>2026-05-03T08:52:23.179Z</time></trkpt><trkpt lat="44.7520246" lon="8.5273233"><ele>135.0</ele><time>2026-05-03T08:52:24.179Z</time></trkpt><trkpt lat="44.7519249" lon="8.5272253"><ele>135.0</ele><time>2026-05-03T08:52:26.179Z</time></trkpt><trkpt lat="44.7518747" lon="8.5271684"><ele>135.0</ele><time>2026-05-03T08:52:27.18Z</time></trkpt><trkpt lat="44.7517852" lon="8.5270662"><ele>135.0</ele><time>2026-05-03T08:52:29.18Z</time></trkpt><trkpt lat="44.7517492" lon="8.5269877"><ele>135.0</ele><time>2026-05-03T08:52:30.179Z</time></trkpt><trkpt lat="44.7517128" lon="8.5269144"><ele>135.6</ele><time>2026-05-03T08:52:31.179Z</time></trkpt><trkpt lat="44.7516703" lon="8.5267652"><ele>136.2</ele><time>2026-05-03T08:52:33.179Z</time></trkpt><trkpt lat="44.7516681" lon="8.5266754"><ele>136.8</ele><time>2026-05-03T08:52:34.179Z</time></trkpt><trkpt lat="44.7516495" lon="8.5265333"><ele>137.4</ele><time>2026-05-03T08:52:36.179Z</time></trkpt><trkpt lat="44.7515763" lon="8.5264293"><ele>138.0</ele><time>2026-05-03T08:52:38.179Z</time></trkpt><trkpt lat="44.7514751" lon="8.5263648"><ele>138.0</ele><time>2026-05-03T08:52:40.179Z</time></trkpt><trkpt lat="44.7513664" lon="8.5262852"><ele>138.0</ele><time>2026-05-03T08:52:42.179Z</time></trkpt><trkpt lat="44.7512546" lon="8.5261945"><ele>138.0</ele><time>2026-05-03T08:52:44.179Z</time></trkpt><trkpt lat="44.7511972" lon="8.5261555"><ele>138.0</ele><time>2026-05-03T08:52:45.18Z</time></trkpt><trkpt lat="44.7510667" lon="8.5261067"><ele>139.8</ele><time>2026-05-03T08:52:47.179Z</time></trkpt><trkpt lat="44.7509581" lon="8.5260805"><ele>141.60000000000002</ele><time>2026-05-03T08:52:49.18Z</time></trkpt><trkpt lat="44.7508748" lon="8.5259937"><ele>143.39999999999998</ele><time>2026-05-03T08:52:51.181Z</time></trkpt><trkpt lat="44.7508284" lon="8.5259296"><ele>145.2</ele><time>2026-05-03T08:52:52.181Z</time></trkpt><trkpt lat="44.7507267" lon="8.5258572"><ele>147.0</ele><time>2026-05-03T08:52:54.181Z</time></trkpt><trkpt lat="44.7506519" lon="8.5259129"><ele>147.0</ele><time>2026-05-03T08:52:56.18Z</time></trkpt><trkpt lat="44.7506006" lon="8.5259721"><ele>147.0</ele><time>2026-05-03T08:52:57.18Z</time></trkpt><trkpt lat="44.7505553" lon="8.5260346"><ele>147.0</ele><time>2026-05-03T08:52:58.18Z</time></trkpt><trkpt lat="44.7505044" lon="8.5260979"><ele>147.0</ele><time>2026-05-03T08:52:59.18Z</time></trkpt><trkpt lat="44.7504566" lon="8.5261639"><ele>147.0</ele><time>2026-05-03T08:53:00.18Z</time></trkpt><trkpt lat="44.7503844" lon="8.5262683"><ele>147.0</ele><time>2026-05-03T08:53:02.18Z</time></trkpt><trkpt lat="44.750329" lon="8.5263633"><ele>146.83333333333334</ele><time>2026-05-03T08:53:04.18Z</time></trkpt><trkpt lat="44.7502697" lon="8.526454"><ele>146.66666666666666</ele><time>2026-05-03T08:53:07.181Z</time></trkpt><trkpt lat="44.7502303" lon="8.5265371"><ele>146.5</ele><time>2026-05-03T08:53:10.18Z</time></trkpt><trkpt lat="44.7501653" lon="8.5264672"><ele>146.33333333333331</ele><time>2026-05-03T08:53:13.18Z</time></trkpt><trkpt lat="44.7501318" lon="8.526361"><ele>146.16666666666666</ele><time>2026-05-03T08:53:15.18Z</time></trkpt><trkpt lat="44.7500969" lon="8.5262497"><ele>146.0</ele><time>2026-05-03T08:53:17.18Z</time></trkpt><trkpt lat="44.7500689" lon="8.5261318"><ele>147.66666666666666</ele><time>2026-05-03T08:53:19.18Z</time></trkpt><trkpt lat="44.7500351" lon="8.5260557"><ele>149.33333333333331</ele><time>2026-05-03T08:53:21.18Z</time></trkpt><trkpt lat="44.749937" lon="8.5260513"><ele>151.0</ele><time>2026-05-03T08:53:25.18Z</time></trkpt><trkpt lat="44.7498566" lon="8.5261026"><ele>152.66666666666666</ele><time>2026-05-03T08:53:27.18Z</time></trkpt><trkpt lat="44.7497748" lon="8.5261206"><ele>154.33333333333334</ele><time>2026-05-03T08:53:29.18Z</time></trkpt><trkpt lat="44.7496785" lon="8.5261181"><ele>156.0</ele><time>2026-05-03T08:53:31.181Z</time></trkpt><trkpt lat="44.7495902" lon="8.5261396"><ele>156.0</ele><time>2026-05-03T08:53:33.18Z</time></trkpt><trkpt lat="44.7495196" lon="8.5261713"><ele>156.0</ele><time>2026-05-03T08:53:35.181Z</time></trkpt><trkpt lat="44.7494301" lon="8.5261943"><ele>156.0</ele><time>2026-05-03T08:53:42.181Z</time></trkpt><trkpt lat="44.7493615" lon="8.5261555"><ele>156.0</ele><time>2026-05-03T08:53:44.181Z</time></trkpt><trkpt lat="44.7492652" lon="8.526097"><ele>156.0</ele><time>2026-05-03T08:53:46.181Z</time></trkpt><trkpt lat="44.7491654" lon="8.5260104"><ele>158.8</ele><time>2026-05-03T08:53:48.181Z</time></trkpt><trkpt lat="44.7490775" lon="8.5259322"><ele>161.6</ele><time>2026-05-03T08:53:50.181Z</time></trkpt><trkpt lat="44.7489775" lon="8.5258629"><ele>164.4</ele><time>2026-05-03T08:53:52.181Z</time></trkpt><trkpt lat="44.7488769" lon="8.5258085"><ele>167.2</ele><time>2026-05-03T08:53:54.181Z</time></trkpt><trkpt lat="44.748783" lon="8.525773"><ele>170.0</ele><time>2026-05-03T08:53:56.182Z</time></trkpt><trkpt lat="44.7487002" lon="8.5257076"><ele>170.0</ele><time>2026-05-03T08:53:58.181Z</time></trkpt><trkpt lat="44.7486033" lon="8.5256216"><ele>170.0</ele><time>2026-05-03T08:54:00.181Z</time></trkpt><trkpt lat="44.7485125" lon="8.5255518"><ele>170.0</ele><time>2026-05-03T08:54:02.182Z</time></trkpt><trkpt lat="44.7484336" lon="8.5254677"><ele>170.0</ele><time>2026-05-03T08:54:04.182Z</time></trkpt><trkpt lat="44.7483693" lon="8.5253549"><ele>170.0</ele><time>2026-05-03T08:54:06.181Z</time></trkpt><trkpt lat="44.7482969" lon="8.52527"><ele>171.6</ele><time>2026-05-03T08:54:08.181Z</time></trkpt><trkpt lat="44.7482689" lon="8.5251741"><ele>173.2</ele><time>2026-05-03T08:54:10.181Z</time></trkpt><trkpt lat="44.7483293" lon="8.5251035"><ele>174.8</ele><time>2026-05-03T08:54:12.181Z</time></trkpt><trkpt lat="44.7484005" lon="8.5250431"><ele>176.4</ele><time>2026-05-03T08:54:14.181Z</time></trkpt><trkpt lat="44.7485054" lon="8.5249593"><ele>178.0</ele><time>2026-05-03T08:54:16.182Z</time></trkpt><trkpt lat="44.748588" lon="8.5248687"><ele>178.0</ele><time>2026-05-03T08:54:18.181Z</time></trkpt><trkpt lat="44.7486646" lon="8.5247862"><ele>178.0</ele><time>2026-05-03T08:54:20.182Z</time></trkpt><trkpt lat="44.7487338" lon="8.5246886"><ele>178.0</ele><time>2026-05-03T08:54:22.182Z</time></trkpt><trkpt lat="44.7487882" lon="8.5245657"><ele>178.0</ele><time>2026-05-03T08:54:24.182Z</time></trkpt><trkpt lat="44.7488317" lon="8.5244425"><ele>178.0</ele><time>2026-05-03T08:54:26.182Z</time></trkpt><trkpt lat="44.7488492" lon="8.524346"><ele>179.14285714285714</ele><time>2026-05-03T08:54:28.182Z</time></trkpt><trkpt lat="44.7488212" lon="8.5242559"><ele>180.28571428571428</ele><time>2026-05-03T08:54:30.182Z</time></trkpt><trkpt lat="44.7487759" lon="8.5241931"><ele>181.42857142857144</ele><time>2026-05-03T08:54:31.183Z</time></trkpt><trkpt lat="44.748717" lon="8.5241355"><ele>182.57142857142856</ele><time>2026-05-03T08:54:32.182Z</time></trkpt><trkpt lat="44.7486629" lon="8.5240788"><ele>183.71428571428572</ele><time>2026-05-03T08:54:33.182Z</time></trkpt><trkpt lat="44.7486207" lon="8.5240036"><ele>184.85714285714286</ele><time>2026-05-03T08:54:34.182Z</time></trkpt><trkpt lat="44.7485684" lon="8.523939"><ele>186.0</ele><time>2026-05-03T08:54:35.182Z</time></trkpt><trkpt lat="44.7485044" lon="8.5238707"><ele>186.33333333333334</ele><time>2026-05-03T08:54:36.182Z</time></trkpt><trkpt lat="44.7484398" lon="8.523797"><ele>186.66666666666666</ele><time>2026-05-03T08:54:37.182Z</time></trkpt><trkpt lat="44.7483796" lon="8.5237253"><ele>187.0</ele><time>2026-05-03T08:54:38.183Z</time></trkpt><trkpt lat="44.748323" lon="8.5236527"><ele>187.33333333333331</ele><time>2026-05-03T08:54:39.182Z</time></trkpt><trkpt lat="44.7482661" lon="8.5235837"><ele>187.66666666666666</ele><time>2026-05-03T08:54:40.182Z</time></trkpt><trkpt lat="44.7482149" lon="8.5235088"><ele>188.0</ele><time>2026-05-03T08:54:41.182Z</time></trkpt><trkpt lat="44.7481628" lon="8.5234327"><ele>188.14285714285714</ele><time>2026-05-03T08:54:42.182Z</time></trkpt><trkpt lat="44.7481114" lon="8.5233571"><ele>188.28571428571428</ele><time>2026-05-03T08:54:43.182Z</time></trkpt><trkpt lat="44.7480613" lon="8.5232847"><ele>188.42857142857144</ele><time>2026-05-03T08:54:44.182Z</time></trkpt><trkpt lat="44.7480143" lon="8.5232159"><ele>188.57142857142856</ele><time>2026-05-03T08:54:45.182Z</time></trkpt><trkpt lat="44.7479643" lon="8.5231493"><ele>188.71428571428572</ele><time>2026-05-03T08:54:46.182Z</time></trkpt><trkpt lat="44.7479189" lon="8.5230745"><ele>188.85714285714286</ele><time>2026-05-03T08:54:47.182Z</time></trkpt><trkpt lat="44.7478701" lon="8.5229991"><ele>189.0</ele><time>2026-05-03T08:54:48.182Z</time></trkpt><trkpt lat="44.7478187" lon="8.5229184"><ele>189.42857142857142</ele><time>2026-05-03T08:54:49.183Z</time></trkpt><trkpt lat="44.7477702" lon="8.5228412"><ele>189.85714285714286</ele><time>2026-05-03T08:54:50.183Z</time></trkpt><trkpt lat="44.7477222" lon="8.5227596"><ele>190.28571428571428</ele><time>2026-05-03T08:54:51.183Z</time></trkpt><trkpt lat="44.7476751" lon="8.5226772"><ele>190.71428571428572</ele><time>2026-05-03T08:54:52.183Z</time></trkpt><trkpt lat="44.7476304" lon="8.522603"><ele>191.14285714285714</ele><time>2026-05-03T08:54:53.183Z</time></trkpt><trkpt lat="44.7475829" lon="8.5225278"><ele>191.57142857142856</ele><time>2026-05-03T08:54:54.183Z</time></trkpt><trkpt lat="44.7475373" lon="8.5224459"><ele>192.0</ele><time>2026-05-03T08:54:55.182Z</time></trkpt><trkpt lat="44.747491" lon="8.5223702"><ele>192.0</ele><time>2026-05-03T08:54:56.182Z</time></trkpt><trkpt lat="44.7474488" lon="8.5222983"><ele>192.0</ele><time>2026-05-03T08:54:57.182Z</time></trkpt><trkpt lat="44.7474087" lon="8.5222287"><ele>192.0</ele><time>2026-05-03T08:54:58.182Z</time></trkpt><trkpt lat="44.7473356" lon="8.5221042"><ele>192.0</ele><time>2026-05-03T08:55:00.182Z</time></trkpt><trkpt lat="44.7472525" lon="8.5219624"><ele>192.0</ele><time>2026-05-03T08:55:02.182Z</time></trkpt><trkpt lat="44.7472032" lon="8.5218777"><ele>190.85714285714283</ele><time>2026-05-03T08:55:03.182Z</time></trkpt><trkpt lat="44.7471539" lon="8.5217923"><ele>189.71428571428572</ele><time>2026-05-03T08:55:04.183Z</time></trkpt><trkpt lat="44.7471055" lon="8.5217063"><ele>188.57142857142856</ele><time>2026-05-03T08:55:05.184Z</time></trkpt><trkpt lat="44.7470566" lon="8.5216219"><ele>187.42857142857142</ele><time>2026-05-03T08:55:06.183Z</time></trkpt><trkpt lat="44.7470068" lon="8.521548"><ele>186.28571428571428</ele><time>2026-05-03T08:55:07.183Z</time></trkpt><trkpt lat="44.7469619" lon="8.5214766"><ele>185.14285714285714</ele><time>2026-05-03T08:55:08.184Z</time></trkpt><trkpt lat="44.7469188" lon="8.521408"><ele>184.0</ele><time>2026-05-03T08:55:09.183Z</time></trkpt><trkpt lat="44.7468757" lon="8.5213389"><ele>182.79999999999998</ele><time>2026-05-03T08:55:10.184Z</time></trkpt><trkpt lat="44.7468019" lon="8.521212"><ele>181.6</ele><time>2026-05-03T08:55:12.183Z</time></trkpt><trkpt lat="44.7467604" lon="8.521112"><ele>180.4</ele><time>2026-05-03T08:55:14.183Z</time></trkpt><trkpt lat="44.7467094" lon="8.5212684"><ele>179.2</ele><time>2026-05-03T08:55:52.183Z</time></trkpt><trkpt lat="44.7467176" lon="8.5213947"><ele>178.0</ele><time>2026-05-03T08:55:54.184Z</time></trkpt><trkpt lat="44.7467948" lon="8.5213174"><ele>177.4</ele><time>2026-05-03T09:00:22.189Z</time></trkpt><trkpt lat="44.7468672" lon="8.5213393"><ele>176.8</ele><time>2026-05-03T09:00:24.19Z</time></trkpt><trkpt lat="44.7469242" lon="8.5214196"><ele>176.2</ele><time>2026-05-03T09:00:26.189Z</time></trkpt><trkpt lat="44.7469826" lon="8.521521"><ele>175.6</ele><time>2026-05-03T09:00:28.189Z</time></trkpt><trkpt lat="44.7470509" lon="8.5216288"><ele>175.0</ele><time>2026-05-03T09:00:30.191Z</time></trkpt><trkpt lat="44.7471213" lon="8.5217336"><ele>176.8</ele><time>2026-05-03T09:00:32.191Z</time></trkpt><trkpt lat="44.7471881" lon="8.5218512"><ele>178.6</ele><time>2026-05-03T09:00:34.19Z</time></trkpt><trkpt lat="44.7472499" lon="8.5219733"><ele>180.39999999999998</ele><time>2026-05-03T09:00:36.19Z</time></trkpt><trkpt lat="44.7473075" lon="8.5220766"><ele>182.2</ele><time>2026-05-03T09:00:38.19Z</time></trkpt><trkpt lat="44.7473376" lon="8.522181"><ele>184.0</ele><time>2026-05-03T09:00:40.19Z</time></trkpt><trkpt lat="44.7474148" lon="8.522275"><ele>183.39999999999998</ele><time>2026-05-03T09:00:42.19Z</time></trkpt><trkpt lat="44.7474933" lon="8.5223909"><ele>182.8</ele><time>2026-05-03T09:00:44.19Z</time></trkpt><trkpt lat="44.7475607" lon="8.5225139"><ele>182.2</ele><time>2026-05-03T09:00:46.19Z</time></trkpt><trkpt lat="44.7476336" lon="8.522641"><ele>181.60000000000002</ele><time>2026-05-03T09:00:48.19Z</time></trkpt><trkpt lat="44.7476963" lon="8.5227546"><ele>181.0</ele><time>2026-05-03T09:00:50.191Z</time></trkpt><trkpt lat="44.747785" lon="8.5228652"><ele>182.60000000000002</ele><time>2026-05-03T09:00:52.19Z</time></trkpt><trkpt lat="44.7478692" lon="8.5229794"><ele>184.2</ele><time>2026-05-03T09:00:54.19Z</time></trkpt><trkpt lat="44.7479409" lon="8.5230909"><ele>185.8</ele><time>2026-05-03T09:00:56.19Z</time></trkpt><trkpt lat="44.7480172" lon="8.5232097"><ele>187.39999999999998</ele><time>2026-05-03T09:00:58.191Z</time></trkpt><trkpt lat="44.7480602" lon="8.5232859"><ele>189.0</ele><time>2026-05-03T09:00:59.19Z</time></trkpt><trkpt lat="44.748106" lon="8.5233648"><ele>189.0</ele><time>2026-05-03T09:01:00.19Z</time></trkpt><trkpt lat="44.7481491" lon="8.5234427"><ele>189.0</ele><time>2026-05-03T09:01:01.19Z</time></trkpt><trkpt lat="44.7481951" lon="8.5235208"><ele>189.0</ele><time>2026-05-03T09:01:02.19Z</time></trkpt><trkpt lat="44.7482393" lon="8.5235895"><ele>189.0</ele><time>2026-05-03T09:01:03.19Z</time></trkpt><trkpt lat="44.7483124" lon="8.5237248"><ele>189.0</ele><time>2026-05-03T09:01:05.191Z</time></trkpt><trkpt lat="44.7483952" lon="8.5238271"><ele>189.0</ele><time>2026-05-03T09:01:07.191Z</time></trkpt><trkpt lat="44.7484717" lon="8.5239198"><ele>188.39999999999998</ele><time>2026-05-03T09:01:09.191Z</time></trkpt><trkpt lat="44.7485568" lon="8.5240218"><ele>187.8</ele><time>2026-05-03T09:01:11.191Z</time></trkpt><trkpt lat="44.7486243" lon="8.5241094"><ele>187.2</ele><time>2026-05-03T09:01:13.19Z</time></trkpt><trkpt lat="44.7486843" lon="8.5241916"><ele>186.60000000000002</ele><time>2026-05-03T09:01:15.19Z</time></trkpt><trkpt lat="44.7487613" lon="8.5242854"><ele>186.0</ele><time>2026-05-03T09:01:17.191Z</time></trkpt><trkpt lat="44.7488191" lon="8.5243665"><ele>186.0</ele><time>2026-05-03T09:01:19.191Z</time></trkpt><trkpt lat="44.7488551" lon="8.5244649"><ele>186.0</ele><time>2026-05-03T09:01:22.191Z</time></trkpt><trkpt lat="44.7487847" lon="8.5245854"><ele>186.0</ele><time>2026-05-03T09:01:25.191Z</time></trkpt><trkpt lat="44.7487189" lon="8.5246708"><ele>186.0</ele><time>2026-05-03T09:01:27.191Z</time></trkpt><trkpt lat="44.748649" lon="8.524787"><ele>186.0</ele><time>2026-05-03T09:01:29.192Z</time></trkpt><trkpt lat="44.7485756" lon="8.5248943"><ele>185.0</ele><time>2026-05-03T09:01:31.191Z</time></trkpt><trkpt lat="44.7485055" lon="8.5250068"><ele>184.0</ele><time>2026-05-03T09:01:33.192Z</time></trkpt><trkpt lat="44.7484145" lon="8.5250867"><ele>183.0</ele><time>2026-05-03T09:01:35.191Z</time></trkpt><trkpt lat="44.7483231" lon="8.5251319"><ele>182.0</ele><time>2026-05-03T09:01:37.191Z</time></trkpt><trkpt lat="44.7482591" lon="8.5252083"><ele>181.0</ele><time>2026-05-03T09:01:39.191Z</time></trkpt><trkpt lat="44.7482974" lon="8.5253266"><ele>179.0</ele><time>2026-05-03T09:01:42.191Z</time></trkpt><trkpt lat="44.74836" lon="8.5254268"><ele>177.0</ele><time>2026-05-03T09:01:44.191Z</time></trkpt><trkpt lat="44.7484419" lon="8.5255483"><ele>175.0</ele><time>2026-05-03T09:01:46.191Z</time></trkpt><trkpt lat="44.7485041" lon="8.5256538"><ele>173.0</ele><time>2026-05-03T09:01:48.191Z</time></trkpt><trkpt lat="44.7485809" lon="8.5257211"><ele>171.0</ele><time>2026-05-03T09:01:50.191Z</time></trkpt><trkpt lat="44.7486825" lon="8.525798"><ele>170.8</ele><time>2026-05-03T09:01:52.192Z</time></trkpt><trkpt lat="44.7487389" lon="8.5258406"><ele>170.60000000000002</ele><time>2026-05-03T09:01:53.192Z</time></trkpt><trkpt lat="44.7488509" lon="8.5258947"><ele>170.4</ele><time>2026-05-03T09:01:55.191Z</time></trkpt><trkpt lat="44.7489774" lon="8.5259592"><ele>170.2</ele><time>2026-05-03T09:01:57.191Z</time></trkpt><trkpt lat="44.7490453" lon="8.5260054"><ele>170.0</ele><time>2026-05-03T09:01:58.192Z</time></trkpt><trkpt lat="44.7491148" lon="8.5260416"><ele>170.0</ele><time>2026-05-03T09:01:59.191Z</time></trkpt><trkpt lat="44.749221" lon="8.5261067"><ele>170.0</ele><time>2026-05-03T09:02:01.191Z</time></trkpt><trkpt lat="44.7493124" lon="8.5261657"><ele>170.0</ele><time>2026-05-03T09:02:03.191Z</time></trkpt><trkpt lat="44.7493884" lon="8.5262051"><ele>170.0</ele><time>2026-05-03T09:02:05.193Z</time></trkpt><trkpt lat="44.7494453" lon="8.5262696"><ele>170.0</ele><time>2026-05-03T09:02:07.192Z</time></trkpt><trkpt lat="44.7494506" lon="8.5263588"><ele>170.0</ele><time>2026-05-03T09:02:09.192Z</time></trkpt><trkpt lat="44.7494859" lon="8.5264449"><ele>166.0</ele><time>2026-05-03T09:02:11.193Z</time></trkpt><trkpt lat="44.7495875" lon="8.5265361"><ele>162.0</ele><time>2026-05-03T09:02:13.192Z</time></trkpt><trkpt lat="44.7496848" lon="8.5266034"><ele>158.0</ele><time>2026-05-03T09:02:15.193Z</time></trkpt><trkpt lat="44.7497985" lon="8.5266598"><ele>154.0</ele><time>2026-05-03T09:02:17.193Z</time></trkpt><trkpt lat="44.7499114" lon="8.5267413"><ele>154.0</ele><time>2026-05-03T09:02:19.193Z</time></trkpt><trkpt lat="44.7499871" lon="8.5268367"><ele>154.0</ele><time>2026-05-03T09:02:21.192Z</time></trkpt><trkpt lat="44.7500475" lon="8.5269381"><ele>154.0</ele><time>2026-05-03T09:02:24.193Z</time></trkpt><trkpt lat="44.7501531" lon="8.5269681"><ele>154.0</ele><time>2026-05-03T09:02:26.193Z</time></trkpt><trkpt lat="44.7502619" lon="8.5270209"><ele>154.0</ele><time>2026-05-03T09:02:28.192Z</time></trkpt><trkpt lat="44.750342" lon="8.5269778"><ele>152.4</ele><time>2026-05-03T09:02:30.192Z</time></trkpt><trkpt lat="44.7504317" lon="8.5268661"><ele>150.8</ele><time>2026-05-03T09:02:32.192Z</time></trkpt><trkpt lat="44.7505058" lon="8.5267569"><ele>149.2</ele><time>2026-05-03T09:02:34.193Z</time></trkpt><trkpt lat="44.7505916" lon="8.5267046"><ele>147.6</ele><time>2026-05-03T09:02:37.192Z</time></trkpt><trkpt lat="44.750672" lon="8.5266289"><ele>146.0</ele><time>2026-05-03T09:02:39.192Z</time></trkpt><trkpt lat="44.7507518" lon="8.5265449"><ele>146.0</ele><time>2026-05-03T09:02:41.193Z</time></trkpt><trkpt lat="44.7508038" lon="8.5264881"><ele>146.0</ele><time>2026-05-03T09:02:42.193Z</time></trkpt><trkpt lat="44.750846" lon="8.5264157"><ele>146.0</ele><time>2026-05-03T09:02:43.193Z</time></trkpt><trkpt lat="44.7509133" lon="8.5262749"><ele>146.0</ele><time>2026-05-03T09:02:45.192Z</time></trkpt><trkpt lat="44.750997" lon="8.5261619"><ele>146.0</ele><time>2026-05-03T09:02:47.193Z</time></trkpt><trkpt lat="44.751057" lon="8.5261007"><ele>146.0</ele><time>2026-05-03T09:02:50.192Z</time></trkpt><trkpt lat="44.7511319" lon="8.5260983"><ele>145.0</ele><time>2026-05-03T09:02:52.193Z</time></trkpt><trkpt lat="44.7512024" lon="8.5261359"><ele>144.0</ele><time>2026-05-03T09:02:53.193Z</time></trkpt><trkpt lat="44.751265" lon="8.526195"><ele>143.0</ele><time>2026-05-03T09:02:54.194Z</time></trkpt><trkpt lat="44.7513332" lon="8.5262665"><ele>142.0</ele><time>2026-05-03T09:02:55.193Z</time></trkpt><trkpt lat="44.7513974" lon="8.5263353"><ele>141.0</ele><time>2026-05-03T09:02:56.194Z</time></trkpt><trkpt lat="44.751453" lon="8.5263907"><ele>140.0</ele><time>2026-05-03T09:02:57.193Z</time></trkpt><trkpt lat="44.7515096" lon="8.5264335"><ele>139.0</ele><time>2026-05-03T09:02:58.194Z</time></trkpt><trkpt lat="44.7516022" lon="8.5265067"><ele>138.8</ele><time>2026-05-03T09:03:00.193Z</time></trkpt><trkpt lat="44.751667" lon="8.5265734"><ele>138.60000000000002</ele><time>2026-05-03T09:03:02.193Z</time></trkpt><trkpt lat="44.7517401" lon="8.5265512"><ele>138.4</ele><time>2026-05-03T09:03:04.193Z</time></trkpt><trkpt lat="44.7518335" lon="8.5264417"><ele>138.20000000000002</ele><time>2026-05-03T09:03:06.193Z</time></trkpt><trkpt lat="44.7518921" lon="8.5263756"><ele>138.0</ele><time>2026-05-03T09:03:07.193Z</time></trkpt><trkpt lat="44.7519845" lon="8.5262395"><ele>137.71428571428572</ele><time>2026-05-03T09:03:09.193Z</time></trkpt><trkpt lat="44.7520271" lon="8.5261579"><ele>137.42857142857144</ele><time>2026-05-03T09:03:10.193Z</time></trkpt><trkpt lat="44.7520664" lon="8.5260645"><ele>137.14285714285714</ele><time>2026-05-03T09:03:11.193Z</time></trkpt><trkpt lat="44.7520947" lon="8.5259716"><ele>136.85714285714286</ele><time>2026-05-03T09:03:12.194Z</time></trkpt><trkpt lat="44.7521098" lon="8.5258738"><ele>136.57142857142856</ele><time>2026-05-03T09:03:13.193Z</time></trkpt><trkpt lat="44.7521181" lon="8.5257826"><ele>136.28571428571428</ele><time>2026-05-03T09:03:14.194Z</time></trkpt><trkpt lat="44.7521318" lon="8.5256919"><ele>136.0</ele><time>2026-05-03T09:03:15.193Z</time></trkpt><trkpt lat="44.7521507" lon="8.5256003"><ele>135.99999999999997</ele><time>2026-05-03T09:03:16.193Z</time></trkpt><trkpt lat="44.7521668" lon="8.5254978"><ele>136.0</ele><time>2026-05-03T09:03:17.193Z</time></trkpt><trkpt lat="44.7521846" lon="8.5253929"><ele>136.0</ele><time>2026-05-03T09:03:18.194Z</time></trkpt><trkpt lat="44.7521994" lon="8.525286"><ele>136.0</ele><time>2026-05-03T09:03:19.193Z</time></trkpt><trkpt lat="44.7522082" lon="8.525193"><ele>136.0</ele><time>2026-05-03T09:03:20.193Z</time></trkpt><trkpt lat="44.7522262" lon="8.5250954"><ele>135.99999999999997</ele><time>2026-05-03T09:03:21.194Z</time></trkpt><trkpt lat="44.7522544" lon="8.5250112"><ele>136.0</ele><time>2026-05-03T09:03:22.193Z</time></trkpt><trkpt lat="44.7522849" lon="8.5249256"><ele>136.0</ele><time>2026-05-03T09:03:23.193Z</time></trkpt><trkpt lat="44.7523161" lon="8.5248343"><ele>136.0</ele><time>2026-05-03T09:03:24.193Z</time></trkpt><trkpt lat="44.7523443" lon="8.5247329"><ele>136.0</ele><time>2026-05-03T09:03:25.193Z</time></trkpt><trkpt lat="44.7523695" lon="8.5246277"><ele>136.0</ele><time>2026-05-03T09:03:26.193Z</time></trkpt><trkpt lat="44.7523967" lon="8.524523"><ele>136.0</ele><time>2026-05-03T09:03:27.193Z</time></trkpt><trkpt lat="44.7524309" lon="8.5244161"><ele>136.0</ele><time>2026-05-03T09:03:28.193Z</time></trkpt><trkpt lat="44.7524669" lon="8.5243167"><ele>136.0</ele><time>2026-05-03T09:03:29.193Z</time></trkpt><trkpt lat="44.7524952" lon="8.5242269"><ele>136.0</ele><time>2026-05-03T09:03:30.193Z</time></trkpt><trkpt lat="44.7525429" lon="8.5240601"><ele>136.0</ele><time>2026-05-03T09:03:32.193Z</time></trkpt><trkpt lat="44.7525682" lon="8.5239725"><ele>136.0</ele><time>2026-05-03T09:03:33.193Z</time></trkpt><trkpt lat="44.7525954" lon="8.5238776"><ele>136.0</ele><time>2026-05-03T09:03:34.193Z</time></trkpt><trkpt lat="44.7526242" lon="8.5237809"><ele>136.0</ele><time>2026-05-03T09:03:35.193Z</time></trkpt><trkpt lat="44.752657" lon="8.5236814"><ele>136.16666666666669</ele><time>2026-05-03T09:03:36.194Z</time></trkpt><trkpt lat="44.7526855" lon="8.5235888"><ele>136.33333333333334</ele><time>2026-05-03T09:03:37.194Z</time></trkpt><trkpt lat="44.7527125" lon="8.5234881"><ele>136.5</ele><time>2026-05-03T09:03:38.194Z</time></trkpt><trkpt lat="44.752742" lon="8.523379"><ele>136.66666666666666</ele><time>2026-05-03T09:03:39.194Z</time></trkpt><trkpt lat="44.7527792" lon="8.5232637"><ele>136.83333333333331</ele><time>2026-05-03T09:03:40.194Z</time></trkpt><trkpt lat="44.7528169" lon="8.523153"><ele>137.0</ele><time>2026-05-03T09:03:41.194Z</time></trkpt><trkpt lat="44.7528508" lon="8.5230493"><ele>136.83333333333331</ele><time>2026-05-03T09:03:42.194Z</time></trkpt><trkpt lat="44.752884" lon="8.5229429"><ele>136.66666666666666</ele><time>2026-05-03T09:03:43.194Z</time></trkpt><trkpt lat="44.7529157" lon="8.5228402"><ele>136.5</ele><time>2026-05-03T09:03:44.194Z</time></trkpt><trkpt lat="44.7529398" lon="8.5227441"><ele>136.33333333333334</ele><time>2026-05-03T09:03:45.194Z</time></trkpt><trkpt lat="44.7529613" lon="8.5226436"><ele>136.16666666666669</ele><time>2026-05-03T09:03:46.195Z</time></trkpt><trkpt lat="44.7529749" lon="8.5225314"><ele>136.0</ele><time>2026-05-03T09:03:47.194Z</time></trkpt><trkpt lat="44.7529987" lon="8.5224378"><ele>136.0</ele><time>2026-05-03T09:03:48.195Z</time></trkpt><trkpt lat="44.7530269" lon="8.5223429"><ele>136.0</ele><time>2026-05-03T09:03:49.195Z</time></trkpt><trkpt lat="44.753062" lon="8.5222475"><ele>136.0</ele><time>2026-05-03T09:03:50.194Z</time></trkpt><trkpt lat="44.7531061" lon="8.5221554"><ele>136.0</ele><time>2026-05-03T09:03:51.194Z</time></trkpt><trkpt lat="44.7531601" lon="8.522067"><ele>136.0</ele><time>2026-05-03T09:03:52.194Z</time></trkpt><trkpt lat="44.753216" lon="8.5219885"><ele>136.0</ele><time>2026-05-03T09:03:53.194Z</time></trkpt><trkpt lat="44.7532754" lon="8.5219151"><ele>136.16666666666669</ele><time>2026-05-03T09:03:54.194Z</time></trkpt><trkpt lat="44.7533379" lon="8.5218457"><ele>136.33333333333334</ele><time>2026-05-03T09:03:55.194Z</time></trkpt><trkpt lat="44.7533983" lon="8.5217746"><ele>136.5</ele><time>2026-05-03T09:03:56.194Z</time></trkpt><trkpt lat="44.753459" lon="8.5216983"><ele>136.66666666666666</ele><time>2026-05-03T09:03:57.194Z</time></trkpt><trkpt lat="44.7535188" lon="8.521616"><ele>136.83333333333331</ele><time>2026-05-03T09:03:58.194Z</time></trkpt><trkpt lat="44.7535791" lon="8.5215333"><ele>137.0</ele><time>2026-05-03T09:03:59.194Z</time></trkpt><trkpt lat="44.7536397" lon="8.5214511"><ele>137.0</ele><time>2026-05-03T09:04:00.194Z</time></trkpt><trkpt lat="44.7537012" lon="8.5213663"><ele>137.0</ele><time>2026-05-03T09:04:01.195Z</time></trkpt><trkpt lat="44.7537632" lon="8.5212806"><ele>137.0</ele><time>2026-05-03T09:04:02.194Z</time></trkpt><trkpt lat="44.7538244" lon="8.521194"><ele>137.0</ele><time>2026-05-03T09:04:03.194Z</time></trkpt><trkpt lat="44.7538849" lon="8.5211109"><ele>137.0</ele><time>2026-05-03T09:04:04.195Z</time></trkpt><trkpt lat="44.7539442" lon="8.5210283"><ele>137.0</ele><time>2026-05-03T09:04:05.195Z</time></trkpt><trkpt lat="44.7540009" lon="8.5209416"><ele>136.83333333333331</ele><time>2026-05-03T09:04:06.194Z</time></trkpt><trkpt lat="44.7540538" lon="8.5208484"><ele>136.66666666666666</ele><time>2026-05-03T09:04:07.194Z</time></trkpt><trkpt lat="44.7541008" lon="8.5207421"><ele>136.5</ele><time>2026-05-03T09:04:08.195Z</time></trkpt><trkpt lat="44.7541421" lon="8.5206422"><ele>136.33333333333334</ele><time>2026-05-03T09:04:09.194Z</time></trkpt><trkpt lat="44.7541863" lon="8.5205466"><ele>136.16666666666669</ele><time>2026-05-03T09:04:10.194Z</time></trkpt><trkpt lat="44.7542305" lon="8.5204453"><ele>136.0</ele><time>2026-05-03T09:04:11.195Z</time></trkpt><trkpt lat="44.7542717" lon="8.5203428"><ele>136.0</ele><time>2026-05-03T09:04:12.194Z</time></trkpt><trkpt lat="44.7543132" lon="8.5202384"><ele>136.0</ele><time>2026-05-03T09:04:13.195Z</time></trkpt><trkpt lat="44.7543543" lon="8.5201364"><ele>136.0</ele><time>2026-05-03T09:04:14.194Z</time></trkpt><trkpt lat="44.7543969" lon="8.5200358"><ele>136.0</ele><time>2026-05-03T09:04:15.195Z</time></trkpt><trkpt lat="44.7544434" lon="8.5199346"><ele>136.0</ele><time>2026-05-03T09:04:16.194Z</time></trkpt><trkpt lat="44.7544879" lon="8.5198305"><ele>136.0</ele><time>2026-05-03T09:04:17.194Z</time></trkpt><trkpt lat="44.7545298" lon="8.5197167"><ele>136.16666666666669</ele><time>2026-05-03T09:04:18.194Z</time></trkpt><trkpt lat="44.7545638" lon="8.5195982"><ele>136.33333333333334</ele><time>2026-05-03T09:04:19.194Z</time></trkpt><trkpt lat="44.7545893" lon="8.5194781"><ele>136.5</ele><time>2026-05-03T09:04:20.194Z</time></trkpt><trkpt lat="44.7546084" lon="8.5193586"><ele>136.66666666666666</ele><time>2026-05-03T09:04:21.194Z</time></trkpt><trkpt lat="44.7546242" lon="8.5192416"><ele>136.83333333333331</ele><time>2026-05-03T09:04:22.194Z</time></trkpt><trkpt lat="44.7546379" lon="8.5191225"><ele>137.0</ele><time>2026-05-03T09:04:23.195Z</time></trkpt><trkpt lat="44.7546523" lon="8.5190015"><ele>137.0</ele><time>2026-05-03T09:04:24.195Z</time></trkpt><trkpt lat="44.7546658" lon="8.5188799"><ele>137.0</ele><time>2026-05-03T09:04:25.195Z</time></trkpt><trkpt lat="44.7546752" lon="8.5187579"><ele>137.0</ele><time>2026-05-03T09:04:26.196Z</time></trkpt><trkpt lat="44.7546791" lon="8.5186339"><ele>137.0</ele><time>2026-05-03T09:04:27.195Z</time></trkpt><trkpt lat="44.7546789" lon="8.5185092"><ele>137.0</ele><time>2026-05-03T09:04:28.195Z</time></trkpt><trkpt lat="44.7546743" lon="8.518383"><ele>137.0</ele><time>2026-05-03T09:04:29.195Z</time></trkpt><trkpt lat="44.7546661" lon="8.5182568"><ele>137.0</ele><time>2026-05-03T09:04:30.196Z</time></trkpt><trkpt lat="44.7546551" lon="8.5181334"><ele>137.0</ele><time>2026-05-03T09:04:31.196Z</time></trkpt><trkpt lat="44.7546411" lon="8.5180163"><ele>137.0</ele><time>2026-05-03T09:04:32.196Z</time></trkpt><trkpt lat="44.7546245" lon="8.517913"><ele>137.0</ele><time>2026-05-03T09:04:33.196Z</time></trkpt><trkpt lat="44.754599" lon="8.5177625"><ele>137.0</ele><time>2026-05-03T09:04:35.196Z</time></trkpt><trkpt lat="44.7546099" lon="8.5176449"><ele>137.0</ele><time>2026-05-03T09:04:39.195Z</time></trkpt><trkpt lat="44.7545874" lon="8.5175008"><ele>137.0</ele><time>2026-05-03T09:04:41.195Z</time></trkpt><trkpt lat="44.7545686" lon="8.5174123"><ele>137.0</ele><time>2026-05-03T09:04:42.196Z</time></trkpt><trkpt lat="44.7545447" lon="8.5173131"><ele>137.0</ele><time>2026-05-03T09:04:43.195Z</time></trkpt><trkpt lat="44.7545167" lon="8.5172138"><ele>137.0</ele><time>2026-05-03T09:04:44.196Z</time></trkpt><trkpt lat="44.7544859" lon="8.5171103"><ele>137.0</ele><time>2026-05-03T09:04:45.195Z</time></trkpt><trkpt lat="44.7544554" lon="8.517006"><ele>137.0</ele><time>2026-05-03T09:04:46.195Z</time></trkpt><trkpt lat="44.754424" lon="8.516898"><ele>137.0</ele><time>2026-05-03T09:04:47.195Z</time></trkpt><trkpt lat="44.7543937" lon="8.516785"><ele>137.0</ele><time>2026-05-03T09:04:48.195Z</time></trkpt><trkpt lat="44.754364" lon="8.5166775"><ele>137.0</ele><time>2026-05-03T09:04:49.196Z</time></trkpt><trkpt lat="44.7543357" lon="8.5165733"><ele>137.0</ele><time>2026-05-03T09:04:50.195Z</time></trkpt><trkpt lat="44.7543086" lon="8.5164688"><ele>137.0</ele><time>2026-05-03T09:04:51.196Z</time></trkpt><trkpt lat="44.7542813" lon="8.516363"><ele>137.0</ele><time>2026-05-03T09:04:52.195Z</time></trkpt><trkpt lat="44.7542543" lon="8.5162581"><ele>137.5</ele><time>2026-05-03T09:04:53.195Z</time></trkpt><trkpt lat="44.7542266" lon="8.5161555"><ele>138.0</ele><time>2026-05-03T09:04:54.195Z</time></trkpt><trkpt lat="44.7541989" lon="8.5160554"><ele>138.5</ele><time>2026-05-03T09:04:55.195Z</time></trkpt><trkpt lat="44.7541694" lon="8.515953"><ele>139.0</ele><time>2026-05-03T09:04:56.195Z</time></trkpt><trkpt lat="44.7541408" lon="8.5158491"><ele>139.5</ele><time>2026-05-03T09:04:57.196Z</time></trkpt><trkpt lat="44.7541156" lon="8.5157416"><ele>140.0</ele><time>2026-05-03T09:04:58.195Z</time></trkpt><trkpt lat="44.7540902" lon="8.5156325"><ele>140.0</ele><time>2026-05-03T09:04:59.195Z</time></trkpt><trkpt lat="44.7540624" lon="8.5155258"><ele>140.0</ele><time>2026-05-03T09:05:00.196Z</time></trkpt><trkpt lat="44.7540317" lon="8.5154187"><ele>140.0</ele><time>2026-05-03T09:05:01.196Z</time></trkpt><trkpt lat="44.7539996" lon="8.5153091"><ele>140.0</ele><time>2026-05-03T09:05:02.196Z</time></trkpt><trkpt lat="44.7539676" lon="8.5151987"><ele>140.0</ele><time>2026-05-03T09:05:03.195Z</time></trkpt><trkpt lat="44.7539371" lon="8.5150875"><ele>140.0</ele><time>2026-05-03T09:05:04.195Z</time></trkpt><trkpt lat="44.7539051" lon="8.5149734"><ele>140.33333333333331</ele><time>2026-05-03T09:05:05.195Z</time></trkpt><trkpt lat="44.753871" lon="8.5148604"><ele>140.66666666666666</ele><time>2026-05-03T09:05:06.195Z</time></trkpt><trkpt lat="44.7538365" lon="8.5147471"><ele>141.0</ele><time>2026-05-03T09:05:07.196Z</time></trkpt><trkpt lat="44.7538016" lon="8.5146275"><ele>141.33333333333334</ele><time>2026-05-03T09:05:08.195Z</time></trkpt><trkpt lat="44.7537663" lon="8.51451"><ele>141.66666666666669</ele><time>2026-05-03T09:05:09.196Z</time></trkpt><trkpt lat="44.7537294" lon="8.5143913"><ele>142.0</ele><time>2026-05-03T09:05:10.196Z</time></trkpt><trkpt lat="44.7536948" lon="8.5142776"><ele>142.16666666666669</ele><time>2026-05-03T09:05:11.196Z</time></trkpt><trkpt lat="44.7536623" lon="8.5141647"><ele>142.33333333333334</ele><time>2026-05-03T09:05:12.197Z</time></trkpt><trkpt lat="44.7536268" lon="8.5140549"><ele>142.5</ele><time>2026-05-03T09:05:13.196Z</time></trkpt><trkpt lat="44.7535925" lon="8.5139529"><ele>142.66666666666666</ele><time>2026-05-03T09:05:14.196Z</time></trkpt><trkpt lat="44.7535598" lon="8.513853"><ele>142.83333333333331</ele><time>2026-05-03T09:05:15.196Z</time></trkpt><trkpt lat="44.753528" lon="8.5137551"><ele>143.0</ele><time>2026-05-03T09:05:16.197Z</time></trkpt><trkpt lat="44.7534864" lon="8.5136515"><ele>143.66666666666666</ele><time>2026-05-03T09:05:17.196Z</time></trkpt><trkpt lat="44.7534394" lon="8.5135508"><ele>144.33333333333331</ele><time>2026-05-03T09:05:18.197Z</time></trkpt><trkpt lat="44.7533905" lon="8.5134528"><ele>145.0</ele><time>2026-05-03T09:05:19.196Z</time></trkpt><trkpt lat="44.7533399" lon="8.5133546"><ele>145.66666666666666</ele><time>2026-05-03T09:05:20.197Z</time></trkpt><trkpt lat="44.7532885" lon="8.5132575"><ele>146.33333333333334</ele><time>2026-05-03T09:05:21.196Z</time></trkpt><trkpt lat="44.7532348" lon="8.5131604"><ele>147.0</ele><time>2026-05-03T09:05:22.196Z</time></trkpt><trkpt lat="44.7531801" lon="8.5130608"><ele>147.0</ele><time>2026-05-03T09:05:23.196Z</time></trkpt><trkpt lat="44.7531243" lon="8.5129629"><ele>147.0</ele><time>2026-05-03T09:05:24.196Z</time></trkpt><trkpt lat="44.7530696" lon="8.5128639"><ele>147.0</ele><time>2026-05-03T09:05:25.196Z</time></trkpt><trkpt lat="44.753016" lon="8.512763"><ele>147.0</ele><time>2026-05-03T09:05:26.196Z</time></trkpt><trkpt lat="44.7529632" lon="8.5126628"><ele>147.0</ele><time>2026-05-03T09:05:27.196Z</time></trkpt><trkpt lat="44.7529112" lon="8.512564"><ele>147.0</ele><time>2026-05-03T09:05:28.196Z</time></trkpt><trkpt lat="44.7528572" lon="8.5124653"><ele>147.16666666666666</ele><time>2026-05-03T09:05:29.197Z</time></trkpt><trkpt lat="44.7528023" lon="8.5123669"><ele>147.33333333333334</ele><time>2026-05-03T09:05:30.196Z</time></trkpt><trkpt lat="44.7527422" lon="8.5122737"><ele>147.5</ele><time>2026-05-03T09:05:31.196Z</time></trkpt><trkpt lat="44.7526776" lon="8.5121856"><ele>147.66666666666669</ele><time>2026-05-03T09:05:32.196Z</time></trkpt><trkpt lat="44.7526113" lon="8.5121008"><ele>147.83333333333334</ele><time>2026-05-03T09:05:33.197Z</time></trkpt><trkpt lat="44.7525406" lon="8.5120226"><ele>148.0</ele><time>2026-05-03T09:05:34.196Z</time></trkpt><trkpt lat="44.7524685" lon="8.5119477"><ele>148.33333333333334</ele><time>2026-05-03T09:05:35.196Z</time></trkpt><trkpt lat="44.7524" lon="8.5118682"><ele>148.66666666666669</ele><time>2026-05-03T09:05:36.197Z</time></trkpt><trkpt lat="44.7523325" lon="8.5117816"><ele>149.0</ele><time>2026-05-03T09:05:37.196Z</time></trkpt><trkpt lat="44.752267" lon="8.5116888"><ele>149.33333333333334</ele><time>2026-05-03T09:05:38.196Z</time></trkpt><trkpt lat="44.7522073" lon="8.5115965"><ele>149.66666666666666</ele><time>2026-05-03T09:05:39.196Z</time></trkpt><trkpt lat="44.7521492" lon="8.5115045"><ele>150.0</ele><time>2026-05-03T09:05:40.197Z</time></trkpt><trkpt lat="44.7520914" lon="8.5114136"><ele>150.0</ele><time>2026-05-03T09:05:41.196Z</time></trkpt><trkpt lat="44.7520343" lon="8.5113241"><ele>150.0</ele><time>2026-05-03T09:05:42.197Z</time></trkpt><trkpt lat="44.7519771" lon="8.5112314"><ele>150.0</ele><time>2026-05-03T09:05:43.197Z</time></trkpt><trkpt lat="44.7519203" lon="8.5111414"><ele>150.0</ele><time>2026-05-03T09:05:44.196Z</time></trkpt><trkpt lat="44.7518622" lon="8.5110531"><ele>150.0</ele><time>2026-05-03T09:05:45.197Z</time></trkpt><trkpt lat="44.7518023" lon="8.510968"><ele>150.0</ele><time>2026-05-03T09:05:46.197Z</time></trkpt><trkpt lat="44.7517384" lon="8.5108848"><ele>151.16666666666666</ele><time>2026-05-03T09:05:47.197Z</time></trkpt><trkpt lat="44.7516717" lon="8.5108016"><ele>152.33333333333334</ele><time>2026-05-03T09:05:48.196Z</time></trkpt><trkpt lat="44.7516065" lon="8.5107181"><ele>153.5</ele><time>2026-05-03T09:05:49.196Z</time></trkpt><trkpt lat="44.7515375" lon="8.510631"><ele>154.66666666666669</ele><time>2026-05-03T09:05:50.197Z</time></trkpt><trkpt lat="44.7514693" lon="8.5105493"><ele>155.83333333333334</ele><time>2026-05-03T09:05:51.196Z</time></trkpt><trkpt lat="44.7513976" lon="8.5104751"><ele>157.0</ele><time>2026-05-03T09:05:52.197Z</time></trkpt><trkpt lat="44.7513214" lon="8.5104128"><ele>157.6</ele><time>2026-05-03T09:05:53.197Z</time></trkpt><trkpt lat="44.7512409" lon="8.5103539"><ele>158.2</ele><time>2026-05-03T09:05:54.196Z</time></trkpt><trkpt lat="44.7511609" lon="8.5102949"><ele>158.8</ele><time>2026-05-03T09:05:55.196Z</time></trkpt><trkpt lat="44.7510806" lon="8.5102278"><ele>159.4</ele><time>2026-05-03T09:05:56.198Z</time></trkpt><trkpt lat="44.7510012" lon="8.5101488"><ele>160.0</ele><time>2026-05-03T09:05:57.197Z</time></trkpt><trkpt lat="44.750929" lon="8.5100599"><ele>160.0</ele><time>2026-05-03T09:05:58.197Z</time></trkpt><trkpt lat="44.7508652" lon="8.5099593"><ele>160.0</ele><time>2026-05-03T09:05:59.197Z</time></trkpt><trkpt lat="44.7508063" lon="8.5098548"><ele>160.0</ele><time>2026-05-03T09:06:00.197Z</time></trkpt><trkpt lat="44.7507506" lon="8.5097447"><ele>160.0</ele><time>2026-05-03T09:06:01.198Z</time></trkpt><trkpt lat="44.7507023" lon="8.5096275"><ele>160.0</ele><time>2026-05-03T09:06:02.197Z</time></trkpt><trkpt lat="44.7506659" lon="8.5095023"><ele>159.0</ele><time>2026-05-03T09:06:03.198Z</time></trkpt><trkpt lat="44.7506396" lon="8.509371"><ele>158.0</ele><time>2026-05-03T09:06:04.197Z</time></trkpt><trkpt lat="44.7506116" lon="8.5092459"><ele>157.0</ele><time>2026-05-03T09:06:05.197Z</time></trkpt><trkpt lat="44.7505868" lon="8.5091225"><ele>156.0</ele><time>2026-05-03T09:06:06.197Z</time></trkpt><trkpt lat="44.7505603" lon="8.5089986"><ele>155.0</ele><time>2026-05-03T09:06:07.197Z</time></trkpt><trkpt lat="44.7505322" lon="8.5088757"><ele>155.0</ele><time>2026-05-03T09:06:08.198Z</time></trkpt><trkpt lat="44.7504982" lon="8.5087503"><ele>155.0</ele><time>2026-05-03T09:06:09.197Z</time></trkpt><trkpt lat="44.7504607" lon="8.5086318"><ele>155.0</ele><time>2026-05-03T09:06:10.198Z</time></trkpt><trkpt lat="44.7504202" lon="8.5085059"><ele>155.0</ele><time>2026-05-03T09:06:11.197Z</time></trkpt><trkpt lat="44.7503815" lon="8.5083829"><ele>155.0</ele><time>2026-05-03T09:06:12.197Z</time></trkpt><trkpt lat="44.7503393" lon="8.5082602"><ele>155.6</ele><time>2026-05-03T09:06:13.197Z</time></trkpt><trkpt lat="44.7502951" lon="8.5081448"><ele>156.2</ele><time>2026-05-03T09:06:14.197Z</time></trkpt><trkpt lat="44.7502441" lon="8.5080348"><ele>156.8</ele><time>2026-05-03T09:06:15.198Z</time></trkpt><trkpt lat="44.7501906" lon="8.5079271"><ele>157.4</ele><time>2026-05-03T09:06:16.197Z</time></trkpt><trkpt lat="44.7501371" lon="8.5078172"><ele>158.0</ele><time>2026-05-03T09:06:17.198Z</time></trkpt><trkpt lat="44.7500852" lon="8.5077048"><ele>158.4</ele><time>2026-05-03T09:06:18.197Z</time></trkpt><trkpt lat="44.7500363" lon="8.5075963"><ele>158.8</ele><time>2026-05-03T09:06:19.197Z</time></trkpt><trkpt lat="44.7499817" lon="8.5074906"><ele>159.2</ele><time>2026-05-03T09:06:20.198Z</time></trkpt><trkpt lat="44.7499263" lon="8.5073869"><ele>159.6</ele><time>2026-05-03T09:06:21.197Z</time></trkpt><trkpt lat="44.7498711" lon="8.5072942"><ele>160.0</ele><time>2026-05-03T09:06:22.198Z</time></trkpt><trkpt lat="44.7498144" lon="8.5071935"><ele>160.0</ele><time>2026-05-03T09:06:23.198Z</time></trkpt><trkpt lat="44.7497547" lon="8.5070986"><ele>160.0</ele><time>2026-05-03T09:06:24.197Z</time></trkpt><trkpt lat="44.7496901" lon="8.5070048"><ele>160.0</ele><time>2026-05-03T09:06:25.197Z</time></trkpt><trkpt lat="44.7496272" lon="8.5069138"><ele>160.0</ele><time>2026-05-03T09:06:26.198Z</time></trkpt><trkpt lat="44.7495592" lon="8.5068327"><ele>160.0</ele><time>2026-05-03T09:06:27.198Z</time></trkpt><trkpt lat="44.7494815" lon="8.5067534"><ele>160.0</ele><time>2026-05-03T09:06:28.197Z</time></trkpt><trkpt lat="44.7494016" lon="8.5066771"><ele>160.0</ele><time>2026-05-03T09:06:29.198Z</time></trkpt><trkpt lat="44.7493194" lon="8.5066113"><ele>160.0</ele><time>2026-05-03T09:06:30.197Z</time></trkpt><trkpt lat="44.749236" lon="8.506555"><ele>160.0</ele><time>2026-05-03T09:06:31.197Z</time></trkpt><trkpt lat="44.7491533" lon="8.506499"><ele>160.0</ele><time>2026-05-03T09:06:32.198Z</time></trkpt><trkpt lat="44.7490694" lon="8.506446"><ele>160.0</ele><time>2026-05-03T09:06:33.197Z</time></trkpt><trkpt lat="44.7489875" lon="8.5063947"><ele>160.0</ele><time>2026-05-03T09:06:34.198Z</time></trkpt><trkpt lat="44.748907" lon="8.5063392"><ele>160.0</ele><time>2026-05-03T09:06:35.197Z</time></trkpt><trkpt lat="44.7488288" lon="8.5062747"><ele>160.0</ele><time>2026-05-03T09:06:36.197Z</time></trkpt><trkpt lat="44.7487556" lon="8.5061997"><ele>160.0</ele><time>2026-05-03T09:06:37.198Z</time></trkpt><trkpt lat="44.7486905" lon="8.5061163"><ele>160.0</ele><time>2026-05-03T09:06:38.198Z</time></trkpt><trkpt lat="44.7486332" lon="8.5060199"><ele>160.33333333333334</ele><time>2026-05-03T09:06:39.197Z</time></trkpt><trkpt lat="44.7485834" lon="8.5059168"><ele>160.66666666666669</ele><time>2026-05-03T09:06:40.198Z</time></trkpt><trkpt lat="44.7485334" lon="8.5058082"><ele>161.0</ele><time>2026-05-03T09:06:41.198Z</time></trkpt><trkpt lat="44.7484806" lon="8.5057031"><ele>161.33333333333334</ele><time>2026-05-03T09:06:42.199Z</time></trkpt><trkpt lat="44.7484258" lon="8.5056053"><ele>161.66666666666666</ele><time>2026-05-03T09:06:43.198Z</time></trkpt><trkpt lat="44.7483678" lon="8.5055121"><ele>162.0</ele><time>2026-05-03T09:06:44.198Z</time></trkpt><trkpt lat="44.748307" lon="8.5054205"><ele>162.33333333333334</ele><time>2026-05-03T09:06:45.198Z</time></trkpt><trkpt lat="44.748246" lon="8.50533"><ele>162.66666666666666</ele><time>2026-05-03T09:06:46.198Z</time></trkpt><trkpt lat="44.7481856" lon="8.5052421"><ele>163.0</ele><time>2026-05-03T09:06:47.198Z</time></trkpt><trkpt lat="44.7481214" lon="8.505152"><ele>163.33333333333331</ele><time>2026-05-03T09:06:48.198Z</time></trkpt><trkpt lat="44.7480602" lon="8.5050641"><ele>163.66666666666666</ele><time>2026-05-03T09:06:49.198Z</time></trkpt><trkpt lat="44.7479965" lon="8.5049743"><ele>164.0</ele><time>2026-05-03T09:06:50.198Z</time></trkpt><trkpt lat="44.7479335" lon="8.5048898"><ele>164.0</ele><time>2026-05-03T09:06:51.199Z</time></trkpt><trkpt lat="44.7478644" lon="8.5048067"><ele>164.0</ele><time>2026-05-03T09:06:52.198Z</time></trkpt><trkpt lat="44.7477937" lon="8.5047312"><ele>164.0</ele><time>2026-05-03T09:06:53.198Z</time></trkpt><trkpt lat="44.7477161" lon="8.5046658"><ele>164.0</ele><time>2026-05-03T09:06:54.199Z</time></trkpt><trkpt lat="44.7476306" lon="8.5046189"><ele>164.0</ele><time>2026-05-03T09:06:55.198Z</time></trkpt><trkpt lat="44.7475397" lon="8.5045845"><ele>163.6</ele><time>2026-05-03T09:06:56.198Z</time></trkpt><trkpt lat="44.747448" lon="8.5045519"><ele>163.2</ele><time>2026-05-03T09:06:57.199Z</time></trkpt><trkpt lat="44.7473627" lon="8.5045017"><ele>162.79999999999998</ele><time>2026-05-03T09:06:58.199Z</time></trkpt><trkpt lat="44.7472898" lon="8.5044256"><ele>162.39999999999998</ele><time>2026-05-03T09:06:59.198Z</time></trkpt><trkpt lat="44.7472193" lon="8.5043317"><ele>162.0</ele><time>2026-05-03T09:07:00.198Z</time></trkpt><trkpt lat="44.7471649" lon="8.5042126"><ele>162.0</ele><time>2026-05-03T09:07:01.198Z</time></trkpt><trkpt lat="44.7471177" lon="8.504092"><ele>162.0</ele><time>2026-05-03T09:07:02.198Z</time></trkpt><trkpt lat="44.7470676" lon="8.5039731"><ele>162.0</ele><time>2026-05-03T09:07:03.198Z</time></trkpt><trkpt lat="44.747013" lon="8.5038632"><ele>162.0</ele><time>2026-05-03T09:07:04.198Z</time></trkpt><trkpt lat="44.7469566" lon="8.50376"><ele>162.0</ele><time>2026-05-03T09:07:05.198Z</time></trkpt><trkpt lat="44.7469007" lon="8.5036642"><ele>162.66666666666666</ele><time>2026-05-03T09:07:06.198Z</time></trkpt><trkpt lat="44.7468434" lon="8.5035722"><ele>163.33333333333334</ele><time>2026-05-03T09:07:07.198Z</time></trkpt><trkpt lat="44.7467828" lon="8.5034835"><ele>164.0</ele><time>2026-05-03T09:07:08.198Z</time></trkpt><trkpt lat="44.746722" lon="8.5033915"><ele>164.66666666666669</ele><time>2026-05-03T09:07:09.198Z</time></trkpt><trkpt lat="44.7466682" lon="8.5032987"><ele>165.33333333333334</ele><time>2026-05-03T09:07:10.199Z</time></trkpt><trkpt lat="44.7466148" lon="8.5032009"><ele>166.0</ele><time>2026-05-03T09:07:11.198Z</time></trkpt><trkpt lat="44.7465643" lon="8.5031024"><ele>166.0</ele><time>2026-05-03T09:07:12.198Z</time></trkpt><trkpt lat="44.7465186" lon="8.5030062"><ele>166.0</ele><time>2026-05-03T09:07:13.198Z</time></trkpt><trkpt lat="44.7464754" lon="8.5028987"><ele>166.0</ele><time>2026-05-03T09:07:14.198Z</time></trkpt><trkpt lat="44.7464293" lon="8.5027937"><ele>166.0</ele><time>2026-05-03T09:07:15.199Z</time></trkpt><trkpt lat="44.7463795" lon="8.5026913"><ele>166.0</ele><time>2026-05-03T09:07:16.198Z</time></trkpt><trkpt lat="44.7463274" lon="8.5025918"><ele>166.0</ele><time>2026-05-03T09:07:17.198Z</time></trkpt><trkpt lat="44.7462765" lon="8.5024942"><ele>166.0</ele><time>2026-05-03T09:07:18.198Z</time></trkpt><trkpt lat="44.7462224" lon="8.5023983"><ele>166.0</ele><time>2026-05-03T09:07:19.198Z</time></trkpt><trkpt lat="44.7461669" lon="8.5023074"><ele>166.0</ele><time>2026-05-03T09:07:20.198Z</time></trkpt><trkpt lat="44.7461112" lon="8.5022194"><ele>166.0</ele><time>2026-05-03T09:07:21.199Z</time></trkpt><trkpt lat="44.7460507" lon="8.5021234"><ele>166.0</ele><time>2026-05-03T09:07:22.198Z</time></trkpt><trkpt lat="44.7459893" lon="8.502033"><ele>166.0</ele><time>2026-05-03T09:07:23.198Z</time></trkpt><trkpt lat="44.7459341" lon="8.5019451"><ele>166.0</ele><time>2026-05-03T09:07:24.199Z</time></trkpt><trkpt lat="44.7458833" lon="8.5018462"><ele>166.0</ele><time>2026-05-03T09:07:25.198Z</time></trkpt><trkpt lat="44.7458378" lon="8.5017296"><ele>166.0</ele><time>2026-05-03T09:07:26.199Z</time></trkpt><trkpt lat="44.7457987" lon="8.5016103"><ele>166.0</ele><time>2026-05-03T09:07:27.198Z</time></trkpt><trkpt lat="44.7457643" lon="8.5014892"><ele>166.0</ele><time>2026-05-03T09:07:28.2Z</time></trkpt><trkpt lat="44.7457287" lon="8.5013782"><ele>166.0</ele><time>2026-05-03T09:07:29.2Z</time></trkpt><trkpt lat="44.7456864" lon="8.5012812"><ele>166.0</ele><time>2026-05-03T09:07:30.199Z</time></trkpt><trkpt lat="44.7456337" lon="8.5011919"><ele>166.0</ele><time>2026-05-03T09:07:31.199Z</time></trkpt><trkpt lat="44.7455723" lon="8.5011014"><ele>166.0</ele><time>2026-05-03T09:07:32.199Z</time></trkpt><trkpt lat="44.745515" lon="8.5010054"><ele>166.0</ele><time>2026-05-03T09:07:33.199Z</time></trkpt><trkpt lat="44.7454607" lon="8.5009057"><ele>166.0</ele><time>2026-05-03T09:07:34.199Z</time></trkpt><trkpt lat="44.7454087" lon="8.5008009"><ele>166.5</ele><time>2026-05-03T09:07:35.199Z</time></trkpt><trkpt lat="44.7453571" lon="8.5006974"><ele>167.0</ele><time>2026-05-03T09:07:36.199Z</time></trkpt><trkpt lat="44.7453036" lon="8.5005954"><ele>167.5</ele><time>2026-05-03T09:07:37.2Z</time></trkpt><trkpt lat="44.7452498" lon="8.5004975"><ele>168.0</ele><time>2026-05-03T09:07:38.199Z</time></trkpt><trkpt lat="44.7451966" lon="8.5003997"><ele>168.5</ele><time>2026-05-03T09:07:39.199Z</time></trkpt><trkpt lat="44.7451436" lon="8.5002977"><ele>169.0</ele><time>2026-05-03T09:07:40.2Z</time></trkpt><trkpt lat="44.7450909" lon="8.5001953"><ele>169.0</ele><time>2026-05-03T09:07:41.199Z</time></trkpt><trkpt lat="44.7450357" lon="8.500097"><ele>169.0</ele><time>2026-05-03T09:07:42.2Z</time></trkpt><trkpt lat="44.7449727" lon="8.5000076"><ele>169.0</ele><time>2026-05-03T09:07:43.199Z</time></trkpt><trkpt lat="44.7448993" lon="8.4999303"><ele>169.0</ele><time>2026-05-03T09:07:44.2Z</time></trkpt><trkpt lat="44.7448223" lon="8.4998592"><ele>169.0</ele><time>2026-05-03T09:07:45.199Z</time></trkpt><trkpt lat="44.7447428" lon="8.4997939"><ele>169.0</ele><time>2026-05-03T09:07:46.199Z</time></trkpt><trkpt lat="44.7446657" lon="8.4997255"><ele>169.0</ele><time>2026-05-03T09:07:47.199Z</time></trkpt><trkpt lat="44.7445965" lon="8.4996511"><ele>169.0</ele><time>2026-05-03T09:07:48.199Z</time></trkpt><trkpt lat="44.7445386" lon="8.4995629"><ele>169.0</ele><time>2026-05-03T09:07:49.199Z</time></trkpt><trkpt lat="44.7444784" lon="8.4994646"><ele>169.0</ele><time>2026-05-03T09:07:50.199Z</time></trkpt><trkpt lat="44.7444166" lon="8.4993651"><ele>169.0</ele><time>2026-05-03T09:07:51.2Z</time></trkpt><trkpt lat="44.7443535" lon="8.4992697"><ele>169.0</ele><time>2026-05-03T09:07:52.2Z</time></trkpt><trkpt lat="44.7442916" lon="8.4991732"><ele>169.0</ele><time>2026-05-03T09:07:53.2Z</time></trkpt><trkpt lat="44.7442307" lon="8.4990749"><ele>169.0</ele><time>2026-05-03T09:07:54.2Z</time></trkpt><trkpt lat="44.7441718" lon="8.498977"><ele>169.0</ele><time>2026-05-03T09:07:55.2Z</time></trkpt><trkpt lat="44.7441156" lon="8.4988806"><ele>169.0</ele><time>2026-05-03T09:07:56.199Z</time></trkpt><trkpt lat="44.744061" lon="8.498786"><ele>169.0</ele><time>2026-05-03T09:07:57.2Z</time></trkpt><trkpt lat="44.7440082" lon="8.4986928"><ele>169.0</ele><time>2026-05-03T09:07:58.199Z</time></trkpt><trkpt lat="44.7439582" lon="8.4985983"><ele>169.0</ele><time>2026-05-03T09:07:59.199Z</time></trkpt><trkpt lat="44.7439119" lon="8.4985004"><ele>169.0</ele><time>2026-05-03T09:08:00.2Z</time></trkpt><trkpt lat="44.7438684" lon="8.4984018"><ele>169.0</ele><time>2026-05-03T09:08:01.199Z</time></trkpt><trkpt lat="44.7438268" lon="8.4983005"><ele>170.16666666666669</ele><time>2026-05-03T09:08:02.199Z</time></trkpt><trkpt lat="44.7437878" lon="8.4982009"><ele>171.33333333333334</ele><time>2026-05-03T09:08:03.2Z</time></trkpt><trkpt lat="44.7437507" lon="8.498101"><ele>172.5</ele><time>2026-05-03T09:08:04.2Z</time></trkpt><trkpt lat="44.7437164" lon="8.4979959"><ele>173.66666666666666</ele><time>2026-05-03T09:08:05.199Z</time></trkpt><trkpt lat="44.7436861" lon="8.4978845"><ele>174.83333333333331</ele><time>2026-05-03T09:08:06.199Z</time></trkpt><trkpt lat="44.7436584" lon="8.4977651"><ele>176.0</ele><time>2026-05-03T09:08:07.2Z</time></trkpt><trkpt lat="44.7436357" lon="8.4976462"><ele>176.0</ele><time>2026-05-03T09:08:08.199Z</time></trkpt><trkpt lat="44.7436181" lon="8.4975299"><ele>176.0</ele><time>2026-05-03T09:08:09.2Z</time></trkpt><trkpt lat="44.7436024" lon="8.4974124"><ele>176.0</ele><time>2026-05-03T09:08:10.199Z</time></trkpt><trkpt lat="44.7435844" lon="8.4972934"><ele>176.0</ele><time>2026-05-03T09:08:11.2Z</time></trkpt><trkpt lat="44.7435602" lon="8.4971753"><ele>176.0</ele><time>2026-05-03T09:08:12.2Z</time></trkpt><trkpt lat="44.7435293" lon="8.4970622"><ele>176.0</ele><time>2026-05-03T09:08:13.2Z</time></trkpt><trkpt lat="44.7434913" lon="8.4969506"><ele>176.0</ele><time>2026-05-03T09:08:14.201Z</time></trkpt><trkpt lat="44.7434504" lon="8.496841"><ele>176.0</ele><time>2026-05-03T09:08:15.2Z</time></trkpt><trkpt lat="44.743407" lon="8.496733"><ele>176.0</ele><time>2026-05-03T09:08:16.2Z</time></trkpt><trkpt lat="44.7433648" lon="8.4966227"><ele>176.0</ele><time>2026-05-03T09:08:17.201Z</time></trkpt><trkpt lat="44.7433234" lon="8.496504"><ele>176.0</ele><time>2026-05-03T09:08:18.2Z</time></trkpt><trkpt lat="44.7432807" lon="8.4963844"><ele>176.0</ele><time>2026-05-03T09:08:19.201Z</time></trkpt><trkpt lat="44.7432379" lon="8.4962687"><ele>176.0</ele><time>2026-05-03T09:08:20.201Z</time></trkpt><trkpt lat="44.7432024" lon="8.4961575"><ele>176.0</ele><time>2026-05-03T09:08:21.201Z</time></trkpt><trkpt lat="44.7431716" lon="8.4960482"><ele>176.0</ele><time>2026-05-03T09:08:22.2Z</time></trkpt><trkpt lat="44.7431448" lon="8.4959323"><ele>176.0</ele><time>2026-05-03T09:08:23.201Z</time></trkpt><trkpt lat="44.7431225" lon="8.4958123"><ele>176.0</ele><time>2026-05-03T09:08:24.2Z</time></trkpt><trkpt lat="44.7431018" lon="8.4956901"><ele>177.0</ele><time>2026-05-03T09:08:25.2Z</time></trkpt><trkpt lat="44.7430847" lon="8.4955622"><ele>178.0</ele><time>2026-05-03T09:08:26.201Z</time></trkpt><trkpt lat="44.7430715" lon="8.4954299"><ele>179.0</ele><time>2026-05-03T09:08:27.2Z</time></trkpt><trkpt lat="44.7430657" lon="8.495298"><ele>180.0</ele><time>2026-05-03T09:08:28.2Z</time></trkpt><trkpt lat="44.7430647" lon="8.4951633"><ele>181.0</ele><time>2026-05-03T09:08:29.2Z</time></trkpt><trkpt lat="44.743063" lon="8.4950271"><ele>181.60000000000002</ele><time>2026-05-03T09:08:30.2Z</time></trkpt><trkpt lat="44.7430594" lon="8.4948883"><ele>182.2</ele><time>2026-05-03T09:08:31.2Z</time></trkpt><trkpt lat="44.7430574" lon="8.494755"><ele>182.8</ele><time>2026-05-03T09:08:32.2Z</time></trkpt><trkpt lat="44.7430551" lon="8.4946241"><ele>183.39999999999998</ele><time>2026-05-03T09:08:33.2Z</time></trkpt><trkpt lat="44.7430531" lon="8.4944905"><ele>184.0</ele><time>2026-05-03T09:08:34.2Z</time></trkpt><trkpt lat="44.743052" lon="8.4943606"><ele>184.0</ele><time>2026-05-03T09:08:35.2Z</time></trkpt><trkpt lat="44.7430533" lon="8.4942331"><ele>184.0</ele><time>2026-05-03T09:08:36.2Z</time></trkpt><trkpt lat="44.7430542" lon="8.4941001"><ele>184.0</ele><time>2026-05-03T09:08:37.201Z</time></trkpt><trkpt lat="44.7430546" lon="8.4939687"><ele>184.0</ele><time>2026-05-03T09:08:38.2Z</time></trkpt><trkpt lat="44.7430543" lon="8.493839"><ele>184.0</ele><time>2026-05-03T09:08:39.2Z</time></trkpt><trkpt lat="44.7430525" lon="8.4937103"><ele>183.79999999999998</ele><time>2026-05-03T09:08:40.201Z</time></trkpt><trkpt lat="44.7430466" lon="8.493579"><ele>183.6</ele><time>2026-05-03T09:08:41.2Z</time></trkpt><trkpt lat="44.7430365" lon="8.4934481"><ele>183.4</ele><time>2026-05-03T09:08:42.2Z</time></trkpt><trkpt lat="44.7430229" lon="8.4933125"><ele>183.2</ele><time>2026-05-03T09:08:43.201Z</time></trkpt><trkpt lat="44.7430079" lon="8.4931716"><ele>183.0</ele><time>2026-05-03T09:08:44.201Z</time></trkpt><trkpt lat="44.7429974" lon="8.4930323"><ele>183.2</ele><time>2026-05-03T09:08:45.2Z</time></trkpt><trkpt lat="44.7429926" lon="8.4928921"><ele>183.4</ele><time>2026-05-03T09:08:46.2Z</time></trkpt><trkpt lat="44.7429971" lon="8.4927574"><ele>183.6</ele><time>2026-05-03T09:08:47.2Z</time></trkpt><trkpt lat="44.7430117" lon="8.4926213"><ele>183.79999999999998</ele><time>2026-05-03T09:08:48.2Z</time></trkpt><trkpt lat="44.7430359" lon="8.492485"><ele>184.0</ele><time>2026-05-03T09:08:49.2Z</time></trkpt><trkpt lat="44.7430635" lon="8.4923502"><ele>184.0</ele><time>2026-05-03T09:08:50.2Z</time></trkpt><trkpt lat="44.743089" lon="8.4922178"><ele>184.0</ele><time>2026-05-03T09:08:51.2Z</time></trkpt><trkpt lat="44.7431107" lon="8.4920862"><ele>184.0</ele><time>2026-05-03T09:08:52.2Z</time></trkpt><trkpt lat="44.74313" lon="8.4919538"><ele>184.0</ele><time>2026-05-03T09:08:53.202Z</time></trkpt><trkpt lat="44.7431491" lon="8.4918213"><ele>184.0</ele><time>2026-05-03T09:08:54.2Z</time></trkpt><trkpt lat="44.7431672" lon="8.4916858"><ele>183.79999999999998</ele><time>2026-05-03T09:08:55.2Z</time></trkpt><trkpt lat="44.7431854" lon="8.491552"><ele>183.6</ele><time>2026-05-03T09:08:56.2Z</time></trkpt><trkpt lat="44.7432046" lon="8.4914207"><ele>183.4</ele><time>2026-05-03T09:08:57.201Z</time></trkpt><trkpt lat="44.7432218" lon="8.4912879"><ele>183.2</ele><time>2026-05-03T09:08:58.201Z</time></trkpt><trkpt lat="44.7432345" lon="8.4911552"><ele>183.0</ele><time>2026-05-03T09:08:59.201Z</time></trkpt><trkpt lat="44.7432449" lon="8.4910198"><ele>183.0</ele><time>2026-05-03T09:09:00.201Z</time></trkpt><trkpt lat="44.7432497" lon="8.4908897"><ele>183.0</ele><time>2026-05-03T09:09:01.202Z</time></trkpt><trkpt lat="44.7432479" lon="8.4907592"><ele>183.0</ele><time>2026-05-03T09:09:02.201Z</time></trkpt><trkpt lat="44.7432405" lon="8.4906278"><ele>183.0</ele><time>2026-05-03T09:09:03.202Z</time></trkpt><trkpt lat="44.7432256" lon="8.4904941"><ele>183.0</ele><time>2026-05-03T09:09:04.202Z</time></trkpt><trkpt lat="44.7432036" lon="8.4903606"><ele>183.60000000000002</ele><time>2026-05-03T09:09:05.202Z</time></trkpt><trkpt lat="44.7431766" lon="8.4902286"><ele>184.20000000000002</ele><time>2026-05-03T09:09:06.201Z</time></trkpt><trkpt lat="44.7431441" lon="8.490105"><ele>184.8</ele><time>2026-05-03T09:09:07.201Z</time></trkpt><trkpt lat="44.7431059" lon="8.489982"><ele>185.4</ele><time>2026-05-03T09:09:08.202Z</time></trkpt><trkpt lat="44.7430616" lon="8.4898569"><ele>186.0</ele><time>2026-05-03T09:09:09.201Z</time></trkpt><trkpt lat="44.7430159" lon="8.4897411"><ele>186.0</ele><time>2026-05-03T09:09:10.202Z</time></trkpt><trkpt lat="44.742967" lon="8.4896309"><ele>186.0</ele><time>2026-05-03T09:09:11.201Z</time></trkpt><trkpt lat="44.7429174" lon="8.4895109"><ele>186.0</ele><time>2026-05-03T09:09:12.201Z</time></trkpt><trkpt lat="44.7428692" lon="8.4893798"><ele>186.0</ele><time>2026-05-03T09:09:13.203Z</time></trkpt><trkpt lat="44.742825" lon="8.4892466"><ele>186.0</ele><time>2026-05-03T09:09:14.201Z</time></trkpt><trkpt lat="44.7427859" lon="8.4891186"><ele>186.20000000000002</ele><time>2026-05-03T09:09:15.202Z</time></trkpt><trkpt lat="44.7427509" lon="8.4889921"><ele>186.4</ele><time>2026-05-03T09:09:16.201Z</time></trkpt><trkpt lat="44.7427176" lon="8.4888674"><ele>186.6</ele><time>2026-05-03T09:09:17.202Z</time></trkpt><trkpt lat="44.7426848" lon="8.4887429"><ele>186.8</ele><time>2026-05-03T09:09:18.201Z</time></trkpt><trkpt lat="44.7426512" lon="8.488619"><ele>187.0</ele><time>2026-05-03T09:09:19.201Z</time></trkpt><trkpt lat="44.7426168" lon="8.4884961"><ele>186.39999999999998</ele><time>2026-05-03T09:09:20.201Z</time></trkpt><trkpt lat="44.7425805" lon="8.4883733"><ele>185.79999999999998</ele><time>2026-05-03T09:09:21.202Z</time></trkpt><trkpt lat="44.7425409" lon="8.4882522"><ele>185.2</ele><time>2026-05-03T09:09:22.201Z</time></trkpt><trkpt lat="44.7425008" lon="8.4881324"><ele>184.6</ele><time>2026-05-03T09:09:23.201Z</time></trkpt><trkpt lat="44.7424625" lon="8.4880129"><ele>184.0</ele><time>2026-05-03T09:09:24.201Z</time></trkpt><trkpt lat="44.7424257" lon="8.4878975"><ele>185.33333333333334</ele><time>2026-05-03T09:09:25.202Z</time></trkpt><trkpt lat="44.7423904" lon="8.4877877"><ele>186.66666666666669</ele><time>2026-05-03T09:09:26.201Z</time></trkpt><trkpt lat="44.7423571" lon="8.4876839"><ele>188.0</ele><time>2026-05-03T09:09:27.201Z</time></trkpt><trkpt lat="44.7423264" lon="8.4875818"><ele>189.33333333333334</ele><time>2026-05-03T09:09:28.202Z</time></trkpt><trkpt lat="44.7422997" lon="8.4874786"><ele>190.66666666666666</ele><time>2026-05-03T09:09:29.202Z</time></trkpt><trkpt lat="44.7422779" lon="8.4873766"><ele>192.0</ele><time>2026-05-03T09:09:30.201Z</time></trkpt><trkpt lat="44.7422598" lon="8.4872754"><ele>192.0</ele><time>2026-05-03T09:09:31.202Z</time></trkpt><trkpt lat="44.742248" lon="8.4871803"><ele>192.0</ele><time>2026-05-03T09:09:32.202Z</time></trkpt><trkpt lat="44.7422371" lon="8.487089"><ele>192.0</ele><time>2026-05-03T09:09:33.201Z</time></trkpt><trkpt lat="44.7422248" lon="8.4869925"><ele>192.0</ele><time>2026-05-03T09:09:34.201Z</time></trkpt><trkpt lat="44.742212" lon="8.4868964"><ele>192.0</ele><time>2026-05-03T09:09:35.201Z</time></trkpt><trkpt lat="44.7422024" lon="8.4868072"><ele>192.0</ele><time>2026-05-03T09:09:36.201Z</time></trkpt><trkpt lat="44.7421724" lon="8.4866306"><ele>192.85714285714283</ele><time>2026-05-03T09:09:38.201Z</time></trkpt><trkpt lat="44.7421565" lon="8.4865347"><ele>193.71428571428572</ele><time>2026-05-03T09:09:39.201Z</time></trkpt><trkpt lat="44.7421402" lon="8.4864344"><ele>194.57142857142856</ele><time>2026-05-03T09:09:40.201Z</time></trkpt><trkpt lat="44.7421252" lon="8.4863358"><ele>195.42857142857142</ele><time>2026-05-03T09:09:41.201Z</time></trkpt><trkpt lat="44.7421126" lon="8.4862387"><ele>196.28571428571428</ele><time>2026-05-03T09:09:42.202Z</time></trkpt><trkpt lat="44.7421014" lon="8.4861396"><ele>197.14285714285714</ele><time>2026-05-03T09:09:43.202Z</time></trkpt><trkpt lat="44.7420906" lon="8.4860376"><ele>198.0</ele><time>2026-05-03T09:09:44.203Z</time></trkpt><trkpt lat="44.7420811" lon="8.4859336"><ele>198.83333333333334</ele><time>2026-05-03T09:09:45.203Z</time></trkpt><trkpt lat="44.7420743" lon="8.4858252"><ele>199.66666666666669</ele><time>2026-05-03T09:09:46.202Z</time></trkpt><trkpt lat="44.7420658" lon="8.4857168"><ele>200.5</ele><time>2026-05-03T09:09:47.202Z</time></trkpt><trkpt lat="44.7420626" lon="8.4856032"><ele>201.33333333333334</ele><time>2026-05-03T09:09:48.202Z</time></trkpt><trkpt lat="44.7420581" lon="8.4854883"><ele>202.16666666666669</ele><time>2026-05-03T09:09:49.202Z</time></trkpt><trkpt lat="44.7420532" lon="8.4853683"><ele>203.0</ele><time>2026-05-03T09:09:50.202Z</time></trkpt><trkpt lat="44.7420478" lon="8.4852466"><ele>203.83333333333334</ele><time>2026-05-03T09:09:51.202Z</time></trkpt><trkpt lat="44.7420423" lon="8.4851253"><ele>204.66666666666669</ele><time>2026-05-03T09:09:52.202Z</time></trkpt><trkpt lat="44.7420372" lon="8.485005"><ele>205.5</ele><time>2026-05-03T09:09:53.202Z</time></trkpt><trkpt lat="44.7420324" lon="8.4848854"><ele>206.33333333333331</ele><time>2026-05-03T09:09:54.202Z</time></trkpt><trkpt lat="44.7420224" lon="8.4847639"><ele>207.16666666666666</ele><time>2026-05-03T09:09:55.202Z</time></trkpt><trkpt lat="44.7420001" lon="8.4846481"><ele>208.0</ele><time>2026-05-03T09:09:56.202Z</time></trkpt><trkpt lat="44.7419636" lon="8.4845435"><ele>208.83333333333331</ele><time>2026-05-03T09:09:57.203Z</time></trkpt><trkpt lat="44.7419098" lon="8.4844516"><ele>209.66666666666666</ele><time>2026-05-03T09:09:58.202Z</time></trkpt><trkpt lat="44.7418477" lon="8.4843688"><ele>210.5</ele><time>2026-05-03T09:09:59.202Z</time></trkpt><trkpt lat="44.7417854" lon="8.4842888"><ele>211.33333333333331</ele><time>2026-05-03T09:10:00.202Z</time></trkpt><trkpt lat="44.7417299" lon="8.4842027"><ele>212.16666666666666</ele><time>2026-05-03T09:10:01.202Z</time></trkpt><trkpt lat="44.7416877" lon="8.4841028"><ele>213.0</ele><time>2026-05-03T09:10:02.202Z</time></trkpt><trkpt lat="44.741656" lon="8.4839987"><ele>212.33333333333334</ele><time>2026-05-03T09:10:03.202Z</time></trkpt><trkpt lat="44.7416304" lon="8.483888"><ele>211.66666666666669</ele><time>2026-05-03T09:10:04.202Z</time></trkpt><trkpt lat="44.7416031" lon="8.4837751"><ele>211.0</ele><time>2026-05-03T09:10:05.203Z</time></trkpt><trkpt lat="44.7415777" lon="8.4836612"><ele>210.33333333333334</ele><time>2026-05-03T09:10:06.203Z</time></trkpt><trkpt lat="44.7415546" lon="8.4835593"><ele>209.66666666666669</ele><time>2026-05-03T09:10:07.202Z</time></trkpt><trkpt lat="44.7415317" lon="8.4834675"><ele>209.0</ele><time>2026-05-03T09:10:08.202Z</time></trkpt><trkpt lat="44.7414876" lon="8.4833198"><ele>209.0</ele><time>2026-05-03T09:10:10.202Z</time></trkpt><trkpt lat="44.7414435" lon="8.4831642"><ele>209.0</ele><time>2026-05-03T09:10:12.203Z</time></trkpt><trkpt lat="44.7413976" lon="8.4830045"><ele>209.0</ele><time>2026-05-03T09:10:14.202Z</time></trkpt><trkpt lat="44.7413556" lon="8.4828553"><ele>209.0</ele><time>2026-05-03T09:10:16.202Z</time></trkpt><trkpt lat="44.7413084" lon="8.4826917"><ele>209.71428571428572</ele><time>2026-05-03T09:10:18.202Z</time></trkpt><trkpt lat="44.7412853" lon="8.4826053"><ele>210.42857142857142</ele><time>2026-05-03T09:10:19.202Z</time></trkpt><trkpt lat="44.7412621" lon="8.4825199"><ele>211.14285714285717</ele><time>2026-05-03T09:10:20.202Z</time></trkpt><trkpt lat="44.741237" lon="8.4824364"><ele>211.85714285714286</ele><time>2026-05-03T09:10:21.202Z</time></trkpt><trkpt lat="44.7412101" lon="8.4823548"><ele>212.57142857142858</ele><time>2026-05-03T09:10:22.202Z</time></trkpt><trkpt lat="44.7411821" lon="8.4822729"><ele>213.2857142857143</ele><time>2026-05-03T09:10:23.202Z</time></trkpt><trkpt lat="44.7411227" lon="8.482119"><ele>214.0</ele><time>2026-05-03T09:10:25.202Z</time></trkpt><trkpt lat="44.7410485" lon="8.4819764"><ele>214.00000000000003</ele><time>2026-05-03T09:10:27.203Z</time></trkpt><trkpt lat="44.7410066" lon="8.4819062"><ele>214.0</ele><time>2026-05-03T09:10:28.203Z</time></trkpt><trkpt lat="44.7409631" lon="8.4818366"><ele>214.0</ele><time>2026-05-03T09:10:29.204Z</time></trkpt><trkpt lat="44.7409187" lon="8.4817735"><ele>214.0</ele><time>2026-05-03T09:10:30.203Z</time></trkpt><trkpt lat="44.7408706" lon="8.4817129"><ele>214.0</ele><time>2026-05-03T09:10:31.204Z</time></trkpt><trkpt lat="44.7408178" lon="8.4816521"><ele>214.00000000000003</ele><time>2026-05-03T09:10:32.203Z</time></trkpt><trkpt lat="44.7407636" lon="8.4815892"><ele>214.0</ele><time>2026-05-03T09:10:33.203Z</time></trkpt><trkpt lat="44.7407109" lon="8.4815219"><ele>214.00000000000003</ele><time>2026-05-03T09:10:34.203Z</time></trkpt><trkpt lat="44.7406597" lon="8.4814528"><ele>214.0</ele><time>2026-05-03T09:10:35.204Z</time></trkpt><trkpt lat="44.7406112" lon="8.4813822"><ele>214.0</ele><time>2026-05-03T09:10:36.203Z</time></trkpt><trkpt lat="44.7405653" lon="8.4813091"><ele>214.0</ele><time>2026-05-03T09:10:37.203Z</time></trkpt><trkpt lat="44.740524" lon="8.4812328"><ele>214.0</ele><time>2026-05-03T09:10:38.204Z</time></trkpt><trkpt lat="44.7404863" lon="8.4811511"><ele>214.00000000000003</ele><time>2026-05-03T09:10:39.204Z</time></trkpt><trkpt lat="44.7404519" lon="8.4810651"><ele>214.0</ele><time>2026-05-03T09:10:40.204Z</time></trkpt><trkpt lat="44.7404231" lon="8.4809807"><ele>215.2857142857143</ele><time>2026-05-03T09:10:41.204Z</time></trkpt><trkpt lat="44.740395" lon="8.4808971"><ele>216.57142857142858</ele><time>2026-05-03T09:10:42.204Z</time></trkpt><trkpt lat="44.7403646" lon="8.4808147"><ele>217.85714285714286</ele><time>2026-05-03T09:10:43.204Z</time></trkpt><trkpt lat="44.7403323" lon="8.4807303"><ele>219.14285714285717</ele><time>2026-05-03T09:10:44.204Z</time></trkpt><trkpt lat="44.7402977" lon="8.4806453"><ele>220.42857142857142</ele><time>2026-05-03T09:10:45.203Z</time></trkpt><trkpt lat="44.7402608" lon="8.4805606"><ele>221.71428571428572</ele><time>2026-05-03T09:10:46.203Z</time></trkpt><trkpt lat="44.7402171" lon="8.4804796"><ele>223.0</ele><time>2026-05-03T09:10:47.203Z</time></trkpt><trkpt lat="44.7401724" lon="8.4804009"><ele>223.16666666666666</ele><time>2026-05-03T09:10:48.203Z</time></trkpt><trkpt lat="44.7401253" lon="8.4803172"><ele>223.33333333333331</ele><time>2026-05-03T09:10:49.203Z</time></trkpt><trkpt lat="44.7400802" lon="8.4802271"><ele>223.5</ele><time>2026-05-03T09:10:50.204Z</time></trkpt><trkpt lat="44.7400369" lon="8.4801367"><ele>223.66666666666669</ele><time>2026-05-03T09:10:51.203Z</time></trkpt><trkpt lat="44.7399929" lon="8.480049"><ele>223.83333333333334</ele><time>2026-05-03T09:10:52.203Z</time></trkpt><trkpt lat="44.7399481" lon="8.4799636"><ele>224.0</ele><time>2026-05-03T09:10:53.203Z</time></trkpt><trkpt lat="44.7399024" lon="8.4798795"><ele>224.0</ele><time>2026-05-03T09:10:54.203Z</time></trkpt><trkpt lat="44.7398595" lon="8.4797959"><ele>224.0</ele><time>2026-05-03T09:10:55.204Z</time></trkpt><trkpt lat="44.7398188" lon="8.4797053"><ele>224.0</ele><time>2026-05-03T09:10:56.204Z</time></trkpt><trkpt lat="44.7397857" lon="8.4796108"><ele>224.0</ele><time>2026-05-03T09:10:57.204Z</time></trkpt><trkpt lat="44.7397591" lon="8.4795128"><ele>224.0</ele><time>2026-05-03T09:10:58.204Z</time></trkpt><trkpt lat="44.7397402" lon="8.4794114"><ele>224.0</ele><time>2026-05-03T09:10:59.203Z</time></trkpt><trkpt lat="44.7397283" lon="8.4793097"><ele>224.0</ele><time>2026-05-03T09:11:00.203Z</time></trkpt><trkpt lat="44.7397256" lon="8.4792097"><ele>224.28571428571428</ele><time>2026-05-03T09:11:01.204Z</time></trkpt><trkpt lat="44.7397373" lon="8.47911"><ele>224.57142857142856</ele><time>2026-05-03T09:11:02.203Z</time></trkpt><trkpt lat="44.7397446" lon="8.4790095"><ele>224.85714285714286</ele><time>2026-05-03T09:11:03.204Z</time></trkpt><trkpt lat="44.7397374" lon="8.4789162"><ele>225.14285714285714</ele><time>2026-05-03T09:11:04.203Z</time></trkpt><trkpt lat="44.7397142" lon="8.4788295"><ele>225.42857142857142</ele><time>2026-05-03T09:11:05.204Z</time></trkpt><trkpt lat="44.7396765" lon="8.4787494"><ele>225.71428571428572</ele><time>2026-05-03T09:11:06.203Z</time></trkpt><trkpt lat="44.7396234" lon="8.4786785"><ele>226.0</ele><time>2026-05-03T09:11:07.204Z</time></trkpt><trkpt lat="44.7395644" lon="8.4786222"><ele>225.0</ele><time>2026-05-03T09:11:08.204Z</time></trkpt><trkpt lat="44.7395029" lon="8.4785782"><ele>224.0</ele><time>2026-05-03T09:11:09.205Z</time></trkpt><trkpt lat="44.7394395" lon="8.4785371"><ele>223.0</ele><time>2026-05-03T09:11:10.203Z</time></trkpt><trkpt lat="44.7393784" lon="8.4784957"><ele>222.0</ele><time>2026-05-03T09:11:11.203Z</time></trkpt><trkpt lat="44.7393189" lon="8.478451"><ele>221.0</ele><time>2026-05-03T09:11:12.204Z</time></trkpt><trkpt lat="44.7392587" lon="8.478405"><ele>220.0</ele><time>2026-05-03T09:11:13.204Z</time></trkpt><trkpt lat="44.7391985" lon="8.4783602"><ele>219.0</ele><time>2026-05-03T09:11:14.205Z</time></trkpt><trkpt lat="44.739136" lon="8.478317"><ele>221.14285714285717</ele><time>2026-05-03T09:11:15.204Z</time></trkpt><trkpt lat="44.7390737" lon="8.4782762"><ele>223.28571428571428</ele><time>2026-05-03T09:11:16.205Z</time></trkpt><trkpt lat="44.7390112" lon="8.4782345"><ele>225.42857142857144</ele><time>2026-05-03T09:11:17.204Z</time></trkpt><trkpt lat="44.7389472" lon="8.4781957"><ele>227.57142857142858</ele><time>2026-05-03T09:11:18.205Z</time></trkpt><trkpt lat="44.7388812" lon="8.478166"><ele>229.71428571428572</ele><time>2026-05-03T09:11:19.205Z</time></trkpt><trkpt lat="44.7388112" lon="8.4781511"><ele>231.85714285714286</ele><time>2026-05-03T09:11:20.204Z</time></trkpt><trkpt lat="44.7387414" lon="8.4781459"><ele>234.0</ele><time>2026-05-03T09:11:21.204Z</time></trkpt><trkpt lat="44.7386706" lon="8.4781427"><ele>234.0</ele><time>2026-05-03T09:11:22.204Z</time></trkpt><trkpt lat="44.7385996" lon="8.4781349"><ele>234.00000000000003</ele><time>2026-05-03T09:11:23.204Z</time></trkpt><trkpt lat="44.7385268" lon="8.4781246"><ele>234.0</ele><time>2026-05-03T09:11:24.204Z</time></trkpt><trkpt lat="44.7384593" lon="8.4781181"><ele>234.0</ele><time>2026-05-03T09:11:25.205Z</time></trkpt><trkpt lat="44.7383911" lon="8.4781137"><ele>234.00000000000003</ele><time>2026-05-03T09:11:26.204Z</time></trkpt><trkpt lat="44.7383221" lon="8.4781081"><ele>234.0</ele><time>2026-05-03T09:11:27.204Z</time></trkpt><trkpt lat="44.7382579" lon="8.4781009"><ele>234.0</ele><time>2026-05-03T09:11:28.204Z</time></trkpt><trkpt lat="44.73814" lon="8.4780846"><ele>235.6</ele><time>2026-05-03T09:11:30.205Z</time></trkpt><trkpt lat="44.7380209" lon="8.4780687"><ele>237.2</ele><time>2026-05-03T09:11:32.204Z</time></trkpt><trkpt lat="44.7378982" lon="8.4780547"><ele>238.79999999999998</ele><time>2026-05-03T09:11:34.205Z</time></trkpt><trkpt lat="44.7378353" lon="8.4780446"><ele>240.39999999999998</ele><time>2026-05-03T09:11:35.204Z</time></trkpt><trkpt lat="44.7377125" lon="8.4780264"><ele>242.0</ele><time>2026-05-03T09:11:37.204Z</time></trkpt><trkpt lat="44.7376494" lon="8.4780262"><ele>243.57142857142856</ele><time>2026-05-03T09:11:38.204Z</time></trkpt><trkpt lat="44.7375858" lon="8.4780209"><ele>245.1428571428571</ele><time>2026-05-03T09:11:39.204Z</time></trkpt><trkpt lat="44.7375207" lon="8.4780131"><ele>246.71428571428572</ele><time>2026-05-03T09:11:40.205Z</time></trkpt><trkpt lat="44.7374533" lon="8.4780042"><ele>248.28571428571428</ele><time>2026-05-03T09:11:41.205Z</time></trkpt><trkpt lat="44.7373857" lon="8.4779942"><ele>249.85714285714286</ele><time>2026-05-03T09:11:42.205Z</time></trkpt><trkpt lat="44.7373209" lon="8.4779832"><ele>251.42857142857144</ele><time>2026-05-03T09:11:43.204Z</time></trkpt><trkpt lat="44.7372567" lon="8.4779737"><ele>253.00000000000003</ele><time>2026-05-03T09:11:44.205Z</time></trkpt><trkpt lat="44.7371314" lon="8.4779598"><ele>253.00000000000003</ele><time>2026-05-03T09:11:46.204Z</time></trkpt><trkpt lat="44.7370682" lon="8.4779523"><ele>253.0</ele><time>2026-05-03T09:11:47.205Z</time></trkpt><trkpt lat="44.7370045" lon="8.4779465"><ele>253.00000000000003</ele><time>2026-05-03T09:11:48.204Z</time></trkpt><trkpt lat="44.7369401" lon="8.4779441"><ele>253.00000000000003</ele><time>2026-05-03T09:11:49.204Z</time></trkpt><trkpt lat="44.736817" lon="8.4779499"><ele>253.0</ele><time>2026-05-03T09:11:51.204Z</time></trkpt><trkpt lat="44.736753" lon="8.4779588"><ele>253.00000000000003</ele><time>2026-05-03T09:11:52.205Z</time></trkpt><trkpt lat="44.7366878" lon="8.4779636"><ele>253.00000000000003</ele><time>2026-05-03T09:11:53.204Z</time></trkpt><trkpt lat="44.7366205" lon="8.4779677"><ele>254.0</ele><time>2026-05-03T09:11:54.204Z</time></trkpt><trkpt lat="44.7365565" lon="8.4779745"><ele>255.0</ele><time>2026-05-03T09:11:55.205Z</time></trkpt><trkpt lat="44.7364353" lon="8.4780141"><ele>256.0</ele><time>2026-05-03T09:11:57.206Z</time></trkpt><trkpt lat="44.7363197" lon="8.4780807"><ele>257.0</ele><time>2026-05-03T09:11:59.205Z</time></trkpt><trkpt lat="44.7362086" lon="8.4781461"><ele>258.0</ele><time>2026-05-03T09:12:01.205Z</time></trkpt><trkpt lat="44.7360968" lon="8.4782147"><ele>258.6</ele><time>2026-05-03T09:12:03.206Z</time></trkpt><trkpt lat="44.7359909" lon="8.4782824"><ele>259.20000000000005</ele><time>2026-05-03T09:12:05.205Z</time></trkpt><trkpt lat="44.735875" lon="8.4783235"><ele>259.8</ele><time>2026-05-03T09:12:07.206Z</time></trkpt><trkpt lat="44.7357562" lon="8.4782899"><ele>260.40000000000003</ele><time>2026-05-03T09:12:09.205Z</time></trkpt><trkpt lat="44.7357003" lon="8.4782393"><ele>261.0</ele><time>2026-05-03T09:12:10.205Z</time></trkpt><trkpt lat="44.7356487" lon="8.4781811"><ele>261.0</ele><time>2026-05-03T09:12:11.206Z</time></trkpt><trkpt lat="44.7356015" lon="8.4781207"><ele>261.0</ele><time>2026-05-03T09:12:12.206Z</time></trkpt><trkpt lat="44.7355069" lon="8.4780049"><ele>261.0</ele><time>2026-05-03T09:12:14.206Z</time></trkpt><trkpt lat="44.7354579" lon="8.4779465"><ele>261.0</ele><time>2026-05-03T09:12:15.205Z</time></trkpt><trkpt lat="44.7353636" lon="8.4778313"><ele>261.0</ele><time>2026-05-03T09:12:17.205Z</time></trkpt><trkpt lat="44.7353142" lon="8.4777713"><ele>261.0</ele><time>2026-05-03T09:12:18.205Z</time></trkpt><trkpt lat="44.7352714" lon="8.4777033"><ele>261.14285714285717</ele><time>2026-05-03T09:12:19.205Z</time></trkpt><trkpt lat="44.7352408" lon="8.4776221"><ele>261.2857142857143</ele><time>2026-05-03T09:12:20.205Z</time></trkpt><trkpt lat="44.7352247" lon="8.4775313"><ele>261.42857142857144</ele><time>2026-05-03T09:12:21.205Z</time></trkpt><trkpt lat="44.7352164" lon="8.4774383"><ele>261.57142857142856</ele><time>2026-05-03T09:12:22.206Z</time></trkpt><trkpt lat="44.7352107" lon="8.4773453"><ele>261.7142857142857</ele><time>2026-05-03T09:12:23.206Z</time></trkpt><trkpt lat="44.7352048" lon="8.4772544"><ele>261.8571428571429</ele><time>2026-05-03T09:12:24.206Z</time></trkpt><trkpt lat="44.7351978" lon="8.4771627"><ele>262.0</ele><time>2026-05-03T09:12:25.205Z</time></trkpt><trkpt lat="44.7351945" lon="8.4770705"><ele>264.42857142857144</ele><time>2026-05-03T09:12:26.205Z</time></trkpt><trkpt lat="44.7351949" lon="8.4769776"><ele>266.8571428571429</ele><time>2026-05-03T09:12:27.206Z</time></trkpt><trkpt lat="44.7351958" lon="8.4768854"><ele>269.2857142857143</ele><time>2026-05-03T09:12:28.206Z</time></trkpt><trkpt lat="44.7351964" lon="8.476794"><ele>271.7142857142857</ele><time>2026-05-03T09:12:29.206Z</time></trkpt><trkpt lat="44.7351966" lon="8.4767036"><ele>274.1428571428571</ele><time>2026-05-03T09:12:30.205Z</time></trkpt><trkpt lat="44.735197" lon="8.4766116"><ele>276.57142857142856</ele><time>2026-05-03T09:12:31.205Z</time></trkpt><trkpt lat="44.7351982" lon="8.4765196"><ele>279.0</ele><time>2026-05-03T09:12:32.205Z</time></trkpt><trkpt lat="44.7351994" lon="8.476427"><ele>279.0</ele><time>2026-05-03T09:12:33.205Z</time></trkpt><trkpt lat="44.7352012" lon="8.4763365"><ele>279.0</ele><time>2026-05-03T09:12:34.205Z</time></trkpt><trkpt lat="44.7352011" lon="8.4762462"><ele>279.0</ele><time>2026-05-03T09:12:35.205Z</time></trkpt><trkpt lat="44.7351966" lon="8.476071"><ele>279.0</ele><time>2026-05-03T09:12:37.205Z</time></trkpt><trkpt lat="44.7351939" lon="8.4759789"><ele>279.0</ele><time>2026-05-03T09:12:38.205Z</time></trkpt><trkpt lat="44.7351905" lon="8.4758861"><ele>279.0</ele><time>2026-05-03T09:12:39.205Z</time></trkpt><trkpt lat="44.7351858" lon="8.4757932"><ele>280.0</ele><time>2026-05-03T09:12:40.205Z</time></trkpt><trkpt lat="44.7351706" lon="8.4756159"><ele>281.0</ele><time>2026-05-03T09:12:42.206Z</time></trkpt><trkpt lat="44.7351619" lon="8.4755245"><ele>282.0</ele><time>2026-05-03T09:12:43.206Z</time></trkpt><trkpt lat="44.7351527" lon="8.475428"><ele>283.0</ele><time>2026-05-03T09:12:44.206Z</time></trkpt><trkpt lat="44.735138" lon="8.4753367"><ele>284.0</ele><time>2026-05-03T09:12:45.206Z</time></trkpt><trkpt lat="44.7351241" lon="8.4752377"><ele>285.0</ele><time>2026-05-03T09:12:46.206Z</time></trkpt><trkpt lat="44.7351067" lon="8.4751442"><ele>285.7142857142857</ele><time>2026-05-03T09:12:47.207Z</time></trkpt><trkpt lat="44.7350892" lon="8.4750502"><ele>286.42857142857144</ele><time>2026-05-03T09:12:48.206Z</time></trkpt><trkpt lat="44.7350717" lon="8.4749549"><ele>287.14285714285717</ele><time>2026-05-03T09:12:49.206Z</time></trkpt><trkpt lat="44.7350566" lon="8.4748575"><ele>287.8571428571429</ele><time>2026-05-03T09:12:50.207Z</time></trkpt><trkpt lat="44.7350474" lon="8.4747604"><ele>288.5714285714286</ele><time>2026-05-03T09:12:51.207Z</time></trkpt><trkpt lat="44.7350459" lon="8.4746613"><ele>289.2857142857143</ele><time>2026-05-03T09:12:52.207Z</time></trkpt><trkpt lat="44.7350532" lon="8.4745603"><ele>290.0</ele><time>2026-05-03T09:12:53.206Z</time></trkpt><trkpt lat="44.7350671" lon="8.4744589"><ele>290.83333333333337</ele><time>2026-05-03T09:12:54.207Z</time></trkpt><trkpt lat="44.7350814" lon="8.4743559"><ele>291.6666666666667</ele><time>2026-05-03T09:12:55.206Z</time></trkpt><trkpt lat="44.7350951" lon="8.4742513"><ele>292.5</ele><time>2026-05-03T09:12:56.206Z</time></trkpt><trkpt lat="44.7351097" lon="8.4741483"><ele>293.3333333333333</ele><time>2026-05-03T09:12:57.206Z</time></trkpt><trkpt lat="44.7351242" lon="8.4740437"><ele>294.16666666666663</ele><time>2026-05-03T09:12:58.206Z</time></trkpt><trkpt lat="44.7351375" lon="8.47394"><ele>295.0</ele><time>2026-05-03T09:12:59.206Z</time></trkpt><trkpt lat="44.7351487" lon="8.4738325"><ele>295.3333333333333</ele><time>2026-05-03T09:13:00.206Z</time></trkpt><trkpt lat="44.7351551" lon="8.473722"><ele>295.66666666666663</ele><time>2026-05-03T09:13:01.206Z</time></trkpt><trkpt lat="44.7351522" lon="8.4736139"><ele>296.0</ele><time>2026-05-03T09:13:02.206Z</time></trkpt><trkpt lat="44.735141" lon="8.473505"><ele>296.3333333333333</ele><time>2026-05-03T09:13:03.206Z</time></trkpt><trkpt lat="44.7351214" lon="8.4733951"><ele>296.6666666666667</ele><time>2026-05-03T09:13:04.206Z</time></trkpt><trkpt lat="44.7350978" lon="8.473287"><ele>297.0</ele><time>2026-05-03T09:13:05.206Z</time></trkpt><trkpt lat="44.7350737" lon="8.4731703"><ele>297.0</ele><time>2026-05-03T09:13:06.207Z</time></trkpt><trkpt lat="44.7350545" lon="8.4730559"><ele>297.0</ele><time>2026-05-03T09:13:07.206Z</time></trkpt><trkpt lat="44.7350382" lon="8.472937"><ele>297.0</ele><time>2026-05-03T09:13:08.207Z</time></trkpt><trkpt lat="44.7350231" lon="8.4728167"><ele>297.0</ele><time>2026-05-03T09:13:09.206Z</time></trkpt><trkpt lat="44.735007" lon="8.4726992"><ele>297.0</ele><time>2026-05-03T09:13:10.206Z</time></trkpt><trkpt lat="44.7349925" lon="8.4725848"><ele>297.0</ele><time>2026-05-03T09:13:11.207Z</time></trkpt><trkpt lat="44.7349855" lon="8.4724765"><ele>296.8333333333333</ele><time>2026-05-03T09:13:12.206Z</time></trkpt><trkpt lat="44.7349841" lon="8.4723741"><ele>296.6666666666667</ele><time>2026-05-03T09:13:13.207Z</time></trkpt><trkpt lat="44.7349895" lon="8.4722667"><ele>296.5</ele><time>2026-05-03T09:13:14.206Z</time></trkpt><trkpt lat="44.7349936" lon="8.4721658"><ele>296.33333333333337</ele><time>2026-05-03T09:13:15.207Z</time></trkpt><trkpt lat="44.7349964" lon="8.4720607"><ele>296.1666666666667</ele><time>2026-05-03T09:13:16.207Z</time></trkpt><trkpt lat="44.7349951" lon="8.4719622"><ele>296.0</ele><time>2026-05-03T09:13:17.206Z</time></trkpt><trkpt lat="44.7349811" lon="8.4717963"><ele>296.0</ele><time>2026-05-03T09:13:19.206Z</time></trkpt><trkpt lat="44.7349223" lon="8.4716609"><ele>296.0</ele><time>2026-05-03T09:13:21.206Z</time></trkpt><trkpt lat="44.7348093" lon="8.471606"><ele>296.0</ele><time>2026-05-03T09:13:23.207Z</time></trkpt><trkpt lat="44.7346887" lon="8.4716657"><ele>296.0</ele><time>2026-05-03T09:13:25.206Z</time></trkpt><trkpt lat="44.7346313" lon="8.4717326"><ele>296.0</ele><time>2026-05-03T09:13:26.206Z</time></trkpt><trkpt lat="44.7345717" lon="8.471795"><ele>296.0</ele><time>2026-05-03T09:13:27.207Z</time></trkpt><trkpt lat="44.7345106" lon="8.4718488"><ele>296.0</ele><time>2026-05-03T09:13:28.207Z</time></trkpt><trkpt lat="44.7344465" lon="8.4719022"><ele>296.0</ele><time>2026-05-03T09:13:29.207Z</time></trkpt><trkpt lat="44.7343827" lon="8.4719559"><ele>296.0</ele><time>2026-05-03T09:13:30.207Z</time></trkpt><trkpt lat="44.7343195" lon="8.4720047"><ele>296.0</ele><time>2026-05-03T09:13:31.207Z</time></trkpt><trkpt lat="44.7342092" lon="8.4720633"><ele>296.0</ele><time>2026-05-03T09:13:33.207Z</time></trkpt><trkpt lat="44.7340959" lon="8.472062"><ele>297.2</ele><time>2026-05-03T09:13:35.207Z</time></trkpt><trkpt lat="44.73398" lon="8.4720083"><ele>298.40000000000003</ele><time>2026-05-03T09:13:37.208Z</time></trkpt><trkpt lat="44.7339214" lon="8.4719545"><ele>299.6</ele><time>2026-05-03T09:13:38.207Z</time></trkpt><trkpt lat="44.7338758" lon="8.4718855"><ele>300.8</ele><time>2026-05-03T09:13:39.208Z</time></trkpt><trkpt lat="44.7338348" lon="8.4718072"><ele>302.0</ele><time>2026-05-03T09:13:40.207Z</time></trkpt><trkpt lat="44.7337471" lon="8.4716885"><ele>302.0</ele><time>2026-05-03T09:13:42.207Z</time></trkpt><trkpt lat="44.7336522" lon="8.4715939"><ele>302.0</ele><time>2026-05-03T09:13:44.208Z</time></trkpt><trkpt lat="44.733584" lon="8.4715077"><ele>302.0</ele><time>2026-05-03T09:13:46.208Z</time></trkpt><trkpt lat="44.7335455" lon="8.4714284"><ele>302.0</ele><time>2026-05-03T09:13:48.207Z</time></trkpt><trkpt lat="44.733525" lon="8.4713194"><ele>302.0</ele><time>2026-05-03T09:13:50.208Z</time></trkpt><trkpt lat="44.7335386" lon="8.4711648"><ele>303.1666666666667</ele><time>2026-05-03T09:13:52.208Z</time></trkpt><trkpt lat="44.7335631" lon="8.4710822"><ele>304.33333333333337</ele><time>2026-05-03T09:13:53.207Z</time></trkpt><trkpt lat="44.7335836" lon="8.4709126"><ele>305.5</ele><time>2026-05-03T09:13:55.207Z</time></trkpt><trkpt lat="44.7335809" lon="8.4707476"><ele>306.6666666666667</ele><time>2026-05-03T09:13:57.207Z</time></trkpt><trkpt lat="44.7335611" lon="8.470661"><ele>307.8333333333333</ele><time>2026-05-03T09:13:58.207Z</time></trkpt><trkpt lat="44.7335347" lon="8.470578"><ele>309.0</ele><time>2026-05-03T09:13:59.207Z</time></trkpt><trkpt lat="44.7334963" lon="8.4704972"><ele>309.0</ele><time>2026-05-03T09:14:00.207Z</time></trkpt><trkpt lat="44.733448" lon="8.4704351"><ele>309.0</ele><time>2026-05-03T09:14:01.208Z</time></trkpt><trkpt lat="44.733382" lon="8.4704106"><ele>309.0</ele><time>2026-05-03T09:14:02.207Z</time></trkpt><trkpt lat="44.7332737" lon="8.4704236"><ele>309.0</ele><time>2026-05-03T09:14:04.208Z</time></trkpt><trkpt lat="44.7331843" lon="8.4704392"><ele>309.0</ele><time>2026-05-03T09:14:06.207Z</time></trkpt><trkpt lat="44.7330594" lon="8.4704572"><ele>309.0</ele><time>2026-05-03T09:14:08.208Z</time></trkpt><trkpt lat="44.7329864" lon="8.4704614"><ele>309.0</ele><time>2026-05-03T09:14:09.208Z</time></trkpt><trkpt lat="44.7328589" lon="8.470457"><ele>309.0</ele><time>2026-05-03T09:14:11.208Z</time></trkpt><trkpt lat="44.7327971" lon="8.47044"><ele>309.0</ele><time>2026-05-03T09:14:12.208Z</time></trkpt><trkpt lat="44.7327321" lon="8.4704275"><ele>309.0</ele><time>2026-05-03T09:14:13.209Z</time></trkpt><trkpt lat="44.7326681" lon="8.4704159"><ele>309.0</ele><time>2026-05-03T09:14:14.208Z</time></trkpt><trkpt lat="44.7326023" lon="8.4704072"><ele>307.14285714285717</ele><time>2026-05-03T09:14:15.209Z</time></trkpt><trkpt lat="44.7325327" lon="8.4703995"><ele>305.2857142857143</ele><time>2026-05-03T09:14:16.208Z</time></trkpt><trkpt lat="44.732473" lon="8.4703643"><ele>303.42857142857144</ele><time>2026-05-03T09:14:17.208Z</time></trkpt><trkpt lat="44.7324091" lon="8.4703247"><ele>301.57142857142856</ele><time>2026-05-03T09:14:18.208Z</time></trkpt><trkpt lat="44.7323506" lon="8.4702685"><ele>299.7142857142857</ele><time>2026-05-03T09:14:19.208Z</time></trkpt><trkpt lat="44.7323001" lon="8.4701869"><ele>297.8571428571429</ele><time>2026-05-03T09:14:20.208Z</time></trkpt><trkpt lat="44.7322614" lon="8.4701064"><ele>296.0</ele><time>2026-05-03T09:14:21.208Z</time></trkpt><trkpt lat="44.7322308" lon="8.4699425"><ele>296.0</ele><time>2026-05-03T09:14:23.209Z</time></trkpt><trkpt lat="44.7322412" lon="8.4697817"><ele>296.0</ele><time>2026-05-03T09:14:25.208Z</time></trkpt><trkpt lat="44.7322703" lon="8.4696348"><ele>296.0</ele><time>2026-05-03T09:14:27.208Z</time></trkpt><trkpt lat="44.7323352" lon="8.4695064"><ele>296.0</ele><time>2026-05-03T09:14:29.209Z</time></trkpt><trkpt lat="44.7324146" lon="8.4694141"><ele>296.0</ele><time>2026-05-03T09:14:31.208Z</time></trkpt><trkpt lat="44.7325176" lon="8.4693771"><ele>295.2</ele><time>2026-05-03T09:14:33.208Z</time></trkpt><trkpt lat="44.7325796" lon="8.4693555"><ele>294.40000000000003</ele><time>2026-05-03T09:14:34.208Z</time></trkpt><trkpt lat="44.7327055" lon="8.469341"><ele>293.6</ele><time>2026-05-03T09:14:36.208Z</time></trkpt><trkpt lat="44.7328289" lon="8.4693406"><ele>292.8</ele><time>2026-05-03T09:14:38.208Z</time></trkpt><trkpt lat="44.7328969" lon="8.4693637"><ele>292.0</ele><time>2026-05-03T09:14:39.208Z</time></trkpt><trkpt lat="44.7329725" lon="8.4693961"><ele>290.8</ele><time>2026-05-03T09:14:41.208Z</time></trkpt><trkpt lat="44.732996" lon="8.4692987"><ele>289.6</ele><time>2026-05-03T09:16:13.21Z</time></trkpt><trkpt lat="44.7329776" lon="8.4691645"><ele>288.40000000000003</ele><time>2026-05-03T09:16:15.211Z</time></trkpt><trkpt lat="44.7329542" lon="8.469034"><ele>287.2</ele><time>2026-05-03T09:16:17.21Z</time></trkpt><trkpt lat="44.7329473" lon="8.4688936"><ele>286.0</ele><time>2026-05-03T09:16:19.21Z</time></trkpt><trkpt lat="44.732955" lon="8.468743"><ele>283.8333333333333</ele><time>2026-05-03T09:16:21.21Z</time></trkpt><trkpt lat="44.7329628" lon="8.4686549"><ele>281.66666666666663</ele><time>2026-05-03T09:16:22.21Z</time></trkpt><trkpt lat="44.7329749" lon="8.468478"><ele>279.5</ele><time>2026-05-03T09:16:24.21Z</time></trkpt><trkpt lat="44.7329708" lon="8.4683854"><ele>277.3333333333333</ele><time>2026-05-03T09:16:25.21Z</time></trkpt><trkpt lat="44.732973" lon="8.4682847"><ele>275.1666666666667</ele><time>2026-05-03T09:16:26.211Z</time></trkpt><trkpt lat="44.732981" lon="8.4681819"><ele>273.0</ele><time>2026-05-03T09:16:27.211Z</time></trkpt><trkpt lat="44.7329903" lon="8.4680891"><ele>273.0</ele><time>2026-05-03T09:16:28.212Z</time></trkpt><trkpt lat="44.7329906" lon="8.4679456"><ele>273.0</ele><time>2026-05-03T09:16:30.211Z</time></trkpt><trkpt lat="44.7330116" lon="8.4678234"><ele>273.0</ele><time>2026-05-03T09:16:32.211Z</time></trkpt><trkpt lat="44.7330923" lon="8.4678239"><ele>273.0</ele><time>2026-05-03T09:16:34.212Z</time></trkpt><trkpt lat="44.7331996" lon="8.467898"><ele>273.0</ele><time>2026-05-03T09:16:36.212Z</time></trkpt><trkpt lat="44.7332583" lon="8.4679484"><ele>273.0</ele><time>2026-05-03T09:16:37.211Z</time></trkpt><trkpt lat="44.7333175" lon="8.4680074"><ele>273.0</ele><time>2026-05-03T09:16:38.212Z</time></trkpt><trkpt lat="44.7333759" lon="8.4680851"><ele>273.0</ele><time>2026-05-03T09:16:39.212Z</time></trkpt><trkpt lat="44.7334397" lon="8.4681476"><ele>273.0</ele><time>2026-05-03T09:16:40.211Z</time></trkpt><trkpt lat="44.7334931" lon="8.4682081"><ele>273.0</ele><time>2026-05-03T09:16:41.211Z</time></trkpt><trkpt lat="44.7335494" lon="8.4682609"><ele>273.0</ele><time>2026-05-03T09:16:42.211Z</time></trkpt><trkpt lat="44.7336284" lon="8.4683638"><ele>270.8</ele><time>2026-05-03T09:16:44.211Z</time></trkpt><trkpt lat="44.7336966" lon="8.4684882"><ele>268.6</ele><time>2026-05-03T09:16:46.211Z</time></trkpt><trkpt lat="44.7337412" lon="8.4685805"><ele>266.4</ele><time>2026-05-03T09:16:48.211Z</time></trkpt><trkpt lat="44.7337741" lon="8.4686589"><ele>264.2</ele><time>2026-05-03T09:16:52.211Z</time></trkpt><trkpt lat="44.7338404" lon="8.468578"><ele>262.0</ele><time>2026-05-03T09:17:09.212Z</time></trkpt><trkpt lat="44.7339318" lon="8.4684727"><ele>262.0</ele><time>2026-05-03T09:17:11.211Z</time></trkpt><trkpt lat="44.7339919" lon="8.4684139"><ele>262.0</ele><time>2026-05-03T09:17:12.212Z</time></trkpt><trkpt lat="44.7340523" lon="8.4683661"><ele>262.0</ele><time>2026-05-03T09:17:13.212Z</time></trkpt><trkpt lat="44.734166" lon="8.46832"><ele>262.0</ele><time>2026-05-03T09:17:15.212Z</time></trkpt><trkpt lat="44.7342742" lon="8.4683226"><ele>262.0</ele><time>2026-05-03T09:17:17.213Z</time></trkpt><trkpt lat="44.7343796" lon="8.4683444"><ele>259.6</ele><time>2026-05-03T09:17:19.212Z</time></trkpt><trkpt lat="44.7344897" lon="8.4683844"><ele>257.2</ele><time>2026-05-03T09:17:21.213Z</time></trkpt><trkpt lat="44.7346238" lon="8.4684371"><ele>254.8</ele><time>2026-05-03T09:17:23.212Z</time></trkpt><trkpt lat="44.7346966" lon="8.4684656"><ele>252.4</ele><time>2026-05-03T09:17:24.213Z</time></trkpt><trkpt lat="44.7347556" lon="8.4684969"><ele>250.0</ele><time>2026-05-03T09:17:25.213Z</time></trkpt><trkpt lat="44.7348347" lon="8.4685643"><ele>250.0</ele><time>2026-05-03T09:17:27.213Z</time></trkpt><trkpt lat="44.7349111" lon="8.4686513"><ele>250.0</ele><time>2026-05-03T09:17:29.212Z</time></trkpt><trkpt lat="44.7350404" lon="8.4686611"><ele>250.0</ele><time>2026-05-03T09:17:31.212Z</time></trkpt><trkpt lat="44.7351152" lon="8.4686458"><ele>250.0</ele><time>2026-05-03T09:17:32.212Z</time></trkpt><trkpt lat="44.7351867" lon="8.4686159"><ele>250.0</ele><time>2026-05-03T09:17:33.212Z</time></trkpt><trkpt lat="44.7352687" lon="8.4685973"><ele>248.33333333333331</ele><time>2026-05-03T09:17:34.213Z</time></trkpt><trkpt lat="44.7353567" lon="8.4685838"><ele>246.66666666666666</ele><time>2026-05-03T09:17:35.212Z</time></trkpt><trkpt lat="44.7354394" lon="8.4685752"><ele>245.0</ele><time>2026-05-03T09:17:36.212Z</time></trkpt><trkpt lat="44.7355163" lon="8.4685775"><ele>243.33333333333331</ele><time>2026-05-03T09:17:37.212Z</time></trkpt><trkpt lat="44.7355888" lon="8.4686025"><ele>241.66666666666666</ele><time>2026-05-03T09:17:38.213Z</time></trkpt><trkpt lat="44.7356609" lon="8.4686341"><ele>240.0</ele><time>2026-05-03T09:17:39.212Z</time></trkpt><trkpt lat="44.7357331" lon="8.4686729"><ele>240.0</ele><time>2026-05-03T09:17:40.212Z</time></trkpt><trkpt lat="44.7358046" lon="8.4687112"><ele>240.0</ele><time>2026-05-03T09:17:41.212Z</time></trkpt><trkpt lat="44.735879" lon="8.4687392"><ele>240.0</ele><time>2026-05-03T09:17:42.213Z</time></trkpt><trkpt lat="44.7359436" lon="8.468764"><ele>240.0</ele><time>2026-05-03T09:17:43.213Z</time></trkpt><trkpt lat="44.7360469" lon="8.4687937"><ele>240.0</ele><time>2026-05-03T09:17:45.212Z</time></trkpt><trkpt lat="44.7361388" lon="8.4688027"><ele>240.0</ele><time>2026-05-03T09:17:47.213Z</time></trkpt><trkpt lat="44.7362584" lon="8.4688306"><ele>239.57142857142858</ele><time>2026-05-03T09:17:49.212Z</time></trkpt><trkpt lat="44.7363246" lon="8.4688586"><ele>239.1428571428571</ele><time>2026-05-03T09:17:50.212Z</time></trkpt><trkpt lat="44.736389" lon="8.4688981"><ele>238.7142857142857</ele><time>2026-05-03T09:17:51.212Z</time></trkpt><trkpt lat="44.736453" lon="8.4689521"><ele>238.28571428571428</ele><time>2026-05-03T09:17:52.212Z</time></trkpt><trkpt lat="44.7365142" lon="8.4690188"><ele>237.85714285714283</ele><time>2026-05-03T09:17:53.213Z</time></trkpt><trkpt lat="44.7365704" lon="8.469093"><ele>237.4285714285714</ele><time>2026-05-03T09:17:54.212Z</time></trkpt><trkpt lat="44.7366309" lon="8.4691624"><ele>236.99999999999997</ele><time>2026-05-03T09:17:55.212Z</time></trkpt><trkpt lat="44.7366913" lon="8.4692275"><ele>237.0</ele><time>2026-05-03T09:17:56.212Z</time></trkpt><trkpt lat="44.7367507" lon="8.4692897"><ele>237.0</ele><time>2026-05-03T09:17:57.213Z</time></trkpt><trkpt lat="44.7368015" lon="8.4693458"><ele>237.0</ele><time>2026-05-03T09:17:58.212Z</time></trkpt><trkpt lat="44.7368842" lon="8.4694318"><ele>237.0</ele><time>2026-05-03T09:18:00.213Z</time></trkpt><trkpt lat="44.7369907" lon="8.4695116"><ele>237.0</ele><time>2026-05-03T09:18:02.213Z</time></trkpt><trkpt lat="44.7370553" lon="8.4695627"><ele>237.0</ele><time>2026-05-03T09:18:03.213Z</time></trkpt><trkpt lat="44.7371587" lon="8.4696644"><ele>238.0</ele><time>2026-05-03T09:18:05.214Z</time></trkpt><trkpt lat="44.7372054" lon="8.4697258"><ele>239.0</ele><time>2026-05-03T09:18:06.213Z</time></trkpt><trkpt lat="44.7372519" lon="8.4697956"><ele>240.0</ele><time>2026-05-03T09:18:07.213Z</time></trkpt><trkpt lat="44.7372966" lon="8.4698733"><ele>241.0</ele><time>2026-05-03T09:18:08.214Z</time></trkpt><trkpt lat="44.7373413" lon="8.469939"><ele>242.0</ele><time>2026-05-03T09:18:09.214Z</time></trkpt><trkpt lat="44.7373976" lon="8.4699951"><ele>243.0</ele><time>2026-05-03T09:18:10.213Z</time></trkpt><trkpt lat="44.7375092" lon="8.4700838"><ele>243.0</ele><time>2026-05-03T09:18:12.213Z</time></trkpt><trkpt lat="44.7376332" lon="8.4701413"><ele>243.0</ele><time>2026-05-03T09:18:14.213Z</time></trkpt><trkpt lat="44.7377002" lon="8.4701745"><ele>243.0</ele><time>2026-05-03T09:18:15.213Z</time></trkpt><trkpt lat="44.7377644" lon="8.470206"><ele>243.0</ele><time>2026-05-03T09:18:16.213Z</time></trkpt><trkpt lat="44.7378286" lon="8.4702289"><ele>243.0</ele><time>2026-05-03T09:18:17.214Z</time></trkpt><trkpt lat="44.7378926" lon="8.470244"><ele>243.0</ele><time>2026-05-03T09:18:18.214Z</time></trkpt><trkpt lat="44.7380181" lon="8.4702223"><ele>243.42857142857142</ele><time>2026-05-03T09:18:20.213Z</time></trkpt><trkpt lat="44.7380799" lon="8.470183"><ele>243.8571428571429</ele><time>2026-05-03T09:18:21.213Z</time></trkpt><trkpt lat="44.7381376" lon="8.4701314"><ele>244.2857142857143</ele><time>2026-05-03T09:18:22.213Z</time></trkpt><trkpt lat="44.7381939" lon="8.4700741"><ele>244.71428571428572</ele><time>2026-05-03T09:18:23.214Z</time></trkpt><trkpt lat="44.7382507" lon="8.4700189"><ele>245.14285714285717</ele><time>2026-05-03T09:18:24.213Z</time></trkpt><trkpt lat="44.738308" lon="8.4699648"><ele>245.5714285714286</ele><time>2026-05-03T09:18:25.213Z</time></trkpt><trkpt lat="44.7383653" lon="8.4699111"><ele>246.00000000000003</ele><time>2026-05-03T09:18:26.213Z</time></trkpt><trkpt lat="44.738424" lon="8.4698614"><ele>246.00000000000003</ele><time>2026-05-03T09:18:27.214Z</time></trkpt><trkpt lat="44.7384842" lon="8.4698156"><ele>246.0</ele><time>2026-05-03T09:18:28.213Z</time></trkpt><trkpt lat="44.7385416" lon="8.4697696"><ele>246.00000000000003</ele><time>2026-05-03T09:18:29.213Z</time></trkpt><trkpt lat="44.738599" lon="8.4697217"><ele>246.00000000000003</ele><time>2026-05-03T09:18:30.213Z</time></trkpt><trkpt lat="44.7386548" lon="8.4696728"><ele>246.0</ele><time>2026-05-03T09:18:31.214Z</time></trkpt><trkpt lat="44.7387105" lon="8.4696224"><ele>246.00000000000003</ele><time>2026-05-03T09:18:32.213Z</time></trkpt><trkpt lat="44.738765" lon="8.4695734"><ele>246.00000000000003</ele><time>2026-05-03T09:18:33.213Z</time></trkpt><trkpt lat="44.7388203" lon="8.4695299"><ele>247.28571428571433</ele><time>2026-05-03T09:18:34.214Z</time></trkpt><trkpt lat="44.738879" lon="8.4694959"><ele>248.57142857142858</ele><time>2026-05-03T09:18:35.213Z</time></trkpt><trkpt lat="44.7389433" lon="8.4694746"><ele>249.8571428571429</ele><time>2026-05-03T09:18:36.213Z</time></trkpt><trkpt lat="44.7390083" lon="8.4694723"><ele>251.14285714285717</ele><time>2026-05-03T09:18:37.213Z</time></trkpt><trkpt lat="44.7390746" lon="8.469491"><ele>252.42857142857144</ele><time>2026-05-03T09:18:38.213Z</time></trkpt><trkpt lat="44.7391411" lon="8.4695245"><ele>253.71428571428572</ele><time>2026-05-03T09:18:39.213Z</time></trkpt><trkpt lat="44.7392045" lon="8.4695672"><ele>255.0</ele><time>2026-05-03T09:18:40.213Z</time></trkpt><trkpt lat="44.7392634" lon="8.4696194"><ele>255.0</ele><time>2026-05-03T09:18:41.213Z</time></trkpt><trkpt lat="44.7393173" lon="8.469682"><ele>255.00000000000003</ele><time>2026-05-03T09:18:42.213Z</time></trkpt><trkpt lat="44.7393642" lon="8.4697561"><ele>255.0</ele><time>2026-05-03T09:18:43.213Z</time></trkpt><trkpt lat="44.7394032" lon="8.469836"><ele>255.0</ele><time>2026-05-03T09:18:44.214Z</time></trkpt><trkpt lat="44.7394373" lon="8.4699221"><ele>255.00000000000003</ele><time>2026-05-03T09:18:45.214Z</time></trkpt><trkpt lat="44.7394678" lon="8.470015"><ele>255.0</ele><time>2026-05-03T09:18:46.214Z</time></trkpt><trkpt lat="44.7394939" lon="8.4701066"><ele>255.0</ele><time>2026-05-03T09:18:47.214Z</time></trkpt><trkpt lat="44.7395176" lon="8.4701932"><ele>255.85714285714286</ele><time>2026-05-03T09:18:48.214Z</time></trkpt><trkpt lat="44.739543" lon="8.470279"><ele>256.7142857142857</ele><time>2026-05-03T09:18:49.215Z</time></trkpt><trkpt lat="44.7395738" lon="8.4703564"><ele>257.57142857142856</ele><time>2026-05-03T09:18:50.214Z</time></trkpt><trkpt lat="44.7396095" lon="8.4704447"><ele>258.42857142857144</ele><time>2026-05-03T09:18:51.214Z</time></trkpt><trkpt lat="44.7396504" lon="8.4705276"><ele>259.2857142857143</ele><time>2026-05-03T09:18:52.215Z</time></trkpt><trkpt lat="44.7396972" lon="8.4706027"><ele>260.14285714285717</ele><time>2026-05-03T09:18:53.214Z</time></trkpt><trkpt lat="44.739753" lon="8.4706658"><ele>261.0</ele><time>2026-05-03T09:18:54.215Z</time></trkpt><trkpt lat="44.7398154" lon="8.4707207"><ele>261.0</ele><time>2026-05-03T09:18:55.215Z</time></trkpt><trkpt lat="44.7398814" lon="8.4707632"><ele>261.0</ele><time>2026-05-03T09:18:56.215Z</time></trkpt><trkpt lat="44.7399503" lon="8.4707914"><ele>261.0</ele><time>2026-05-03T09:18:57.214Z</time></trkpt><trkpt lat="44.7400245" lon="8.4707964"><ele>261.0</ele><time>2026-05-03T09:18:58.215Z</time></trkpt><trkpt lat="44.7400982" lon="8.4707708"><ele>261.0</ele><time>2026-05-03T09:18:59.215Z</time></trkpt><trkpt lat="44.7401688" lon="8.4707157"><ele>261.0</ele><time>2026-05-03T09:19:00.214Z</time></trkpt><trkpt lat="44.7402321" lon="8.4706419"><ele>260.5</ele><time>2026-05-03T09:19:01.214Z</time></trkpt><trkpt lat="44.7402905" lon="8.470561"><ele>260.0</ele><time>2026-05-03T09:19:02.214Z</time></trkpt><trkpt lat="44.7403451" lon="8.4704775"><ele>259.5</ele><time>2026-05-03T09:19:03.215Z</time></trkpt><trkpt lat="44.7404014" lon="8.4703906"><ele>259.0</ele><time>2026-05-03T09:19:04.214Z</time></trkpt><trkpt lat="44.7404578" lon="8.4703108"><ele>258.5</ele><time>2026-05-03T09:19:05.214Z</time></trkpt><trkpt lat="44.7405118" lon="8.47024"><ele>258.0</ele><time>2026-05-03T09:19:06.215Z</time></trkpt><trkpt lat="44.7405637" lon="8.4701755"><ele>259.85714285714283</ele><time>2026-05-03T09:19:07.215Z</time></trkpt><trkpt lat="44.7406171" lon="8.4701069"><ele>261.7142857142857</ele><time>2026-05-03T09:19:08.214Z</time></trkpt><trkpt lat="44.7406702" lon="8.4700351"><ele>263.57142857142856</ele><time>2026-05-03T09:19:09.215Z</time></trkpt><trkpt lat="44.74072" lon="8.4699585"><ele>265.42857142857144</ele><time>2026-05-03T09:19:10.214Z</time></trkpt><trkpt lat="44.7407678" lon="8.4698812"><ele>267.2857142857143</ele><time>2026-05-03T09:19:11.214Z</time></trkpt><trkpt lat="44.7408129" lon="8.4698048"><ele>269.1428571428571</ele><time>2026-05-03T09:19:12.215Z</time></trkpt><trkpt lat="44.7408531" lon="8.4697264"><ele>271.0</ele><time>2026-05-03T09:19:13.214Z</time></trkpt><trkpt lat="44.7408863" lon="8.4696414"><ele>271.42857142857144</ele><time>2026-05-03T09:19:14.214Z</time></trkpt><trkpt lat="44.7409168" lon="8.4695559"><ele>271.8571428571429</ele><time>2026-05-03T09:19:15.214Z</time></trkpt><trkpt lat="44.7409488" lon="8.4694731"><ele>272.28571428571433</ele><time>2026-05-03T09:19:16.214Z</time></trkpt><trkpt lat="44.7409832" lon="8.4693922"><ele>272.7142857142857</ele><time>2026-05-03T09:19:17.214Z</time></trkpt><trkpt lat="44.7410192" lon="8.4693099"><ele>273.14285714285717</ele><time>2026-05-03T09:19:18.215Z</time></trkpt><trkpt lat="44.7410522" lon="8.4692217"><ele>273.5714285714286</ele><time>2026-05-03T09:19:19.215Z</time></trkpt><trkpt lat="44.741084" lon="8.4691284"><ele>274.0</ele><time>2026-05-03T09:19:20.214Z</time></trkpt><trkpt lat="44.7411253" lon="8.4690456"><ele>274.00000000000006</ele><time>2026-05-03T09:19:21.215Z</time></trkpt><trkpt lat="44.741175" lon="8.4689749"><ele>274.0</ele><time>2026-05-03T09:19:22.214Z</time></trkpt><trkpt lat="44.7412339" lon="8.4689166"><ele>274.0</ele><time>2026-05-03T09:19:23.214Z</time></trkpt><trkpt lat="44.7412974" lon="8.4688732"><ele>274.0</ele><time>2026-05-03T09:19:24.214Z</time></trkpt><trkpt lat="44.741366" lon="8.4688324"><ele>274.0</ele><time>2026-05-03T09:19:25.214Z</time></trkpt><trkpt lat="44.7414366" lon="8.4687926"><ele>274.00000000000006</ele><time>2026-05-03T09:19:26.214Z</time></trkpt><trkpt lat="44.7415087" lon="8.468756"><ele>274.0</ele><time>2026-05-03T09:19:27.215Z</time></trkpt><trkpt lat="44.74158" lon="8.4687163"><ele>275.3333333333333</ele><time>2026-05-03T09:19:28.215Z</time></trkpt><trkpt lat="44.7416457" lon="8.4686676"><ele>276.66666666666663</ele><time>2026-05-03T09:19:29.215Z</time></trkpt><trkpt lat="44.7417012" lon="8.4686068"><ele>278.0</ele><time>2026-05-03T09:19:30.215Z</time></trkpt><trkpt lat="44.7417392" lon="8.4685157"><ele>279.3333333333333</ele><time>2026-05-03T09:19:31.215Z</time></trkpt><trkpt lat="44.7417468" lon="8.4684013"><ele>280.6666666666667</ele><time>2026-05-03T09:19:32.215Z</time></trkpt><trkpt lat="44.7417314" lon="8.468294"><ele>282.0</ele><time>2026-05-03T09:19:33.216Z</time></trkpt><trkpt lat="44.7416929" lon="8.4682032"><ele>282.0</ele><time>2026-05-03T09:19:34.215Z</time></trkpt><trkpt lat="44.7416359" lon="8.4681398"><ele>282.0</ele><time>2026-05-03T09:19:35.216Z</time></trkpt><trkpt lat="44.7415732" lon="8.4680904"><ele>282.0</ele><time>2026-05-03T09:19:36.216Z</time></trkpt><trkpt lat="44.7415153" lon="8.4680388"><ele>282.0</ele><time>2026-05-03T09:19:37.215Z</time></trkpt><trkpt lat="44.7414638" lon="8.4679729"><ele>282.0</ele><time>2026-05-03T09:19:38.216Z</time></trkpt><trkpt lat="44.7414299" lon="8.4678977"><ele>282.0</ele><time>2026-05-03T09:19:39.215Z</time></trkpt><trkpt lat="44.7414244" lon="8.4677335"><ele>282.6</ele><time>2026-05-03T09:19:41.215Z</time></trkpt><trkpt lat="44.7414538" lon="8.467605"><ele>283.2</ele><time>2026-05-03T09:19:43.215Z</time></trkpt><trkpt lat="44.7415034" lon="8.4675146"><ele>283.8</ele><time>2026-05-03T09:19:45.215Z</time></trkpt><trkpt lat="44.7415755" lon="8.4674339"><ele>284.4</ele><time>2026-05-03T09:19:47.216Z</time></trkpt><trkpt lat="44.7416598" lon="8.4673753"><ele>285.0</ele><time>2026-05-03T09:19:49.216Z</time></trkpt><trkpt lat="44.7417537" lon="8.4673464"><ele>285.0</ele><time>2026-05-03T09:19:51.215Z</time></trkpt><trkpt lat="44.7418428" lon="8.4673371"><ele>285.0</ele><time>2026-05-03T09:19:53.216Z</time></trkpt><trkpt lat="44.741929" lon="8.4673237"><ele>285.0</ele><time>2026-05-03T09:19:55.215Z</time></trkpt><trkpt lat="44.7420455" lon="8.4672981"><ele>285.0</ele><time>2026-05-03T09:19:57.215Z</time></trkpt><trkpt lat="44.7421223" lon="8.4672832"><ele>285.0</ele><time>2026-05-03T09:19:58.215Z</time></trkpt><trkpt lat="44.7422022" lon="8.4672682"><ele>284.2</ele><time>2026-05-03T09:19:59.216Z</time></trkpt><trkpt lat="44.7422848" lon="8.4672539"><ele>283.4</ele><time>2026-05-03T09:20:00.215Z</time></trkpt><trkpt lat="44.7423769" lon="8.4672344"><ele>282.6</ele><time>2026-05-03T09:20:01.216Z</time></trkpt><trkpt lat="44.7424775" lon="8.4672195"><ele>281.8</ele><time>2026-05-03T09:20:02.216Z</time></trkpt><trkpt lat="44.7425762" lon="8.467208"><ele>281.0</ele><time>2026-05-03T09:20:03.215Z</time></trkpt><trkpt lat="44.7426736" lon="8.4672003"><ele>281.33333333333337</ele><time>2026-05-03T09:20:04.216Z</time></trkpt><trkpt lat="44.7427676" lon="8.4671984"><ele>281.6666666666667</ele><time>2026-05-03T09:20:05.215Z</time></trkpt><trkpt lat="44.7428555" lon="8.4672004"><ele>282.0</ele><time>2026-05-03T09:20:06.215Z</time></trkpt><trkpt lat="44.7429319" lon="8.4671977"><ele>282.3333333333333</ele><time>2026-05-03T09:20:07.215Z</time></trkpt><trkpt lat="44.7430014" lon="8.4671778"><ele>282.66666666666663</ele><time>2026-05-03T09:20:08.216Z</time></trkpt><trkpt lat="44.7430698" lon="8.4671372"><ele>283.0</ele><time>2026-05-03T09:20:09.216Z</time></trkpt><trkpt lat="44.7431348" lon="8.4670775"><ele>280.3333333333333</ele><time>2026-05-03T09:20:10.215Z</time></trkpt><trkpt lat="44.7431997" lon="8.4669995"><ele>277.66666666666663</ele><time>2026-05-03T09:20:11.215Z</time></trkpt><trkpt lat="44.7432636" lon="8.4669148"><ele>275.0</ele><time>2026-05-03T09:20:12.216Z</time></trkpt><trkpt lat="44.7433341" lon="8.4668328"><ele>272.3333333333333</ele><time>2026-05-03T09:20:13.216Z</time></trkpt><trkpt lat="44.7434115" lon="8.4667639"><ele>269.6666666666667</ele><time>2026-05-03T09:20:14.216Z</time></trkpt><trkpt lat="44.7434927" lon="8.4667122"><ele>267.0</ele><time>2026-05-03T09:20:15.215Z</time></trkpt><trkpt lat="44.743574" lon="8.4666746"><ele>266.4</ele><time>2026-05-03T09:20:16.216Z</time></trkpt><trkpt lat="44.7436589" lon="8.4666509"><ele>265.79999999999995</ele><time>2026-05-03T09:20:17.216Z</time></trkpt><trkpt lat="44.7437471" lon="8.4666431"><ele>265.2</ele><time>2026-05-03T09:20:18.216Z</time></trkpt><trkpt lat="44.7438401" lon="8.46665"><ele>264.59999999999997</ele><time>2026-05-03T09:20:19.216Z</time></trkpt><trkpt lat="44.7439338" lon="8.466665"><ele>264.0</ele><time>2026-05-03T09:20:20.216Z</time></trkpt><trkpt lat="44.7440298" lon="8.4666798"><ele>264.0</ele><time>2026-05-03T09:20:21.216Z</time></trkpt><trkpt lat="44.7441246" lon="8.4666904"><ele>264.0</ele><time>2026-05-03T09:20:22.217Z</time></trkpt><trkpt lat="44.7442209" lon="8.4666974"><ele>264.0</ele><time>2026-05-03T09:20:23.216Z</time></trkpt><trkpt lat="44.7443176" lon="8.4667027"><ele>264.0</ele><time>2026-05-03T09:20:24.216Z</time></trkpt><trkpt lat="44.744412" lon="8.4667104"><ele>264.0</ele><time>2026-05-03T09:20:25.217Z</time></trkpt><trkpt lat="44.7445059" lon="8.4667169"><ele>263.1666666666667</ele><time>2026-05-03T09:20:26.216Z</time></trkpt><trkpt lat="44.7445974" lon="8.4667209"><ele>262.3333333333333</ele><time>2026-05-03T09:20:27.216Z</time></trkpt><trkpt lat="44.7446861" lon="8.4667246"><ele>261.5</ele><time>2026-05-03T09:20:28.217Z</time></trkpt><trkpt lat="44.7447759" lon="8.466727"><ele>260.66666666666663</ele><time>2026-05-03T09:20:29.217Z</time></trkpt><trkpt lat="44.7448661" lon="8.4667323"><ele>259.8333333333333</ele><time>2026-05-03T09:20:30.217Z</time></trkpt><trkpt lat="44.7449536" lon="8.4667372"><ele>259.0</ele><time>2026-05-03T09:20:31.217Z</time></trkpt><trkpt lat="44.7450381" lon="8.4667312"><ele>259.0</ele><time>2026-05-03T09:20:32.217Z</time></trkpt><trkpt lat="44.7451222" lon="8.4667107"><ele>259.0</ele><time>2026-05-03T09:20:33.216Z</time></trkpt><trkpt lat="44.7452073" lon="8.4666801"><ele>259.0</ele><time>2026-05-03T09:20:34.217Z</time></trkpt><trkpt lat="44.7452931" lon="8.4666529"><ele>259.0</ele><time>2026-05-03T09:20:35.216Z</time></trkpt><trkpt lat="44.7453774" lon="8.4666315"><ele>259.0</ele><time>2026-05-03T09:20:36.217Z</time></trkpt><trkpt lat="44.7454616" lon="8.4666078"><ele>259.0</ele><time>2026-05-03T09:20:37.216Z</time></trkpt><trkpt lat="44.7455478" lon="8.4665751"><ele>259.0</ele><time>2026-05-03T09:20:38.216Z</time></trkpt><trkpt lat="44.7456363" lon="8.4665357"><ele>259.0</ele><time>2026-05-03T09:20:39.216Z</time></trkpt><trkpt lat="44.7457239" lon="8.4664945"><ele>259.0</ele><time>2026-05-03T09:20:40.216Z</time></trkpt><trkpt lat="44.7458104" lon="8.4664487"><ele>259.0</ele><time>2026-05-03T09:20:41.216Z</time></trkpt><trkpt lat="44.7458966" lon="8.466397"><ele>259.0</ele><time>2026-05-03T09:20:42.216Z</time></trkpt><trkpt lat="44.7459842" lon="8.4663406"><ele>258.0</ele><time>2026-05-03T09:20:43.216Z</time></trkpt><trkpt lat="44.7460735" lon="8.4662903"><ele>257.0</ele><time>2026-05-03T09:20:44.216Z</time></trkpt><trkpt lat="44.746162" lon="8.4662445"><ele>255.99999999999997</ele><time>2026-05-03T09:20:45.217Z</time></trkpt><trkpt lat="44.7462548" lon="8.4662072"><ele>255.0</ele><time>2026-05-03T09:20:46.217Z</time></trkpt><trkpt lat="44.7463478" lon="8.4661983"><ele>254.0</ele><time>2026-05-03T09:20:47.216Z</time></trkpt><trkpt lat="44.746441" lon="8.4662034"><ele>252.6</ele><time>2026-05-03T09:20:48.216Z</time></trkpt><trkpt lat="44.7465266" lon="8.4662166"><ele>251.2</ele><time>2026-05-03T09:20:49.216Z</time></trkpt><trkpt lat="44.7466145" lon="8.4662333"><ele>249.79999999999998</ele><time>2026-05-03T09:20:50.216Z</time></trkpt><trkpt lat="44.7467045" lon="8.4662535"><ele>248.39999999999998</ele><time>2026-05-03T09:20:51.217Z</time></trkpt><trkpt lat="44.7468016" lon="8.466271"><ele>247.0</ele><time>2026-05-03T09:20:52.217Z</time></trkpt><trkpt lat="44.746901" lon="8.4662829"><ele>247.0</ele><time>2026-05-03T09:20:53.216Z</time></trkpt><trkpt lat="44.746999" lon="8.4662906"><ele>247.0</ele><time>2026-05-03T09:20:54.216Z</time></trkpt><trkpt lat="44.7470937" lon="8.466296"><ele>247.0</ele><time>2026-05-03T09:20:55.216Z</time></trkpt><trkpt lat="44.7471864" lon="8.4663029"><ele>247.0</ele><time>2026-05-03T09:20:56.216Z</time></trkpt><trkpt lat="44.747279" lon="8.4663101"><ele>247.0</ele><time>2026-05-03T09:20:57.217Z</time></trkpt><trkpt lat="44.7473677" lon="8.4663089"><ele>247.0</ele><time>2026-05-03T09:20:58.216Z</time></trkpt><trkpt lat="44.7474548" lon="8.4662917"><ele>247.0</ele><time>2026-05-03T09:20:59.216Z</time></trkpt><trkpt lat="44.7475387" lon="8.4662443"><ele>247.0</ele><time>2026-05-03T09:21:00.216Z</time></trkpt><trkpt lat="44.7476136" lon="8.4661652"><ele>247.0</ele><time>2026-05-03T09:21:01.216Z</time></trkpt><trkpt lat="44.7476784" lon="8.4660593"><ele>247.0</ele><time>2026-05-03T09:21:02.217Z</time></trkpt><trkpt lat="44.7477349" lon="8.4659457"><ele>245.2</ele><time>2026-05-03T09:21:03.217Z</time></trkpt><trkpt lat="44.7477923" lon="8.4658356"><ele>243.39999999999998</ele><time>2026-05-03T09:21:04.218Z</time></trkpt><trkpt lat="44.7478504" lon="8.465731"><ele>241.60000000000002</ele><time>2026-05-03T09:21:05.217Z</time></trkpt><trkpt lat="44.7479071" lon="8.4656293"><ele>239.8</ele><time>2026-05-03T09:21:06.217Z</time></trkpt><trkpt lat="44.747965" lon="8.4655295"><ele>238.0</ele><time>2026-05-03T09:21:07.217Z</time></trkpt><trkpt lat="44.7480252" lon="8.4654314"><ele>238.0</ele><time>2026-05-03T09:21:08.217Z</time></trkpt><trkpt lat="44.7480854" lon="8.4653368"><ele>238.0</ele><time>2026-05-03T09:21:09.217Z</time></trkpt><trkpt lat="44.7481418" lon="8.4652366"><ele>238.0</ele><time>2026-05-03T09:21:10.218Z</time></trkpt><trkpt lat="44.7481965" lon="8.4651334"><ele>238.0</ele><time>2026-05-03T09:21:11.217Z</time></trkpt><trkpt lat="44.7482412" lon="8.4650361"><ele>238.0</ele><time>2026-05-03T09:21:12.217Z</time></trkpt><trkpt lat="44.7483034" lon="8.4649287"><ele>238.0</ele><time>2026-05-03T09:21:13.218Z</time></trkpt><trkpt lat="44.7483751" lon="8.4648373"><ele>238.0</ele><time>2026-05-03T09:21:14.217Z</time></trkpt><trkpt lat="44.7484532" lon="8.4647655"><ele>238.0</ele><time>2026-05-03T09:21:15.217Z</time></trkpt><trkpt lat="44.7485407" lon="8.464719"><ele>238.0</ele><time>2026-05-03T09:21:16.217Z</time></trkpt><trkpt lat="44.7486401" lon="8.4647019"><ele>238.0</ele><time>2026-05-03T09:21:17.217Z</time></trkpt><trkpt lat="44.74874" lon="8.4647191"><ele>237.8</ele><time>2026-05-03T09:21:18.217Z</time></trkpt><trkpt lat="44.7488422" lon="8.4647494"><ele>237.60000000000002</ele><time>2026-05-03T09:21:19.218Z</time></trkpt><trkpt lat="44.7489431" lon="8.4647767"><ele>237.39999999999998</ele><time>2026-05-03T09:21:20.217Z</time></trkpt><trkpt lat="44.7490357" lon="8.4647957"><ele>237.2</ele><time>2026-05-03T09:21:21.217Z</time></trkpt><trkpt lat="44.7491272" lon="8.4648026"><ele>237.0</ele><time>2026-05-03T09:21:22.217Z</time></trkpt><trkpt lat="44.7492207" lon="8.464807"><ele>237.0</ele><time>2026-05-03T09:21:23.217Z</time></trkpt><trkpt lat="44.7493173" lon="8.464813"><ele>237.0</ele><time>2026-05-03T09:21:24.217Z</time></trkpt><trkpt lat="44.7494153" lon="8.4648199"><ele>237.0</ele><time>2026-05-03T09:21:25.217Z</time></trkpt><trkpt lat="44.7495125" lon="8.4648253"><ele>237.0</ele><time>2026-05-03T09:21:26.218Z</time></trkpt><trkpt lat="44.7496095" lon="8.4648332"><ele>237.0</ele><time>2026-05-03T09:21:27.218Z</time></trkpt><trkpt lat="44.7497074" lon="8.4648471"><ele>236.8</ele><time>2026-05-03T09:21:28.218Z</time></trkpt><trkpt lat="44.7498041" lon="8.4648589"><ele>236.6</ele><time>2026-05-03T09:21:29.217Z</time></trkpt><trkpt lat="44.7499017" lon="8.4648682"><ele>236.40000000000003</ele><time>2026-05-03T09:21:30.218Z</time></trkpt><trkpt lat="44.7499986" lon="8.4648806"><ele>236.20000000000002</ele><time>2026-05-03T09:21:31.217Z</time></trkpt><trkpt lat="44.7500945" lon="8.4649018"><ele>236.0</ele><time>2026-05-03T09:21:32.218Z</time></trkpt><trkpt lat="44.7501894" lon="8.4649323"><ele>234.8</ele><time>2026-05-03T09:21:33.217Z</time></trkpt><trkpt lat="44.750283" lon="8.464966"><ele>233.60000000000002</ele><time>2026-05-03T09:21:34.217Z</time></trkpt><trkpt lat="44.7503758" lon="8.4650009"><ele>232.4</ele><time>2026-05-03T09:21:35.218Z</time></trkpt><trkpt lat="44.7504697" lon="8.4650367"><ele>231.2</ele><time>2026-05-03T09:21:36.218Z</time></trkpt><trkpt lat="44.7505651" lon="8.4650747"><ele>230.0</ele><time>2026-05-03T09:21:37.217Z</time></trkpt><trkpt lat="44.7506618" lon="8.4651118"><ele>230.0</ele><time>2026-05-03T09:21:38.217Z</time></trkpt><trkpt lat="44.7507606" lon="8.4651445"><ele>230.0</ele><time>2026-05-03T09:21:39.217Z</time></trkpt><trkpt lat="44.7508589" lon="8.4651775"><ele>230.0</ele><time>2026-05-03T09:21:40.217Z</time></trkpt><trkpt lat="44.750958" lon="8.465212"><ele>230.0</ele><time>2026-05-03T09:21:41.217Z</time></trkpt><trkpt lat="44.7510578" lon="8.4652445"><ele>230.0</ele><time>2026-05-03T09:21:42.218Z</time></trkpt><trkpt lat="44.7511572" lon="8.4652785"><ele>229.8</ele><time>2026-05-03T09:21:43.218Z</time></trkpt><trkpt lat="44.7512484" lon="8.4653128"><ele>229.6</ele><time>2026-05-03T09:21:44.217Z</time></trkpt><trkpt lat="44.7513409" lon="8.4653496"><ele>229.39999999999998</ele><time>2026-05-03T09:21:45.217Z</time></trkpt><trkpt lat="44.7514274" lon="8.4653825"><ele>229.2</ele><time>2026-05-03T09:21:46.217Z</time></trkpt><trkpt lat="44.7515157" lon="8.4654161"><ele>229.0</ele><time>2026-05-03T09:21:47.218Z</time></trkpt><trkpt lat="44.7516029" lon="8.4654467"><ele>229.99999999999997</ele><time>2026-05-03T09:21:48.219Z</time></trkpt><trkpt lat="44.7516899" lon="8.4654742"><ele>231.0</ele><time>2026-05-03T09:21:49.218Z</time></trkpt><trkpt lat="44.7517752" lon="8.465502"><ele>232.0</ele><time>2026-05-03T09:21:50.219Z</time></trkpt><trkpt lat="44.7518587" lon="8.4655299"><ele>233.0</ele><time>2026-05-03T09:21:51.218Z</time></trkpt><trkpt lat="44.7519392" lon="8.4655607"><ele>233.99999999999997</ele><time>2026-05-03T09:21:52.219Z</time></trkpt><trkpt lat="44.7520147" lon="8.4655978"><ele>235.0</ele><time>2026-05-03T09:21:53.218Z</time></trkpt><trkpt lat="44.7520838" lon="8.465645"><ele>235.99999999999997</ele><time>2026-05-03T09:21:54.219Z</time></trkpt><trkpt lat="44.7521478" lon="8.4657019"><ele>237.0</ele><time>2026-05-03T09:21:55.218Z</time></trkpt><trkpt lat="44.7522094" lon="8.4657705"><ele>238.0</ele><time>2026-05-03T09:21:56.218Z</time></trkpt><trkpt lat="44.7522694" lon="8.4658445"><ele>239.0</ele><time>2026-05-03T09:21:57.219Z</time></trkpt><trkpt lat="44.7523269" lon="8.4659166"><ele>239.99999999999997</ele><time>2026-05-03T09:21:58.218Z</time></trkpt><trkpt lat="44.7523835" lon="8.4659871"><ele>241.0</ele><time>2026-05-03T09:21:59.218Z</time></trkpt><trkpt lat="44.752439" lon="8.466061"><ele>240.99999999999997</ele><time>2026-05-03T09:22:00.218Z</time></trkpt><trkpt lat="44.7524842" lon="8.4661415"><ele>241.0</ele><time>2026-05-03T09:22:01.218Z</time></trkpt><trkpt lat="44.7525315" lon="8.4662346"><ele>241.0</ele><time>2026-05-03T09:22:02.218Z</time></trkpt><trkpt lat="44.7525695" lon="8.466337"><ele>241.0</ele><time>2026-05-03T09:22:03.218Z</time></trkpt><trkpt lat="44.7526075" lon="8.4664395"><ele>240.99999999999997</ele><time>2026-05-03T09:22:04.218Z</time></trkpt><trkpt lat="44.7526532" lon="8.4665321"><ele>241.0</ele><time>2026-05-03T09:22:05.218Z</time></trkpt><trkpt lat="44.7527122" lon="8.4666138"><ele>242.4</ele><time>2026-05-03T09:22:06.218Z</time></trkpt><trkpt lat="44.7527898" lon="8.4666902"><ele>243.8</ele><time>2026-05-03T09:22:07.218Z</time></trkpt><trkpt lat="44.7528706" lon="8.4667549"><ele>245.20000000000002</ele><time>2026-05-03T09:22:08.218Z</time></trkpt><trkpt lat="44.7529563" lon="8.4668151"><ele>246.60000000000002</ele><time>2026-05-03T09:22:09.218Z</time></trkpt><trkpt lat="44.7530491" lon="8.4668716"><ele>248.0</ele><time>2026-05-03T09:22:10.218Z</time></trkpt><trkpt lat="44.7531409" lon="8.4669199"><ele>248.0</ele><time>2026-05-03T09:22:11.218Z</time></trkpt><trkpt lat="44.7532323" lon="8.4669615"><ele>248.0</ele><time>2026-05-03T09:22:12.218Z</time></trkpt><trkpt lat="44.7533237" lon="8.467005"><ele>248.0</ele><time>2026-05-03T09:22:13.218Z</time></trkpt><trkpt lat="44.7534182" lon="8.467054"><ele>248.0</ele><time>2026-05-03T09:22:14.218Z</time></trkpt><trkpt lat="44.7535111" lon="8.4671055"><ele>248.0</ele><time>2026-05-03T09:22:15.219Z</time></trkpt><trkpt lat="44.7536003" lon="8.4671571"><ele>248.50000000000003</ele><time>2026-05-03T09:22:16.218Z</time></trkpt><trkpt lat="44.7536818" lon="8.4672116"><ele>249.0</ele><time>2026-05-03T09:22:17.218Z</time></trkpt><trkpt lat="44.7537517" lon="8.4672678"><ele>249.5</ele><time>2026-05-03T09:22:18.219Z</time></trkpt><trkpt lat="44.7538096" lon="8.4673419"><ele>250.0</ele><time>2026-05-03T09:22:19.218Z</time></trkpt><trkpt lat="44.7538543" lon="8.4674332"><ele>250.50000000000003</ele><time>2026-05-03T09:22:20.218Z</time></trkpt><trkpt lat="44.7538879" lon="8.4675273"><ele>251.0</ele><time>2026-05-03T09:22:21.218Z</time></trkpt><trkpt lat="44.7539233" lon="8.4676267"><ele>251.00000000000003</ele><time>2026-05-03T09:22:22.218Z</time></trkpt><trkpt lat="44.7539642" lon="8.4677255"><ele>251.0</ele><time>2026-05-03T09:22:23.219Z</time></trkpt><trkpt lat="44.754011" lon="8.4678198"><ele>251.0</ele><time>2026-05-03T09:22:24.219Z</time></trkpt><trkpt lat="44.7540576" lon="8.4679182"><ele>251.0</ele><time>2026-05-03T09:22:25.219Z</time></trkpt><trkpt lat="44.7540998" lon="8.4680208"><ele>251.00000000000003</ele><time>2026-05-03T09:22:26.218Z</time></trkpt><trkpt lat="44.7541391" lon="8.4681265"><ele>251.0</ele><time>2026-05-03T09:22:27.218Z</time></trkpt><trkpt lat="44.7541846" lon="8.4682364"><ele>250.0</ele><time>2026-05-03T09:22:28.218Z</time></trkpt><trkpt lat="44.7542401" lon="8.4683355"><ele>249.00000000000003</ele><time>2026-05-03T09:22:29.218Z</time></trkpt><trkpt lat="44.7543067" lon="8.468426"><ele>248.00000000000003</ele><time>2026-05-03T09:22:30.219Z</time></trkpt><trkpt lat="44.7543812" lon="8.4685046"><ele>247.0</ele><time>2026-05-03T09:22:31.218Z</time></trkpt><trkpt lat="44.7544608" lon="8.4685717"><ele>246.0</ele><time>2026-05-03T09:22:32.218Z</time></trkpt><trkpt lat="44.7545411" lon="8.4686336"><ele>247.33333333333334</ele><time>2026-05-03T09:22:33.218Z</time></trkpt><trkpt lat="44.7546177" lon="8.4686945"><ele>248.66666666666669</ele><time>2026-05-03T09:22:34.22Z</time></trkpt><trkpt lat="44.7546902" lon="8.4687589"><ele>250.0</ele><time>2026-05-03T09:22:35.22Z</time></trkpt><trkpt lat="44.7547609" lon="8.4688307"><ele>251.33333333333334</ele><time>2026-05-03T09:22:36.219Z</time></trkpt><trkpt lat="44.7548282" lon="8.468915"><ele>252.66666666666669</ele><time>2026-05-03T09:22:37.219Z</time></trkpt><trkpt lat="44.7548865" lon="8.4690117"><ele>254.0</ele><time>2026-05-03T09:22:38.22Z</time></trkpt><trkpt lat="44.7549322" lon="8.4691215"><ele>254.0</ele><time>2026-05-03T09:22:39.22Z</time></trkpt><trkpt lat="44.7549705" lon="8.4692412"><ele>253.99999999999997</ele><time>2026-05-03T09:22:40.219Z</time></trkpt><trkpt lat="44.7550056" lon="8.4693597"><ele>253.99999999999997</ele><time>2026-05-03T09:22:41.219Z</time></trkpt><trkpt lat="44.7550412" lon="8.4694729"><ele>254.0</ele><time>2026-05-03T09:22:42.219Z</time></trkpt><trkpt lat="44.7550838" lon="8.469585"><ele>254.0</ele><time>2026-05-03T09:22:43.219Z</time></trkpt><trkpt lat="44.755127" lon="8.4696968"><ele>252.66666666666669</ele><time>2026-05-03T09:22:44.219Z</time></trkpt><trkpt lat="44.7551707" lon="8.4698072"><ele>251.33333333333334</ele><time>2026-05-03T09:22:45.219Z</time></trkpt><trkpt lat="44.7552139" lon="8.4699141"><ele>250.0</ele><time>2026-05-03T09:22:46.22Z</time></trkpt><trkpt lat="44.7552597" lon="8.4700241"><ele>248.66666666666669</ele><time>2026-05-03T09:22:47.219Z</time></trkpt><trkpt lat="44.7553028" lon="8.4701382"><ele>247.33333333333334</ele><time>2026-05-03T09:22:48.219Z</time></trkpt><trkpt lat="44.7553375" lon="8.4702546"><ele>246.0</ele><time>2026-05-03T09:22:49.219Z</time></trkpt><trkpt lat="44.7553659" lon="8.4703779"><ele>248.66666666666666</ele><time>2026-05-03T09:22:50.219Z</time></trkpt><trkpt lat="44.7553901" lon="8.4705043"><ele>251.33333333333331</ele><time>2026-05-03T09:22:51.219Z</time></trkpt><trkpt lat="44.7554145" lon="8.4706288"><ele>254.0</ele><time>2026-05-03T09:22:52.219Z</time></trkpt><trkpt lat="44.7554402" lon="8.470749"><ele>256.66666666666663</ele><time>2026-05-03T09:22:53.219Z</time></trkpt><trkpt lat="44.7554688" lon="8.4708656"><ele>259.3333333333333</ele><time>2026-05-03T09:22:54.219Z</time></trkpt><trkpt lat="44.755498" lon="8.4709779"><ele>262.0</ele><time>2026-05-03T09:22:55.22Z</time></trkpt><trkpt lat="44.7555265" lon="8.4710856"><ele>262.0</ele><time>2026-05-03T09:22:56.219Z</time></trkpt><trkpt lat="44.7555569" lon="8.471199"><ele>262.0</ele><time>2026-05-03T09:22:57.219Z</time></trkpt><trkpt lat="44.7555867" lon="8.4713151"><ele>262.0</ele><time>2026-05-03T09:22:58.22Z</time></trkpt><trkpt lat="44.7556142" lon="8.4714327"><ele>262.0</ele><time>2026-05-03T09:22:59.22Z</time></trkpt><trkpt lat="44.7556428" lon="8.4715537"><ele>262.0</ele><time>2026-05-03T09:23:00.219Z</time></trkpt><trkpt lat="44.7556771" lon="8.4716755"><ele>262.0</ele><time>2026-05-03T09:23:01.219Z</time></trkpt><trkpt lat="44.7557238" lon="8.4717922"><ele>260.4</ele><time>2026-05-03T09:23:02.219Z</time></trkpt><trkpt lat="44.7557825" lon="8.4719029"><ele>258.79999999999995</ele><time>2026-05-03T09:23:03.219Z</time></trkpt><trkpt lat="44.7558486" lon="8.472003"><ele>257.2</ele><time>2026-05-03T09:23:04.22Z</time></trkpt><trkpt lat="44.7559212" lon="8.4720946"><ele>255.6</ele><time>2026-05-03T09:23:05.219Z</time></trkpt><trkpt lat="44.7559972" lon="8.47218"><ele>254.0</ele><time>2026-05-03T09:23:06.219Z</time></trkpt><trkpt lat="44.756075" lon="8.4722598"><ele>254.00000000000003</ele><time>2026-05-03T09:23:07.22Z</time></trkpt><trkpt lat="44.7561456" lon="8.4723414"><ele>254.0</ele><time>2026-05-03T09:23:08.219Z</time></trkpt><trkpt lat="44.7562174" lon="8.4724139"><ele>254.0</ele><time>2026-05-03T09:23:09.219Z</time></trkpt><trkpt lat="44.7562918" lon="8.4724674"><ele>254.0</ele><time>2026-05-03T09:23:10.219Z</time></trkpt><trkpt lat="44.7563746" lon="8.4724932"><ele>254.00000000000003</ele><time>2026-05-03T09:23:11.22Z</time></trkpt><trkpt lat="44.7564533" lon="8.4725178"><ele>254.0</ele><time>2026-05-03T09:23:12.219Z</time></trkpt><trkpt lat="44.7565324" lon="8.4725358"><ele>254.00000000000003</ele><time>2026-05-03T09:23:13.22Z</time></trkpt><trkpt lat="44.7566149" lon="8.472548"><ele>254.0</ele><time>2026-05-03T09:23:14.219Z</time></trkpt><trkpt lat="44.7566897" lon="8.4725615"><ele>254.0</ele><time>2026-05-03T09:23:15.219Z</time></trkpt><trkpt lat="44.7567645" lon="8.4725773"><ele>254.0</ele><time>2026-05-03T09:23:16.22Z</time></trkpt><trkpt lat="44.75684" lon="8.4725937"><ele>254.00000000000003</ele><time>2026-05-03T09:23:17.219Z</time></trkpt><trkpt lat="44.7569155" lon="8.4726159"><ele>254.0</ele><time>2026-05-03T09:23:18.219Z</time></trkpt><trkpt lat="44.7569867" lon="8.4726451"><ele>253.42857142857144</ele><time>2026-05-03T09:23:19.219Z</time></trkpt><trkpt lat="44.7570533" lon="8.4726819"><ele>252.85714285714283</ele><time>2026-05-03T09:23:20.221Z</time></trkpt><trkpt lat="44.7571123" lon="8.4727328"><ele>252.28571428571428</ele><time>2026-05-03T09:23:21.22Z</time></trkpt><trkpt lat="44.7571701" lon="8.4727968"><ele>251.71428571428572</ele><time>2026-05-03T09:23:22.221Z</time></trkpt><trkpt lat="44.7572258" lon="8.4728766"><ele>251.14285714285717</ele><time>2026-05-03T09:23:23.221Z</time></trkpt><trkpt lat="44.7572733" lon="8.4729589"><ele>250.57142857142856</ele><time>2026-05-03T09:23:24.22Z</time></trkpt><trkpt lat="44.7573142" lon="8.4730274"><ele>250.0</ele><time>2026-05-03T09:23:25.221Z</time></trkpt><trkpt lat="44.7573599" lon="8.4731052"><ele>249.99999999999997</ele><time>2026-05-03T09:23:26.22Z</time></trkpt><trkpt lat="44.7573985" lon="8.4731946"><ele>250.0</ele><time>2026-05-03T09:23:27.22Z</time></trkpt><trkpt lat="44.7574386" lon="8.4732976"><ele>250.0</ele><time>2026-05-03T09:23:28.22Z</time></trkpt><trkpt lat="44.7574775" lon="8.4734112"><ele>250.0</ele><time>2026-05-03T09:23:29.22Z</time></trkpt><trkpt lat="44.7575152" lon="8.4735214"><ele>249.99999999999997</ele><time>2026-05-03T09:23:30.221Z</time></trkpt><trkpt lat="44.7575457" lon="8.4736253"><ele>250.0</ele><time>2026-05-03T09:23:31.22Z</time></trkpt><trkpt lat="44.7575637" lon="8.4737199"><ele>249.4</ele><time>2026-05-03T09:23:32.22Z</time></trkpt><trkpt lat="44.7575937" lon="8.4738074"><ele>248.8</ele><time>2026-05-03T09:23:33.22Z</time></trkpt><trkpt lat="44.7576501" lon="8.4739614"><ele>248.2</ele><time>2026-05-03T09:23:35.221Z</time></trkpt><trkpt lat="44.7577021" lon="8.4741059"><ele>247.6</ele><time>2026-05-03T09:23:37.22Z</time></trkpt><trkpt lat="44.7577558" lon="8.4742051"><ele>247.0</ele><time>2026-05-03T09:23:39.22Z</time></trkpt><trkpt lat="44.7578276" lon="8.4742011"><ele>246.6</ele><time>2026-05-03T09:23:41.22Z</time></trkpt><trkpt lat="44.7579067" lon="8.474123"><ele>246.2</ele><time>2026-05-03T09:23:43.22Z</time></trkpt><trkpt lat="44.7580238" lon="8.4740273"><ele>245.8</ele><time>2026-05-03T09:23:45.221Z</time></trkpt><trkpt lat="44.7581072" lon="8.4739702"><ele>245.4</ele><time>2026-05-03T09:23:46.22Z</time></trkpt><trkpt lat="44.7581987" lon="8.4739033"><ele>245.0</ele><time>2026-05-03T09:23:47.22Z</time></trkpt><trkpt lat="44.7582811" lon="8.4738269"><ele>244.16666666666669</ele><time>2026-05-03T09:23:48.22Z</time></trkpt><trkpt lat="44.7583448" lon="8.4737395"><ele>243.33333333333334</ele><time>2026-05-03T09:23:49.22Z</time></trkpt><trkpt lat="44.7583921" lon="8.4736459"><ele>242.5</ele><time>2026-05-03T09:23:50.222Z</time></trkpt><trkpt lat="44.7584223" lon="8.4735439"><ele>241.66666666666669</ele><time>2026-05-03T09:23:51.221Z</time></trkpt><trkpt lat="44.7584362" lon="8.4734194"><ele>240.83333333333334</ele><time>2026-05-03T09:23:52.221Z</time></trkpt><trkpt lat="44.7584273" lon="8.473287"><ele>240.0</ele><time>2026-05-03T09:23:53.221Z</time></trkpt><trkpt lat="44.7583992" lon="8.4731647"><ele>240.0</ele><time>2026-05-03T09:23:54.22Z</time></trkpt><trkpt lat="44.7583598" lon="8.4730501"><ele>240.0</ele><time>2026-05-03T09:23:55.22Z</time></trkpt><trkpt lat="44.7583173" lon="8.4729431"><ele>240.0</ele><time>2026-05-03T09:23:56.22Z</time></trkpt><trkpt lat="44.7582792" lon="8.4728294"><ele>240.0</ele><time>2026-05-03T09:23:57.221Z</time></trkpt><trkpt lat="44.7582462" lon="8.4727094"><ele>240.0</ele><time>2026-05-03T09:23:58.221Z</time></trkpt><trkpt lat="44.7582158" lon="8.4725853"><ele>239.2</ele><time>2026-05-03T09:23:59.221Z</time></trkpt><trkpt lat="44.7581902" lon="8.4724606"><ele>238.4</ele><time>2026-05-03T09:24:00.22Z</time></trkpt><trkpt lat="44.75817" lon="8.4723358"><ele>237.60000000000002</ele><time>2026-05-03T09:24:01.221Z</time></trkpt><trkpt lat="44.7581582" lon="8.4722107"><ele>236.8</ele><time>2026-05-03T09:24:02.22Z</time></trkpt><trkpt lat="44.7581609" lon="8.4720879"><ele>236.0</ele><time>2026-05-03T09:24:03.22Z</time></trkpt><trkpt lat="44.7581807" lon="8.4719637"><ele>234.8</ele><time>2026-05-03T09:24:04.221Z</time></trkpt><trkpt lat="44.7582074" lon="8.4718394"><ele>233.60000000000002</ele><time>2026-05-03T09:24:05.22Z</time></trkpt><trkpt lat="44.7582362" lon="8.471713"><ele>232.4</ele><time>2026-05-03T09:24:06.222Z</time></trkpt><trkpt lat="44.7582641" lon="8.4715844"><ele>231.2</ele><time>2026-05-03T09:24:07.221Z</time></trkpt><trkpt lat="44.7582876" lon="8.4714529"><ele>230.0</ele><time>2026-05-03T09:24:08.221Z</time></trkpt><trkpt lat="44.758308" lon="8.4713211"><ele>229.8</ele><time>2026-05-03T09:24:09.221Z</time></trkpt><trkpt lat="44.7583282" lon="8.4711891"><ele>229.6</ele><time>2026-05-03T09:24:10.222Z</time></trkpt><trkpt lat="44.7583494" lon="8.4710616"><ele>229.39999999999998</ele><time>2026-05-03T09:24:11.222Z</time></trkpt><trkpt lat="44.7583735" lon="8.4709377"><ele>229.2</ele><time>2026-05-03T09:24:12.221Z</time></trkpt><trkpt lat="44.7584008" lon="8.470821"><ele>229.0</ele><time>2026-05-03T09:24:13.221Z</time></trkpt><trkpt lat="44.7584308" lon="8.4707081"><ele>228.99999999999997</ele><time>2026-05-03T09:24:14.222Z</time></trkpt><trkpt lat="44.7584662" lon="8.4706032"><ele>229.0</ele><time>2026-05-03T09:24:15.221Z</time></trkpt><trkpt lat="44.7585055" lon="8.470506"><ele>229.0</ele><time>2026-05-03T09:24:16.221Z</time></trkpt><trkpt lat="44.7585492" lon="8.4704157"><ele>229.0</ele><time>2026-05-03T09:24:17.221Z</time></trkpt><trkpt lat="44.7585991" lon="8.4703297"><ele>228.99999999999997</ele><time>2026-05-03T09:24:18.221Z</time></trkpt><trkpt lat="44.7586555" lon="8.4702426"><ele>229.0</ele><time>2026-05-03T09:24:19.222Z</time></trkpt><trkpt lat="44.7587216" lon="8.4701588"><ele>226.39999999999998</ele><time>2026-05-03T09:24:20.221Z</time></trkpt><trkpt lat="44.7588032" lon="8.4700874"><ele>223.79999999999998</ele><time>2026-05-03T09:24:21.221Z</time></trkpt><trkpt lat="44.7588955" lon="8.4700334"><ele>221.20000000000002</ele><time>2026-05-03T09:24:22.221Z</time></trkpt><trkpt lat="44.7589928" lon="8.4699941"><ele>218.60000000000002</ele><time>2026-05-03T09:24:23.221Z</time></trkpt><trkpt lat="44.7590896" lon="8.469964"><ele>216.0</ele><time>2026-05-03T09:24:24.221Z</time></trkpt><trkpt lat="44.7591871" lon="8.4699427"><ele>216.0</ele><time>2026-05-03T09:24:25.222Z</time></trkpt><trkpt lat="44.7592826" lon="8.4699252"><ele>216.00000000000003</ele><time>2026-05-03T09:24:26.221Z</time></trkpt><trkpt lat="44.7593774" lon="8.4699127"><ele>216.00000000000003</ele><time>2026-05-03T09:24:27.221Z</time></trkpt><trkpt lat="44.7594731" lon="8.4699089"><ele>216.0</ele><time>2026-05-03T09:24:28.222Z</time></trkpt><trkpt lat="44.7595668" lon="8.4699136"><ele>216.0</ele><time>2026-05-03T09:24:29.221Z</time></trkpt><trkpt lat="44.7596566" lon="8.4699325"><ele>214.60000000000002</ele><time>2026-05-03T09:24:30.221Z</time></trkpt><trkpt lat="44.759743" lon="8.4699691"><ele>213.20000000000002</ele><time>2026-05-03T09:24:31.221Z</time></trkpt><trkpt lat="44.7598287" lon="8.4700149"><ele>211.8</ele><time>2026-05-03T09:24:32.221Z</time></trkpt><trkpt lat="44.7599142" lon="8.4700639"><ele>210.39999999999998</ele><time>2026-05-03T09:24:33.221Z</time></trkpt><trkpt lat="44.7599994" lon="8.4701155"><ele>209.0</ele><time>2026-05-03T09:24:34.222Z</time></trkpt><trkpt lat="44.760084" lon="8.470166"><ele>209.00000000000003</ele><time>2026-05-03T09:24:35.221Z</time></trkpt><trkpt lat="44.7601669" lon="8.4702174"><ele>209.0</ele><time>2026-05-03T09:24:36.221Z</time></trkpt><trkpt lat="44.7602475" lon="8.4702699"><ele>209.0</ele><time>2026-05-03T09:24:37.221Z</time></trkpt><trkpt lat="44.760324" lon="8.4703189"><ele>209.0</ele><time>2026-05-03T09:24:38.222Z</time></trkpt><trkpt lat="44.7603952" lon="8.4703651"><ele>209.00000000000003</ele><time>2026-05-03T09:24:39.221Z</time></trkpt><trkpt lat="44.7604682" lon="8.4704059"><ele>209.0</ele><time>2026-05-03T09:24:40.221Z</time></trkpt><trkpt lat="44.7605436" lon="8.4704465"><ele>206.16666666666669</ele><time>2026-05-03T09:24:41.221Z</time></trkpt><trkpt lat="44.7606203" lon="8.4704858"><ele>203.33333333333334</ele><time>2026-05-03T09:24:42.221Z</time></trkpt><trkpt lat="44.7606993" lon="8.4705177"><ele>200.5</ele><time>2026-05-03T09:24:43.222Z</time></trkpt><trkpt lat="44.7607808" lon="8.4705363"><ele>197.66666666666669</ele><time>2026-05-03T09:24:44.221Z</time></trkpt><trkpt lat="44.7608638" lon="8.4705378"><ele>194.83333333333334</ele><time>2026-05-03T09:24:45.222Z</time></trkpt><trkpt lat="44.7609468" lon="8.4705238"><ele>192.0</ele><time>2026-05-03T09:24:46.221Z</time></trkpt><trkpt lat="44.7610259" lon="8.4704904"><ele>190.16666666666666</ele><time>2026-05-03T09:24:47.221Z</time></trkpt><trkpt lat="44.7610972" lon="8.4704361"><ele>188.33333333333334</ele><time>2026-05-03T09:24:48.221Z</time></trkpt><trkpt lat="44.7611583" lon="8.4703565"><ele>186.5</ele><time>2026-05-03T09:24:49.222Z</time></trkpt><trkpt lat="44.7612093" lon="8.4702552"><ele>184.66666666666669</ele><time>2026-05-03T09:24:50.222Z</time></trkpt><trkpt lat="44.7612495" lon="8.4701353"><ele>182.83333333333334</ele><time>2026-05-03T09:24:51.222Z</time></trkpt><trkpt lat="44.7612758" lon="8.4700042"><ele>181.0</ele><time>2026-05-03T09:24:52.222Z</time></trkpt><trkpt lat="44.7612815" lon="8.469868"><ele>181.0</ele><time>2026-05-03T09:24:53.222Z</time></trkpt><trkpt lat="44.7612735" lon="8.4697409"><ele>181.0</ele><time>2026-05-03T09:24:54.222Z</time></trkpt><trkpt lat="44.7612516" lon="8.4696223"><ele>181.0</ele><time>2026-05-03T09:24:55.223Z</time></trkpt><trkpt lat="44.7612087" lon="8.469523"><ele>181.0</ele><time>2026-05-03T09:24:56.222Z</time></trkpt><trkpt lat="44.7611524" lon="8.4694343"><ele>181.0</ele><time>2026-05-03T09:24:57.222Z</time></trkpt><trkpt lat="44.7610833" lon="8.4693559"><ele>181.0</ele><time>2026-05-03T09:24:58.222Z</time></trkpt><trkpt lat="44.7610052" lon="8.4692853"><ele>181.85714285714286</ele><time>2026-05-03T09:24:59.222Z</time></trkpt><trkpt lat="44.7609343" lon="8.469223"><ele>182.71428571428572</ele><time>2026-05-03T09:25:00.222Z</time></trkpt><trkpt lat="44.7608749" lon="8.4691583"><ele>183.57142857142856</ele><time>2026-05-03T09:25:01.222Z</time></trkpt><trkpt lat="44.7608344" lon="8.4690783"><ele>184.42857142857144</ele><time>2026-05-03T09:25:02.222Z</time></trkpt><trkpt lat="44.7608191" lon="8.4689823"><ele>185.2857142857143</ele><time>2026-05-03T09:25:03.222Z</time></trkpt><trkpt lat="44.7608285" lon="8.4688857"><ele>186.14285714285714</ele><time>2026-05-03T09:25:04.222Z</time></trkpt><trkpt lat="44.7608642" lon="8.4688041"><ele>187.0</ele><time>2026-05-03T09:25:05.222Z</time></trkpt><trkpt lat="44.7609238" lon="8.468736"><ele>187.0</ele><time>2026-05-03T09:25:06.222Z</time></trkpt><trkpt lat="44.7610042" lon="8.4686899"><ele>187.0</ele><time>2026-05-03T09:25:07.223Z</time></trkpt><trkpt lat="44.7610984" lon="8.468654"><ele>187.0</ele><time>2026-05-03T09:25:08.223Z</time></trkpt><trkpt lat="44.7611918" lon="8.4686105"><ele>187.0</ele><time>2026-05-03T09:25:09.223Z</time></trkpt><trkpt lat="44.7612734" lon="8.4685466"><ele>187.0</ele><time>2026-05-03T09:25:10.222Z</time></trkpt><trkpt lat="44.7613337" lon="8.4684681"><ele>184.83333333333334</ele><time>2026-05-03T09:25:11.222Z</time></trkpt><trkpt lat="44.7613772" lon="8.468369"><ele>182.66666666666669</ele><time>2026-05-03T09:25:12.223Z</time></trkpt><trkpt lat="44.7614006" lon="8.4682517"><ele>180.5</ele><time>2026-05-03T09:25:13.223Z</time></trkpt><trkpt lat="44.7613968" lon="8.4681288"><ele>178.33333333333334</ele><time>2026-05-03T09:25:14.223Z</time></trkpt><trkpt lat="44.7613758" lon="8.4680099"><ele>176.16666666666666</ele><time>2026-05-03T09:25:15.222Z</time></trkpt><trkpt lat="44.7613375" lon="8.4678978"><ele>174.0</ele><time>2026-05-03T09:25:16.222Z</time></trkpt><trkpt lat="44.7612949" lon="8.4677853"><ele>173.5</ele><time>2026-05-03T09:25:17.223Z</time></trkpt><trkpt lat="44.7612545" lon="8.4676704"><ele>173.0</ele><time>2026-05-03T09:25:18.222Z</time></trkpt><trkpt lat="44.7612201" lon="8.4675493"><ele>172.5</ele><time>2026-05-03T09:25:19.223Z</time></trkpt><trkpt lat="44.7611953" lon="8.4674292"><ele>172.0</ele><time>2026-05-03T09:25:20.222Z</time></trkpt><trkpt lat="44.7611855" lon="8.4673158"><ele>171.5</ele><time>2026-05-03T09:25:21.222Z</time></trkpt><trkpt lat="44.761195" lon="8.4672106"><ele>171.0</ele><time>2026-05-03T09:25:22.223Z</time></trkpt><trkpt lat="44.7612269" lon="8.4671229"><ele>170.8</ele><time>2026-05-03T09:25:23.222Z</time></trkpt><trkpt lat="44.7612831" lon="8.4670426"><ele>170.60000000000002</ele><time>2026-05-03T09:25:24.222Z</time></trkpt><trkpt lat="44.7613602" lon="8.4669815"><ele>170.4</ele><time>2026-05-03T09:25:25.222Z</time></trkpt><trkpt lat="44.7614503" lon="8.4669357"><ele>170.2</ele><time>2026-05-03T09:25:26.223Z</time></trkpt><trkpt lat="44.7615451" lon="8.4669015"><ele>170.0</ele><time>2026-05-03T09:25:27.222Z</time></trkpt><trkpt lat="44.7616444" lon="8.4668683"><ele>170.0</ele><time>2026-05-03T09:25:28.222Z</time></trkpt><trkpt lat="44.7617434" lon="8.4668269"><ele>170.0</ele><time>2026-05-03T09:25:29.222Z</time></trkpt><trkpt lat="44.7618417" lon="8.4667755"><ele>170.0</ele><time>2026-05-03T09:25:30.222Z</time></trkpt><trkpt lat="44.7619398" lon="8.4667202"><ele>170.0</ele><time>2026-05-03T09:25:31.222Z</time></trkpt><trkpt lat="44.7620332" lon="8.4666571"><ele>170.0</ele><time>2026-05-03T09:25:32.223Z</time></trkpt><trkpt lat="44.762124" lon="8.4665878"><ele>168.6</ele><time>2026-05-03T09:25:33.223Z</time></trkpt><trkpt lat="44.7622101" lon="8.4665125"><ele>167.2</ele><time>2026-05-03T09:25:34.222Z</time></trkpt><trkpt lat="44.7622859" lon="8.4664263"><ele>165.8</ele><time>2026-05-03T09:25:35.222Z</time></trkpt><trkpt lat="44.7623525" lon="8.4663296"><ele>164.4</ele><time>2026-05-03T09:25:36.222Z</time></trkpt><trkpt lat="44.7624135" lon="8.4662267"><ele>163.0</ele><time>2026-05-03T09:25:37.223Z</time></trkpt><trkpt lat="44.7624666" lon="8.4661171"><ele>162.8</ele><time>2026-05-03T09:25:38.223Z</time></trkpt><trkpt lat="44.7625137" lon="8.4659997"><ele>162.60000000000002</ele><time>2026-05-03T09:25:39.223Z</time></trkpt><trkpt lat="44.7625525" lon="8.4658775"><ele>162.39999999999998</ele><time>2026-05-03T09:25:40.224Z</time></trkpt><trkpt lat="44.7625862" lon="8.4657525"><ele>162.2</ele><time>2026-05-03T09:25:41.224Z</time></trkpt><trkpt lat="44.7626205" lon="8.4656234"><ele>162.0</ele><time>2026-05-03T09:25:42.223Z</time></trkpt><trkpt lat="44.7626565" lon="8.4654945"><ele>161.8</ele><time>2026-05-03T09:25:43.223Z</time></trkpt><trkpt lat="44.7626929" lon="8.4653669"><ele>161.6</ele><time>2026-05-03T09:25:44.223Z</time></trkpt><trkpt lat="44.7627277" lon="8.4652387"><ele>161.4</ele><time>2026-05-03T09:25:45.224Z</time></trkpt><trkpt lat="44.76276" lon="8.465109"><ele>161.20000000000002</ele><time>2026-05-03T09:25:46.224Z</time></trkpt><trkpt lat="44.7627917" lon="8.4649755"><ele>161.0</ele><time>2026-05-03T09:25:47.223Z</time></trkpt><trkpt lat="44.7628228" lon="8.4648417"><ele>160.60000000000002</ele><time>2026-05-03T09:25:48.224Z</time></trkpt><trkpt lat="44.7628562" lon="8.464709"><ele>160.20000000000002</ele><time>2026-05-03T09:25:49.223Z</time></trkpt><trkpt lat="44.7628908" lon="8.4645785"><ele>159.8</ele><time>2026-05-03T09:25:50.223Z</time></trkpt><trkpt lat="44.7629241" lon="8.4644515"><ele>159.4</ele><time>2026-05-03T09:25:51.223Z</time></trkpt><trkpt lat="44.7629583" lon="8.4643183"><ele>159.0</ele><time>2026-05-03T09:25:52.224Z</time></trkpt><trkpt lat="44.7629908" lon="8.4641856"><ele>158.8</ele><time>2026-05-03T09:25:53.223Z</time></trkpt><trkpt lat="44.7630241" lon="8.4640548"><ele>158.60000000000002</ele><time>2026-05-03T09:25:54.224Z</time></trkpt><trkpt lat="44.7630594" lon="8.4639238"><ele>158.4</ele><time>2026-05-03T09:25:55.223Z</time></trkpt><trkpt lat="44.763094" lon="8.4637884"><ele>158.20000000000002</ele><time>2026-05-03T09:25:56.223Z</time></trkpt><trkpt lat="44.7631286" lon="8.4636518"><ele>158.0</ele><time>2026-05-03T09:25:57.223Z</time></trkpt><trkpt lat="44.7631639" lon="8.4635138"><ele>157.83333333333331</ele><time>2026-05-03T09:25:58.223Z</time></trkpt><trkpt lat="44.7631984" lon="8.4633838"><ele>157.66666666666666</ele><time>2026-05-03T09:25:59.224Z</time></trkpt><trkpt lat="44.7632374" lon="8.4632715"><ele>157.5</ele><time>2026-05-03T09:26:00.223Z</time></trkpt><trkpt lat="44.7632947" lon="8.463185"><ele>157.33333333333334</ele><time>2026-05-03T09:26:01.223Z</time></trkpt><trkpt lat="44.763361" lon="8.4631347"><ele>157.16666666666669</ele><time>2026-05-03T09:26:02.223Z</time></trkpt><trkpt lat="44.7634365" lon="8.4631101"><ele>157.0</ele><time>2026-05-03T09:26:03.223Z</time></trkpt><trkpt lat="44.7635169" lon="8.4631037"><ele>157.66666666666669</ele><time>2026-05-03T09:26:04.223Z</time></trkpt><trkpt lat="44.7636009" lon="8.4631007"><ele>158.33333333333334</ele><time>2026-05-03T09:26:05.223Z</time></trkpt><trkpt lat="44.7636888" lon="8.4630897"><ele>159.0</ele><time>2026-05-03T09:26:06.223Z</time></trkpt><trkpt lat="44.7637705" lon="8.4630768"><ele>159.66666666666666</ele><time>2026-05-03T09:26:07.223Z</time></trkpt><trkpt lat="44.7638383" lon="8.4630578"><ele>160.33333333333331</ele><time>2026-05-03T09:26:08.223Z</time></trkpt><trkpt lat="44.7639459" lon="8.4630203"><ele>161.0</ele><time>2026-05-03T09:26:10.223Z</time></trkpt><trkpt lat="44.7640235" lon="8.4630077"><ele>161.0</ele><time>2026-05-03T09:26:12.223Z</time></trkpt><trkpt lat="44.7641126" lon="8.4630011"><ele>161.0</ele><time>2026-05-03T09:26:14.223Z</time></trkpt><trkpt lat="44.764176" lon="8.4629962"><ele>161.0</ele><time>2026-05-03T09:26:15.223Z</time></trkpt><trkpt lat="44.764241" lon="8.4630034"><ele>161.0</ele><time>2026-05-03T09:26:16.223Z</time></trkpt><trkpt lat="44.7643125" lon="8.4630349"><ele>161.0</ele><time>2026-05-03T09:26:17.223Z</time></trkpt><trkpt lat="44.7643811" lon="8.463096"><ele>161.0</ele><time>2026-05-03T09:26:18.223Z</time></trkpt><trkpt lat="44.7644398" lon="8.4631773"><ele>162.16666666666666</ele><time>2026-05-03T09:26:19.224Z</time></trkpt><trkpt lat="44.764496" lon="8.463262"><ele>163.33333333333331</ele><time>2026-05-03T09:26:20.224Z</time></trkpt><trkpt lat="44.764546" lon="8.4633541"><ele>164.5</ele><time>2026-05-03T09:26:21.224Z</time></trkpt><trkpt lat="44.7645976" lon="8.4634511"><ele>165.66666666666666</ele><time>2026-05-03T09:26:22.223Z</time></trkpt><trkpt lat="44.7646506" lon="8.4635521"><ele>166.83333333333334</ele><time>2026-05-03T09:26:23.223Z</time></trkpt><trkpt lat="44.7647013" lon="8.4636557"><ele>168.0</ele><time>2026-05-03T09:26:24.224Z</time></trkpt><trkpt lat="44.7647516" lon="8.4637596"><ele>167.5</ele><time>2026-05-03T09:26:25.224Z</time></trkpt><trkpt lat="44.7648" lon="8.4638602"><ele>167.0</ele><time>2026-05-03T09:26:26.224Z</time></trkpt><trkpt lat="44.7648444" lon="8.4639585"><ele>166.5</ele><time>2026-05-03T09:26:27.225Z</time></trkpt><trkpt lat="44.7648854" lon="8.4640549"><ele>166.0</ele><time>2026-05-03T09:26:28.224Z</time></trkpt><trkpt lat="44.7649272" lon="8.4641527"><ele>165.5</ele><time>2026-05-03T09:26:29.225Z</time></trkpt><trkpt lat="44.7649702" lon="8.4642502"><ele>165.0</ele><time>2026-05-03T09:26:30.224Z</time></trkpt><trkpt lat="44.7650135" lon="8.4643402"><ele>165.0</ele><time>2026-05-03T09:26:31.225Z</time></trkpt><trkpt lat="44.7650527" lon="8.4644175"><ele>165.0</ele><time>2026-05-03T09:26:32.224Z</time></trkpt><trkpt lat="44.7651127" lon="8.4645389"><ele>165.0</ele><time>2026-05-03T09:26:34.224Z</time></trkpt><trkpt lat="44.7651613" lon="8.4646159"><ele>165.0</ele><time>2026-05-03T09:26:36.224Z</time></trkpt><trkpt lat="44.7652565" lon="8.4646663"><ele>165.0</ele><time>2026-05-03T09:26:38.224Z</time></trkpt><trkpt lat="44.7653718" lon="8.4646455"><ele>165.83333333333334</ele><time>2026-05-03T09:26:40.224Z</time></trkpt><trkpt lat="44.7654376" lon="8.4646041"><ele>166.66666666666666</ele><time>2026-05-03T09:26:41.224Z</time></trkpt><trkpt lat="44.7655052" lon="8.4645606"><ele>167.5</ele><time>2026-05-03T09:26:42.225Z</time></trkpt><trkpt lat="44.7655785" lon="8.4645169"><ele>168.33333333333331</ele><time>2026-05-03T09:26:43.224Z</time></trkpt><trkpt lat="44.7656501" lon="8.4644746"><ele>169.16666666666666</ele><time>2026-05-03T09:26:44.224Z</time></trkpt><trkpt lat="44.7657211" lon="8.464425"><ele>170.0</ele><time>2026-05-03T09:26:45.224Z</time></trkpt><trkpt lat="44.7657932" lon="8.4643732"><ele>170.0</ele><time>2026-05-03T09:26:46.224Z</time></trkpt><trkpt lat="44.7658671" lon="8.4643234"><ele>170.0</ele><time>2026-05-03T09:26:47.224Z</time></trkpt><trkpt lat="44.7659434" lon="8.4642742"><ele>170.0</ele><time>2026-05-03T09:26:48.224Z</time></trkpt><trkpt lat="44.7660196" lon="8.4642219"><ele>170.0</ele><time>2026-05-03T09:26:49.224Z</time></trkpt><trkpt lat="44.7660959" lon="8.4641657"><ele>170.0</ele><time>2026-05-03T09:26:50.225Z</time></trkpt><trkpt lat="44.766167" lon="8.4640953"><ele>170.0</ele><time>2026-05-03T09:26:51.224Z</time></trkpt><trkpt lat="44.7662245" lon="8.4640183"><ele>172.0</ele><time>2026-05-03T09:26:52.224Z</time></trkpt><trkpt lat="44.7662685" lon="8.4639257"><ele>174.0</ele><time>2026-05-03T09:26:53.226Z</time></trkpt><trkpt lat="44.7663086" lon="8.4638193"><ele>176.0</ele><time>2026-05-03T09:26:54.224Z</time></trkpt><trkpt lat="44.7663437" lon="8.463706"><ele>178.0</ele><time>2026-05-03T09:26:55.224Z</time></trkpt><trkpt lat="44.7663748" lon="8.4635981"><ele>180.0</ele><time>2026-05-03T09:26:56.225Z</time></trkpt><trkpt lat="44.7664088" lon="8.4634956"><ele>182.0</ele><time>2026-05-03T09:26:57.225Z</time></trkpt><trkpt lat="44.7664445" lon="8.4633966"><ele>182.0</ele><time>2026-05-03T09:26:58.224Z</time></trkpt><trkpt lat="44.7664807" lon="8.4633007"><ele>182.0</ele><time>2026-05-03T09:26:59.224Z</time></trkpt><trkpt lat="44.7665151" lon="8.4632004"><ele>182.0</ele><time>2026-05-03T09:27:00.225Z</time></trkpt><trkpt lat="44.766549" lon="8.4631002"><ele>182.0</ele><time>2026-05-03T09:27:01.225Z</time></trkpt><trkpt lat="44.7665833" lon="8.4630011"><ele>182.0</ele><time>2026-05-03T09:27:02.225Z</time></trkpt><trkpt lat="44.7666192" lon="8.4629068"><ele>182.0</ele><time>2026-05-03T09:27:03.225Z</time></trkpt><trkpt lat="44.7666568" lon="8.4628146"><ele>182.0</ele><time>2026-05-03T09:27:04.224Z</time></trkpt><trkpt lat="44.7666948" lon="8.4627218"><ele>182.0</ele><time>2026-05-03T09:27:05.224Z</time></trkpt><trkpt lat="44.766732" lon="8.462627"><ele>182.0</ele><time>2026-05-03T09:27:06.224Z</time></trkpt><trkpt lat="44.7667673" lon="8.4625368"><ele>182.0</ele><time>2026-05-03T09:27:07.224Z</time></trkpt><trkpt lat="44.7667988" lon="8.4624381"><ele>182.0</ele><time>2026-05-03T09:27:08.224Z</time></trkpt><trkpt lat="44.7668288" lon="8.462337"><ele>182.0</ele><time>2026-05-03T09:27:09.225Z</time></trkpt><trkpt lat="44.7668613" lon="8.4622388"><ele>184.5</ele><time>2026-05-03T09:27:10.225Z</time></trkpt><trkpt lat="44.7668971" lon="8.4621401"><ele>187.0</ele><time>2026-05-03T09:27:11.225Z</time></trkpt><trkpt lat="44.7669324" lon="8.4620454"><ele>189.5</ele><time>2026-05-03T09:27:12.225Z</time></trkpt><trkpt lat="44.766961" lon="8.4619482"><ele>192.0</ele><time>2026-05-03T09:27:13.225Z</time></trkpt><trkpt lat="44.7669841" lon="8.4618495"><ele>194.50000000000003</ele><time>2026-05-03T09:27:14.225Z</time></trkpt><trkpt lat="44.7670016" lon="8.4617486"><ele>197.0</ele><time>2026-05-03T09:27:15.225Z</time></trkpt><trkpt lat="44.7670201" lon="8.4616443"><ele>197.0</ele><time>2026-05-03T09:27:16.225Z</time></trkpt><trkpt lat="44.767043" lon="8.4615454"><ele>197.0</ele><time>2026-05-03T09:27:17.225Z</time></trkpt><trkpt lat="44.7670651" lon="8.4614477"><ele>197.0</ele><time>2026-05-03T09:27:18.226Z</time></trkpt><trkpt lat="44.7670865" lon="8.4613496"><ele>197.0</ele><time>2026-05-03T09:27:19.225Z</time></trkpt><trkpt lat="44.7671064" lon="8.4612502"><ele>197.0</ele><time>2026-05-03T09:27:20.225Z</time></trkpt><trkpt lat="44.7671261" lon="8.4611494"><ele>197.0</ele><time>2026-05-03T09:27:21.225Z</time></trkpt><trkpt lat="44.767147" lon="8.4610492"><ele>197.0</ele><time>2026-05-03T09:27:22.225Z</time></trkpt><trkpt lat="44.7671694" lon="8.4609492"><ele>197.16666666666669</ele><time>2026-05-03T09:27:23.226Z</time></trkpt><trkpt lat="44.7671918" lon="8.4608483"><ele>197.33333333333334</ele><time>2026-05-03T09:27:24.226Z</time></trkpt><trkpt lat="44.7672119" lon="8.4607466"><ele>197.5</ele><time>2026-05-03T09:27:25.225Z</time></trkpt><trkpt lat="44.7672316" lon="8.4606453"><ele>197.66666666666669</ele><time>2026-05-03T09:27:26.225Z</time></trkpt><trkpt lat="44.7672545" lon="8.4605418"><ele>197.83333333333334</ele><time>2026-05-03T09:27:27.225Z</time></trkpt><trkpt lat="44.7672801" lon="8.4604355"><ele>198.0</ele><time>2026-05-03T09:27:28.225Z</time></trkpt><trkpt lat="44.7673077" lon="8.4603224"><ele>198.0</ele><time>2026-05-03T09:27:29.225Z</time></trkpt><trkpt lat="44.7673352" lon="8.4602072"><ele>198.0</ele><time>2026-05-03T09:27:30.225Z</time></trkpt><trkpt lat="44.7673581" lon="8.4600947"><ele>198.0</ele><time>2026-05-03T09:27:31.225Z</time></trkpt><trkpt lat="44.7673817" lon="8.4599781"><ele>198.0</ele><time>2026-05-03T09:27:32.225Z</time></trkpt><trkpt lat="44.767406" lon="8.4598635"><ele>198.0</ele><time>2026-05-03T09:27:33.226Z</time></trkpt><trkpt lat="44.7674301" lon="8.4597463"><ele>198.0</ele><time>2026-05-03T09:27:34.225Z</time></trkpt><trkpt lat="44.7674524" lon="8.4596271"><ele>197.83333333333334</ele><time>2026-05-03T09:27:35.225Z</time></trkpt><trkpt lat="44.7674744" lon="8.4595093"><ele>197.66666666666669</ele><time>2026-05-03T09:27:36.225Z</time></trkpt><trkpt lat="44.7674929" lon="8.4593959"><ele>197.5</ele><time>2026-05-03T09:27:37.225Z</time></trkpt><trkpt lat="44.7675078" lon="8.4592836"><ele>197.33333333333334</ele><time>2026-05-03T09:27:38.225Z</time></trkpt><trkpt lat="44.7675155" lon="8.459173"><ele>197.16666666666669</ele><time>2026-05-03T09:27:39.225Z</time></trkpt><trkpt lat="44.7675186" lon="8.4590628"><ele>197.0</ele><time>2026-05-03T09:27:40.225Z</time></trkpt><trkpt lat="44.7675176" lon="8.4589525"><ele>197.00000000000003</ele><time>2026-05-03T09:27:41.226Z</time></trkpt><trkpt lat="44.7675149" lon="8.4588406"><ele>197.0</ele><time>2026-05-03T09:27:42.226Z</time></trkpt><trkpt lat="44.767509" lon="8.4587283"><ele>197.0</ele><time>2026-05-03T09:27:43.225Z</time></trkpt><trkpt lat="44.7675028" lon="8.4586189"><ele>197.0</ele><time>2026-05-03T09:27:44.226Z</time></trkpt><trkpt lat="44.7674899" lon="8.4585055"><ele>197.00000000000003</ele><time>2026-05-03T09:27:45.226Z</time></trkpt><trkpt lat="44.7674693" lon="8.4583943"><ele>197.0</ele><time>2026-05-03T09:27:46.226Z</time></trkpt><trkpt lat="44.7674468" lon="8.4582787"><ele>197.16666666666669</ele><time>2026-05-03T09:27:47.225Z</time></trkpt><trkpt lat="44.767425" lon="8.4581592"><ele>197.33333333333334</ele><time>2026-05-03T09:27:48.225Z</time></trkpt><trkpt lat="44.7674024" lon="8.4580373"><ele>197.5</ele><time>2026-05-03T09:27:49.225Z</time></trkpt><trkpt lat="44.7673778" lon="8.457919"><ele>197.66666666666669</ele><time>2026-05-03T09:27:50.226Z</time></trkpt><trkpt lat="44.7673502" lon="8.4578008"><ele>197.83333333333334</ele><time>2026-05-03T09:27:51.225Z</time></trkpt><trkpt lat="44.767321" lon="8.4576767"><ele>198.0</ele><time>2026-05-03T09:27:52.225Z</time></trkpt><trkpt lat="44.7672917" lon="8.4575491"><ele>198.8</ele><time>2026-05-03T09:27:53.225Z</time></trkpt><trkpt lat="44.7672643" lon="8.4574219"><ele>199.60000000000002</ele><time>2026-05-03T09:27:54.225Z</time></trkpt><trkpt lat="44.7672399" lon="8.4572956"><ele>200.39999999999998</ele><time>2026-05-03T09:27:55.226Z</time></trkpt><trkpt lat="44.7672167" lon="8.4571719"><ele>201.2</ele><time>2026-05-03T09:27:56.226Z</time></trkpt><trkpt lat="44.7671915" lon="8.4570471"><ele>202.0</ele><time>2026-05-03T09:27:57.226Z</time></trkpt><trkpt lat="44.7671644" lon="8.4569194"><ele>202.8</ele><time>2026-05-03T09:27:58.226Z</time></trkpt><trkpt lat="44.7671361" lon="8.4567923"><ele>203.6</ele><time>2026-05-03T09:27:59.226Z</time></trkpt><trkpt lat="44.7671083" lon="8.4566671"><ele>204.4</ele><time>2026-05-03T09:28:00.226Z</time></trkpt><trkpt lat="44.7670809" lon="8.4565436"><ele>205.20000000000002</ele><time>2026-05-03T09:28:01.227Z</time></trkpt><trkpt lat="44.7670552" lon="8.4564218"><ele>206.0</ele><time>2026-05-03T09:28:02.227Z</time></trkpt><trkpt lat="44.7670323" lon="8.4563023"><ele>207.16666666666669</ele><time>2026-05-03T09:28:03.226Z</time></trkpt><trkpt lat="44.7670089" lon="8.4561819"><ele>208.33333333333334</ele><time>2026-05-03T09:28:04.226Z</time></trkpt><trkpt lat="44.7669838" lon="8.4560614"><ele>209.5</ele><time>2026-05-03T09:28:05.226Z</time></trkpt><trkpt lat="44.7669579" lon="8.4559401"><ele>210.66666666666669</ele><time>2026-05-03T09:28:06.226Z</time></trkpt><trkpt lat="44.7669328" lon="8.4558175"><ele>211.83333333333334</ele><time>2026-05-03T09:28:07.226Z</time></trkpt><trkpt lat="44.76691" lon="8.455695"><ele>213.0</ele><time>2026-05-03T09:28:08.226Z</time></trkpt><trkpt lat="44.7668883" lon="8.4555746"><ele>213.0</ele><time>2026-05-03T09:28:09.226Z</time></trkpt><trkpt lat="44.7668688" lon="8.4554566"><ele>213.0</ele><time>2026-05-03T09:28:10.227Z</time></trkpt><trkpt lat="44.7668494" lon="8.4553404"><ele>213.0</ele><time>2026-05-03T09:28:11.226Z</time></trkpt><trkpt lat="44.7668295" lon="8.4552248"><ele>213.0</ele><time>2026-05-03T09:28:12.226Z</time></trkpt><trkpt lat="44.766812" lon="8.4551103"><ele>213.0</ele><time>2026-05-03T09:28:13.226Z</time></trkpt><trkpt lat="44.7667948" lon="8.4549996"><ele>213.0</ele><time>2026-05-03T09:28:14.227Z</time></trkpt><trkpt lat="44.7667766" lon="8.4548915"><ele>212.5</ele><time>2026-05-03T09:28:15.227Z</time></trkpt><trkpt lat="44.76676" lon="8.454783"><ele>212.0</ele><time>2026-05-03T09:28:16.226Z</time></trkpt><trkpt lat="44.7667454" lon="8.4546759"><ele>211.5</ele><time>2026-05-03T09:28:17.226Z</time></trkpt><trkpt lat="44.7667309" lon="8.4545702"><ele>211.0</ele><time>2026-05-03T09:28:18.226Z</time></trkpt><trkpt lat="44.7667162" lon="8.4544643"><ele>210.5</ele><time>2026-05-03T09:28:19.226Z</time></trkpt><trkpt lat="44.7667011" lon="8.4543556"><ele>210.0</ele><time>2026-05-03T09:28:20.226Z</time></trkpt><trkpt lat="44.7666845" lon="8.4542498"><ele>210.0</ele><time>2026-05-03T09:28:21.227Z</time></trkpt><trkpt lat="44.7666653" lon="8.4541467"><ele>210.0</ele><time>2026-05-03T09:28:22.226Z</time></trkpt><trkpt lat="44.7666447" lon="8.454045"><ele>210.0</ele><time>2026-05-03T09:28:23.227Z</time></trkpt><trkpt lat="44.7666239" lon="8.4539449"><ele>210.0</ele><time>2026-05-03T09:28:24.227Z</time></trkpt><trkpt lat="44.7666037" lon="8.4538449"><ele>210.0</ele><time>2026-05-03T09:28:25.227Z</time></trkpt><trkpt lat="44.7665831" lon="8.4537474"><ele>210.0</ele><time>2026-05-03T09:28:26.226Z</time></trkpt><trkpt lat="44.7665583" lon="8.4536538"><ele>210.0</ele><time>2026-05-03T09:28:27.226Z</time></trkpt><trkpt lat="44.7665288" lon="8.4535614"><ele>211.0</ele><time>2026-05-03T09:28:28.226Z</time></trkpt><trkpt lat="44.7665015" lon="8.4534688"><ele>212.0</ele><time>2026-05-03T09:28:29.226Z</time></trkpt><trkpt lat="44.7664786" lon="8.4533815"><ele>213.0</ele><time>2026-05-03T09:28:30.226Z</time></trkpt><trkpt lat="44.7664575" lon="8.4532955"><ele>214.0</ele><time>2026-05-03T09:28:31.226Z</time></trkpt><trkpt lat="44.7664372" lon="8.4532058"><ele>215.0</ele><time>2026-05-03T09:28:32.226Z</time></trkpt><trkpt lat="44.7664156" lon="8.4531121"><ele>216.0</ele><time>2026-05-03T09:28:33.226Z</time></trkpt><trkpt lat="44.7663913" lon="8.4530175"><ele>217.0</ele><time>2026-05-03T09:28:34.227Z</time></trkpt><trkpt lat="44.7663661" lon="8.4529246"><ele>217.85714285714286</ele><time>2026-05-03T09:28:35.226Z</time></trkpt><trkpt lat="44.7663413" lon="8.4528288"><ele>218.71428571428572</ele><time>2026-05-03T09:28:36.226Z</time></trkpt><trkpt lat="44.7663187" lon="8.4527334"><ele>219.57142857142856</ele><time>2026-05-03T09:28:37.226Z</time></trkpt><trkpt lat="44.7662973" lon="8.4526369"><ele>220.42857142857144</ele><time>2026-05-03T09:28:38.227Z</time></trkpt><trkpt lat="44.7662744" lon="8.4525395"><ele>221.28571428571428</ele><time>2026-05-03T09:28:39.227Z</time></trkpt><trkpt lat="44.766249" lon="8.45244"><ele>222.14285714285714</ele><time>2026-05-03T09:28:40.226Z</time></trkpt><trkpt lat="44.7662243" lon="8.4523376"><ele>223.0</ele><time>2026-05-03T09:28:41.227Z</time></trkpt><trkpt lat="44.7662002" lon="8.4522365"><ele>222.99999999999997</ele><time>2026-05-03T09:28:42.227Z</time></trkpt><trkpt lat="44.7661753" lon="8.4521308"><ele>223.0</ele><time>2026-05-03T09:28:43.228Z</time></trkpt><trkpt lat="44.7661497" lon="8.4520305"><ele>223.0</ele><time>2026-05-03T09:28:44.227Z</time></trkpt><trkpt lat="44.7661226" lon="8.4519375"><ele>223.0</ele><time>2026-05-03T09:28:45.227Z</time></trkpt><trkpt lat="44.7660962" lon="8.4518357"><ele>222.99999999999997</ele><time>2026-05-03T09:28:46.228Z</time></trkpt><trkpt lat="44.7660732" lon="8.4517279"><ele>223.0</ele><time>2026-05-03T09:28:47.227Z</time></trkpt><trkpt lat="44.7660509" lon="8.4516195"><ele>223.16666666666666</ele><time>2026-05-03T09:28:48.228Z</time></trkpt><trkpt lat="44.7660266" lon="8.4515152"><ele>223.33333333333331</ele><time>2026-05-03T09:28:49.227Z</time></trkpt><trkpt lat="44.7659989" lon="8.4514132"><ele>223.5</ele><time>2026-05-03T09:28:50.227Z</time></trkpt><trkpt lat="44.7659688" lon="8.4513118"><ele>223.66666666666669</ele><time>2026-05-03T09:28:51.227Z</time></trkpt><trkpt lat="44.7659379" lon="8.4512094"><ele>223.83333333333334</ele><time>2026-05-03T09:28:52.228Z</time></trkpt><trkpt lat="44.7659059" lon="8.451107"><ele>224.0</ele><time>2026-05-03T09:28:53.227Z</time></trkpt><trkpt lat="44.7658723" lon="8.4510058"><ele>224.00000000000003</ele><time>2026-05-03T09:28:54.227Z</time></trkpt><trkpt lat="44.7658384" lon="8.4509027"><ele>224.0</ele><time>2026-05-03T09:28:55.227Z</time></trkpt><trkpt lat="44.7658038" lon="8.4507994"><ele>224.0</ele><time>2026-05-03T09:28:56.228Z</time></trkpt><trkpt lat="44.7657691" lon="8.4506949"><ele>224.0</ele><time>2026-05-03T09:28:57.227Z</time></trkpt><trkpt lat="44.7657342" lon="8.4505903"><ele>224.00000000000003</ele><time>2026-05-03T09:28:58.227Z</time></trkpt><trkpt lat="44.7657" lon="8.4504857"><ele>224.0</ele><time>2026-05-03T09:28:59.228Z</time></trkpt><trkpt lat="44.7656662" lon="8.4503814"><ele>225.16666666666669</ele><time>2026-05-03T09:29:00.227Z</time></trkpt><trkpt lat="44.765631" lon="8.4502752"><ele>226.33333333333334</ele><time>2026-05-03T09:29:01.227Z</time></trkpt><trkpt lat="44.765596" lon="8.4501686"><ele>227.5</ele><time>2026-05-03T09:29:02.227Z</time></trkpt><trkpt lat="44.7655603" lon="8.4500642"><ele>228.66666666666669</ele><time>2026-05-03T09:29:03.227Z</time></trkpt><trkpt lat="44.7655284" lon="8.4499594"><ele>229.83333333333334</ele><time>2026-05-03T09:29:04.227Z</time></trkpt><trkpt lat="44.7655085" lon="8.4498545"><ele>231.0</ele><time>2026-05-03T09:29:05.228Z</time></trkpt><trkpt lat="44.7655032" lon="8.4497545"><ele>231.0</ele><time>2026-05-03T09:29:06.227Z</time></trkpt><trkpt lat="44.7655124" lon="8.4496495"><ele>231.0</ele><time>2026-05-03T09:29:07.227Z</time></trkpt><trkpt lat="44.7655367" lon="8.4495535"><ele>231.0</ele><time>2026-05-03T09:29:08.228Z</time></trkpt><trkpt lat="44.7655705" lon="8.4494674"><ele>231.0</ele><time>2026-05-03T09:29:09.227Z</time></trkpt><trkpt lat="44.7656078" lon="8.4493899"><ele>231.0</ele><time>2026-05-03T09:29:10.227Z</time></trkpt><trkpt lat="44.7656993" lon="8.4492932"><ele>231.0</ele><time>2026-05-03T09:29:12.228Z</time></trkpt><trkpt lat="44.7657986" lon="8.4492797"><ele>231.0</ele><time>2026-05-03T09:29:14.227Z</time></trkpt><trkpt lat="44.7658605" lon="8.4493278"><ele>231.0</ele><time>2026-05-03T09:29:16.228Z</time></trkpt><trkpt lat="44.7659163" lon="8.4494514"><ele>231.0</ele><time>2026-05-03T09:29:18.227Z</time></trkpt><trkpt lat="44.7659502" lon="8.4495374"><ele>231.0</ele><time>2026-05-03T09:29:19.228Z</time></trkpt><trkpt lat="44.7659925" lon="8.4496289"><ele>231.0</ele><time>2026-05-03T09:29:20.228Z</time></trkpt><trkpt lat="44.7660396" lon="8.4497196"><ele>231.0</ele><time>2026-05-03T09:29:21.227Z</time></trkpt><trkpt lat="44.7660884" lon="8.4498111"><ele>233.4</ele><time>2026-05-03T09:29:22.228Z</time></trkpt><trkpt lat="44.7661351" lon="8.4498979"><ele>235.8</ele><time>2026-05-03T09:29:23.227Z</time></trkpt><trkpt lat="44.7661848" lon="8.4499961"><ele>238.20000000000002</ele><time>2026-05-03T09:29:24.227Z</time></trkpt><trkpt lat="44.7662406" lon="8.450108"><ele>240.60000000000002</ele><time>2026-05-03T09:29:25.227Z</time></trkpt><trkpt lat="44.7662996" lon="8.4502239"><ele>243.0</ele><time>2026-05-03T09:29:26.227Z</time></trkpt><trkpt lat="44.7663573" lon="8.4503327"><ele>243.0</ele><time>2026-05-03T09:29:27.228Z</time></trkpt><trkpt lat="44.7664142" lon="8.450438"><ele>243.0</ele><time>2026-05-03T09:29:28.228Z</time></trkpt><trkpt lat="44.7664719" lon="8.4505398"><ele>243.0</ele><time>2026-05-03T09:29:29.229Z</time></trkpt><trkpt lat="44.7665274" lon="8.4506391"><ele>243.0</ele><time>2026-05-03T09:29:30.228Z</time></trkpt><trkpt lat="44.7665813" lon="8.4507348"><ele>243.0</ele><time>2026-05-03T09:29:31.228Z</time></trkpt><trkpt lat="44.7666355" lon="8.450828"><ele>243.0</ele><time>2026-05-03T09:29:32.229Z</time></trkpt><trkpt lat="44.7666879" lon="8.4509217"><ele>243.5</ele><time>2026-05-03T09:29:33.228Z</time></trkpt><trkpt lat="44.7667359" lon="8.4510175"><ele>244.0</ele><time>2026-05-03T09:29:34.229Z</time></trkpt><trkpt lat="44.7667819" lon="8.4511142"><ele>244.5</ele><time>2026-05-03T09:29:35.228Z</time></trkpt><trkpt lat="44.7668284" lon="8.4512085"><ele>245.0</ele><time>2026-05-03T09:29:36.228Z</time></trkpt><trkpt lat="44.7668748" lon="8.4513038"><ele>245.5</ele><time>2026-05-03T09:29:37.229Z</time></trkpt><trkpt lat="44.7669195" lon="8.4514008"><ele>246.0</ele><time>2026-05-03T09:29:38.229Z</time></trkpt><trkpt lat="44.7669647" lon="8.4514973"><ele>246.0</ele><time>2026-05-03T09:29:39.228Z</time></trkpt><trkpt lat="44.7670113" lon="8.4515912"><ele>246.0</ele><time>2026-05-03T09:29:40.229Z</time></trkpt><trkpt lat="44.7670609" lon="8.4516827"><ele>246.0</ele><time>2026-05-03T09:29:41.228Z</time></trkpt><trkpt lat="44.7671139" lon="8.4517742"><ele>246.0</ele><time>2026-05-03T09:29:42.228Z</time></trkpt><trkpt lat="44.767165" lon="8.4518732"><ele>246.0</ele><time>2026-05-03T09:29:43.228Z</time></trkpt><trkpt lat="44.7672155" lon="8.4519743"><ele>246.0</ele><time>2026-05-03T09:29:44.229Z</time></trkpt><trkpt lat="44.7672633" lon="8.4520768"><ele>244.60000000000002</ele><time>2026-05-03T09:29:45.228Z</time></trkpt><trkpt lat="44.7673158" lon="8.4521786"><ele>243.20000000000002</ele><time>2026-05-03T09:29:46.229Z</time></trkpt><trkpt lat="44.7673778" lon="8.4522802"><ele>241.79999999999998</ele><time>2026-05-03T09:29:47.228Z</time></trkpt><trkpt lat="44.7674378" lon="8.4523829"><ele>240.39999999999998</ele><time>2026-05-03T09:29:48.229Z</time></trkpt><trkpt lat="44.7674954" lon="8.4524885"><ele>239.0</ele><time>2026-05-03T09:29:49.228Z</time></trkpt><trkpt lat="44.7675529" lon="8.4525916"><ele>239.00000000000003</ele><time>2026-05-03T09:29:50.229Z</time></trkpt><trkpt lat="44.7676097" lon="8.452687"><ele>239.0</ele><time>2026-05-03T09:29:51.229Z</time></trkpt><trkpt lat="44.7676626" lon="8.4527717"><ele>239.0</ele><time>2026-05-03T09:29:52.229Z</time></trkpt><trkpt lat="44.7677177" lon="8.4528486"><ele>239.0</ele><time>2026-05-03T09:29:53.228Z</time></trkpt><trkpt lat="44.7677791" lon="8.4529174"><ele>239.00000000000003</ele><time>2026-05-03T09:29:54.228Z</time></trkpt><trkpt lat="44.7678497" lon="8.4529686"><ele>239.0</ele><time>2026-05-03T09:29:55.228Z</time></trkpt><trkpt lat="44.7679284" lon="8.4530005"><ele>240.00000000000003</ele><time>2026-05-03T09:29:56.228Z</time></trkpt><trkpt lat="44.7680076" lon="8.4530162"><ele>241.0</ele><time>2026-05-03T09:29:57.229Z</time></trkpt><trkpt lat="44.7680877" lon="8.4530202"><ele>242.0</ele><time>2026-05-03T09:29:58.228Z</time></trkpt><trkpt lat="44.7681707" lon="8.453007"><ele>243.0</ele><time>2026-05-03T09:29:59.229Z</time></trkpt><trkpt lat="44.7682495" lon="8.4529761"><ele>244.00000000000003</ele><time>2026-05-03T09:30:00.228Z</time></trkpt><trkpt lat="44.7683211" lon="8.4529277"><ele>245.0</ele><time>2026-05-03T09:30:01.229Z</time></trkpt><trkpt lat="44.7683958" lon="8.4528604"><ele>245.16666666666669</ele><time>2026-05-03T09:30:02.228Z</time></trkpt><trkpt lat="44.7684644" lon="8.4527791"><ele>245.33333333333334</ele><time>2026-05-03T09:30:03.228Z</time></trkpt><trkpt lat="44.7685247" lon="8.4526859"><ele>245.5</ele><time>2026-05-03T09:30:04.229Z</time></trkpt><trkpt lat="44.7685679" lon="8.4525829"><ele>245.66666666666669</ele><time>2026-05-03T09:30:05.229Z</time></trkpt><trkpt lat="44.768597" lon="8.4524732"><ele>245.83333333333334</ele><time>2026-05-03T09:30:06.228Z</time></trkpt><trkpt lat="44.7686146" lon="8.4523549"><ele>246.0</ele><time>2026-05-03T09:30:07.228Z</time></trkpt><trkpt lat="44.7686271" lon="8.4522431"><ele>246.16666666666666</ele><time>2026-05-03T09:30:08.228Z</time></trkpt><trkpt lat="44.7686406" lon="8.4521332"><ele>246.33333333333331</ele><time>2026-05-03T09:30:09.228Z</time></trkpt><trkpt lat="44.7686594" lon="8.4520257"><ele>246.5</ele><time>2026-05-03T09:30:10.228Z</time></trkpt><trkpt lat="44.7686802" lon="8.4519198"><ele>246.66666666666666</ele><time>2026-05-03T09:30:11.228Z</time></trkpt><trkpt lat="44.7687012" lon="8.4518117"><ele>246.83333333333331</ele><time>2026-05-03T09:30:12.228Z</time></trkpt><trkpt lat="44.7687256" lon="8.4517091"><ele>247.0</ele><time>2026-05-03T09:30:13.229Z</time></trkpt><trkpt lat="44.7687506" lon="8.4515954"><ele>246.99999999999997</ele><time>2026-05-03T09:30:14.229Z</time></trkpt><trkpt lat="44.7687688" lon="8.4514899"><ele>247.0</ele><time>2026-05-03T09:30:15.23Z</time></trkpt><trkpt lat="44.7687849" lon="8.4513714"><ele>247.0</ele><time>2026-05-03T09:30:16.229Z</time></trkpt><trkpt lat="44.768803" lon="8.4512554"><ele>247.0</ele><time>2026-05-03T09:30:17.23Z</time></trkpt><trkpt lat="44.7688252" lon="8.451144"><ele>246.99999999999997</ele><time>2026-05-03T09:30:18.229Z</time></trkpt><trkpt lat="44.7688511" lon="8.4510162"><ele>247.0</ele><time>2026-05-03T09:30:19.229Z</time></trkpt><trkpt lat="44.7688725" lon="8.450899"><ele>247.57142857142858</ele><time>2026-05-03T09:30:20.229Z</time></trkpt><trkpt lat="44.7688944" lon="8.4507904"><ele>248.1428571428571</ele><time>2026-05-03T09:30:21.229Z</time></trkpt><trkpt lat="44.7689155" lon="8.4506866"><ele>248.7142857142857</ele><time>2026-05-03T09:30:22.23Z</time></trkpt><trkpt lat="44.7689359" lon="8.4505824"><ele>249.28571428571428</ele><time>2026-05-03T09:30:23.23Z</time></trkpt><trkpt lat="44.7689539" lon="8.4504809"><ele>249.85714285714283</ele><time>2026-05-03T09:30:24.229Z</time></trkpt><trkpt lat="44.7689726" lon="8.4503817"><ele>250.4285714285714</ele><time>2026-05-03T09:30:25.23Z</time></trkpt><trkpt lat="44.7689909" lon="8.4502891"><ele>250.99999999999997</ele><time>2026-05-03T09:30:26.229Z</time></trkpt><trkpt lat="44.769011" lon="8.4501959"><ele>252.33333333333334</ele><time>2026-05-03T09:30:27.23Z</time></trkpt><trkpt lat="44.7690347" lon="8.450097"><ele>253.66666666666669</ele><time>2026-05-03T09:30:28.229Z</time></trkpt><trkpt lat="44.7690544" lon="8.4500039"><ele>255.0</ele><time>2026-05-03T09:30:29.229Z</time></trkpt><trkpt lat="44.7690938" lon="8.4498342"><ele>256.3333333333333</ele><time>2026-05-03T09:30:31.229Z</time></trkpt><trkpt lat="44.7691244" lon="8.4497429"><ele>257.66666666666663</ele><time>2026-05-03T09:30:32.229Z</time></trkpt><trkpt lat="44.7691609" lon="8.4496595"><ele>259.0</ele><time>2026-05-03T09:30:33.229Z</time></trkpt><trkpt lat="44.769197" lon="8.4495736"><ele>260.7142857142857</ele><time>2026-05-03T09:30:34.229Z</time></trkpt><trkpt lat="44.7692429" lon="8.4494939"><ele>262.42857142857144</ele><time>2026-05-03T09:30:35.229Z</time></trkpt><trkpt lat="44.7692973" lon="8.4494212"><ele>264.1428571428571</ele><time>2026-05-03T09:30:36.23Z</time></trkpt><trkpt lat="44.76936" lon="8.4493617"><ele>265.8571428571429</ele><time>2026-05-03T09:30:37.23Z</time></trkpt><trkpt lat="44.7694276" lon="8.4493166"><ele>267.57142857142856</ele><time>2026-05-03T09:30:38.23Z</time></trkpt><trkpt lat="44.769493" lon="8.4492882"><ele>269.2857142857143</ele><time>2026-05-03T09:30:39.23Z</time></trkpt><trkpt lat="44.7695589" lon="8.4492675"><ele>271.0</ele><time>2026-05-03T09:30:40.23Z</time></trkpt><trkpt lat="44.7696308" lon="8.4492709"><ele>271.0</ele><time>2026-05-03T09:30:41.229Z</time></trkpt><trkpt lat="44.7697516" lon="8.4492752"><ele>271.0</ele><time>2026-05-03T09:30:43.229Z</time></trkpt><trkpt lat="44.7698708" lon="8.4492906"><ele>271.0</ele><time>2026-05-03T09:30:45.229Z</time></trkpt><trkpt lat="44.7699353" lon="8.4492951"><ele>271.0</ele><time>2026-05-03T09:30:46.229Z</time></trkpt><trkpt lat="44.7700045" lon="8.4493026"><ele>271.0</ele><time>2026-05-03T09:30:47.229Z</time></trkpt><trkpt lat="44.7700852" lon="8.4493211"><ele>271.0</ele><time>2026-05-03T09:30:48.229Z</time></trkpt><trkpt lat="44.7701523" lon="8.4493272"><ele>271.0</ele><time>2026-05-03T09:30:49.23Z</time></trkpt><trkpt lat="44.7702475" lon="8.4493454"><ele>271.0</ele><time>2026-05-03T09:30:50.229Z</time></trkpt><trkpt lat="44.7703197" lon="8.4493564"><ele>271.0</ele><time>2026-05-03T09:30:51.229Z</time></trkpt><trkpt lat="44.7703957" lon="8.4493597"><ele>271.0</ele><time>2026-05-03T09:30:52.229Z</time></trkpt><trkpt lat="44.7704684" lon="8.4493673"><ele>271.0</ele><time>2026-05-03T09:30:53.231Z</time></trkpt><trkpt lat="44.77054" lon="8.4493739"><ele>272.0</ele><time>2026-05-03T09:30:54.229Z</time></trkpt><trkpt lat="44.7706107" lon="8.4493874"><ele>273.0</ele><time>2026-05-03T09:30:55.229Z</time></trkpt><trkpt lat="44.7706779" lon="8.4493959"><ele>274.0</ele><time>2026-05-03T09:30:56.229Z</time></trkpt><trkpt lat="44.7707462" lon="8.4494046"><ele>275.0</ele><time>2026-05-03T09:30:57.23Z</time></trkpt><trkpt lat="44.7708107" lon="8.4494114"><ele>276.0</ele><time>2026-05-03T09:30:58.23Z</time></trkpt><trkpt lat="44.7709325" lon="8.4494277"><ele>277.0</ele><time>2026-05-03T09:31:00.231Z</time></trkpt><trkpt lat="44.7710545" lon="8.4494547"><ele>277.0</ele><time>2026-05-03T09:31:02.23Z</time></trkpt><trkpt lat="44.7711749" lon="8.449449"><ele>277.0</ele><time>2026-05-03T09:31:04.231Z</time></trkpt><trkpt lat="44.771289" lon="8.4493597"><ele>277.0</ele><time>2026-05-03T09:31:06.23Z</time></trkpt><trkpt lat="44.7713357" lon="8.4492852"><ele>277.0</ele><time>2026-05-03T09:31:07.23Z</time></trkpt><trkpt lat="44.7713736" lon="8.449187"><ele>277.0</ele><time>2026-05-03T09:31:08.23Z</time></trkpt><trkpt lat="44.7713965" lon="8.449074"><ele>277.0</ele><time>2026-05-03T09:31:09.23Z</time></trkpt><trkpt lat="44.7714139" lon="8.4489652"><ele>277.0</ele><time>2026-05-03T09:31:10.23Z</time></trkpt><trkpt lat="44.7714354" lon="8.4488673"><ele>277.0</ele><time>2026-05-03T09:31:11.23Z</time></trkpt><trkpt lat="44.7714549" lon="8.4487753"><ele>277.0</ele><time>2026-05-03T09:31:12.23Z</time></trkpt><trkpt lat="44.77148" lon="8.4486889"><ele>277.0</ele><time>2026-05-03T09:31:13.23Z</time></trkpt><trkpt lat="44.7715048" lon="8.4486034"><ele>277.0</ele><time>2026-05-03T09:31:14.23Z</time></trkpt><trkpt lat="44.7715518" lon="8.4485129"><ele>277.0</ele><time>2026-05-03T09:31:16.231Z</time></trkpt><trkpt lat="44.7716594" lon="8.4484322"><ele>278.5</ele><time>2026-05-03T09:31:18.23Z</time></trkpt><trkpt lat="44.7717223" lon="8.4483989"><ele>280.0</ele><time>2026-05-03T09:31:19.23Z</time></trkpt><trkpt lat="44.7717961" lon="8.448373"><ele>281.5</ele><time>2026-05-03T09:31:20.231Z</time></trkpt><trkpt lat="44.7718666" lon="8.448348"><ele>283.0</ele><time>2026-05-03T09:31:21.231Z</time></trkpt><trkpt lat="44.7719842" lon="8.4483116"><ele>284.5</ele><time>2026-05-03T09:31:23.231Z</time></trkpt><trkpt lat="44.7720497" lon="8.4482881"><ele>286.0</ele><time>2026-05-03T09:31:24.23Z</time></trkpt><trkpt lat="44.7721564" lon="8.4482242"><ele>287.2</ele><time>2026-05-03T09:31:26.23Z</time></trkpt><trkpt lat="44.7722498" lon="8.4481714"><ele>288.40000000000003</ele><time>2026-05-03T09:31:28.23Z</time></trkpt><trkpt lat="44.7723676" lon="8.4481765"><ele>289.6</ele><time>2026-05-03T09:31:30.23Z</time></trkpt><trkpt lat="44.772489" lon="8.4483047"><ele>290.8</ele><time>2026-05-03T09:31:32.23Z</time></trkpt><trkpt lat="44.7725396" lon="8.4483907"><ele>292.0</ele><time>2026-05-03T09:31:33.231Z</time></trkpt><trkpt lat="44.7725809" lon="8.4484756"><ele>292.0</ele><time>2026-05-03T09:31:34.23Z</time></trkpt><trkpt lat="44.7726256" lon="8.448551"><ele>292.0</ele><time>2026-05-03T09:31:35.23Z</time></trkpt><trkpt lat="44.7727176" lon="8.4486294"><ele>292.0</ele><time>2026-05-03T09:31:37.23Z</time></trkpt><trkpt lat="44.7728392" lon="8.4486184"><ele>292.0</ele><time>2026-05-03T09:31:39.23Z</time></trkpt><trkpt lat="44.7729278" lon="8.4486116"><ele>292.0</ele><time>2026-05-03T09:31:41.231Z</time></trkpt><trkpt lat="44.7730095" lon="8.4485708"><ele>292.16666666666663</ele><time>2026-05-03T09:31:44.231Z</time></trkpt><trkpt lat="44.7730527" lon="8.4484524"><ele>292.3333333333333</ele><time>2026-05-03T09:31:46.232Z</time></trkpt><trkpt lat="44.7730653" lon="8.4483611"><ele>292.5</ele><time>2026-05-03T09:31:47.231Z</time></trkpt><trkpt lat="44.7730566" lon="8.4481865"><ele>292.6666666666667</ele><time>2026-05-03T09:31:49.231Z</time></trkpt><trkpt lat="44.7730433" lon="8.4480926"><ele>292.83333333333337</ele><time>2026-05-03T09:31:50.231Z</time></trkpt><trkpt lat="44.7730355" lon="8.4480012"><ele>293.0</ele><time>2026-05-03T09:31:51.231Z</time></trkpt><trkpt lat="44.7730327" lon="8.4479104"><ele>293.0</ele><time>2026-05-03T09:31:52.232Z</time></trkpt><trkpt lat="44.7730498" lon="8.4477328"><ele>293.0</ele><time>2026-05-03T09:31:54.231Z</time></trkpt><trkpt lat="44.7731168" lon="8.447581"><ele>293.0</ele><time>2026-05-03T09:31:56.232Z</time></trkpt><trkpt lat="44.7731865" lon="8.4475121"><ele>293.0</ele><time>2026-05-03T09:31:57.231Z</time></trkpt><trkpt lat="44.7732711" lon="8.4474585"><ele>293.0</ele><time>2026-05-03T09:31:58.232Z</time></trkpt><trkpt lat="44.7733599" lon="8.4474107"><ele>293.0</ele><time>2026-05-03T09:31:59.231Z</time></trkpt><trkpt lat="44.7734456" lon="8.4473789"><ele>293.0</ele><time>2026-05-03T09:32:00.231Z</time></trkpt><trkpt lat="44.7735291" lon="8.4473601"><ele>293.0</ele><time>2026-05-03T09:32:01.231Z</time></trkpt><trkpt lat="44.7736095" lon="8.4473628"><ele>293.0</ele><time>2026-05-03T09:32:02.232Z</time></trkpt><trkpt lat="44.7736806" lon="8.4473978"><ele>293.0</ele><time>2026-05-03T09:32:03.231Z</time></trkpt><trkpt lat="44.7737442" lon="8.4474615"><ele>293.0</ele><time>2026-05-03T09:32:04.231Z</time></trkpt><trkpt lat="44.7738" lon="8.4475364"><ele>292.1666666666667</ele><time>2026-05-03T09:32:05.232Z</time></trkpt><trkpt lat="44.7738486" lon="8.4476192"><ele>291.33333333333337</ele><time>2026-05-03T09:32:06.231Z</time></trkpt><trkpt lat="44.7739017" lon="8.4477029"><ele>290.5</ele><time>2026-05-03T09:32:07.231Z</time></trkpt><trkpt lat="44.7739582" lon="8.4477679"><ele>289.6666666666667</ele><time>2026-05-03T09:32:08.231Z</time></trkpt><trkpt lat="44.7740229" lon="8.4478077"><ele>288.8333333333333</ele><time>2026-05-03T09:32:09.231Z</time></trkpt><trkpt lat="44.7740939" lon="8.4478365"><ele>288.0</ele><time>2026-05-03T09:32:10.231Z</time></trkpt><trkpt lat="44.7741697" lon="8.4478559"><ele>288.0</ele><time>2026-05-03T09:32:11.231Z</time></trkpt><trkpt lat="44.7742461" lon="8.4478873"><ele>288.0</ele><time>2026-05-03T09:32:12.231Z</time></trkpt><trkpt lat="44.7743225" lon="8.4479391"><ele>288.0</ele><time>2026-05-03T09:32:13.231Z</time></trkpt><trkpt lat="44.7743913" lon="8.4480014"><ele>288.0</ele><time>2026-05-03T09:32:14.231Z</time></trkpt><trkpt lat="44.7744547" lon="8.4480587"><ele>288.0</ele><time>2026-05-03T09:32:15.231Z</time></trkpt><trkpt lat="44.7745199" lon="8.4480717"><ele>288.0</ele><time>2026-05-03T09:32:16.232Z</time></trkpt><trkpt lat="44.7745886" lon="8.4480574"><ele>287.5</ele><time>2026-05-03T09:32:17.231Z</time></trkpt><trkpt lat="44.7746621" lon="8.4480152"><ele>287.0</ele><time>2026-05-03T09:32:18.231Z</time></trkpt><trkpt lat="44.7747364" lon="8.4479616"><ele>286.5</ele><time>2026-05-03T09:32:19.231Z</time></trkpt><trkpt lat="44.7748052" lon="8.4479241"><ele>286.0</ele><time>2026-05-03T09:32:20.231Z</time></trkpt><trkpt lat="44.774885" lon="8.4479001"><ele>285.5</ele><time>2026-05-03T09:32:21.231Z</time></trkpt><trkpt lat="44.7749719" lon="8.4478951"><ele>285.0</ele><time>2026-05-03T09:32:22.231Z</time></trkpt><trkpt lat="44.775063" lon="8.4479058"><ele>285.0</ele><time>2026-05-03T09:32:23.231Z</time></trkpt><trkpt lat="44.7751652" lon="8.4479238"><ele>285.0</ele><time>2026-05-03T09:32:24.231Z</time></trkpt><trkpt lat="44.7752585" lon="8.4479649"><ele>285.0</ele><time>2026-05-03T09:32:25.232Z</time></trkpt><trkpt lat="44.7753468" lon="8.4479993"><ele>285.0</ele><time>2026-05-03T09:32:26.232Z</time></trkpt><trkpt lat="44.7754278" lon="8.448038"><ele>285.0</ele><time>2026-05-03T09:32:27.232Z</time></trkpt><trkpt lat="44.7755076" lon="8.4480802"><ele>282.3333333333333</ele><time>2026-05-03T09:32:28.231Z</time></trkpt><trkpt lat="44.7755941" lon="8.4481255"><ele>279.6666666666667</ele><time>2026-05-03T09:32:29.232Z</time></trkpt><trkpt lat="44.7756817" lon="8.4481682"><ele>277.0</ele><time>2026-05-03T09:32:30.232Z</time></trkpt><trkpt lat="44.7757676" lon="8.4482101"><ele>274.33333333333337</ele><time>2026-05-03T09:32:31.232Z</time></trkpt><trkpt lat="44.7758431" lon="8.448259"><ele>271.6666666666667</ele><time>2026-05-03T09:32:32.232Z</time></trkpt><trkpt lat="44.7759063" lon="8.4483213"><ele>269.0</ele><time>2026-05-03T09:32:33.232Z</time></trkpt><trkpt lat="44.7759529" lon="8.4484003"><ele>269.0</ele><time>2026-05-03T09:32:34.233Z</time></trkpt><trkpt lat="44.7759786" lon="8.4485084"><ele>269.0</ele><time>2026-05-03T09:32:35.232Z</time></trkpt><trkpt lat="44.7759892" lon="8.4486334"><ele>269.0</ele><time>2026-05-03T09:32:36.233Z</time></trkpt><trkpt lat="44.7759889" lon="8.4487603"><ele>269.0</ele><time>2026-05-03T09:32:37.232Z</time></trkpt><trkpt lat="44.7760048" lon="8.448882"><ele>269.0</ele><time>2026-05-03T09:32:38.233Z</time></trkpt><trkpt lat="44.7760348" lon="8.4489957"><ele>269.0</ele><time>2026-05-03T09:32:39.233Z</time></trkpt><trkpt lat="44.7760821" lon="8.4490982"><ele>267.5</ele><time>2026-05-03T09:32:40.232Z</time></trkpt><trkpt lat="44.7761483" lon="8.4491974"><ele>266.0</ele><time>2026-05-03T09:32:41.232Z</time></trkpt><trkpt lat="44.7762198" lon="8.4492845"><ele>264.5</ele><time>2026-05-03T09:32:42.232Z</time></trkpt><trkpt lat="44.776293" lon="8.449362"><ele>263.0</ele><time>2026-05-03T09:32:43.232Z</time></trkpt><trkpt lat="44.7763672" lon="8.4494202"><ele>261.5</ele><time>2026-05-03T09:32:44.232Z</time></trkpt><trkpt lat="44.7764447" lon="8.4494496"><ele>260.0</ele><time>2026-05-03T09:32:45.232Z</time></trkpt><trkpt lat="44.7765238" lon="8.4494533"><ele>260.0</ele><time>2026-05-03T09:32:46.232Z</time></trkpt><trkpt lat="44.7765975" lon="8.4494291"><ele>260.0</ele><time>2026-05-03T09:32:47.232Z</time></trkpt><trkpt lat="44.7766778" lon="8.4493963"><ele>260.0</ele><time>2026-05-03T09:32:48.233Z</time></trkpt><trkpt lat="44.7767544" lon="8.4493689"><ele>260.0</ele><time>2026-05-03T09:32:49.232Z</time></trkpt><trkpt lat="44.7768308" lon="8.4493471"><ele>260.0</ele><time>2026-05-03T09:32:50.232Z</time></trkpt><trkpt lat="44.7768992" lon="8.449332"><ele>260.0</ele><time>2026-05-03T09:32:51.233Z</time></trkpt><trkpt lat="44.7769991" lon="8.4493132"><ele>259.0</ele><time>2026-05-03T09:32:53.232Z</time></trkpt><trkpt lat="44.7771063" lon="8.4492938"><ele>258.0</ele><time>2026-05-03T09:32:55.233Z</time></trkpt><trkpt lat="44.7772119" lon="8.4492741"><ele>257.0</ele><time>2026-05-03T09:32:57.233Z</time></trkpt><trkpt lat="44.7773205" lon="8.4492422"><ele>256.0</ele><time>2026-05-03T09:32:59.232Z</time></trkpt><trkpt lat="44.7773849" lon="8.4492247"><ele>255.0</ele><time>2026-05-03T09:33:00.232Z</time></trkpt><trkpt lat="44.7774614" lon="8.4492149"><ele>255.0</ele><time>2026-05-03T09:33:01.233Z</time></trkpt><trkpt lat="44.7775364" lon="8.4492174"><ele>255.0</ele><time>2026-05-03T09:33:02.232Z</time></trkpt><trkpt lat="44.7776251" lon="8.4492418"><ele>255.0</ele><time>2026-05-03T09:33:03.232Z</time></trkpt><trkpt lat="44.7777056" lon="8.4492717"><ele>255.0</ele><time>2026-05-03T09:33:04.233Z</time></trkpt><trkpt lat="44.7777834" lon="8.4493027"><ele>255.0</ele><time>2026-05-03T09:33:05.232Z</time></trkpt><trkpt lat="44.7778659" lon="8.449341"><ele>255.0</ele><time>2026-05-03T09:33:06.233Z</time></trkpt><trkpt lat="44.7779497" lon="8.4493911"><ele>253.6</ele><time>2026-05-03T09:33:07.232Z</time></trkpt><trkpt lat="44.778035" lon="8.4494471"><ele>252.2</ele><time>2026-05-03T09:33:08.232Z</time></trkpt><trkpt lat="44.7781187" lon="8.4495104"><ele>250.8</ele><time>2026-05-03T09:33:09.232Z</time></trkpt><trkpt lat="44.7781989" lon="8.4495847"><ele>249.4</ele><time>2026-05-03T09:33:10.232Z</time></trkpt><trkpt lat="44.7782764" lon="8.4496603"><ele>248.0</ele><time>2026-05-03T09:33:11.232Z</time></trkpt><trkpt lat="44.7783495" lon="8.4497437"><ele>248.0</ele><time>2026-05-03T09:33:12.232Z</time></trkpt><trkpt lat="44.7784231" lon="8.4498231"><ele>248.0</ele><time>2026-05-03T09:33:13.233Z</time></trkpt><trkpt lat="44.7784998" lon="8.4498962"><ele>248.0</ele><time>2026-05-03T09:33:14.232Z</time></trkpt><trkpt lat="44.7785822" lon="8.4499583"><ele>248.0</ele><time>2026-05-03T09:33:15.232Z</time></trkpt><trkpt lat="44.7786689" lon="8.4500172"><ele>248.0</ele><time>2026-05-03T09:33:16.232Z</time></trkpt><trkpt lat="44.778751" lon="8.4500707"><ele>247.0</ele><time>2026-05-03T09:33:17.233Z</time></trkpt><trkpt lat="44.7788368" lon="8.4501227"><ele>246.0</ele><time>2026-05-03T09:33:18.234Z</time></trkpt><trkpt lat="44.7789251" lon="8.4501755"><ele>245.0</ele><time>2026-05-03T09:33:19.234Z</time></trkpt><trkpt lat="44.7790109" lon="8.4502239"><ele>244.0</ele><time>2026-05-03T09:33:20.233Z</time></trkpt><trkpt lat="44.7790969" lon="8.4502696"><ele>243.0</ele><time>2026-05-03T09:33:21.233Z</time></trkpt><trkpt lat="44.7791864" lon="8.4503108"><ele>243.0</ele><time>2026-05-03T09:33:22.233Z</time></trkpt><trkpt lat="44.7792752" lon="8.4503428"><ele>243.0</ele><time>2026-05-03T09:33:23.233Z</time></trkpt><trkpt lat="44.7793624" lon="8.4503751"><ele>243.0</ele><time>2026-05-03T09:33:24.234Z</time></trkpt><trkpt lat="44.7794496" lon="8.4504042"><ele>243.0</ele><time>2026-05-03T09:33:25.233Z</time></trkpt><trkpt lat="44.779537" lon="8.4504228"><ele>243.0</ele><time>2026-05-03T09:33:26.233Z</time></trkpt><trkpt lat="44.7796249" lon="8.450427"><ele>243.0</ele><time>2026-05-03T09:33:27.233Z</time></trkpt><trkpt lat="44.7797147" lon="8.4504273"><ele>242.60000000000002</ele><time>2026-05-03T09:33:28.233Z</time></trkpt><trkpt lat="44.7798106" lon="8.4504211"><ele>242.20000000000002</ele><time>2026-05-03T09:33:29.233Z</time></trkpt><trkpt lat="44.7799097" lon="8.4504165"><ele>241.8</ele><time>2026-05-03T09:33:30.234Z</time></trkpt><trkpt lat="44.7800093" lon="8.4504212"><ele>241.4</ele><time>2026-05-03T09:33:31.233Z</time></trkpt><trkpt lat="44.7801107" lon="8.4504274"><ele>241.0</ele><time>2026-05-03T09:33:32.233Z</time></trkpt><trkpt lat="44.7802111" lon="8.4504251"><ele>239.8</ele><time>2026-05-03T09:33:33.235Z</time></trkpt><trkpt lat="44.7803096" lon="8.4504175"><ele>238.60000000000002</ele><time>2026-05-03T09:33:34.234Z</time></trkpt><trkpt lat="44.7804038" lon="8.4504144"><ele>237.4</ele><time>2026-05-03T09:33:35.234Z</time></trkpt><trkpt lat="44.7804927" lon="8.4504169"><ele>236.2</ele><time>2026-05-03T09:33:36.233Z</time></trkpt><trkpt lat="44.7805803" lon="8.4504215"><ele>235.0</ele><time>2026-05-03T09:33:37.234Z</time></trkpt><trkpt lat="44.7806673" lon="8.4504225"><ele>234.99999999999997</ele><time>2026-05-03T09:33:38.233Z</time></trkpt><trkpt lat="44.7807481" lon="8.4504272"><ele>235.0</ele><time>2026-05-03T09:33:39.233Z</time></trkpt><trkpt lat="44.7808279" lon="8.4504348"><ele>235.0</ele><time>2026-05-03T09:33:40.233Z</time></trkpt><trkpt lat="44.7809134" lon="8.4504391"><ele>235.0</ele><time>2026-05-03T09:33:41.233Z</time></trkpt><trkpt lat="44.7810054" lon="8.4504366"><ele>234.99999999999997</ele><time>2026-05-03T09:33:42.233Z</time></trkpt><trkpt lat="44.7810978" lon="8.4504318"><ele>235.0</ele><time>2026-05-03T09:33:43.233Z</time></trkpt><trkpt lat="44.7811903" lon="8.450429"><ele>234.6</ele><time>2026-05-03T09:33:44.234Z</time></trkpt><trkpt lat="44.781282" lon="8.450429"><ele>234.2</ele><time>2026-05-03T09:33:45.234Z</time></trkpt><trkpt lat="44.7813838" lon="8.450438"><ele>233.8</ele><time>2026-05-03T09:33:46.233Z</time></trkpt><trkpt lat="44.7814822" lon="8.4504449"><ele>233.4</ele><time>2026-05-03T09:33:47.233Z</time></trkpt><trkpt lat="44.7815804" lon="8.4504498"><ele>233.0</ele><time>2026-05-03T09:33:48.233Z</time></trkpt><trkpt lat="44.7816805" lon="8.4504524"><ele>233.0</ele><time>2026-05-03T09:33:49.234Z</time></trkpt><trkpt lat="44.7817826" lon="8.4504548"><ele>233.0</ele><time>2026-05-03T09:33:50.233Z</time></trkpt><trkpt lat="44.7818851" lon="8.4504545"><ele>233.0</ele><time>2026-05-03T09:33:51.234Z</time></trkpt><trkpt lat="44.7819871" lon="8.4504465"><ele>233.0</ele><time>2026-05-03T09:33:52.234Z</time></trkpt><trkpt lat="44.782079" lon="8.4504294"><ele>233.0</ele><time>2026-05-03T09:33:53.233Z</time></trkpt><trkpt lat="44.7821683" lon="8.4503961"><ele>232.4</ele><time>2026-05-03T09:33:54.233Z</time></trkpt><trkpt lat="44.7822499" lon="8.4503477"><ele>231.8</ele><time>2026-05-03T09:33:55.234Z</time></trkpt><trkpt lat="44.7823304" lon="8.4502833"><ele>231.2</ele><time>2026-05-03T09:33:56.233Z</time></trkpt><trkpt lat="44.7824115" lon="8.4502157"><ele>230.6</ele><time>2026-05-03T09:33:57.234Z</time></trkpt><trkpt lat="44.7825073" lon="8.4501713"><ele>230.0</ele><time>2026-05-03T09:33:58.233Z</time></trkpt><trkpt lat="44.7826173" lon="8.4501515"><ele>229.0</ele><time>2026-05-03T09:33:59.234Z</time></trkpt><trkpt lat="44.7827321" lon="8.4501441"><ele>228.0</ele><time>2026-05-03T09:34:00.233Z</time></trkpt><trkpt lat="44.7828379" lon="8.4501416"><ele>227.0</ele><time>2026-05-03T09:34:01.235Z</time></trkpt><trkpt lat="44.7829338" lon="8.4501507"><ele>226.0</ele><time>2026-05-03T09:34:02.234Z</time></trkpt><trkpt lat="44.7830308" lon="8.4501705"><ele>225.0</ele><time>2026-05-03T09:34:03.234Z</time></trkpt><trkpt lat="44.7831239" lon="8.4501983"><ele>225.0</ele><time>2026-05-03T09:34:04.234Z</time></trkpt><trkpt lat="44.7832194" lon="8.4502225"><ele>225.0</ele><time>2026-05-03T09:34:05.234Z</time></trkpt><trkpt lat="44.783317" lon="8.4502184"><ele>225.0</ele><time>2026-05-03T09:34:06.235Z</time></trkpt><trkpt lat="44.783413" lon="8.4501892"><ele>225.0</ele><time>2026-05-03T09:34:07.234Z</time></trkpt><trkpt lat="44.7835117" lon="8.4501345"><ele>225.0</ele><time>2026-05-03T09:34:08.234Z</time></trkpt><trkpt lat="44.7836069" lon="8.4500708"><ele>225.2</ele><time>2026-05-03T09:34:09.235Z</time></trkpt><trkpt lat="44.7837024" lon="8.4500141"><ele>225.4</ele><time>2026-05-03T09:34:10.234Z</time></trkpt><trkpt lat="44.783799" lon="8.4499578"><ele>225.60000000000002</ele><time>2026-05-03T09:34:11.234Z</time></trkpt><trkpt lat="44.7838951" lon="8.4499028"><ele>225.8</ele><time>2026-05-03T09:34:12.234Z</time></trkpt><trkpt lat="44.7839866" lon="8.4498488"><ele>226.0</ele><time>2026-05-03T09:34:13.235Z</time></trkpt><trkpt lat="44.7840711" lon="8.4497887"><ele>226.0</ele><time>2026-05-03T09:34:14.235Z</time></trkpt><trkpt lat="44.7841577" lon="8.4497305"><ele>226.00000000000003</ele><time>2026-05-03T09:34:15.234Z</time></trkpt><trkpt lat="44.7842457" lon="8.4496728"><ele>226.00000000000003</ele><time>2026-05-03T09:34:16.234Z</time></trkpt><trkpt lat="44.7843352" lon="8.4496162"><ele>226.0</ele><time>2026-05-03T09:34:17.234Z</time></trkpt><trkpt lat="44.784429" lon="8.4495573"><ele>226.0</ele><time>2026-05-03T09:34:18.234Z</time></trkpt><trkpt lat="44.7845258" lon="8.4495078"><ele>224.8</ele><time>2026-05-03T09:34:19.235Z</time></trkpt><trkpt lat="44.7846232" lon="8.4494705"><ele>223.60000000000002</ele><time>2026-05-03T09:34:20.234Z</time></trkpt><trkpt lat="44.7847266" lon="8.4494395"><ele>222.4</ele><time>2026-05-03T09:34:21.234Z</time></trkpt><trkpt lat="44.7848303" lon="8.4494201"><ele>221.2</ele><time>2026-05-03T09:34:22.235Z</time></trkpt><trkpt lat="44.7849312" lon="8.4494051"><ele>220.0</ele><time>2026-05-03T09:34:23.234Z</time></trkpt><trkpt lat="44.7850328" lon="8.4493951"><ele>220.0</ele><time>2026-05-03T09:34:24.234Z</time></trkpt><trkpt lat="44.785141" lon="8.44938"><ele>220.0</ele><time>2026-05-03T09:34:25.234Z</time></trkpt><trkpt lat="44.7852485" lon="8.4493639"><ele>220.0</ele><time>2026-05-03T09:34:26.235Z</time></trkpt><trkpt lat="44.7853555" lon="8.4493531"><ele>220.0</ele><time>2026-05-03T09:34:27.234Z</time></trkpt><trkpt lat="44.7854595" lon="8.4493383"><ele>220.0</ele><time>2026-05-03T09:34:28.234Z</time></trkpt><trkpt lat="44.7855574" lon="8.4493222"><ele>220.4</ele><time>2026-05-03T09:34:29.235Z</time></trkpt><trkpt lat="44.7856501" lon="8.4493019"><ele>220.8</ele><time>2026-05-03T09:34:30.234Z</time></trkpt><trkpt lat="44.7857415" lon="8.4492697"><ele>221.2</ele><time>2026-05-03T09:34:31.234Z</time></trkpt><trkpt lat="44.7858369" lon="8.4492259"><ele>221.6</ele><time>2026-05-03T09:34:32.235Z</time></trkpt><trkpt lat="44.7859161" lon="8.449163"><ele>222.0</ele><time>2026-05-03T09:34:33.234Z</time></trkpt><trkpt lat="44.7859971" lon="8.4490846"><ele>221.39999999999998</ele><time>2026-05-03T09:34:34.234Z</time></trkpt><trkpt lat="44.7860772" lon="8.4489967"><ele>220.79999999999998</ele><time>2026-05-03T09:34:35.234Z</time></trkpt><trkpt lat="44.7861583" lon="8.4489113"><ele>220.2</ele><time>2026-05-03T09:34:36.234Z</time></trkpt><trkpt lat="44.7862313" lon="8.4488372"><ele>219.6</ele><time>2026-05-03T09:34:37.234Z</time></trkpt><trkpt lat="44.7863115" lon="8.448761"><ele>219.0</ele><time>2026-05-03T09:34:38.234Z</time></trkpt><trkpt lat="44.7863892" lon="8.4486827"><ele>218.39999999999998</ele><time>2026-05-03T09:34:39.234Z</time></trkpt><trkpt lat="44.7864703" lon="8.4486029"><ele>217.79999999999998</ele><time>2026-05-03T09:34:40.234Z</time></trkpt><trkpt lat="44.7865529" lon="8.4485255"><ele>217.20000000000002</ele><time>2026-05-03T09:34:41.234Z</time></trkpt><trkpt lat="44.786642" lon="8.4484435"><ele>216.60000000000002</ele><time>2026-05-03T09:34:42.235Z</time></trkpt><trkpt lat="44.7867279" lon="8.4483591"><ele>216.0</ele><time>2026-05-03T09:34:43.234Z</time></trkpt><trkpt lat="44.786814" lon="8.4482766"><ele>214.8</ele><time>2026-05-03T09:34:44.234Z</time></trkpt><trkpt lat="44.7868939" lon="8.4481928"><ele>213.60000000000002</ele><time>2026-05-03T09:34:45.234Z</time></trkpt><trkpt lat="44.7869688" lon="8.4481124"><ele>212.4</ele><time>2026-05-03T09:34:46.234Z</time></trkpt><trkpt lat="44.7870384" lon="8.4480335"><ele>211.2</ele><time>2026-05-03T09:34:47.235Z</time></trkpt><trkpt lat="44.7871112" lon="8.4479477"><ele>210.0</ele><time>2026-05-03T09:34:48.235Z</time></trkpt><trkpt lat="44.7871833" lon="8.4478545"><ele>209.8</ele><time>2026-05-03T09:34:49.235Z</time></trkpt><trkpt lat="44.787244" lon="8.4477459"><ele>209.6</ele><time>2026-05-03T09:34:50.236Z</time></trkpt><trkpt lat="44.787284" lon="8.4476227"><ele>209.39999999999998</ele><time>2026-05-03T09:34:51.236Z</time></trkpt><trkpt lat="44.7873097" lon="8.4474849"><ele>209.2</ele><time>2026-05-03T09:34:52.235Z</time></trkpt><trkpt lat="44.787316" lon="8.4473486"><ele>209.0</ele><time>2026-05-03T09:34:53.235Z</time></trkpt><trkpt lat="44.7873151" lon="8.4472188"><ele>208.66666666666669</ele><time>2026-05-03T09:34:54.235Z</time></trkpt><trkpt lat="44.7873095" lon="8.4470933"><ele>208.33333333333334</ele><time>2026-05-03T09:34:55.235Z</time></trkpt><trkpt lat="44.7873008" lon="8.446968"><ele>208.0</ele><time>2026-05-03T09:34:56.235Z</time></trkpt><trkpt lat="44.7872775" lon="8.4468461"><ele>207.66666666666669</ele><time>2026-05-03T09:34:57.235Z</time></trkpt><trkpt lat="44.7872484" lon="8.446736"><ele>207.33333333333334</ele><time>2026-05-03T09:34:58.235Z</time></trkpt><trkpt lat="44.7872089" lon="8.4466294"><ele>207.0</ele><time>2026-05-03T09:34:59.235Z</time></trkpt><trkpt lat="44.78716" lon="8.4465262"><ele>207.0</ele><time>2026-05-03T09:35:00.236Z</time></trkpt><trkpt lat="44.7871132" lon="8.4464275"><ele>207.0</ele><time>2026-05-03T09:35:01.236Z</time></trkpt><trkpt lat="44.7870629" lon="8.4463275"><ele>207.0</ele><time>2026-05-03T09:35:02.235Z</time></trkpt><trkpt lat="44.7870162" lon="8.4462266"><ele>207.0</ele><time>2026-05-03T09:35:03.235Z</time></trkpt><trkpt lat="44.7869694" lon="8.4461263"><ele>207.0</ele><time>2026-05-03T09:35:04.235Z</time></trkpt><trkpt lat="44.7869284" lon="8.4460179"><ele>207.0</ele><time>2026-05-03T09:35:05.236Z</time></trkpt><trkpt lat="44.7868894" lon="8.4459085"><ele>208.0</ele><time>2026-05-03T09:35:06.235Z</time></trkpt><trkpt lat="44.7868484" lon="8.4457925"><ele>209.0</ele><time>2026-05-03T09:35:07.236Z</time></trkpt><trkpt lat="44.7868047" lon="8.4456753"><ele>210.0</ele><time>2026-05-03T09:35:08.236Z</time></trkpt><trkpt lat="44.7867567" lon="8.4455552"><ele>211.0</ele><time>2026-05-03T09:35:09.235Z</time></trkpt><trkpt lat="44.7867112" lon="8.4454354"><ele>212.0</ele><time>2026-05-03T09:35:10.235Z</time></trkpt><trkpt lat="44.7866693" lon="8.4453125"><ele>212.39999999999998</ele><time>2026-05-03T09:35:11.236Z</time></trkpt><trkpt lat="44.7866331" lon="8.4451869"><ele>212.79999999999998</ele><time>2026-05-03T09:35:12.235Z</time></trkpt><trkpt lat="44.7866058" lon="8.445066"><ele>213.2</ele><time>2026-05-03T09:35:13.235Z</time></trkpt><trkpt lat="44.7865816" lon="8.4449413"><ele>213.6</ele><time>2026-05-03T09:35:14.235Z</time></trkpt><trkpt lat="44.7865621" lon="8.4448144"><ele>214.0</ele><time>2026-05-03T09:35:15.235Z</time></trkpt><trkpt lat="44.7865446" lon="8.4446859"><ele>214.49999999999997</ele><time>2026-05-03T09:35:16.236Z</time></trkpt><trkpt lat="44.7865266" lon="8.4445601"><ele>215.0</ele><time>2026-05-03T09:35:17.235Z</time></trkpt><trkpt lat="44.7865087" lon="8.4444375"><ele>215.5</ele><time>2026-05-03T09:35:18.235Z</time></trkpt><trkpt lat="44.7864898" lon="8.4443164"><ele>216.0</ele><time>2026-05-03T09:35:19.236Z</time></trkpt><trkpt lat="44.7864697" lon="8.4441959"><ele>216.49999999999997</ele><time>2026-05-03T09:35:20.236Z</time></trkpt><trkpt lat="44.7864481" lon="8.4440751"><ele>217.0</ele><time>2026-05-03T09:35:21.236Z</time></trkpt><trkpt lat="44.7864286" lon="8.4439544"><ele>216.99999999999997</ele><time>2026-05-03T09:35:22.235Z</time></trkpt><trkpt lat="44.7864109" lon="8.4438329"><ele>217.0</ele><time>2026-05-03T09:35:23.236Z</time></trkpt><trkpt lat="44.7863914" lon="8.4437136"><ele>217.0</ele><time>2026-05-03T09:35:24.235Z</time></trkpt><trkpt lat="44.7863709" lon="8.4435956"><ele>217.0</ele><time>2026-05-03T09:35:25.236Z</time></trkpt><trkpt lat="44.7863488" lon="8.4434748"><ele>216.99999999999997</ele><time>2026-05-03T09:35:26.235Z</time></trkpt><trkpt lat="44.7863245" lon="8.4433522"><ele>217.0</ele><time>2026-05-03T09:35:27.235Z</time></trkpt><trkpt lat="44.7863026" lon="8.4432263"><ele>218.0</ele><time>2026-05-03T09:35:28.235Z</time></trkpt><trkpt lat="44.786285" lon="8.4431002"><ele>219.0</ele><time>2026-05-03T09:35:29.236Z</time></trkpt><trkpt lat="44.7862678" lon="8.4429717"><ele>220.0</ele><time>2026-05-03T09:35:30.236Z</time></trkpt><trkpt lat="44.7862493" lon="8.4428445"><ele>221.0</ele><time>2026-05-03T09:35:31.236Z</time></trkpt><trkpt lat="44.7862285" lon="8.4427159"><ele>222.0</ele><time>2026-05-03T09:35:32.235Z</time></trkpt><trkpt lat="44.7862057" lon="8.4425891"><ele>222.66666666666666</ele><time>2026-05-03T09:35:33.236Z</time></trkpt><trkpt lat="44.7861815" lon="8.4424663"><ele>223.33333333333331</ele><time>2026-05-03T09:35:34.237Z</time></trkpt><trkpt lat="44.7861595" lon="8.4423512"><ele>224.0</ele><time>2026-05-03T09:35:35.237Z</time></trkpt><trkpt lat="44.7861417" lon="8.4422373"><ele>224.66666666666666</ele><time>2026-05-03T09:35:36.237Z</time></trkpt><trkpt lat="44.7861318" lon="8.4421169"><ele>225.33333333333331</ele><time>2026-05-03T09:35:37.237Z</time></trkpt><trkpt lat="44.7861285" lon="8.4419981"><ele>226.0</ele><time>2026-05-03T09:35:38.236Z</time></trkpt><trkpt lat="44.7861403" lon="8.4418765"><ele>224.49999999999997</ele><time>2026-05-03T09:35:39.237Z</time></trkpt><trkpt lat="44.7861672" lon="8.4417593"><ele>223.0</ele><time>2026-05-03T09:35:40.236Z</time></trkpt><trkpt lat="44.7862048" lon="8.4416806"><ele>221.5</ele><time>2026-05-03T09:35:41.236Z</time></trkpt><trkpt lat="44.7862692" lon="8.4416065"><ele>220.0</ele><time>2026-05-03T09:35:42.236Z</time></trkpt><trkpt lat="44.7863551" lon="8.4415641"><ele>218.49999999999997</ele><time>2026-05-03T09:35:43.236Z</time></trkpt><trkpt lat="44.7864576" lon="8.4415498"><ele>217.0</ele><time>2026-05-03T09:35:44.236Z</time></trkpt><trkpt lat="44.7865657" lon="8.4415579"><ele>217.0</ele><time>2026-05-03T09:35:45.236Z</time></trkpt><trkpt lat="44.786672" lon="8.4415835"><ele>217.0</ele><time>2026-05-03T09:35:46.237Z</time></trkpt><trkpt lat="44.7867673" lon="8.4416157"><ele>217.0</ele><time>2026-05-03T09:35:47.237Z</time></trkpt><trkpt lat="44.7868729" lon="8.441642"><ele>217.0</ele><time>2026-05-03T09:35:48.236Z</time></trkpt><trkpt lat="44.78698" lon="8.4416637"><ele>217.0</ele><time>2026-05-03T09:35:49.237Z</time></trkpt><trkpt lat="44.7870777" lon="8.441683"><ele>215.0</ele><time>2026-05-03T09:35:50.237Z</time></trkpt><trkpt lat="44.7871682" lon="8.4417028"><ele>213.0</ele><time>2026-05-03T09:35:51.237Z</time></trkpt><trkpt lat="44.7872647" lon="8.4417218"><ele>211.0</ele><time>2026-05-03T09:35:52.236Z</time></trkpt><trkpt lat="44.7873583" lon="8.4417413"><ele>209.0</ele><time>2026-05-03T09:35:53.236Z</time></trkpt><trkpt lat="44.7874476" lon="8.4417497"><ele>207.0</ele><time>2026-05-03T09:35:54.237Z</time></trkpt><trkpt lat="44.787537" lon="8.4417636"><ele>207.0</ele><time>2026-05-03T09:35:55.236Z</time></trkpt><trkpt lat="44.7876251" lon="8.4417758"><ele>207.0</ele><time>2026-05-03T09:35:56.236Z</time></trkpt><trkpt lat="44.7877103" lon="8.4417918"><ele>207.0</ele><time>2026-05-03T09:35:57.238Z</time></trkpt><trkpt lat="44.7877943" lon="8.4418184"><ele>207.0</ele><time>2026-05-03T09:35:58.236Z</time></trkpt><trkpt lat="44.7878785" lon="8.4418584"><ele>207.0</ele><time>2026-05-03T09:35:59.236Z</time></trkpt><trkpt lat="44.787956" lon="8.4419148"><ele>207.0</ele><time>2026-05-03T09:36:00.236Z</time></trkpt><trkpt lat="44.7880376" lon="8.4419851"><ele>206.6</ele><time>2026-05-03T09:36:01.237Z</time></trkpt><trkpt lat="44.7881168" lon="8.4420631"><ele>206.2</ele><time>2026-05-03T09:36:02.236Z</time></trkpt><trkpt lat="44.7882027" lon="8.4421393"><ele>205.8</ele><time>2026-05-03T09:36:03.237Z</time></trkpt><trkpt lat="44.7882964" lon="8.4422055"><ele>205.4</ele><time>2026-05-03T09:36:04.237Z</time></trkpt><trkpt lat="44.7883918" lon="8.4422495"><ele>205.0</ele><time>2026-05-03T09:36:05.236Z</time></trkpt><trkpt lat="44.7884823" lon="8.4422929"><ele>201.99999999999997</ele><time>2026-05-03T09:36:06.236Z</time></trkpt><trkpt lat="44.7885648" lon="8.4423341"><ele>199.0</ele><time>2026-05-03T09:36:07.237Z</time></trkpt><trkpt lat="44.788648" lon="8.44237"><ele>196.0</ele><time>2026-05-03T09:36:08.237Z</time></trkpt><trkpt lat="44.7887337" lon="8.442386"><ele>193.0</ele><time>2026-05-03T09:36:09.236Z</time></trkpt><trkpt lat="44.7888185" lon="8.4423801"><ele>190.0</ele><time>2026-05-03T09:36:10.237Z</time></trkpt><trkpt lat="44.7889097" lon="8.4423539"><ele>187.0</ele><time>2026-05-03T09:36:11.236Z</time></trkpt><trkpt lat="44.7889964" lon="8.4423064"><ele>187.0</ele><time>2026-05-03T09:36:12.237Z</time></trkpt><trkpt lat="44.7890814" lon="8.442244"><ele>187.0</ele><time>2026-05-03T09:36:13.236Z</time></trkpt><trkpt lat="44.7891699" lon="8.4421912"><ele>187.0</ele><time>2026-05-03T09:36:14.236Z</time></trkpt><trkpt lat="44.7892553" lon="8.4421472"><ele>187.0</ele><time>2026-05-03T09:36:15.237Z</time></trkpt><trkpt lat="44.7893464" lon="8.4421062"><ele>187.0</ele><time>2026-05-03T09:36:16.236Z</time></trkpt><trkpt lat="44.789433" lon="8.4420666"><ele>186.6</ele><time>2026-05-03T09:36:17.236Z</time></trkpt><trkpt lat="44.7895225" lon="8.4420139"><ele>186.2</ele><time>2026-05-03T09:36:18.238Z</time></trkpt><trkpt lat="44.7896117" lon="8.4419614"><ele>185.8</ele><time>2026-05-03T09:36:19.237Z</time></trkpt><trkpt lat="44.7897037" lon="8.4419088"><ele>185.4</ele><time>2026-05-03T09:36:20.237Z</time></trkpt><trkpt lat="44.789792" lon="8.441861"><ele>185.0</ele><time>2026-05-03T09:36:21.237Z</time></trkpt><trkpt lat="44.7898765" lon="8.4418141"><ele>185.0</ele><time>2026-05-03T09:36:22.237Z</time></trkpt><trkpt lat="44.7899587" lon="8.4417628"><ele>185.0</ele><time>2026-05-03T09:36:23.237Z</time></trkpt><trkpt lat="44.7900422" lon="8.441694"><ele>185.0</ele><time>2026-05-03T09:36:24.237Z</time></trkpt><trkpt lat="44.7901128" lon="8.4416105"><ele>185.0</ele><time>2026-05-03T09:36:25.238Z</time></trkpt><trkpt lat="44.7901763" lon="8.4415122"><ele>185.0</ele><time>2026-05-03T09:36:26.238Z</time></trkpt><trkpt lat="44.790244" lon="8.4414091"><ele>182.6</ele><time>2026-05-03T09:36:27.237Z</time></trkpt><trkpt lat="44.7903098" lon="8.4412997"><ele>180.2</ele><time>2026-05-03T09:36:28.237Z</time></trkpt><trkpt lat="44.7903738" lon="8.4411934"><ele>177.8</ele><time>2026-05-03T09:36:29.237Z</time></trkpt><trkpt lat="44.7904355" lon="8.441087"><ele>175.4</ele><time>2026-05-03T09:36:30.237Z</time></trkpt><trkpt lat="44.7904976" lon="8.4409784"><ele>173.0</ele><time>2026-05-03T09:36:31.238Z</time></trkpt><trkpt lat="44.7905676" lon="8.4408794"><ele>173.0</ele><time>2026-05-03T09:36:32.237Z</time></trkpt><trkpt lat="44.7906508" lon="8.4407914"><ele>173.0</ele><time>2026-05-03T09:36:33.238Z</time></trkpt><trkpt lat="44.7907397" lon="8.440712"><ele>173.0</ele><time>2026-05-03T09:36:34.237Z</time></trkpt><trkpt lat="44.7908227" lon="8.4406346"><ele>173.0</ele><time>2026-05-03T09:36:35.237Z</time></trkpt><trkpt lat="44.7908996" lon="8.4405596"><ele>173.0</ele><time>2026-05-03T09:36:36.237Z</time></trkpt><trkpt lat="44.7909615" lon="8.4404903"><ele>173.7142857142857</ele><time>2026-05-03T09:36:37.238Z</time></trkpt><trkpt lat="44.7910089" lon="8.4404227"><ele>174.42857142857144</ele><time>2026-05-03T09:36:38.238Z</time></trkpt><trkpt lat="44.7910446" lon="8.4403431"><ele>175.14285714285714</ele><time>2026-05-03T09:36:39.237Z</time></trkpt><trkpt lat="44.7910576" lon="8.4402433"><ele>175.85714285714283</ele><time>2026-05-03T09:36:40.237Z</time></trkpt><trkpt lat="44.7910484" lon="8.4401314"><ele>176.57142857142856</ele><time>2026-05-03T09:36:41.237Z</time></trkpt><trkpt lat="44.7910249" lon="8.4400284"><ele>177.28571428571428</ele><time>2026-05-03T09:36:42.237Z</time></trkpt><trkpt lat="44.7910001" lon="8.4399283"><ele>178.0</ele><time>2026-05-03T09:36:43.237Z</time></trkpt><trkpt lat="44.7909798" lon="8.4398312"><ele>178.0</ele><time>2026-05-03T09:36:44.237Z</time></trkpt><trkpt lat="44.7909646" lon="8.4397359"><ele>178.0</ele><time>2026-05-03T09:36:45.237Z</time></trkpt><trkpt lat="44.7909655" lon="8.4396469"><ele>178.0</ele><time>2026-05-03T09:36:46.237Z</time></trkpt><trkpt lat="44.7909906" lon="8.4395448"><ele>178.0</ele><time>2026-05-03T09:36:47.237Z</time></trkpt><trkpt lat="44.7910219" lon="8.4394418"><ele>178.0</ele><time>2026-05-03T09:36:48.238Z</time></trkpt><trkpt lat="44.791071" lon="8.4393252"><ele>178.0</ele><time>2026-05-03T09:36:49.238Z</time></trkpt><trkpt lat="44.7911179" lon="8.4391829"><ele>176.0</ele><time>2026-05-03T09:36:50.237Z</time></trkpt><trkpt lat="44.7911633" lon="8.4390542"><ele>174.0</ele><time>2026-05-03T09:36:51.237Z</time></trkpt><trkpt lat="44.7912069" lon="8.4389246"><ele>172.0</ele><time>2026-05-03T09:36:52.238Z</time></trkpt><trkpt lat="44.7912446" lon="8.4388016"><ele>170.0</ele><time>2026-05-03T09:36:53.237Z</time></trkpt><trkpt lat="44.7912773" lon="8.4386971"><ele>168.0</ele><time>2026-05-03T09:36:54.238Z</time></trkpt><trkpt lat="44.7913133" lon="8.4386023"><ele>167.66666666666666</ele><time>2026-05-03T09:36:55.238Z</time></trkpt><trkpt lat="44.7913608" lon="8.4385102"><ele>167.33333333333334</ele><time>2026-05-03T09:36:56.238Z</time></trkpt><trkpt lat="44.7914151" lon="8.4384326"><ele>167.0</ele><time>2026-05-03T09:36:57.238Z</time></trkpt><trkpt lat="44.791485" lon="8.4383759"><ele>166.66666666666669</ele><time>2026-05-03T09:36:58.237Z</time></trkpt><trkpt lat="44.7915642" lon="8.4383717"><ele>166.33333333333334</ele><time>2026-05-03T09:36:59.237Z</time></trkpt><trkpt lat="44.7916459" lon="8.4383874"><ele>166.0</ele><time>2026-05-03T09:37:00.237Z</time></trkpt><trkpt lat="44.7917425" lon="8.4384208"><ele>166.0</ele><time>2026-05-03T09:37:01.237Z</time></trkpt><trkpt lat="44.7918345" lon="8.4384706"><ele>166.0</ele><time>2026-05-03T09:37:02.238Z</time></trkpt><trkpt lat="44.7919174" lon="8.4385081"><ele>166.0</ele><time>2026-05-03T09:37:03.239Z</time></trkpt><trkpt lat="44.7920034" lon="8.438548"><ele>166.0</ele><time>2026-05-03T09:37:04.238Z</time></trkpt><trkpt lat="44.7920781" lon="8.4385949"><ele>166.0</ele><time>2026-05-03T09:37:05.239Z</time></trkpt><trkpt lat="44.7921385" lon="8.4386697"><ele>166.0</ele><time>2026-05-03T09:37:06.239Z</time></trkpt><trkpt lat="44.7921847" lon="8.4387713"><ele>163.33333333333334</ele><time>2026-05-03T09:37:07.238Z</time></trkpt><trkpt lat="44.7922031" lon="8.4388928"><ele>160.66666666666669</ele><time>2026-05-03T09:37:08.239Z</time></trkpt><trkpt lat="44.7922065" lon="8.4390187"><ele>158.0</ele><time>2026-05-03T09:37:09.238Z</time></trkpt><trkpt lat="44.7922025" lon="8.4391523"><ele>155.33333333333334</ele><time>2026-05-03T09:37:10.239Z</time></trkpt><trkpt lat="44.7921949" lon="8.4392752"><ele>152.66666666666666</ele><time>2026-05-03T09:37:11.238Z</time></trkpt><trkpt lat="44.7921715" lon="8.4393923"><ele>150.0</ele><time>2026-05-03T09:37:12.238Z</time></trkpt><trkpt lat="44.7921282" lon="8.4394955"><ele>150.0</ele><time>2026-05-03T09:37:13.238Z</time></trkpt><trkpt lat="44.7920684" lon="8.439579"><ele>150.0</ele><time>2026-05-03T09:37:14.238Z</time></trkpt><trkpt lat="44.7919993" lon="8.4396425"><ele>150.0</ele><time>2026-05-03T09:37:15.238Z</time></trkpt><trkpt lat="44.7919229" lon="8.4396963"><ele>150.0</ele><time>2026-05-03T09:37:16.238Z</time></trkpt><trkpt lat="44.7918524" lon="8.4397609"><ele>150.0</ele><time>2026-05-03T09:37:17.238Z</time></trkpt><trkpt lat="44.7917929" lon="8.4398389"><ele>150.0</ele><time>2026-05-03T09:37:18.238Z</time></trkpt><trkpt lat="44.7917507" lon="8.4399323"><ele>150.33333333333334</ele><time>2026-05-03T09:37:19.239Z</time></trkpt><trkpt lat="44.7917248" lon="8.4400361"><ele>150.66666666666666</ele><time>2026-05-03T09:37:20.239Z</time></trkpt><trkpt lat="44.7917149" lon="8.4401488"><ele>151.0</ele><time>2026-05-03T09:37:21.238Z</time></trkpt><trkpt lat="44.7917066" lon="8.4402612"><ele>151.33333333333331</ele><time>2026-05-03T09:37:22.238Z</time></trkpt><trkpt lat="44.7916992" lon="8.4403789"><ele>151.66666666666666</ele><time>2026-05-03T09:37:23.238Z</time></trkpt><trkpt lat="44.791685" lon="8.4405044"><ele>152.0</ele><time>2026-05-03T09:37:24.239Z</time></trkpt><trkpt lat="44.7916676" lon="8.4406373"><ele>152.0</ele><time>2026-05-03T09:37:25.239Z</time></trkpt><trkpt lat="44.7916493" lon="8.4407695"><ele>152.0</ele><time>2026-05-03T09:37:26.239Z</time></trkpt><trkpt lat="44.791636" lon="8.4409037"><ele>152.0</ele><time>2026-05-03T09:37:27.238Z</time></trkpt><trkpt lat="44.7916206" lon="8.4410354"><ele>152.0</ele><time>2026-05-03T09:37:28.238Z</time></trkpt><trkpt lat="44.7916003" lon="8.4411749"><ele>152.0</ele><time>2026-05-03T09:37:29.238Z</time></trkpt><trkpt lat="44.7915872" lon="8.4413064"><ele>151.0</ele><time>2026-05-03T09:37:30.238Z</time></trkpt><trkpt lat="44.79157" lon="8.4414328"><ele>150.0</ele><time>2026-05-03T09:37:31.238Z</time></trkpt><trkpt lat="44.7915517" lon="8.4415509"><ele>149.0</ele><time>2026-05-03T09:37:32.238Z</time></trkpt><trkpt lat="44.7915424" lon="8.4416623"><ele>148.0</ele><time>2026-05-03T09:37:33.238Z</time></trkpt><trkpt lat="44.7915465" lon="8.4417714"><ele>147.0</ele><time>2026-05-03T09:37:34.238Z</time></trkpt><trkpt lat="44.7915686" lon="8.4418817"><ele>146.0</ele><time>2026-05-03T09:37:35.239Z</time></trkpt><trkpt lat="44.791615" lon="8.441971"><ele>146.0</ele><time>2026-05-03T09:37:36.239Z</time></trkpt><trkpt lat="44.7916784" lon="8.4420526"><ele>146.0</ele><time>2026-05-03T09:37:37.238Z</time></trkpt><trkpt lat="44.7917449" lon="8.4421289"><ele>146.0</ele><time>2026-05-03T09:37:38.238Z</time></trkpt><trkpt lat="44.7918109" lon="8.4421997"><ele>146.0</ele><time>2026-05-03T09:37:39.238Z</time></trkpt><trkpt lat="44.7918755" lon="8.442273"><ele>146.0</ele><time>2026-05-03T09:37:40.238Z</time></trkpt><trkpt lat="44.7919382" lon="8.4423445"><ele>146.0</ele><time>2026-05-03T09:37:41.239Z</time></trkpt><trkpt lat="44.7920006" lon="8.4423968"><ele>145.33333333333331</ele><time>2026-05-03T09:37:42.238Z</time></trkpt><trkpt lat="44.7920739" lon="8.4424204"><ele>144.66666666666666</ele><time>2026-05-03T09:37:43.239Z</time></trkpt><trkpt lat="44.7921499" lon="8.4424117"><ele>144.0</ele><time>2026-05-03T09:37:44.238Z</time></trkpt><trkpt lat="44.7922252" lon="8.4423865"><ele>143.33333333333334</ele><time>2026-05-03T09:37:45.238Z</time></trkpt><trkpt lat="44.7922938" lon="8.4423448"><ele>142.66666666666669</ele><time>2026-05-03T09:37:46.238Z</time></trkpt><trkpt lat="44.792356" lon="8.4422864"><ele>142.0</ele><time>2026-05-03T09:37:47.239Z</time></trkpt><trkpt lat="44.792414" lon="8.4422108"><ele>142.0</ele><time>2026-05-03T09:37:48.239Z</time></trkpt><trkpt lat="44.7924691" lon="8.4421333"><ele>142.0</ele><time>2026-05-03T09:37:49.24Z</time></trkpt><trkpt lat="44.7925295" lon="8.4420575"><ele>142.0</ele><time>2026-05-03T09:37:50.239Z</time></trkpt><trkpt lat="44.7925956" lon="8.4419799"><ele>142.0</ele><time>2026-05-03T09:37:51.24Z</time></trkpt><trkpt lat="44.7926602" lon="8.4418964"><ele>142.0</ele><time>2026-05-03T09:37:52.239Z</time></trkpt><trkpt lat="44.7927207" lon="8.4418083"><ele>142.0</ele><time>2026-05-03T09:37:53.24Z</time></trkpt><trkpt lat="44.7927789" lon="8.4417199"><ele>141.33333333333334</ele><time>2026-05-03T09:37:54.24Z</time></trkpt><trkpt lat="44.7928378" lon="8.4416325"><ele>140.66666666666669</ele><time>2026-05-03T09:37:55.239Z</time></trkpt><trkpt lat="44.7928982" lon="8.4415509"><ele>140.0</ele><time>2026-05-03T09:37:56.239Z</time></trkpt><trkpt lat="44.7929623" lon="8.4414726"><ele>139.33333333333334</ele><time>2026-05-03T09:37:57.239Z</time></trkpt><trkpt lat="44.7930299" lon="8.4414022"><ele>138.66666666666666</ele><time>2026-05-03T09:37:58.24Z</time></trkpt><trkpt lat="44.793094" lon="8.4413276"><ele>138.0</ele><time>2026-05-03T09:37:59.239Z</time></trkpt><trkpt lat="44.7931588" lon="8.4412474"><ele>137.5</ele><time>2026-05-03T09:38:00.239Z</time></trkpt><trkpt lat="44.7932235" lon="8.4411675"><ele>137.0</ele><time>2026-05-03T09:38:01.239Z</time></trkpt><trkpt lat="44.7932914" lon="8.4410916"><ele>136.5</ele><time>2026-05-03T09:38:02.24Z</time></trkpt><trkpt lat="44.7933602" lon="8.441019"><ele>136.0</ele><time>2026-05-03T09:38:03.239Z</time></trkpt><trkpt lat="44.7934254" lon="8.4409496"><ele>135.5</ele><time>2026-05-03T09:38:04.24Z</time></trkpt><trkpt lat="44.7934922" lon="8.4408702"><ele>135.0</ele><time>2026-05-03T09:38:05.24Z</time></trkpt><trkpt lat="44.7935611" lon="8.4407854"><ele>134.33333333333334</ele><time>2026-05-03T09:38:06.24Z</time></trkpt><trkpt lat="44.7936262" lon="8.4407048"><ele>133.66666666666666</ele><time>2026-05-03T09:38:07.24Z</time></trkpt><trkpt lat="44.7936933" lon="8.4406263"><ele>133.0</ele><time>2026-05-03T09:38:08.239Z</time></trkpt><trkpt lat="44.7937606" lon="8.4405481"><ele>132.33333333333331</ele><time>2026-05-03T09:38:09.24Z</time></trkpt><trkpt lat="44.7938241" lon="8.4404698"><ele>131.66666666666666</ele><time>2026-05-03T09:38:10.239Z</time></trkpt><trkpt lat="44.793878" lon="8.440398"><ele>131.0</ele><time>2026-05-03T09:38:11.239Z</time></trkpt><trkpt lat="44.7939418" lon="8.4403378"><ele>131.0</ele><time>2026-05-03T09:38:12.239Z</time></trkpt><trkpt lat="44.7939925" lon="8.4402639"><ele>131.0</ele><time>2026-05-03T09:38:13.239Z</time></trkpt><trkpt lat="44.794039" lon="8.4401939"><ele>131.0</ele><time>2026-05-03T09:38:14.24Z</time></trkpt><trkpt lat="44.7940768" lon="8.4401225"><ele>131.0</ele><time>2026-05-03T09:38:15.239Z</time></trkpt><trkpt lat="44.7941239" lon="8.4400525"><ele>131.0</ele><time>2026-05-03T09:38:16.24Z</time></trkpt><trkpt lat="44.7942401" lon="8.4399942"><ele>131.0</ele><time>2026-05-03T09:38:18.239Z</time></trkpt><trkpt lat="44.7943028" lon="8.440014"><ele>130.6</ele><time>2026-05-03T09:38:19.239Z</time></trkpt><trkpt lat="44.7944199" lon="8.4400716"><ele>130.2</ele><time>2026-05-03T09:38:21.239Z</time></trkpt><trkpt lat="44.7945378" lon="8.4400936"><ele>129.8</ele><time>2026-05-03T09:38:23.239Z</time></trkpt><trkpt lat="44.7945998" lon="8.4401183"><ele>129.4</ele><time>2026-05-03T09:38:24.239Z</time></trkpt><trkpt lat="44.7947173" lon="8.4401611"><ele>129.0</ele><time>2026-05-03T09:38:26.239Z</time></trkpt><trkpt lat="44.7948182" lon="8.4402079"><ele>129.0</ele><time>2026-05-03T09:38:27.239Z</time></trkpt><trkpt lat="44.794901" lon="8.4402337"><ele>129.0</ele><time>2026-05-03T09:38:28.239Z</time></trkpt><trkpt lat="44.7949735" lon="8.4402486"><ele>129.0</ele><time>2026-05-03T09:38:29.239Z</time></trkpt><trkpt lat="44.7950388" lon="8.4402625"><ele>129.0</ele><time>2026-05-03T09:38:30.239Z</time></trkpt><trkpt lat="44.7951252" lon="8.4402797"><ele>129.0</ele><time>2026-05-03T09:38:32.239Z</time></trkpt><trkpt lat="44.7952088" lon="8.4402698"><ele>129.0</ele><time>2026-05-03T09:38:38.24Z</time></trkpt><trkpt lat="44.7953279" lon="8.440257"><ele>128.57142857142856</ele><time>2026-05-03T09:38:40.241Z</time></trkpt><trkpt lat="44.795402" lon="8.4402538"><ele>128.14285714285714</ele><time>2026-05-03T09:38:41.24Z</time></trkpt><trkpt lat="44.7954728" lon="8.4402448"><ele>127.71428571428571</ele><time>2026-05-03T09:38:42.24Z</time></trkpt><trkpt lat="44.7955413" lon="8.4402367"><ele>127.28571428571428</ele><time>2026-05-03T09:38:43.241Z</time></trkpt><trkpt lat="44.7956074" lon="8.440233"><ele>126.85714285714286</ele><time>2026-05-03T09:38:44.24Z</time></trkpt><trkpt lat="44.7956764" lon="8.4402307"><ele>126.42857142857143</ele><time>2026-05-03T09:38:45.241Z</time></trkpt><trkpt lat="44.7957597" lon="8.4402272"><ele>126.0</ele><time>2026-05-03T09:38:46.24Z</time></trkpt><trkpt lat="44.7958384" lon="8.4402169"><ele>126.0</ele><time>2026-05-03T09:38:47.24Z</time></trkpt><trkpt lat="44.7959182" lon="8.4401927"><ele>126.0</ele><time>2026-05-03T09:38:48.241Z</time></trkpt><trkpt lat="44.7959965" lon="8.4401613"><ele>126.0</ele><time>2026-05-03T09:38:49.241Z</time></trkpt><trkpt lat="44.7960678" lon="8.4401489"><ele>126.0</ele><time>2026-05-03T09:38:50.24Z</time></trkpt><trkpt lat="44.7961463" lon="8.4401347"><ele>126.0</ele><time>2026-05-03T09:38:51.241Z</time></trkpt><trkpt lat="44.7962223" lon="8.440126"><ele>126.0</ele><time>2026-05-03T09:38:52.241Z</time></trkpt><trkpt lat="44.7962955" lon="8.44011"><ele>125.83333333333333</ele><time>2026-05-03T09:38:53.24Z</time></trkpt><trkpt lat="44.7963768" lon="8.4400996"><ele>125.66666666666666</ele><time>2026-05-03T09:38:54.24Z</time></trkpt><trkpt lat="44.7964705" lon="8.4400936"><ele>125.5</ele><time>2026-05-03T09:38:55.24Z</time></trkpt><trkpt lat="44.7965605" lon="8.44008"><ele>125.33333333333333</ele><time>2026-05-03T09:38:56.24Z</time></trkpt><trkpt lat="44.7966498" lon="8.4400619"><ele>125.16666666666666</ele><time>2026-05-03T09:38:57.24Z</time></trkpt><trkpt lat="44.796737" lon="8.4400484"><ele>125.0</ele><time>2026-05-03T09:38:58.241Z</time></trkpt><trkpt lat="44.7968239" lon="8.4400368"><ele>124.49999999999999</ele><time>2026-05-03T09:38:59.24Z</time></trkpt><trkpt lat="44.796913" lon="8.4400253"><ele>124.0</ele><time>2026-05-03T09:39:00.24Z</time></trkpt><trkpt lat="44.7970071" lon="8.4400164"><ele>123.5</ele><time>2026-05-03T09:39:01.24Z</time></trkpt><trkpt lat="44.7971002" lon="8.4400086"><ele>123.0</ele><time>2026-05-03T09:39:02.24Z</time></trkpt><trkpt lat="44.7971875" lon="8.4399998"><ele>122.49999999999999</ele><time>2026-05-03T09:39:03.24Z</time></trkpt><trkpt lat="44.79727" lon="8.4399907"><ele>122.0</ele><time>2026-05-03T09:39:04.24Z</time></trkpt><trkpt lat="44.7973481" lon="8.4399799"><ele>121.99999999999999</ele><time>2026-05-03T09:39:05.24Z</time></trkpt><trkpt lat="44.7974192" lon="8.439973"><ele>122.0</ele><time>2026-05-03T09:39:06.241Z</time></trkpt><trkpt lat="44.7974826" lon="8.4399657"><ele>122.0</ele><time>2026-05-03T09:39:07.24Z</time></trkpt><trkpt lat="44.7975683" lon="8.4399545"><ele>122.0</ele><time>2026-05-03T09:39:09.24Z</time></trkpt><trkpt lat="44.7976434" lon="8.4399401"><ele>121.99999999999999</ele><time>2026-05-03T09:39:24.241Z</time></trkpt><trkpt lat="44.7976922" lon="8.4400034"><ele>122.0</ele><time>2026-05-03T09:39:26.241Z</time></trkpt><trkpt lat="44.797708" lon="8.4401834"><ele>121.49999999999999</ele><time>2026-05-03T09:39:28.241Z</time></trkpt><trkpt lat="44.7977202" lon="8.440286"><ele>121.0</ele><time>2026-05-03T09:39:29.242Z</time></trkpt><trkpt lat="44.7977393" lon="8.4403832"><ele>120.5</ele><time>2026-05-03T09:39:30.241Z</time></trkpt><trkpt lat="44.7977618" lon="8.4404877"><ele>120.0</ele><time>2026-05-03T09:39:31.241Z</time></trkpt><trkpt lat="44.7977842" lon="8.4405957"><ele>119.49999999999999</ele><time>2026-05-03T09:39:32.241Z</time></trkpt><trkpt lat="44.7978075" lon="8.4407073"><ele>119.0</ele><time>2026-05-03T09:39:33.241Z</time></trkpt><trkpt lat="44.7978328" lon="8.4408212"><ele>119.0</ele><time>2026-05-03T09:39:34.241Z</time></trkpt><trkpt lat="44.7978611" lon="8.4409427"><ele>119.0</ele><time>2026-05-03T09:39:35.242Z</time></trkpt><trkpt lat="44.7978888" lon="8.4410657"><ele>119.0</ele><time>2026-05-03T09:39:36.242Z</time></trkpt><trkpt lat="44.7979183" lon="8.4411888"><ele>119.0</ele><time>2026-05-03T09:39:37.242Z</time></trkpt><trkpt lat="44.7979501" lon="8.4413082"><ele>119.0</ele><time>2026-05-03T09:39:38.241Z</time></trkpt><trkpt lat="44.7979837" lon="8.4414213"><ele>118.99999999999999</ele><time>2026-05-03T09:39:39.241Z</time></trkpt><trkpt lat="44.7980157" lon="8.4415346"><ele>119.0</ele><time>2026-05-03T09:39:40.241Z</time></trkpt><trkpt lat="44.7980483" lon="8.4416492"><ele>119.0</ele><time>2026-05-03T09:39:41.241Z</time></trkpt><trkpt lat="44.7980815" lon="8.4417636"><ele>119.0</ele><time>2026-05-03T09:39:42.241Z</time></trkpt><trkpt lat="44.7981172" lon="8.4418765"><ele>118.99999999999999</ele><time>2026-05-03T09:39:43.242Z</time></trkpt><trkpt lat="44.7981577" lon="8.4419916"><ele>119.0</ele><time>2026-05-03T09:39:44.241Z</time></trkpt><trkpt lat="44.7981996" lon="8.4421083"><ele>119.0</ele><time>2026-05-03T09:39:45.241Z</time></trkpt><trkpt lat="44.7982416" lon="8.4422243"><ele>119.0</ele><time>2026-05-03T09:39:46.241Z</time></trkpt><trkpt lat="44.7982834" lon="8.442339"><ele>119.0</ele><time>2026-05-03T09:39:47.242Z</time></trkpt><trkpt lat="44.7983287" lon="8.4424552"><ele>119.0</ele><time>2026-05-03T09:39:48.241Z</time></trkpt><trkpt lat="44.7983771" lon="8.4425762"><ele>119.0</ele><time>2026-05-03T09:39:49.241Z</time></trkpt><trkpt lat="44.7984258" lon="8.442695"><ele>119.0</ele><time>2026-05-03T09:39:50.242Z</time></trkpt><trkpt lat="44.798478" lon="8.4428166"><ele>119.0</ele><time>2026-05-03T09:39:51.242Z</time></trkpt><trkpt lat="44.7985329" lon="8.4429362"><ele>119.0</ele><time>2026-05-03T09:39:52.242Z</time></trkpt><trkpt lat="44.7985922" lon="8.4430549"><ele>119.0</ele><time>2026-05-03T09:39:53.241Z</time></trkpt><trkpt lat="44.798651" lon="8.4431725"><ele>119.0</ele><time>2026-05-03T09:39:54.241Z</time></trkpt><trkpt lat="44.7987069" lon="8.443287"><ele>118.6</ele><time>2026-05-03T09:39:55.241Z</time></trkpt><trkpt lat="44.7987653" lon="8.4434019"><ele>118.2</ele><time>2026-05-03T09:39:56.242Z</time></trkpt><trkpt lat="44.7988261" lon="8.4435149"><ele>117.79999999999998</ele><time>2026-05-03T09:39:57.241Z</time></trkpt><trkpt lat="44.7988873" lon="8.4436235"><ele>117.39999999999999</ele><time>2026-05-03T09:39:58.241Z</time></trkpt><trkpt lat="44.7989488" lon="8.4437333"><ele>117.0</ele><time>2026-05-03T09:39:59.242Z</time></trkpt><trkpt lat="44.7990107" lon="8.4438439"><ele>117.0</ele><time>2026-05-03T09:40:00.241Z</time></trkpt><trkpt lat="44.7990748" lon="8.4439532"><ele>116.99999999999999</ele><time>2026-05-03T09:40:01.242Z</time></trkpt><trkpt lat="44.7991412" lon="8.4440622"><ele>116.99999999999999</ele><time>2026-05-03T09:40:02.241Z</time></trkpt><trkpt lat="44.7992086" lon="8.4441697"><ele>117.0</ele><time>2026-05-03T09:40:03.242Z</time></trkpt><trkpt lat="44.7992752" lon="8.444273"><ele>117.0</ele><time>2026-05-03T09:40:04.242Z</time></trkpt><trkpt lat="44.7993435" lon="8.4443719"><ele>117.0</ele><time>2026-05-03T09:40:05.242Z</time></trkpt><trkpt lat="44.7994137" lon="8.4444679"><ele>116.99999999999999</ele><time>2026-05-03T09:40:06.242Z</time></trkpt><trkpt lat="44.7994836" lon="8.4445643"><ele>116.99999999999999</ele><time>2026-05-03T09:40:07.242Z</time></trkpt><trkpt lat="44.7995536" lon="8.4446594"><ele>117.0</ele><time>2026-05-03T09:40:08.242Z</time></trkpt><trkpt lat="44.7996261" lon="8.4447492"><ele>117.0</ele><time>2026-05-03T09:40:09.243Z</time></trkpt><trkpt lat="44.7997026" lon="8.4448408"><ele>117.0</ele><time>2026-05-03T09:40:10.242Z</time></trkpt><trkpt lat="44.7997797" lon="8.4449331"><ele>116.99999999999999</ele><time>2026-05-03T09:40:11.242Z</time></trkpt><trkpt lat="44.7998552" lon="8.4450237"><ele>116.99999999999999</ele><time>2026-05-03T09:40:12.242Z</time></trkpt><trkpt lat="44.799936" lon="8.4451117"><ele>117.0</ele><time>2026-05-03T09:40:13.242Z</time></trkpt><trkpt lat="44.8000125" lon="8.4451922"><ele>117.0</ele><time>2026-05-03T09:40:14.242Z</time></trkpt><trkpt lat="44.8000922" lon="8.445275"><ele>117.0</ele><time>2026-05-03T09:40:15.243Z</time></trkpt><trkpt lat="44.8001755" lon="8.4453621"><ele>116.99999999999999</ele><time>2026-05-03T09:40:16.242Z</time></trkpt><trkpt lat="44.80026" lon="8.4454516"><ele>116.99999999999999</ele><time>2026-05-03T09:40:17.242Z</time></trkpt><trkpt lat="44.800341" lon="8.4455397"><ele>117.0</ele><time>2026-05-03T09:40:18.242Z</time></trkpt><trkpt lat="44.8004259" lon="8.4456244"><ele>117.0</ele><time>2026-05-03T09:40:19.242Z</time></trkpt><trkpt lat="44.8005105" lon="8.4457058"><ele>117.0</ele><time>2026-05-03T09:40:20.242Z</time></trkpt><trkpt lat="44.8005952" lon="8.445785"><ele>116.99999999999999</ele><time>2026-05-03T09:40:21.242Z</time></trkpt><trkpt lat="44.8006805" lon="8.4458614"><ele>116.99999999999999</ele><time>2026-05-03T09:40:22.243Z</time></trkpt><trkpt lat="44.8007652" lon="8.4459379"><ele>117.0</ele><time>2026-05-03T09:40:23.243Z</time></trkpt><trkpt lat="44.8008514" lon="8.4460219"><ele>117.0</ele><time>2026-05-03T09:40:24.242Z</time></trkpt><trkpt lat="44.8009385" lon="8.446098"><ele>116.8</ele><time>2026-05-03T09:40:25.242Z</time></trkpt><trkpt lat="44.8010269" lon="8.4461914"><ele>116.6</ele><time>2026-05-03T09:40:26.243Z</time></trkpt><trkpt lat="44.8011136" lon="8.4462829"><ele>116.39999999999999</ele><time>2026-05-03T09:40:27.242Z</time></trkpt><trkpt lat="44.8011992" lon="8.4463706"><ele>116.19999999999999</ele><time>2026-05-03T09:40:28.243Z</time></trkpt><trkpt lat="44.8012852" lon="8.4464549"><ele>116.0</ele><time>2026-05-03T09:40:29.243Z</time></trkpt><trkpt lat="44.8013692" lon="8.446537"><ele>116.0</ele><time>2026-05-03T09:40:30.243Z</time></trkpt><trkpt lat="44.8014531" lon="8.4466181"><ele>116.0</ele><time>2026-05-03T09:40:31.243Z</time></trkpt><trkpt lat="44.8015386" lon="8.4466986"><ele>116.0</ele><time>2026-05-03T09:40:32.242Z</time></trkpt><trkpt lat="44.8016251" lon="8.4467784"><ele>116.0</ele><time>2026-05-03T09:40:33.242Z</time></trkpt><trkpt lat="44.801711" lon="8.4468595"><ele>116.0</ele><time>2026-05-03T09:40:34.243Z</time></trkpt><trkpt lat="44.8017947" lon="8.4469414"><ele>116.0</ele><time>2026-05-03T09:40:35.242Z</time></trkpt><trkpt lat="44.8018769" lon="8.4470253"><ele>116.0</ele><time>2026-05-03T09:40:36.242Z</time></trkpt><trkpt lat="44.8019607" lon="8.4471094"><ele>116.0</ele><time>2026-05-03T09:40:37.243Z</time></trkpt><trkpt lat="44.8020462" lon="8.4471939"><ele>116.0</ele><time>2026-05-03T09:40:38.242Z</time></trkpt><trkpt lat="44.802131" lon="8.4472795"><ele>116.0</ele><time>2026-05-03T09:40:39.242Z</time></trkpt><trkpt lat="44.8022152" lon="8.4473672"><ele>115.8</ele><time>2026-05-03T09:40:40.242Z</time></trkpt><trkpt lat="44.8022949" lon="8.4474474"><ele>115.6</ele><time>2026-05-03T09:40:41.242Z</time></trkpt><trkpt lat="44.8023767" lon="8.447528"><ele>115.4</ele><time>2026-05-03T09:40:42.242Z</time></trkpt><trkpt lat="44.8024633" lon="8.4476151"><ele>115.2</ele><time>2026-05-03T09:40:43.243Z</time></trkpt><trkpt lat="44.8025512" lon="8.4477022"><ele>115.0</ele><time>2026-05-03T09:40:44.242Z</time></trkpt><trkpt lat="44.8026383" lon="8.4477876"><ele>114.8</ele><time>2026-05-03T09:40:45.243Z</time></trkpt><trkpt lat="44.8027239" lon="8.4478717"><ele>114.6</ele><time>2026-05-03T09:40:46.242Z</time></trkpt><trkpt lat="44.8028098" lon="8.447954"><ele>114.4</ele><time>2026-05-03T09:40:47.242Z</time></trkpt><trkpt lat="44.8028939" lon="8.4480349"><ele>114.2</ele><time>2026-05-03T09:40:48.242Z</time></trkpt><trkpt lat="44.8029781" lon="8.4481159"><ele>114.0</ele><time>2026-05-03T09:40:49.243Z</time></trkpt><trkpt lat="44.8030607" lon="8.4481987"><ele>114.0</ele><time>2026-05-03T09:40:50.244Z</time></trkpt><trkpt lat="44.8031411" lon="8.4482834"><ele>114.0</ele><time>2026-05-03T09:40:51.243Z</time></trkpt><trkpt lat="44.8032203" lon="8.4483676"><ele>114.0</ele><time>2026-05-03T09:40:52.243Z</time></trkpt><trkpt lat="44.8033038" lon="8.4484526"><ele>114.0</ele><time>2026-05-03T09:40:53.243Z</time></trkpt><trkpt lat="44.8033887" lon="8.4485365"><ele>114.0</ele><time>2026-05-03T09:40:54.243Z</time></trkpt><trkpt lat="44.8034739" lon="8.4486201"><ele>114.0</ele><time>2026-05-03T09:40:55.243Z</time></trkpt><trkpt lat="44.8035579" lon="8.4487042"><ele>114.0</ele><time>2026-05-03T09:40:56.243Z</time></trkpt><trkpt lat="44.8036388" lon="8.4487886"><ele>114.0</ele><time>2026-05-03T09:40:57.244Z</time></trkpt><trkpt lat="44.8037189" lon="8.4488725"><ele>114.0</ele><time>2026-05-03T09:40:58.243Z</time></trkpt><trkpt lat="44.8037996" lon="8.4489548"><ele>114.0</ele><time>2026-05-03T09:40:59.243Z</time></trkpt><trkpt lat="44.8038816" lon="8.4490352"><ele>114.0</ele><time>2026-05-03T09:41:00.243Z</time></trkpt><trkpt lat="44.8039704" lon="8.4491222"><ele>114.0</ele><time>2026-05-03T09:41:01.243Z</time></trkpt><trkpt lat="44.8040557" lon="8.4492007"><ele>114.0</ele><time>2026-05-03T09:41:02.243Z</time></trkpt><trkpt lat="44.8041378" lon="8.4492826"><ele>114.0</ele><time>2026-05-03T09:41:03.244Z</time></trkpt><trkpt lat="44.8042162" lon="8.449362"><ele>114.0</ele><time>2026-05-03T09:41:04.243Z</time></trkpt><trkpt lat="44.8042961" lon="8.4494422"><ele>114.0</ele><time>2026-05-03T09:41:05.243Z</time></trkpt><trkpt lat="44.8043784" lon="8.4495271"><ele>114.0</ele><time>2026-05-03T09:41:06.243Z</time></trkpt><trkpt lat="44.8044629" lon="8.4496161"><ele>114.0</ele><time>2026-05-03T09:41:07.243Z</time></trkpt><trkpt lat="44.8045443" lon="8.4497111"><ele>114.0</ele><time>2026-05-03T09:41:08.244Z</time></trkpt><trkpt lat="44.8046268" lon="8.4498078"><ele>114.0</ele><time>2026-05-03T09:41:09.243Z</time></trkpt><trkpt lat="44.8047084" lon="8.4498992"><ele>114.0</ele><time>2026-05-03T09:41:10.243Z</time></trkpt><trkpt lat="44.8047906" lon="8.4499864"><ele>114.0</ele><time>2026-05-03T09:41:11.244Z</time></trkpt><trkpt lat="44.8048751" lon="8.4500709"><ele>114.0</ele><time>2026-05-03T09:41:12.243Z</time></trkpt><trkpt lat="44.8049601" lon="8.450154"><ele>114.0</ele><time>2026-05-03T09:41:13.243Z</time></trkpt><trkpt lat="44.8050449" lon="8.4502387"><ele>114.0</ele><time>2026-05-03T09:41:14.243Z</time></trkpt><trkpt lat="44.8051301" lon="8.450321"><ele>114.0</ele><time>2026-05-03T09:41:15.243Z</time></trkpt><trkpt lat="44.8052138" lon="8.4504009"><ele>114.0</ele><time>2026-05-03T09:41:16.244Z</time></trkpt><trkpt lat="44.8052989" lon="8.4504771"><ele>114.0</ele><time>2026-05-03T09:41:17.244Z</time></trkpt><trkpt lat="44.8053859" lon="8.4505538"><ele>114.0</ele><time>2026-05-03T09:41:18.244Z</time></trkpt><trkpt lat="44.8054722" lon="8.450631"><ele>114.0</ele><time>2026-05-03T09:41:19.243Z</time></trkpt><trkpt lat="44.8055582" lon="8.4507077"><ele>114.2</ele><time>2026-05-03T09:41:20.243Z</time></trkpt><trkpt lat="44.8056428" lon="8.4507816"><ele>114.4</ele><time>2026-05-03T09:41:21.243Z</time></trkpt><trkpt lat="44.8057239" lon="8.4508512"><ele>114.6</ele><time>2026-05-03T09:41:22.243Z</time></trkpt><trkpt lat="44.8058094" lon="8.4509301"><ele>114.8</ele><time>2026-05-03T09:41:23.243Z</time></trkpt><trkpt lat="44.8058937" lon="8.4510136"><ele>115.0</ele><time>2026-05-03T09:41:24.243Z</time></trkpt><trkpt lat="44.8059774" lon="8.4510972"><ele>114.6</ele><time>2026-05-03T09:41:25.243Z</time></trkpt><trkpt lat="44.8060591" lon="8.4511811"><ele>114.2</ele><time>2026-05-03T09:41:26.244Z</time></trkpt><trkpt lat="44.8061397" lon="8.4512627"><ele>113.80000000000001</ele><time>2026-05-03T09:41:27.243Z</time></trkpt><trkpt lat="44.8062224" lon="8.4513457"><ele>113.4</ele><time>2026-05-03T09:41:28.243Z</time></trkpt><trkpt lat="44.8063083" lon="8.4514301"><ele>113.0</ele><time>2026-05-03T09:41:29.243Z</time></trkpt><trkpt lat="44.8063944" lon="8.4515129"><ele>113.0</ele><time>2026-05-03T09:41:30.243Z</time></trkpt><trkpt lat="44.8064804" lon="8.4515946"><ele>113.00000000000001</ele><time>2026-05-03T09:41:31.244Z</time></trkpt><trkpt lat="44.8065656" lon="8.4516774"><ele>113.00000000000001</ele><time>2026-05-03T09:41:32.243Z</time></trkpt><trkpt lat="44.806651" lon="8.4517604"><ele>113.0</ele><time>2026-05-03T09:41:33.243Z</time></trkpt><trkpt lat="44.8067348" lon="8.4518435"><ele>113.0</ele><time>2026-05-03T09:41:34.244Z</time></trkpt><trkpt lat="44.8068194" lon="8.4519272"><ele>113.0</ele><time>2026-05-03T09:41:35.244Z</time></trkpt><trkpt lat="44.8069036" lon="8.4520123"><ele>113.00000000000001</ele><time>2026-05-03T09:41:36.245Z</time></trkpt><trkpt lat="44.8069871" lon="8.4520957"><ele>113.00000000000001</ele><time>2026-05-03T09:41:37.245Z</time></trkpt><trkpt lat="44.8070714" lon="8.452178"><ele>113.0</ele><time>2026-05-03T09:41:38.244Z</time></trkpt><trkpt lat="44.8071556" lon="8.4522611"><ele>113.0</ele><time>2026-05-03T09:41:39.244Z</time></trkpt><trkpt lat="44.8072397" lon="8.4523441"><ele>113.0</ele><time>2026-05-03T09:41:40.245Z</time></trkpt><trkpt lat="44.8073242" lon="8.4524269"><ele>113.00000000000001</ele><time>2026-05-03T09:41:41.245Z</time></trkpt><trkpt lat="44.8074086" lon="8.4525089"><ele>113.00000000000001</ele><time>2026-05-03T09:41:42.245Z</time></trkpt><trkpt lat="44.8074936" lon="8.452591"><ele>113.0</ele><time>2026-05-03T09:41:43.244Z</time></trkpt><trkpt lat="44.8075803" lon="8.4526734"><ele>113.0</ele><time>2026-05-03T09:41:44.244Z</time></trkpt><trkpt lat="44.8076648" lon="8.4527552"><ele>113.0</ele><time>2026-05-03T09:41:45.244Z</time></trkpt><trkpt lat="44.8077485" lon="8.4528423"><ele>113.00000000000001</ele><time>2026-05-03T09:41:46.245Z</time></trkpt><trkpt lat="44.8078325" lon="8.4529302"><ele>113.00000000000001</ele><time>2026-05-03T09:41:47.245Z</time></trkpt><trkpt lat="44.807918" lon="8.4530155"><ele>113.0</ele><time>2026-05-03T09:41:48.245Z</time></trkpt><trkpt lat="44.808003" lon="8.4531"><ele>113.0</ele><time>2026-05-03T09:41:49.244Z</time></trkpt><trkpt lat="44.8080886" lon="8.4531837"><ele>112.80000000000001</ele><time>2026-05-03T09:41:50.244Z</time></trkpt><trkpt lat="44.8081749" lon="8.4532668"><ele>112.60000000000001</ele><time>2026-05-03T09:41:51.245Z</time></trkpt><trkpt lat="44.8082608" lon="8.45335"><ele>112.39999999999999</ele><time>2026-05-03T09:41:52.244Z</time></trkpt><trkpt lat="44.8083458" lon="8.4534335"><ele>112.19999999999999</ele><time>2026-05-03T09:41:53.245Z</time></trkpt><trkpt lat="44.8084318" lon="8.4535195"><ele>112.0</ele><time>2026-05-03T09:41:54.244Z</time></trkpt><trkpt lat="44.808517" lon="8.4536051"><ele>112.19999999999999</ele><time>2026-05-03T09:41:55.245Z</time></trkpt><trkpt lat="44.8086023" lon="8.4536887"><ele>112.39999999999999</ele><time>2026-05-03T09:41:56.245Z</time></trkpt><trkpt lat="44.8086879" lon="8.4537747"><ele>112.60000000000001</ele><time>2026-05-03T09:41:57.244Z</time></trkpt><trkpt lat="44.8087728" lon="8.4538614"><ele>112.80000000000001</ele><time>2026-05-03T09:41:58.244Z</time></trkpt><trkpt lat="44.8088573" lon="8.453947"><ele>113.0</ele><time>2026-05-03T09:41:59.245Z</time></trkpt><trkpt lat="44.8089426" lon="8.454033"><ele>113.0</ele><time>2026-05-03T09:42:00.245Z</time></trkpt><trkpt lat="44.8090271" lon="8.4541177"><ele>113.00000000000001</ele><time>2026-05-03T09:42:01.244Z</time></trkpt><trkpt lat="44.8091149" lon="8.4542068"><ele>113.00000000000001</ele><time>2026-05-03T09:42:02.244Z</time></trkpt><trkpt lat="44.8092043" lon="8.4542926"><ele>113.0</ele><time>2026-05-03T09:42:03.244Z</time></trkpt><trkpt lat="44.809291" lon="8.4543748"><ele>113.0</ele><time>2026-05-03T09:42:04.244Z</time></trkpt><trkpt lat="44.8093713" lon="8.4544532"><ele>113.0</ele><time>2026-05-03T09:42:05.245Z</time></trkpt><trkpt lat="44.809458" lon="8.4545386"><ele>113.00000000000001</ele><time>2026-05-03T09:42:06.244Z</time></trkpt><trkpt lat="44.8095415" lon="8.4546225"><ele>113.00000000000001</ele><time>2026-05-03T09:42:07.245Z</time></trkpt><trkpt lat="44.8096268" lon="8.4547075"><ele>113.0</ele><time>2026-05-03T09:42:08.244Z</time></trkpt><trkpt lat="44.8097121" lon="8.4547906"><ele>113.0</ele><time>2026-05-03T09:42:09.244Z</time></trkpt><trkpt lat="44.8097959" lon="8.4548708"><ele>113.0</ele><time>2026-05-03T09:42:10.245Z</time></trkpt><trkpt lat="44.809881" lon="8.4549496"><ele>113.00000000000001</ele><time>2026-05-03T09:42:11.245Z</time></trkpt><trkpt lat="44.8099667" lon="8.4550292"><ele>113.00000000000001</ele><time>2026-05-03T09:42:12.246Z</time></trkpt><trkpt lat="44.8100512" lon="8.4551089"><ele>113.0</ele><time>2026-05-03T09:42:13.244Z</time></trkpt><trkpt lat="44.8101353" lon="8.4551911"><ele>113.0</ele><time>2026-05-03T09:42:14.245Z</time></trkpt><trkpt lat="44.8102177" lon="8.4552751"><ele>113.0</ele><time>2026-05-03T09:42:15.245Z</time></trkpt><trkpt lat="44.8103005" lon="8.45536"><ele>113.00000000000001</ele><time>2026-05-03T09:42:16.244Z</time></trkpt><trkpt lat="44.8103828" lon="8.4554425"><ele>113.00000000000001</ele><time>2026-05-03T09:42:17.244Z</time></trkpt><trkpt lat="44.8104661" lon="8.4555219"><ele>113.0</ele><time>2026-05-03T09:42:18.244Z</time></trkpt><trkpt lat="44.8105497" lon="8.4555994"><ele>113.0</ele><time>2026-05-03T09:42:19.244Z</time></trkpt><trkpt lat="44.8106339" lon="8.4556785"><ele>113.0</ele><time>2026-05-03T09:42:20.246Z</time></trkpt><trkpt lat="44.8107167" lon="8.4557598"><ele>113.00000000000001</ele><time>2026-05-03T09:42:21.245Z</time></trkpt><trkpt lat="44.8107982" lon="8.4558435"><ele>113.00000000000001</ele><time>2026-05-03T09:42:22.245Z</time></trkpt><trkpt lat="44.8108821" lon="8.4559292"><ele>113.0</ele><time>2026-05-03T09:42:23.246Z</time></trkpt><trkpt lat="44.8109648" lon="8.4560138"><ele>113.0</ele><time>2026-05-03T09:42:24.245Z</time></trkpt><trkpt lat="44.8110475" lon="8.4560966"><ele>113.0</ele><time>2026-05-03T09:42:25.245Z</time></trkpt><trkpt lat="44.8111291" lon="8.45618"><ele>113.00000000000001</ele><time>2026-05-03T09:42:26.246Z</time></trkpt><trkpt lat="44.811213" lon="8.4562637"><ele>113.00000000000001</ele><time>2026-05-03T09:42:27.245Z</time></trkpt><trkpt lat="44.8113017" lon="8.4563499"><ele>113.0</ele><time>2026-05-03T09:42:28.246Z</time></trkpt><trkpt lat="44.8113925" lon="8.4564357"><ele>113.0</ele><time>2026-05-03T09:42:29.245Z</time></trkpt><trkpt lat="44.8114842" lon="8.4565208"><ele>113.2</ele><time>2026-05-03T09:42:30.245Z</time></trkpt><trkpt lat="44.8115741" lon="8.4566029"><ele>113.4</ele><time>2026-05-03T09:42:31.245Z</time></trkpt><trkpt lat="44.8116658" lon="8.4566824"><ele>113.60000000000001</ele><time>2026-05-03T09:42:32.245Z</time></trkpt><trkpt lat="44.8117587" lon="8.4567612"><ele>113.80000000000001</ele><time>2026-05-03T09:42:33.245Z</time></trkpt><trkpt lat="44.8118542" lon="8.4568365"><ele>114.0</ele><time>2026-05-03T09:42:34.246Z</time></trkpt><trkpt lat="44.8119517" lon="8.4569039"><ele>114.0</ele><time>2026-05-03T09:42:35.245Z</time></trkpt><trkpt lat="44.8120484" lon="8.4569717"><ele>114.0</ele><time>2026-05-03T09:42:36.245Z</time></trkpt><trkpt lat="44.8121439" lon="8.4570386"><ele>114.0</ele><time>2026-05-03T09:42:37.245Z</time></trkpt><trkpt lat="44.8122396" lon="8.4571022"><ele>114.0</ele><time>2026-05-03T09:42:38.246Z</time></trkpt><trkpt lat="44.8123363" lon="8.4571621"><ele>114.0</ele><time>2026-05-03T09:42:39.246Z</time></trkpt><trkpt lat="44.8124328" lon="8.4572169"><ele>114.4</ele><time>2026-05-03T09:42:40.246Z</time></trkpt><trkpt lat="44.8125286" lon="8.457269"><ele>114.80000000000001</ele><time>2026-05-03T09:42:41.246Z</time></trkpt><trkpt lat="44.8126232" lon="8.4573158"><ele>115.19999999999999</ele><time>2026-05-03T09:42:42.246Z</time></trkpt><trkpt lat="44.8127189" lon="8.45736"><ele>115.6</ele><time>2026-05-03T09:42:43.246Z</time></trkpt><trkpt lat="44.8128157" lon="8.4574043"><ele>116.0</ele><time>2026-05-03T09:42:44.245Z</time></trkpt><trkpt lat="44.8129132" lon="8.4574482"><ele>116.0</ele><time>2026-05-03T09:42:45.246Z</time></trkpt><trkpt lat="44.8130104" lon="8.4574851"><ele>116.0</ele><time>2026-05-03T09:42:46.245Z</time></trkpt><trkpt lat="44.813109" lon="8.4575167"><ele>116.0</ele><time>2026-05-03T09:42:47.245Z</time></trkpt><trkpt lat="44.8132081" lon="8.4575449"><ele>116.0</ele><time>2026-05-03T09:42:48.246Z</time></trkpt><trkpt lat="44.8133073" lon="8.4575736"><ele>116.0</ele><time>2026-05-03T09:42:49.245Z</time></trkpt><trkpt lat="44.8134108" lon="8.4576057"><ele>115.6</ele><time>2026-05-03T09:42:50.246Z</time></trkpt><trkpt lat="44.813513" lon="8.4576333"><ele>115.19999999999999</ele><time>2026-05-03T09:42:51.245Z</time></trkpt><trkpt lat="44.8136167" lon="8.4576524"><ele>114.80000000000001</ele><time>2026-05-03T09:42:52.245Z</time></trkpt><trkpt lat="44.8137208" lon="8.4576699"><ele>114.4</ele><time>2026-05-03T09:42:53.245Z</time></trkpt><trkpt lat="44.8138241" lon="8.457692"><ele>114.0</ele><time>2026-05-03T09:42:54.245Z</time></trkpt><trkpt lat="44.8139264" lon="8.4577209"><ele>114.0</ele><time>2026-05-03T09:42:55.245Z</time></trkpt><trkpt lat="44.8140261" lon="8.4577504"><ele>114.0</ele><time>2026-05-03T09:42:56.246Z</time></trkpt><trkpt lat="44.8141263" lon="8.4577793"><ele>114.0</ele><time>2026-05-03T09:42:57.246Z</time></trkpt><trkpt lat="44.8142272" lon="8.4578066"><ele>114.0</ele><time>2026-05-03T09:42:58.245Z</time></trkpt><trkpt lat="44.8143295" lon="8.457833"><ele>114.0</ele><time>2026-05-03T09:42:59.245Z</time></trkpt><trkpt lat="44.814434" lon="8.457859"><ele>113.80000000000001</ele><time>2026-05-03T09:43:00.246Z</time></trkpt><trkpt lat="44.8145369" lon="8.4578846"><ele>113.60000000000001</ele><time>2026-05-03T09:43:01.245Z</time></trkpt><trkpt lat="44.8146389" lon="8.4579108"><ele>113.4</ele><time>2026-05-03T09:43:02.246Z</time></trkpt><trkpt lat="44.8147411" lon="8.4579385"><ele>113.2</ele><time>2026-05-03T09:43:03.246Z</time></trkpt><trkpt lat="44.8148412" lon="8.4579684"><ele>113.0</ele><time>2026-05-03T09:43:04.246Z</time></trkpt><trkpt lat="44.8149427" lon="8.4579996"><ele>113.4</ele><time>2026-05-03T09:43:05.247Z</time></trkpt><trkpt lat="44.8150431" lon="8.458034"><ele>113.80000000000001</ele><time>2026-05-03T09:43:06.247Z</time></trkpt><trkpt lat="44.8151452" lon="8.4580642"><ele>114.2</ele><time>2026-05-03T09:43:07.247Z</time></trkpt><trkpt lat="44.8152459" lon="8.4580914"><ele>114.6</ele><time>2026-05-03T09:43:08.246Z</time></trkpt><trkpt lat="44.8153485" lon="8.4581134"><ele>115.0</ele><time>2026-05-03T09:43:09.247Z</time></trkpt><trkpt lat="44.8154504" lon="8.4581372"><ele>115.0</ele><time>2026-05-03T09:43:10.247Z</time></trkpt><trkpt lat="44.8155524" lon="8.4581606"><ele>115.0</ele><time>2026-05-03T09:43:11.246Z</time></trkpt><trkpt lat="44.8156546" lon="8.4581866"><ele>115.0</ele><time>2026-05-03T09:43:12.246Z</time></trkpt><trkpt lat="44.8157561" lon="8.4582135"><ele>115.0</ele><time>2026-05-03T09:43:13.247Z</time></trkpt><trkpt lat="44.8158581" lon="8.4582421"><ele>115.0</ele><time>2026-05-03T09:43:14.246Z</time></trkpt><trkpt lat="44.815958" lon="8.4582717"><ele>115.0</ele><time>2026-05-03T09:43:15.247Z</time></trkpt><trkpt lat="44.8160564" lon="8.4583039"><ele>115.0</ele><time>2026-05-03T09:43:16.246Z</time></trkpt><trkpt lat="44.8161558" lon="8.4583366"><ele>115.0</ele><time>2026-05-03T09:43:17.247Z</time></trkpt><trkpt lat="44.8162559" lon="8.4583669"><ele>115.0</ele><time>2026-05-03T09:43:18.246Z</time></trkpt><trkpt lat="44.8163544" lon="8.4583998"><ele>115.0</ele><time>2026-05-03T09:43:19.246Z</time></trkpt><trkpt lat="44.816453" lon="8.4584411"><ele>115.0</ele><time>2026-05-03T09:43:20.246Z</time></trkpt><trkpt lat="44.8165492" lon="8.4584916"><ele>115.0</ele><time>2026-05-03T09:43:21.247Z</time></trkpt><trkpt lat="44.8166435" lon="8.4585474"><ele>115.0</ele><time>2026-05-03T09:43:22.246Z</time></trkpt><trkpt lat="44.8167364" lon="8.4586081"><ele>115.0</ele><time>2026-05-03T09:43:23.246Z</time></trkpt><trkpt lat="44.816829" lon="8.4586698"><ele>115.0</ele><time>2026-05-03T09:43:24.246Z</time></trkpt><trkpt lat="44.8169199" lon="8.4587345"><ele>115.2</ele><time>2026-05-03T09:43:25.246Z</time></trkpt><trkpt lat="44.8170086" lon="8.4588036"><ele>115.4</ele><time>2026-05-03T09:43:26.246Z</time></trkpt><trkpt lat="44.817096" lon="8.4588785"><ele>115.6</ele><time>2026-05-03T09:43:27.246Z</time></trkpt><trkpt lat="44.8171807" lon="8.4589577"><ele>115.8</ele><time>2026-05-03T09:43:28.246Z</time></trkpt><trkpt lat="44.8172618" lon="8.4590396"><ele>116.0</ele><time>2026-05-03T09:43:29.246Z</time></trkpt><trkpt lat="44.8173407" lon="8.4591287"><ele>116.0</ele><time>2026-05-03T09:43:30.246Z</time></trkpt><trkpt lat="44.8174183" lon="8.4592211"><ele>116.0</ele><time>2026-05-03T09:43:31.247Z</time></trkpt><trkpt lat="44.8174912" lon="8.4593204"><ele>116.0</ele><time>2026-05-03T09:43:32.246Z</time></trkpt><trkpt lat="44.8175652" lon="8.4594219"><ele>116.0</ele><time>2026-05-03T09:43:33.247Z</time></trkpt><trkpt lat="44.817634" lon="8.459528"><ele>116.0</ele><time>2026-05-03T09:43:34.246Z</time></trkpt><trkpt lat="44.8176961" lon="8.4596408"><ele>115.6</ele><time>2026-05-03T09:43:35.247Z</time></trkpt><trkpt lat="44.8177533" lon="8.459753"><ele>115.19999999999999</ele><time>2026-05-03T09:43:36.247Z</time></trkpt><trkpt lat="44.8178029" lon="8.4598691"><ele>114.80000000000001</ele><time>2026-05-03T09:43:37.246Z</time></trkpt><trkpt lat="44.8178468" lon="8.4599914"><ele>114.4</ele><time>2026-05-03T09:43:38.246Z</time></trkpt><trkpt lat="44.8178874" lon="8.4601179"><ele>114.0</ele><time>2026-05-03T09:43:39.246Z</time></trkpt><trkpt lat="44.8179251" lon="8.4602484"><ele>114.0</ele><time>2026-05-03T09:43:40.246Z</time></trkpt><trkpt lat="44.8179617" lon="8.4603772"><ele>114.0</ele><time>2026-05-03T09:43:41.246Z</time></trkpt><trkpt lat="44.817994" lon="8.4605071"><ele>114.0</ele><time>2026-05-03T09:43:42.246Z</time></trkpt><trkpt lat="44.8180207" lon="8.4606408"><ele>114.0</ele><time>2026-05-03T09:43:43.247Z</time></trkpt><trkpt lat="44.8180415" lon="8.4607774"><ele>114.0</ele><time>2026-05-03T09:43:44.246Z</time></trkpt><trkpt lat="44.818059" lon="8.4609122"><ele>114.80000000000001</ele><time>2026-05-03T09:43:45.247Z</time></trkpt><trkpt lat="44.8180783" lon="8.4610468"><ele>115.60000000000001</ele><time>2026-05-03T09:43:46.246Z</time></trkpt><trkpt lat="44.8180993" lon="8.4611829"><ele>116.4</ele><time>2026-05-03T09:43:47.247Z</time></trkpt><trkpt lat="44.8181201" lon="8.4613222"><ele>117.2</ele><time>2026-05-03T09:43:48.246Z</time></trkpt><trkpt lat="44.8181371" lon="8.4614616"><ele>118.0</ele><time>2026-05-03T09:43:49.246Z</time></trkpt><trkpt lat="44.8181535" lon="8.4615986"><ele>118.4</ele><time>2026-05-03T09:43:50.248Z</time></trkpt><trkpt lat="44.8181707" lon="8.4617365"><ele>118.80000000000001</ele><time>2026-05-03T09:43:51.248Z</time></trkpt><trkpt lat="44.818188" lon="8.4618727"><ele>119.2</ele><time>2026-05-03T09:43:52.248Z</time></trkpt><trkpt lat="44.8182046" lon="8.4620078"><ele>119.6</ele><time>2026-05-03T09:43:53.247Z</time></trkpt><trkpt lat="44.8182218" lon="8.4621424"><ele>120.0</ele><time>2026-05-03T09:43:54.247Z</time></trkpt><trkpt lat="44.8182394" lon="8.462274"><ele>121.0</ele><time>2026-05-03T09:43:55.247Z</time></trkpt><trkpt lat="44.8182568" lon="8.4624049"><ele>122.0</ele><time>2026-05-03T09:43:56.248Z</time></trkpt><trkpt lat="44.8182774" lon="8.4625398"><ele>123.0</ele><time>2026-05-03T09:43:57.247Z</time></trkpt><trkpt lat="44.8182984" lon="8.4626708"><ele>124.0</ele><time>2026-05-03T09:43:58.247Z</time></trkpt><trkpt lat="44.8183199" lon="8.462796"><ele>125.0</ele><time>2026-05-03T09:43:59.248Z</time></trkpt><trkpt lat="44.8183406" lon="8.4629084"><ele>125.49999999999999</ele><time>2026-05-03T09:44:00.247Z</time></trkpt><trkpt lat="44.8183595" lon="8.4630119"><ele>126.0</ele><time>2026-05-03T09:44:01.248Z</time></trkpt><trkpt lat="44.8183762" lon="8.4631085"><ele>126.5</ele><time>2026-05-03T09:44:02.247Z</time></trkpt><trkpt lat="44.8183891" lon="8.4631964"><ele>127.0</ele><time>2026-05-03T09:44:03.247Z</time></trkpt><trkpt lat="44.8184051" lon="8.4633583"><ele>127.49999999999999</ele><time>2026-05-03T09:44:05.247Z</time></trkpt><trkpt lat="44.8184607" lon="8.4634787"><ele>128.0</ele><time>2026-05-03T09:44:07.247Z</time></trkpt><trkpt lat="44.8185689" lon="8.4634438"><ele>126.85714285714285</ele><time>2026-05-03T09:44:09.247Z</time></trkpt><trkpt lat="44.8186172" lon="8.4633815"><ele>125.7142857142857</ele><time>2026-05-03T09:44:10.247Z</time></trkpt><trkpt lat="44.8186619" lon="8.4632977"><ele>124.57142857142857</ele><time>2026-05-03T09:44:11.248Z</time></trkpt><trkpt lat="44.8187043" lon="8.4632089"><ele>123.42857142857142</ele><time>2026-05-03T09:44:12.247Z</time></trkpt><trkpt lat="44.8187509" lon="8.4631262"><ele>122.28571428571428</ele><time>2026-05-03T09:44:13.247Z</time></trkpt><trkpt lat="44.8188057" lon="8.4630533"><ele>121.14285714285714</ele><time>2026-05-03T09:44:14.247Z</time></trkpt><trkpt lat="44.8188691" lon="8.4629941"><ele>120.0</ele><time>2026-05-03T09:44:15.248Z</time></trkpt><trkpt lat="44.8189355" lon="8.4629418"><ele>119.66666666666667</ele><time>2026-05-03T09:44:16.247Z</time></trkpt><trkpt lat="44.8190051" lon="8.462889"><ele>119.33333333333334</ele><time>2026-05-03T09:44:17.247Z</time></trkpt><trkpt lat="44.819077" lon="8.4628369"><ele>119.0</ele><time>2026-05-03T09:44:18.247Z</time></trkpt><trkpt lat="44.8191501" lon="8.4627805"><ele>118.66666666666667</ele><time>2026-05-03T09:44:19.247Z</time></trkpt><trkpt lat="44.8192251" lon="8.4627227"><ele>118.33333333333334</ele><time>2026-05-03T09:44:20.248Z</time></trkpt><trkpt lat="44.8192991" lon="8.4626661"><ele>118.0</ele><time>2026-05-03T09:44:21.248Z</time></trkpt><trkpt lat="44.8193733" lon="8.4626066"><ele>117.50000000000001</ele><time>2026-05-03T09:44:22.247Z</time></trkpt><trkpt lat="44.8194466" lon="8.4625438"><ele>117.0</ele><time>2026-05-03T09:44:23.248Z</time></trkpt><trkpt lat="44.8195169" lon="8.4624807"><ele>116.5</ele><time>2026-05-03T09:44:24.247Z</time></trkpt><trkpt lat="44.8195861" lon="8.4624196"><ele>116.0</ele><time>2026-05-03T09:44:25.247Z</time></trkpt><trkpt lat="44.8196546" lon="8.4623597"><ele>115.50000000000001</ele><time>2026-05-03T09:44:26.248Z</time></trkpt><trkpt lat="44.8197241" lon="8.4623001"><ele>115.0</ele><time>2026-05-03T09:44:27.247Z</time></trkpt><trkpt lat="44.8197946" lon="8.4622412"><ele>115.00000000000001</ele><time>2026-05-03T09:44:28.247Z</time></trkpt><trkpt lat="44.8198698" lon="8.4621764"><ele>115.0</ele><time>2026-05-03T09:44:29.247Z</time></trkpt><trkpt lat="44.8199422" lon="8.4621145"><ele>115.0</ele><time>2026-05-03T09:44:30.247Z</time></trkpt><trkpt lat="44.8200103" lon="8.4620556"><ele>115.0</ele><time>2026-05-03T09:44:31.248Z</time></trkpt><trkpt lat="44.8200716" lon="8.4620035"><ele>115.00000000000001</ele><time>2026-05-03T09:44:32.247Z</time></trkpt><trkpt lat="44.8201266" lon="8.4619571"><ele>115.0</ele><time>2026-05-03T09:44:33.247Z</time></trkpt><trkpt lat="44.820231" lon="8.4618727"><ele>115.0</ele><time>2026-05-03T09:44:35.248Z</time></trkpt><trkpt lat="44.820323" lon="8.4617953"><ele>115.0</ele><time>2026-05-03T09:44:37.248Z</time></trkpt><trkpt lat="44.8204104" lon="8.4617168"><ele>115.0</ele><time>2026-05-03T09:44:39.248Z</time></trkpt><trkpt lat="44.820512" lon="8.4616377"><ele>115.0</ele><time>2026-05-03T09:44:41.248Z</time></trkpt><trkpt lat="44.8205708" lon="8.4615944"><ele>115.0</ele><time>2026-05-03T09:44:42.249Z</time></trkpt><trkpt lat="44.8206338" lon="8.4615455"><ele>115.00000000000001</ele><time>2026-05-03T09:44:43.248Z</time></trkpt><trkpt lat="44.820695" lon="8.4614962"><ele>115.0</ele><time>2026-05-03T09:44:44.248Z</time></trkpt><trkpt lat="44.8207537" lon="8.4614404"><ele>115.0</ele><time>2026-05-03T09:44:45.248Z</time></trkpt><trkpt lat="44.8208139" lon="8.461377"><ele>115.0</ele><time>2026-05-03T09:44:46.248Z</time></trkpt><trkpt lat="44.8208841" lon="8.4613144"><ele>115.00000000000001</ele><time>2026-05-03T09:44:47.248Z</time></trkpt><trkpt lat="44.8209583" lon="8.4612617"><ele>115.0</ele><time>2026-05-03T09:44:48.248Z</time></trkpt><trkpt lat="44.8210326" lon="8.4612069"><ele>114.42857142857142</ele><time>2026-05-03T09:44:49.249Z</time></trkpt><trkpt lat="44.8211055" lon="8.4611451"><ele>113.85714285714286</ele><time>2026-05-03T09:44:50.249Z</time></trkpt><trkpt lat="44.8211749" lon="8.461081"><ele>113.28571428571428</ele><time>2026-05-03T09:44:51.248Z</time></trkpt><trkpt lat="44.8212375" lon="8.4610188"><ele>112.71428571428571</ele><time>2026-05-03T09:44:52.248Z</time></trkpt><trkpt lat="44.8212952" lon="8.4609613"><ele>112.14285714285714</ele><time>2026-05-03T09:44:53.249Z</time></trkpt><trkpt lat="44.8213498" lon="8.4609088"><ele>111.57142857142857</ele><time>2026-05-03T09:44:54.248Z</time></trkpt><trkpt lat="44.8214034" lon="8.4608568"><ele>111.0</ele><time>2026-05-03T09:44:55.249Z</time></trkpt><trkpt lat="44.8214604" lon="8.4608009"><ele>111.0</ele><time>2026-05-03T09:44:56.248Z</time></trkpt><trkpt lat="44.8215246" lon="8.460743"><ele>111.0</ele><time>2026-05-03T09:44:57.248Z</time></trkpt><trkpt lat="44.8215942" lon="8.4606732"><ele>111.0</ele><time>2026-05-03T09:44:58.249Z</time></trkpt><trkpt lat="44.8216654" lon="8.4606284"><ele>111.0</ele><time>2026-05-03T09:44:59.248Z</time></trkpt><trkpt lat="44.8217432" lon="8.460589"><ele>111.0</ele><time>2026-05-03T09:45:00.249Z</time></trkpt><trkpt lat="44.8218206" lon="8.4605459"><ele>111.0</ele><time>2026-05-03T09:45:01.248Z</time></trkpt><trkpt lat="44.8218967" lon="8.46049"><ele>110.8</ele><time>2026-05-03T09:45:02.249Z</time></trkpt><trkpt lat="44.8219753" lon="8.4604282"><ele>110.6</ele><time>2026-05-03T09:45:03.249Z</time></trkpt><trkpt lat="44.8220557" lon="8.4603631"><ele>110.4</ele><time>2026-05-03T09:45:04.248Z</time></trkpt><trkpt lat="44.8221365" lon="8.4603"><ele>110.2</ele><time>2026-05-03T09:45:05.248Z</time></trkpt><trkpt lat="44.8222225" lon="8.4602391"><ele>110.0</ele><time>2026-05-03T09:45:06.249Z</time></trkpt><trkpt lat="44.8223086" lon="8.4601806"><ele>110.0</ele><time>2026-05-03T09:45:07.248Z</time></trkpt><trkpt lat="44.8223941" lon="8.4601175"><ele>110.0</ele><time>2026-05-03T09:45:08.248Z</time></trkpt><trkpt lat="44.8224812" lon="8.4600507"><ele>110.0</ele><time>2026-05-03T09:45:09.248Z</time></trkpt><trkpt lat="44.822568" lon="8.4599826"><ele>110.0</ele><time>2026-05-03T09:45:10.248Z</time></trkpt><trkpt lat="44.8226564" lon="8.4599209"><ele>110.0</ele><time>2026-05-03T09:45:11.249Z</time></trkpt><trkpt lat="44.8227446" lon="8.4598653"><ele>109.6</ele><time>2026-05-03T09:45:12.25Z</time></trkpt><trkpt lat="44.8228332" lon="8.4598109"><ele>109.2</ele><time>2026-05-03T09:45:13.249Z</time></trkpt><trkpt lat="44.8229209" lon="8.4597462"><ele>108.80000000000001</ele><time>2026-05-03T09:45:14.249Z</time></trkpt><trkpt lat="44.8230074" lon="8.4596796"><ele>108.4</ele><time>2026-05-03T09:45:15.248Z</time></trkpt><trkpt lat="44.8230918" lon="8.459617"><ele>108.0</ele><time>2026-05-03T09:45:16.248Z</time></trkpt><trkpt lat="44.8231735" lon="8.4595562"><ele>108.4</ele><time>2026-05-03T09:45:17.248Z</time></trkpt><trkpt lat="44.8232555" lon="8.4594943"><ele>108.80000000000001</ele><time>2026-05-03T09:45:18.249Z</time></trkpt><trkpt lat="44.8233402" lon="8.4594329"><ele>109.2</ele><time>2026-05-03T09:45:19.249Z</time></trkpt><trkpt lat="44.8234255" lon="8.4593752"><ele>109.6</ele><time>2026-05-03T09:45:20.249Z</time></trkpt><trkpt lat="44.8235117" lon="8.4593181"><ele>110.0</ele><time>2026-05-03T09:45:21.249Z</time></trkpt><trkpt lat="44.8235964" lon="8.4592581"><ele>110.0</ele><time>2026-05-03T09:45:22.25Z</time></trkpt><trkpt lat="44.8236806" lon="8.4591942"><ele>110.0</ele><time>2026-05-03T09:45:23.249Z</time></trkpt><trkpt lat="44.8237643" lon="8.4591273"><ele>110.0</ele><time>2026-05-03T09:45:24.25Z</time></trkpt><trkpt lat="44.8238484" lon="8.4590628"><ele>110.0</ele><time>2026-05-03T09:45:25.249Z</time></trkpt><trkpt lat="44.823933" lon="8.4590001"><ele>110.0</ele><time>2026-05-03T09:45:26.249Z</time></trkpt><trkpt lat="44.8240166" lon="8.4589392"><ele>110.0</ele><time>2026-05-03T09:45:27.25Z</time></trkpt><trkpt lat="44.8240997" lon="8.4588793"><ele>110.0</ele><time>2026-05-03T09:45:28.25Z</time></trkpt><trkpt lat="44.8241831" lon="8.458817"><ele>110.0</ele><time>2026-05-03T09:45:29.249Z</time></trkpt><trkpt lat="44.8242659" lon="8.4587557"><ele>110.0</ele><time>2026-05-03T09:45:30.25Z</time></trkpt><trkpt lat="44.8243499" lon="8.4586971"><ele>110.0</ele><time>2026-05-03T09:45:31.25Z</time></trkpt><trkpt lat="44.824434" lon="8.4586402"><ele>109.8</ele><time>2026-05-03T09:45:32.249Z</time></trkpt><trkpt lat="44.8245167" lon="8.4585834"><ele>109.6</ele><time>2026-05-03T09:45:33.249Z</time></trkpt><trkpt lat="44.8245996" lon="8.4585266"><ele>109.4</ele><time>2026-05-03T09:45:34.249Z</time></trkpt><trkpt lat="44.8246815" lon="8.4584744"><ele>109.2</ele><time>2026-05-03T09:45:35.25Z</time></trkpt><trkpt lat="44.8247658" lon="8.4584275"><ele>109.0</ele><time>2026-05-03T09:45:36.25Z</time></trkpt><trkpt lat="44.8248502" lon="8.4583869"><ele>109.00000000000001</ele><time>2026-05-03T09:45:37.249Z</time></trkpt><trkpt lat="44.8249358" lon="8.4583538"><ele>109.0</ele><time>2026-05-03T09:45:38.249Z</time></trkpt><trkpt lat="44.8250219" lon="8.4583279"><ele>109.0</ele><time>2026-05-03T09:45:39.25Z</time></trkpt><trkpt lat="44.8251089" lon="8.4583085"><ele>109.0</ele><time>2026-05-03T09:45:40.249Z</time></trkpt><trkpt lat="44.8251957" lon="8.4582956"><ele>109.00000000000001</ele><time>2026-05-03T09:45:41.249Z</time></trkpt><trkpt lat="44.8252749" lon="8.458289"><ele>109.0</ele><time>2026-05-03T09:45:42.249Z</time></trkpt><trkpt lat="44.8253453" lon="8.4582883"><ele>109.2</ele><time>2026-05-03T09:45:43.249Z</time></trkpt><trkpt lat="44.8254109" lon="8.4582882"><ele>109.4</ele><time>2026-05-03T09:45:44.249Z</time></trkpt><trkpt lat="44.8255312" lon="8.4582829"><ele>109.6</ele><time>2026-05-03T09:45:46.25Z</time></trkpt><trkpt lat="44.8256371" lon="8.4582724"><ele>109.8</ele><time>2026-05-03T09:45:48.249Z</time></trkpt><trkpt lat="44.825724" lon="8.4582439"><ele>110.0</ele><time>2026-05-03T09:45:50.25Z</time></trkpt><trkpt lat="44.8257548" lon="8.4581063"><ele>109.99999999999999</ele><time>2026-05-03T09:45:52.25Z</time></trkpt><trkpt lat="44.825744" lon="8.4580069"><ele>110.0</ele><time>2026-05-03T09:45:53.25Z</time></trkpt><trkpt lat="44.8257253" lon="8.4579135"><ele>110.0</ele><time>2026-05-03T09:45:54.249Z</time></trkpt><trkpt lat="44.8257004" lon="8.4578259"><ele>110.0</ele><time>2026-05-03T09:45:55.249Z</time></trkpt><trkpt lat="44.8256759" lon="8.4577304"><ele>110.0</ele><time>2026-05-03T09:45:56.25Z</time></trkpt><trkpt lat="44.8256583" lon="8.4576311"><ele>109.99999999999999</ele><time>2026-05-03T09:45:57.25Z</time></trkpt><trkpt lat="44.8256423" lon="8.4575309"><ele>110.0</ele><time>2026-05-03T09:45:58.25Z</time></trkpt><trkpt lat="44.8256288" lon="8.4574246"><ele>110.83333333333333</ele><time>2026-05-03T09:45:59.249Z</time></trkpt><trkpt lat="44.8256196" lon="8.4573184"><ele>111.66666666666666</ele><time>2026-05-03T09:46:00.25Z</time></trkpt><trkpt lat="44.8256192" lon="8.4572171"><ele>112.5</ele><time>2026-05-03T09:46:01.249Z</time></trkpt><trkpt lat="44.8256312" lon="8.4571202"><ele>113.33333333333334</ele><time>2026-05-03T09:46:02.249Z</time></trkpt><trkpt lat="44.8256558" lon="8.4570239"><ele>114.16666666666667</ele><time>2026-05-03T09:46:03.25Z</time></trkpt><trkpt lat="44.8256995" lon="8.4569236"><ele>115.0</ele><time>2026-05-03T09:46:04.249Z</time></trkpt><trkpt lat="44.8257521" lon="8.4568306"><ele>115.00000000000001</ele><time>2026-05-03T09:46:05.251Z</time></trkpt><trkpt lat="44.8258072" lon="8.4567442"><ele>115.0</ele><time>2026-05-03T09:46:06.25Z</time></trkpt><trkpt lat="44.8258598" lon="8.4566495"><ele>115.0</ele><time>2026-05-03T09:46:07.25Z</time></trkpt><trkpt lat="44.8259134" lon="8.4565523"><ele>115.0</ele><time>2026-05-03T09:46:08.25Z</time></trkpt><trkpt lat="44.8259591" lon="8.4564465"><ele>115.00000000000001</ele><time>2026-05-03T09:46:09.25Z</time></trkpt><trkpt lat="44.8259898" lon="8.4563371"><ele>115.0</ele><time>2026-05-03T09:46:10.25Z</time></trkpt><trkpt lat="44.8260197" lon="8.4562242"><ele>117.33333333333334</ele><time>2026-05-03T09:46:11.251Z</time></trkpt><trkpt lat="44.8260509" lon="8.4561186"><ele>119.66666666666667</ele><time>2026-05-03T09:46:12.251Z</time></trkpt><trkpt lat="44.8260855" lon="8.4560174"><ele>122.0</ele><time>2026-05-03T09:46:13.25Z</time></trkpt><trkpt lat="44.826118" lon="8.455923"><ele>124.33333333333334</ele><time>2026-05-03T09:46:14.25Z</time></trkpt><trkpt lat="44.8261533" lon="8.4558194"><ele>126.66666666666667</ele><time>2026-05-03T09:46:15.251Z</time></trkpt><trkpt lat="44.8261869" lon="8.4557084"><ele>129.0</ele><time>2026-05-03T09:46:16.25Z</time></trkpt><trkpt lat="44.8262127" lon="8.4555914"><ele>129.0</ele><time>2026-05-03T09:46:17.251Z</time></trkpt><trkpt lat="44.8262438" lon="8.4554813"><ele>129.0</ele><time>2026-05-03T09:46:18.251Z</time></trkpt><trkpt lat="44.8262832" lon="8.4553699"><ele>129.0</ele><time>2026-05-03T09:46:19.251Z</time></trkpt><trkpt lat="44.8263211" lon="8.4552686"><ele>129.0</ele><time>2026-05-03T09:46:20.25Z</time></trkpt><trkpt lat="44.8263572" lon="8.4551669"><ele>129.0</ele><time>2026-05-03T09:46:21.25Z</time></trkpt><trkpt lat="44.8263925" lon="8.4550687"><ele>129.0</ele><time>2026-05-03T09:46:22.25Z</time></trkpt><trkpt lat="44.8264265" lon="8.4549826"><ele>128.5</ele><time>2026-05-03T09:46:23.251Z</time></trkpt><trkpt lat="44.8265107" lon="8.4548708"><ele>128.0</ele><time>2026-05-03T09:46:25.251Z</time></trkpt><trkpt lat="44.826573" lon="8.4548444"><ele>127.5</ele><time>2026-05-03T09:46:26.251Z</time></trkpt><trkpt lat="44.8266828" lon="8.4548337"><ele>127.0</ele><time>2026-05-03T09:46:28.25Z</time></trkpt><trkpt lat="44.8267545" lon="8.4548434"><ele>126.5</ele><time>2026-05-03T09:46:29.25Z</time></trkpt><trkpt lat="44.8268243" lon="8.4548681"><ele>126.0</ele><time>2026-05-03T09:46:30.25Z</time></trkpt><trkpt lat="44.8269276" lon="8.4549168"><ele>126.0</ele><time>2026-05-03T09:46:31.25Z</time></trkpt><trkpt lat="44.82702" lon="8.4549498"><ele>126.0</ele><time>2026-05-03T09:46:32.25Z</time></trkpt><trkpt lat="44.82713" lon="8.4549873"><ele>126.0</ele><time>2026-05-03T09:46:33.251Z</time></trkpt><trkpt lat="44.8272205" lon="8.4550166"><ele>126.0</ele><time>2026-05-03T09:46:34.25Z</time></trkpt><trkpt lat="44.8272894" lon="8.4550293"><ele>126.0</ele><time>2026-05-03T09:46:35.251Z</time></trkpt><trkpt lat="44.8273704" lon="8.4549777"><ele>126.0</ele><time>2026-05-03T09:46:37.251Z</time></trkpt><trkpt lat="44.8274283" lon="8.4548275"><ele>126.0</ele><time>2026-05-03T09:46:39.25Z</time></trkpt><trkpt lat="44.8274635" lon="8.4547264"><ele>126.0</ele><time>2026-05-03T09:46:40.25Z</time></trkpt><trkpt lat="44.8275021" lon="8.4546451"><ele>126.0</ele><time>2026-05-03T09:46:41.251Z</time></trkpt><trkpt lat="44.8275836" lon="8.4545161"><ele>126.0</ele><time>2026-05-03T09:46:43.25Z</time></trkpt><trkpt lat="44.8276507" lon="8.4544731"><ele>126.4</ele><time>2026-05-03T09:46:44.251Z</time></trkpt><trkpt lat="44.8277606" lon="8.4544674"><ele>126.8</ele><time>2026-05-03T09:46:45.25Z</time></trkpt><trkpt lat="44.8278585" lon="8.4544591"><ele>127.20000000000002</ele><time>2026-05-03T09:46:46.25Z</time></trkpt><trkpt lat="44.8279485" lon="8.4544444"><ele>127.60000000000001</ele><time>2026-05-03T09:46:47.25Z</time></trkpt><trkpt lat="44.8280394" lon="8.4544264"><ele>128.0</ele><time>2026-05-03T09:46:48.25Z</time></trkpt><trkpt lat="44.8281259" lon="8.4544192"><ele>127.99999999999999</ele><time>2026-05-03T09:46:49.25Z</time></trkpt><trkpt lat="44.8281998" lon="8.4544124"><ele>128.0</ele><time>2026-05-03T09:46:50.251Z</time></trkpt><trkpt lat="44.8282672" lon="8.4543917"><ele>128.0</ele><time>2026-05-03T09:46:51.251Z</time></trkpt><trkpt lat="44.828351" lon="8.4543823"><ele>128.0</ele><time>2026-05-03T09:46:52.251Z</time></trkpt><trkpt lat="44.8284349" lon="8.4543647"><ele>127.99999999999999</ele><time>2026-05-03T09:46:53.251Z</time></trkpt><trkpt lat="44.8285241" lon="8.4543355"><ele>128.0</ele><time>2026-05-03T09:46:54.251Z</time></trkpt><trkpt lat="44.8285999" lon="8.4543164"><ele>128.16666666666666</ele><time>2026-05-03T09:46:55.251Z</time></trkpt><trkpt lat="44.8286772" lon="8.4542998"><ele>128.33333333333331</ele><time>2026-05-03T09:46:56.251Z</time></trkpt><trkpt lat="44.8287501" lon="8.4542778"><ele>128.5</ele><time>2026-05-03T09:46:57.251Z</time></trkpt><trkpt lat="44.8288199" lon="8.4542587"><ele>128.66666666666666</ele><time>2026-05-03T09:46:58.252Z</time></trkpt><trkpt lat="44.8289017" lon="8.4542514"><ele>128.83333333333334</ele><time>2026-05-03T09:46:59.251Z</time></trkpt><trkpt lat="44.8289912" lon="8.4542457"><ele>129.0</ele><time>2026-05-03T09:47:00.251Z</time></trkpt><trkpt lat="44.8290889" lon="8.454241"><ele>129.0</ele><time>2026-05-03T09:47:01.251Z</time></trkpt><trkpt lat="44.8291719" lon="8.4542301"><ele>129.0</ele><time>2026-05-03T09:47:02.251Z</time></trkpt><trkpt lat="44.8292523" lon="8.4542267"><ele>129.0</ele><time>2026-05-03T09:47:03.251Z</time></trkpt><trkpt lat="44.8293343" lon="8.4542217"><ele>129.0</ele><time>2026-05-03T09:47:04.252Z</time></trkpt><trkpt lat="44.829417" lon="8.4542198"><ele>129.0</ele><time>2026-05-03T09:47:05.252Z</time></trkpt><trkpt lat="44.8294996" lon="8.4542236"><ele>129.0</ele><time>2026-05-03T09:47:06.251Z</time></trkpt><trkpt lat="44.8295954" lon="8.4542356"><ele>129.14285714285714</ele><time>2026-05-03T09:47:07.251Z</time></trkpt><trkpt lat="44.8296741" lon="8.4542486"><ele>129.28571428571428</ele><time>2026-05-03T09:47:08.252Z</time></trkpt><trkpt lat="44.8297509" lon="8.4542574"><ele>129.42857142857144</ele><time>2026-05-03T09:47:09.251Z</time></trkpt><trkpt lat="44.8298224" lon="8.4542599"><ele>129.57142857142856</ele><time>2026-05-03T09:47:10.251Z</time></trkpt><trkpt lat="44.8298897" lon="8.4542598"><ele>129.71428571428572</ele><time>2026-05-03T09:47:11.251Z</time></trkpt><trkpt lat="44.8299583" lon="8.4542644"><ele>129.85714285714286</ele><time>2026-05-03T09:47:12.251Z</time></trkpt><trkpt lat="44.830034" lon="8.4542741"><ele>130.0</ele><time>2026-05-03T09:47:13.252Z</time></trkpt><trkpt lat="44.8301128" lon="8.4542869"><ele>129.66666666666669</ele><time>2026-05-03T09:47:14.252Z</time></trkpt><trkpt lat="44.8301881" lon="8.4543055"><ele>129.33333333333334</ele><time>2026-05-03T09:47:15.252Z</time></trkpt><trkpt lat="44.8302555" lon="8.454318"><ele>129.0</ele><time>2026-05-03T09:47:16.251Z</time></trkpt><trkpt lat="44.8303299" lon="8.4543392"><ele>128.66666666666666</ele><time>2026-05-03T09:47:17.251Z</time></trkpt><trkpt lat="44.8304109" lon="8.4543612"><ele>128.33333333333331</ele><time>2026-05-03T09:47:18.251Z</time></trkpt><trkpt lat="44.8304927" lon="8.4543862"><ele>128.0</ele><time>2026-05-03T09:47:19.252Z</time></trkpt><trkpt lat="44.8305741" lon="8.4544131"><ele>128.0</ele><time>2026-05-03T09:47:20.252Z</time></trkpt><trkpt lat="44.8306625" lon="8.4544492"><ele>128.0</ele><time>2026-05-03T09:47:21.251Z</time></trkpt><trkpt lat="44.8307461" lon="8.4544918"><ele>128.0</ele><time>2026-05-03T09:47:22.251Z</time></trkpt><trkpt lat="44.8308316" lon="8.454531"><ele>128.0</ele><time>2026-05-03T09:47:23.251Z</time></trkpt><trkpt lat="44.830916" lon="8.4545644"><ele>128.0</ele><time>2026-05-03T09:47:24.252Z</time></trkpt><trkpt lat="44.8310053" lon="8.4545916"><ele>127.83333333333333</ele><time>2026-05-03T09:47:25.251Z</time></trkpt><trkpt lat="44.8310943" lon="8.4546271"><ele>127.66666666666666</ele><time>2026-05-03T09:47:26.251Z</time></trkpt><trkpt lat="44.8311736" lon="8.454663"><ele>127.5</ele><time>2026-05-03T09:47:27.251Z</time></trkpt><trkpt lat="44.8312536" lon="8.4547002"><ele>127.33333333333334</ele><time>2026-05-03T09:47:28.251Z</time></trkpt><trkpt lat="44.8313318" lon="8.4547331"><ele>127.16666666666667</ele><time>2026-05-03T09:47:29.252Z</time></trkpt><trkpt lat="44.8314084" lon="8.4547695"><ele>127.0</ele><time>2026-05-03T09:47:30.252Z</time></trkpt><trkpt lat="44.831477" lon="8.4548158"><ele>127.0</ele><time>2026-05-03T09:47:31.251Z</time></trkpt><trkpt lat="44.8315674" lon="8.4548563"><ele>126.99999999999999</ele><time>2026-05-03T09:47:32.252Z</time></trkpt><trkpt lat="44.8316481" lon="8.4549118"><ele>126.99999999999999</ele><time>2026-05-03T09:47:33.251Z</time></trkpt><trkpt lat="44.8317274" lon="8.4549709"><ele>127.0</ele><time>2026-05-03T09:47:34.251Z</time></trkpt><trkpt lat="44.83181" lon="8.4550229"><ele>127.0</ele><time>2026-05-03T09:47:35.252Z</time></trkpt><trkpt lat="44.831891" lon="8.4550739"><ele>126.8</ele><time>2026-05-03T09:47:36.251Z</time></trkpt><trkpt lat="44.8319732" lon="8.455128"><ele>126.6</ele><time>2026-05-03T09:47:37.252Z</time></trkpt><trkpt lat="44.8320579" lon="8.4551857"><ele>126.39999999999999</ele><time>2026-05-03T09:47:38.253Z</time></trkpt><trkpt lat="44.8321354" lon="8.455245"><ele>126.19999999999999</ele><time>2026-05-03T09:47:39.252Z</time></trkpt><trkpt lat="44.8322173" lon="8.455303"><ele>126.0</ele><time>2026-05-03T09:47:40.253Z</time></trkpt><trkpt lat="44.8323021" lon="8.4553626"><ele>126.0</ele><time>2026-05-03T09:47:41.252Z</time></trkpt><trkpt lat="44.8323883" lon="8.4554206"><ele>126.0</ele><time>2026-05-03T09:47:42.252Z</time></trkpt><trkpt lat="44.8324749" lon="8.4554795"><ele>126.0</ele><time>2026-05-03T09:47:43.252Z</time></trkpt><trkpt lat="44.8325605" lon="8.4555383"><ele>126.0</ele><time>2026-05-03T09:47:44.252Z</time></trkpt><trkpt lat="44.8326459" lon="8.4555975"><ele>126.0</ele><time>2026-05-03T09:47:45.252Z</time></trkpt><trkpt lat="44.8327333" lon="8.4556579"><ele>126.0</ele><time>2026-05-03T09:47:46.252Z</time></trkpt><trkpt lat="44.8328215" lon="8.4557215"><ele>126.0</ele><time>2026-05-03T09:47:47.252Z</time></trkpt><trkpt lat="44.8329089" lon="8.4557872"><ele>126.0</ele><time>2026-05-03T09:47:48.252Z</time></trkpt><trkpt lat="44.8329957" lon="8.4558534"><ele>126.0</ele><time>2026-05-03T09:47:49.252Z</time></trkpt><trkpt lat="44.8330827" lon="8.455919"><ele>126.0</ele><time>2026-05-03T09:47:50.252Z</time></trkpt><trkpt lat="44.833169" lon="8.455985"><ele>126.0</ele><time>2026-05-03T09:47:51.252Z</time></trkpt><trkpt lat="44.8332557" lon="8.4560513"><ele>126.0</ele><time>2026-05-03T09:47:52.252Z</time></trkpt><trkpt lat="44.833342" lon="8.456119"><ele>126.0</ele><time>2026-05-03T09:47:53.252Z</time></trkpt><trkpt lat="44.8334294" lon="8.4561882"><ele>126.0</ele><time>2026-05-03T09:47:54.253Z</time></trkpt><trkpt lat="44.8335178" lon="8.4562591"><ele>126.0</ele><time>2026-05-03T09:47:55.252Z</time></trkpt><trkpt lat="44.833606" lon="8.4563337"><ele>125.6</ele><time>2026-05-03T09:47:56.252Z</time></trkpt><trkpt lat="44.8336948" lon="8.4564091"><ele>125.19999999999999</ele><time>2026-05-03T09:47:57.252Z</time></trkpt><trkpt lat="44.8337846" lon="8.4564854"><ele>124.80000000000001</ele><time>2026-05-03T09:47:58.252Z</time></trkpt><trkpt lat="44.8338739" lon="8.4565616"><ele>124.4</ele><time>2026-05-03T09:47:59.252Z</time></trkpt><trkpt lat="44.8339622" lon="8.4566368"><ele>124.0</ele><time>2026-05-03T09:48:00.253Z</time></trkpt><trkpt lat="44.8340499" lon="8.4567123"><ele>124.0</ele><time>2026-05-03T09:48:01.252Z</time></trkpt><trkpt lat="44.8341366" lon="8.4567881"><ele>124.0</ele><time>2026-05-03T09:48:02.252Z</time></trkpt><trkpt lat="44.8342235" lon="8.4568655"><ele>124.0</ele><time>2026-05-03T09:48:03.253Z</time></trkpt><trkpt lat="44.8343103" lon="8.4569403"><ele>124.0</ele><time>2026-05-03T09:48:04.252Z</time></trkpt><trkpt lat="44.8343954" lon="8.4570161"><ele>124.0</ele><time>2026-05-03T09:48:05.253Z</time></trkpt><trkpt lat="44.8344804" lon="8.4570923"><ele>123.80000000000001</ele><time>2026-05-03T09:48:06.252Z</time></trkpt><trkpt lat="44.8345661" lon="8.4571734"><ele>123.60000000000001</ele><time>2026-05-03T09:48:07.253Z</time></trkpt><trkpt lat="44.8346517" lon="8.4572542"><ele>123.4</ele><time>2026-05-03T09:48:08.252Z</time></trkpt><trkpt lat="44.8347355" lon="8.4573341"><ele>123.2</ele><time>2026-05-03T09:48:09.252Z</time></trkpt><trkpt lat="44.8348193" lon="8.4574201"><ele>123.0</ele><time>2026-05-03T09:48:10.252Z</time></trkpt><trkpt lat="44.8349032" lon="8.4575073"><ele>123.0</ele><time>2026-05-03T09:48:11.252Z</time></trkpt><trkpt lat="44.8349865" lon="8.4575926"><ele>123.00000000000001</ele><time>2026-05-03T09:48:12.252Z</time></trkpt><trkpt lat="44.8350687" lon="8.4576765"><ele>123.00000000000001</ele><time>2026-05-03T09:48:13.253Z</time></trkpt><trkpt lat="44.8351507" lon="8.4577621"><ele>123.0</ele><time>2026-05-03T09:48:14.253Z</time></trkpt><trkpt lat="44.8352299" lon="8.4578534"><ele>123.0</ele><time>2026-05-03T09:48:15.252Z</time></trkpt><trkpt lat="44.8353065" lon="8.457948"><ele>123.0</ele><time>2026-05-03T09:48:16.253Z</time></trkpt><trkpt lat="44.8353814" lon="8.4580446"><ele>123.00000000000001</ele><time>2026-05-03T09:48:17.252Z</time></trkpt><trkpt lat="44.8354545" lon="8.4581399"><ele>123.00000000000001</ele><time>2026-05-03T09:48:18.252Z</time></trkpt><trkpt lat="44.8355281" lon="8.4582361"><ele>123.0</ele><time>2026-05-03T09:48:19.252Z</time></trkpt><trkpt lat="44.8356026" lon="8.4583302"><ele>123.0</ele><time>2026-05-03T09:48:20.252Z</time></trkpt><trkpt lat="44.8356785" lon="8.4584223"><ele>123.0</ele><time>2026-05-03T09:48:21.253Z</time></trkpt><trkpt lat="44.8357545" lon="8.4585138"><ele>123.00000000000001</ele><time>2026-05-03T09:48:22.253Z</time></trkpt><trkpt lat="44.8358291" lon="8.4586067"><ele>123.00000000000001</ele><time>2026-05-03T09:48:23.253Z</time></trkpt><trkpt lat="44.8359021" lon="8.4587023"><ele>123.0</ele><time>2026-05-03T09:48:24.253Z</time></trkpt><trkpt lat="44.8359756" lon="8.4587985"><ele>123.0</ele><time>2026-05-03T09:48:25.254Z</time></trkpt><trkpt lat="44.8360504" lon="8.4588934"><ele>122.80000000000001</ele><time>2026-05-03T09:48:26.254Z</time></trkpt><trkpt lat="44.8361269" lon="8.458985"><ele>122.60000000000001</ele><time>2026-05-03T09:48:27.253Z</time></trkpt><trkpt lat="44.8362028" lon="8.4590769"><ele>122.39999999999999</ele><time>2026-05-03T09:48:28.254Z</time></trkpt><trkpt lat="44.8362742" lon="8.4591727"><ele>122.19999999999999</ele><time>2026-05-03T09:48:29.253Z</time></trkpt><trkpt lat="44.8363442" lon="8.4592712"><ele>122.0</ele><time>2026-05-03T09:48:30.254Z</time></trkpt><trkpt lat="44.8364157" lon="8.4593688"><ele>122.0</ele><time>2026-05-03T09:48:31.253Z</time></trkpt><trkpt lat="44.8364887" lon="8.4594645"><ele>121.99999999999999</ele><time>2026-05-03T09:48:32.253Z</time></trkpt><trkpt lat="44.8365609" lon="8.4595613"><ele>121.99999999999999</ele><time>2026-05-03T09:48:33.254Z</time></trkpt><trkpt lat="44.8366305" lon="8.4596591"><ele>122.0</ele><time>2026-05-03T09:48:34.253Z</time></trkpt><trkpt lat="44.8366958" lon="8.4597571"><ele>122.0</ele><time>2026-05-03T09:48:35.253Z</time></trkpt><trkpt lat="44.8367602" lon="8.4598557"><ele>122.0</ele><time>2026-05-03T09:48:36.254Z</time></trkpt><trkpt lat="44.8368241" lon="8.4599574"><ele>121.99999999999999</ele><time>2026-05-03T09:48:37.254Z</time></trkpt><trkpt lat="44.8368845" lon="8.4600635"><ele>121.99999999999999</ele><time>2026-05-03T09:48:38.254Z</time></trkpt><trkpt lat="44.8369418" lon="8.4601741"><ele>122.0</ele><time>2026-05-03T09:48:39.253Z</time></trkpt><trkpt lat="44.8369961" lon="8.4602872"><ele>122.0</ele><time>2026-05-03T09:48:40.253Z</time></trkpt><trkpt lat="44.8370515" lon="8.4604"><ele>121.8</ele><time>2026-05-03T09:48:41.253Z</time></trkpt><trkpt lat="44.8371089" lon="8.4605121"><ele>121.6</ele><time>2026-05-03T09:48:42.253Z</time></trkpt><trkpt lat="44.8371694" lon="8.4606207"><ele>121.39999999999999</ele><time>2026-05-03T09:48:43.254Z</time></trkpt><trkpt lat="44.8372349" lon="8.4607244"><ele>121.19999999999999</ele><time>2026-05-03T09:48:44.253Z</time></trkpt><trkpt lat="44.8373071" lon="8.4608228"><ele>121.0</ele><time>2026-05-03T09:48:45.253Z</time></trkpt><trkpt lat="44.8373849" lon="8.4609162"><ele>121.0</ele><time>2026-05-03T09:48:46.253Z</time></trkpt><trkpt lat="44.8374648" lon="8.4610061"><ele>121.0</ele><time>2026-05-03T09:48:47.254Z</time></trkpt><trkpt lat="44.8375437" lon="8.4610967"><ele>121.0</ele><time>2026-05-03T09:48:48.253Z</time></trkpt><trkpt lat="44.8376229" lon="8.4611873"><ele>121.0</ele><time>2026-05-03T09:48:49.253Z</time></trkpt><trkpt lat="44.8377013" lon="8.4612797"><ele>121.0</ele><time>2026-05-03T09:48:50.253Z</time></trkpt><trkpt lat="44.8377787" lon="8.4613745"><ele>121.4</ele><time>2026-05-03T09:48:51.253Z</time></trkpt><trkpt lat="44.8378542" lon="8.4614704"><ele>121.8</ele><time>2026-05-03T09:48:52.254Z</time></trkpt><trkpt lat="44.8379275" lon="8.4615671"><ele>122.20000000000002</ele><time>2026-05-03T09:48:53.253Z</time></trkpt><trkpt lat="44.8379997" lon="8.4616665"><ele>122.60000000000001</ele><time>2026-05-03T09:48:54.253Z</time></trkpt><trkpt lat="44.8380713" lon="8.4617691"><ele>123.0</ele><time>2026-05-03T09:48:55.253Z</time></trkpt><trkpt lat="44.8381412" lon="8.4618732"><ele>123.0</ele><time>2026-05-03T09:48:56.253Z</time></trkpt><trkpt lat="44.8382109" lon="8.4619789"><ele>123.00000000000001</ele><time>2026-05-03T09:48:57.253Z</time></trkpt><trkpt lat="44.8382797" lon="8.4620848"><ele>123.00000000000001</ele><time>2026-05-03T09:48:58.253Z</time></trkpt><trkpt lat="44.8383479" lon="8.462191"><ele>123.0</ele><time>2026-05-03T09:48:59.253Z</time></trkpt><trkpt lat="44.8384166" lon="8.4622983"><ele>123.0</ele><time>2026-05-03T09:49:00.254Z</time></trkpt><trkpt lat="44.8384843" lon="8.4624074"><ele>122.60000000000001</ele><time>2026-05-03T09:49:01.253Z</time></trkpt><trkpt lat="44.8385496" lon="8.4625187"><ele>122.20000000000002</ele><time>2026-05-03T09:49:02.253Z</time></trkpt><trkpt lat="44.8386125" lon="8.46263"><ele>121.8</ele><time>2026-05-03T09:49:03.253Z</time></trkpt><trkpt lat="44.8386738" lon="8.4627429"><ele>121.4</ele><time>2026-05-03T09:49:04.253Z</time></trkpt><trkpt lat="44.8387347" lon="8.4628592"><ele>121.0</ele><time>2026-05-03T09:49:05.254Z</time></trkpt><trkpt lat="44.8387951" lon="8.4629752"><ele>121.0</ele><time>2026-05-03T09:49:06.253Z</time></trkpt><trkpt lat="44.838857" lon="8.4630919"><ele>121.0</ele><time>2026-05-03T09:49:07.253Z</time></trkpt><trkpt lat="44.8389182" lon="8.4632107"><ele>121.0</ele><time>2026-05-03T09:49:08.254Z</time></trkpt><trkpt lat="44.8389769" lon="8.4633358"><ele>121.0</ele><time>2026-05-03T09:49:09.254Z</time></trkpt><trkpt lat="44.8390271" lon="8.4634661"><ele>121.0</ele><time>2026-05-03T09:49:10.254Z</time></trkpt><trkpt lat="44.8390723" lon="8.4635997"><ele>121.0</ele><time>2026-05-03T09:49:11.254Z</time></trkpt><trkpt lat="44.8391232" lon="8.4637327"><ele>121.0</ele><time>2026-05-03T09:49:12.255Z</time></trkpt><trkpt lat="44.8391772" lon="8.4638567"><ele>121.0</ele><time>2026-05-03T09:49:13.254Z</time></trkpt><trkpt lat="44.8392312" lon="8.463976"><ele>121.0</ele><time>2026-05-03T09:49:14.254Z</time></trkpt><trkpt lat="44.8392835" lon="8.4640923"><ele>121.0</ele><time>2026-05-03T09:49:15.255Z</time></trkpt><trkpt lat="44.8393382" lon="8.464213"><ele>121.19999999999999</ele><time>2026-05-03T09:49:16.254Z</time></trkpt><trkpt lat="44.8393884" lon="8.4643317"><ele>121.39999999999999</ele><time>2026-05-03T09:49:17.254Z</time></trkpt><trkpt lat="44.8394369" lon="8.4644534"><ele>121.6</ele><time>2026-05-03T09:49:18.255Z</time></trkpt><trkpt lat="44.8394843" lon="8.464576"><ele>121.8</ele><time>2026-05-03T09:49:19.254Z</time></trkpt><trkpt lat="44.8395296" lon="8.4646984"><ele>122.0</ele><time>2026-05-03T09:49:20.254Z</time></trkpt><trkpt lat="44.8395719" lon="8.4648202"><ele>122.0</ele><time>2026-05-03T09:49:21.254Z</time></trkpt><trkpt lat="44.8396127" lon="8.4649428"><ele>121.99999999999999</ele><time>2026-05-03T09:49:22.254Z</time></trkpt><trkpt lat="44.8396543" lon="8.4650637"><ele>121.99999999999999</ele><time>2026-05-03T09:49:23.254Z</time></trkpt><trkpt lat="44.8396977" lon="8.4651841"><ele>122.0</ele><time>2026-05-03T09:49:24.254Z</time></trkpt><trkpt lat="44.8397415" lon="8.4653047"><ele>122.0</ele><time>2026-05-03T09:49:25.254Z</time></trkpt><trkpt lat="44.8397836" lon="8.4654273"><ele>122.19999999999999</ele><time>2026-05-03T09:49:26.254Z</time></trkpt><trkpt lat="44.8398266" lon="8.4655552"><ele>122.39999999999999</ele><time>2026-05-03T09:49:27.255Z</time></trkpt><trkpt lat="44.8398675" lon="8.4656872"><ele>122.60000000000001</ele><time>2026-05-03T09:49:28.254Z</time></trkpt><trkpt lat="44.8399048" lon="8.4658224"><ele>122.80000000000001</ele><time>2026-05-03T09:49:29.254Z</time></trkpt><trkpt lat="44.8399394" lon="8.4659597"><ele>123.0</ele><time>2026-05-03T09:49:30.254Z</time></trkpt><trkpt lat="44.8399671" lon="8.4661004"><ele>123.0</ele><time>2026-05-03T09:49:31.254Z</time></trkpt><trkpt lat="44.8399876" lon="8.4662428"><ele>123.00000000000001</ele><time>2026-05-03T09:49:32.255Z</time></trkpt><trkpt lat="44.8400049" lon="8.4663855"><ele>123.00000000000001</ele><time>2026-05-03T09:49:33.255Z</time></trkpt><trkpt lat="44.8400211" lon="8.4665278"><ele>123.0</ele><time>2026-05-03T09:49:34.255Z</time></trkpt><trkpt lat="44.8400388" lon="8.4666696"><ele>123.0</ele><time>2026-05-03T09:49:35.254Z</time></trkpt><trkpt lat="44.8400563" lon="8.4668092"><ele>122.60000000000001</ele><time>2026-05-03T09:49:36.255Z</time></trkpt><trkpt lat="44.8400702" lon="8.4669494"><ele>122.20000000000002</ele><time>2026-05-03T09:49:37.254Z</time></trkpt><trkpt lat="44.8400808" lon="8.467093"><ele>121.8</ele><time>2026-05-03T09:49:38.255Z</time></trkpt><trkpt lat="44.8400922" lon="8.4672369"><ele>121.4</ele><time>2026-05-03T09:49:39.254Z</time></trkpt><trkpt lat="44.8401077" lon="8.4673793"><ele>121.0</ele><time>2026-05-03T09:49:40.255Z</time></trkpt><trkpt lat="44.8401241" lon="8.4675205"><ele>120.4</ele><time>2026-05-03T09:49:41.254Z</time></trkpt><trkpt lat="44.84014" lon="8.4676642"><ele>119.8</ele><time>2026-05-03T09:49:42.255Z</time></trkpt><trkpt lat="44.8401562" lon="8.4678096"><ele>119.20000000000002</ele><time>2026-05-03T09:49:43.255Z</time></trkpt><trkpt lat="44.8401728" lon="8.4679555"><ele>118.60000000000001</ele><time>2026-05-03T09:49:44.254Z</time></trkpt><trkpt lat="44.8401919" lon="8.4681035"><ele>118.0</ele><time>2026-05-03T09:49:45.254Z</time></trkpt><trkpt lat="44.8402101" lon="8.4682491"><ele>117.80000000000001</ele><time>2026-05-03T09:49:46.254Z</time></trkpt><trkpt lat="44.840227" lon="8.4683921"><ele>117.60000000000001</ele><time>2026-05-03T09:49:47.255Z</time></trkpt><trkpt lat="44.8402428" lon="8.4685319"><ele>117.39999999999999</ele><time>2026-05-03T09:49:48.255Z</time></trkpt><trkpt lat="44.8402611" lon="8.468671"><ele>117.19999999999999</ele><time>2026-05-03T09:49:49.255Z</time></trkpt><trkpt lat="44.8402858" lon="8.468811"><ele>117.0</ele><time>2026-05-03T09:49:50.254Z</time></trkpt><trkpt lat="44.8403147" lon="8.468951"><ele>117.0</ele><time>2026-05-03T09:49:51.254Z</time></trkpt><trkpt lat="44.8403469" lon="8.4690876"><ele>116.99999999999999</ele><time>2026-05-03T09:49:52.254Z</time></trkpt><trkpt lat="44.840381" lon="8.4692225"><ele>116.99999999999999</ele><time>2026-05-03T09:49:53.255Z</time></trkpt><trkpt lat="44.8404169" lon="8.4693541"><ele>117.0</ele><time>2026-05-03T09:49:54.255Z</time></trkpt><trkpt lat="44.8404549" lon="8.469485"><ele>117.0</ele><time>2026-05-03T09:49:55.256Z</time></trkpt><trkpt lat="44.8404952" lon="8.4696173"><ele>116.19999999999999</ele><time>2026-05-03T09:49:56.256Z</time></trkpt><trkpt lat="44.8405398" lon="8.4697459"><ele>115.39999999999999</ele><time>2026-05-03T09:49:57.256Z</time></trkpt><trkpt lat="44.8405925" lon="8.4698725"><ele>114.60000000000001</ele><time>2026-05-03T09:49:58.255Z</time></trkpt><trkpt lat="44.8406545" lon="8.4699981"><ele>113.80000000000001</ele><time>2026-05-03T09:49:59.256Z</time></trkpt><trkpt lat="44.8407197" lon="8.4701201"><ele>113.0</ele><time>2026-05-03T09:50:00.255Z</time></trkpt><trkpt lat="44.840783" lon="8.4702381"><ele>113.0</ele><time>2026-05-03T09:50:01.255Z</time></trkpt><trkpt lat="44.8408466" lon="8.4703541"><ele>113.00000000000001</ele><time>2026-05-03T09:50:02.256Z</time></trkpt><trkpt lat="44.8409135" lon="8.4704671"><ele>113.00000000000001</ele><time>2026-05-03T09:50:03.255Z</time></trkpt><trkpt lat="44.8409762" lon="8.4705674"><ele>113.0</ele><time>2026-05-03T09:50:04.255Z</time></trkpt><trkpt lat="44.8410372" lon="8.4706627"><ele>113.0</ele><time>2026-05-03T09:50:05.255Z</time></trkpt><trkpt lat="44.8411038" lon="8.4707563"><ele>112.2</ele><time>2026-05-03T09:50:06.255Z</time></trkpt><trkpt lat="44.8411845" lon="8.4708532"><ele>111.4</ele><time>2026-05-03T09:50:07.255Z</time></trkpt><trkpt lat="44.8412782" lon="8.4709521"><ele>110.60000000000001</ele><time>2026-05-03T09:50:08.256Z</time></trkpt><trkpt lat="44.841364" lon="8.4710476"><ele>109.80000000000001</ele><time>2026-05-03T09:50:09.255Z</time></trkpt><trkpt lat="44.8414465" lon="8.4711395"><ele>109.0</ele><time>2026-05-03T09:50:10.255Z</time></trkpt><trkpt lat="44.8415298" lon="8.4712283"><ele>108.80000000000001</ele><time>2026-05-03T09:50:11.256Z</time></trkpt><trkpt lat="44.8416121" lon="8.4713176"><ele>108.60000000000001</ele><time>2026-05-03T09:50:12.255Z</time></trkpt><trkpt lat="44.8416908" lon="8.4714099"><ele>108.4</ele><time>2026-05-03T09:50:13.255Z</time></trkpt><trkpt lat="44.8417671" lon="8.4715046"><ele>108.2</ele><time>2026-05-03T09:50:14.255Z</time></trkpt><trkpt lat="44.8418426" lon="8.4715984"><ele>108.0</ele><time>2026-05-03T09:50:15.255Z</time></trkpt><trkpt lat="44.8419186" lon="8.47169"><ele>107.80000000000001</ele><time>2026-05-03T09:50:16.255Z</time></trkpt><trkpt lat="44.8419951" lon="8.4717819"><ele>107.60000000000001</ele><time>2026-05-03T09:50:17.255Z</time></trkpt><trkpt lat="44.8420723" lon="8.4718754"><ele>107.39999999999999</ele><time>2026-05-03T09:50:18.255Z</time></trkpt><trkpt lat="44.8421472" lon="8.4719664"><ele>107.19999999999999</ele><time>2026-05-03T09:50:19.255Z</time></trkpt><trkpt lat="44.8422205" lon="8.4720546"><ele>107.0</ele><time>2026-05-03T09:50:20.255Z</time></trkpt><trkpt lat="44.8422943" lon="8.472144"><ele>107.0</ele><time>2026-05-03T09:50:21.255Z</time></trkpt><trkpt lat="44.8423714" lon="8.4722321"><ele>106.99999999999999</ele><time>2026-05-03T09:50:22.255Z</time></trkpt><trkpt lat="44.8424518" lon="8.4723146"><ele>106.99999999999999</ele><time>2026-05-03T09:50:23.255Z</time></trkpt><trkpt lat="44.8425364" lon="8.472392"><ele>107.0</ele><time>2026-05-03T09:50:24.255Z</time></trkpt><trkpt lat="44.8426248" lon="8.4724617"><ele>107.0</ele><time>2026-05-03T09:50:25.256Z</time></trkpt><trkpt lat="44.8427166" lon="8.4725201"><ele>107.0</ele><time>2026-05-03T09:50:26.255Z</time></trkpt><trkpt lat="44.8428111" lon="8.4725664"><ele>106.99999999999999</ele><time>2026-05-03T09:50:27.255Z</time></trkpt><trkpt lat="44.8429087" lon="8.472608"><ele>106.99999999999999</ele><time>2026-05-03T09:50:28.253Z</time></trkpt><trkpt lat="44.8430088" lon="8.4726478"><ele>107.0</ele><time>2026-05-03T09:50:29.255Z</time></trkpt><trkpt lat="44.8431107" lon="8.4726829"><ele>107.0</ele><time>2026-05-03T09:50:30.255Z</time></trkpt><trkpt lat="44.8432126" lon="8.4727181"><ele>107.0</ele><time>2026-05-03T09:50:31.255Z</time></trkpt><trkpt lat="44.8433141" lon="8.4727551"><ele>106.99999999999999</ele><time>2026-05-03T09:50:32.255Z</time></trkpt><trkpt lat="44.843416" lon="8.4727951"><ele>106.99999999999999</ele><time>2026-05-03T09:50:33.256Z</time></trkpt><trkpt lat="44.8435167" lon="8.4728341"><ele>107.0</ele><time>2026-05-03T09:50:34.255Z</time></trkpt><trkpt lat="44.8436163" lon="8.4728691"><ele>107.0</ele><time>2026-05-03T09:50:35.255Z</time></trkpt><trkpt lat="44.8437171" lon="8.4729039"><ele>107.19999999999999</ele><time>2026-05-03T09:50:36.255Z</time></trkpt><trkpt lat="44.8438178" lon="8.4729419"><ele>107.39999999999999</ele><time>2026-05-03T09:50:37.256Z</time></trkpt><trkpt lat="44.8439189" lon="8.4729815"><ele>107.60000000000001</ele><time>2026-05-03T09:50:38.257Z</time></trkpt><trkpt lat="44.8440205" lon="8.473021"><ele>107.80000000000001</ele><time>2026-05-03T09:50:39.256Z</time></trkpt><trkpt lat="44.8441217" lon="8.4730584"><ele>108.0</ele><time>2026-05-03T09:50:40.256Z</time></trkpt><trkpt lat="44.8442224" lon="8.4730951"><ele>107.60000000000001</ele><time>2026-05-03T09:50:41.257Z</time></trkpt><trkpt lat="44.8443239" lon="8.4731309"><ele>107.20000000000002</ele><time>2026-05-03T09:50:42.256Z</time></trkpt><trkpt lat="44.8444253" lon="8.4731679"><ele>106.8</ele><time>2026-05-03T09:50:43.256Z</time></trkpt><trkpt lat="44.8445266" lon="8.4732079"><ele>106.4</ele><time>2026-05-03T09:50:44.256Z</time></trkpt><trkpt lat="44.8446287" lon="8.4732496"><ele>106.0</ele><time>2026-05-03T09:50:45.256Z</time></trkpt><trkpt lat="44.8447323" lon="8.4732924"><ele>106.0</ele><time>2026-05-03T09:50:46.256Z</time></trkpt><trkpt lat="44.8448355" lon="8.4733317"><ele>106.0</ele><time>2026-05-03T09:50:47.257Z</time></trkpt><trkpt lat="44.8449392" lon="8.4733693"><ele>106.0</ele><time>2026-05-03T09:50:48.256Z</time></trkpt><trkpt lat="44.8450433" lon="8.4734064"><ele>106.0</ele><time>2026-05-03T09:50:49.256Z</time></trkpt><trkpt lat="44.8451483" lon="8.4734437"><ele>106.0</ele><time>2026-05-03T09:50:50.256Z</time></trkpt><trkpt lat="44.8452536" lon="8.4734832"><ele>106.19999999999999</ele><time>2026-05-03T09:50:51.256Z</time></trkpt><trkpt lat="44.8453568" lon="8.4735242"><ele>106.39999999999999</ele><time>2026-05-03T09:50:52.257Z</time></trkpt><trkpt lat="44.84546" lon="8.4735642"><ele>106.6</ele><time>2026-05-03T09:50:53.257Z</time></trkpt><trkpt lat="44.8455627" lon="8.4736068"><ele>106.8</ele><time>2026-05-03T09:50:54.256Z</time></trkpt><trkpt lat="44.8456664" lon="8.4736502"><ele>107.0</ele><time>2026-05-03T09:50:55.256Z</time></trkpt><trkpt lat="44.8457696" lon="8.4736927"><ele>107.0</ele><time>2026-05-03T09:50:56.257Z</time></trkpt><trkpt lat="44.8458728" lon="8.4737361"><ele>106.99999999999999</ele><time>2026-05-03T09:50:57.256Z</time></trkpt><trkpt lat="44.8459752" lon="8.4737814"><ele>106.99999999999999</ele><time>2026-05-03T09:50:58.256Z</time></trkpt><trkpt lat="44.8460757" lon="8.4738285"><ele>107.0</ele><time>2026-05-03T09:50:59.256Z</time></trkpt><trkpt lat="44.8461754" lon="8.4738712"><ele>107.0</ele><time>2026-05-03T09:51:00.257Z</time></trkpt><trkpt lat="44.8462739" lon="8.4739089"><ele>106.8</ele><time>2026-05-03T09:51:01.256Z</time></trkpt><trkpt lat="44.8463741" lon="8.4739454"><ele>106.6</ele><time>2026-05-03T09:51:02.256Z</time></trkpt><trkpt lat="44.8464742" lon="8.4739818"><ele>106.39999999999999</ele><time>2026-05-03T09:51:03.256Z</time></trkpt><trkpt lat="44.8465748" lon="8.4740188"><ele>106.19999999999999</ele><time>2026-05-03T09:51:04.256Z</time></trkpt><trkpt lat="44.8466759" lon="8.4740549"><ele>106.0</ele><time>2026-05-03T09:51:05.256Z</time></trkpt><trkpt lat="44.8467754" lon="8.4740915"><ele>106.19999999999999</ele><time>2026-05-03T09:51:06.256Z</time></trkpt><trkpt lat="44.8468743" lon="8.4741296"><ele>106.39999999999999</ele><time>2026-05-03T09:51:07.256Z</time></trkpt><trkpt lat="44.8469714" lon="8.474169"><ele>106.6</ele><time>2026-05-03T09:51:08.256Z</time></trkpt><trkpt lat="44.8470685" lon="8.4742097"><ele>106.8</ele><time>2026-05-03T09:51:09.257Z</time></trkpt><trkpt lat="44.8471665" lon="8.4742499"><ele>107.0</ele><time>2026-05-03T09:51:10.257Z</time></trkpt><trkpt lat="44.8472642" lon="8.4742864"><ele>107.0</ele><time>2026-05-03T09:51:11.256Z</time></trkpt><trkpt lat="44.8473621" lon="8.4743212"><ele>106.99999999999999</ele><time>2026-05-03T09:51:12.257Z</time></trkpt><trkpt lat="44.8474597" lon="8.4743559"><ele>106.99999999999999</ele><time>2026-05-03T09:51:13.256Z</time></trkpt><trkpt lat="44.847556" lon="8.4743925"><ele>107.0</ele><time>2026-05-03T09:51:14.256Z</time></trkpt><trkpt lat="44.8476525" lon="8.4744284"><ele>107.0</ele><time>2026-05-03T09:51:15.256Z</time></trkpt><trkpt lat="44.8477487" lon="8.4744655"><ele>107.6</ele><time>2026-05-03T09:51:16.257Z</time></trkpt><trkpt lat="44.8478436" lon="8.4745075"><ele>108.19999999999999</ele><time>2026-05-03T09:51:17.257Z</time></trkpt><trkpt lat="44.8479371" lon="8.4745566"><ele>108.8</ele><time>2026-05-03T09:51:18.256Z</time></trkpt><trkpt lat="44.8480301" lon="8.4746114"><ele>109.4</ele><time>2026-05-03T09:51:19.256Z</time></trkpt><trkpt lat="44.848122" lon="8.4746685"><ele>110.0</ele><time>2026-05-03T09:51:20.256Z</time></trkpt><trkpt lat="44.8482125" lon="8.4747279"><ele>110.0</ele><time>2026-05-03T09:51:21.256Z</time></trkpt><trkpt lat="44.8483009" lon="8.4747887"><ele>110.0</ele><time>2026-05-03T09:51:22.257Z</time></trkpt><trkpt lat="44.848387" lon="8.4748549"><ele>110.0</ele><time>2026-05-03T09:51:23.256Z</time></trkpt><trkpt lat="44.8484707" lon="8.4749234"><ele>110.0</ele><time>2026-05-03T09:51:24.257Z</time></trkpt><trkpt lat="44.8485532" lon="8.4749927"><ele>110.0</ele><time>2026-05-03T09:51:25.257Z</time></trkpt><trkpt lat="44.8486346" lon="8.4750607"><ele>110.6</ele><time>2026-05-03T09:51:26.257Z</time></trkpt><trkpt lat="44.8487163" lon="8.4751269"><ele>111.2</ele><time>2026-05-03T09:51:27.258Z</time></trkpt><trkpt lat="44.8487975" lon="8.4751944"><ele>111.80000000000001</ele><time>2026-05-03T09:51:28.257Z</time></trkpt><trkpt lat="44.8488795" lon="8.4752628"><ele>112.4</ele><time>2026-05-03T09:51:29.257Z</time></trkpt><trkpt lat="44.8489609" lon="8.475331"><ele>113.0</ele><time>2026-05-03T09:51:30.257Z</time></trkpt><trkpt lat="44.8490419" lon="8.4753991"><ele>112.80000000000001</ele><time>2026-05-03T09:51:31.258Z</time></trkpt><trkpt lat="44.8491212" lon="8.4754667"><ele>112.60000000000001</ele><time>2026-05-03T09:51:32.258Z</time></trkpt><trkpt lat="44.8491991" lon="8.4755385"><ele>112.39999999999999</ele><time>2026-05-03T09:51:33.257Z</time></trkpt><trkpt lat="44.8492776" lon="8.4756198"><ele>112.19999999999999</ele><time>2026-05-03T09:51:34.257Z</time></trkpt><trkpt lat="44.8493561" lon="8.4757099"><ele>112.0</ele><time>2026-05-03T09:51:35.257Z</time></trkpt><trkpt lat="44.8494331" lon="8.4758088"><ele>112.0</ele><time>2026-05-03T09:51:36.258Z</time></trkpt><trkpt lat="44.8495082" lon="8.475913"><ele>111.99999999999999</ele><time>2026-05-03T09:51:37.258Z</time></trkpt><trkpt lat="44.8495818" lon="8.4760182"><ele>111.99999999999999</ele><time>2026-05-03T09:51:38.257Z</time></trkpt><trkpt lat="44.8496557" lon="8.4761229"><ele>112.0</ele><time>2026-05-03T09:51:39.257Z</time></trkpt><trkpt lat="44.8497292" lon="8.4762258"><ele>112.0</ele><time>2026-05-03T09:51:40.257Z</time></trkpt><trkpt lat="44.8498046" lon="8.4763243"><ele>111.6</ele><time>2026-05-03T09:51:41.257Z</time></trkpt><trkpt lat="44.8498816" lon="8.4764176"><ele>111.19999999999999</ele><time>2026-05-03T09:51:42.257Z</time></trkpt><trkpt lat="44.8499617" lon="8.4765057"><ele>110.8</ele><time>2026-05-03T09:51:43.257Z</time></trkpt><trkpt lat="44.8500471" lon="8.4765907"><ele>110.4</ele><time>2026-05-03T09:51:44.257Z</time></trkpt><trkpt lat="44.8501391" lon="8.4766698"><ele>110.0</ele><time>2026-05-03T09:51:45.257Z</time></trkpt><trkpt lat="44.8502351" lon="8.4767369"><ele>109.6</ele><time>2026-05-03T09:51:46.258Z</time></trkpt><trkpt lat="44.8503329" lon="8.4767968"><ele>109.2</ele><time>2026-05-03T09:51:47.257Z</time></trkpt><trkpt lat="44.8504323" lon="8.4768531"><ele>108.80000000000001</ele><time>2026-05-03T09:51:48.257Z</time></trkpt><trkpt lat="44.85053" lon="8.4769095"><ele>108.4</ele><time>2026-05-03T09:51:49.257Z</time></trkpt><trkpt lat="44.8506273" lon="8.4769636"><ele>108.0</ele><time>2026-05-03T09:51:50.257Z</time></trkpt><trkpt lat="44.8507237" lon="8.4770155"><ele>108.0</ele><time>2026-05-03T09:51:51.258Z</time></trkpt><trkpt lat="44.8508177" lon="8.4770687"><ele>108.00000000000001</ele><time>2026-05-03T09:51:52.257Z</time></trkpt><trkpt lat="44.8509097" lon="8.4771248"><ele>108.00000000000001</ele><time>2026-05-03T09:51:53.257Z</time></trkpt><trkpt lat="44.8509998" lon="8.4771815"><ele>108.0</ele><time>2026-05-03T09:51:54.258Z</time></trkpt><trkpt lat="44.8510899" lon="8.477237"><ele>108.0</ele><time>2026-05-03T09:51:55.258Z</time></trkpt><trkpt lat="44.851181" lon="8.4772918"><ele>107.60000000000001</ele><time>2026-05-03T09:51:56.258Z</time></trkpt><trkpt lat="44.8512721" lon="8.477343"><ele>107.20000000000002</ele><time>2026-05-03T09:51:57.258Z</time></trkpt><trkpt lat="44.8513647" lon="8.4773912"><ele>106.8</ele><time>2026-05-03T09:51:58.257Z</time></trkpt><trkpt lat="44.8514616" lon="8.4774374"><ele>106.4</ele><time>2026-05-03T09:51:59.257Z</time></trkpt><trkpt lat="44.8515594" lon="8.4774808"><ele>106.0</ele><time>2026-05-03T09:52:00.258Z</time></trkpt><trkpt lat="44.8516583" lon="8.4775214"><ele>106.0</ele><time>2026-05-03T09:52:01.258Z</time></trkpt><trkpt lat="44.8517577" lon="8.4775576"><ele>106.0</ele><time>2026-05-03T09:52:02.257Z</time></trkpt><trkpt lat="44.8518563" lon="8.4775906"><ele>106.0</ele><time>2026-05-03T09:52:03.257Z</time></trkpt><trkpt lat="44.8519556" lon="8.4776234"><ele>106.0</ele><time>2026-05-03T09:52:04.257Z</time></trkpt><trkpt lat="44.8520552" lon="8.4776564"><ele>106.0</ele><time>2026-05-03T09:52:05.257Z</time></trkpt><trkpt lat="44.8521547" lon="8.4776899"><ele>105.6</ele><time>2026-05-03T09:52:06.257Z</time></trkpt><trkpt lat="44.852254" lon="8.4777253"><ele>105.19999999999999</ele><time>2026-05-03T09:52:07.258Z</time></trkpt><trkpt lat="44.8523518" lon="8.4777632"><ele>104.80000000000001</ele><time>2026-05-03T09:52:08.257Z</time></trkpt><trkpt lat="44.8524478" lon="8.4778057"><ele>104.4</ele><time>2026-05-03T09:52:09.257Z</time></trkpt><trkpt lat="44.8525413" lon="8.4778534"><ele>104.0</ele><time>2026-05-03T09:52:10.257Z</time></trkpt><trkpt lat="44.8526334" lon="8.4779061"><ele>104.2</ele><time>2026-05-03T09:52:11.258Z</time></trkpt><trkpt lat="44.8527241" lon="8.4779597"><ele>104.4</ele><time>2026-05-03T09:52:12.259Z</time></trkpt><trkpt lat="44.8528148" lon="8.478014"><ele>104.6</ele><time>2026-05-03T09:52:13.259Z</time></trkpt><trkpt lat="44.852905" lon="8.478067"><ele>104.8</ele><time>2026-05-03T09:52:14.259Z</time></trkpt><trkpt lat="44.8529936" lon="8.4781192"><ele>105.0</ele><time>2026-05-03T09:52:15.259Z</time></trkpt><trkpt lat="44.8530809" lon="8.4781712"><ele>105.0</ele><time>2026-05-03T09:52:16.259Z</time></trkpt><trkpt lat="44.8531682" lon="8.4782217"><ele>105.0</ele><time>2026-05-03T09:52:17.258Z</time></trkpt><trkpt lat="44.8532562" lon="8.4782699"><ele>105.0</ele><time>2026-05-03T09:52:18.258Z</time></trkpt><trkpt lat="44.8533449" lon="8.4783175"><ele>105.0</ele><time>2026-05-03T09:52:19.258Z</time></trkpt><trkpt lat="44.8534324" lon="8.4783653"><ele>105.0</ele><time>2026-05-03T09:52:20.258Z</time></trkpt><trkpt lat="44.8535187" lon="8.4784161"><ele>106.4</ele><time>2026-05-03T09:52:21.258Z</time></trkpt><trkpt lat="44.8536038" lon="8.4784679"><ele>107.8</ele><time>2026-05-03T09:52:22.258Z</time></trkpt><trkpt lat="44.8536887" lon="8.478521"><ele>109.19999999999999</ele><time>2026-05-03T09:52:23.258Z</time></trkpt><trkpt lat="44.8537754" lon="8.47858"><ele>110.6</ele><time>2026-05-03T09:52:24.259Z</time></trkpt><trkpt lat="44.8538613" lon="8.4786464"><ele>112.0</ele><time>2026-05-03T09:52:25.258Z</time></trkpt><trkpt lat="44.8539456" lon="8.4787167"><ele>111.8</ele><time>2026-05-03T09:52:26.258Z</time></trkpt><trkpt lat="44.8540262" lon="8.4787945"><ele>111.6</ele><time>2026-05-03T09:52:27.258Z</time></trkpt><trkpt lat="44.8541045" lon="8.4788761"><ele>111.39999999999999</ele><time>2026-05-03T09:52:28.259Z</time></trkpt><trkpt lat="44.8541832" lon="8.4789576"><ele>111.19999999999999</ele><time>2026-05-03T09:52:29.258Z</time></trkpt><trkpt lat="44.8542641" lon="8.479037"><ele>111.0</ele><time>2026-05-03T09:52:30.259Z</time></trkpt><trkpt lat="44.8543462" lon="8.479116"><ele>111.0</ele><time>2026-05-03T09:52:31.259Z</time></trkpt><trkpt lat="44.8544279" lon="8.479196"><ele>111.0</ele><time>2026-05-03T09:52:32.258Z</time></trkpt><trkpt lat="44.8545076" lon="8.4792774"><ele>111.0</ele><time>2026-05-03T09:52:33.259Z</time></trkpt><trkpt lat="44.8545872" lon="8.4793603"><ele>111.0</ele><time>2026-05-03T09:52:34.258Z</time></trkpt><trkpt lat="44.854667" lon="8.4794436"><ele>111.0</ele><time>2026-05-03T09:52:35.258Z</time></trkpt><trkpt lat="44.8547451" lon="8.4795285"><ele>110.6</ele><time>2026-05-03T09:52:36.258Z</time></trkpt><trkpt lat="44.8548219" lon="8.4796185"><ele>110.19999999999999</ele><time>2026-05-03T09:52:37.258Z</time></trkpt><trkpt lat="44.8548968" lon="8.4797081"><ele>109.80000000000001</ele><time>2026-05-03T09:52:38.258Z</time></trkpt><trkpt lat="44.8549727" lon="8.4797989"><ele>109.4</ele><time>2026-05-03T09:52:39.258Z</time></trkpt><trkpt lat="44.8550491" lon="8.4798884"><ele>109.0</ele><time>2026-05-03T09:52:40.258Z</time></trkpt><trkpt lat="44.8551271" lon="8.4799736"><ele>109.0</ele><time>2026-05-03T09:52:41.259Z</time></trkpt><trkpt lat="44.8552073" lon="8.4800526"><ele>109.0</ele><time>2026-05-03T09:52:42.258Z</time></trkpt><trkpt lat="44.855289" lon="8.480129"><ele>109.0</ele><time>2026-05-03T09:52:43.258Z</time></trkpt><trkpt lat="44.8553738" lon="8.4801988"><ele>109.0</ele><time>2026-05-03T09:52:44.258Z</time></trkpt><trkpt lat="44.855458" lon="8.4802609"><ele>109.0</ele><time>2026-05-03T09:52:45.258Z</time></trkpt><trkpt lat="44.8555368" lon="8.4803216"><ele>109.0</ele><time>2026-05-03T09:52:46.259Z</time></trkpt><trkpt lat="44.8556226" lon="8.4803776"><ele>109.0</ele><time>2026-05-03T09:52:47.258Z</time></trkpt><trkpt lat="44.8557141" lon="8.480424"><ele>109.0</ele><time>2026-05-03T09:52:48.259Z</time></trkpt><trkpt lat="44.8558067" lon="8.4804674"><ele>109.0</ele><time>2026-05-03T09:52:49.258Z</time></trkpt><trkpt lat="44.8558987" lon="8.4805096"><ele>109.0</ele><time>2026-05-03T09:52:50.259Z</time></trkpt><trkpt lat="44.8559884" lon="8.4805576"><ele>109.4</ele><time>2026-05-03T09:52:51.258Z</time></trkpt><trkpt lat="44.8560749" lon="8.4806082"><ele>109.80000000000001</ele><time>2026-05-03T09:52:52.258Z</time></trkpt><trkpt lat="44.8561589" lon="8.4806575"><ele>110.19999999999999</ele><time>2026-05-03T09:52:53.259Z</time></trkpt><trkpt lat="44.8562431" lon="8.4807028"><ele>110.6</ele><time>2026-05-03T09:52:54.258Z</time></trkpt><trkpt lat="44.8563279" lon="8.4807468"><ele>111.0</ele><time>2026-05-03T09:52:55.259Z</time></trkpt><trkpt lat="44.8564108" lon="8.4807912"><ele>111.0</ele><time>2026-05-03T09:52:56.26Z</time></trkpt><trkpt lat="44.8564908" lon="8.4808351"><ele>111.0</ele><time>2026-05-03T09:52:57.259Z</time></trkpt><trkpt lat="44.856567" lon="8.4808727"><ele>111.0</ele><time>2026-05-03T09:52:58.259Z</time></trkpt><trkpt lat="44.8566451" lon="8.4808995"><ele>111.0</ele><time>2026-05-03T09:52:59.259Z</time></trkpt><trkpt lat="44.8567261" lon="8.480912"><ele>111.0</ele><time>2026-05-03T09:53:00.26Z</time></trkpt><trkpt lat="44.8568077" lon="8.4809149"><ele>111.0</ele><time>2026-05-03T09:53:01.259Z</time></trkpt><trkpt lat="44.8568924" lon="8.480908"><ele>112.0</ele><time>2026-05-03T09:53:02.259Z</time></trkpt><trkpt lat="44.8569739" lon="8.4808944"><ele>113.0</ele><time>2026-05-03T09:53:03.259Z</time></trkpt><trkpt lat="44.8570467" lon="8.4808747"><ele>114.0</ele><time>2026-05-03T09:53:04.259Z</time></trkpt><trkpt lat="44.8571194" lon="8.480854"><ele>115.0</ele><time>2026-05-03T09:53:05.259Z</time></trkpt><trkpt lat="44.8571904" lon="8.4808383"><ele>116.0</ele><time>2026-05-03T09:53:06.26Z</time></trkpt><trkpt lat="44.8572565" lon="8.4808297"><ele>117.0</ele><time>2026-05-03T09:53:07.259Z</time></trkpt><trkpt lat="44.8573248" lon="8.4808221"><ele>118.0</ele><time>2026-05-03T09:53:08.26Z</time></trkpt><trkpt lat="44.8573946" lon="8.4808125"><ele>118.00000000000001</ele><time>2026-05-03T09:53:09.259Z</time></trkpt><trkpt lat="44.8574614" lon="8.4808026"><ele>118.0</ele><time>2026-05-03T09:53:10.259Z</time></trkpt><trkpt lat="44.8575605" lon="8.4808019"><ele>118.0</ele><time>2026-05-03T09:53:12.259Z</time></trkpt><trkpt lat="44.8575946" lon="8.4808821"><ele>118.0</ele><time>2026-05-03T09:53:15.259Z</time></trkpt><trkpt lat="44.8575594" lon="8.4810076"><ele>118.00000000000001</ele><time>2026-05-03T09:53:17.259Z</time></trkpt><trkpt lat="44.8575333" lon="8.4810968"><ele>118.0</ele><time>2026-05-03T09:53:18.259Z</time></trkpt><trkpt lat="44.8575147" lon="8.4811956"><ele>118.00000000000001</ele><time>2026-05-03T09:53:19.259Z</time></trkpt><trkpt lat="44.8574992" lon="8.4813055"><ele>118.0</ele><time>2026-05-03T09:53:20.259Z</time></trkpt><trkpt lat="44.8574842" lon="8.4814189"><ele>118.0</ele><time>2026-05-03T09:53:21.259Z</time></trkpt><trkpt lat="44.8574698" lon="8.4815329"><ele>118.0</ele><time>2026-05-03T09:53:22.259Z</time></trkpt><trkpt lat="44.8574608" lon="8.4816528"><ele>118.00000000000001</ele><time>2026-05-03T09:53:23.259Z</time></trkpt><trkpt lat="44.8574571" lon="8.4817754"><ele>118.0</ele><time>2026-05-03T09:53:24.259Z</time></trkpt><trkpt lat="44.8574568" lon="8.4819001"><ele>118.00000000000001</ele><time>2026-05-03T09:53:25.26Z</time></trkpt><trkpt lat="44.857457" lon="8.4820215"><ele>118.0</ele><time>2026-05-03T09:53:26.259Z</time></trkpt><trkpt lat="44.8574546" lon="8.4821432"><ele>118.0</ele><time>2026-05-03T09:53:27.259Z</time></trkpt><trkpt lat="44.8574528" lon="8.4822681"><ele>118.0</ele><time>2026-05-03T09:53:28.259Z</time></trkpt><trkpt lat="44.8574515" lon="8.4823934"><ele>118.00000000000001</ele><time>2026-05-03T09:53:29.259Z</time></trkpt><trkpt lat="44.8574485" lon="8.4825146"><ele>118.0</ele><time>2026-05-03T09:53:30.26Z</time></trkpt><trkpt lat="44.857444" lon="8.4826396"><ele>117.50000000000001</ele><time>2026-05-03T09:53:31.26Z</time></trkpt><trkpt lat="44.8574405" lon="8.4827587"><ele>117.0</ele><time>2026-05-03T09:53:32.26Z</time></trkpt><trkpt lat="44.8574421" lon="8.4828741"><ele>116.5</ele><time>2026-05-03T09:53:33.259Z</time></trkpt><trkpt lat="44.8574506" lon="8.4829828"><ele>116.0</ele><time>2026-05-03T09:53:34.26Z</time></trkpt><trkpt lat="44.8574695" lon="8.4830984"><ele>115.50000000000001</ele><time>2026-05-03T09:53:35.259Z</time></trkpt><trkpt lat="44.8575006" lon="8.4832036"><ele>115.0</ele><time>2026-05-03T09:53:36.26Z</time></trkpt><trkpt lat="44.8575455" lon="8.4833088"><ele>114.8</ele><time>2026-05-03T09:53:37.259Z</time></trkpt><trkpt lat="44.8576022" lon="8.4834271"><ele>114.6</ele><time>2026-05-03T09:53:38.259Z</time></trkpt><trkpt lat="44.857652" lon="8.4835396"><ele>114.4</ele><time>2026-05-03T09:53:39.26Z</time></trkpt><trkpt lat="44.8576949" lon="8.4836567"><ele>114.2</ele><time>2026-05-03T09:53:40.259Z</time></trkpt><trkpt lat="44.8577316" lon="8.4837773"><ele>114.0</ele><time>2026-05-03T09:53:41.259Z</time></trkpt><trkpt lat="44.8577675" lon="8.4839013"><ele>114.0</ele><time>2026-05-03T09:53:42.259Z</time></trkpt><trkpt lat="44.8577995" lon="8.4840215"><ele>114.0</ele><time>2026-05-03T09:53:43.261Z</time></trkpt><trkpt lat="44.8578246" lon="8.484146"><ele>114.0</ele><time>2026-05-03T09:53:44.26Z</time></trkpt><trkpt lat="44.8578393" lon="8.4842733"><ele>114.0</ele><time>2026-05-03T09:53:45.261Z</time></trkpt><trkpt lat="44.8578451" lon="8.4844041"><ele>114.0</ele><time>2026-05-03T09:53:46.26Z</time></trkpt><trkpt lat="44.8578471" lon="8.4845356"><ele>114.5</ele><time>2026-05-03T09:53:47.261Z</time></trkpt><trkpt lat="44.8578508" lon="8.4846675"><ele>115.0</ele><time>2026-05-03T09:53:48.26Z</time></trkpt><trkpt lat="44.8578576" lon="8.4847927"><ele>115.5</ele><time>2026-05-03T09:53:49.26Z</time></trkpt><trkpt lat="44.857872" lon="8.4849119"><ele>116.0</ele><time>2026-05-03T09:53:50.261Z</time></trkpt><trkpt lat="44.8579037" lon="8.4850263"><ele>116.5</ele><time>2026-05-03T09:53:51.26Z</time></trkpt><trkpt lat="44.8579509" lon="8.4851355"><ele>117.0</ele><time>2026-05-03T09:53:52.261Z</time></trkpt><trkpt lat="44.8580012" lon="8.4852307"><ele>117.0</ele><time>2026-05-03T09:53:53.26Z</time></trkpt><trkpt lat="44.8580545" lon="8.4853204"><ele>117.0</ele><time>2026-05-03T09:53:54.26Z</time></trkpt><trkpt lat="44.8581093" lon="8.4854085"><ele>117.0</ele><time>2026-05-03T09:53:55.261Z</time></trkpt><trkpt lat="44.8581621" lon="8.4854949"><ele>117.0</ele><time>2026-05-03T09:53:56.261Z</time></trkpt><trkpt lat="44.8582142" lon="8.485578"><ele>117.0</ele><time>2026-05-03T09:53:57.26Z</time></trkpt><trkpt lat="44.8582763" lon="8.4856497"><ele>117.0</ele><time>2026-05-03T09:53:58.261Z</time></trkpt><trkpt lat="44.8583411" lon="8.4857191"><ele>116.33333333333333</ele><time>2026-05-03T09:53:59.26Z</time></trkpt><trkpt lat="44.8584187" lon="8.4857785"><ele>115.66666666666666</ele><time>2026-05-03T09:54:00.26Z</time></trkpt><trkpt lat="44.8584936" lon="8.4858245"><ele>115.0</ele><time>2026-05-03T09:54:01.26Z</time></trkpt><trkpt lat="44.8585665" lon="8.4858539"><ele>114.33333333333333</ele><time>2026-05-03T09:54:02.26Z</time></trkpt><trkpt lat="44.8586344" lon="8.4858623"><ele>113.66666666666666</ele><time>2026-05-03T09:54:03.261Z</time></trkpt><trkpt lat="44.8586973" lon="8.4858428"><ele>113.0</ele><time>2026-05-03T09:54:04.261Z</time></trkpt><trkpt lat="44.8588132" lon="8.4857733"><ele>112.66666666666666</ele><time>2026-05-03T09:54:06.261Z</time></trkpt><trkpt lat="44.8588751" lon="8.4857269"><ele>112.33333333333333</ele><time>2026-05-03T09:54:07.26Z</time></trkpt><trkpt lat="44.8589403" lon="8.485676"><ele>112.0</ele><time>2026-05-03T09:54:08.26Z</time></trkpt><trkpt lat="44.8590119" lon="8.4856225"><ele>111.66666666666666</ele><time>2026-05-03T09:54:09.26Z</time></trkpt><trkpt lat="44.8590909" lon="8.4855634"><ele>111.33333333333333</ele><time>2026-05-03T09:54:10.26Z</time></trkpt><trkpt lat="44.8591658" lon="8.4855025"><ele>111.0</ele><time>2026-05-03T09:54:11.261Z</time></trkpt><trkpt lat="44.8592339" lon="8.4854455"><ele>110.83333333333333</ele><time>2026-05-03T09:54:12.261Z</time></trkpt><trkpt lat="44.8592895" lon="8.485395"><ele>110.66666666666666</ele><time>2026-05-03T09:54:13.26Z</time></trkpt><trkpt lat="44.8593732" lon="8.4853311"><ele>110.5</ele><time>2026-05-03T09:54:15.26Z</time></trkpt><trkpt lat="44.8594581" lon="8.485366"><ele>110.33333333333333</ele><time>2026-05-03T09:54:18.26Z</time></trkpt><trkpt lat="44.8595195" lon="8.4853945"><ele>110.16666666666666</ele><time>2026-05-03T09:54:20.261Z</time></trkpt><trkpt lat="44.8596091" lon="8.485408"><ele>110.0</ele><time>2026-05-03T09:54:22.26Z</time></trkpt><trkpt lat="44.8596767" lon="8.4854084"><ele>109.99999999999999</ele><time>2026-05-03T09:54:23.26Z</time></trkpt><trkpt lat="44.8597404" lon="8.485402"><ele>110.0</ele><time>2026-05-03T09:54:24.26Z</time></trkpt><trkpt lat="44.8598071" lon="8.4853958"><ele>110.0</ele><time>2026-05-03T09:54:25.261Z</time></trkpt><trkpt lat="44.8598794" lon="8.4853929"><ele>110.0</ele><time>2026-05-03T09:54:26.26Z</time></trkpt><trkpt lat="44.8599533" lon="8.4853855"><ele>110.0</ele><time>2026-05-03T09:54:27.26Z</time></trkpt><trkpt lat="44.860031" lon="8.4853451"><ele>109.99999999999999</ele><time>2026-05-03T09:54:28.261Z</time></trkpt><trkpt lat="44.8601022" lon="8.4853326"><ele>110.0</ele><time>2026-05-03T09:54:29.26Z</time></trkpt><trkpt lat="44.8601795" lon="8.4853235"><ele>109.66666666666666</ele><time>2026-05-03T09:54:30.261Z</time></trkpt><trkpt lat="44.8602562" lon="8.4853066"><ele>109.33333333333333</ele><time>2026-05-03T09:54:31.261Z</time></trkpt><trkpt lat="44.8603311" lon="8.4852852"><ele>109.0</ele><time>2026-05-03T09:54:32.261Z</time></trkpt><trkpt lat="44.8604015" lon="8.4852625"><ele>108.66666666666666</ele><time>2026-05-03T09:54:33.262Z</time></trkpt><trkpt lat="44.8604658" lon="8.48524"><ele>108.33333333333333</ele><time>2026-05-03T09:54:34.262Z</time></trkpt><trkpt lat="44.8605632" lon="8.4851971"><ele>108.0</ele><time>2026-05-03T09:54:36.261Z</time></trkpt><trkpt lat="44.8606292" lon="8.4852147"><ele>108.0</ele><time>2026-05-03T09:54:38.261Z</time></trkpt><trkpt lat="44.8606903" lon="8.4853164"><ele>108.00000000000001</ele><time>2026-05-03T09:54:40.261Z</time></trkpt><trkpt lat="44.860707" lon="8.4854474"><ele>108.00000000000001</ele><time>2026-05-03T09:54:42.261Z</time></trkpt><trkpt lat="44.8606902" lon="8.4855462"><ele>108.0</ele><time>2026-05-03T09:54:44.261Z</time></trkpt><trkpt lat="44.860703" lon="8.4856755"><ele>108.0</ele><time>2026-05-03T09:54:48.261Z</time></trkpt><trkpt lat="44.8607364" lon="8.4858113"><ele>108.2</ele><time>2026-05-03T09:54:50.262Z</time></trkpt><trkpt lat="44.8607406" lon="8.4860145"><ele>108.4</ele><time>2026-05-03T09:54:52.261Z</time></trkpt><trkpt lat="44.8607523" lon="8.4861518"><ele>108.60000000000001</ele><time>2026-05-03T09:54:53.262Z</time></trkpt><trkpt lat="44.8607771" lon="8.4862585"><ele>108.80000000000001</ele><time>2026-05-03T09:54:54.261Z</time></trkpt><trkpt lat="44.8608057" lon="8.4863612"><ele>109.0</ele><time>2026-05-03T09:54:55.261Z</time></trkpt><trkpt lat="44.8608344" lon="8.4864434"><ele>109.00000000000001</ele><time>2026-05-03T09:54:56.262Z</time></trkpt><trkpt lat="44.8608832" lon="8.4866003"><ele>109.0</ele><time>2026-05-03T09:54:58.262Z</time></trkpt><trkpt lat="44.8609181" lon="8.4867494"><ele>109.0</ele><time>2026-05-03T09:55:00.262Z</time></trkpt><trkpt lat="44.8609296" lon="8.4868603"><ele>109.0</ele><time>2026-05-03T09:55:02.262Z</time></trkpt><trkpt lat="44.8608985" lon="8.4869421"><ele>109.00000000000001</ele><time>2026-05-03T09:55:04.262Z</time></trkpt><trkpt lat="44.8608803" lon="8.4870391"><ele>109.0</ele><time>2026-05-03T09:55:06.261Z</time></trkpt><trkpt lat="44.8609009" lon="8.4871497"><ele>109.0</ele><time>2026-05-03T09:55:08.261Z</time></trkpt><trkpt lat="44.8609204" lon="8.4872957"><ele>109.0</ele><time>2026-05-03T09:55:10.261Z</time></trkpt><trkpt lat="44.860921" lon="8.4874725"><ele>109.0</ele><time>2026-05-03T09:55:12.261Z</time></trkpt><trkpt lat="44.8609235" lon="8.4876537"><ele>109.0</ele><time>2026-05-03T09:55:14.262Z</time></trkpt><trkpt lat="44.8609406" lon="8.4878415"><ele>108.50000000000001</ele><time>2026-05-03T09:55:16.262Z</time></trkpt><trkpt lat="44.8609584" lon="8.4879277"><ele>108.0</ele><time>2026-05-03T09:55:18.262Z</time></trkpt><trkpt lat="44.8610452" lon="8.4879279"><ele>107.5</ele><time>2026-05-03T09:55:20.263Z</time></trkpt><trkpt lat="44.8611277" lon="8.4879414"><ele>107.0</ele><time>2026-05-03T09:55:21.263Z</time></trkpt><trkpt lat="44.8612058" lon="8.4879564"><ele>106.50000000000001</ele><time>2026-05-03T09:55:22.263Z</time></trkpt><trkpt lat="44.8612755" lon="8.4879644"><ele>106.0</ele><time>2026-05-03T09:55:23.263Z</time></trkpt><trkpt lat="44.8613484" lon="8.4879833"><ele>106.00000000000001</ele><time>2026-05-03T09:55:24.262Z</time></trkpt><trkpt lat="44.861447" lon="8.4879999"><ele>106.0</ele><time>2026-05-03T09:55:26.263Z</time></trkpt><trkpt lat="44.8615232" lon="8.4880245"><ele>106.0</ele><time>2026-05-03T09:55:28.262Z</time></trkpt><trkpt lat="44.8615716" lon="8.4879235"><ele>106.0</ele><time>2026-05-03T09:55:41.262Z</time></trkpt><trkpt lat="44.8615638" lon="8.4878191"><ele>106.00000000000001</ele><time>2026-05-03T09:55:43.262Z</time></trkpt><trkpt lat="44.8615257" lon="8.487705"><ele>106.0</ele><time>2026-05-03T09:55:45.262Z</time></trkpt><trkpt lat="44.8614927" lon="8.4875775"><ele>107.0</ele><time>2026-05-03T09:55:47.262Z</time></trkpt><trkpt lat="44.861454" lon="8.4874302"><ele>108.0</ele><time>2026-05-03T09:55:49.263Z</time></trkpt><trkpt lat="44.8614324" lon="8.4872798"><ele>109.0</ele><time>2026-05-03T09:55:51.262Z</time></trkpt><trkpt lat="44.861427" lon="8.4871368"><ele>110.0</ele><time>2026-05-03T09:55:53.263Z</time></trkpt><trkpt lat="44.861419" lon="8.4870182"><ele>111.0</ele><time>2026-05-03T09:55:55.262Z</time></trkpt><trkpt lat="44.8614144" lon="8.4868994"><ele>111.4</ele><time>2026-05-03T09:55:57.262Z</time></trkpt><trkpt lat="44.8614092" lon="8.48679"><ele>111.8</ele><time>2026-05-03T09:55:59.262Z</time></trkpt><trkpt lat="44.8614685" lon="8.4867146"><ele>112.20000000000002</ele><time>2026-05-03T09:56:05.264Z</time></trkpt><trkpt lat="44.8615669" lon="8.4866742"><ele>112.60000000000001</ele><time>2026-05-03T09:56:07.264Z</time></trkpt><trkpt lat="44.8616826" lon="8.4866578"><ele>113.0</ele><time>2026-05-03T09:56:09.264Z</time></trkpt><trkpt lat="44.8617876" lon="8.4866274"><ele>113.0</ele><time>2026-05-03T09:56:11.263Z</time></trkpt><trkpt lat="44.8618595" lon="8.4866192"><ele>113.00000000000001</ele><time>2026-05-03T09:56:12.264Z</time></trkpt><trkpt lat="44.861972" lon="8.486586"><ele>113.00000000000001</ele><time>2026-05-03T09:56:14.263Z</time></trkpt><trkpt lat="44.8620704" lon="8.4865326"><ele>113.0</ele><time>2026-05-03T09:56:16.263Z</time></trkpt><trkpt lat="44.8621303" lon="8.4865004"><ele>113.0</ele><time>2026-05-03T09:56:17.263Z</time></trkpt><trkpt lat="44.8622391" lon="8.4864385"><ele>112.99999999999999</ele><time>2026-05-03T09:56:19.263Z</time></trkpt><trkpt lat="44.8623094" lon="8.4864101"><ele>113.0</ele><time>2026-05-03T09:56:20.263Z</time></trkpt><trkpt lat="44.8623723" lon="8.4863713"><ele>113.0</ele><time>2026-05-03T09:56:21.264Z</time></trkpt><trkpt lat="44.8624302" lon="8.4863232"><ele>113.0</ele><time>2026-05-03T09:56:22.264Z</time></trkpt><trkpt lat="44.8625399" lon="8.4862424"><ele>112.99999999999999</ele><time>2026-05-03T09:56:24.264Z</time></trkpt><trkpt lat="44.8625954" lon="8.4861915"><ele>113.0</ele><time>2026-05-03T09:56:25.264Z</time></trkpt><trkpt lat="44.8627083" lon="8.4861002"><ele>112.99999999999999</ele><time>2026-05-03T09:56:27.264Z</time></trkpt><trkpt lat="44.8627623" lon="8.4860522"><ele>113.0</ele><time>2026-05-03T09:56:28.263Z</time></trkpt><trkpt lat="44.8628505" lon="8.4859612"><ele>113.0</ele><time>2026-05-03T09:56:30.264Z</time></trkpt><trkpt lat="44.8629206" lon="8.4859332"><ele>113.0</ele><time>2026-05-03T09:56:33.263Z</time></trkpt><trkpt lat="44.8629991" lon="8.4859479"><ele>112.99999999999999</ele><time>2026-05-03T09:56:53.264Z</time></trkpt><trkpt lat="44.8630649" lon="8.4859209"><ele>113.0</ele><time>2026-05-03T09:56:57.265Z</time></trkpt><trkpt lat="44.8631245" lon="8.4858845"><ele>113.0</ele><time>2026-05-03T09:57:02.265Z</time></trkpt><trkpt lat="44.8631669" lon="8.4858169"><ele>113.00000000000001</ele><time>2026-05-03T09:57:05.264Z</time></trkpt><trkpt lat="44.8632091" lon="8.4856982"><ele>113.00000000000001</ele><time>2026-05-03T09:57:07.264Z</time></trkpt><trkpt lat="44.8633008" lon="8.4855676"><ele>113.0</ele><time>2026-05-03T09:57:09.264Z</time></trkpt><trkpt lat="44.8633712" lon="8.4855084"><ele>113.0</ele><time>2026-05-03T09:57:10.264Z</time></trkpt><trkpt lat="44.8634431" lon="8.4854534"><ele>113.33333333333333</ele><time>2026-05-03T09:57:11.264Z</time></trkpt><trkpt lat="44.863515" lon="8.4853846"><ele>113.66666666666666</ele><time>2026-05-03T09:57:12.264Z</time></trkpt><trkpt lat="44.8635783" lon="8.485324"><ele>114.0</ele><time>2026-05-03T09:57:13.264Z</time></trkpt><trkpt lat="44.8636691" lon="8.4852461"><ele>114.33333333333334</ele><time>2026-05-03T09:57:15.264Z</time></trkpt><trkpt lat="44.8637398" lon="8.4851921"><ele>114.66666666666667</ele><time>2026-05-03T09:57:18.265Z</time></trkpt><trkpt lat="44.8638072" lon="8.4851449"><ele>115.0</ele><time>2026-05-03T09:57:23.264Z</time></trkpt><trkpt lat="44.8638885" lon="8.4850781"><ele>115.0</ele><time>2026-05-03T09:57:30.265Z</time></trkpt><trkpt lat="44.864001" lon="8.485007"><ele>115.0</ele><time>2026-05-03T09:57:32.265Z</time></trkpt><trkpt lat="44.8640921" lon="8.4849252"><ele>115.0</ele><time>2026-05-03T09:57:34.264Z</time></trkpt><trkpt lat="44.8641987" lon="8.4848444"><ele>115.0</ele><time>2026-05-03T09:57:36.265Z</time></trkpt><trkpt lat="44.8643037" lon="8.4847529"><ele>115.00000000000001</ele><time>2026-05-03T09:57:38.265Z</time></trkpt><trkpt lat="44.864412" lon="8.4846598"><ele>115.0</ele><time>2026-05-03T09:57:40.265Z</time></trkpt><trkpt lat="44.8644753" lon="8.4846098"><ele>115.0</ele><time>2026-05-03T09:57:41.265Z</time></trkpt><trkpt lat="44.8645372" lon="8.484563"><ele>115.0</ele><time>2026-05-03T09:57:42.266Z</time></trkpt><trkpt lat="44.864599" lon="8.4845128"><ele>115.00000000000001</ele><time>2026-05-03T09:57:43.266Z</time></trkpt><trkpt lat="44.8646594" lon="8.4844568"><ele>115.0</ele><time>2026-05-03T09:57:44.265Z</time></trkpt><trkpt lat="44.8647207" lon="8.4843996"><ele>115.14285714285712</ele><time>2026-05-03T09:57:45.266Z</time></trkpt><trkpt lat="44.8647794" lon="8.4843434"><ele>115.28571428571428</ele><time>2026-05-03T09:57:46.265Z</time></trkpt><trkpt lat="44.864836" lon="8.4842867"><ele>115.42857142857143</ele><time>2026-05-03T09:57:47.266Z</time></trkpt><trkpt lat="44.8648894" lon="8.4842265"><ele>115.57142857142857</ele><time>2026-05-03T09:57:48.265Z</time></trkpt><trkpt lat="44.8649436" lon="8.4841624"><ele>115.71428571428572</ele><time>2026-05-03T09:57:49.266Z</time></trkpt><trkpt lat="44.8649965" lon="8.4840948"><ele>115.85714285714288</ele><time>2026-05-03T09:57:50.265Z</time></trkpt><trkpt lat="44.865049" lon="8.4840242"><ele>116.00000000000001</ele><time>2026-05-03T09:57:51.265Z</time></trkpt><trkpt lat="44.865104" lon="8.4839524"><ele>116.00000000000001</ele><time>2026-05-03T09:57:52.266Z</time></trkpt><trkpt lat="44.8651597" lon="8.4838812"><ele>116.0</ele><time>2026-05-03T09:57:53.266Z</time></trkpt><trkpt lat="44.8652144" lon="8.4838111"><ele>116.00000000000001</ele><time>2026-05-03T09:57:54.265Z</time></trkpt><trkpt lat="44.865271" lon="8.4837412"><ele>116.00000000000001</ele><time>2026-05-03T09:57:55.265Z</time></trkpt><trkpt lat="44.8653218" lon="8.4836685"><ele>116.0</ele><time>2026-05-03T09:57:56.265Z</time></trkpt><trkpt lat="44.8653727" lon="8.483589"><ele>116.00000000000001</ele><time>2026-05-03T09:57:57.266Z</time></trkpt><trkpt lat="44.8654239" lon="8.4835102"><ele>116.00000000000001</ele><time>2026-05-03T09:57:58.265Z</time></trkpt><trkpt lat="44.8654784" lon="8.4834302"><ele>115.83333333333333</ele><time>2026-05-03T09:57:59.265Z</time></trkpt><trkpt lat="44.8655326" lon="8.4833428"><ele>115.66666666666666</ele><time>2026-05-03T09:58:00.266Z</time></trkpt><trkpt lat="44.8655867" lon="8.4832493"><ele>115.5</ele><time>2026-05-03T09:58:01.265Z</time></trkpt><trkpt lat="44.8656406" lon="8.4831527"><ele>115.33333333333334</ele><time>2026-05-03T09:58:02.265Z</time></trkpt><trkpt lat="44.8656875" lon="8.4830516"><ele>115.16666666666667</ele><time>2026-05-03T09:58:03.265Z</time></trkpt><trkpt lat="44.8657298" lon="8.4829461"><ele>115.0</ele><time>2026-05-03T09:58:04.266Z</time></trkpt><trkpt lat="44.8657692" lon="8.482838"><ele>115.00000000000001</ele><time>2026-05-03T09:58:05.266Z</time></trkpt><trkpt lat="44.8658118" lon="8.4827351"><ele>115.0</ele><time>2026-05-03T09:58:06.265Z</time></trkpt><trkpt lat="44.865858" lon="8.4826316"><ele>115.0</ele><time>2026-05-03T09:58:07.265Z</time></trkpt><trkpt lat="44.8658988" lon="8.4825256"><ele>115.0</ele><time>2026-05-03T09:58:08.266Z</time></trkpt><trkpt lat="44.8659363" lon="8.4824128"><ele>115.00000000000001</ele><time>2026-05-03T09:58:09.265Z</time></trkpt><trkpt lat="44.8659732" lon="8.4822998"><ele>115.0</ele><time>2026-05-03T09:58:10.266Z</time></trkpt><trkpt lat="44.8660042" lon="8.4821825"><ele>115.00000000000001</ele><time>2026-05-03T09:58:11.266Z</time></trkpt><trkpt lat="44.8660311" lon="8.4820615"><ele>115.0</ele><time>2026-05-03T09:58:12.266Z</time></trkpt><trkpt lat="44.8660557" lon="8.4819414"><ele>115.0</ele><time>2026-05-03T09:58:13.265Z</time></trkpt><trkpt lat="44.8660771" lon="8.4818241"><ele>115.0</ele><time>2026-05-03T09:58:14.265Z</time></trkpt><trkpt lat="44.8660983" lon="8.481706"><ele>115.00000000000001</ele><time>2026-05-03T09:58:15.265Z</time></trkpt><trkpt lat="44.8661177" lon="8.4815879"><ele>115.0</ele><time>2026-05-03T09:58:16.266Z</time></trkpt><trkpt lat="44.8661372" lon="8.4814671"><ele>115.00000000000001</ele><time>2026-05-03T09:58:17.265Z</time></trkpt><trkpt lat="44.8661566" lon="8.4813466"><ele>115.0</ele><time>2026-05-03T09:58:18.265Z</time></trkpt><trkpt lat="44.8661752" lon="8.4812287"><ele>115.0</ele><time>2026-05-03T09:58:19.266Z</time></trkpt><trkpt lat="44.866192" lon="8.4811108"><ele>115.0</ele><time>2026-05-03T09:58:20.265Z</time></trkpt><trkpt lat="44.8662061" lon="8.4809958"><ele>115.00000000000001</ele><time>2026-05-03T09:58:21.265Z</time></trkpt><trkpt lat="44.8662195" lon="8.4808809"><ele>115.0</ele><time>2026-05-03T09:58:22.265Z</time></trkpt><trkpt lat="44.8662339" lon="8.4807691"><ele>115.00000000000001</ele><time>2026-05-03T09:58:23.266Z</time></trkpt><trkpt lat="44.8662491" lon="8.4806662"><ele>115.0</ele><time>2026-05-03T09:58:24.266Z</time></trkpt><trkpt lat="44.8662641" lon="8.4805738"><ele>115.0</ele><time>2026-05-03T09:58:25.266Z</time></trkpt><trkpt lat="44.8662876" lon="8.4804242"><ele>115.0</ele><time>2026-05-03T09:58:27.267Z</time></trkpt><trkpt lat="44.8663314" lon="8.4803355"><ele>115.00000000000001</ele><time>2026-05-03T09:58:30.266Z</time></trkpt><trkpt lat="44.8663888" lon="8.4803776"><ele>115.0</ele><time>2026-05-03T09:58:33.266Z</time></trkpt><trkpt lat="44.8663978" lon="8.4804775"><ele>116.0</ele><time>2026-05-03T09:58:36.266Z</time></trkpt></trkseg><trkseg><trkpt lat="44.8663295" lon="8.4805092"><ele>115.83333333333333</ele><time>2026-05-03T10:11:18.284Z</time></trkpt><trkpt lat="44.8663543" lon="8.4804268"><ele>115.66666666666666</ele><time>2026-05-03T10:11:22.283Z</time></trkpt><trkpt lat="44.866309" lon="8.4803369"><ele>115.5</ele><time>2026-05-03T10:11:25.283Z</time></trkpt><trkpt lat="44.8662963" lon="8.4802338"><ele>115.33333333333334</ele><time>2026-05-03T10:11:29.284Z</time></trkpt><trkpt lat="44.8663252" lon="8.4801071"><ele>115.16666666666667</ele><time>2026-05-03T10:11:31.284Z</time></trkpt><trkpt lat="44.8663519" lon="8.4799615"><ele>115.0</ele><time>2026-05-03T10:11:33.283Z</time></trkpt><trkpt lat="44.8663762" lon="8.4797969"><ele>114.99999999999999</ele><time>2026-05-03T10:11:35.283Z</time></trkpt><trkpt lat="44.8663886" lon="8.479705"><ele>115.0</ele><time>2026-05-03T10:11:36.283Z</time></trkpt><trkpt lat="44.8664003" lon="8.4796149"><ele>114.99999999999999</ele><time>2026-05-03T10:11:37.283Z</time></trkpt><trkpt lat="44.8664118" lon="8.4795212"><ele>114.99999999999999</ele><time>2026-05-03T10:11:38.284Z</time></trkpt><trkpt lat="44.8664244" lon="8.4794278"><ele>115.0</ele><time>2026-05-03T10:11:39.283Z</time></trkpt><trkpt lat="44.8664403" lon="8.4793331"><ele>114.99999999999999</ele><time>2026-05-03T10:11:40.284Z</time></trkpt><trkpt lat="44.8664577" lon="8.4792354"><ele>114.99999999999999</ele><time>2026-05-03T10:11:41.283Z</time></trkpt><trkpt lat="44.8664748" lon="8.4791339"><ele>115.00000000000001</ele><time>2026-05-03T10:11:42.283Z</time></trkpt><trkpt lat="44.866491" lon="8.4790297"><ele>115.0</ele><time>2026-05-03T10:11:43.283Z</time></trkpt><trkpt lat="44.8665064" lon="8.4789279"><ele>115.0</ele><time>2026-05-03T10:11:44.283Z</time></trkpt><trkpt lat="44.8665222" lon="8.478826"><ele>115.0</ele><time>2026-05-03T10:11:45.283Z</time></trkpt><trkpt lat="44.8665368" lon="8.4787194"><ele>115.00000000000001</ele><time>2026-05-03T10:11:46.283Z</time></trkpt><trkpt lat="44.8665518" lon="8.4786116"><ele>115.0</ele><time>2026-05-03T10:11:47.283Z</time></trkpt><trkpt lat="44.8665672" lon="8.4785027"><ele>115.16666666666667</ele><time>2026-05-03T10:11:48.283Z</time></trkpt><trkpt lat="44.8665824" lon="8.4783937"><ele>115.33333333333334</ele><time>2026-05-03T10:11:49.283Z</time></trkpt><trkpt lat="44.8665975" lon="8.478283"><ele>115.5</ele><time>2026-05-03T10:11:50.284Z</time></trkpt><trkpt lat="44.8666135" lon="8.4781722"><ele>115.66666666666666</ele><time>2026-05-03T10:11:51.283Z</time></trkpt><trkpt lat="44.8666299" lon="8.4780606"><ele>115.83333333333333</ele><time>2026-05-03T10:11:52.284Z</time></trkpt><trkpt lat="44.8666454" lon="8.4779475"><ele>116.0</ele><time>2026-05-03T10:11:53.284Z</time></trkpt><trkpt lat="44.8666607" lon="8.4778323"><ele>116.33333333333333</ele><time>2026-05-03T10:11:54.284Z</time></trkpt><trkpt lat="44.8666772" lon="8.4777181"><ele>116.66666666666666</ele><time>2026-05-03T10:11:55.284Z</time></trkpt><trkpt lat="44.8666932" lon="8.4776064"><ele>117.0</ele><time>2026-05-03T10:11:56.284Z</time></trkpt><trkpt lat="44.8667089" lon="8.4774947"><ele>117.33333333333334</ele><time>2026-05-03T10:11:57.284Z</time></trkpt><trkpt lat="44.8667252" lon="8.4773789"><ele>117.66666666666667</ele><time>2026-05-03T10:11:58.284Z</time></trkpt><trkpt lat="44.8667398" lon="8.4772611"><ele>118.0</ele><time>2026-05-03T10:11:59.284Z</time></trkpt><trkpt lat="44.8667565" lon="8.4771417"><ele>117.83333333333334</ele><time>2026-05-03T10:12:00.284Z</time></trkpt><trkpt lat="44.8667738" lon="8.4770222"><ele>117.66666666666667</ele><time>2026-05-03T10:12:01.284Z</time></trkpt><trkpt lat="44.8667933" lon="8.4768998"><ele>117.5</ele><time>2026-05-03T10:12:02.284Z</time></trkpt><trkpt lat="44.8668122" lon="8.476777"><ele>117.33333333333334</ele><time>2026-05-03T10:12:03.284Z</time></trkpt><trkpt lat="44.8668294" lon="8.4766539"><ele>117.16666666666667</ele><time>2026-05-03T10:12:04.285Z</time></trkpt><trkpt lat="44.8668456" lon="8.4765275"><ele>117.0</ele><time>2026-05-03T10:12:05.284Z</time></trkpt><trkpt lat="44.8668625" lon="8.4763972"><ele>116.6</ele><time>2026-05-03T10:12:06.284Z</time></trkpt><trkpt lat="44.8668797" lon="8.4762753"><ele>116.19999999999999</ele><time>2026-05-03T10:12:07.284Z</time></trkpt><trkpt lat="44.8669011" lon="8.4761489"><ele>115.8</ele><time>2026-05-03T10:12:08.284Z</time></trkpt><trkpt lat="44.8669203" lon="8.4760237"><ele>115.4</ele><time>2026-05-03T10:12:09.284Z</time></trkpt><trkpt lat="44.8669395" lon="8.4758954"><ele>115.0</ele><time>2026-05-03T10:12:10.284Z</time></trkpt><trkpt lat="44.8669595" lon="8.475765"><ele>115.0</ele><time>2026-05-03T10:12:11.284Z</time></trkpt><trkpt lat="44.8669792" lon="8.4756367"><ele>115.0</ele><time>2026-05-03T10:12:12.284Z</time></trkpt><trkpt lat="44.8669986" lon="8.4755106"><ele>115.0</ele><time>2026-05-03T10:12:13.284Z</time></trkpt><trkpt lat="44.8670178" lon="8.4753848"><ele>115.0</ele><time>2026-05-03T10:12:14.285Z</time></trkpt><trkpt lat="44.8670359" lon="8.4752565"><ele>115.0</ele><time>2026-05-03T10:12:15.285Z</time></trkpt><trkpt lat="44.8670536" lon="8.4751266"><ele>115.0</ele><time>2026-05-03T10:12:16.284Z</time></trkpt><trkpt lat="44.8670709" lon="8.4749963"><ele>115.0</ele><time>2026-05-03T10:12:17.285Z</time></trkpt><trkpt lat="44.8670895" lon="8.4748697"><ele>115.0</ele><time>2026-05-03T10:12:18.285Z</time></trkpt><trkpt lat="44.8671084" lon="8.4747435"><ele>115.0</ele><time>2026-05-03T10:12:19.284Z</time></trkpt><trkpt lat="44.8671279" lon="8.4746148"><ele>115.0</ele><time>2026-05-03T10:12:20.284Z</time></trkpt><trkpt lat="44.8671472" lon="8.4744854"><ele>115.0</ele><time>2026-05-03T10:12:21.284Z</time></trkpt><trkpt lat="44.8671636" lon="8.4743552"><ele>115.0</ele><time>2026-05-03T10:12:22.284Z</time></trkpt><trkpt lat="44.8671802" lon="8.4742245"><ele>115.0</ele><time>2026-05-03T10:12:23.285Z</time></trkpt><trkpt lat="44.8671982" lon="8.4740955"><ele>115.0</ele><time>2026-05-03T10:12:24.284Z</time></trkpt><trkpt lat="44.8672171" lon="8.4739649"><ele>115.0</ele><time>2026-05-03T10:12:25.284Z</time></trkpt><trkpt lat="44.8672363" lon="8.473834"><ele>114.4</ele><time>2026-05-03T10:12:26.284Z</time></trkpt><trkpt lat="44.867257" lon="8.4737025"><ele>113.8</ele><time>2026-05-03T10:12:27.284Z</time></trkpt><trkpt lat="44.8672778" lon="8.4735718"><ele>113.19999999999999</ele><time>2026-05-03T10:12:28.284Z</time></trkpt><trkpt lat="44.8672974" lon="8.473442"><ele>112.6</ele><time>2026-05-03T10:12:29.284Z</time></trkpt><trkpt lat="44.8673154" lon="8.4733131"><ele>112.0</ele><time>2026-05-03T10:12:30.284Z</time></trkpt><trkpt lat="44.8673326" lon="8.4731834"><ele>112.0</ele><time>2026-05-03T10:12:31.284Z</time></trkpt><trkpt lat="44.8673511" lon="8.4730515"><ele>111.99999999999999</ele><time>2026-05-03T10:12:32.284Z</time></trkpt><trkpt lat="44.8673708" lon="8.4729198"><ele>111.99999999999999</ele><time>2026-05-03T10:12:33.285Z</time></trkpt><trkpt lat="44.8673897" lon="8.4727902"><ele>112.0</ele><time>2026-05-03T10:12:34.285Z</time></trkpt><trkpt lat="44.867409" lon="8.4726627"><ele>112.0</ele><time>2026-05-03T10:12:35.285Z</time></trkpt><trkpt lat="44.8674289" lon="8.4725375"><ele>111.83333333333334</ele><time>2026-05-03T10:12:36.285Z</time></trkpt><trkpt lat="44.8674479" lon="8.4724165"><ele>111.66666666666667</ele><time>2026-05-03T10:12:37.285Z</time></trkpt><trkpt lat="44.8674673" lon="8.472295"><ele>111.5</ele><time>2026-05-03T10:12:38.285Z</time></trkpt><trkpt lat="44.8674871" lon="8.4721715"><ele>111.33333333333334</ele><time>2026-05-03T10:12:39.284Z</time></trkpt><trkpt lat="44.8675063" lon="8.4720486"><ele>111.16666666666667</ele><time>2026-05-03T10:12:40.285Z</time></trkpt><trkpt lat="44.867523" lon="8.4719306"><ele>111.0</ele><time>2026-05-03T10:12:41.284Z</time></trkpt><trkpt lat="44.8675403" lon="8.4718109"><ele>111.33333333333333</ele><time>2026-05-03T10:12:42.284Z</time></trkpt><trkpt lat="44.8675579" lon="8.4716897"><ele>111.66666666666666</ele><time>2026-05-03T10:12:43.284Z</time></trkpt><trkpt lat="44.8675746" lon="8.4715702"><ele>112.0</ele><time>2026-05-03T10:12:44.285Z</time></trkpt><trkpt lat="44.8675925" lon="8.471451"><ele>112.33333333333333</ele><time>2026-05-03T10:12:45.285Z</time></trkpt><trkpt lat="44.8676138" lon="8.4713319"><ele>112.66666666666666</ele><time>2026-05-03T10:12:46.285Z</time></trkpt><trkpt lat="44.8676389" lon="8.4712108"><ele>113.0</ele><time>2026-05-03T10:12:47.285Z</time></trkpt><trkpt lat="44.8676657" lon="8.4710913"><ele>113.49999999999999</ele><time>2026-05-03T10:12:48.286Z</time></trkpt><trkpt lat="44.8676951" lon="8.4709722"><ele>114.0</ele><time>2026-05-03T10:12:49.285Z</time></trkpt><trkpt lat="44.8677294" lon="8.4708545"><ele>114.5</ele><time>2026-05-03T10:12:50.285Z</time></trkpt><trkpt lat="44.8677655" lon="8.4707409"><ele>115.0</ele><time>2026-05-03T10:12:51.285Z</time></trkpt><trkpt lat="44.8678048" lon="8.4706266"><ele>115.49999999999999</ele><time>2026-05-03T10:12:52.286Z</time></trkpt><trkpt lat="44.8678427" lon="8.4705163"><ele>116.0</ele><time>2026-05-03T10:12:53.285Z</time></trkpt><trkpt lat="44.8678822" lon="8.4704058"><ele>116.0</ele><time>2026-05-03T10:12:54.286Z</time></trkpt><trkpt lat="44.8679249" lon="8.470294"><ele>116.0</ele><time>2026-05-03T10:12:55.285Z</time></trkpt><trkpt lat="44.8679701" lon="8.4701855"><ele>116.0</ele><time>2026-05-03T10:12:56.285Z</time></trkpt><trkpt lat="44.8680178" lon="8.4700767"><ele>116.0</ele><time>2026-05-03T10:12:57.285Z</time></trkpt><trkpt lat="44.8680695" lon="8.469969"><ele>116.0</ele><time>2026-05-03T10:12:58.285Z</time></trkpt><trkpt lat="44.8681235" lon="8.4698636"><ele>116.0</ele><time>2026-05-03T10:12:59.285Z</time></trkpt><trkpt lat="44.8681807" lon="8.4697596"><ele>116.0</ele><time>2026-05-03T10:13:00.285Z</time></trkpt><trkpt lat="44.8682383" lon="8.4696555"><ele>116.0</ele><time>2026-05-03T10:13:01.285Z</time></trkpt><trkpt lat="44.8682963" lon="8.4695514"><ele>116.0</ele><time>2026-05-03T10:13:02.286Z</time></trkpt><trkpt lat="44.868354" lon="8.4694501"><ele>116.0</ele><time>2026-05-03T10:13:03.285Z</time></trkpt><trkpt lat="44.8684129" lon="8.4693476"><ele>116.19999999999999</ele><time>2026-05-03T10:13:04.286Z</time></trkpt><trkpt lat="44.8684707" lon="8.4692459"><ele>116.39999999999999</ele><time>2026-05-03T10:13:05.286Z</time></trkpt><trkpt lat="44.8685287" lon="8.4691456"><ele>116.6</ele><time>2026-05-03T10:13:06.285Z</time></trkpt><trkpt lat="44.8685867" lon="8.4690415"><ele>116.8</ele><time>2026-05-03T10:13:07.285Z</time></trkpt><trkpt lat="44.8686439" lon="8.4689356"><ele>117.0</ele><time>2026-05-03T10:13:08.285Z</time></trkpt><trkpt lat="44.8687018" lon="8.4688286"><ele>117.0</ele><time>2026-05-03T10:13:09.286Z</time></trkpt><trkpt lat="44.8687607" lon="8.4687231"><ele>116.99999999999999</ele><time>2026-05-03T10:13:10.285Z</time></trkpt><trkpt lat="44.8688205" lon="8.4686165"><ele>116.99999999999999</ele><time>2026-05-03T10:13:11.285Z</time></trkpt><trkpt lat="44.8688805" lon="8.4685078"><ele>117.0</ele><time>2026-05-03T10:13:12.285Z</time></trkpt><trkpt lat="44.8689379" lon="8.4683977"><ele>117.0</ele><time>2026-05-03T10:13:13.286Z</time></trkpt><trkpt lat="44.8689941" lon="8.4682878"><ele>117.0</ele><time>2026-05-03T10:13:14.285Z</time></trkpt><trkpt lat="44.8690502" lon="8.4681792"><ele>116.99999999999999</ele><time>2026-05-03T10:13:15.286Z</time></trkpt><trkpt lat="44.8691031" lon="8.4680703"><ele>116.99999999999999</ele><time>2026-05-03T10:13:16.285Z</time></trkpt><trkpt lat="44.8691509" lon="8.4679567"><ele>117.0</ele><time>2026-05-03T10:13:17.285Z</time></trkpt><trkpt lat="44.8691914" lon="8.4678396"><ele>117.0</ele><time>2026-05-03T10:13:18.286Z</time></trkpt><trkpt lat="44.8692257" lon="8.4677142"><ele>117.0</ele><time>2026-05-03T10:13:19.285Z</time></trkpt><trkpt lat="44.8692562" lon="8.4675844"><ele>116.99999999999999</ele><time>2026-05-03T10:13:20.285Z</time></trkpt><trkpt lat="44.869288" lon="8.4674602"><ele>116.99999999999999</ele><time>2026-05-03T10:13:21.286Z</time></trkpt><trkpt lat="44.8693195" lon="8.4673343"><ele>117.0</ele><time>2026-05-03T10:13:22.285Z</time></trkpt><trkpt lat="44.8693493" lon="8.4672051"><ele>117.0</ele><time>2026-05-03T10:13:23.286Z</time></trkpt><trkpt lat="44.8693773" lon="8.4670731"><ele>117.0</ele><time>2026-05-03T10:13:24.285Z</time></trkpt><trkpt lat="44.8694059" lon="8.4669406"><ele>116.99999999999999</ele><time>2026-05-03T10:13:25.285Z</time></trkpt><trkpt lat="44.8694344" lon="8.4668079"><ele>116.99999999999999</ele><time>2026-05-03T10:13:26.285Z</time></trkpt><trkpt lat="44.8694634" lon="8.4666756"><ele>117.0</ele><time>2026-05-03T10:13:27.285Z</time></trkpt><trkpt lat="44.8694938" lon="8.4665434"><ele>117.0</ele><time>2026-05-03T10:13:28.285Z</time></trkpt><trkpt lat="44.8695243" lon="8.466411"><ele>117.0</ele><time>2026-05-03T10:13:29.285Z</time></trkpt><trkpt lat="44.8695517" lon="8.4662789"><ele>116.99999999999999</ele><time>2026-05-03T10:13:30.285Z</time></trkpt><trkpt lat="44.8695783" lon="8.4661489"><ele>116.99999999999999</ele><time>2026-05-03T10:13:31.285Z</time></trkpt><trkpt lat="44.8696054" lon="8.466019"><ele>117.0</ele><time>2026-05-03T10:13:32.286Z</time></trkpt><trkpt lat="44.8696322" lon="8.4658879"><ele>117.0</ele><time>2026-05-03T10:13:33.287Z</time></trkpt><trkpt lat="44.8696579" lon="8.4657562"><ele>117.0</ele><time>2026-05-03T10:13:34.286Z</time></trkpt><trkpt lat="44.8696816" lon="8.465623"><ele>116.99999999999999</ele><time>2026-05-03T10:13:35.286Z</time></trkpt><trkpt lat="44.8697029" lon="8.4654904"><ele>116.99999999999999</ele><time>2026-05-03T10:13:36.287Z</time></trkpt><trkpt lat="44.869722" lon="8.4653576"><ele>117.0</ele><time>2026-05-03T10:13:37.286Z</time></trkpt><trkpt lat="44.8697398" lon="8.4652234"><ele>117.0</ele><time>2026-05-03T10:13:38.286Z</time></trkpt><trkpt lat="44.8697562" lon="8.4650881"><ele>117.0</ele><time>2026-05-03T10:13:39.286Z</time></trkpt><trkpt lat="44.8697713" lon="8.4649528"><ele>116.99999999999999</ele><time>2026-05-03T10:13:40.286Z</time></trkpt><trkpt lat="44.8697854" lon="8.4648179"><ele>116.99999999999999</ele><time>2026-05-03T10:13:41.286Z</time></trkpt><trkpt lat="44.8697989" lon="8.4646836"><ele>117.0</ele><time>2026-05-03T10:13:42.287Z</time></trkpt><trkpt lat="44.8698127" lon="8.4645497"><ele>117.0</ele><time>2026-05-03T10:13:43.286Z</time></trkpt><trkpt lat="44.8698277" lon="8.4644169"><ele>117.0</ele><time>2026-05-03T10:13:44.286Z</time></trkpt><trkpt lat="44.8698449" lon="8.4642845"><ele>116.99999999999999</ele><time>2026-05-03T10:13:45.287Z</time></trkpt><trkpt lat="44.8698603" lon="8.4641501"><ele>116.99999999999999</ele><time>2026-05-03T10:13:46.287Z</time></trkpt><trkpt lat="44.8698727" lon="8.4640157"><ele>117.0</ele><time>2026-05-03T10:13:47.286Z</time></trkpt><trkpt lat="44.8698871" lon="8.4638785"><ele>117.0</ele><time>2026-05-03T10:13:48.287Z</time></trkpt><trkpt lat="44.8699002" lon="8.4637452"><ele>117.39999999999999</ele><time>2026-05-03T10:13:49.286Z</time></trkpt><trkpt lat="44.8699144" lon="8.4636131"><ele>117.79999999999998</ele><time>2026-05-03T10:13:50.286Z</time></trkpt><trkpt lat="44.8699282" lon="8.4634809"><ele>118.2</ele><time>2026-05-03T10:13:51.286Z</time></trkpt><trkpt lat="44.8699434" lon="8.4633491"><ele>118.6</ele><time>2026-05-03T10:13:52.286Z</time></trkpt><trkpt lat="44.86996" lon="8.4632166"><ele>119.0</ele><time>2026-05-03T10:13:53.286Z</time></trkpt><trkpt lat="44.8699789" lon="8.4630848"><ele>119.0</ele><time>2026-05-03T10:13:54.286Z</time></trkpt><trkpt lat="44.870001" lon="8.4629512"><ele>119.0</ele><time>2026-05-03T10:13:55.286Z</time></trkpt><trkpt lat="44.8700265" lon="8.4628164"><ele>119.0</ele><time>2026-05-03T10:13:56.286Z</time></trkpt><trkpt lat="44.8700545" lon="8.4626833"><ele>119.0</ele><time>2026-05-03T10:13:57.286Z</time></trkpt><trkpt lat="44.8700884" lon="8.4625537"><ele>119.0</ele><time>2026-05-03T10:13:58.286Z</time></trkpt><trkpt lat="44.870128" lon="8.4624312"><ele>118.80000000000001</ele><time>2026-05-03T10:13:59.287Z</time></trkpt><trkpt lat="44.8701737" lon="8.4623092"><ele>118.60000000000001</ele><time>2026-05-03T10:14:00.286Z</time></trkpt><trkpt lat="44.8702216" lon="8.4621912"><ele>118.4</ele><time>2026-05-03T10:14:01.287Z</time></trkpt><trkpt lat="44.8702701" lon="8.4620756"><ele>118.2</ele><time>2026-05-03T10:14:02.286Z</time></trkpt><trkpt lat="44.8703185" lon="8.4619559"><ele>118.0</ele><time>2026-05-03T10:14:03.286Z</time></trkpt><trkpt lat="44.8703669" lon="8.4618341"><ele>117.80000000000001</ele><time>2026-05-03T10:14:04.286Z</time></trkpt><trkpt lat="44.8704155" lon="8.4617134"><ele>117.60000000000001</ele><time>2026-05-03T10:14:05.287Z</time></trkpt><trkpt lat="44.8704625" lon="8.4615976"><ele>117.39999999999999</ele><time>2026-05-03T10:14:06.287Z</time></trkpt><trkpt lat="44.8705102" lon="8.4614817"><ele>117.19999999999999</ele><time>2026-05-03T10:14:07.287Z</time></trkpt><trkpt lat="44.8705591" lon="8.461361"><ele>117.0</ele><time>2026-05-03T10:14:08.287Z</time></trkpt><trkpt lat="44.8706089" lon="8.4612358"><ele>116.8</ele><time>2026-05-03T10:14:09.287Z</time></trkpt><trkpt lat="44.8706608" lon="8.4611101"><ele>116.6</ele><time>2026-05-03T10:14:10.286Z</time></trkpt><trkpt lat="44.8707119" lon="8.460986"><ele>116.39999999999999</ele><time>2026-05-03T10:14:11.286Z</time></trkpt><trkpt lat="44.8707611" lon="8.4608609"><ele>116.19999999999999</ele><time>2026-05-03T10:14:12.286Z</time></trkpt><trkpt lat="44.8708077" lon="8.4607401"><ele>116.0</ele><time>2026-05-03T10:14:13.286Z</time></trkpt><trkpt lat="44.8708524" lon="8.460626"><ele>116.0</ele><time>2026-05-03T10:14:14.286Z</time></trkpt><trkpt lat="44.8708985" lon="8.4605099"><ele>116.0</ele><time>2026-05-03T10:14:15.286Z</time></trkpt><trkpt lat="44.8709459" lon="8.4603925"><ele>116.0</ele><time>2026-05-03T10:14:16.286Z</time></trkpt><trkpt lat="44.8709943" lon="8.4602718"><ele>116.0</ele><time>2026-05-03T10:14:17.287Z</time></trkpt><trkpt lat="44.8710437" lon="8.4601481"><ele>116.0</ele><time>2026-05-03T10:14:18.286Z</time></trkpt><trkpt lat="44.8710929" lon="8.4600235"><ele>115.0</ele><time>2026-05-03T10:14:19.286Z</time></trkpt><trkpt lat="44.8711408" lon="8.4599013"><ele>114.0</ele><time>2026-05-03T10:14:20.288Z</time></trkpt><trkpt lat="44.8711881" lon="8.459779"><ele>113.0</ele><time>2026-05-03T10:14:21.287Z</time></trkpt><trkpt lat="44.8712355" lon="8.4596564"><ele>112.0</ele><time>2026-05-03T10:14:22.287Z</time></trkpt><trkpt lat="44.8712844" lon="8.4595347"><ele>111.0</ele><time>2026-05-03T10:14:23.287Z</time></trkpt><trkpt lat="44.8713335" lon="8.4594138"><ele>110.8</ele><time>2026-05-03T10:14:24.287Z</time></trkpt><trkpt lat="44.8713814" lon="8.4592928"><ele>110.6</ele><time>2026-05-03T10:14:25.287Z</time></trkpt><trkpt lat="44.8714276" lon="8.459171"><ele>110.4</ele><time>2026-05-03T10:14:26.288Z</time></trkpt><trkpt lat="44.8714742" lon="8.4590481"><ele>110.2</ele><time>2026-05-03T10:14:27.287Z</time></trkpt><trkpt lat="44.8715227" lon="8.4589293"><ele>110.0</ele><time>2026-05-03T10:14:28.287Z</time></trkpt><trkpt lat="44.8715701" lon="8.45881"><ele>110.2</ele><time>2026-05-03T10:14:29.288Z</time></trkpt><trkpt lat="44.8716165" lon="8.458691"><ele>110.4</ele><time>2026-05-03T10:14:30.287Z</time></trkpt><trkpt lat="44.8716614" lon="8.4585738"><ele>110.6</ele><time>2026-05-03T10:14:31.287Z</time></trkpt><trkpt lat="44.8717044" lon="8.4584573"><ele>110.8</ele><time>2026-05-03T10:14:32.287Z</time></trkpt><trkpt lat="44.8717486" lon="8.4583448"><ele>111.0</ele><time>2026-05-03T10:14:33.287Z</time></trkpt><trkpt lat="44.8717954" lon="8.4582304"><ele>110.0</ele><time>2026-05-03T10:14:34.287Z</time></trkpt><trkpt lat="44.8718436" lon="8.4581122"><ele>109.0</ele><time>2026-05-03T10:14:35.287Z</time></trkpt><trkpt lat="44.8718931" lon="8.4579908"><ele>108.0</ele><time>2026-05-03T10:14:36.287Z</time></trkpt><trkpt lat="44.8719443" lon="8.4578656"><ele>107.0</ele><time>2026-05-03T10:14:37.287Z</time></trkpt><trkpt lat="44.8719983" lon="8.4577382"><ele>106.0</ele><time>2026-05-03T10:14:38.288Z</time></trkpt><trkpt lat="44.872053" lon="8.4576153"><ele>106.0</ele><time>2026-05-03T10:14:39.288Z</time></trkpt><trkpt lat="44.8721078" lon="8.4574986"><ele>106.0</ele><time>2026-05-03T10:14:40.288Z</time></trkpt><trkpt lat="44.8721603" lon="8.4573862"><ele>106.0</ele><time>2026-05-03T10:14:41.287Z</time></trkpt><trkpt lat="44.8722172" lon="8.4572659"><ele>106.0</ele><time>2026-05-03T10:14:42.288Z</time></trkpt><trkpt lat="44.8722762" lon="8.4571437"><ele>106.0</ele><time>2026-05-03T10:14:43.288Z</time></trkpt><trkpt lat="44.8723348" lon="8.45702"><ele>106.0</ele><time>2026-05-03T10:14:44.287Z</time></trkpt><trkpt lat="44.8723938" lon="8.4569008"><ele>106.0</ele><time>2026-05-03T10:14:45.287Z</time></trkpt><trkpt lat="44.8724505" lon="8.4567903"><ele>106.0</ele><time>2026-05-03T10:14:46.288Z</time></trkpt><trkpt lat="44.8725109" lon="8.4566831"><ele>106.0</ele><time>2026-05-03T10:14:47.288Z</time></trkpt><trkpt lat="44.8725769" lon="8.456575"><ele>106.0</ele><time>2026-05-03T10:14:48.287Z</time></trkpt><trkpt lat="44.8726487" lon="8.4564692"><ele>105.6</ele><time>2026-05-03T10:14:49.288Z</time></trkpt><trkpt lat="44.8727202" lon="8.4563649"><ele>105.19999999999999</ele><time>2026-05-03T10:14:50.287Z</time></trkpt><trkpt lat="44.8727879" lon="8.4562613"><ele>104.80000000000001</ele><time>2026-05-03T10:14:51.288Z</time></trkpt><trkpt lat="44.8728573" lon="8.4561552"><ele>104.4</ele><time>2026-05-03T10:14:52.287Z</time></trkpt><trkpt lat="44.8729268" lon="8.4560491"><ele>104.0</ele><time>2026-05-03T10:14:53.287Z</time></trkpt><trkpt lat="44.8729957" lon="8.4559456"><ele>104.0</ele><time>2026-05-03T10:14:54.288Z</time></trkpt><trkpt lat="44.8730635" lon="8.4558388"><ele>104.0</ele><time>2026-05-03T10:14:55.288Z</time></trkpt><trkpt lat="44.873128" lon="8.4557271"><ele>104.0</ele><time>2026-05-03T10:14:56.288Z</time></trkpt><trkpt lat="44.8731842" lon="8.4556107"><ele>104.0</ele><time>2026-05-03T10:14:57.287Z</time></trkpt><trkpt lat="44.8732333" lon="8.4554879"><ele>104.0</ele><time>2026-05-03T10:14:58.287Z</time></trkpt><trkpt lat="44.8732763" lon="8.4553647"><ele>103.80000000000001</ele><time>2026-05-03T10:14:59.287Z</time></trkpt><trkpt lat="44.8733148" lon="8.4552382"><ele>103.60000000000001</ele><time>2026-05-03T10:15:00.287Z</time></trkpt><trkpt lat="44.8733494" lon="8.4551104"><ele>103.4</ele><time>2026-05-03T10:15:01.288Z</time></trkpt><trkpt lat="44.8733777" lon="8.454979"><ele>103.2</ele><time>2026-05-03T10:15:02.287Z</time></trkpt><trkpt lat="44.8734006" lon="8.4548462"><ele>103.0</ele><time>2026-05-03T10:15:03.288Z</time></trkpt><trkpt lat="44.8734186" lon="8.4547168"><ele>103.2</ele><time>2026-05-03T10:15:04.287Z</time></trkpt><trkpt lat="44.8734323" lon="8.4545872"><ele>103.4</ele><time>2026-05-03T10:15:05.287Z</time></trkpt><trkpt lat="44.8734414" lon="8.4544533"><ele>103.60000000000001</ele><time>2026-05-03T10:15:06.287Z</time></trkpt><trkpt lat="44.8734475" lon="8.4543137"><ele>103.80000000000001</ele><time>2026-05-03T10:15:07.287Z</time></trkpt><trkpt lat="44.8734522" lon="8.4541722"><ele>104.0</ele><time>2026-05-03T10:15:08.288Z</time></trkpt><trkpt lat="44.873457" lon="8.4540311"><ele>104.0</ele><time>2026-05-03T10:15:09.288Z</time></trkpt><trkpt lat="44.8734618" lon="8.4538895"><ele>104.0</ele><time>2026-05-03T10:15:10.288Z</time></trkpt><trkpt lat="44.8734682" lon="8.4537383"><ele>104.0</ele><time>2026-05-03T10:15:11.289Z</time></trkpt><trkpt lat="44.8734752" lon="8.4535833"><ele>104.0</ele><time>2026-05-03T10:15:12.288Z</time></trkpt><trkpt lat="44.873482" lon="8.4534281"><ele>104.0</ele><time>2026-05-03T10:15:13.289Z</time></trkpt><trkpt lat="44.8734868" lon="8.4532792"><ele>103.80000000000001</ele><time>2026-05-03T10:15:14.289Z</time></trkpt><trkpt lat="44.8734885" lon="8.4531433"><ele>103.60000000000001</ele><time>2026-05-03T10:15:15.288Z</time></trkpt><trkpt lat="44.8734874" lon="8.4530126"><ele>103.4</ele><time>2026-05-03T10:15:16.288Z</time></trkpt><trkpt lat="44.8734904" lon="8.4528744"><ele>103.2</ele><time>2026-05-03T10:15:17.288Z</time></trkpt><trkpt lat="44.8734956" lon="8.4527296"><ele>103.0</ele><time>2026-05-03T10:15:18.288Z</time></trkpt><trkpt lat="44.8734994" lon="8.4525768"><ele>102.60000000000001</ele><time>2026-05-03T10:15:19.289Z</time></trkpt><trkpt lat="44.8735043" lon="8.4524258"><ele>102.2</ele><time>2026-05-03T10:15:20.289Z</time></trkpt><trkpt lat="44.8735109" lon="8.4522799"><ele>101.8</ele><time>2026-05-03T10:15:21.289Z</time></trkpt><trkpt lat="44.8735179" lon="8.4521418"><ele>101.4</ele><time>2026-05-03T10:15:22.289Z</time></trkpt><trkpt lat="44.8735238" lon="8.4520036"><ele>101.0</ele><time>2026-05-03T10:15:23.288Z</time></trkpt><trkpt lat="44.8735302" lon="8.4518626"><ele>101.0</ele><time>2026-05-03T10:15:24.289Z</time></trkpt><trkpt lat="44.8735349" lon="8.4517198"><ele>101.0</ele><time>2026-05-03T10:15:25.289Z</time></trkpt><trkpt lat="44.8735402" lon="8.4515808"><ele>101.0</ele><time>2026-05-03T10:15:26.289Z</time></trkpt><trkpt lat="44.8735472" lon="8.4514392"><ele>101.0</ele><time>2026-05-03T10:15:27.288Z</time></trkpt><trkpt lat="44.8735539" lon="8.4512964"><ele>101.0</ele><time>2026-05-03T10:15:28.288Z</time></trkpt><trkpt lat="44.8735611" lon="8.4511475"><ele>101.6</ele><time>2026-05-03T10:15:29.288Z</time></trkpt><trkpt lat="44.8735678" lon="8.4510027"><ele>102.19999999999999</ele><time>2026-05-03T10:15:30.288Z</time></trkpt><trkpt lat="44.8735741" lon="8.4508574"><ele>102.80000000000001</ele><time>2026-05-03T10:15:31.288Z</time></trkpt><trkpt lat="44.8735821" lon="8.4507114"><ele>103.4</ele><time>2026-05-03T10:15:32.288Z</time></trkpt><trkpt lat="44.8735881" lon="8.450568"><ele>104.0</ele><time>2026-05-03T10:15:33.288Z</time></trkpt><trkpt lat="44.8735938" lon="8.4504227"><ele>104.0</ele><time>2026-05-03T10:15:34.288Z</time></trkpt><trkpt lat="44.8736019" lon="8.4502774"><ele>104.0</ele><time>2026-05-03T10:15:35.288Z</time></trkpt><trkpt lat="44.8736076" lon="8.450134"><ele>104.0</ele><time>2026-05-03T10:15:36.288Z</time></trkpt><trkpt lat="44.8736111" lon="8.4499899"><ele>104.0</ele><time>2026-05-03T10:15:37.288Z</time></trkpt><trkpt lat="44.8736131" lon="8.4498436"><ele>104.0</ele><time>2026-05-03T10:15:38.289Z</time></trkpt><trkpt lat="44.8736172" lon="8.4497011"><ele>103.80000000000001</ele><time>2026-05-03T10:15:39.288Z</time></trkpt><trkpt lat="44.8736186" lon="8.4495594"><ele>103.60000000000001</ele><time>2026-05-03T10:15:40.288Z</time></trkpt><trkpt lat="44.8736185" lon="8.449417"><ele>103.4</ele><time>2026-05-03T10:15:41.288Z</time></trkpt><trkpt lat="44.8736166" lon="8.4492713"><ele>103.2</ele><time>2026-05-03T10:15:42.289Z</time></trkpt><trkpt lat="44.8736118" lon="8.4491239"><ele>103.0</ele><time>2026-05-03T10:15:43.288Z</time></trkpt><trkpt lat="44.8736024" lon="8.4489746"><ele>103.0</ele><time>2026-05-03T10:15:44.288Z</time></trkpt><trkpt lat="44.8735898" lon="8.4488271"><ele>103.0</ele><time>2026-05-03T10:15:45.288Z</time></trkpt><trkpt lat="44.8735748" lon="8.4486801"><ele>103.0</ele><time>2026-05-03T10:15:46.289Z</time></trkpt><trkpt lat="44.8735541" lon="8.448536"><ele>103.0</ele><time>2026-05-03T10:15:47.289Z</time></trkpt><trkpt lat="44.87353" lon="8.4483955"><ele>103.0</ele><time>2026-05-03T10:15:48.288Z</time></trkpt><trkpt lat="44.8735037" lon="8.448257"><ele>102.80000000000001</ele><time>2026-05-03T10:15:49.288Z</time></trkpt><trkpt lat="44.8734782" lon="8.448117"><ele>102.6</ele><time>2026-05-03T10:15:50.288Z</time></trkpt><trkpt lat="44.8734504" lon="8.4479787"><ele>102.4</ele><time>2026-05-03T10:15:51.288Z</time></trkpt><trkpt lat="44.8734174" lon="8.4478436"><ele>102.19999999999999</ele><time>2026-05-03T10:15:52.288Z</time></trkpt><trkpt lat="44.8733829" lon="8.4477107"><ele>102.0</ele><time>2026-05-03T10:15:53.289Z</time></trkpt><trkpt lat="44.8733495" lon="8.4475783"><ele>102.0</ele><time>2026-05-03T10:15:54.288Z</time></trkpt><trkpt lat="44.8733155" lon="8.4474489"><ele>102.0</ele><time>2026-05-03T10:15:55.288Z</time></trkpt><trkpt lat="44.8732802" lon="8.4473231"><ele>102.0</ele><time>2026-05-03T10:15:56.289Z</time></trkpt><trkpt lat="44.8732461" lon="8.4472008"><ele>102.0</ele><time>2026-05-03T10:15:57.289Z</time></trkpt><trkpt lat="44.8732135" lon="8.447082"><ele>102.0</ele><time>2026-05-03T10:15:58.289Z</time></trkpt><trkpt lat="44.8731822" lon="8.4469654"><ele>102.0</ele><time>2026-05-03T10:15:59.289Z</time></trkpt><trkpt lat="44.8731509" lon="8.4468516"><ele>102.0</ele><time>2026-05-03T10:16:00.29Z</time></trkpt><trkpt lat="44.8731213" lon="8.446739"><ele>102.0</ele><time>2026-05-03T10:16:01.289Z</time></trkpt><trkpt lat="44.8730938" lon="8.446631"><ele>102.0</ele><time>2026-05-03T10:16:02.289Z</time></trkpt><trkpt lat="44.8730704" lon="8.4465317"><ele>102.0</ele><time>2026-05-03T10:16:03.289Z</time></trkpt><trkpt lat="44.8730506" lon="8.4464423"><ele>102.0</ele><time>2026-05-03T10:16:04.289Z</time></trkpt><trkpt lat="44.8730375" lon="8.4463536"><ele>101.8</ele><time>2026-05-03T10:16:05.289Z</time></trkpt><trkpt lat="44.8730712" lon="8.4461777"><ele>101.6</ele><time>2026-05-03T10:16:07.29Z</time></trkpt><trkpt lat="44.8731317" lon="8.4460999"><ele>101.39999999999999</ele><time>2026-05-03T10:16:08.289Z</time></trkpt><trkpt lat="44.8732112" lon="8.4460439"><ele>101.19999999999999</ele><time>2026-05-03T10:16:09.289Z</time></trkpt><trkpt lat="44.8732984" lon="8.4460189"><ele>101.0</ele><time>2026-05-03T10:16:10.289Z</time></trkpt><trkpt lat="44.8733875" lon="8.4460094"><ele>101.0</ele><time>2026-05-03T10:16:11.289Z</time></trkpt><trkpt lat="44.873477" lon="8.4459923"><ele>101.0</ele><time>2026-05-03T10:16:12.289Z</time></trkpt><trkpt lat="44.8735654" lon="8.4459629"><ele>101.0</ele><time>2026-05-03T10:16:13.289Z</time></trkpt><trkpt lat="44.8736552" lon="8.4459281"><ele>101.0</ele><time>2026-05-03T10:16:14.29Z</time></trkpt><trkpt lat="44.8737478" lon="8.4458937"><ele>101.0</ele><time>2026-05-03T10:16:15.289Z</time></trkpt><trkpt lat="44.8738427" lon="8.4458588"><ele>101.0</ele><time>2026-05-03T10:16:16.29Z</time></trkpt><trkpt lat="44.8739375" lon="8.4458231"><ele>101.0</ele><time>2026-05-03T10:16:17.289Z</time></trkpt><trkpt lat="44.8740343" lon="8.4457858"><ele>101.0</ele><time>2026-05-03T10:16:18.289Z</time></trkpt><trkpt lat="44.8741318" lon="8.4457475"><ele>101.0</ele><time>2026-05-03T10:16:19.289Z</time></trkpt><trkpt lat="44.8742317" lon="8.4457082"><ele>101.0</ele><time>2026-05-03T10:16:20.289Z</time></trkpt><trkpt lat="44.8743316" lon="8.4456697"><ele>101.0</ele><time>2026-05-03T10:16:21.29Z</time></trkpt><trkpt lat="44.8744316" lon="8.445632"><ele>101.0</ele><time>2026-05-03T10:16:22.29Z</time></trkpt><trkpt lat="44.8745325" lon="8.4455935"><ele>101.0</ele><time>2026-05-03T10:16:23.289Z</time></trkpt><trkpt lat="44.8746316" lon="8.4455543"><ele>101.0</ele><time>2026-05-03T10:16:24.289Z</time></trkpt><trkpt lat="44.8747311" lon="8.4455151"><ele>101.0</ele><time>2026-05-03T10:16:25.289Z</time></trkpt><trkpt lat="44.8748296" lon="8.4454773"><ele>101.0</ele><time>2026-05-03T10:16:26.289Z</time></trkpt><trkpt lat="44.874928" lon="8.4454365"><ele>101.0</ele><time>2026-05-03T10:16:27.29Z</time></trkpt><trkpt lat="44.8750272" lon="8.4453953"><ele>101.0</ele><time>2026-05-03T10:16:28.289Z</time></trkpt><trkpt lat="44.8751277" lon="8.4453619"><ele>101.0</ele><time>2026-05-03T10:16:29.289Z</time></trkpt><trkpt lat="44.8752286" lon="8.4453289"><ele>101.0</ele><time>2026-05-03T10:16:30.289Z</time></trkpt><trkpt lat="44.8753267" lon="8.4452914"><ele>100.8</ele><time>2026-05-03T10:16:31.289Z</time></trkpt><trkpt lat="44.8754229" lon="8.4452539"><ele>100.6</ele><time>2026-05-03T10:16:32.289Z</time></trkpt><trkpt lat="44.8755218" lon="8.4452157"><ele>100.4</ele><time>2026-05-03T10:16:33.29Z</time></trkpt><trkpt lat="44.8756232" lon="8.4451778"><ele>100.2</ele><time>2026-05-03T10:16:34.289Z</time></trkpt><trkpt lat="44.8757268" lon="8.4451382"><ele>100.0</ele><time>2026-05-03T10:16:35.29Z</time></trkpt><trkpt lat="44.8758287" lon="8.4450991"><ele>100.0</ele><time>2026-05-03T10:16:36.289Z</time></trkpt><trkpt lat="44.8759286" lon="8.4450613"><ele>100.0</ele><time>2026-05-03T10:16:37.289Z</time></trkpt><trkpt lat="44.876028" lon="8.4450233"><ele>100.0</ele><time>2026-05-03T10:16:38.289Z</time></trkpt><trkpt lat="44.8761288" lon="8.444984"><ele>100.0</ele><time>2026-05-03T10:16:39.289Z</time></trkpt><trkpt lat="44.87623" lon="8.4449427"><ele>100.0</ele><time>2026-05-03T10:16:40.289Z</time></trkpt><trkpt lat="44.8763304" lon="8.4449021"><ele>100.0</ele><time>2026-05-03T10:16:41.289Z</time></trkpt><trkpt lat="44.8764297" lon="8.4448651"><ele>100.0</ele><time>2026-05-03T10:16:42.29Z</time></trkpt><trkpt lat="44.8765281" lon="8.44483"><ele>100.0</ele><time>2026-05-03T10:16:43.289Z</time></trkpt><trkpt lat="44.8766255" lon="8.444791"><ele>100.0</ele><time>2026-05-03T10:16:44.29Z</time></trkpt><trkpt lat="44.8767225" lon="8.4447499"><ele>100.0</ele><time>2026-05-03T10:16:45.29Z</time></trkpt><trkpt lat="44.876819" lon="8.44471"><ele>100.2</ele><time>2026-05-03T10:16:46.29Z</time></trkpt><trkpt lat="44.8769163" lon="8.4446712"><ele>100.4</ele><time>2026-05-03T10:16:47.291Z</time></trkpt><trkpt lat="44.8770149" lon="8.444633"><ele>100.6</ele><time>2026-05-03T10:16:48.29Z</time></trkpt><trkpt lat="44.8771146" lon="8.444595"><ele>100.8</ele><time>2026-05-03T10:16:49.291Z</time></trkpt><trkpt lat="44.8772144" lon="8.4445583"><ele>101.0</ele><time>2026-05-03T10:16:50.291Z</time></trkpt><trkpt lat="44.8773142" lon="8.4445207"><ele>101.19999999999999</ele><time>2026-05-03T10:16:51.29Z</time></trkpt><trkpt lat="44.8774123" lon="8.4444821"><ele>101.39999999999999</ele><time>2026-05-03T10:16:52.29Z</time></trkpt><trkpt lat="44.8775078" lon="8.4444453"><ele>101.6</ele><time>2026-05-03T10:16:53.291Z</time></trkpt><trkpt lat="44.8776035" lon="8.4444101"><ele>101.8</ele><time>2026-05-03T10:16:54.291Z</time></trkpt><trkpt lat="44.8777001" lon="8.4443747"><ele>102.0</ele><time>2026-05-03T10:16:55.29Z</time></trkpt><trkpt lat="44.877796" lon="8.4443384"><ele>101.39999999999999</ele><time>2026-05-03T10:16:56.29Z</time></trkpt><trkpt lat="44.8778908" lon="8.4443032"><ele>100.8</ele><time>2026-05-03T10:16:57.29Z</time></trkpt><trkpt lat="44.8779868" lon="8.4442658"><ele>100.2</ele><time>2026-05-03T10:16:58.29Z</time></trkpt><trkpt lat="44.8780842" lon="8.4442278"><ele>99.6</ele><time>2026-05-03T10:16:59.291Z</time></trkpt><trkpt lat="44.8781836" lon="8.4441901"><ele>99.0</ele><time>2026-05-03T10:17:00.29Z</time></trkpt><trkpt lat="44.8782847" lon="8.4441516"><ele>99.0</ele><time>2026-05-03T10:17:01.29Z</time></trkpt><trkpt lat="44.8783863" lon="8.444112"><ele>99.0</ele><time>2026-05-03T10:17:02.29Z</time></trkpt><trkpt lat="44.8784862" lon="8.4440742"><ele>99.0</ele><time>2026-05-03T10:17:03.291Z</time></trkpt><trkpt lat="44.8785867" lon="8.4440375"><ele>99.0</ele><time>2026-05-03T10:17:04.29Z</time></trkpt><trkpt lat="44.8786866" lon="8.4440001"><ele>99.0</ele><time>2026-05-03T10:17:05.29Z</time></trkpt><trkpt lat="44.8787877" lon="8.4439637"><ele>99.2</ele><time>2026-05-03T10:17:06.29Z</time></trkpt><trkpt lat="44.8788869" lon="8.4439283"><ele>99.4</ele><time>2026-05-03T10:17:07.291Z</time></trkpt><trkpt lat="44.8789865" lon="8.4438918"><ele>99.6</ele><time>2026-05-03T10:17:08.29Z</time></trkpt><trkpt lat="44.8790863" lon="8.4438539"><ele>99.8</ele><time>2026-05-03T10:17:09.29Z</time></trkpt><trkpt lat="44.8791856" lon="8.4438147"><ele>100.0</ele><time>2026-05-03T10:17:10.291Z</time></trkpt><trkpt lat="44.8792844" lon="8.4437747"><ele>100.0</ele><time>2026-05-03T10:17:11.29Z</time></trkpt><trkpt lat="44.8793833" lon="8.4437343"><ele>100.0</ele><time>2026-05-03T10:17:12.291Z</time></trkpt><trkpt lat="44.8794835" lon="8.4436932"><ele>100.0</ele><time>2026-05-03T10:17:13.291Z</time></trkpt><trkpt lat="44.8795845" lon="8.4436538"><ele>100.0</ele><time>2026-05-03T10:17:14.29Z</time></trkpt><trkpt lat="44.8796853" lon="8.4436167"><ele>100.0</ele><time>2026-05-03T10:17:15.29Z</time></trkpt><trkpt lat="44.8797863" lon="8.4435791"><ele>100.0</ele><time>2026-05-03T10:17:16.29Z</time></trkpt><trkpt lat="44.8798855" lon="8.4435398"><ele>100.0</ele><time>2026-05-03T10:17:17.291Z</time></trkpt><trkpt lat="44.8799835" lon="8.4435008"><ele>100.0</ele><time>2026-05-03T10:17:18.29Z</time></trkpt><trkpt lat="44.8800763" lon="8.4434617"><ele>100.0</ele><time>2026-05-03T10:17:19.291Z</time></trkpt><trkpt lat="44.8801702" lon="8.4434231"><ele>100.0</ele><time>2026-05-03T10:17:20.29Z</time></trkpt><trkpt lat="44.8802659" lon="8.4433856"><ele>100.0</ele><time>2026-05-03T10:17:21.29Z</time></trkpt><trkpt lat="44.8803686" lon="8.4433512"><ele>100.0</ele><time>2026-05-03T10:17:22.291Z</time></trkpt><trkpt lat="44.8804709" lon="8.443319"><ele>100.0</ele><time>2026-05-03T10:17:23.29Z</time></trkpt><trkpt lat="44.8805589" lon="8.4432814"><ele>100.0</ele><time>2026-05-03T10:17:24.29Z</time></trkpt><trkpt lat="44.8806488" lon="8.4432415"><ele>100.0</ele><time>2026-05-03T10:17:25.291Z</time></trkpt><trkpt lat="44.8807433" lon="8.4432005"><ele>100.0</ele><time>2026-05-03T10:17:26.29Z</time></trkpt><trkpt lat="44.8808475" lon="8.4431605"><ele>100.0</ele><time>2026-05-03T10:17:27.29Z</time></trkpt><trkpt lat="44.8809537" lon="8.443119"><ele>100.0</ele><time>2026-05-03T10:17:28.29Z</time></trkpt><trkpt lat="44.8810586" lon="8.443079"><ele>100.0</ele><time>2026-05-03T10:17:29.29Z</time></trkpt><trkpt lat="44.8811602" lon="8.4430408"><ele>100.0</ele><time>2026-05-03T10:17:30.291Z</time></trkpt><trkpt lat="44.881259" lon="8.4430031"><ele>100.0</ele><time>2026-05-03T10:17:31.291Z</time></trkpt><trkpt lat="44.8813555" lon="8.4429643"><ele>100.0</ele><time>2026-05-03T10:17:32.292Z</time></trkpt><trkpt lat="44.8814508" lon="8.4429276"><ele>100.0</ele><time>2026-05-03T10:17:33.292Z</time></trkpt><trkpt lat="44.8815463" lon="8.4428925"><ele>100.0</ele><time>2026-05-03T10:17:34.292Z</time></trkpt><trkpt lat="44.8816425" lon="8.4428583"><ele>100.0</ele><time>2026-05-03T10:17:35.292Z</time></trkpt><trkpt lat="44.881738" lon="8.4428238"><ele>99.6</ele><time>2026-05-03T10:17:36.292Z</time></trkpt><trkpt lat="44.8818319" lon="8.4427889"><ele>99.2</ele><time>2026-05-03T10:17:37.291Z</time></trkpt><trkpt lat="44.8819239" lon="8.4427546"><ele>98.80000000000001</ele><time>2026-05-03T10:17:38.291Z</time></trkpt><trkpt lat="44.8820168" lon="8.4427187"><ele>98.4</ele><time>2026-05-03T10:17:39.291Z</time></trkpt><trkpt lat="44.8821122" lon="8.442681"><ele>98.0</ele><time>2026-05-03T10:17:40.291Z</time></trkpt><trkpt lat="44.8822109" lon="8.4426431"><ele>98.0</ele><time>2026-05-03T10:17:41.291Z</time></trkpt><trkpt lat="44.8823084" lon="8.4426054"><ele>98.0</ele><time>2026-05-03T10:17:42.292Z</time></trkpt><trkpt lat="44.882405" lon="8.4425684"><ele>98.0</ele><time>2026-05-03T10:17:43.291Z</time></trkpt><trkpt lat="44.8825012" lon="8.4425317"><ele>98.0</ele><time>2026-05-03T10:17:44.291Z</time></trkpt><trkpt lat="44.8825969" lon="8.442495"><ele>98.0</ele><time>2026-05-03T10:17:45.291Z</time></trkpt><trkpt lat="44.8826929" lon="8.4424573"><ele>97.60000000000001</ele><time>2026-05-03T10:17:46.291Z</time></trkpt><trkpt lat="44.8827891" lon="8.44242"><ele>97.2</ele><time>2026-05-03T10:17:47.292Z</time></trkpt><trkpt lat="44.882886" lon="8.4423834"><ele>96.8</ele><time>2026-05-03T10:17:48.291Z</time></trkpt><trkpt lat="44.8829825" lon="8.4423463"><ele>96.4</ele><time>2026-05-03T10:17:49.291Z</time></trkpt><trkpt lat="44.8830798" lon="8.4423078"><ele>96.0</ele><time>2026-05-03T10:17:50.291Z</time></trkpt><trkpt lat="44.8831791" lon="8.4422684"><ele>96.0</ele><time>2026-05-03T10:17:51.292Z</time></trkpt><trkpt lat="44.8832784" lon="8.4422278"><ele>96.0</ele><time>2026-05-03T10:17:52.291Z</time></trkpt><trkpt lat="44.8833761" lon="8.4421876"><ele>96.0</ele><time>2026-05-03T10:17:53.292Z</time></trkpt><trkpt lat="44.8834728" lon="8.4421491"><ele>96.0</ele><time>2026-05-03T10:17:54.291Z</time></trkpt><trkpt lat="44.8835696" lon="8.4421149"><ele>96.0</ele><time>2026-05-03T10:17:55.292Z</time></trkpt><trkpt lat="44.8836688" lon="8.4420813"><ele>96.0</ele><time>2026-05-03T10:17:56.291Z</time></trkpt><trkpt lat="44.8837673" lon="8.4420463"><ele>96.0</ele><time>2026-05-03T10:17:57.291Z</time></trkpt><trkpt lat="44.8838644" lon="8.4420091"><ele>96.0</ele><time>2026-05-03T10:17:58.292Z</time></trkpt><trkpt lat="44.8839621" lon="8.4419699"><ele>96.0</ele><time>2026-05-03T10:17:59.291Z</time></trkpt><trkpt lat="44.884061" lon="8.4419303"><ele>96.0</ele><time>2026-05-03T10:18:00.291Z</time></trkpt><trkpt lat="44.8841615" lon="8.441892"><ele>96.0</ele><time>2026-05-03T10:18:01.292Z</time></trkpt><trkpt lat="44.8842625" lon="8.4418536"><ele>96.0</ele><time>2026-05-03T10:18:02.291Z</time></trkpt><trkpt lat="44.8843605" lon="8.4418164"><ele>96.0</ele><time>2026-05-03T10:18:03.291Z</time></trkpt><trkpt lat="44.8844589" lon="8.4417781"><ele>96.0</ele><time>2026-05-03T10:18:04.291Z</time></trkpt><trkpt lat="44.8845586" lon="8.4417396"><ele>96.0</ele><time>2026-05-03T10:18:05.291Z</time></trkpt><trkpt lat="44.8846572" lon="8.441702"><ele>96.4</ele><time>2026-05-03T10:18:06.291Z</time></trkpt><trkpt lat="44.8847555" lon="8.441664"><ele>96.8</ele><time>2026-05-03T10:18:07.292Z</time></trkpt><trkpt lat="44.8848533" lon="8.4416285"><ele>97.2</ele><time>2026-05-03T10:18:08.291Z</time></trkpt><trkpt lat="44.8849523" lon="8.4415941"><ele>97.60000000000001</ele><time>2026-05-03T10:18:09.291Z</time></trkpt><trkpt lat="44.8850533" lon="8.4415572"><ele>98.0</ele><time>2026-05-03T10:18:10.292Z</time></trkpt><trkpt lat="44.8851556" lon="8.4415176"><ele>98.0</ele><time>2026-05-03T10:18:11.292Z</time></trkpt><trkpt lat="44.8852575" lon="8.4414763"><ele>98.0</ele><time>2026-05-03T10:18:12.291Z</time></trkpt><trkpt lat="44.8853589" lon="8.4414353"><ele>98.0</ele><time>2026-05-03T10:18:13.291Z</time></trkpt><trkpt lat="44.8854601" lon="8.4413944"><ele>98.0</ele><time>2026-05-03T10:18:14.291Z</time></trkpt><trkpt lat="44.8855611" lon="8.4413542"><ele>98.0</ele><time>2026-05-03T10:18:15.292Z</time></trkpt><trkpt lat="44.8856621" lon="8.441315"><ele>98.0</ele><time>2026-05-03T10:18:16.291Z</time></trkpt><trkpt lat="44.885762" lon="8.4412763"><ele>98.0</ele><time>2026-05-03T10:18:17.292Z</time></trkpt><trkpt lat="44.8858618" lon="8.4412391"><ele>98.0</ele><time>2026-05-03T10:18:18.291Z</time></trkpt><trkpt lat="44.8859618" lon="8.4412018"><ele>98.0</ele><time>2026-05-03T10:18:19.291Z</time></trkpt><trkpt lat="44.8860622" lon="8.4411655"><ele>98.0</ele><time>2026-05-03T10:18:20.292Z</time></trkpt><trkpt lat="44.8861636" lon="8.4411281"><ele>98.0</ele><time>2026-05-03T10:18:21.292Z</time></trkpt><trkpt lat="44.8862646" lon="8.4410893"><ele>98.0</ele><time>2026-05-03T10:18:22.292Z</time></trkpt><trkpt lat="44.8863661" lon="8.4410495"><ele>98.0</ele><time>2026-05-03T10:18:23.292Z</time></trkpt><trkpt lat="44.8864665" lon="8.4410095"><ele>98.0</ele><time>2026-05-03T10:18:24.292Z</time></trkpt><trkpt lat="44.8865653" lon="8.4409706"><ele>98.0</ele><time>2026-05-03T10:18:25.292Z</time></trkpt><trkpt lat="44.8866636" lon="8.4409324"><ele>98.0</ele><time>2026-05-03T10:18:26.292Z</time></trkpt><trkpt lat="44.8867625" lon="8.4408948"><ele>98.0</ele><time>2026-05-03T10:18:27.292Z</time></trkpt><trkpt lat="44.8868626" lon="8.4408556"><ele>98.0</ele><time>2026-05-03T10:18:28.292Z</time></trkpt><trkpt lat="44.8869632" lon="8.4408154"><ele>98.0</ele><time>2026-05-03T10:18:29.293Z</time></trkpt><trkpt lat="44.8870641" lon="8.4407751"><ele>98.0</ele><time>2026-05-03T10:18:30.293Z</time></trkpt><trkpt lat="44.8871649" lon="8.440735"><ele>98.0</ele><time>2026-05-03T10:18:31.292Z</time></trkpt><trkpt lat="44.8872651" lon="8.4406935"><ele>98.0</ele><time>2026-05-03T10:18:32.293Z</time></trkpt><trkpt lat="44.8873644" lon="8.4406512"><ele>98.0</ele><time>2026-05-03T10:18:33.292Z</time></trkpt><trkpt lat="44.8874632" lon="8.4406093"><ele>98.0</ele><time>2026-05-03T10:18:34.292Z</time></trkpt><trkpt lat="44.8875618" lon="8.4405695"><ele>98.0</ele><time>2026-05-03T10:18:35.292Z</time></trkpt><trkpt lat="44.8876586" lon="8.4405312"><ele>98.0</ele><time>2026-05-03T10:18:36.293Z</time></trkpt><trkpt lat="44.8877551" lon="8.4404925"><ele>98.0</ele><time>2026-05-03T10:18:37.292Z</time></trkpt><trkpt lat="44.8878519" lon="8.4404527"><ele>98.0</ele><time>2026-05-03T10:18:38.292Z</time></trkpt><trkpt lat="44.8879499" lon="8.4404129"><ele>98.0</ele><time>2026-05-03T10:18:39.292Z</time></trkpt><trkpt lat="44.8880484" lon="8.4403744"><ele>98.0</ele><time>2026-05-03T10:18:40.292Z</time></trkpt><trkpt lat="44.8881445" lon="8.4403319"><ele>98.0</ele><time>2026-05-03T10:18:41.292Z</time></trkpt><trkpt lat="44.8882382" lon="8.4402852"><ele>98.0</ele><time>2026-05-03T10:18:42.293Z</time></trkpt><trkpt lat="44.8883312" lon="8.440234"><ele>98.0</ele><time>2026-05-03T10:18:43.292Z</time></trkpt><trkpt lat="44.8884226" lon="8.4401789"><ele>98.0</ele><time>2026-05-03T10:18:44.293Z</time></trkpt><trkpt lat="44.8885138" lon="8.4401229"><ele>98.0</ele><time>2026-05-03T10:18:45.292Z</time></trkpt><trkpt lat="44.8886049" lon="8.4400641"><ele>97.80000000000001</ele><time>2026-05-03T10:18:46.292Z</time></trkpt><trkpt lat="44.8886959" lon="8.4400042"><ele>97.6</ele><time>2026-05-03T10:18:47.292Z</time></trkpt><trkpt lat="44.8887875" lon="8.439945"><ele>97.4</ele><time>2026-05-03T10:18:48.292Z</time></trkpt><trkpt lat="44.8888768" lon="8.4398896"><ele>97.19999999999999</ele><time>2026-05-03T10:18:49.293Z</time></trkpt><trkpt lat="44.888966" lon="8.4398367"><ele>97.0</ele><time>2026-05-03T10:18:50.292Z</time></trkpt><trkpt lat="44.8890555" lon="8.4397852"><ele>97.0</ele><time>2026-05-03T10:18:51.292Z</time></trkpt><trkpt lat="44.8891452" lon="8.4397337"><ele>97.0</ele><time>2026-05-03T10:18:52.293Z</time></trkpt><trkpt lat="44.8892349" lon="8.4396816"><ele>97.0</ele><time>2026-05-03T10:18:53.292Z</time></trkpt><trkpt lat="44.8893247" lon="8.4396292"><ele>97.0</ele><time>2026-05-03T10:18:54.292Z</time></trkpt><trkpt lat="44.8894135" lon="8.4395776"><ele>97.0</ele><time>2026-05-03T10:18:55.292Z</time></trkpt><trkpt lat="44.8895004" lon="8.4395275"><ele>96.0</ele><time>2026-05-03T10:18:56.292Z</time></trkpt><trkpt lat="44.8895891" lon="8.4394757"><ele>95.0</ele><time>2026-05-03T10:18:57.292Z</time></trkpt><trkpt lat="44.8896781" lon="8.4394228"><ele>94.0</ele><time>2026-05-03T10:18:58.292Z</time></trkpt><trkpt lat="44.8897656" lon="8.4393692"><ele>93.0</ele><time>2026-05-03T10:18:59.293Z</time></trkpt><trkpt lat="44.8898538" lon="8.4393178"><ele>92.0</ele><time>2026-05-03T10:19:00.292Z</time></trkpt><trkpt lat="44.889944" lon="8.439269"><ele>92.0</ele><time>2026-05-03T10:19:01.292Z</time></trkpt><trkpt lat="44.8900362" lon="8.4392183"><ele>92.0</ele><time>2026-05-03T10:19:02.292Z</time></trkpt><trkpt lat="44.8901281" lon="8.4391652"><ele>92.0</ele><time>2026-05-03T10:19:03.292Z</time></trkpt><trkpt lat="44.8902197" lon="8.4391098"><ele>92.0</ele><time>2026-05-03T10:19:04.293Z</time></trkpt><trkpt lat="44.8903085" lon="8.4390552"><ele>92.0</ele><time>2026-05-03T10:19:05.292Z</time></trkpt><trkpt lat="44.8903996" lon="8.4390011"><ele>92.0</ele><time>2026-05-03T10:19:06.293Z</time></trkpt><trkpt lat="44.8904938" lon="8.4389488"><ele>92.0</ele><time>2026-05-03T10:19:07.292Z</time></trkpt><trkpt lat="44.890589" lon="8.4388951"><ele>92.0</ele><time>2026-05-03T10:19:08.293Z</time></trkpt><trkpt lat="44.8906849" lon="8.4388389"><ele>92.0</ele><time>2026-05-03T10:19:09.294Z</time></trkpt><trkpt lat="44.890782" lon="8.43878"><ele>92.0</ele><time>2026-05-03T10:19:10.293Z</time></trkpt><trkpt lat="44.8908785" lon="8.4387231"><ele>93.19999999999999</ele><time>2026-05-03T10:19:11.293Z</time></trkpt><trkpt lat="44.8909747" lon="8.4386661"><ele>94.4</ele><time>2026-05-03T10:19:12.293Z</time></trkpt><trkpt lat="44.8910693" lon="8.4386098"><ele>95.6</ele><time>2026-05-03T10:19:13.293Z</time></trkpt><trkpt lat="44.8911618" lon="8.4385534"><ele>96.80000000000001</ele><time>2026-05-03T10:19:14.293Z</time></trkpt><trkpt lat="44.891254" lon="8.4384984"><ele>98.0</ele><time>2026-05-03T10:19:15.293Z</time></trkpt><trkpt lat="44.8913476" lon="8.4384449"><ele>98.0</ele><time>2026-05-03T10:19:16.293Z</time></trkpt><trkpt lat="44.8914428" lon="8.4383926"><ele>98.0</ele><time>2026-05-03T10:19:17.294Z</time></trkpt><trkpt lat="44.8915396" lon="8.4383379"><ele>98.0</ele><time>2026-05-03T10:19:18.293Z</time></trkpt><trkpt lat="44.8916347" lon="8.4382861"><ele>98.0</ele><time>2026-05-03T10:19:19.293Z</time></trkpt><trkpt lat="44.8917289" lon="8.4382452"><ele>98.0</ele><time>2026-05-03T10:19:20.293Z</time></trkpt><trkpt lat="44.8918277" lon="8.4382153"><ele>98.2</ele><time>2026-05-03T10:19:21.294Z</time></trkpt><trkpt lat="44.8919261" lon="8.4381995"><ele>98.4</ele><time>2026-05-03T10:19:22.294Z</time></trkpt><trkpt lat="44.8920222" lon="8.4381973"><ele>98.60000000000001</ele><time>2026-05-03T10:19:23.293Z</time></trkpt><trkpt lat="44.8921192" lon="8.4382084"><ele>98.80000000000001</ele><time>2026-05-03T10:19:24.293Z</time></trkpt><trkpt lat="44.8922167" lon="8.4382321"><ele>99.0</ele><time>2026-05-03T10:19:25.293Z</time></trkpt><trkpt lat="44.8923121" lon="8.4382729"><ele>99.0</ele><time>2026-05-03T10:19:26.293Z</time></trkpt><trkpt lat="44.8924034" lon="8.4383244"><ele>99.0</ele><time>2026-05-03T10:19:27.294Z</time></trkpt><trkpt lat="44.8924885" lon="8.4383781"><ele>99.0</ele><time>2026-05-03T10:19:28.293Z</time></trkpt><trkpt lat="44.8925654" lon="8.4384312"><ele>99.0</ele><time>2026-05-03T10:19:29.293Z</time></trkpt><trkpt lat="44.8926345" lon="8.438486"><ele>99.0</ele><time>2026-05-03T10:19:30.294Z</time></trkpt><trkpt lat="44.8926952" lon="8.4385449"><ele>99.0</ele><time>2026-05-03T10:19:31.294Z</time></trkpt><trkpt lat="44.8927434" lon="8.4386065"><ele>99.0</ele><time>2026-05-03T10:19:32.293Z</time></trkpt><trkpt lat="44.8928122" lon="8.4387449"><ele>99.0</ele><time>2026-05-03T10:19:34.293Z</time></trkpt><trkpt lat="44.8928929" lon="8.4388677"><ele>99.0</ele><time>2026-05-03T10:19:36.293Z</time></trkpt><trkpt lat="44.8930047" lon="8.4389082"><ele>99.0</ele><time>2026-05-03T10:19:38.293Z</time></trkpt><trkpt lat="44.8931148" lon="8.4388462"><ele>99.0</ele><time>2026-05-03T10:19:40.293Z</time></trkpt><trkpt lat="44.8931786" lon="8.4386989"><ele>99.0</ele><time>2026-05-03T10:19:42.293Z</time></trkpt><trkpt lat="44.893196" lon="8.4385413"><ele>99.0</ele><time>2026-05-03T10:19:44.293Z</time></trkpt><trkpt lat="44.8932029" lon="8.4384204"><ele>99.0</ele><time>2026-05-03T10:19:46.294Z</time></trkpt><trkpt lat="44.89328" lon="8.4383479"><ele>99.0</ele><time>2026-05-03T10:19:49.293Z</time></trkpt><trkpt lat="44.8933777" lon="8.4383846"><ele>99.0</ele><time>2026-05-03T10:19:51.293Z</time></trkpt><trkpt lat="44.893419" lon="8.4384565"><ele>99.0</ele><time>2026-05-03T10:19:52.293Z</time></trkpt><trkpt lat="44.8934429" lon="8.4385509"><ele>99.0</ele><time>2026-05-03T10:19:53.295Z</time></trkpt><trkpt lat="44.8934598" lon="8.4386489"><ele>99.0</ele><time>2026-05-03T10:19:54.294Z</time></trkpt><trkpt lat="44.8934797" lon="8.4387499"><ele>99.0</ele><time>2026-05-03T10:19:55.294Z</time></trkpt><trkpt lat="44.8935006" lon="8.4388476"><ele>99.0</ele><time>2026-05-03T10:19:56.293Z</time></trkpt><trkpt lat="44.89353" lon="8.4389517"><ele>99.0</ele><time>2026-05-03T10:19:57.295Z</time></trkpt><trkpt lat="44.8935617" lon="8.4390593"><ele>98.83333333333333</ele><time>2026-05-03T10:19:58.294Z</time></trkpt><trkpt lat="44.8935902" lon="8.4391699"><ele>98.66666666666666</ele><time>2026-05-03T10:19:59.295Z</time></trkpt><trkpt lat="44.8936167" lon="8.4392881"><ele>98.5</ele><time>2026-05-03T10:20:00.294Z</time></trkpt><trkpt lat="44.8936437" lon="8.439411"><ele>98.33333333333333</ele><time>2026-05-03T10:20:01.294Z</time></trkpt><trkpt lat="44.8936726" lon="8.4395303"><ele>98.16666666666666</ele><time>2026-05-03T10:20:02.295Z</time></trkpt><trkpt lat="44.8937052" lon="8.4396345"><ele>98.0</ele><time>2026-05-03T10:20:03.294Z</time></trkpt><trkpt lat="44.8937407" lon="8.4397103"><ele>98.0</ele><time>2026-05-03T10:20:04.294Z</time></trkpt><trkpt lat="44.8938343" lon="8.4397931"><ele>98.0</ele><time>2026-05-03T10:20:06.294Z</time></trkpt><trkpt lat="44.8939099" lon="8.4397605"><ele>98.0</ele><time>2026-05-03T10:20:08.295Z</time></trkpt><trkpt lat="44.8939811" lon="8.4397009"><ele>98.0</ele><time>2026-05-03T10:20:10.294Z</time></trkpt><trkpt lat="44.8940533" lon="8.4396318"><ele>98.0</ele><time>2026-05-03T10:20:12.294Z</time></trkpt><trkpt lat="44.8941522" lon="8.4395729"><ele>97.75</ele><time>2026-05-03T10:20:14.294Z</time></trkpt><trkpt lat="44.8942757" lon="8.439565"><ele>97.5</ele><time>2026-05-03T10:20:16.294Z</time></trkpt><trkpt lat="44.8943841" lon="8.4395143"><ele>97.25</ele><time>2026-05-03T10:20:18.294Z</time></trkpt><trkpt lat="44.8944935" lon="8.4394611"><ele>97.0</ele><time>2026-05-03T10:20:20.294Z</time></trkpt><trkpt lat="44.8946151" lon="8.4394043"><ele>97.00000000000001</ele><time>2026-05-03T10:20:22.294Z</time></trkpt><trkpt lat="44.8946792" lon="8.4393708"><ele>97.0</ele><time>2026-05-03T10:20:23.295Z</time></trkpt><trkpt lat="44.8947473" lon="8.4393406"><ele>97.0</ele><time>2026-05-03T10:20:24.294Z</time></trkpt><trkpt lat="44.8948175" lon="8.4393131"><ele>97.0</ele><time>2026-05-03T10:20:25.294Z</time></trkpt><trkpt lat="44.8949052" lon="8.4393058"><ele>97.00000000000001</ele><time>2026-05-03T10:20:26.294Z</time></trkpt><trkpt lat="44.8949816" lon="8.4392891"><ele>97.0</ele><time>2026-05-03T10:20:27.295Z</time></trkpt><trkpt lat="44.8950612" lon="8.4392691"><ele>96.83333333333334</ele><time>2026-05-03T10:20:28.295Z</time></trkpt><trkpt lat="44.8951407" lon="8.4392435"><ele>96.66666666666667</ele><time>2026-05-03T10:20:29.294Z</time></trkpt><trkpt lat="44.8952234" lon="8.4392166"><ele>96.5</ele><time>2026-05-03T10:20:30.294Z</time></trkpt><trkpt lat="44.8953069" lon="8.4391977"><ele>96.33333333333334</ele><time>2026-05-03T10:20:31.294Z</time></trkpt><trkpt lat="44.8953898" lon="8.4391869"><ele>96.16666666666667</ele><time>2026-05-03T10:20:32.295Z</time></trkpt><trkpt lat="44.8954743" lon="8.4391779"><ele>96.0</ele><time>2026-05-03T10:20:33.294Z</time></trkpt><trkpt lat="44.8955602" lon="8.4391772"><ele>96.0</ele><time>2026-05-03T10:20:34.295Z</time></trkpt><trkpt lat="44.8956478" lon="8.439201"><ele>96.0</ele><time>2026-05-03T10:20:35.294Z</time></trkpt><trkpt lat="44.8957417" lon="8.4392447"><ele>96.0</ele><time>2026-05-03T10:20:36.294Z</time></trkpt><trkpt lat="44.8958285" lon="8.4392975"><ele>96.0</ele><time>2026-05-03T10:20:37.295Z</time></trkpt><trkpt lat="44.8959072" lon="8.4393527"><ele>96.0</ele><time>2026-05-03T10:20:38.295Z</time></trkpt><trkpt lat="44.8959857" lon="8.4394077"><ele>96.83333333333333</ele><time>2026-05-03T10:20:39.295Z</time></trkpt><trkpt lat="44.8960608" lon="8.4394635"><ele>97.66666666666666</ele><time>2026-05-03T10:20:40.294Z</time></trkpt><trkpt lat="44.8961381" lon="8.4395211"><ele>98.5</ele><time>2026-05-03T10:20:41.295Z</time></trkpt><trkpt lat="44.8962154" lon="8.4395778"><ele>99.33333333333333</ele><time>2026-05-03T10:20:42.295Z</time></trkpt><trkpt lat="44.8962931" lon="8.4396318"><ele>100.16666666666666</ele><time>2026-05-03T10:20:43.294Z</time></trkpt><trkpt lat="44.8963669" lon="8.4396831"><ele>101.0</ele><time>2026-05-03T10:20:44.295Z</time></trkpt><trkpt lat="44.8964371" lon="8.4397311"><ele>101.4</ele><time>2026-05-03T10:20:45.294Z</time></trkpt><trkpt lat="44.8965011" lon="8.439775"><ele>101.8</ele><time>2026-05-03T10:20:46.295Z</time></trkpt><trkpt lat="44.8965625" lon="8.4398149"><ele>102.2</ele><time>2026-05-03T10:20:47.296Z</time></trkpt><trkpt lat="44.896675" lon="8.4398797"><ele>102.60000000000001</ele><time>2026-05-03T10:20:49.296Z</time></trkpt><trkpt lat="44.8967848" lon="8.4399447"><ele>103.0</ele><time>2026-05-03T10:20:51.296Z</time></trkpt><trkpt lat="44.8969014" lon="8.4400028"><ele>104.80000000000001</ele><time>2026-05-03T10:20:53.295Z</time></trkpt><trkpt lat="44.8969606" lon="8.4400352"><ele>106.6</ele><time>2026-05-03T10:20:54.295Z</time></trkpt><trkpt lat="44.8970621" lon="8.4401196"><ele>108.39999999999999</ele><time>2026-05-03T10:20:56.295Z</time></trkpt><trkpt lat="44.8971655" lon="8.4402009"><ele>110.19999999999999</ele><time>2026-05-03T10:20:58.296Z</time></trkpt><trkpt lat="44.8972714" lon="8.4402887"><ele>112.0</ele><time>2026-05-03T10:21:00.296Z</time></trkpt><trkpt lat="44.8973743" lon="8.4403607"><ele>112.0</ele><time>2026-05-03T10:21:02.295Z</time></trkpt><trkpt lat="44.8974761" lon="8.4404016"><ele>111.99999999999999</ele><time>2026-05-03T10:21:04.295Z</time></trkpt><trkpt lat="44.8975808" lon="8.4403434"><ele>111.99999999999999</ele><time>2026-05-03T10:21:06.295Z</time></trkpt><trkpt lat="44.8976115" lon="8.4402061"><ele>112.0</ele><time>2026-05-03T10:21:08.296Z</time></trkpt><trkpt lat="44.8976603" lon="8.4400869"><ele>112.0</ele><time>2026-05-03T10:21:10.295Z</time></trkpt><trkpt lat="44.8976991" lon="8.4399757"><ele>112.33333333333334</ele><time>2026-05-03T10:21:13.295Z</time></trkpt><trkpt lat="44.8977082" lon="8.4398374"><ele>112.66666666666667</ele><time>2026-05-03T10:21:15.296Z</time></trkpt><trkpt lat="44.8977317" lon="8.4397369"><ele>113.0</ele><time>2026-05-03T10:21:17.295Z</time></trkpt><trkpt lat="44.8977616" lon="8.4396566"><ele>113.33333333333334</ele><time>2026-05-03T10:21:18.295Z</time></trkpt><trkpt lat="44.8978489" lon="8.4395164"><ele>113.66666666666667</ele><time>2026-05-03T10:21:20.295Z</time></trkpt><trkpt lat="44.8978976" lon="8.4394451"><ele>114.0</ele><time>2026-05-03T10:21:21.295Z</time></trkpt><trkpt lat="44.897944" lon="8.4393746"><ele>114.0</ele><time>2026-05-03T10:21:22.295Z</time></trkpt><trkpt lat="44.8979866" lon="8.4393039"><ele>113.99999999999999</ele><time>2026-05-03T10:21:23.296Z</time></trkpt><trkpt lat="44.8980342" lon="8.4392308"><ele>114.0</ele><time>2026-05-03T10:21:24.296Z</time></trkpt><trkpt lat="44.8980845" lon="8.4391592"><ele>114.0</ele><time>2026-05-03T10:21:25.296Z</time></trkpt><trkpt lat="44.8981295" lon="8.4390912"><ele>113.99999999999999</ele><time>2026-05-03T10:21:26.296Z</time></trkpt><trkpt lat="44.8981787" lon="8.4390232"><ele>114.0</ele><time>2026-05-03T10:21:27.295Z</time></trkpt><trkpt lat="44.898227" lon="8.4389638"><ele>114.0</ele><time>2026-05-03T10:21:28.295Z</time></trkpt><trkpt lat="44.8982996" lon="8.4389011"><ele>114.0</ele><time>2026-05-03T10:21:30.295Z</time></trkpt><trkpt lat="44.8983745" lon="8.4389084"><ele>114.0</ele><time>2026-05-03T10:21:32.295Z</time></trkpt><trkpt lat="44.8984293" lon="8.438967"><ele>114.0</ele><time>2026-05-03T10:21:36.296Z</time></trkpt><trkpt lat="44.8984652" lon="8.4390776"><ele>114.0</ele><time>2026-05-03T10:21:39.296Z</time></trkpt><trkpt lat="44.8985064" lon="8.439173"><ele>114.0</ele><time>2026-05-03T10:21:41.296Z</time></trkpt><trkpt lat="44.8985783" lon="8.4392156"><ele>114.0</ele><time>2026-05-03T10:21:43.296Z</time></trkpt><trkpt lat="44.8986794" lon="8.4391915"><ele>113.80000000000001</ele><time>2026-05-03T10:21:45.297Z</time></trkpt><trkpt lat="44.8987832" lon="8.4391523"><ele>113.60000000000001</ele><time>2026-05-03T10:21:47.296Z</time></trkpt><trkpt lat="44.8989002" lon="8.4390913"><ele>113.4</ele><time>2026-05-03T10:21:49.296Z</time></trkpt><trkpt lat="44.89903" lon="8.4390648"><ele>113.2</ele><time>2026-05-03T10:21:51.297Z</time></trkpt><trkpt lat="44.8991003" lon="8.4390524"><ele>113.0</ele><time>2026-05-03T10:21:52.296Z</time></trkpt><trkpt lat="44.8991719" lon="8.4390417"><ele>112.99999999999999</ele><time>2026-05-03T10:21:53.297Z</time></trkpt><trkpt lat="44.8992353" lon="8.4390341"><ele>113.0</ele><time>2026-05-03T10:21:54.297Z</time></trkpt><trkpt lat="44.8993211" lon="8.4390406"><ele>113.0</ele><time>2026-05-03T10:21:55.296Z</time></trkpt><trkpt lat="44.8993957" lon="8.4390428"><ele>113.0</ele><time>2026-05-03T10:21:56.296Z</time></trkpt><trkpt lat="44.8994624" lon="8.4390437"><ele>112.99999999999999</ele><time>2026-05-03T10:21:57.296Z</time></trkpt><trkpt lat="44.8995974" lon="8.4390379"><ele>113.0</ele><time>2026-05-03T10:21:59.296Z</time></trkpt><trkpt lat="44.8996662" lon="8.4390178"><ele>112.85714285714286</ele><time>2026-05-03T10:22:00.296Z</time></trkpt><trkpt lat="44.8997347" lon="8.4389957"><ele>112.71428571428571</ele><time>2026-05-03T10:22:01.296Z</time></trkpt><trkpt lat="44.8998081" lon="8.4389663"><ele>112.57142857142857</ele><time>2026-05-03T10:22:02.296Z</time></trkpt><trkpt lat="44.8998753" lon="8.4389333"><ele>112.42857142857143</ele><time>2026-05-03T10:22:03.296Z</time></trkpt><trkpt lat="44.899935" lon="8.4388976"><ele>112.28571428571428</ele><time>2026-05-03T10:22:04.296Z</time></trkpt><trkpt lat="44.8999975" lon="8.4388622"><ele>112.14285714285714</ele><time>2026-05-03T10:22:05.296Z</time></trkpt><trkpt lat="44.9000636" lon="8.4388264"><ele>112.0</ele><time>2026-05-03T10:22:06.297Z</time></trkpt><trkpt lat="44.9001272" lon="8.4387964"><ele>111.8</ele><time>2026-05-03T10:22:07.296Z</time></trkpt><trkpt lat="44.9001902" lon="8.43877"><ele>111.6</ele><time>2026-05-03T10:22:08.296Z</time></trkpt><trkpt lat="44.9002549" lon="8.4387467"><ele>111.39999999999999</ele><time>2026-05-03T10:22:09.297Z</time></trkpt><trkpt lat="44.900374" lon="8.4387195"><ele>111.19999999999999</ele><time>2026-05-03T10:22:11.296Z</time></trkpt><trkpt lat="44.9004971" lon="8.4387346"><ele>111.0</ele><time>2026-05-03T10:22:13.296Z</time></trkpt><trkpt lat="44.9006148" lon="8.438757"><ele>111.0</ele><time>2026-05-03T10:22:15.297Z</time></trkpt><trkpt lat="44.9006836" lon="8.438775"><ele>111.0</ele><time>2026-05-03T10:22:17.297Z</time></trkpt><trkpt lat="44.9007538" lon="8.438819"><ele>111.0</ele><time>2026-05-03T10:22:19.296Z</time></trkpt><trkpt lat="44.90085" lon="8.4388536"><ele>111.0</ele><time>2026-05-03T10:22:21.296Z</time></trkpt><trkpt lat="44.9009778" lon="8.438846"><ele>111.0</ele><time>2026-05-03T10:22:23.296Z</time></trkpt><trkpt lat="44.9010506" lon="8.4388503"><ele>111.0</ele><time>2026-05-03T10:22:24.297Z</time></trkpt><trkpt lat="44.9011247" lon="8.4388624"><ele>111.33333333333333</ele><time>2026-05-03T10:22:25.297Z</time></trkpt><trkpt lat="44.9011963" lon="8.4388899"><ele>111.66666666666666</ele><time>2026-05-03T10:22:26.298Z</time></trkpt><trkpt lat="44.9012687" lon="8.4389239"><ele>112.0</ele><time>2026-05-03T10:22:27.298Z</time></trkpt><trkpt lat="44.9013407" lon="8.4389561"><ele>112.33333333333333</ele><time>2026-05-03T10:22:28.297Z</time></trkpt><trkpt lat="44.9014165" lon="8.4389847"><ele>112.66666666666666</ele><time>2026-05-03T10:22:29.297Z</time></trkpt><trkpt lat="44.9014926" lon="8.4390112"><ele>113.0</ele><time>2026-05-03T10:22:30.298Z</time></trkpt><trkpt lat="44.9015715" lon="8.4390336"><ele>112.99999999999999</ele><time>2026-05-03T10:22:31.297Z</time></trkpt><trkpt lat="44.9016543" lon="8.4390559"><ele>113.0</ele><time>2026-05-03T10:22:32.297Z</time></trkpt><trkpt lat="44.9017395" lon="8.4390819"><ele>113.0</ele><time>2026-05-03T10:22:33.298Z</time></trkpt><trkpt lat="44.9018265" lon="8.4391068"><ele>113.0</ele><time>2026-05-03T10:22:34.297Z</time></trkpt><trkpt lat="44.9019108" lon="8.4391279"><ele>112.99999999999999</ele><time>2026-05-03T10:22:35.298Z</time></trkpt><trkpt lat="44.9019949" lon="8.4391477"><ele>113.0</ele><time>2026-05-03T10:22:36.297Z</time></trkpt><trkpt lat="44.9020813" lon="8.4391682"><ele>112.99999999999999</ele><time>2026-05-03T10:22:37.297Z</time></trkpt><trkpt lat="44.9021697" lon="8.4391915"><ele>113.0</ele><time>2026-05-03T10:22:38.297Z</time></trkpt><trkpt lat="44.9022567" lon="8.4392094"><ele>113.0</ele><time>2026-05-03T10:22:39.297Z</time></trkpt><trkpt lat="44.9023425" lon="8.4392233"><ele>113.0</ele><time>2026-05-03T10:22:40.297Z</time></trkpt><trkpt lat="44.9024271" lon="8.4392317"><ele>112.99999999999999</ele><time>2026-05-03T10:22:41.297Z</time></trkpt><trkpt lat="44.9025228" lon="8.4392435"><ele>113.0</ele><time>2026-05-03T10:22:42.298Z</time></trkpt><trkpt lat="44.9026166" lon="8.4392531"><ele>113.0</ele><time>2026-05-03T10:22:43.298Z</time></trkpt><trkpt lat="44.9027055" lon="8.439259"><ele>113.00000000000001</ele><time>2026-05-03T10:22:44.297Z</time></trkpt><trkpt lat="44.9028011" lon="8.43926"><ele>113.00000000000001</ele><time>2026-05-03T10:22:45.298Z</time></trkpt><trkpt lat="44.9028967" lon="8.4392638"><ele>113.0</ele><time>2026-05-03T10:22:46.298Z</time></trkpt><trkpt lat="44.9029924" lon="8.4392811"><ele>113.0</ele><time>2026-05-03T10:22:47.297Z</time></trkpt><trkpt lat="44.9030867" lon="8.4392965"><ele>113.0</ele><time>2026-05-03T10:22:48.297Z</time></trkpt><trkpt lat="44.903182" lon="8.4393104"><ele>113.00000000000001</ele><time>2026-05-03T10:22:49.297Z</time></trkpt><trkpt lat="44.9032796" lon="8.4393216"><ele>113.00000000000001</ele><time>2026-05-03T10:22:50.297Z</time></trkpt><trkpt lat="44.9033744" lon="8.4393288"><ele>113.0</ele><time>2026-05-03T10:22:51.298Z</time></trkpt><trkpt lat="44.9034776" lon="8.4393349"><ele>113.0</ele><time>2026-05-03T10:22:52.298Z</time></trkpt><trkpt lat="44.9035772" lon="8.4393447"><ele>112.60000000000001</ele><time>2026-05-03T10:22:53.297Z</time></trkpt><trkpt lat="44.9036719" lon="8.4393558"><ele>112.20000000000002</ele><time>2026-05-03T10:22:54.297Z</time></trkpt><trkpt lat="44.9037659" lon="8.4393694"><ele>111.8</ele><time>2026-05-03T10:22:55.297Z</time></trkpt><trkpt lat="44.9038604" lon="8.4393829"><ele>111.4</ele><time>2026-05-03T10:22:56.297Z</time></trkpt><trkpt lat="44.9039552" lon="8.4393901"><ele>111.0</ele><time>2026-05-03T10:22:57.298Z</time></trkpt><trkpt lat="44.90405" lon="8.4393938"><ele>111.0</ele><time>2026-05-03T10:22:58.297Z</time></trkpt><trkpt lat="44.9041429" lon="8.439396"><ele>111.0</ele><time>2026-05-03T10:22:59.298Z</time></trkpt><trkpt lat="44.9042355" lon="8.4394021"><ele>111.0</ele><time>2026-05-03T10:23:00.297Z</time></trkpt><trkpt lat="44.9043265" lon="8.4394122"><ele>111.0</ele><time>2026-05-03T10:23:01.297Z</time></trkpt><trkpt lat="44.9044155" lon="8.4394217"><ele>111.0</ele><time>2026-05-03T10:23:02.297Z</time></trkpt><trkpt lat="44.9045089" lon="8.4394286"><ele>110.19999999999999</ele><time>2026-05-03T10:23:03.298Z</time></trkpt><trkpt lat="44.9046033" lon="8.4394327"><ele>109.39999999999999</ele><time>2026-05-03T10:23:04.298Z</time></trkpt><trkpt lat="44.9046986" lon="8.4394396"><ele>108.6</ele><time>2026-05-03T10:23:05.297Z</time></trkpt><trkpt lat="44.9047939" lon="8.4394502"><ele>107.8</ele><time>2026-05-03T10:23:06.297Z</time></trkpt><trkpt lat="44.9048855" lon="8.4394651"><ele>107.0</ele><time>2026-05-03T10:23:07.297Z</time></trkpt><trkpt lat="44.9049777" lon="8.4394826"><ele>106.99999999999999</ele><time>2026-05-03T10:23:08.297Z</time></trkpt><trkpt lat="44.9050704" lon="8.4394976"><ele>107.0</ele><time>2026-05-03T10:23:09.298Z</time></trkpt><trkpt lat="44.905164" lon="8.4395071"><ele>107.0</ele><time>2026-05-03T10:23:10.298Z</time></trkpt><trkpt lat="44.9052546" lon="8.4395139"><ele>107.0</ele><time>2026-05-03T10:23:11.298Z</time></trkpt><trkpt lat="44.9053396" lon="8.4395198"><ele>106.99999999999999</ele><time>2026-05-03T10:23:12.297Z</time></trkpt><trkpt lat="44.9054222" lon="8.4395252"><ele>107.0</ele><time>2026-05-03T10:23:13.299Z</time></trkpt><trkpt lat="44.9055053" lon="8.4395296"><ele>107.8</ele><time>2026-05-03T10:23:14.298Z</time></trkpt><trkpt lat="44.9055912" lon="8.4395324"><ele>108.6</ele><time>2026-05-03T10:23:15.298Z</time></trkpt><trkpt lat="44.9056795" lon="8.4395295"><ele>109.39999999999999</ele><time>2026-05-03T10:23:16.298Z</time></trkpt><trkpt lat="44.9057744" lon="8.4395241"><ele>110.19999999999999</ele><time>2026-05-03T10:23:17.299Z</time></trkpt><trkpt lat="44.9058684" lon="8.4395093"><ele>111.0</ele><time>2026-05-03T10:23:18.298Z</time></trkpt><trkpt lat="44.9059621" lon="8.4394854"><ele>111.4</ele><time>2026-05-03T10:23:19.298Z</time></trkpt><trkpt lat="44.9060551" lon="8.439456"><ele>111.8</ele><time>2026-05-03T10:23:20.299Z</time></trkpt><trkpt lat="44.9061452" lon="8.4394253"><ele>112.20000000000002</ele><time>2026-05-03T10:23:21.298Z</time></trkpt><trkpt lat="44.9062367" lon="8.4393979"><ele>112.60000000000001</ele><time>2026-05-03T10:23:22.298Z</time></trkpt><trkpt lat="44.9063268" lon="8.4393683"><ele>113.0</ele><time>2026-05-03T10:23:23.299Z</time></trkpt><trkpt lat="44.9064144" lon="8.4393416"><ele>113.0</ele><time>2026-05-03T10:23:24.299Z</time></trkpt><trkpt lat="44.9065021" lon="8.4393121"><ele>113.00000000000001</ele><time>2026-05-03T10:23:25.299Z</time></trkpt><trkpt lat="44.906592" lon="8.4392763"><ele>113.00000000000001</ele><time>2026-05-03T10:23:26.298Z</time></trkpt><trkpt lat="44.9066809" lon="8.439245"><ele>113.0</ele><time>2026-05-03T10:23:27.299Z</time></trkpt><trkpt lat="44.9067827" lon="8.4392135"><ele>113.0</ele><time>2026-05-03T10:23:28.299Z</time></trkpt><trkpt lat="44.9068803" lon="8.4391843"><ele>112.80000000000001</ele><time>2026-05-03T10:23:29.298Z</time></trkpt><trkpt lat="44.906974" lon="8.4391533"><ele>112.60000000000001</ele><time>2026-05-03T10:23:30.299Z</time></trkpt><trkpt lat="44.9070652" lon="8.4391211"><ele>112.39999999999999</ele><time>2026-05-03T10:23:31.299Z</time></trkpt><trkpt lat="44.9071573" lon="8.4390874"><ele>112.19999999999999</ele><time>2026-05-03T10:23:32.298Z</time></trkpt><trkpt lat="44.9072507" lon="8.4390549"><ele>112.0</ele><time>2026-05-03T10:23:33.298Z</time></trkpt><trkpt lat="44.9073464" lon="8.4390276"><ele>112.0</ele><time>2026-05-03T10:23:34.299Z</time></trkpt><trkpt lat="44.9074423" lon="8.4390017"><ele>111.99999999999999</ele><time>2026-05-03T10:23:35.298Z</time></trkpt><trkpt lat="44.9075373" lon="8.4389707"><ele>111.99999999999999</ele><time>2026-05-03T10:23:36.298Z</time></trkpt><trkpt lat="44.9076299" lon="8.4389334"><ele>112.0</ele><time>2026-05-03T10:23:37.299Z</time></trkpt><trkpt lat="44.9077233" lon="8.4388968"><ele>112.0</ele><time>2026-05-03T10:23:38.298Z</time></trkpt><trkpt lat="44.9078153" lon="8.4388612"><ele>112.39999999999999</ele><time>2026-05-03T10:23:39.299Z</time></trkpt><trkpt lat="44.9079083" lon="8.4388244"><ele>112.79999999999998</ele><time>2026-05-03T10:23:40.298Z</time></trkpt><trkpt lat="44.9080018" lon="8.4387915"><ele>113.2</ele><time>2026-05-03T10:23:41.298Z</time></trkpt><trkpt lat="44.9080989" lon="8.4387659"><ele>113.6</ele><time>2026-05-03T10:23:42.299Z</time></trkpt><trkpt lat="44.9081986" lon="8.4387471"><ele>114.0</ele><time>2026-05-03T10:23:43.299Z</time></trkpt><trkpt lat="44.9082973" lon="8.4387308"><ele>114.0</ele><time>2026-05-03T10:23:44.298Z</time></trkpt><trkpt lat="44.9083952" lon="8.4387198"><ele>114.0</ele><time>2026-05-03T10:23:45.298Z</time></trkpt><trkpt lat="44.908493" lon="8.4387176"><ele>114.0</ele><time>2026-05-03T10:23:46.299Z</time></trkpt><trkpt lat="44.9085904" lon="8.4387209"><ele>114.0</ele><time>2026-05-03T10:23:47.299Z</time></trkpt><trkpt lat="44.9086902" lon="8.4387272"><ele>114.0</ele><time>2026-05-03T10:23:48.298Z</time></trkpt><trkpt lat="44.908789" lon="8.4387367"><ele>113.80000000000001</ele><time>2026-05-03T10:23:49.299Z</time></trkpt><trkpt lat="44.908887" lon="8.4387448"><ele>113.60000000000001</ele><time>2026-05-03T10:23:50.299Z</time></trkpt><trkpt lat="44.908985" lon="8.4387442"><ele>113.4</ele><time>2026-05-03T10:23:51.298Z</time></trkpt><trkpt lat="44.9090815" lon="8.4387332"><ele>113.2</ele><time>2026-05-03T10:23:52.298Z</time></trkpt><trkpt lat="44.9091783" lon="8.4387121"><ele>113.0</ele><time>2026-05-03T10:23:53.299Z</time></trkpt><trkpt lat="44.909273" lon="8.438682"><ele>113.0</ele><time>2026-05-03T10:23:54.298Z</time></trkpt><trkpt lat="44.909365" lon="8.438638"><ele>113.00000000000001</ele><time>2026-05-03T10:23:55.298Z</time></trkpt><trkpt lat="44.9094568" lon="8.4385875"><ele>113.00000000000001</ele><time>2026-05-03T10:23:56.298Z</time></trkpt><trkpt lat="44.9095488" lon="8.4385391"><ele>113.0</ele><time>2026-05-03T10:23:57.298Z</time></trkpt><trkpt lat="44.9096402" lon="8.4384921"><ele>113.0</ele><time>2026-05-03T10:23:58.299Z</time></trkpt><trkpt lat="44.9097317" lon="8.4384439"><ele>113.0</ele><time>2026-05-03T10:23:59.299Z</time></trkpt><trkpt lat="44.9098225" lon="8.4383944"><ele>113.00000000000001</ele><time>2026-05-03T10:24:00.299Z</time></trkpt><trkpt lat="44.9099151" lon="8.4383452"><ele>113.00000000000001</ele><time>2026-05-03T10:24:01.298Z</time></trkpt><trkpt lat="44.9100083" lon="8.4382991"><ele>113.0</ele><time>2026-05-03T10:24:02.299Z</time></trkpt><trkpt lat="44.9101043" lon="8.4382537"><ele>113.0</ele><time>2026-05-03T10:24:03.299Z</time></trkpt><trkpt lat="44.9101995" lon="8.4382096"><ele>113.0</ele><time>2026-05-03T10:24:04.299Z</time></trkpt><trkpt lat="44.9102928" lon="8.4381647"><ele>113.00000000000001</ele><time>2026-05-03T10:24:05.299Z</time></trkpt><trkpt lat="44.9103869" lon="8.4381213"><ele>113.00000000000001</ele><time>2026-05-03T10:24:06.299Z</time></trkpt><trkpt lat="44.9104846" lon="8.438081"><ele>113.0</ele><time>2026-05-03T10:24:07.3Z</time></trkpt><trkpt lat="44.9105828" lon="8.4380461"><ele>113.0</ele><time>2026-05-03T10:24:08.3Z</time></trkpt><trkpt lat="44.9106807" lon="8.4380187"><ele>113.0</ele><time>2026-05-03T10:24:09.3Z</time></trkpt><trkpt lat="44.9107769" lon="8.4380008"><ele>113.00000000000001</ele><time>2026-05-03T10:24:10.299Z</time></trkpt><trkpt lat="44.9108738" lon="8.43799"><ele>113.00000000000001</ele><time>2026-05-03T10:24:11.299Z</time></trkpt><trkpt lat="44.9109726" lon="8.4379868"><ele>113.0</ele><time>2026-05-03T10:24:12.299Z</time></trkpt><trkpt lat="44.9110707" lon="8.4379869"><ele>113.0</ele><time>2026-05-03T10:24:13.3Z</time></trkpt><trkpt lat="44.9111695" lon="8.4379875"><ele>113.0</ele><time>2026-05-03T10:24:14.299Z</time></trkpt><trkpt lat="44.911267" lon="8.4379864"><ele>113.00000000000001</ele><time>2026-05-03T10:24:15.299Z</time></trkpt><trkpt lat="44.9113629" lon="8.4379854"><ele>113.00000000000001</ele><time>2026-05-03T10:24:16.299Z</time></trkpt><trkpt lat="44.9114567" lon="8.4379875"><ele>113.0</ele><time>2026-05-03T10:24:17.299Z</time></trkpt><trkpt lat="44.9115512" lon="8.4379927"><ele>113.0</ele><time>2026-05-03T10:24:18.3Z</time></trkpt><trkpt lat="44.9116469" lon="8.4379989"><ele>112.80000000000001</ele><time>2026-05-03T10:24:19.299Z</time></trkpt><trkpt lat="44.9117421" lon="8.4380028"><ele>112.60000000000001</ele><time>2026-05-03T10:24:20.299Z</time></trkpt><trkpt lat="44.9118373" lon="8.4380023"><ele>112.39999999999999</ele><time>2026-05-03T10:24:21.299Z</time></trkpt><trkpt lat="44.9119329" lon="8.4380002"><ele>112.19999999999999</ele><time>2026-05-03T10:24:22.3Z</time></trkpt><trkpt lat="44.9120293" lon="8.4379978"><ele>112.0</ele><time>2026-05-03T10:24:23.299Z</time></trkpt><trkpt lat="44.9121256" lon="8.4379962"><ele>112.0</ele><time>2026-05-03T10:24:24.299Z</time></trkpt><trkpt lat="44.9122229" lon="8.4379937"><ele>111.99999999999999</ele><time>2026-05-03T10:24:25.299Z</time></trkpt><trkpt lat="44.9123206" lon="8.4379894"><ele>111.99999999999999</ele><time>2026-05-03T10:24:26.299Z</time></trkpt><trkpt lat="44.9124187" lon="8.4379824"><ele>112.0</ele><time>2026-05-03T10:24:27.3Z</time></trkpt><trkpt lat="44.9125168" lon="8.4379724"><ele>112.0</ele><time>2026-05-03T10:24:28.299Z</time></trkpt><trkpt lat="44.9126139" lon="8.4379606"><ele>112.6</ele><time>2026-05-03T10:24:29.299Z</time></trkpt><trkpt lat="44.9127118" lon="8.4379481"><ele>113.19999999999999</ele><time>2026-05-03T10:24:30.299Z</time></trkpt><trkpt lat="44.9128097" lon="8.4379374"><ele>113.8</ele><time>2026-05-03T10:24:31.299Z</time></trkpt><trkpt lat="44.9129068" lon="8.4379279"><ele>114.4</ele><time>2026-05-03T10:24:32.299Z</time></trkpt><trkpt lat="44.913004" lon="8.4379193"><ele>115.0</ele><time>2026-05-03T10:24:33.299Z</time></trkpt><trkpt lat="44.9131013" lon="8.4379114"><ele>115.0</ele><time>2026-05-03T10:24:34.299Z</time></trkpt><trkpt lat="44.9131993" lon="8.437908"><ele>115.0</ele><time>2026-05-03T10:24:35.3Z</time></trkpt><trkpt lat="44.9132971" lon="8.4379109"><ele>115.0</ele><time>2026-05-03T10:24:36.299Z</time></trkpt><trkpt lat="44.9133941" lon="8.4379181"><ele>115.0</ele><time>2026-05-03T10:24:37.299Z</time></trkpt><trkpt lat="44.9134925" lon="8.4379251"><ele>115.0</ele><time>2026-05-03T10:24:38.3Z</time></trkpt><trkpt lat="44.9135901" lon="8.437931"><ele>115.2</ele><time>2026-05-03T10:24:39.299Z</time></trkpt><trkpt lat="44.9136869" lon="8.4379357"><ele>115.4</ele><time>2026-05-03T10:24:40.3Z</time></trkpt><trkpt lat="44.9137816" lon="8.4379417"><ele>115.6</ele><time>2026-05-03T10:24:41.299Z</time></trkpt><trkpt lat="44.9138734" lon="8.4379493"><ele>115.8</ele><time>2026-05-03T10:24:42.299Z</time></trkpt><trkpt lat="44.9139631" lon="8.4379587"><ele>116.0</ele><time>2026-05-03T10:24:43.299Z</time></trkpt><trkpt lat="44.9140517" lon="8.4379676"><ele>115.66666666666666</ele><time>2026-05-03T10:24:44.3Z</time></trkpt><trkpt lat="44.9141401" lon="8.4379768"><ele>115.33333333333333</ele><time>2026-05-03T10:24:45.3Z</time></trkpt><trkpt lat="44.9142288" lon="8.437984"><ele>115.0</ele><time>2026-05-03T10:24:46.3Z</time></trkpt><trkpt lat="44.9143163" lon="8.4379891"><ele>114.66666666666666</ele><time>2026-05-03T10:24:47.299Z</time></trkpt><trkpt lat="44.9144025" lon="8.4379926"><ele>114.33333333333333</ele><time>2026-05-03T10:24:48.3Z</time></trkpt><trkpt lat="44.9144888" lon="8.4379958"><ele>114.0</ele><time>2026-05-03T10:24:49.299Z</time></trkpt><trkpt lat="44.914574" lon="8.4379995"><ele>114.33333333333333</ele><time>2026-05-03T10:24:50.3Z</time></trkpt><trkpt lat="44.9146582" lon="8.4380011"><ele>114.66666666666666</ele><time>2026-05-03T10:24:51.301Z</time></trkpt><trkpt lat="44.9147445" lon="8.4379947"><ele>115.0</ele><time>2026-05-03T10:24:52.3Z</time></trkpt><trkpt lat="44.9148308" lon="8.4379851"><ele>115.33333333333333</ele><time>2026-05-03T10:24:53.3Z</time></trkpt><trkpt lat="44.9149194" lon="8.4379737"><ele>115.66666666666666</ele><time>2026-05-03T10:24:54.301Z</time></trkpt><trkpt lat="44.9150046" lon="8.4379553"><ele>116.0</ele><time>2026-05-03T10:24:55.3Z</time></trkpt><trkpt lat="44.9150888" lon="8.4379346"><ele>116.16666666666666</ele><time>2026-05-03T10:24:56.3Z</time></trkpt><trkpt lat="44.915172" lon="8.4379128"><ele>116.33333333333333</ele><time>2026-05-03T10:24:57.3Z</time></trkpt><trkpt lat="44.9152557" lon="8.4378882"><ele>116.5</ele><time>2026-05-03T10:24:58.3Z</time></trkpt><trkpt lat="44.9153387" lon="8.4378634"><ele>116.66666666666666</ele><time>2026-05-03T10:24:59.3Z</time></trkpt><trkpt lat="44.9154231" lon="8.4378342"><ele>116.83333333333333</ele><time>2026-05-03T10:25:00.3Z</time></trkpt><trkpt lat="44.9155091" lon="8.4377983"><ele>117.0</ele><time>2026-05-03T10:25:01.3Z</time></trkpt><trkpt lat="44.9155967" lon="8.4377586"><ele>117.0</ele><time>2026-05-03T10:25:02.3Z</time></trkpt><trkpt lat="44.9156888" lon="8.4377186"><ele>116.99999999999999</ele><time>2026-05-03T10:25:03.3Z</time></trkpt><trkpt lat="44.9157873" lon="8.437679"><ele>116.99999999999999</ele><time>2026-05-03T10:25:04.301Z</time></trkpt><trkpt lat="44.9158856" lon="8.4376416"><ele>117.0</ele><time>2026-05-03T10:25:05.3Z</time></trkpt><trkpt lat="44.9159823" lon="8.4376014"><ele>117.0</ele><time>2026-05-03T10:25:06.3Z</time></trkpt><trkpt lat="44.9160684" lon="8.4375618"><ele>116.39999999999999</ele><time>2026-05-03T10:25:07.3Z</time></trkpt><trkpt lat="44.9161528" lon="8.4375138"><ele>115.79999999999998</ele><time>2026-05-03T10:25:08.301Z</time></trkpt><trkpt lat="44.9162359" lon="8.4374555"><ele>115.2</ele><time>2026-05-03T10:25:09.301Z</time></trkpt><trkpt lat="44.9163183" lon="8.4373859"><ele>114.6</ele><time>2026-05-03T10:25:10.3Z</time></trkpt><trkpt lat="44.9163984" lon="8.4373055"><ele>114.0</ele><time>2026-05-03T10:25:11.301Z</time></trkpt><trkpt lat="44.9164756" lon="8.4372211"><ele>114.0</ele><time>2026-05-03T10:25:12.3Z</time></trkpt><trkpt lat="44.9165499" lon="8.4371299"><ele>114.0</ele><time>2026-05-03T10:25:13.3Z</time></trkpt><trkpt lat="44.9166218" lon="8.4370363"><ele>114.0</ele><time>2026-05-03T10:25:14.3Z</time></trkpt><trkpt lat="44.9166947" lon="8.4369417"><ele>114.0</ele><time>2026-05-03T10:25:15.301Z</time></trkpt><trkpt lat="44.9167678" lon="8.4368458"><ele>114.0</ele><time>2026-05-03T10:25:16.3Z</time></trkpt><trkpt lat="44.9168379" lon="8.4367534"><ele>113.80000000000001</ele><time>2026-05-03T10:25:17.3Z</time></trkpt><trkpt lat="44.9169117" lon="8.4366574"><ele>113.60000000000001</ele><time>2026-05-03T10:25:18.3Z</time></trkpt><trkpt lat="44.9169889" lon="8.4365572"><ele>113.4</ele><time>2026-05-03T10:25:19.3Z</time></trkpt><trkpt lat="44.9170639" lon="8.4364586"><ele>113.2</ele><time>2026-05-03T10:25:20.3Z</time></trkpt><trkpt lat="44.9171372" lon="8.4363621"><ele>113.0</ele><time>2026-05-03T10:25:21.3Z</time></trkpt><trkpt lat="44.9172103" lon="8.4362683"><ele>113.0</ele><time>2026-05-03T10:25:22.3Z</time></trkpt><trkpt lat="44.9172874" lon="8.4361767"><ele>113.00000000000001</ele><time>2026-05-03T10:25:23.301Z</time></trkpt><trkpt lat="44.9173655" lon="8.4360895"><ele>113.00000000000001</ele><time>2026-05-03T10:25:24.3Z</time></trkpt><trkpt lat="44.9174424" lon="8.4360044"><ele>113.0</ele><time>2026-05-03T10:25:25.3Z</time></trkpt><trkpt lat="44.9175174" lon="8.4359292"><ele>113.0</ele><time>2026-05-03T10:25:26.301Z</time></trkpt><trkpt lat="44.917607" lon="8.4358512"><ele>112.4</ele><time>2026-05-03T10:25:27.3Z</time></trkpt><trkpt lat="44.9177014" lon="8.4357831"><ele>111.80000000000001</ele><time>2026-05-03T10:25:28.301Z</time></trkpt><trkpt lat="44.9177895" lon="8.435715"><ele>111.2</ele><time>2026-05-03T10:25:29.3Z</time></trkpt><trkpt lat="44.9178771" lon="8.435642"><ele>110.6</ele><time>2026-05-03T10:25:30.301Z</time></trkpt><trkpt lat="44.9179657" lon="8.4355631"><ele>110.0</ele><time>2026-05-03T10:25:31.301Z</time></trkpt><trkpt lat="44.9180504" lon="8.4354862"><ele>110.0</ele><time>2026-05-03T10:25:32.3Z</time></trkpt><trkpt lat="44.9181364" lon="8.4354099"><ele>110.0</ele><time>2026-05-03T10:25:33.3Z</time></trkpt><trkpt lat="44.9182167" lon="8.4353403"><ele>110.0</ele><time>2026-05-03T10:25:34.301Z</time></trkpt><trkpt lat="44.9182962" lon="8.4352733"><ele>110.0</ele><time>2026-05-03T10:25:35.3Z</time></trkpt><trkpt lat="44.9183747" lon="8.4352112"><ele>110.0</ele><time>2026-05-03T10:25:36.301Z</time></trkpt><trkpt lat="44.9184509" lon="8.4351558"><ele>110.66666666666666</ele><time>2026-05-03T10:25:37.301Z</time></trkpt><trkpt lat="44.9185312" lon="8.4351053"><ele>111.33333333333333</ele><time>2026-05-03T10:25:38.301Z</time></trkpt><trkpt lat="44.9186125" lon="8.4350607"><ele>112.0</ele><time>2026-05-03T10:25:39.301Z</time></trkpt><trkpt lat="44.9186943" lon="8.4350215"><ele>112.66666666666666</ele><time>2026-05-03T10:25:40.302Z</time></trkpt><trkpt lat="44.9187779" lon="8.4349891"><ele>113.33333333333333</ele><time>2026-05-03T10:25:41.301Z</time></trkpt><trkpt lat="44.9188606" lon="8.4349623"><ele>114.0</ele><time>2026-05-03T10:25:42.301Z</time></trkpt><trkpt lat="44.9189451" lon="8.4349425"><ele>114.0</ele><time>2026-05-03T10:25:43.301Z</time></trkpt><trkpt lat="44.9190328" lon="8.4349314"><ele>114.0</ele><time>2026-05-03T10:25:44.302Z</time></trkpt><trkpt lat="44.9191212" lon="8.4349285"><ele>114.0</ele><time>2026-05-03T10:25:45.302Z</time></trkpt><trkpt lat="44.9192105" lon="8.4349289"><ele>114.0</ele><time>2026-05-03T10:25:46.301Z</time></trkpt><trkpt lat="44.9192982" lon="8.4349307"><ele>114.0</ele><time>2026-05-03T10:25:47.301Z</time></trkpt><trkpt lat="44.9193856" lon="8.434933"><ele>114.0</ele><time>2026-05-03T10:25:48.301Z</time></trkpt><trkpt lat="44.919473" lon="8.4349358"><ele>114.80000000000001</ele><time>2026-05-03T10:25:49.301Z</time></trkpt><trkpt lat="44.9195641" lon="8.4349367"><ele>115.60000000000001</ele><time>2026-05-03T10:25:50.301Z</time></trkpt><trkpt lat="44.9196534" lon="8.4349342"><ele>116.4</ele><time>2026-05-03T10:25:51.302Z</time></trkpt><trkpt lat="44.9197474" lon="8.4349328"><ele>117.2</ele><time>2026-05-03T10:25:52.301Z</time></trkpt><trkpt lat="44.9198474" lon="8.434933"><ele>118.0</ele><time>2026-05-03T10:25:53.301Z</time></trkpt><trkpt lat="44.9199508" lon="8.4349345"><ele>118.0</ele><time>2026-05-03T10:25:54.302Z</time></trkpt><trkpt lat="44.9200561" lon="8.4349326"><ele>118.00000000000001</ele><time>2026-05-03T10:25:55.302Z</time></trkpt><trkpt lat="44.9201604" lon="8.434927"><ele>118.00000000000001</ele><time>2026-05-03T10:25:56.302Z</time></trkpt><trkpt lat="44.9202632" lon="8.4349215"><ele>118.0</ele><time>2026-05-03T10:25:57.301Z</time></trkpt><trkpt lat="44.920366" lon="8.4349212"><ele>118.0</ele><time>2026-05-03T10:25:58.301Z</time></trkpt><trkpt lat="44.9204665" lon="8.4349231"><ele>117.80000000000001</ele><time>2026-05-03T10:25:59.301Z</time></trkpt><trkpt lat="44.9205661" lon="8.4349238"><ele>117.60000000000001</ele><time>2026-05-03T10:26:00.301Z</time></trkpt><trkpt lat="44.920662" lon="8.4349183"><ele>117.39999999999999</ele><time>2026-05-03T10:26:01.301Z</time></trkpt><trkpt lat="44.9207551" lon="8.4349134"><ele>117.19999999999999</ele><time>2026-05-03T10:26:02.301Z</time></trkpt><trkpt lat="44.92085" lon="8.4349092"><ele>117.0</ele><time>2026-05-03T10:26:03.302Z</time></trkpt><trkpt lat="44.9209468" lon="8.4349044"><ele>116.8</ele><time>2026-05-03T10:26:04.302Z</time></trkpt><trkpt lat="44.9210435" lon="8.4349007"><ele>116.6</ele><time>2026-05-03T10:26:05.301Z</time></trkpt><trkpt lat="44.9211383" lon="8.4349031"><ele>116.39999999999999</ele><time>2026-05-03T10:26:06.302Z</time></trkpt><trkpt lat="44.9212334" lon="8.434902"><ele>116.19999999999999</ele><time>2026-05-03T10:26:07.301Z</time></trkpt><trkpt lat="44.9213284" lon="8.4348983"><ele>116.0</ele><time>2026-05-03T10:26:08.301Z</time></trkpt><trkpt lat="44.9214255" lon="8.4348954"><ele>116.0</ele><time>2026-05-03T10:26:09.301Z</time></trkpt><trkpt lat="44.9215227" lon="8.4348952"><ele>116.0</ele><time>2026-05-03T10:26:10.302Z</time></trkpt><trkpt lat="44.9216187" lon="8.4348969"><ele>116.0</ele><time>2026-05-03T10:26:11.301Z</time></trkpt><trkpt lat="44.9217141" lon="8.4348971"><ele>116.0</ele><time>2026-05-03T10:26:12.302Z</time></trkpt><trkpt lat="44.921808" lon="8.434897"><ele>116.0</ele><time>2026-05-03T10:26:13.302Z</time></trkpt><trkpt lat="44.9219007" lon="8.4348969"><ele>116.8</ele><time>2026-05-03T10:26:14.301Z</time></trkpt><trkpt lat="44.9219926" lon="8.4348959"><ele>117.6</ele><time>2026-05-03T10:26:15.302Z</time></trkpt><trkpt lat="44.9220844" lon="8.4348915"><ele>118.4</ele><time>2026-05-03T10:26:16.301Z</time></trkpt><trkpt lat="44.9221753" lon="8.4348861"><ele>119.2</ele><time>2026-05-03T10:26:17.301Z</time></trkpt><trkpt lat="44.9222648" lon="8.434883"><ele>120.0</ele><time>2026-05-03T10:26:18.301Z</time></trkpt><trkpt lat="44.9223527" lon="8.4348799"><ele>120.0</ele><time>2026-05-03T10:26:19.301Z</time></trkpt><trkpt lat="44.9224425" lon="8.4348795"><ele>120.0</ele><time>2026-05-03T10:26:20.301Z</time></trkpt><trkpt lat="44.922535" lon="8.4348815"><ele>120.0</ele><time>2026-05-03T10:26:21.301Z</time></trkpt><trkpt lat="44.9226271" lon="8.4348814"><ele>120.0</ele><time>2026-05-03T10:26:22.301Z</time></trkpt><trkpt lat="44.9227194" lon="8.4348812"><ele>120.0</ele><time>2026-05-03T10:26:23.301Z</time></trkpt><trkpt lat="44.9228109" lon="8.4348835"><ele>120.6</ele><time>2026-05-03T10:26:24.301Z</time></trkpt><trkpt lat="44.9229015" lon="8.4348832"><ele>121.2</ele><time>2026-05-03T10:26:25.301Z</time></trkpt><trkpt lat="44.9229934" lon="8.4348808"><ele>121.80000000000001</ele><time>2026-05-03T10:26:26.302Z</time></trkpt><trkpt lat="44.923084" lon="8.4348796"><ele>122.4</ele><time>2026-05-03T10:26:27.302Z</time></trkpt><trkpt lat="44.9231753" lon="8.4348796"><ele>123.0</ele><time>2026-05-03T10:26:28.302Z</time></trkpt><trkpt lat="44.9232664" lon="8.4348788"><ele>123.0</ele><time>2026-05-03T10:26:29.302Z</time></trkpt><trkpt lat="44.9233564" lon="8.4348772"><ele>123.00000000000001</ele><time>2026-05-03T10:26:30.302Z</time></trkpt><trkpt lat="44.9234473" lon="8.4348764"><ele>123.00000000000001</ele><time>2026-05-03T10:26:31.302Z</time></trkpt><trkpt lat="44.923538" lon="8.4348745"><ele>123.0</ele><time>2026-05-03T10:26:32.302Z</time></trkpt><trkpt lat="44.9236283" lon="8.4348727"><ele>123.0</ele><time>2026-05-03T10:26:33.302Z</time></trkpt><trkpt lat="44.9237172" lon="8.4348725"><ele>123.4</ele><time>2026-05-03T10:26:34.303Z</time></trkpt><trkpt lat="44.9238064" lon="8.4348723"><ele>123.80000000000001</ele><time>2026-05-03T10:26:35.303Z</time></trkpt><trkpt lat="44.9238981" lon="8.4348714"><ele>124.2</ele><time>2026-05-03T10:26:36.302Z</time></trkpt><trkpt lat="44.9239911" lon="8.4348693"><ele>124.6</ele><time>2026-05-03T10:26:37.302Z</time></trkpt><trkpt lat="44.9240846" lon="8.4348673"><ele>125.0</ele><time>2026-05-03T10:26:38.302Z</time></trkpt><trkpt lat="44.9241774" lon="8.4348654"><ele>125.0</ele><time>2026-05-03T10:26:39.302Z</time></trkpt><trkpt lat="44.9242698" lon="8.4348645"><ele>125.0</ele><time>2026-05-03T10:26:40.302Z</time></trkpt><trkpt lat="44.9243613" lon="8.4348634"><ele>125.0</ele><time>2026-05-03T10:26:41.303Z</time></trkpt><trkpt lat="44.9244533" lon="8.4348626"><ele>125.0</ele><time>2026-05-03T10:26:42.303Z</time></trkpt><trkpt lat="44.9245455" lon="8.4348652"><ele>125.0</ele><time>2026-05-03T10:26:43.303Z</time></trkpt><trkpt lat="44.9246374" lon="8.4348728"><ele>125.0</ele><time>2026-05-03T10:26:44.303Z</time></trkpt><trkpt lat="44.9247302" lon="8.4348888"><ele>125.0</ele><time>2026-05-03T10:26:45.302Z</time></trkpt><trkpt lat="44.9248239" lon="8.4349132"><ele>125.0</ele><time>2026-05-03T10:26:46.302Z</time></trkpt><trkpt lat="44.9249169" lon="8.434944"><ele>125.0</ele><time>2026-05-03T10:26:47.303Z</time></trkpt><trkpt lat="44.9250101" lon="8.43498"><ele>125.0</ele><time>2026-05-03T10:26:48.302Z</time></trkpt><trkpt lat="44.9251027" lon="8.4350177"><ele>125.0</ele><time>2026-05-03T10:26:49.303Z</time></trkpt><trkpt lat="44.9251954" lon="8.4350625"><ele>125.0</ele><time>2026-05-03T10:26:50.303Z</time></trkpt><trkpt lat="44.9252871" lon="8.4351144"><ele>125.0</ele><time>2026-05-03T10:26:51.302Z</time></trkpt><trkpt lat="44.9253776" lon="8.4351669"><ele>125.0</ele><time>2026-05-03T10:26:52.303Z</time></trkpt><trkpt lat="44.9254667" lon="8.4352198"><ele>125.0</ele><time>2026-05-03T10:26:53.303Z</time></trkpt><trkpt lat="44.9255552" lon="8.4352744"><ele>125.0</ele><time>2026-05-03T10:26:54.303Z</time></trkpt><trkpt lat="44.9256415" lon="8.4353341"><ele>125.0</ele><time>2026-05-03T10:26:55.302Z</time></trkpt><trkpt lat="44.9257259" lon="8.4354037"><ele>125.0</ele><time>2026-05-03T10:26:56.302Z</time></trkpt><trkpt lat="44.9258088" lon="8.4354817"><ele>125.0</ele><time>2026-05-03T10:26:57.302Z</time></trkpt><trkpt lat="44.9258934" lon="8.4355618"><ele>125.0</ele><time>2026-05-03T10:26:58.302Z</time></trkpt><trkpt lat="44.9259798" lon="8.4356373"><ele>125.0</ele><time>2026-05-03T10:26:59.302Z</time></trkpt><trkpt lat="44.9260656" lon="8.4357074"><ele>125.0</ele><time>2026-05-03T10:27:00.303Z</time></trkpt><trkpt lat="44.9261473" lon="8.4357735"><ele>125.0</ele><time>2026-05-03T10:27:01.303Z</time></trkpt><trkpt lat="44.9262284" lon="8.4358349"><ele>125.0</ele><time>2026-05-03T10:27:02.303Z</time></trkpt><trkpt lat="44.926313" lon="8.4358896"><ele>125.0</ele><time>2026-05-03T10:27:03.302Z</time></trkpt><trkpt lat="44.9264027" lon="8.4359367"><ele>125.0</ele><time>2026-05-03T10:27:04.302Z</time></trkpt><trkpt lat="44.9264969" lon="8.4359754"><ele>125.0</ele><time>2026-05-03T10:27:05.303Z</time></trkpt><trkpt lat="44.9265931" lon="8.4360079"><ele>125.0</ele><time>2026-05-03T10:27:06.302Z</time></trkpt><trkpt lat="44.9266897" lon="8.4360342"><ele>125.0</ele><time>2026-05-03T10:27:07.302Z</time></trkpt><trkpt lat="44.926786" lon="8.4360505"><ele>125.0</ele><time>2026-05-03T10:27:08.302Z</time></trkpt><trkpt lat="44.9268844" lon="8.4360546"><ele>125.8</ele><time>2026-05-03T10:27:09.303Z</time></trkpt><trkpt lat="44.9269828" lon="8.4360501"><ele>126.6</ele><time>2026-05-03T10:27:10.302Z</time></trkpt><trkpt lat="44.9270799" lon="8.436041"><ele>127.4</ele><time>2026-05-03T10:27:11.302Z</time></trkpt><trkpt lat="44.9271757" lon="8.4360265"><ele>128.2</ele><time>2026-05-03T10:27:12.302Z</time></trkpt><trkpt lat="44.9272706" lon="8.4360065"><ele>129.0</ele><time>2026-05-03T10:27:13.302Z</time></trkpt><trkpt lat="44.9273659" lon="8.4359825"><ele>129.0</ele><time>2026-05-03T10:27:14.302Z</time></trkpt><trkpt lat="44.9274613" lon="8.435957"><ele>129.0</ele><time>2026-05-03T10:27:15.302Z</time></trkpt><trkpt lat="44.927557" lon="8.4359306"><ele>129.0</ele><time>2026-05-03T10:27:16.303Z</time></trkpt><trkpt lat="44.9276534" lon="8.4359081"><ele>129.0</ele><time>2026-05-03T10:27:17.303Z</time></trkpt><trkpt lat="44.92775" lon="8.4358881"><ele>129.0</ele><time>2026-05-03T10:27:18.304Z</time></trkpt><trkpt lat="44.9278468" lon="8.435867"><ele>128.6</ele><time>2026-05-03T10:27:19.304Z</time></trkpt><trkpt lat="44.9279426" lon="8.4358429"><ele>128.2</ele><time>2026-05-03T10:27:20.303Z</time></trkpt><trkpt lat="44.9280379" lon="8.4358186"><ele>127.79999999999998</ele><time>2026-05-03T10:27:21.303Z</time></trkpt><trkpt lat="44.928133" lon="8.4357971"><ele>127.39999999999999</ele><time>2026-05-03T10:27:22.303Z</time></trkpt><trkpt lat="44.9282282" lon="8.4357772"><ele>127.0</ele><time>2026-05-03T10:27:23.303Z</time></trkpt><trkpt lat="44.9283235" lon="8.4357574"><ele>127.39999999999999</ele><time>2026-05-03T10:27:24.304Z</time></trkpt><trkpt lat="44.9284173" lon="8.4357375"><ele>127.79999999999998</ele><time>2026-05-03T10:27:25.303Z</time></trkpt><trkpt lat="44.9285082" lon="8.4357167"><ele>128.2</ele><time>2026-05-03T10:27:26.303Z</time></trkpt><trkpt lat="44.9285993" lon="8.4356958"><ele>128.6</ele><time>2026-05-03T10:27:27.303Z</time></trkpt><trkpt lat="44.9286906" lon="8.4356759"><ele>129.0</ele><time>2026-05-03T10:27:28.304Z</time></trkpt><trkpt lat="44.9287824" lon="8.4356551"><ele>129.0</ele><time>2026-05-03T10:27:29.303Z</time></trkpt><trkpt lat="44.9288744" lon="8.4356339"><ele>129.0</ele><time>2026-05-03T10:27:30.304Z</time></trkpt><trkpt lat="44.9289659" lon="8.435613"><ele>129.0</ele><time>2026-05-03T10:27:31.303Z</time></trkpt><trkpt lat="44.9290566" lon="8.4355932"><ele>129.0</ele><time>2026-05-03T10:27:32.303Z</time></trkpt><trkpt lat="44.9291482" lon="8.4355734"><ele>129.0</ele><time>2026-05-03T10:27:33.303Z</time></trkpt><trkpt lat="44.9292397" lon="8.435553"><ele>128.6</ele><time>2026-05-03T10:27:34.304Z</time></trkpt><trkpt lat="44.9293309" lon="8.435533"><ele>128.2</ele><time>2026-05-03T10:27:35.303Z</time></trkpt><trkpt lat="44.9294215" lon="8.4355131"><ele>127.79999999999998</ele><time>2026-05-03T10:27:36.303Z</time></trkpt><trkpt lat="44.9295113" lon="8.4354947"><ele>127.39999999999999</ele><time>2026-05-03T10:27:37.304Z</time></trkpt><trkpt lat="44.9296024" lon="8.4354761"><ele>127.0</ele><time>2026-05-03T10:27:38.303Z</time></trkpt><trkpt lat="44.9296948" lon="8.4354568"><ele>127.8</ele><time>2026-05-03T10:27:39.303Z</time></trkpt><trkpt lat="44.9297874" lon="8.4354367"><ele>128.6</ele><time>2026-05-03T10:27:40.303Z</time></trkpt><trkpt lat="44.9298796" lon="8.4354165"><ele>129.39999999999998</ele><time>2026-05-03T10:27:41.303Z</time></trkpt><trkpt lat="44.9299726" lon="8.4353965"><ele>130.2</ele><time>2026-05-03T10:27:42.303Z</time></trkpt><trkpt lat="44.9300655" lon="8.4353764"><ele>131.0</ele><time>2026-05-03T10:27:43.303Z</time></trkpt><trkpt lat="44.9301592" lon="8.4353532"><ele>131.0</ele><time>2026-05-03T10:27:44.304Z</time></trkpt><trkpt lat="44.9302523" lon="8.435329"><ele>131.0</ele><time>2026-05-03T10:27:45.303Z</time></trkpt><trkpt lat="44.9303468" lon="8.435307"><ele>131.0</ele><time>2026-05-03T10:27:46.303Z</time></trkpt><trkpt lat="44.9304427" lon="8.4352868"><ele>131.0</ele><time>2026-05-03T10:27:47.303Z</time></trkpt><trkpt lat="44.9305395" lon="8.4352687"><ele>131.0</ele><time>2026-05-03T10:27:48.303Z</time></trkpt><trkpt lat="44.9306361" lon="8.4352495"><ele>131.0</ele><time>2026-05-03T10:27:49.303Z</time></trkpt><trkpt lat="44.9307319" lon="8.4352286"><ele>131.0</ele><time>2026-05-03T10:27:50.303Z</time></trkpt><trkpt lat="44.9308281" lon="8.4352065"><ele>131.0</ele><time>2026-05-03T10:27:51.303Z</time></trkpt><trkpt lat="44.930925" lon="8.435185"><ele>131.0</ele><time>2026-05-03T10:27:52.303Z</time></trkpt><trkpt lat="44.9310212" lon="8.4351658"><ele>131.0</ele><time>2026-05-03T10:27:53.303Z</time></trkpt><trkpt lat="44.9311175" lon="8.4351453"><ele>131.2</ele><time>2026-05-03T10:27:54.303Z</time></trkpt><trkpt lat="44.9312128" lon="8.4351205"><ele>131.39999999999998</ele><time>2026-05-03T10:27:55.304Z</time></trkpt><trkpt lat="44.9313086" lon="8.4350955"><ele>131.6</ele><time>2026-05-03T10:27:56.304Z</time></trkpt><trkpt lat="44.9314069" lon="8.4350721"><ele>131.79999999999998</ele><time>2026-05-03T10:27:57.303Z</time></trkpt><trkpt lat="44.9315085" lon="8.4350528"><ele>132.0</ele><time>2026-05-03T10:27:58.303Z</time></trkpt><trkpt lat="44.931611" lon="8.4350376"><ele>132.0</ele><time>2026-05-03T10:27:59.303Z</time></trkpt><trkpt lat="44.9317114" lon="8.4350224"><ele>132.0</ele><time>2026-05-03T10:28:00.303Z</time></trkpt><trkpt lat="44.9318097" lon="8.4350036"><ele>132.0</ele><time>2026-05-03T10:28:01.304Z</time></trkpt><trkpt lat="44.9319087" lon="8.4349801"><ele>132.0</ele><time>2026-05-03T10:28:02.304Z</time></trkpt><trkpt lat="44.9320093" lon="8.4349553"><ele>132.0</ele><time>2026-05-03T10:28:03.305Z</time></trkpt><trkpt lat="44.9321082" lon="8.4349331"><ele>131.6</ele><time>2026-05-03T10:28:04.303Z</time></trkpt><trkpt lat="44.9322076" lon="8.4349104"><ele>131.2</ele><time>2026-05-03T10:28:05.305Z</time></trkpt><trkpt lat="44.9323147" lon="8.4348978"><ele>130.8</ele><time>2026-05-03T10:28:06.305Z</time></trkpt><trkpt lat="44.9324228" lon="8.4348972"><ele>130.4</ele><time>2026-05-03T10:28:07.304Z</time></trkpt><trkpt lat="44.9325277" lon="8.4349032"><ele>130.0</ele><time>2026-05-03T10:28:08.305Z</time></trkpt><trkpt lat="44.9326267" lon="8.434911"><ele>129.8</ele><time>2026-05-03T10:28:09.305Z</time></trkpt><trkpt lat="44.9327251" lon="8.4349209"><ele>129.6</ele><time>2026-05-03T10:28:10.304Z</time></trkpt><trkpt lat="44.9328233" lon="8.4349351"><ele>129.4</ele><time>2026-05-03T10:28:11.305Z</time></trkpt><trkpt lat="44.9329218" lon="8.4349551"><ele>129.2</ele><time>2026-05-03T10:28:12.304Z</time></trkpt><trkpt lat="44.9330205" lon="8.4349815"><ele>129.0</ele><time>2026-05-03T10:28:13.305Z</time></trkpt><trkpt lat="44.9331186" lon="8.4350094"><ele>129.0</ele><time>2026-05-03T10:28:14.304Z</time></trkpt><trkpt lat="44.9332153" lon="8.4350433"><ele>129.0</ele><time>2026-05-03T10:28:15.304Z</time></trkpt><trkpt lat="44.9333096" lon="8.4350842"><ele>129.0</ele><time>2026-05-03T10:28:16.305Z</time></trkpt><trkpt lat="44.9334036" lon="8.4351287"><ele>129.0</ele><time>2026-05-03T10:28:17.305Z</time></trkpt><trkpt lat="44.933497" lon="8.4351756"><ele>129.0</ele><time>2026-05-03T10:28:18.304Z</time></trkpt><trkpt lat="44.9335887" lon="8.4352256"><ele>128.8</ele><time>2026-05-03T10:28:19.305Z</time></trkpt><trkpt lat="44.9336789" lon="8.4352818"><ele>128.60000000000002</ele><time>2026-05-03T10:28:20.305Z</time></trkpt><trkpt lat="44.9337683" lon="8.4353418"><ele>128.4</ele><time>2026-05-03T10:28:21.305Z</time></trkpt><trkpt lat="44.9338578" lon="8.4354008"><ele>128.20000000000002</ele><time>2026-05-03T10:28:22.304Z</time></trkpt><trkpt lat="44.9339471" lon="8.4354572"><ele>128.0</ele><time>2026-05-03T10:28:23.305Z</time></trkpt><trkpt lat="44.9340354" lon="8.4355129"><ele>127.80000000000001</ele><time>2026-05-03T10:28:24.304Z</time></trkpt><trkpt lat="44.9341234" lon="8.4355702"><ele>127.60000000000001</ele><time>2026-05-03T10:28:25.304Z</time></trkpt><trkpt lat="44.9342104" lon="8.4356261"><ele>127.39999999999999</ele><time>2026-05-03T10:28:26.304Z</time></trkpt><trkpt lat="44.9342972" lon="8.4356802"><ele>127.19999999999999</ele><time>2026-05-03T10:28:27.304Z</time></trkpt><trkpt lat="44.9343855" lon="8.4357321"><ele>127.0</ele><time>2026-05-03T10:28:28.304Z</time></trkpt><trkpt lat="44.9344744" lon="8.4357852"><ele>127.6</ele><time>2026-05-03T10:28:29.304Z</time></trkpt><trkpt lat="44.934563" lon="8.435837"><ele>128.2</ele><time>2026-05-03T10:28:30.304Z</time></trkpt><trkpt lat="44.9346502" lon="8.4358888"><ele>128.8</ele><time>2026-05-03T10:28:31.305Z</time></trkpt><trkpt lat="44.9347371" lon="8.4359412"><ele>129.4</ele><time>2026-05-03T10:28:32.305Z</time></trkpt><trkpt lat="44.9348244" lon="8.4359953"><ele>130.0</ele><time>2026-05-03T10:28:33.304Z</time></trkpt><trkpt lat="44.9349126" lon="8.4360508"><ele>130.0</ele><time>2026-05-03T10:28:34.304Z</time></trkpt><trkpt lat="44.9350007" lon="8.4361065"><ele>130.0</ele><time>2026-05-03T10:28:35.305Z</time></trkpt><trkpt lat="44.9350903" lon="8.4361608"><ele>130.0</ele><time>2026-05-03T10:28:36.305Z</time></trkpt><trkpt lat="44.9351803" lon="8.4362118"><ele>130.0</ele><time>2026-05-03T10:28:37.305Z</time></trkpt><trkpt lat="44.9352694" lon="8.436263"><ele>130.0</ele><time>2026-05-03T10:28:38.304Z</time></trkpt><trkpt lat="44.9353565" lon="8.4363178"><ele>130.0</ele><time>2026-05-03T10:28:39.304Z</time></trkpt><trkpt lat="44.9354442" lon="8.4363738"><ele>130.0</ele><time>2026-05-03T10:28:40.305Z</time></trkpt><trkpt lat="44.9355326" lon="8.4364289"><ele>130.0</ele><time>2026-05-03T10:28:41.306Z</time></trkpt><trkpt lat="44.935622" lon="8.436484"><ele>130.0</ele><time>2026-05-03T10:28:42.304Z</time></trkpt><trkpt lat="44.9357117" lon="8.4365364"><ele>130.0</ele><time>2026-05-03T10:28:43.304Z</time></trkpt><trkpt lat="44.9358015" lon="8.4365873"><ele>129.8</ele><time>2026-05-03T10:28:44.304Z</time></trkpt><trkpt lat="44.9358916" lon="8.4366361"><ele>129.6</ele><time>2026-05-03T10:28:45.304Z</time></trkpt><trkpt lat="44.9359821" lon="8.436679"><ele>129.4</ele><time>2026-05-03T10:28:46.305Z</time></trkpt><trkpt lat="44.9360736" lon="8.4367168"><ele>129.2</ele><time>2026-05-03T10:28:47.304Z</time></trkpt><trkpt lat="44.9361659" lon="8.436748"><ele>129.0</ele><time>2026-05-03T10:28:48.304Z</time></trkpt><trkpt lat="44.9362598" lon="8.436776"><ele>129.0</ele><time>2026-05-03T10:28:49.304Z</time></trkpt><trkpt lat="44.9363532" lon="8.4368047"><ele>129.0</ele><time>2026-05-03T10:28:50.304Z</time></trkpt><trkpt lat="44.9364474" lon="8.4368302"><ele>129.0</ele><time>2026-05-03T10:28:51.305Z</time></trkpt><trkpt lat="44.9365405" lon="8.4368529"><ele>129.0</ele><time>2026-05-03T10:28:52.304Z</time></trkpt><trkpt lat="44.9366348" lon="8.4368738"><ele>129.0</ele><time>2026-05-03T10:28:53.305Z</time></trkpt><trkpt lat="44.9367286" lon="8.4368938"><ele>129.6</ele><time>2026-05-03T10:28:54.306Z</time></trkpt><trkpt lat="44.9368231" lon="8.4369151"><ele>130.2</ele><time>2026-05-03T10:28:55.306Z</time></trkpt><trkpt lat="44.9369178" lon="8.4369363"><ele>130.79999999999998</ele><time>2026-05-03T10:28:56.306Z</time></trkpt><trkpt lat="44.9370142" lon="8.4369564"><ele>131.4</ele><time>2026-05-03T10:28:57.305Z</time></trkpt><trkpt lat="44.9371083" lon="8.4369794"><ele>132.0</ele><time>2026-05-03T10:28:58.306Z</time></trkpt><trkpt lat="44.937201" lon="8.4370021"><ele>132.0</ele><time>2026-05-03T10:28:59.306Z</time></trkpt><trkpt lat="44.9372945" lon="8.4370244"><ele>132.0</ele><time>2026-05-03T10:29:00.306Z</time></trkpt><trkpt lat="44.9373896" lon="8.4370465"><ele>132.0</ele><time>2026-05-03T10:29:01.306Z</time></trkpt><trkpt lat="44.9374854" lon="8.437068"><ele>132.0</ele><time>2026-05-03T10:29:02.305Z</time></trkpt><trkpt lat="44.9375808" lon="8.4370847"><ele>132.0</ele><time>2026-05-03T10:29:03.305Z</time></trkpt><trkpt lat="44.9376759" lon="8.4370975"><ele>132.2</ele><time>2026-05-03T10:29:04.305Z</time></trkpt><trkpt lat="44.9377709" lon="8.4371075"><ele>132.39999999999998</ele><time>2026-05-03T10:29:05.305Z</time></trkpt><trkpt lat="44.937867" lon="8.4371145"><ele>132.60000000000002</ele><time>2026-05-03T10:29:06.305Z</time></trkpt><trkpt lat="44.937963" lon="8.4371174"><ele>132.8</ele><time>2026-05-03T10:29:07.305Z</time></trkpt><trkpt lat="44.9380577" lon="8.4371131"><ele>133.0</ele><time>2026-05-03T10:29:08.306Z</time></trkpt><trkpt lat="44.9381506" lon="8.4371012"><ele>133.0</ele><time>2026-05-03T10:29:09.305Z</time></trkpt><trkpt lat="44.9382427" lon="8.4370843"><ele>133.0</ele><time>2026-05-03T10:29:10.305Z</time></trkpt><trkpt lat="44.9383361" lon="8.4370657"><ele>133.0</ele><time>2026-05-03T10:29:11.306Z</time></trkpt><trkpt lat="44.9384298" lon="8.4370436"><ele>133.0</ele><time>2026-05-03T10:29:12.305Z</time></trkpt><trkpt lat="44.9385211" lon="8.4370173"><ele>133.0</ele><time>2026-05-03T10:29:13.305Z</time></trkpt><trkpt lat="44.9386107" lon="8.4369862"><ele>132.8</ele><time>2026-05-03T10:29:14.305Z</time></trkpt><trkpt lat="44.9387014" lon="8.4369569"><ele>132.60000000000002</ele><time>2026-05-03T10:29:15.306Z</time></trkpt><trkpt lat="44.9387939" lon="8.4369319"><ele>132.39999999999998</ele><time>2026-05-03T10:29:16.305Z</time></trkpt><trkpt lat="44.9388855" lon="8.4369077"><ele>132.2</ele><time>2026-05-03T10:29:17.305Z</time></trkpt><trkpt lat="44.9389759" lon="8.436882"><ele>132.0</ele><time>2026-05-03T10:29:18.306Z</time></trkpt><trkpt lat="44.9390645" lon="8.4368523"><ele>132.0</ele><time>2026-05-03T10:29:19.305Z</time></trkpt><trkpt lat="44.9391529" lon="8.436822"><ele>132.0</ele><time>2026-05-03T10:29:20.306Z</time></trkpt><trkpt lat="44.9392423" lon="8.4367935"><ele>132.0</ele><time>2026-05-03T10:29:21.306Z</time></trkpt><trkpt lat="44.9393322" lon="8.4367655"><ele>132.0</ele><time>2026-05-03T10:29:22.305Z</time></trkpt><trkpt lat="44.9394236" lon="8.4367381"><ele>132.0</ele><time>2026-05-03T10:29:23.305Z</time></trkpt><trkpt lat="44.939516" lon="8.4367151"><ele>132.6</ele><time>2026-05-03T10:29:24.305Z</time></trkpt><trkpt lat="44.939608" lon="8.4366926"><ele>133.2</ele><time>2026-05-03T10:29:25.306Z</time></trkpt><trkpt lat="44.9396984" lon="8.4366658"><ele>133.8</ele><time>2026-05-03T10:29:26.305Z</time></trkpt><trkpt lat="44.9397876" lon="8.4366367"><ele>134.4</ele><time>2026-05-03T10:29:27.305Z</time></trkpt><trkpt lat="44.9398761" lon="8.4366085"><ele>135.0</ele><time>2026-05-03T10:29:28.306Z</time></trkpt><trkpt lat="44.9399667" lon="8.4365842"><ele>134.6</ele><time>2026-05-03T10:29:29.305Z</time></trkpt><trkpt lat="44.9400582" lon="8.4365607"><ele>134.2</ele><time>2026-05-03T10:29:30.305Z</time></trkpt><trkpt lat="44.9401496" lon="8.4365337"><ele>133.8</ele><time>2026-05-03T10:29:31.306Z</time></trkpt><trkpt lat="44.9402401" lon="8.4365043"><ele>133.4</ele><time>2026-05-03T10:29:32.306Z</time></trkpt><trkpt lat="44.9403294" lon="8.4364743"><ele>133.0</ele><time>2026-05-03T10:29:33.305Z</time></trkpt><trkpt lat="44.9404184" lon="8.4364449"><ele>133.0</ele><time>2026-05-03T10:29:34.306Z</time></trkpt><trkpt lat="44.940508" lon="8.436417"><ele>133.0</ele><time>2026-05-03T10:29:35.305Z</time></trkpt><trkpt lat="44.940598" lon="8.4363905"><ele>133.0</ele><time>2026-05-03T10:29:36.305Z</time></trkpt><trkpt lat="44.9406861" lon="8.4363619"><ele>133.0</ele><time>2026-05-03T10:29:37.306Z</time></trkpt><trkpt lat="44.9407746" lon="8.4363317"><ele>133.0</ele><time>2026-05-03T10:29:38.306Z</time></trkpt><trkpt lat="44.9408639" lon="8.4363019"><ele>133.20000000000002</ele><time>2026-05-03T10:29:39.306Z</time></trkpt><trkpt lat="44.9409534" lon="8.4362688"><ele>133.4</ele><time>2026-05-03T10:29:40.305Z</time></trkpt><trkpt lat="44.9410424" lon="8.436227"><ele>133.60000000000002</ele><time>2026-05-03T10:29:41.305Z</time></trkpt><trkpt lat="44.9411315" lon="8.4361786"><ele>133.8</ele><time>2026-05-03T10:29:42.306Z</time></trkpt><trkpt lat="44.9412207" lon="8.4361276"><ele>134.0</ele><time>2026-05-03T10:29:43.306Z</time></trkpt><trkpt lat="44.9413094" lon="8.4360807"><ele>134.0</ele><time>2026-05-03T10:29:44.307Z</time></trkpt><trkpt lat="44.941399" lon="8.4360365"><ele>134.0</ele><time>2026-05-03T10:29:45.306Z</time></trkpt><trkpt lat="44.9414898" lon="8.4359914"><ele>134.0</ele><time>2026-05-03T10:29:46.306Z</time></trkpt><trkpt lat="44.941579" lon="8.4359438"><ele>134.0</ele><time>2026-05-03T10:29:47.307Z</time></trkpt><trkpt lat="44.941666" lon="8.4358945"><ele>134.0</ele><time>2026-05-03T10:29:48.307Z</time></trkpt><trkpt lat="44.941753" lon="8.4358459"><ele>134.2</ele><time>2026-05-03T10:29:49.306Z</time></trkpt><trkpt lat="44.9418401" lon="8.4357971"><ele>134.4</ele><time>2026-05-03T10:29:50.307Z</time></trkpt><trkpt lat="44.941926" lon="8.4357489"><ele>134.6</ele><time>2026-05-03T10:29:51.307Z</time></trkpt><trkpt lat="44.9420118" lon="8.4356997"><ele>134.8</ele><time>2026-05-03T10:29:52.307Z</time></trkpt><trkpt lat="44.9420972" lon="8.4356506"><ele>135.0</ele><time>2026-05-03T10:29:53.307Z</time></trkpt><trkpt lat="44.9421816" lon="8.4356022"><ele>135.0</ele><time>2026-05-03T10:29:54.306Z</time></trkpt><trkpt lat="44.9422657" lon="8.4355548"><ele>135.0</ele><time>2026-05-03T10:29:55.307Z</time></trkpt><trkpt lat="44.9423493" lon="8.4355078"><ele>135.0</ele><time>2026-05-03T10:29:56.307Z</time></trkpt><trkpt lat="44.9424313" lon="8.4354624"><ele>135.0</ele><time>2026-05-03T10:29:57.306Z</time></trkpt><trkpt lat="44.9425124" lon="8.4354181"><ele>135.0</ele><time>2026-05-03T10:29:58.307Z</time></trkpt><trkpt lat="44.9425918" lon="8.4353736"><ele>135.0</ele><time>2026-05-03T10:29:59.306Z</time></trkpt><trkpt lat="44.9426709" lon="8.4353298"><ele>134.83333333333334</ele><time>2026-05-03T10:30:00.306Z</time></trkpt><trkpt lat="44.9427513" lon="8.435285"><ele>134.66666666666666</ele><time>2026-05-03T10:30:01.306Z</time></trkpt><trkpt lat="44.9428316" lon="8.4352392"><ele>134.5</ele><time>2026-05-03T10:30:02.306Z</time></trkpt><trkpt lat="44.9429111" lon="8.4351903"><ele>134.33333333333331</ele><time>2026-05-03T10:30:03.307Z</time></trkpt><trkpt lat="44.942991" lon="8.4351365"><ele>134.16666666666666</ele><time>2026-05-03T10:30:04.306Z</time></trkpt><trkpt lat="44.9430706" lon="8.4350778"><ele>134.0</ele><time>2026-05-03T10:30:05.306Z</time></trkpt><trkpt lat="44.94315" lon="8.4350164"><ele>134.0</ele><time>2026-05-03T10:30:06.306Z</time></trkpt><trkpt lat="44.9432307" lon="8.4349547"><ele>134.0</ele><time>2026-05-03T10:30:07.307Z</time></trkpt><trkpt lat="44.9433112" lon="8.434892"><ele>134.0</ele><time>2026-05-03T10:30:08.306Z</time></trkpt><trkpt lat="44.9433925" lon="8.4348278"><ele>134.0</ele><time>2026-05-03T10:30:09.306Z</time></trkpt><trkpt lat="44.9434728" lon="8.4347593"><ele>134.0</ele><time>2026-05-03T10:30:10.306Z</time></trkpt><trkpt lat="44.9435467" lon="8.4346885"><ele>133.66666666666666</ele><time>2026-05-03T10:30:11.306Z</time></trkpt><trkpt lat="44.9436157" lon="8.4346193"><ele>133.33333333333331</ele><time>2026-05-03T10:30:12.307Z</time></trkpt><trkpt lat="44.9436799" lon="8.434554"><ele>133.0</ele><time>2026-05-03T10:30:13.306Z</time></trkpt><trkpt lat="44.9437429" lon="8.4344923"><ele>132.66666666666666</ele><time>2026-05-03T10:30:14.306Z</time></trkpt><trkpt lat="44.9438115" lon="8.4344331"><ele>132.33333333333334</ele><time>2026-05-03T10:30:15.307Z</time></trkpt><trkpt lat="44.9438879" lon="8.4343761"><ele>132.0</ele><time>2026-05-03T10:30:16.306Z</time></trkpt><trkpt lat="44.9439756" lon="8.4343249"><ele>132.0</ele><time>2026-05-03T10:30:17.307Z</time></trkpt><trkpt lat="44.944071" lon="8.4342777"><ele>132.0</ele><time>2026-05-03T10:30:18.306Z</time></trkpt><trkpt lat="44.9441658" lon="8.4342286"><ele>132.0</ele><time>2026-05-03T10:30:19.306Z</time></trkpt><trkpt lat="44.9442601" lon="8.4341774"><ele>132.0</ele><time>2026-05-03T10:30:20.306Z</time></trkpt><trkpt lat="44.9443541" lon="8.4341251"><ele>132.0</ele><time>2026-05-03T10:30:21.306Z</time></trkpt><trkpt lat="44.9444501" lon="8.434073"><ele>131.6</ele><time>2026-05-03T10:30:22.307Z</time></trkpt><trkpt lat="44.9445465" lon="8.4340231"><ele>131.2</ele><time>2026-05-03T10:30:23.307Z</time></trkpt><trkpt lat="44.9446432" lon="8.4339815"><ele>130.8</ele><time>2026-05-03T10:30:24.306Z</time></trkpt><trkpt lat="44.9447404" lon="8.4339529"><ele>130.4</ele><time>2026-05-03T10:30:25.306Z</time></trkpt><trkpt lat="44.94484" lon="8.4339393"><ele>130.0</ele><time>2026-05-03T10:30:26.306Z</time></trkpt><trkpt lat="44.9449376" lon="8.4339424"><ele>130.0</ele><time>2026-05-03T10:30:27.307Z</time></trkpt><trkpt lat="44.9450321" lon="8.4339567"><ele>130.0</ele><time>2026-05-03T10:30:28.306Z</time></trkpt><trkpt lat="44.9451256" lon="8.4339783"><ele>130.0</ele><time>2026-05-03T10:30:29.306Z</time></trkpt><trkpt lat="44.9452169" lon="8.4340023"><ele>130.0</ele><time>2026-05-03T10:30:30.306Z</time></trkpt><trkpt lat="44.9453087" lon="8.4340299"><ele>130.0</ele><time>2026-05-03T10:30:31.307Z</time></trkpt><trkpt lat="44.9453993" lon="8.4340552"><ele>130.4</ele><time>2026-05-03T10:30:32.307Z</time></trkpt><trkpt lat="44.9454899" lon="8.4340747"><ele>130.8</ele><time>2026-05-03T10:30:33.307Z</time></trkpt><trkpt lat="44.94558" lon="8.4340924"><ele>131.2</ele><time>2026-05-03T10:30:34.307Z</time></trkpt><trkpt lat="44.9456709" lon="8.4341088"><ele>131.6</ele><time>2026-05-03T10:30:35.308Z</time></trkpt><trkpt lat="44.9457623" lon="8.4341263"><ele>132.0</ele><time>2026-05-03T10:30:36.307Z</time></trkpt><trkpt lat="44.9458528" lon="8.4341442"><ele>132.2</ele><time>2026-05-03T10:30:37.308Z</time></trkpt><trkpt lat="44.9459433" lon="8.4341606"><ele>132.39999999999998</ele><time>2026-05-03T10:30:38.307Z</time></trkpt><trkpt lat="44.9460357" lon="8.434176"><ele>132.60000000000002</ele><time>2026-05-03T10:30:39.308Z</time></trkpt><trkpt lat="44.9461283" lon="8.4341924"><ele>132.8</ele><time>2026-05-03T10:30:40.308Z</time></trkpt><trkpt lat="44.9462203" lon="8.4342114"><ele>133.0</ele><time>2026-05-03T10:30:41.307Z</time></trkpt><trkpt lat="44.9463128" lon="8.4342328"><ele>133.0</ele><time>2026-05-03T10:30:42.307Z</time></trkpt><trkpt lat="44.9464028" lon="8.4342562"><ele>133.0</ele><time>2026-05-03T10:30:43.307Z</time></trkpt><trkpt lat="44.9464933" lon="8.4342781"><ele>133.0</ele><time>2026-05-03T10:30:44.308Z</time></trkpt><trkpt lat="44.9465767" lon="8.4342961"><ele>133.0</ele><time>2026-05-03T10:30:45.307Z</time></trkpt><trkpt lat="44.9466668" lon="8.4343094"><ele>133.0</ele><time>2026-05-03T10:30:46.308Z</time></trkpt><trkpt lat="44.9467585" lon="8.4343237"><ele>133.0</ele><time>2026-05-03T10:30:47.307Z</time></trkpt><trkpt lat="44.9468499" lon="8.4343397"><ele>133.0</ele><time>2026-05-03T10:30:48.307Z</time></trkpt><trkpt lat="44.9469397" lon="8.4343572"><ele>133.0</ele><time>2026-05-03T10:30:49.307Z</time></trkpt><trkpt lat="44.9470276" lon="8.4343732"><ele>133.0</ele><time>2026-05-03T10:30:50.307Z</time></trkpt><trkpt lat="44.947115" lon="8.4343908"><ele>133.0</ele><time>2026-05-03T10:30:51.308Z</time></trkpt><trkpt lat="44.9472004" lon="8.43441"><ele>133.0</ele><time>2026-05-03T10:30:52.307Z</time></trkpt><trkpt lat="44.9472869" lon="8.4344262"><ele>133.0</ele><time>2026-05-03T10:30:53.307Z</time></trkpt><trkpt lat="44.9473754" lon="8.4344393"><ele>133.0</ele><time>2026-05-03T10:30:54.308Z</time></trkpt><trkpt lat="44.9474625" lon="8.4344531"><ele>133.0</ele><time>2026-05-03T10:30:55.307Z</time></trkpt><trkpt lat="44.9475474" lon="8.4344689"><ele>133.0</ele><time>2026-05-03T10:30:56.307Z</time></trkpt><trkpt lat="44.9476324" lon="8.434488"><ele>133.0</ele><time>2026-05-03T10:30:57.307Z</time></trkpt><trkpt lat="44.9477171" lon="8.4345085"><ele>133.0</ele><time>2026-05-03T10:30:58.307Z</time></trkpt><trkpt lat="44.9478032" lon="8.4345256"><ele>133.66666666666669</ele><time>2026-05-03T10:30:59.307Z</time></trkpt><trkpt lat="44.9478914" lon="8.4345409"><ele>134.33333333333334</ele><time>2026-05-03T10:31:00.307Z</time></trkpt><trkpt lat="44.9479799" lon="8.4345565"><ele>135.0</ele><time>2026-05-03T10:31:01.307Z</time></trkpt><trkpt lat="44.9480661" lon="8.4345736"><ele>135.66666666666666</ele><time>2026-05-03T10:31:02.308Z</time></trkpt><trkpt lat="44.9481526" lon="8.4345905"><ele>136.33333333333331</ele><time>2026-05-03T10:31:03.308Z</time></trkpt><trkpt lat="44.9482395" lon="8.4346057"><ele>137.0</ele><time>2026-05-03T10:31:04.307Z</time></trkpt><trkpt lat="44.9483261" lon="8.43462"><ele>137.5</ele><time>2026-05-03T10:31:05.307Z</time></trkpt><trkpt lat="44.948413" lon="8.4346333"><ele>138.0</ele><time>2026-05-03T10:31:06.308Z</time></trkpt><trkpt lat="44.9485001" lon="8.4346477"><ele>138.5</ele><time>2026-05-03T10:31:07.308Z</time></trkpt><trkpt lat="44.9485864" lon="8.4346657"><ele>139.0</ele><time>2026-05-03T10:31:08.307Z</time></trkpt><trkpt lat="44.9486724" lon="8.4346844"><ele>139.5</ele><time>2026-05-03T10:31:09.307Z</time></trkpt><trkpt lat="44.9487576" lon="8.4347022"><ele>140.0</ele><time>2026-05-03T10:31:10.308Z</time></trkpt><trkpt lat="44.9488413" lon="8.4347199"><ele>140.33333333333331</ele><time>2026-05-03T10:31:11.307Z</time></trkpt><trkpt lat="44.9489252" lon="8.4347362"><ele>140.66666666666666</ele><time>2026-05-03T10:31:12.307Z</time></trkpt><trkpt lat="44.949009" lon="8.4347506"><ele>141.0</ele><time>2026-05-03T10:31:13.307Z</time></trkpt><trkpt lat="44.9490947" lon="8.4347655"><ele>141.33333333333334</ele><time>2026-05-03T10:31:14.307Z</time></trkpt><trkpt lat="44.9491791" lon="8.434781"><ele>141.66666666666669</ele><time>2026-05-03T10:31:15.307Z</time></trkpt><trkpt lat="44.9492594" lon="8.434797"><ele>142.0</ele><time>2026-05-03T10:31:16.307Z</time></trkpt><trkpt lat="44.9493383" lon="8.4348146"><ele>142.16666666666669</ele><time>2026-05-03T10:31:17.308Z</time></trkpt><trkpt lat="44.9494203" lon="8.4348308"><ele>142.33333333333334</ele><time>2026-05-03T10:31:18.307Z</time></trkpt><trkpt lat="44.949505" lon="8.4348473"><ele>142.5</ele><time>2026-05-03T10:31:19.307Z</time></trkpt><trkpt lat="44.9495941" lon="8.4348658"><ele>142.66666666666666</ele><time>2026-05-03T10:31:20.308Z</time></trkpt><trkpt lat="44.9496817" lon="8.4348858"><ele>142.83333333333331</ele><time>2026-05-03T10:31:21.308Z</time></trkpt><trkpt lat="44.9497676" lon="8.4349032"><ele>143.0</ele><time>2026-05-03T10:31:22.309Z</time></trkpt><trkpt lat="44.9498539" lon="8.4349172"><ele>143.0</ele><time>2026-05-03T10:31:23.309Z</time></trkpt><trkpt lat="44.9499418" lon="8.4349308"><ele>143.0</ele><time>2026-05-03T10:31:24.308Z</time></trkpt><trkpt lat="44.9500289" lon="8.4349442"><ele>143.0</ele><time>2026-05-03T10:31:25.308Z</time></trkpt><trkpt lat="44.9501154" lon="8.4349622"><ele>143.0</ele><time>2026-05-03T10:31:26.308Z</time></trkpt><trkpt lat="44.9502021" lon="8.4349813"><ele>143.0</ele><time>2026-05-03T10:31:27.308Z</time></trkpt><trkpt lat="44.9502893" lon="8.4349994"><ele>143.0</ele><time>2026-05-03T10:31:28.308Z</time></trkpt><trkpt lat="44.9503768" lon="8.4350158"><ele>143.33333333333331</ele><time>2026-05-03T10:31:29.308Z</time></trkpt><trkpt lat="44.9504641" lon="8.4350319"><ele>143.66666666666666</ele><time>2026-05-03T10:31:30.308Z</time></trkpt><trkpt lat="44.95055" lon="8.4350479"><ele>144.0</ele><time>2026-05-03T10:31:31.308Z</time></trkpt><trkpt lat="44.9506382" lon="8.4350639"><ele>144.33333333333334</ele><time>2026-05-03T10:31:32.309Z</time></trkpt><trkpt lat="44.9507269" lon="8.4350802"><ele>144.66666666666669</ele><time>2026-05-03T10:31:33.308Z</time></trkpt><trkpt lat="44.9508198" lon="8.4350994"><ele>145.0</ele><time>2026-05-03T10:31:34.308Z</time></trkpt><trkpt lat="44.9509145" lon="8.4351153"><ele>145.2</ele><time>2026-05-03T10:31:35.309Z</time></trkpt><trkpt lat="44.9510103" lon="8.4351343"><ele>145.4</ele><time>2026-05-03T10:31:36.308Z</time></trkpt><trkpt lat="44.9511065" lon="8.4351494"><ele>145.6</ele><time>2026-05-03T10:31:37.309Z</time></trkpt><trkpt lat="44.9511989" lon="8.4351614"><ele>145.8</ele><time>2026-05-03T10:31:38.308Z</time></trkpt><trkpt lat="44.9512919" lon="8.4351671"><ele>146.0</ele><time>2026-05-03T10:31:39.308Z</time></trkpt><trkpt lat="44.9513844" lon="8.4351601"><ele>146.0</ele><time>2026-05-03T10:31:40.308Z</time></trkpt><trkpt lat="44.9514733" lon="8.435143"><ele>146.0</ele><time>2026-05-03T10:31:41.308Z</time></trkpt><trkpt lat="44.9515601" lon="8.4351172"><ele>146.0</ele><time>2026-05-03T10:31:42.308Z</time></trkpt><trkpt lat="44.9516451" lon="8.435088"><ele>146.0</ele><time>2026-05-03T10:31:43.308Z</time></trkpt><trkpt lat="44.9517243" lon="8.4350588"><ele>146.0</ele><time>2026-05-03T10:31:44.308Z</time></trkpt><trkpt lat="44.9517982" lon="8.435024"><ele>146.0</ele><time>2026-05-03T10:31:45.309Z</time></trkpt><trkpt lat="44.9518649" lon="8.4349776"><ele>145.5</ele><time>2026-05-03T10:31:46.309Z</time></trkpt><trkpt lat="44.9519274" lon="8.4349239"><ele>145.0</ele><time>2026-05-03T10:31:47.308Z</time></trkpt><trkpt lat="44.9519892" lon="8.4348731"><ele>144.5</ele><time>2026-05-03T10:31:48.308Z</time></trkpt><trkpt lat="44.9520506" lon="8.4348264"><ele>144.0</ele><time>2026-05-03T10:31:49.309Z</time></trkpt><trkpt lat="44.9521086" lon="8.4347879"><ele>143.5</ele><time>2026-05-03T10:31:50.308Z</time></trkpt><trkpt lat="44.9522131" lon="8.4347515"><ele>143.0</ele><time>2026-05-03T10:31:52.308Z</time></trkpt><trkpt lat="44.9522943" lon="8.4347726"><ele>143.0</ele><time>2026-05-03T10:31:54.309Z</time></trkpt><trkpt lat="44.9523723" lon="8.4348125"><ele>143.0</ele><time>2026-05-03T10:31:57.309Z</time></trkpt><trkpt lat="44.9524599" lon="8.4347339"><ele>143.0</ele><time>2026-05-03T10:31:59.308Z</time></trkpt><trkpt lat="44.9524986" lon="8.4346529"><ele>143.0</ele><time>2026-05-03T10:32:00.309Z</time></trkpt><trkpt lat="44.9525397" lon="8.4345721"><ele>143.0</ele><time>2026-05-03T10:32:01.308Z</time></trkpt><trkpt lat="44.9525838" lon="8.4344984"><ele>143.0</ele><time>2026-05-03T10:32:02.309Z</time></trkpt><trkpt lat="44.9526331" lon="8.4344259"><ele>142.16666666666666</ele><time>2026-05-03T10:32:03.308Z</time></trkpt><trkpt lat="44.9526851" lon="8.4343594"><ele>141.33333333333331</ele><time>2026-05-03T10:32:04.309Z</time></trkpt><trkpt lat="44.9527351" lon="8.4342868"><ele>140.5</ele><time>2026-05-03T10:32:05.308Z</time></trkpt><trkpt lat="44.9528064" lon="8.4342248"><ele>139.66666666666666</ele><time>2026-05-03T10:32:06.309Z</time></trkpt><trkpt lat="44.9528872" lon="8.4341709"><ele>138.83333333333334</ele><time>2026-05-03T10:32:07.308Z</time></trkpt><trkpt lat="44.952966" lon="8.4341163"><ele>138.0</ele><time>2026-05-03T10:32:08.308Z</time></trkpt><trkpt lat="44.9530454" lon="8.4340581"><ele>138.0</ele><time>2026-05-03T10:32:09.309Z</time></trkpt><trkpt lat="44.9531255" lon="8.4339942"><ele>138.0</ele><time>2026-05-03T10:32:10.309Z</time></trkpt><trkpt lat="44.9532097" lon="8.4339267"><ele>138.0</ele><time>2026-05-03T10:32:11.309Z</time></trkpt><trkpt lat="44.9532931" lon="8.4338614"><ele>138.0</ele><time>2026-05-03T10:32:12.309Z</time></trkpt><trkpt lat="44.9533782" lon="8.4337954"><ele>138.0</ele><time>2026-05-03T10:32:13.309Z</time></trkpt><trkpt lat="44.9534627" lon="8.4337277"><ele>138.8</ele><time>2026-05-03T10:32:14.309Z</time></trkpt><trkpt lat="44.9535477" lon="8.4336595"><ele>139.60000000000002</ele><time>2026-05-03T10:32:15.309Z</time></trkpt><trkpt lat="44.953631" lon="8.4335924"><ele>140.39999999999998</ele><time>2026-05-03T10:32:16.31Z</time></trkpt><trkpt lat="44.9537136" lon="8.4335244"><ele>141.2</ele><time>2026-05-03T10:32:17.309Z</time></trkpt><trkpt lat="44.9537965" lon="8.4334566"><ele>142.0</ele><time>2026-05-03T10:32:18.31Z</time></trkpt><trkpt lat="44.9538796" lon="8.4333928"><ele>142.0</ele><time>2026-05-03T10:32:19.31Z</time></trkpt><trkpt lat="44.9539624" lon="8.4333313"><ele>142.0</ele><time>2026-05-03T10:32:20.31Z</time></trkpt><trkpt lat="44.9540426" lon="8.4332665"><ele>142.0</ele><time>2026-05-03T10:32:21.31Z</time></trkpt><trkpt lat="44.9541195" lon="8.4332"><ele>142.0</ele><time>2026-05-03T10:32:22.31Z</time></trkpt><trkpt lat="44.9541975" lon="8.4331285"><ele>142.0</ele><time>2026-05-03T10:32:23.31Z</time></trkpt><trkpt lat="44.9542792" lon="8.4330515"><ele>141.6</ele><time>2026-05-03T10:32:24.309Z</time></trkpt><trkpt lat="44.954359" lon="8.432978"><ele>141.2</ele><time>2026-05-03T10:32:25.309Z</time></trkpt><trkpt lat="44.9544384" lon="8.4329048"><ele>140.8</ele><time>2026-05-03T10:32:26.309Z</time></trkpt><trkpt lat="44.9545208" lon="8.4328292"><ele>140.4</ele><time>2026-05-03T10:32:27.309Z</time></trkpt><trkpt lat="44.9546013" lon="8.4327555"><ele>140.0</ele><time>2026-05-03T10:32:28.31Z</time></trkpt><trkpt lat="44.9546792" lon="8.4326855"><ele>140.0</ele><time>2026-05-03T10:32:29.309Z</time></trkpt><trkpt lat="44.9547594" lon="8.43261"><ele>140.0</ele><time>2026-05-03T10:32:30.309Z</time></trkpt><trkpt lat="44.954837" lon="8.4325344"><ele>140.0</ele><time>2026-05-03T10:32:31.309Z</time></trkpt><trkpt lat="44.9549165" lon="8.4324582"><ele>140.0</ele><time>2026-05-03T10:32:32.309Z</time></trkpt><trkpt lat="44.9549982" lon="8.4323821"><ele>140.0</ele><time>2026-05-03T10:32:33.309Z</time></trkpt><trkpt lat="44.95508" lon="8.4323049"><ele>140.4</ele><time>2026-05-03T10:32:34.309Z</time></trkpt><trkpt lat="44.955159" lon="8.4322293"><ele>140.8</ele><time>2026-05-03T10:32:35.31Z</time></trkpt><trkpt lat="44.9552397" lon="8.4321522"><ele>141.2</ele><time>2026-05-03T10:32:36.31Z</time></trkpt><trkpt lat="44.9553218" lon="8.4320759"><ele>141.6</ele><time>2026-05-03T10:32:37.309Z</time></trkpt><trkpt lat="44.9554052" lon="8.4320007"><ele>142.0</ele><time>2026-05-03T10:32:38.309Z</time></trkpt><trkpt lat="44.9554888" lon="8.4319287"><ele>142.0</ele><time>2026-05-03T10:32:39.31Z</time></trkpt><trkpt lat="44.9555721" lon="8.4318599"><ele>142.0</ele><time>2026-05-03T10:32:40.309Z</time></trkpt><trkpt lat="44.9556554" lon="8.4317949"><ele>142.0</ele><time>2026-05-03T10:32:41.31Z</time></trkpt><trkpt lat="44.9557397" lon="8.4317364"><ele>142.0</ele><time>2026-05-03T10:32:42.309Z</time></trkpt><trkpt lat="44.9558248" lon="8.4316815"><ele>142.0</ele><time>2026-05-03T10:32:43.31Z</time></trkpt><trkpt lat="44.9559094" lon="8.4316297"><ele>142.2</ele><time>2026-05-03T10:32:44.31Z</time></trkpt><trkpt lat="44.9559924" lon="8.4315741"><ele>142.39999999999998</ele><time>2026-05-03T10:32:45.31Z</time></trkpt><trkpt lat="44.9560754" lon="8.4315177"><ele>142.60000000000002</ele><time>2026-05-03T10:32:46.309Z</time></trkpt><trkpt lat="44.9561604" lon="8.431465"><ele>142.8</ele><time>2026-05-03T10:32:47.31Z</time></trkpt><trkpt lat="44.9562453" lon="8.4314187"><ele>143.0</ele><time>2026-05-03T10:32:48.309Z</time></trkpt><trkpt lat="44.9563316" lon="8.4313754"><ele>143.0</ele><time>2026-05-03T10:32:49.309Z</time></trkpt><trkpt lat="44.9564208" lon="8.4313301"><ele>143.0</ele><time>2026-05-03T10:32:50.31Z</time></trkpt><trkpt lat="44.9565118" lon="8.4312839"><ele>143.0</ele><time>2026-05-03T10:32:51.31Z</time></trkpt><trkpt lat="44.9566017" lon="8.4312441"><ele>143.0</ele><time>2026-05-03T10:32:52.309Z</time></trkpt><trkpt lat="44.9566935" lon="8.431205"><ele>143.0</ele><time>2026-05-03T10:32:53.31Z</time></trkpt><trkpt lat="44.9567851" lon="8.4311666"><ele>143.4</ele><time>2026-05-03T10:32:54.31Z</time></trkpt><trkpt lat="44.9568775" lon="8.4311315"><ele>143.8</ele><time>2026-05-03T10:32:55.309Z</time></trkpt><trkpt lat="44.9569702" lon="8.4310992"><ele>144.2</ele><time>2026-05-03T10:32:56.31Z</time></trkpt><trkpt lat="44.9570638" lon="8.4310684"><ele>144.6</ele><time>2026-05-03T10:32:57.31Z</time></trkpt><trkpt lat="44.9571583" lon="8.4310404"><ele>145.0</ele><time>2026-05-03T10:32:58.31Z</time></trkpt><trkpt lat="44.957255" lon="8.43101"><ele>145.0</ele><time>2026-05-03T10:32:59.31Z</time></trkpt><trkpt lat="44.9573487" lon="8.4309779"><ele>145.0</ele><time>2026-05-03T10:33:00.31Z</time></trkpt><trkpt lat="44.9574418" lon="8.4309461"><ele>145.0</ele><time>2026-05-03T10:33:01.31Z</time></trkpt><trkpt lat="44.9575343" lon="8.4309103"><ele>145.0</ele><time>2026-05-03T10:33:02.311Z</time></trkpt><trkpt lat="44.957624" lon="8.4308739"><ele>145.0</ele><time>2026-05-03T10:33:03.31Z</time></trkpt><trkpt lat="44.957714" lon="8.4308379"><ele>145.4</ele><time>2026-05-03T10:33:04.31Z</time></trkpt><trkpt lat="44.9577996" lon="8.4308054"><ele>145.8</ele><time>2026-05-03T10:33:05.311Z</time></trkpt><trkpt lat="44.9578867" lon="8.4307721"><ele>146.2</ele><time>2026-05-03T10:33:06.311Z</time></trkpt><trkpt lat="44.9579764" lon="8.4307406"><ele>146.6</ele><time>2026-05-03T10:33:07.31Z</time></trkpt><trkpt lat="44.9580645" lon="8.4307081"><ele>147.0</ele><time>2026-05-03T10:33:08.311Z</time></trkpt><trkpt lat="44.9581534" lon="8.430671"><ele>147.0</ele><time>2026-05-03T10:33:09.31Z</time></trkpt><trkpt lat="44.9582427" lon="8.430631"><ele>147.0</ele><time>2026-05-03T10:33:10.31Z</time></trkpt><trkpt lat="44.9583286" lon="8.4305894"><ele>147.0</ele><time>2026-05-03T10:33:11.31Z</time></trkpt><trkpt lat="44.9584155" lon="8.4305535"><ele>147.0</ele><time>2026-05-03T10:33:12.31Z</time></trkpt><trkpt lat="44.9585061" lon="8.4305219"><ele>147.0</ele><time>2026-05-03T10:33:13.31Z</time></trkpt><trkpt lat="44.9586012" lon="8.4304924"><ele>147.0</ele><time>2026-05-03T10:33:14.31Z</time></trkpt><trkpt lat="44.9586921" lon="8.4304599"><ele>147.0</ele><time>2026-05-03T10:33:15.31Z</time></trkpt><trkpt lat="44.9587815" lon="8.4304268"><ele>147.0</ele><time>2026-05-03T10:33:16.311Z</time></trkpt><trkpt lat="44.9588695" lon="8.4303954"><ele>147.0</ele><time>2026-05-03T10:33:17.311Z</time></trkpt><trkpt lat="44.9589568" lon="8.4303641"><ele>147.0</ele><time>2026-05-03T10:33:18.31Z</time></trkpt><trkpt lat="44.9590475" lon="8.4303348"><ele>147.0</ele><time>2026-05-03T10:33:19.311Z</time></trkpt><trkpt lat="44.9591383" lon="8.4303011"><ele>147.0</ele><time>2026-05-03T10:33:20.311Z</time></trkpt><trkpt lat="44.9592353" lon="8.4302664"><ele>147.0</ele><time>2026-05-03T10:33:21.31Z</time></trkpt><trkpt lat="44.959331" lon="8.430235"><ele>147.0</ele><time>2026-05-03T10:33:22.31Z</time></trkpt><trkpt lat="44.9594252" lon="8.4302052"><ele>147.0</ele><time>2026-05-03T10:33:23.31Z</time></trkpt><trkpt lat="44.9595093" lon="8.4301754"><ele>147.4</ele><time>2026-05-03T10:33:24.311Z</time></trkpt><trkpt lat="44.9595968" lon="8.4301462"><ele>147.79999999999998</ele><time>2026-05-03T10:33:25.31Z</time></trkpt><trkpt lat="44.9596729" lon="8.4301156"><ele>148.2</ele><time>2026-05-03T10:33:26.31Z</time></trkpt><trkpt lat="44.9597703" lon="8.4300811"><ele>148.6</ele><time>2026-05-03T10:33:27.311Z</time></trkpt><trkpt lat="44.9598684" lon="8.4300492"><ele>149.0</ele><time>2026-05-03T10:33:28.311Z</time></trkpt><trkpt lat="44.9599519" lon="8.4300131"><ele>148.83333333333331</ele><time>2026-05-03T10:33:29.31Z</time></trkpt><trkpt lat="44.9600365" lon="8.4299768"><ele>148.66666666666666</ele><time>2026-05-03T10:33:30.31Z</time></trkpt><trkpt lat="44.9601158" lon="8.4299403"><ele>148.5</ele><time>2026-05-03T10:33:31.31Z</time></trkpt><trkpt lat="44.9601944" lon="8.4299092"><ele>148.33333333333334</ele><time>2026-05-03T10:33:32.31Z</time></trkpt><trkpt lat="44.9602748" lon="8.4298815"><ele>148.16666666666669</ele><time>2026-05-03T10:33:33.31Z</time></trkpt><trkpt lat="44.9603606" lon="8.4298553"><ele>148.0</ele><time>2026-05-03T10:33:34.31Z</time></trkpt><trkpt lat="44.9604498" lon="8.42984"><ele>148.0</ele><time>2026-05-03T10:33:35.31Z</time></trkpt><trkpt lat="44.9605362" lon="8.4298126"><ele>148.0</ele><time>2026-05-03T10:33:36.311Z</time></trkpt><trkpt lat="44.9606203" lon="8.4297836"><ele>148.0</ele><time>2026-05-03T10:33:37.311Z</time></trkpt><trkpt lat="44.9607079" lon="8.4297544"><ele>148.0</ele><time>2026-05-03T10:33:38.311Z</time></trkpt><trkpt lat="44.9607917" lon="8.4297294"><ele>148.0</ele><time>2026-05-03T10:33:39.31Z</time></trkpt><trkpt lat="44.9608712" lon="8.4297026"><ele>148.0</ele><time>2026-05-03T10:33:40.31Z</time></trkpt><trkpt lat="44.9609518" lon="8.4296683"><ele>149.16666666666669</ele><time>2026-05-03T10:33:41.311Z</time></trkpt><trkpt lat="44.96103" lon="8.4296387"><ele>150.33333333333334</ele><time>2026-05-03T10:33:42.311Z</time></trkpt><trkpt lat="44.9611043" lon="8.429613"><ele>151.5</ele><time>2026-05-03T10:33:43.31Z</time></trkpt><trkpt lat="44.9611836" lon="8.4295964"><ele>152.66666666666666</ele><time>2026-05-03T10:33:44.31Z</time></trkpt><trkpt lat="44.9612762" lon="8.4295944"><ele>153.83333333333331</ele><time>2026-05-03T10:33:45.311Z</time></trkpt><trkpt lat="44.9613736" lon="8.4295829"><ele>155.0</ele><time>2026-05-03T10:33:46.311Z</time></trkpt><trkpt lat="44.9614661" lon="8.4295654"><ele>155.0</ele><time>2026-05-03T10:33:47.312Z</time></trkpt><trkpt lat="44.9615549" lon="8.4295472"><ele>155.0</ele><time>2026-05-03T10:33:48.311Z</time></trkpt><trkpt lat="44.9616382" lon="8.429542"><ele>155.0</ele><time>2026-05-03T10:33:49.311Z</time></trkpt><trkpt lat="44.9617236" lon="8.4295391"><ele>155.0</ele><time>2026-05-03T10:33:50.311Z</time></trkpt><trkpt lat="44.9618116" lon="8.4295378"><ele>155.0</ele><time>2026-05-03T10:33:51.311Z</time></trkpt><trkpt lat="44.9619001" lon="8.4295379"><ele>155.0</ele><time>2026-05-03T10:33:52.311Z</time></trkpt><trkpt lat="44.9619825" lon="8.4295422"><ele>154.66666666666666</ele><time>2026-05-03T10:33:53.311Z</time></trkpt><trkpt lat="44.9620709" lon="8.4295357"><ele>154.33333333333331</ele><time>2026-05-03T10:33:54.311Z</time></trkpt><trkpt lat="44.962158" lon="8.4295327"><ele>154.0</ele><time>2026-05-03T10:33:55.312Z</time></trkpt><trkpt lat="44.9622442" lon="8.429531"><ele>153.66666666666666</ele><time>2026-05-03T10:33:56.312Z</time></trkpt><trkpt lat="44.9623301" lon="8.4295267"><ele>153.33333333333334</ele><time>2026-05-03T10:33:57.311Z</time></trkpt><trkpt lat="44.9624084" lon="8.4295091"><ele>153.0</ele><time>2026-05-03T10:33:58.311Z</time></trkpt><trkpt lat="44.9624927" lon="8.4294881"><ele>152.66666666666666</ele><time>2026-05-03T10:33:59.312Z</time></trkpt><trkpt lat="44.9625734" lon="8.4294655"><ele>152.33333333333334</ele><time>2026-05-03T10:34:00.311Z</time></trkpt><trkpt lat="44.9626554" lon="8.4294437"><ele>152.0</ele><time>2026-05-03T10:34:01.311Z</time></trkpt><trkpt lat="44.9627361" lon="8.4294217"><ele>151.66666666666669</ele><time>2026-05-03T10:34:02.311Z</time></trkpt><trkpt lat="44.9628176" lon="8.4293981"><ele>151.33333333333334</ele><time>2026-05-03T10:34:03.312Z</time></trkpt><trkpt lat="44.9628945" lon="8.4293735"><ele>151.0</ele><time>2026-05-03T10:34:04.311Z</time></trkpt><trkpt lat="44.9629658" lon="8.4293527"><ele>151.0</ele><time>2026-05-03T10:34:05.312Z</time></trkpt><trkpt lat="44.9630321" lon="8.4293332"><ele>151.0</ele><time>2026-05-03T10:34:06.312Z</time></trkpt><trkpt lat="44.9630982" lon="8.4293097"><ele>151.0</ele><time>2026-05-03T10:34:07.311Z</time></trkpt><trkpt lat="44.9631684" lon="8.4292832"><ele>151.0</ele><time>2026-05-03T10:34:08.312Z</time></trkpt><trkpt lat="44.9632443" lon="8.4292543"><ele>151.0</ele><time>2026-05-03T10:34:09.311Z</time></trkpt><trkpt lat="44.9633252" lon="8.4292293"><ele>151.0</ele><time>2026-05-03T10:34:10.312Z</time></trkpt><trkpt lat="44.9634093" lon="8.4292007"><ele>150.6</ele><time>2026-05-03T10:34:11.311Z</time></trkpt><trkpt lat="44.9634981" lon="8.4291576"><ele>150.2</ele><time>2026-05-03T10:34:12.312Z</time></trkpt><trkpt lat="44.9635851" lon="8.4291221"><ele>149.8</ele><time>2026-05-03T10:34:13.311Z</time></trkpt><trkpt lat="44.9636735" lon="8.4290827"><ele>149.4</ele><time>2026-05-03T10:34:14.311Z</time></trkpt><trkpt lat="44.9637679" lon="8.4290382"><ele>149.0</ele><time>2026-05-03T10:34:15.311Z</time></trkpt><trkpt lat="44.9638636" lon="8.4289906"><ele>149.0</ele><time>2026-05-03T10:34:16.312Z</time></trkpt><trkpt lat="44.9639583" lon="8.4289417"><ele>149.0</ele><time>2026-05-03T10:34:17.312Z</time></trkpt><trkpt lat="44.964052" lon="8.4288893"><ele>149.0</ele><time>2026-05-03T10:34:18.311Z</time></trkpt><trkpt lat="44.9641447" lon="8.4288336"><ele>149.0</ele><time>2026-05-03T10:34:19.311Z</time></trkpt><trkpt lat="44.9642326" lon="8.4287808"><ele>149.0</ele><time>2026-05-03T10:34:20.312Z</time></trkpt><trkpt lat="44.9643266" lon="8.4287279"><ele>149.4</ele><time>2026-05-03T10:34:21.311Z</time></trkpt><trkpt lat="44.9644206" lon="8.4286713"><ele>149.8</ele><time>2026-05-03T10:34:22.311Z</time></trkpt><trkpt lat="44.9645133" lon="8.4286157"><ele>150.2</ele><time>2026-05-03T10:34:23.311Z</time></trkpt><trkpt lat="44.9646049" lon="8.42856"><ele>150.6</ele><time>2026-05-03T10:34:24.311Z</time></trkpt><trkpt lat="44.9646938" lon="8.4285075"><ele>151.0</ele><time>2026-05-03T10:34:25.312Z</time></trkpt><trkpt lat="44.9647815" lon="8.4284563"><ele>151.0</ele><time>2026-05-03T10:34:26.311Z</time></trkpt><trkpt lat="44.9648689" lon="8.4284068"><ele>151.0</ele><time>2026-05-03T10:34:27.311Z</time></trkpt><trkpt lat="44.9649587" lon="8.4283593"><ele>151.0</ele><time>2026-05-03T10:34:28.311Z</time></trkpt><trkpt lat="44.9650433" lon="8.4283125"><ele>151.0</ele><time>2026-05-03T10:34:29.311Z</time></trkpt><trkpt lat="44.965125" lon="8.4282679"><ele>151.0</ele><time>2026-05-03T10:34:30.312Z</time></trkpt><trkpt lat="44.9652055" lon="8.4282219"><ele>150.66666666666669</ele><time>2026-05-03T10:34:31.311Z</time></trkpt><trkpt lat="44.9652817" lon="8.4281764"><ele>150.33333333333334</ele><time>2026-05-03T10:34:32.312Z</time></trkpt><trkpt lat="44.9653598" lon="8.4281281"><ele>150.0</ele><time>2026-05-03T10:34:33.312Z</time></trkpt><trkpt lat="44.9654353" lon="8.4280798"><ele>149.66666666666666</ele><time>2026-05-03T10:34:34.312Z</time></trkpt><trkpt lat="44.9655119" lon="8.4280332"><ele>149.33333333333331</ele><time>2026-05-03T10:34:35.313Z</time></trkpt><trkpt lat="44.9655897" lon="8.427988"><ele>149.0</ele><time>2026-05-03T10:34:36.312Z</time></trkpt><trkpt lat="44.9656651" lon="8.427941"><ele>149.33333333333331</ele><time>2026-05-03T10:34:37.313Z</time></trkpt><trkpt lat="44.9657383" lon="8.4278937"><ele>149.66666666666666</ele><time>2026-05-03T10:34:38.313Z</time></trkpt><trkpt lat="44.9658106" lon="8.4278482"><ele>150.0</ele><time>2026-05-03T10:34:39.312Z</time></trkpt><trkpt lat="44.9658759" lon="8.4278045"><ele>150.33333333333334</ele><time>2026-05-03T10:34:40.312Z</time></trkpt><trkpt lat="44.9659682" lon="8.4277608"><ele>150.66666666666669</ele><time>2026-05-03T10:34:42.312Z</time></trkpt><trkpt lat="44.9660401" lon="8.4278067"><ele>151.0</ele><time>2026-05-03T10:34:44.313Z</time></trkpt><trkpt lat="44.9660964" lon="8.4279195"><ele>150.6</ele><time>2026-05-03T10:34:46.312Z</time></trkpt><trkpt lat="44.9661597" lon="8.4280575"><ele>150.2</ele><time>2026-05-03T10:34:48.312Z</time></trkpt><trkpt lat="44.9662083" lon="8.4282291"><ele>149.8</ele><time>2026-05-03T10:34:50.312Z</time></trkpt><trkpt lat="44.966236" lon="8.4283241"><ele>149.4</ele><time>2026-05-03T10:34:51.313Z</time></trkpt><trkpt lat="44.9662673" lon="8.4284171"><ele>149.0</ele><time>2026-05-03T10:34:52.312Z</time></trkpt><trkpt lat="44.9662984" lon="8.4285112"><ele>149.0</ele><time>2026-05-03T10:34:53.312Z</time></trkpt><trkpt lat="44.9663304" lon="8.4286036"><ele>149.0</ele><time>2026-05-03T10:34:54.313Z</time></trkpt><trkpt lat="44.966364" lon="8.428696"><ele>149.0</ele><time>2026-05-03T10:34:55.312Z</time></trkpt><trkpt lat="44.9663968" lon="8.4287851"><ele>149.0</ele><time>2026-05-03T10:34:56.312Z</time></trkpt><trkpt lat="44.9664286" lon="8.428872"><ele>149.0</ele><time>2026-05-03T10:34:57.313Z</time></trkpt><trkpt lat="44.9664629" lon="8.4289582"><ele>149.0</ele><time>2026-05-03T10:34:58.312Z</time></trkpt><trkpt lat="44.966501" lon="8.4290453"><ele>149.0</ele><time>2026-05-03T10:34:59.312Z</time></trkpt><trkpt lat="44.9665433" lon="8.4291338"><ele>149.33333333333331</ele><time>2026-05-03T10:35:00.313Z</time></trkpt><trkpt lat="44.9665909" lon="8.4292261"><ele>149.66666666666666</ele><time>2026-05-03T10:35:01.313Z</time></trkpt><trkpt lat="44.9666448" lon="8.4293159"><ele>150.0</ele><time>2026-05-03T10:35:02.312Z</time></trkpt><trkpt lat="44.9667065" lon="8.4293971"><ele>150.33333333333334</ele><time>2026-05-03T10:35:03.313Z</time></trkpt><trkpt lat="44.9667705" lon="8.4294705"><ele>150.66666666666669</ele><time>2026-05-03T10:35:04.313Z</time></trkpt><trkpt lat="44.9668424" lon="8.4295441"><ele>151.0</ele><time>2026-05-03T10:35:05.312Z</time></trkpt><trkpt lat="44.9669167" lon="8.4296155"><ele>151.8</ele><time>2026-05-03T10:35:06.312Z</time></trkpt><trkpt lat="44.9669932" lon="8.4296838"><ele>152.6</ele><time>2026-05-03T10:35:07.312Z</time></trkpt><trkpt lat="44.9670727" lon="8.4297499"><ele>153.4</ele><time>2026-05-03T10:35:08.312Z</time></trkpt><trkpt lat="44.9671522" lon="8.429816"><ele>154.2</ele><time>2026-05-03T10:35:09.312Z</time></trkpt><trkpt lat="44.9672302" lon="8.4298848"><ele>155.0</ele><time>2026-05-03T10:35:10.312Z</time></trkpt><trkpt lat="44.9673086" lon="8.4299544"><ele>155.0</ele><time>2026-05-03T10:35:11.313Z</time></trkpt><trkpt lat="44.9673877" lon="8.4300224"><ele>155.0</ele><time>2026-05-03T10:35:12.312Z</time></trkpt><trkpt lat="44.9674663" lon="8.4300903"><ele>155.0</ele><time>2026-05-03T10:35:13.313Z</time></trkpt><trkpt lat="44.9675443" lon="8.4301561"><ele>155.0</ele><time>2026-05-03T10:35:14.313Z</time></trkpt><trkpt lat="44.9676212" lon="8.4302165"><ele>155.0</ele><time>2026-05-03T10:35:15.312Z</time></trkpt><trkpt lat="44.9676958" lon="8.4302773"><ele>156.0</ele><time>2026-05-03T10:35:16.313Z</time></trkpt><trkpt lat="44.9677697" lon="8.4303408"><ele>157.0</ele><time>2026-05-03T10:35:17.313Z</time></trkpt><trkpt lat="44.9678421" lon="8.4304037"><ele>158.0</ele><time>2026-05-03T10:35:18.312Z</time></trkpt><trkpt lat="44.9679117" lon="8.4304601"><ele>159.0</ele><time>2026-05-03T10:35:19.313Z</time></trkpt><trkpt lat="44.9679795" lon="8.4305124"><ele>160.0</ele><time>2026-05-03T10:35:20.312Z</time></trkpt><trkpt lat="44.9680451" lon="8.4305641"><ele>161.0</ele><time>2026-05-03T10:35:21.312Z</time></trkpt><trkpt lat="44.9681125" lon="8.4306167"><ele>161.0</ele><time>2026-05-03T10:35:22.312Z</time></trkpt><trkpt lat="44.9681811" lon="8.4306622"><ele>161.0</ele><time>2026-05-03T10:35:23.313Z</time></trkpt><trkpt lat="44.9682536" lon="8.4306962"><ele>161.0</ele><time>2026-05-03T10:35:24.313Z</time></trkpt><trkpt lat="44.9683293" lon="8.4307195"><ele>161.0</ele><time>2026-05-03T10:35:25.313Z</time></trkpt><trkpt lat="44.9683996" lon="8.4307404"><ele>161.0</ele><time>2026-05-03T10:35:26.314Z</time></trkpt><trkpt lat="44.968469" lon="8.4307627"><ele>161.0</ele><time>2026-05-03T10:35:27.314Z</time></trkpt><trkpt lat="44.9685412" lon="8.4307898"><ele>161.0</ele><time>2026-05-03T10:35:28.313Z</time></trkpt><trkpt lat="44.9686073" lon="8.43082"><ele>162.8</ele><time>2026-05-03T10:35:29.314Z</time></trkpt><trkpt lat="44.968668" lon="8.43085"><ele>164.60000000000002</ele><time>2026-05-03T10:35:30.313Z</time></trkpt><trkpt lat="44.9687827" lon="8.4309084"><ele>166.4</ele><time>2026-05-03T10:35:32.313Z</time></trkpt><trkpt lat="44.9689068" lon="8.4309482"><ele>168.2</ele><time>2026-05-03T10:35:34.313Z</time></trkpt><trkpt lat="44.9689689" lon="8.4309651"><ele>170.0</ele><time>2026-05-03T10:35:35.313Z</time></trkpt><trkpt lat="44.9690896" lon="8.4309954"><ele>171.6</ele><time>2026-05-03T10:35:37.313Z</time></trkpt><trkpt lat="44.9692095" lon="8.4310429"><ele>173.2</ele><time>2026-05-03T10:35:39.314Z</time></trkpt><trkpt lat="44.9692695" lon="8.4310743"><ele>174.8</ele><time>2026-05-03T10:35:40.314Z</time></trkpt><trkpt lat="44.9693874" lon="8.4311202"><ele>176.4</ele><time>2026-05-03T10:35:42.313Z</time></trkpt><trkpt lat="44.9695093" lon="8.4311616"><ele>178.0</ele><time>2026-05-03T10:35:44.313Z</time></trkpt><trkpt lat="44.9695737" lon="8.4311859"><ele>177.99999999999997</ele><time>2026-05-03T10:35:45.314Z</time></trkpt><trkpt lat="44.9696383" lon="8.4312093"><ele>178.0</ele><time>2026-05-03T10:35:46.314Z</time></trkpt><trkpt lat="44.9697038" lon="8.4312362"><ele>178.0</ele><time>2026-05-03T10:35:47.313Z</time></trkpt><trkpt lat="44.9697652" lon="8.4312674"><ele>178.0</ele><time>2026-05-03T10:35:48.313Z</time></trkpt><trkpt lat="44.9698328" lon="8.4313072"><ele>178.0</ele><time>2026-05-03T10:35:49.313Z</time></trkpt><trkpt lat="44.9698965" lon="8.4313481"><ele>177.99999999999997</ele><time>2026-05-03T10:35:50.313Z</time></trkpt><trkpt lat="44.9699585" lon="8.431393"><ele>178.0</ele><time>2026-05-03T10:35:51.313Z</time></trkpt><trkpt lat="44.9700214" lon="8.4314474"><ele>178.42857142857142</ele><time>2026-05-03T10:35:52.313Z</time></trkpt><trkpt lat="44.970083" lon="8.4315109"><ele>178.85714285714286</ele><time>2026-05-03T10:35:53.313Z</time></trkpt><trkpt lat="44.9701402" lon="8.4315797"><ele>179.28571428571428</ele><time>2026-05-03T10:35:54.314Z</time></trkpt><trkpt lat="44.9701939" lon="8.4316517"><ele>179.71428571428572</ele><time>2026-05-03T10:35:55.314Z</time></trkpt><trkpt lat="44.9702455" lon="8.4317241"><ele>180.14285714285714</ele><time>2026-05-03T10:35:56.313Z</time></trkpt><trkpt lat="44.970296" lon="8.4317986"><ele>180.57142857142856</ele><time>2026-05-03T10:35:57.313Z</time></trkpt><trkpt lat="44.9703466" lon="8.431874"><ele>181.0</ele><time>2026-05-03T10:35:58.313Z</time></trkpt><trkpt lat="44.9704009" lon="8.4319464"><ele>181.0</ele><time>2026-05-03T10:35:59.313Z</time></trkpt><trkpt lat="44.9704613" lon="8.4320243"><ele>181.0</ele><time>2026-05-03T10:36:00.313Z</time></trkpt><trkpt lat="44.9705238" lon="8.4320933"><ele>181.0</ele><time>2026-05-03T10:36:01.313Z</time></trkpt><trkpt lat="44.9705949" lon="8.4321496"><ele>181.0</ele><time>2026-05-03T10:36:02.313Z</time></trkpt><trkpt lat="44.9706705" lon="8.4321919"><ele>181.0</ele><time>2026-05-03T10:36:03.313Z</time></trkpt><trkpt lat="44.9707454" lon="8.4322196"><ele>181.0</ele><time>2026-05-03T10:36:04.313Z</time></trkpt><trkpt lat="44.9708215" lon="8.4322295"><ele>182.16666666666669</ele><time>2026-05-03T10:36:05.314Z</time></trkpt><trkpt lat="44.9709016" lon="8.4322384"><ele>183.33333333333334</ele><time>2026-05-03T10:36:06.313Z</time></trkpt><trkpt lat="44.9709808" lon="8.4322638"><ele>184.5</ele><time>2026-05-03T10:36:07.314Z</time></trkpt><trkpt lat="44.9710579" lon="8.4323043"><ele>185.66666666666666</ele><time>2026-05-03T10:36:08.313Z</time></trkpt><trkpt lat="44.9711324" lon="8.4323517"><ele>186.83333333333331</ele><time>2026-05-03T10:36:09.314Z</time></trkpt><trkpt lat="44.9712001" lon="8.4324087"><ele>188.0</ele><time>2026-05-03T10:36:10.314Z</time></trkpt><trkpt lat="44.9712641" lon="8.4324718"><ele>188.0</ele><time>2026-05-03T10:36:11.314Z</time></trkpt><trkpt lat="44.9713235" lon="8.4325416"><ele>188.0</ele><time>2026-05-03T10:36:12.315Z</time></trkpt><trkpt lat="44.9713811" lon="8.4326149"><ele>188.0</ele><time>2026-05-03T10:36:13.314Z</time></trkpt><trkpt lat="44.9714364" lon="8.432689"><ele>188.0</ele><time>2026-05-03T10:36:14.314Z</time></trkpt><trkpt lat="44.971491" lon="8.4327623"><ele>188.0</ele><time>2026-05-03T10:36:15.314Z</time></trkpt><trkpt lat="44.9715471" lon="8.432835"><ele>188.0</ele><time>2026-05-03T10:36:16.314Z</time></trkpt><trkpt lat="44.9716061" lon="8.4329096"><ele>188.0</ele><time>2026-05-03T10:36:17.315Z</time></trkpt><trkpt lat="44.9716633" lon="8.4329792"><ele>188.0</ele><time>2026-05-03T10:36:18.314Z</time></trkpt><trkpt lat="44.9717208" lon="8.4330486"><ele>188.0</ele><time>2026-05-03T10:36:19.314Z</time></trkpt><trkpt lat="44.9717788" lon="8.4331198"><ele>188.0</ele><time>2026-05-03T10:36:20.314Z</time></trkpt><trkpt lat="44.9718383" lon="8.4331938"><ele>188.0</ele><time>2026-05-03T10:36:21.314Z</time></trkpt><trkpt lat="44.9718961" lon="8.4332701"><ele>188.0</ele><time>2026-05-03T10:36:22.314Z</time></trkpt><trkpt lat="44.9719516" lon="8.4333473"><ele>188.85714285714286</ele><time>2026-05-03T10:36:23.315Z</time></trkpt><trkpt lat="44.9720078" lon="8.4334208"><ele>189.71428571428572</ele><time>2026-05-03T10:36:24.314Z</time></trkpt><trkpt lat="44.9720642" lon="8.4334905"><ele>190.57142857142856</ele><time>2026-05-03T10:36:25.314Z</time></trkpt><trkpt lat="44.9721196" lon="8.4335615"><ele>191.42857142857144</ele><time>2026-05-03T10:36:26.314Z</time></trkpt><trkpt lat="44.9721748" lon="8.4336322"><ele>192.2857142857143</ele><time>2026-05-03T10:36:27.315Z</time></trkpt><trkpt lat="44.9722313" lon="8.4336992"><ele>193.14285714285714</ele><time>2026-05-03T10:36:28.315Z</time></trkpt><trkpt lat="44.9722872" lon="8.4337653"><ele>194.0</ele><time>2026-05-03T10:36:29.314Z</time></trkpt><trkpt lat="44.9723388" lon="8.4338297"><ele>194.85714285714286</ele><time>2026-05-03T10:36:30.314Z</time></trkpt><trkpt lat="44.9723886" lon="8.4338905"><ele>195.71428571428572</ele><time>2026-05-03T10:36:31.314Z</time></trkpt><trkpt lat="44.9724359" lon="8.4339584"><ele>196.57142857142858</ele><time>2026-05-03T10:36:32.315Z</time></trkpt><trkpt lat="44.972482" lon="8.4340342"><ele>197.42857142857144</ele><time>2026-05-03T10:36:33.315Z</time></trkpt><trkpt lat="44.9725318" lon="8.4341129"><ele>198.28571428571428</ele><time>2026-05-03T10:36:34.315Z</time></trkpt><trkpt lat="44.9725863" lon="8.4341832"><ele>199.14285714285717</ele><time>2026-05-03T10:36:35.314Z</time></trkpt><trkpt lat="44.9726383" lon="8.4342564"><ele>200.0</ele><time>2026-05-03T10:36:36.315Z</time></trkpt><trkpt lat="44.9726836" lon="8.4343343"><ele>200.00000000000003</ele><time>2026-05-03T10:36:37.314Z</time></trkpt><trkpt lat="44.9727218" lon="8.4344169"><ele>200.0</ele><time>2026-05-03T10:36:38.314Z</time></trkpt><trkpt lat="44.9727593" lon="8.4345035"><ele>200.0</ele><time>2026-05-03T10:36:39.314Z</time></trkpt><trkpt lat="44.9727981" lon="8.4345857"><ele>200.0</ele><time>2026-05-03T10:36:40.314Z</time></trkpt><trkpt lat="44.9728395" lon="8.4346662"><ele>200.0</ele><time>2026-05-03T10:36:41.314Z</time></trkpt><trkpt lat="44.9728746" lon="8.4347497"><ele>200.00000000000003</ele><time>2026-05-03T10:36:42.314Z</time></trkpt><trkpt lat="44.9729131" lon="8.4348452"><ele>200.0</ele><time>2026-05-03T10:36:43.314Z</time></trkpt><trkpt lat="44.9729603" lon="8.4349429"><ele>200.0</ele><time>2026-05-03T10:36:44.314Z</time></trkpt><trkpt lat="44.97301" lon="8.4350405"><ele>200.0</ele><time>2026-05-03T10:36:45.315Z</time></trkpt><trkpt lat="44.9730692" lon="8.4351333"><ele>200.0</ele><time>2026-05-03T10:36:46.315Z</time></trkpt><trkpt lat="44.973139" lon="8.4352176"><ele>200.0</ele><time>2026-05-03T10:36:47.315Z</time></trkpt><trkpt lat="44.9732192" lon="8.435287"><ele>200.0</ele><time>2026-05-03T10:36:48.315Z</time></trkpt><trkpt lat="44.9733091" lon="8.4353399"><ele>200.4</ele><time>2026-05-03T10:36:49.314Z</time></trkpt><trkpt lat="44.9734029" lon="8.4353771"><ele>200.8</ele><time>2026-05-03T10:36:50.315Z</time></trkpt><trkpt lat="44.9735003" lon="8.4354018"><ele>201.2</ele><time>2026-05-03T10:36:51.314Z</time></trkpt><trkpt lat="44.9736006" lon="8.4354256"><ele>201.6</ele><time>2026-05-03T10:36:52.314Z</time></trkpt><trkpt lat="44.9737012" lon="8.4354453"><ele>202.0</ele><time>2026-05-03T10:36:53.315Z</time></trkpt><trkpt lat="44.973803" lon="8.4354514"><ele>202.0</ele><time>2026-05-03T10:36:54.314Z</time></trkpt><trkpt lat="44.9739056" lon="8.4354405"><ele>202.0</ele><time>2026-05-03T10:36:55.314Z</time></trkpt><trkpt lat="44.9740083" lon="8.4354201"><ele>202.0</ele><time>2026-05-03T10:36:56.314Z</time></trkpt><trkpt lat="44.974111" lon="8.4353982"><ele>202.0</ele><time>2026-05-03T10:36:57.315Z</time></trkpt><trkpt lat="44.9742105" lon="8.4353743"><ele>202.0</ele><time>2026-05-03T10:36:58.314Z</time></trkpt><trkpt lat="44.974308" lon="8.4353476"><ele>203.0</ele><time>2026-05-03T10:36:59.314Z</time></trkpt><trkpt lat="44.9744055" lon="8.4353201"><ele>204.0</ele><time>2026-05-03T10:37:00.315Z</time></trkpt><trkpt lat="44.9745021" lon="8.4352918"><ele>205.0</ele><time>2026-05-03T10:37:01.316Z</time></trkpt><trkpt lat="44.9745988" lon="8.435265"><ele>206.0</ele><time>2026-05-03T10:37:02.315Z</time></trkpt><trkpt lat="44.9746963" lon="8.4352399"><ele>207.0</ele><time>2026-05-03T10:37:03.316Z</time></trkpt><trkpt lat="44.9747948" lon="8.4352151"><ele>207.0</ele><time>2026-05-03T10:37:04.316Z</time></trkpt><trkpt lat="44.9748938" lon="8.435189"><ele>207.0</ele><time>2026-05-03T10:37:05.316Z</time></trkpt><trkpt lat="44.9749915" lon="8.4351659"><ele>207.0</ele><time>2026-05-03T10:37:06.315Z</time></trkpt><trkpt lat="44.9750871" lon="8.4351462"><ele>207.0</ele><time>2026-05-03T10:37:07.315Z</time></trkpt><trkpt lat="44.9751751" lon="8.4351291"><ele>207.0</ele><time>2026-05-03T10:37:08.315Z</time></trkpt><trkpt lat="44.9752521" lon="8.4351199"><ele>206.83333333333334</ele><time>2026-05-03T10:37:09.316Z</time></trkpt><trkpt lat="44.9753235" lon="8.4351111"><ele>206.66666666666669</ele><time>2026-05-03T10:37:10.315Z</time></trkpt><trkpt lat="44.9753952" lon="8.4350932"><ele>206.5</ele><time>2026-05-03T10:37:11.315Z</time></trkpt><trkpt lat="44.9754729" lon="8.4350683"><ele>206.33333333333334</ele><time>2026-05-03T10:37:12.316Z</time></trkpt><trkpt lat="44.9755585" lon="8.4350316"><ele>206.16666666666669</ele><time>2026-05-03T10:37:13.315Z</time></trkpt><trkpt lat="44.9756506" lon="8.4349801"><ele>206.0</ele><time>2026-05-03T10:37:14.315Z</time></trkpt><trkpt lat="44.9757456" lon="8.4349109"><ele>206.0</ele><time>2026-05-03T10:37:15.315Z</time></trkpt><trkpt lat="44.9758391" lon="8.4348286"><ele>206.0</ele><time>2026-05-03T10:37:16.315Z</time></trkpt><trkpt lat="44.9759236" lon="8.4347452"><ele>206.0</ele><time>2026-05-03T10:37:17.315Z</time></trkpt><trkpt lat="44.9760027" lon="8.4346629"><ele>206.0</ele><time>2026-05-03T10:37:18.315Z</time></trkpt><trkpt lat="44.9760752" lon="8.4345858"><ele>206.0</ele><time>2026-05-03T10:37:19.315Z</time></trkpt><trkpt lat="44.9761503" lon="8.4345163"><ele>205.0</ele><time>2026-05-03T10:37:20.316Z</time></trkpt><trkpt lat="44.9762306" lon="8.4344623"><ele>204.0</ele><time>2026-05-03T10:37:21.316Z</time></trkpt><trkpt lat="44.9763179" lon="8.4344278"><ele>203.0</ele><time>2026-05-03T10:37:22.316Z</time></trkpt><trkpt lat="44.9764097" lon="8.4344112"><ele>202.0</ele><time>2026-05-03T10:37:23.316Z</time></trkpt><trkpt lat="44.9765023" lon="8.4344097"><ele>201.0</ele><time>2026-05-03T10:37:24.316Z</time></trkpt><trkpt lat="44.9765939" lon="8.4344219"><ele>201.0</ele><time>2026-05-03T10:37:25.316Z</time></trkpt><trkpt lat="44.976684" lon="8.4344462"><ele>201.0</ele><time>2026-05-03T10:37:26.316Z</time></trkpt><trkpt lat="44.9767794" lon="8.4344748"><ele>201.0</ele><time>2026-05-03T10:37:27.315Z</time></trkpt><trkpt lat="44.9768791" lon="8.4345038"><ele>201.0</ele><time>2026-05-03T10:37:28.315Z</time></trkpt><trkpt lat="44.9769811" lon="8.434528"><ele>201.0</ele><time>2026-05-03T10:37:29.315Z</time></trkpt><trkpt lat="44.9770842" lon="8.4345475"><ele>200.60000000000002</ele><time>2026-05-03T10:37:30.315Z</time></trkpt><trkpt lat="44.9771893" lon="8.4345696"><ele>200.2</ele><time>2026-05-03T10:37:31.315Z</time></trkpt><trkpt lat="44.9772844" lon="8.4346072"><ele>199.8</ele><time>2026-05-03T10:37:32.315Z</time></trkpt><trkpt lat="44.9773732" lon="8.4346611"><ele>199.39999999999998</ele><time>2026-05-03T10:37:33.315Z</time></trkpt><trkpt lat="44.9774574" lon="8.4347312"><ele>199.0</ele><time>2026-05-03T10:37:34.315Z</time></trkpt><trkpt lat="44.9775378" lon="8.4348081"><ele>200.6</ele><time>2026-05-03T10:37:35.315Z</time></trkpt><trkpt lat="44.9776184" lon="8.434888"><ele>202.2</ele><time>2026-05-03T10:37:36.315Z</time></trkpt><trkpt lat="44.9776977" lon="8.4349637"><ele>203.79999999999998</ele><time>2026-05-03T10:37:37.316Z</time></trkpt><trkpt lat="44.9777779" lon="8.4350392"><ele>205.39999999999998</ele><time>2026-05-03T10:37:38.315Z</time></trkpt><trkpt lat="44.9778566" lon="8.4351116"><ele>207.0</ele><time>2026-05-03T10:37:39.315Z</time></trkpt><trkpt lat="44.9779345" lon="8.4351782"><ele>207.0</ele><time>2026-05-03T10:37:40.316Z</time></trkpt><trkpt lat="44.9780142" lon="8.4352447"><ele>207.0</ele><time>2026-05-03T10:37:41.316Z</time></trkpt><trkpt lat="44.9780904" lon="8.4353085"><ele>207.0</ele><time>2026-05-03T10:37:42.315Z</time></trkpt><trkpt lat="44.9781585" lon="8.4353733"><ele>207.0</ele><time>2026-05-03T10:37:43.315Z</time></trkpt><trkpt lat="44.9782226" lon="8.4354333"><ele>207.0</ele><time>2026-05-03T10:37:44.316Z</time></trkpt><trkpt lat="44.978288" lon="8.4354878"><ele>207.0</ele><time>2026-05-03T10:37:45.315Z</time></trkpt><trkpt lat="44.9783577" lon="8.4355409"><ele>204.66666666666666</ele><time>2026-05-03T10:37:46.315Z</time></trkpt><trkpt lat="44.9784316" lon="8.4355986"><ele>202.33333333333331</ele><time>2026-05-03T10:37:47.316Z</time></trkpt><trkpt lat="44.9785103" lon="8.4356581"><ele>200.0</ele><time>2026-05-03T10:37:48.315Z</time></trkpt><trkpt lat="44.9785942" lon="8.435706"><ele>197.66666666666666</ele><time>2026-05-03T10:37:49.315Z</time></trkpt><trkpt lat="44.978684" lon="8.4357371"><ele>195.33333333333331</ele><time>2026-05-03T10:37:50.316Z</time></trkpt><trkpt lat="44.9787735" lon="8.4357545"><ele>193.0</ele><time>2026-05-03T10:37:51.316Z</time></trkpt><trkpt lat="44.9788612" lon="8.4357622"><ele>193.0</ele><time>2026-05-03T10:37:52.317Z</time></trkpt><trkpt lat="44.9789485" lon="8.4357622"><ele>193.0</ele><time>2026-05-03T10:37:53.316Z</time></trkpt><trkpt lat="44.9790401" lon="8.435756"><ele>193.0</ele><time>2026-05-03T10:37:54.316Z</time></trkpt><trkpt lat="44.9791338" lon="8.4357432"><ele>193.0</ele><time>2026-05-03T10:37:55.316Z</time></trkpt><trkpt lat="44.9792301" lon="8.4357252"><ele>193.0</ele><time>2026-05-03T10:37:56.317Z</time></trkpt><trkpt lat="44.9793314" lon="8.4357088"><ele>191.8</ele><time>2026-05-03T10:37:57.316Z</time></trkpt><trkpt lat="44.9794308" lon="8.4356919"><ele>190.60000000000002</ele><time>2026-05-03T10:37:58.316Z</time></trkpt><trkpt lat="44.9795332" lon="8.4356758"><ele>189.39999999999998</ele><time>2026-05-03T10:37:59.317Z</time></trkpt><trkpt lat="44.9796294" lon="8.4356605"><ele>188.2</ele><time>2026-05-03T10:38:00.317Z</time></trkpt><trkpt lat="44.9797217" lon="8.4356479"><ele>187.0</ele><time>2026-05-03T10:38:01.317Z</time></trkpt><trkpt lat="44.9798113" lon="8.4356347"><ele>187.0</ele><time>2026-05-03T10:38:02.316Z</time></trkpt><trkpt lat="44.9798954" lon="8.4356193"><ele>187.0</ele><time>2026-05-03T10:38:03.317Z</time></trkpt><trkpt lat="44.9799748" lon="8.4356032"><ele>187.0</ele><time>2026-05-03T10:38:04.317Z</time></trkpt><trkpt lat="44.9800533" lon="8.4355888"><ele>187.0</ele><time>2026-05-03T10:38:05.317Z</time></trkpt><trkpt lat="44.9801304" lon="8.435578"><ele>187.0</ele><time>2026-05-03T10:38:06.316Z</time></trkpt><trkpt lat="44.9802055" lon="8.4355791"><ele>187.0</ele><time>2026-05-03T10:38:07.316Z</time></trkpt><trkpt lat="44.9802832" lon="8.4356024"><ele>187.5</ele><time>2026-05-03T10:38:08.316Z</time></trkpt><trkpt lat="44.9803622" lon="8.4356426"><ele>188.0</ele><time>2026-05-03T10:38:09.316Z</time></trkpt><trkpt lat="44.980436" lon="8.435693"><ele>188.5</ele><time>2026-05-03T10:38:10.316Z</time></trkpt><trkpt lat="44.9805069" lon="8.4357552"><ele>189.0</ele><time>2026-05-03T10:38:11.316Z</time></trkpt><trkpt lat="44.9805679" lon="8.4358383"><ele>189.5</ele><time>2026-05-03T10:38:12.316Z</time></trkpt><trkpt lat="44.9806154" lon="8.4359356"><ele>190.0</ele><time>2026-05-03T10:38:13.316Z</time></trkpt><trkpt lat="44.9806566" lon="8.4360444"><ele>190.0</ele><time>2026-05-03T10:38:14.316Z</time></trkpt><trkpt lat="44.9806962" lon="8.4361506"><ele>190.0</ele><time>2026-05-03T10:38:15.316Z</time></trkpt><trkpt lat="44.9807386" lon="8.4362553"><ele>190.0</ele><time>2026-05-03T10:38:16.317Z</time></trkpt><trkpt lat="44.9807832" lon="8.4363653"><ele>190.0</ele><time>2026-05-03T10:38:17.316Z</time></trkpt><trkpt lat="44.9808298" lon="8.4364796"><ele>190.0</ele><time>2026-05-03T10:38:18.317Z</time></trkpt><trkpt lat="44.9808773" lon="8.4365941"><ele>190.0</ele><time>2026-05-03T10:38:19.317Z</time></trkpt><trkpt lat="44.9809242" lon="8.4367097"><ele>189.8</ele><time>2026-05-03T10:38:20.317Z</time></trkpt><trkpt lat="44.9809697" lon="8.4368279"><ele>189.6</ele><time>2026-05-03T10:38:21.316Z</time></trkpt><trkpt lat="44.9810166" lon="8.4369441"><ele>189.39999999999998</ele><time>2026-05-03T10:38:22.317Z</time></trkpt><trkpt lat="44.9810642" lon="8.4370586"><ele>189.2</ele><time>2026-05-03T10:38:23.316Z</time></trkpt><trkpt lat="44.9811163" lon="8.4371716"><ele>189.0</ele><time>2026-05-03T10:38:24.316Z</time></trkpt><trkpt lat="44.9811797" lon="8.4372782"><ele>187.39999999999998</ele><time>2026-05-03T10:38:25.316Z</time></trkpt><trkpt lat="44.9812555" lon="8.4373735"><ele>185.8</ele><time>2026-05-03T10:38:26.316Z</time></trkpt><trkpt lat="44.9813395" lon="8.4374556"><ele>184.2</ele><time>2026-05-03T10:38:27.316Z</time></trkpt><trkpt lat="44.9814276" lon="8.4375305"><ele>182.60000000000002</ele><time>2026-05-03T10:38:28.316Z</time></trkpt><trkpt lat="44.9815148" lon="8.4376049"><ele>181.0</ele><time>2026-05-03T10:38:29.316Z</time></trkpt><trkpt lat="44.9816008" lon="8.4376763"><ele>180.4</ele><time>2026-05-03T10:38:30.317Z</time></trkpt><trkpt lat="44.9816875" lon="8.4377443"><ele>179.8</ele><time>2026-05-03T10:38:31.316Z</time></trkpt><trkpt lat="44.9817775" lon="8.4378043"><ele>179.20000000000002</ele><time>2026-05-03T10:38:32.317Z</time></trkpt><trkpt lat="44.9818709" lon="8.4378518"><ele>178.60000000000002</ele><time>2026-05-03T10:38:33.316Z</time></trkpt><trkpt lat="44.9819659" lon="8.4378881"><ele>178.0</ele><time>2026-05-03T10:38:34.317Z</time></trkpt><trkpt lat="44.982058" lon="8.4379172"><ele>178.0</ele><time>2026-05-03T10:38:35.316Z</time></trkpt><trkpt lat="44.9821502" lon="8.4379363"><ele>178.0</ele><time>2026-05-03T10:38:36.316Z</time></trkpt><trkpt lat="44.9822435" lon="8.4379517"><ele>178.0</ele><time>2026-05-03T10:38:37.316Z</time></trkpt><trkpt lat="44.9823382" lon="8.4379698"><ele>178.0</ele><time>2026-05-03T10:38:38.316Z</time></trkpt><trkpt lat="44.9824336" lon="8.4380038"><ele>178.0</ele><time>2026-05-03T10:38:39.317Z</time></trkpt><trkpt lat="44.9825247" lon="8.4380675"><ele>176.4</ele><time>2026-05-03T10:38:40.317Z</time></trkpt><trkpt lat="44.9826091" lon="8.4381609"><ele>174.8</ele><time>2026-05-03T10:38:41.317Z</time></trkpt><trkpt lat="44.9826738" lon="8.4382789"><ele>173.2</ele><time>2026-05-03T10:38:42.317Z</time></trkpt><trkpt lat="44.9827324" lon="8.43842"><ele>171.6</ele><time>2026-05-03T10:38:43.317Z</time></trkpt><trkpt lat="44.982771" lon="8.438559"><ele>170.0</ele><time>2026-05-03T10:38:44.318Z</time></trkpt><trkpt lat="44.9827991" lon="8.4386975"><ele>170.8</ele><time>2026-05-03T10:38:45.317Z</time></trkpt><trkpt lat="44.9828185" lon="8.4388366"><ele>171.6</ele><time>2026-05-03T10:38:46.317Z</time></trkpt><trkpt lat="44.9828294" lon="8.438991"><ele>172.39999999999998</ele><time>2026-05-03T10:38:47.317Z</time></trkpt><trkpt lat="44.9828369" lon="8.4391313"><ele>173.2</ele><time>2026-05-03T10:38:48.317Z</time></trkpt><trkpt lat="44.9828482" lon="8.4392652"><ele>174.0</ele><time>2026-05-03T10:38:49.317Z</time></trkpt><trkpt lat="44.9828653" lon="8.4393975"><ele>174.0</ele><time>2026-05-03T10:38:50.317Z</time></trkpt><trkpt lat="44.9828923" lon="8.4395259"><ele>174.0</ele><time>2026-05-03T10:38:51.317Z</time></trkpt><trkpt lat="44.982933" lon="8.4396471"><ele>174.0</ele><time>2026-05-03T10:38:52.317Z</time></trkpt><trkpt lat="44.9829853" lon="8.4397555"><ele>174.0</ele><time>2026-05-03T10:38:53.317Z</time></trkpt><trkpt lat="44.9830346" lon="8.4398638"><ele>174.0</ele><time>2026-05-03T10:38:54.318Z</time></trkpt><trkpt lat="44.9830766" lon="8.439979"><ele>174.83333333333334</ele><time>2026-05-03T10:38:55.317Z</time></trkpt><trkpt lat="44.9831134" lon="8.4400996"><ele>175.66666666666666</ele><time>2026-05-03T10:38:56.318Z</time></trkpt><trkpt lat="44.983141" lon="8.4402216"><ele>176.5</ele><time>2026-05-03T10:38:57.317Z</time></trkpt><trkpt lat="44.9831598" lon="8.4403444"><ele>177.33333333333331</ele><time>2026-05-03T10:38:58.317Z</time></trkpt><trkpt lat="44.9831701" lon="8.4404629"><ele>178.16666666666666</ele><time>2026-05-03T10:38:59.317Z</time></trkpt><trkpt lat="44.9831809" lon="8.4405798"><ele>179.0</ele><time>2026-05-03T10:39:00.318Z</time></trkpt><trkpt lat="44.9831974" lon="8.4406942"><ele>179.66666666666666</ele><time>2026-05-03T10:39:01.317Z</time></trkpt><trkpt lat="44.9832197" lon="8.4408036"><ele>180.33333333333331</ele><time>2026-05-03T10:39:02.317Z</time></trkpt><trkpt lat="44.9832476" lon="8.4409117"><ele>181.0</ele><time>2026-05-03T10:39:03.317Z</time></trkpt><trkpt lat="44.9832826" lon="8.4410237"><ele>181.66666666666666</ele><time>2026-05-03T10:39:04.317Z</time></trkpt><trkpt lat="44.9833206" lon="8.4411373"><ele>182.33333333333334</ele><time>2026-05-03T10:39:05.317Z</time></trkpt><trkpt lat="44.9833596" lon="8.4412522"><ele>183.0</ele><time>2026-05-03T10:39:06.317Z</time></trkpt><trkpt lat="44.9834005" lon="8.4413669"><ele>183.0</ele><time>2026-05-03T10:39:07.317Z</time></trkpt><trkpt lat="44.9834417" lon="8.4414811"><ele>183.0</ele><time>2026-05-03T10:39:08.317Z</time></trkpt><trkpt lat="44.9834798" lon="8.441592"><ele>183.0</ele><time>2026-05-03T10:39:09.318Z</time></trkpt><trkpt lat="44.9835184" lon="8.4417049"><ele>183.0</ele><time>2026-05-03T10:39:10.318Z</time></trkpt><trkpt lat="44.9835571" lon="8.4418162"><ele>183.0</ele><time>2026-05-03T10:39:11.317Z</time></trkpt><trkpt lat="44.9835951" lon="8.4419232"><ele>183.0</ele><time>2026-05-03T10:39:12.317Z</time></trkpt><trkpt lat="44.9836319" lon="8.4420287"><ele>185.0</ele><time>2026-05-03T10:39:13.318Z</time></trkpt><trkpt lat="44.9836715" lon="8.442134"><ele>187.0</ele><time>2026-05-03T10:39:14.317Z</time></trkpt><trkpt lat="44.9837129" lon="8.4422377"><ele>189.0</ele><time>2026-05-03T10:39:15.317Z</time></trkpt><trkpt lat="44.9837586" lon="8.4423379"><ele>191.0</ele><time>2026-05-03T10:39:16.317Z</time></trkpt><trkpt lat="44.9838077" lon="8.4424306"><ele>193.0</ele><time>2026-05-03T10:39:17.317Z</time></trkpt><trkpt lat="44.9838573" lon="8.4425156"><ele>195.0</ele><time>2026-05-03T10:39:18.317Z</time></trkpt><trkpt lat="44.9839066" lon="8.4426031"><ele>195.0</ele><time>2026-05-03T10:39:19.317Z</time></trkpt><trkpt lat="44.9839607" lon="8.4426897"><ele>195.0</ele><time>2026-05-03T10:39:20.317Z</time></trkpt><trkpt lat="44.9840251" lon="8.4427701"><ele>195.0</ele><time>2026-05-03T10:39:21.318Z</time></trkpt><trkpt lat="44.9841006" lon="8.4428451"><ele>195.0</ele><time>2026-05-03T10:39:22.318Z</time></trkpt><trkpt lat="44.9841837" lon="8.4429125"><ele>195.0</ele><time>2026-05-03T10:39:23.318Z</time></trkpt><trkpt lat="44.984267" lon="8.4429764"><ele>196.2</ele><time>2026-05-03T10:39:24.317Z</time></trkpt><trkpt lat="44.9843463" lon="8.4430453"><ele>197.4</ele><time>2026-05-03T10:39:25.317Z</time></trkpt><trkpt lat="44.9844241" lon="8.4431191"><ele>198.60000000000002</ele><time>2026-05-03T10:39:26.317Z</time></trkpt><trkpt lat="44.984502" lon="8.4431927"><ele>199.8</ele><time>2026-05-03T10:39:27.317Z</time></trkpt><trkpt lat="44.9845816" lon="8.4432636"><ele>201.0</ele><time>2026-05-03T10:39:28.318Z</time></trkpt><trkpt lat="44.9846617" lon="8.4433327"><ele>201.0</ele><time>2026-05-03T10:39:29.318Z</time></trkpt><trkpt lat="44.9847419" lon="8.4434032"><ele>201.0</ele><time>2026-05-03T10:39:30.319Z</time></trkpt><trkpt lat="44.9848199" lon="8.4434782"><ele>201.0</ele><time>2026-05-03T10:39:31.319Z</time></trkpt><trkpt lat="44.9848921" lon="8.4435592"><ele>201.0</ele><time>2026-05-03T10:39:32.318Z</time></trkpt><trkpt lat="44.9849636" lon="8.4436352"><ele>201.0</ele><time>2026-05-03T10:39:33.319Z</time></trkpt><trkpt lat="44.985035" lon="8.443704"><ele>200.66666666666666</ele><time>2026-05-03T10:39:34.319Z</time></trkpt><trkpt lat="44.9851068" lon="8.4437698"><ele>200.33333333333331</ele><time>2026-05-03T10:39:35.318Z</time></trkpt><trkpt lat="44.9851783" lon="8.4438319"><ele>200.0</ele><time>2026-05-03T10:39:36.318Z</time></trkpt><trkpt lat="44.985248" lon="8.443891"><ele>199.66666666666666</ele><time>2026-05-03T10:39:37.318Z</time></trkpt><trkpt lat="44.9853144" lon="8.4439518"><ele>199.33333333333331</ele><time>2026-05-03T10:39:38.319Z</time></trkpt><trkpt lat="44.9853769" lon="8.4440179"><ele>199.0</ele><time>2026-05-03T10:39:39.318Z</time></trkpt><trkpt lat="44.9854374" lon="8.4440835"><ele>200.28571428571428</ele><time>2026-05-03T10:39:40.318Z</time></trkpt><trkpt lat="44.9855003" lon="8.4441408"><ele>201.57142857142856</ele><time>2026-05-03T10:39:41.319Z</time></trkpt><trkpt lat="44.9855636" lon="8.4441897"><ele>202.85714285714283</ele><time>2026-05-03T10:39:42.318Z</time></trkpt><trkpt lat="44.9856247" lon="8.4442406"><ele>204.14285714285714</ele><time>2026-05-03T10:39:43.319Z</time></trkpt><trkpt lat="44.9856813" lon="8.4442975"><ele>205.42857142857144</ele><time>2026-05-03T10:39:44.319Z</time></trkpt><trkpt lat="44.9857373" lon="8.444355"><ele>206.7142857142857</ele><time>2026-05-03T10:39:45.318Z</time></trkpt><trkpt lat="44.9857938" lon="8.4444054"><ele>208.0</ele><time>2026-05-03T10:39:46.319Z</time></trkpt><trkpt lat="44.9858503" lon="8.444451"><ele>207.99999999999997</ele><time>2026-05-03T10:39:47.318Z</time></trkpt><trkpt lat="44.9859047" lon="8.4444983"><ele>208.0</ele><time>2026-05-03T10:39:48.318Z</time></trkpt><trkpt lat="44.9859587" lon="8.4445452"><ele>208.0</ele><time>2026-05-03T10:39:49.318Z</time></trkpt><trkpt lat="44.986012" lon="8.444593"><ele>208.0</ele><time>2026-05-03T10:39:50.318Z</time></trkpt><trkpt lat="44.9861152" lon="8.4446928"><ele>207.99999999999997</ele><time>2026-05-03T10:39:52.318Z</time></trkpt><trkpt lat="44.986223" lon="8.4447831"><ele>208.0</ele><time>2026-05-03T10:39:54.318Z</time></trkpt><trkpt lat="44.9862778" lon="8.4448282"><ele>209.49999999999997</ele><time>2026-05-03T10:39:55.318Z</time></trkpt><trkpt lat="44.9863829" lon="8.444918"><ele>211.0</ele><time>2026-05-03T10:39:57.318Z</time></trkpt><trkpt lat="44.9864324" lon="8.4449744"><ele>212.5</ele><time>2026-05-03T10:39:58.318Z</time></trkpt><trkpt lat="44.9865183" lon="8.4451017"><ele>214.0</ele><time>2026-05-03T10:40:00.318Z</time></trkpt><trkpt lat="44.9865546" lon="8.4451765"><ele>215.49999999999997</ele><time>2026-05-03T10:40:01.318Z</time></trkpt><trkpt lat="44.9865841" lon="8.4452616"><ele>217.0</ele><time>2026-05-03T10:40:02.318Z</time></trkpt><trkpt lat="44.9866074" lon="8.4453538"><ele>217.0</ele><time>2026-05-03T10:40:03.318Z</time></trkpt><trkpt lat="44.9866307" lon="8.4454464"><ele>217.0</ele><time>2026-05-03T10:40:04.319Z</time></trkpt><trkpt lat="44.9866566" lon="8.4455349"><ele>217.0</ele><time>2026-05-03T10:40:05.318Z</time></trkpt><trkpt lat="44.9866893" lon="8.4456186"><ele>217.0</ele><time>2026-05-03T10:40:06.319Z</time></trkpt><trkpt lat="44.986729" lon="8.4456969"><ele>217.0</ele><time>2026-05-03T10:40:07.319Z</time></trkpt><trkpt lat="44.9867745" lon="8.445762"><ele>217.0</ele><time>2026-05-03T10:40:08.318Z</time></trkpt><trkpt lat="44.9868244" lon="8.4458205"><ele>217.0</ele><time>2026-05-03T10:40:09.318Z</time></trkpt><trkpt lat="44.9868785" lon="8.4458789"><ele>216.99999999999997</ele><time>2026-05-03T10:40:10.318Z</time></trkpt><trkpt lat="44.9869341" lon="8.4459384"><ele>217.0</ele><time>2026-05-03T10:40:11.318Z</time></trkpt><trkpt lat="44.9869911" lon="8.4459959"><ele>217.0</ele><time>2026-05-03T10:40:12.318Z</time></trkpt><trkpt lat="44.9870544" lon="8.4460544"><ele>217.0</ele><time>2026-05-03T10:40:13.318Z</time></trkpt><trkpt lat="44.9871209" lon="8.4461107"><ele>216.99999999999997</ele><time>2026-05-03T10:40:14.319Z</time></trkpt><trkpt lat="44.9871901" lon="8.4461686"><ele>217.0</ele><time>2026-05-03T10:40:15.318Z</time></trkpt><trkpt lat="44.9872588" lon="8.4462301"><ele>217.0</ele><time>2026-05-03T10:40:16.319Z</time></trkpt><trkpt lat="44.9873248" lon="8.4462903"><ele>217.0</ele><time>2026-05-03T10:40:17.32Z</time></trkpt><trkpt lat="44.9873885" lon="8.4463437"><ele>217.0</ele><time>2026-05-03T10:40:18.319Z</time></trkpt><trkpt lat="44.9874485" lon="8.4463942"><ele>217.0</ele><time>2026-05-03T10:40:19.32Z</time></trkpt><trkpt lat="44.9875042" lon="8.4464443"><ele>217.0</ele><time>2026-05-03T10:40:20.32Z</time></trkpt><trkpt lat="44.9875581" lon="8.4464962"><ele>217.0</ele><time>2026-05-03T10:40:21.319Z</time></trkpt><trkpt lat="44.9876158" lon="8.4465472"><ele>217.0</ele><time>2026-05-03T10:40:22.319Z</time></trkpt><trkpt lat="44.9876741" lon="8.4466013"><ele>217.16666666666666</ele><time>2026-05-03T10:40:23.319Z</time></trkpt><trkpt lat="44.9877385" lon="8.4466535"><ele>217.33333333333331</ele><time>2026-05-03T10:40:24.319Z</time></trkpt><trkpt lat="44.9878081" lon="8.4467006"><ele>217.5</ele><time>2026-05-03T10:40:25.32Z</time></trkpt><trkpt lat="44.9878847" lon="8.4467432"><ele>217.66666666666669</ele><time>2026-05-03T10:40:26.319Z</time></trkpt><trkpt lat="44.9879638" lon="8.4467842"><ele>217.83333333333334</ele><time>2026-05-03T10:40:27.32Z</time></trkpt><trkpt lat="44.9880407" lon="8.446825"><ele>218.0</ele><time>2026-05-03T10:40:28.32Z</time></trkpt><trkpt lat="44.9881146" lon="8.4468678"><ele>218.0</ele><time>2026-05-03T10:40:29.32Z</time></trkpt><trkpt lat="44.9881856" lon="8.4469139"><ele>218.0</ele><time>2026-05-03T10:40:30.319Z</time></trkpt><trkpt lat="44.9882515" lon="8.4469591"><ele>218.0</ele><time>2026-05-03T10:40:31.319Z</time></trkpt><trkpt lat="44.988309" lon="8.4470125"><ele>218.0</ele><time>2026-05-03T10:40:32.319Z</time></trkpt><trkpt lat="44.9883591" lon="8.4470766"><ele>218.0</ele><time>2026-05-03T10:40:33.319Z</time></trkpt><trkpt lat="44.9884014" lon="8.4471542"><ele>218.0</ele><time>2026-05-03T10:40:34.319Z</time></trkpt><trkpt lat="44.9884334" lon="8.4472436"><ele>218.0</ele><time>2026-05-03T10:40:35.32Z</time></trkpt><trkpt lat="44.988461" lon="8.4473376"><ele>217.33333333333334</ele><time>2026-05-03T10:40:36.32Z</time></trkpt><trkpt lat="44.9884883" lon="8.4474444"><ele>216.66666666666669</ele><time>2026-05-03T10:40:37.32Z</time></trkpt><trkpt lat="44.9885064" lon="8.4475454"><ele>216.0</ele><time>2026-05-03T10:40:38.319Z</time></trkpt><trkpt lat="44.9885215" lon="8.4476483"><ele>215.33333333333331</ele><time>2026-05-03T10:40:39.319Z</time></trkpt><trkpt lat="44.9885344" lon="8.4477598"><ele>214.66666666666666</ele><time>2026-05-03T10:40:40.319Z</time></trkpt><trkpt lat="44.9885471" lon="8.4478739"><ele>214.0</ele><time>2026-05-03T10:40:41.319Z</time></trkpt><trkpt lat="44.9885712" lon="8.4479794"><ele>214.0</ele><time>2026-05-03T10:40:42.319Z</time></trkpt><trkpt lat="44.9886085" lon="8.4480862"><ele>213.99999999999997</ele><time>2026-05-03T10:40:43.319Z</time></trkpt><trkpt lat="44.9886579" lon="8.4482005"><ele>213.99999999999997</ele><time>2026-05-03T10:40:44.319Z</time></trkpt><trkpt lat="44.9887072" lon="8.4483144"><ele>214.0</ele><time>2026-05-03T10:40:45.32Z</time></trkpt><trkpt lat="44.9887564" lon="8.4484287"><ele>214.0</ele><time>2026-05-03T10:40:46.32Z</time></trkpt><trkpt lat="44.9888035" lon="8.4485403"><ele>214.0</ele><time>2026-05-03T10:40:47.319Z</time></trkpt><trkpt lat="44.9888515" lon="8.4486557"><ele>213.99999999999997</ele><time>2026-05-03T10:40:48.319Z</time></trkpt><trkpt lat="44.9889023" lon="8.4487769"><ele>213.99999999999997</ele><time>2026-05-03T10:40:49.319Z</time></trkpt><trkpt lat="44.9889539" lon="8.4488988"><ele>214.0</ele><time>2026-05-03T10:40:50.319Z</time></trkpt><trkpt lat="44.9890053" lon="8.4490211"><ele>214.0</ele><time>2026-05-03T10:40:51.319Z</time></trkpt><trkpt lat="44.9890529" lon="8.4491446"><ele>215.2</ele><time>2026-05-03T10:40:52.319Z</time></trkpt><trkpt lat="44.9890967" lon="8.4492714"><ele>216.39999999999998</ele><time>2026-05-03T10:40:53.319Z</time></trkpt><trkpt lat="44.9891385" lon="8.4493944"><ele>217.6</ele><time>2026-05-03T10:40:54.319Z</time></trkpt><trkpt lat="44.989182" lon="8.4495126"><ele>218.8</ele><time>2026-05-03T10:40:55.32Z</time></trkpt><trkpt lat="44.989224" lon="8.4496229"><ele>220.0</ele><time>2026-05-03T10:40:56.319Z</time></trkpt><trkpt lat="44.9892628" lon="8.4497301"><ele>220.66666666666666</ele><time>2026-05-03T10:40:57.319Z</time></trkpt><trkpt lat="44.9892988" lon="8.4498321"><ele>221.33333333333331</ele><time>2026-05-03T10:40:58.319Z</time></trkpt><trkpt lat="44.9893377" lon="8.4499298"><ele>222.0</ele><time>2026-05-03T10:40:59.32Z</time></trkpt><trkpt lat="44.989383" lon="8.4500202"><ele>222.66666666666669</ele><time>2026-05-03T10:41:00.319Z</time></trkpt><trkpt lat="44.9894374" lon="8.4500952"><ele>223.33333333333334</ele><time>2026-05-03T10:41:01.319Z</time></trkpt><trkpt lat="44.9895082" lon="8.4501473"><ele>224.0</ele><time>2026-05-03T10:41:02.32Z</time></trkpt><trkpt lat="44.9895865" lon="8.4501694"><ele>224.00000000000003</ele><time>2026-05-03T10:41:03.319Z</time></trkpt><trkpt lat="44.9896712" lon="8.4501757"><ele>224.0</ele><time>2026-05-03T10:41:04.32Z</time></trkpt><trkpt lat="44.989757" lon="8.4501772"><ele>224.0</ele><time>2026-05-03T10:41:05.32Z</time></trkpt><trkpt lat="44.9898402" lon="8.4501924"><ele>224.0</ele><time>2026-05-03T10:41:06.32Z</time></trkpt><trkpt lat="44.9899191" lon="8.4502266"><ele>224.00000000000003</ele><time>2026-05-03T10:41:07.32Z</time></trkpt><trkpt lat="44.9899925" lon="8.4502786"><ele>224.0</ele><time>2026-05-03T10:41:08.32Z</time></trkpt><trkpt lat="44.9900566" lon="8.4503495"><ele>224.00000000000003</ele><time>2026-05-03T10:41:09.32Z</time></trkpt><trkpt lat="44.9901075" lon="8.4504373"><ele>224.0</ele><time>2026-05-03T10:41:10.32Z</time></trkpt><trkpt lat="44.9901474" lon="8.4505372"><ele>224.0</ele><time>2026-05-03T10:41:11.32Z</time></trkpt><trkpt lat="44.9901775" lon="8.4506404"><ele>224.0</ele><time>2026-05-03T10:41:12.32Z</time></trkpt><trkpt lat="44.9901996" lon="8.4507446"><ele>224.00000000000003</ele><time>2026-05-03T10:41:13.32Z</time></trkpt><trkpt lat="44.9902102" lon="8.450851"><ele>224.0</ele><time>2026-05-03T10:41:14.321Z</time></trkpt><trkpt lat="44.9902134" lon="8.4509555"><ele>224.0</ele><time>2026-05-03T10:41:15.32Z</time></trkpt><trkpt lat="44.9902244" lon="8.4510532"><ele>224.0</ele><time>2026-05-03T10:41:16.32Z</time></trkpt><trkpt lat="44.9902465" lon="8.4511515"><ele>224.0</ele><time>2026-05-03T10:41:17.32Z</time></trkpt><trkpt lat="44.9902685" lon="8.4512473"><ele>224.0</ele><time>2026-05-03T10:41:18.321Z</time></trkpt><trkpt lat="44.9902848" lon="8.4513446"><ele>224.0</ele><time>2026-05-03T10:41:19.321Z</time></trkpt><trkpt lat="44.9902967" lon="8.4514381"><ele>224.0</ele><time>2026-05-03T10:41:20.321Z</time></trkpt><trkpt lat="44.9903071" lon="8.4515326"><ele>224.0</ele><time>2026-05-03T10:41:21.321Z</time></trkpt><trkpt lat="44.9903161" lon="8.4516291"><ele>225.50000000000003</ele><time>2026-05-03T10:41:22.32Z</time></trkpt><trkpt lat="44.9903282" lon="8.4517201"><ele>227.0</ele><time>2026-05-03T10:41:23.321Z</time></trkpt><trkpt lat="44.9903447" lon="8.4518065"><ele>228.5</ele><time>2026-05-03T10:41:24.32Z</time></trkpt><trkpt lat="44.9903814" lon="8.4519785"><ele>230.0</ele><time>2026-05-03T10:41:26.32Z</time></trkpt><trkpt lat="44.9903929" lon="8.4520883"><ele>231.50000000000003</ele><time>2026-05-03T10:41:27.32Z</time></trkpt><trkpt lat="44.990396" lon="8.4521872"><ele>233.0</ele><time>2026-05-03T10:41:28.321Z</time></trkpt><trkpt lat="44.9903947" lon="8.4522807"><ele>233.28571428571428</ele><time>2026-05-03T10:41:29.32Z</time></trkpt><trkpt lat="44.9903951" lon="8.4523722"><ele>233.57142857142856</ele><time>2026-05-03T10:41:30.32Z</time></trkpt><trkpt lat="44.9903983" lon="8.4524702"><ele>233.85714285714283</ele><time>2026-05-03T10:41:31.32Z</time></trkpt><trkpt lat="44.9904049" lon="8.4525695"><ele>234.14285714285714</ele><time>2026-05-03T10:41:32.32Z</time></trkpt><trkpt lat="44.9904114" lon="8.4526745"><ele>234.4285714285714</ele><time>2026-05-03T10:41:33.32Z</time></trkpt><trkpt lat="44.9904152" lon="8.4527868"><ele>234.7142857142857</ele><time>2026-05-03T10:41:34.321Z</time></trkpt><trkpt lat="44.9904153" lon="8.452895"><ele>235.0</ele><time>2026-05-03T10:41:35.321Z</time></trkpt><trkpt lat="44.9904185" lon="8.4529909"><ele>234.99999999999997</ele><time>2026-05-03T10:41:36.32Z</time></trkpt><trkpt lat="44.9904297" lon="8.4531674"><ele>235.0</ele><time>2026-05-03T10:41:38.321Z</time></trkpt><trkpt lat="44.9904355" lon="8.4532756"><ele>235.0</ele><time>2026-05-03T10:41:39.321Z</time></trkpt><trkpt lat="44.9904378" lon="8.4533905"><ele>235.0</ele><time>2026-05-03T10:41:40.32Z</time></trkpt><trkpt lat="44.9904423" lon="8.4535015"><ele>234.99999999999997</ele><time>2026-05-03T10:41:41.32Z</time></trkpt><trkpt lat="44.9904483" lon="8.4536159"><ele>235.0</ele><time>2026-05-03T10:41:42.32Z</time></trkpt><trkpt lat="44.9904534" lon="8.4537192"><ele>234.85714285714283</ele><time>2026-05-03T10:41:43.321Z</time></trkpt><trkpt lat="44.9904562" lon="8.4538231"><ele>234.7142857142857</ele><time>2026-05-03T10:41:44.321Z</time></trkpt><trkpt lat="44.9904577" lon="8.4539223"><ele>234.57142857142856</ele><time>2026-05-03T10:41:45.32Z</time></trkpt><trkpt lat="44.9904602" lon="8.4540244"><ele>234.42857142857144</ele><time>2026-05-03T10:41:46.32Z</time></trkpt><trkpt lat="44.9904662" lon="8.4541178"><ele>234.2857142857143</ele><time>2026-05-03T10:41:47.32Z</time></trkpt><trkpt lat="44.9904706" lon="8.4542145"><ele>234.14285714285717</ele><time>2026-05-03T10:41:48.32Z</time></trkpt><trkpt lat="44.9904741" lon="8.4543073"><ele>234.0</ele><time>2026-05-03T10:41:49.321Z</time></trkpt><trkpt lat="44.9904787" lon="8.4544022"><ele>234.0</ele><time>2026-05-03T10:41:50.32Z</time></trkpt><trkpt lat="44.9904834" lon="8.4544948"><ele>234.0</ele><time>2026-05-03T10:41:51.32Z</time></trkpt><trkpt lat="44.9904862" lon="8.4545886"><ele>234.0</ele><time>2026-05-03T10:41:52.321Z</time></trkpt><trkpt lat="44.9904924" lon="8.4547656"><ele>234.0</ele><time>2026-05-03T10:41:54.321Z</time></trkpt><trkpt lat="44.9904954" lon="8.4548591"><ele>234.0</ele><time>2026-05-03T10:41:55.322Z</time></trkpt><trkpt lat="44.9904937" lon="8.4549557"><ele>234.0</ele><time>2026-05-03T10:41:56.321Z</time></trkpt><trkpt lat="44.990492" lon="8.4551243"><ele>235.5</ele><time>2026-05-03T10:41:58.321Z</time></trkpt><trkpt lat="44.9905025" lon="8.4552993"><ele>237.0</ele><time>2026-05-03T10:42:00.321Z</time></trkpt><trkpt lat="44.9905173" lon="8.4554773"><ele>238.5</ele><time>2026-05-03T10:42:02.322Z</time></trkpt><trkpt lat="44.9905593" lon="8.4556267"><ele>240.0</ele><time>2026-05-03T10:42:04.321Z</time></trkpt><trkpt lat="44.9906624" lon="8.4556672"><ele>239.66666666666666</ele><time>2026-05-03T10:42:06.321Z</time></trkpt><trkpt lat="44.9907315" lon="8.4556664"><ele>239.33333333333331</ele><time>2026-05-03T10:42:07.321Z</time></trkpt><trkpt lat="44.9908111" lon="8.4556672"><ele>239.0</ele><time>2026-05-03T10:42:08.322Z</time></trkpt><trkpt lat="44.9908876" lon="8.4556761"><ele>238.66666666666666</ele><time>2026-05-03T10:42:09.323Z</time></trkpt><trkpt lat="44.9909616" lon="8.4556853"><ele>238.33333333333331</ele><time>2026-05-03T10:42:10.321Z</time></trkpt><trkpt lat="44.9910405" lon="8.4556998"><ele>238.0</ele><time>2026-05-03T10:42:11.322Z</time></trkpt><trkpt lat="44.9911221" lon="8.4557128"><ele>237.99999999999997</ele><time>2026-05-03T10:42:12.321Z</time></trkpt><trkpt lat="44.9912058" lon="8.4557288"><ele>238.0</ele><time>2026-05-03T10:42:13.322Z</time></trkpt><trkpt lat="44.9912887" lon="8.4557475"><ele>238.0</ele><time>2026-05-03T10:42:14.322Z</time></trkpt><trkpt lat="44.9913603" lon="8.4557778"><ele>238.0</ele><time>2026-05-03T10:42:15.322Z</time></trkpt><trkpt lat="44.9914275" lon="8.4558183"><ele>237.99999999999997</ele><time>2026-05-03T10:42:16.321Z</time></trkpt><trkpt lat="44.9914846" lon="8.4558787"><ele>238.0</ele><time>2026-05-03T10:42:17.322Z</time></trkpt><trkpt lat="44.9915393" lon="8.4559529"><ele>238.0</ele><time>2026-05-03T10:42:18.322Z</time></trkpt><trkpt lat="44.9915883" lon="8.4560285"><ele>238.0</ele><time>2026-05-03T10:42:19.321Z</time></trkpt><trkpt lat="44.9916357" lon="8.4561183"><ele>238.0</ele><time>2026-05-03T10:42:20.321Z</time></trkpt><trkpt lat="44.9916802" lon="8.4562062"><ele>238.0</ele><time>2026-05-03T10:42:21.321Z</time></trkpt><trkpt lat="44.9917259" lon="8.4562989"><ele>238.0</ele><time>2026-05-03T10:42:22.322Z</time></trkpt><trkpt lat="44.9917711" lon="8.4563767"><ele>238.0</ele><time>2026-05-03T10:42:23.322Z</time></trkpt><trkpt lat="44.9918128" lon="8.4564478"><ele>238.0</ele><time>2026-05-03T10:42:24.321Z</time></trkpt><trkpt lat="44.9918537" lon="8.4565274"><ele>238.0</ele><time>2026-05-03T10:42:25.322Z</time></trkpt><trkpt lat="44.9919185" lon="8.4566297"><ele>238.0</ele><time>2026-05-03T10:42:27.322Z</time></trkpt><trkpt lat="44.9920226" lon="8.4566562"><ele>238.0</ele><time>2026-05-03T10:42:29.322Z</time></trkpt><trkpt lat="44.9921546" lon="8.4566691"><ele>238.0</ele><time>2026-05-03T10:42:31.321Z</time></trkpt><trkpt lat="44.9922187" lon="8.4566719"><ele>238.0</ele><time>2026-05-03T10:42:32.321Z</time></trkpt><trkpt lat="44.9922844" lon="8.4566811"><ele>237.99999999999997</ele><time>2026-05-03T10:42:33.322Z</time></trkpt><trkpt lat="44.9923547" lon="8.4566943"><ele>238.0</ele><time>2026-05-03T10:42:34.321Z</time></trkpt><trkpt lat="44.9924681" lon="8.4566672"><ele>238.0</ele><time>2026-05-03T10:42:36.321Z</time></trkpt><trkpt lat="44.9925281" lon="8.4566259"><ele>238.0</ele><time>2026-05-03T10:42:37.322Z</time></trkpt><trkpt lat="44.9926433" lon="8.4565651"><ele>237.99999999999997</ele><time>2026-05-03T10:42:39.321Z</time></trkpt><trkpt lat="44.9927108" lon="8.4565393"><ele>238.0</ele><time>2026-05-03T10:42:40.322Z</time></trkpt><trkpt lat="44.9928252" lon="8.4564981"><ele>237.2</ele><time>2026-05-03T10:42:42.322Z</time></trkpt><trkpt lat="44.9929143" lon="8.4564919"><ele>236.4</ele><time>2026-05-03T10:42:44.323Z</time></trkpt><trkpt lat="44.993005" lon="8.4565403"><ele>235.59999999999997</ele><time>2026-05-03T10:42:46.322Z</time></trkpt><trkpt lat="44.9931042" lon="8.4566179"><ele>234.79999999999998</ele><time>2026-05-03T10:42:48.322Z</time></trkpt><trkpt lat="44.9931488" lon="8.4566822"><ele>234.0</ele><time>2026-05-03T10:42:49.322Z</time></trkpt><trkpt lat="44.9932322" lon="8.4567789"><ele>234.0</ele><time>2026-05-03T10:42:51.322Z</time></trkpt><trkpt lat="44.9932684" lon="8.4568603"><ele>233.99999999999997</ele><time>2026-05-03T10:42:53.322Z</time></trkpt><trkpt lat="44.9932178" lon="8.4569959"><ele>233.99999999999997</ele><time>2026-05-03T10:42:55.322Z</time></trkpt><trkpt lat="44.9931424" lon="8.4571491"><ele>234.0</ele><time>2026-05-03T10:42:57.323Z</time></trkpt><trkpt lat="44.9930944" lon="8.4572531"><ele>234.0</ele><time>2026-05-03T10:42:58.322Z</time></trkpt><trkpt lat="44.9930472" lon="8.4573345"><ele>231.79999999999998</ele><time>2026-05-03T10:42:59.322Z</time></trkpt><trkpt lat="44.9929896" lon="8.4574044"><ele>229.59999999999997</ele><time>2026-05-03T10:43:00.323Z</time></trkpt><trkpt lat="44.9929141" lon="8.4574792"><ele>227.4</ele><time>2026-05-03T10:43:01.323Z</time></trkpt><trkpt lat="44.9928203" lon="8.4575463"><ele>225.2</ele><time>2026-05-03T10:43:02.323Z</time></trkpt><trkpt lat="44.9927241" lon="8.457585"><ele>223.0</ele><time>2026-05-03T10:43:03.322Z</time></trkpt><trkpt lat="44.9926287" lon="8.457589"><ele>223.0</ele><time>2026-05-03T10:43:04.322Z</time></trkpt><trkpt lat="44.9925407" lon="8.457567"><ele>223.0</ele><time>2026-05-03T10:43:05.322Z</time></trkpt><trkpt lat="44.9924533" lon="8.4575709"><ele>223.0</ele><time>2026-05-03T10:43:06.322Z</time></trkpt><trkpt lat="44.9923774" lon="8.457578"><ele>223.0</ele><time>2026-05-03T10:43:07.323Z</time></trkpt><trkpt lat="44.9922596" lon="8.4575956"><ele>223.0</ele><time>2026-05-03T10:43:09.323Z</time></trkpt><trkpt lat="44.9921376" lon="8.4576307"><ele>222.49999999999997</ele><time>2026-05-03T10:43:11.323Z</time></trkpt><trkpt lat="44.9920725" lon="8.4576716"><ele>222.0</ele><time>2026-05-03T10:43:12.323Z</time></trkpt><trkpt lat="44.9920151" lon="8.4577337"><ele>221.5</ele><time>2026-05-03T10:43:13.322Z</time></trkpt><trkpt lat="44.9919627" lon="8.4578142"><ele>221.0</ele><time>2026-05-03T10:43:14.322Z</time></trkpt><trkpt lat="44.9919035" lon="8.457913"><ele>220.49999999999997</ele><time>2026-05-03T10:43:15.322Z</time></trkpt><trkpt lat="44.9918519" lon="8.4580192"><ele>220.0</ele><time>2026-05-03T10:43:16.323Z</time></trkpt><trkpt lat="44.9918188" lon="8.4581464"><ele>219.99999999999997</ele><time>2026-05-03T10:43:17.322Z</time></trkpt><trkpt lat="44.9918029" lon="8.458279"><ele>220.0</ele><time>2026-05-03T10:43:18.323Z</time></trkpt><trkpt lat="44.9917965" lon="8.4583998"><ele>220.0</ele><time>2026-05-03T10:43:19.322Z</time></trkpt><trkpt lat="44.9918026" lon="8.4585096"><ele>220.0</ele><time>2026-05-03T10:43:20.322Z</time></trkpt><trkpt lat="44.9918192" lon="8.4586251"><ele>219.99999999999997</ele><time>2026-05-03T10:43:21.322Z</time></trkpt><trkpt lat="44.9918399" lon="8.4587245"><ele>220.0</ele><time>2026-05-03T10:43:22.322Z</time></trkpt><trkpt lat="44.9918951" lon="8.4588682"><ele>218.85714285714283</ele><time>2026-05-03T10:43:24.322Z</time></trkpt><trkpt lat="44.9919352" lon="8.4589472"><ele>217.71428571428572</ele><time>2026-05-03T10:43:25.322Z</time></trkpt><trkpt lat="44.9919766" lon="8.4590255"><ele>216.57142857142856</ele><time>2026-05-03T10:43:26.322Z</time></trkpt><trkpt lat="44.9920117" lon="8.4591215"><ele>215.42857142857142</ele><time>2026-05-03T10:43:27.322Z</time></trkpt><trkpt lat="44.9920401" lon="8.4592168"><ele>214.28571428571428</ele><time>2026-05-03T10:43:28.322Z</time></trkpt><trkpt lat="44.9920501" lon="8.4593217"><ele>213.14285714285714</ele><time>2026-05-03T10:43:29.323Z</time></trkpt><trkpt lat="44.9920316" lon="8.4594312"><ele>212.0</ele><time>2026-05-03T10:43:30.323Z</time></trkpt><trkpt lat="44.9919901" lon="8.4595336"><ele>212.50000000000003</ele><time>2026-05-03T10:43:31.323Z</time></trkpt><trkpt lat="44.9919373" lon="8.4596201"><ele>213.0</ele><time>2026-05-03T10:43:32.324Z</time></trkpt><trkpt lat="44.9918722" lon="8.4596942"><ele>213.5</ele><time>2026-05-03T10:43:33.324Z</time></trkpt><trkpt lat="44.9917989" lon="8.459764"><ele>214.0</ele><time>2026-05-03T10:43:34.323Z</time></trkpt><trkpt lat="44.9917171" lon="8.4598323"><ele>214.50000000000003</ele><time>2026-05-03T10:43:35.324Z</time></trkpt><trkpt lat="44.9916369" lon="8.4599032"><ele>215.0</ele><time>2026-05-03T10:43:36.324Z</time></trkpt><trkpt lat="44.9915572" lon="8.4599782"><ele>215.0</ele><time>2026-05-03T10:43:37.324Z</time></trkpt><trkpt lat="44.9914792" lon="8.4600513"><ele>215.0</ele><time>2026-05-03T10:43:38.323Z</time></trkpt><trkpt lat="44.991409" lon="8.4601311"><ele>215.0</ele><time>2026-05-03T10:43:39.323Z</time></trkpt><trkpt lat="44.9913522" lon="8.46023"><ele>215.0</ele><time>2026-05-03T10:43:40.323Z</time></trkpt><trkpt lat="44.9913107" lon="8.4603476"><ele>215.0</ele><time>2026-05-03T10:43:41.323Z</time></trkpt><trkpt lat="44.9912815" lon="8.4604723"><ele>213.4</ele><time>2026-05-03T10:43:42.323Z</time></trkpt><trkpt lat="44.991263" lon="8.4605978"><ele>211.8</ele><time>2026-05-03T10:43:43.324Z</time></trkpt><trkpt lat="44.9912594" lon="8.4607254"><ele>210.2</ele><time>2026-05-03T10:43:44.323Z</time></trkpt><trkpt lat="44.9912676" lon="8.4608502"><ele>208.6</ele><time>2026-05-03T10:43:45.324Z</time></trkpt><trkpt lat="44.9912865" lon="8.4609761"><ele>207.0</ele><time>2026-05-03T10:43:46.324Z</time></trkpt><trkpt lat="44.9913174" lon="8.4610973"><ele>207.0</ele><time>2026-05-03T10:43:47.324Z</time></trkpt><trkpt lat="44.9913658" lon="8.461212"><ele>207.0</ele><time>2026-05-03T10:43:48.323Z</time></trkpt><trkpt lat="44.9914285" lon="8.4613154"><ele>207.0</ele><time>2026-05-03T10:43:49.323Z</time></trkpt><trkpt lat="44.9915019" lon="8.4614093"><ele>207.0</ele><time>2026-05-03T10:43:50.324Z</time></trkpt><trkpt lat="44.9915682" lon="8.461506"><ele>207.0</ele><time>2026-05-03T10:43:51.323Z</time></trkpt><trkpt lat="44.9916229" lon="8.4616173"><ele>206.66666666666666</ele><time>2026-05-03T10:43:52.323Z</time></trkpt><trkpt lat="44.9916583" lon="8.4617279"><ele>206.33333333333331</ele><time>2026-05-03T10:43:53.323Z</time></trkpt><trkpt lat="44.9916726" lon="8.461851"><ele>206.0</ele><time>2026-05-03T10:43:54.324Z</time></trkpt><trkpt lat="44.9916606" lon="8.4619748"><ele>205.66666666666666</ele><time>2026-05-03T10:43:55.323Z</time></trkpt><trkpt lat="44.9916214" lon="8.4620842"><ele>205.33333333333331</ele><time>2026-05-03T10:43:56.324Z</time></trkpt><trkpt lat="44.9915651" lon="8.4621669"><ele>205.0</ele><time>2026-05-03T10:43:57.323Z</time></trkpt><trkpt lat="44.9914994" lon="8.4622238"><ele>202.4</ele><time>2026-05-03T10:43:58.323Z</time></trkpt><trkpt lat="44.9914198" lon="8.4622489"><ele>199.8</ele><time>2026-05-03T10:43:59.323Z</time></trkpt><trkpt lat="44.9913325" lon="8.4622526"><ele>197.2</ele><time>2026-05-03T10:44:00.323Z</time></trkpt><trkpt lat="44.9912342" lon="8.4622443"><ele>194.6</ele><time>2026-05-03T10:44:01.323Z</time></trkpt><trkpt lat="44.9911435" lon="8.4622349"><ele>192.0</ele><time>2026-05-03T10:44:02.324Z</time></trkpt><trkpt lat="44.9910498" lon="8.4622331"><ele>192.0</ele><time>2026-05-03T10:44:03.323Z</time></trkpt><trkpt lat="44.9909536" lon="8.4622476"><ele>192.0</ele><time>2026-05-03T10:44:04.324Z</time></trkpt><trkpt lat="44.9908587" lon="8.4622818"><ele>192.0</ele><time>2026-05-03T10:44:05.323Z</time></trkpt><trkpt lat="44.9907667" lon="8.4623172"><ele>192.0</ele><time>2026-05-03T10:44:06.323Z</time></trkpt><trkpt lat="44.9906781" lon="8.4623781"><ele>192.0</ele><time>2026-05-03T10:44:07.324Z</time></trkpt><trkpt lat="44.9905916" lon="8.4624628"><ele>193.39999999999998</ele><time>2026-05-03T10:44:08.323Z</time></trkpt><trkpt lat="44.9905054" lon="8.4625529"><ele>194.79999999999998</ele><time>2026-05-03T10:44:09.323Z</time></trkpt><trkpt lat="44.9904164" lon="8.4626428"><ele>196.2</ele><time>2026-05-03T10:44:10.324Z</time></trkpt><trkpt lat="44.9903293" lon="8.4627221"><ele>197.6</ele><time>2026-05-03T10:44:11.324Z</time></trkpt><trkpt lat="44.9902416" lon="8.4628001"><ele>199.0</ele><time>2026-05-03T10:44:12.323Z</time></trkpt><trkpt lat="44.9901561" lon="8.4628787"><ele>198.16666666666666</ele><time>2026-05-03T10:44:13.324Z</time></trkpt><trkpt lat="44.9900745" lon="8.4629548"><ele>197.33333333333331</ele><time>2026-05-03T10:44:14.323Z</time></trkpt><trkpt lat="44.9900011" lon="8.4630296"><ele>196.5</ele><time>2026-05-03T10:44:15.323Z</time></trkpt><trkpt lat="44.9899332" lon="8.4631063"><ele>195.66666666666669</ele><time>2026-05-03T10:44:16.323Z</time></trkpt><trkpt lat="44.9898736" lon="8.4631768"><ele>194.83333333333334</ele><time>2026-05-03T10:44:17.323Z</time></trkpt><trkpt lat="44.9898097" lon="8.4632481"><ele>194.0</ele><time>2026-05-03T10:44:18.325Z</time></trkpt><trkpt lat="44.9897386" lon="8.463318"><ele>194.0</ele><time>2026-05-03T10:44:19.324Z</time></trkpt><trkpt lat="44.9896619" lon="8.4633905"><ele>194.0</ele><time>2026-05-03T10:44:20.325Z</time></trkpt><trkpt lat="44.9895871" lon="8.4634643"><ele>194.0</ele><time>2026-05-03T10:44:21.324Z</time></trkpt><trkpt lat="44.9895116" lon="8.463542"><ele>194.0</ele><time>2026-05-03T10:44:22.324Z</time></trkpt><trkpt lat="44.9894387" lon="8.4636209"><ele>194.0</ele><time>2026-05-03T10:44:23.325Z</time></trkpt><trkpt lat="44.9893597" lon="8.4636983"><ele>194.0</ele><time>2026-05-03T10:44:24.325Z</time></trkpt><trkpt lat="44.9892742" lon="8.4637679"><ele>194.0</ele><time>2026-05-03T10:44:25.325Z</time></trkpt><trkpt lat="44.9891876" lon="8.4638472"><ele>194.0</ele><time>2026-05-03T10:44:26.324Z</time></trkpt><trkpt lat="44.9891007" lon="8.4639298"><ele>194.0</ele><time>2026-05-03T10:44:27.324Z</time></trkpt><trkpt lat="44.9890208" lon="8.4640113"><ele>194.0</ele><time>2026-05-03T10:44:28.324Z</time></trkpt><trkpt lat="44.9889425" lon="8.4640842"><ele>192.2</ele><time>2026-05-03T10:44:29.324Z</time></trkpt><trkpt lat="44.9888624" lon="8.4641499"><ele>190.39999999999998</ele><time>2026-05-03T10:44:30.324Z</time></trkpt><trkpt lat="44.9887783" lon="8.4642039"><ele>188.6</ele><time>2026-05-03T10:44:31.324Z</time></trkpt><trkpt lat="44.988687" lon="8.4642353"><ele>186.8</ele><time>2026-05-03T10:44:32.325Z</time></trkpt><trkpt lat="44.9885905" lon="8.4642381"><ele>185.0</ele><time>2026-05-03T10:44:33.325Z</time></trkpt><trkpt lat="44.9884914" lon="8.4642092"><ele>185.0</ele><time>2026-05-03T10:44:34.324Z</time></trkpt><trkpt lat="44.9883999" lon="8.4641696"><ele>185.0</ele><time>2026-05-03T10:44:35.324Z</time></trkpt><trkpt lat="44.9883096" lon="8.464144"><ele>185.0</ele><time>2026-05-03T10:44:36.324Z</time></trkpt><trkpt lat="44.9882269" lon="8.4641416"><ele>185.0</ele><time>2026-05-03T10:44:37.324Z</time></trkpt><trkpt lat="44.9881508" lon="8.4641653"><ele>185.0</ele><time>2026-05-03T10:44:38.325Z</time></trkpt><trkpt lat="44.9880773" lon="8.4642159"><ele>185.0</ele><time>2026-05-03T10:44:39.324Z</time></trkpt><trkpt lat="44.9880117" lon="8.4642963"><ele>185.4</ele><time>2026-05-03T10:44:40.324Z</time></trkpt><trkpt lat="44.9879528" lon="8.4643991"><ele>185.8</ele><time>2026-05-03T10:44:41.324Z</time></trkpt><trkpt lat="44.9878991" lon="8.4645108"><ele>186.2</ele><time>2026-05-03T10:44:42.324Z</time></trkpt><trkpt lat="44.9878577" lon="8.4646318"><ele>186.6</ele><time>2026-05-03T10:44:43.324Z</time></trkpt><trkpt lat="44.9878288" lon="8.4647603"><ele>187.0</ele><time>2026-05-03T10:44:44.324Z</time></trkpt><trkpt lat="44.9878116" lon="8.4648901"><ele>185.0</ele><time>2026-05-03T10:44:45.324Z</time></trkpt><trkpt lat="44.9878041" lon="8.4650245"><ele>183.0</ele><time>2026-05-03T10:44:46.325Z</time></trkpt><trkpt lat="44.9877999" lon="8.4651584"><ele>181.0</ele><time>2026-05-03T10:44:47.324Z</time></trkpt><trkpt lat="44.9877836" lon="8.465293"><ele>179.0</ele><time>2026-05-03T10:44:48.325Z</time></trkpt><trkpt lat="44.9877561" lon="8.4654213"><ele>177.0</ele><time>2026-05-03T10:44:49.324Z</time></trkpt><trkpt lat="44.9877154" lon="8.4655421"><ele>176.8</ele><time>2026-05-03T10:44:50.324Z</time></trkpt><trkpt lat="44.9876681" lon="8.4656537"><ele>176.6</ele><time>2026-05-03T10:44:51.325Z</time></trkpt><trkpt lat="44.9876135" lon="8.4657595"><ele>176.4</ele><time>2026-05-03T10:44:52.325Z</time></trkpt><trkpt lat="44.9875532" lon="8.4658585"><ele>176.20000000000002</ele><time>2026-05-03T10:44:53.324Z</time></trkpt><trkpt lat="44.9874898" lon="8.4659525"><ele>176.0</ele><time>2026-05-03T10:44:54.325Z</time></trkpt><trkpt lat="44.9874216" lon="8.4660408"><ele>176.0</ele><time>2026-05-03T10:44:55.324Z</time></trkpt><trkpt lat="44.9873488" lon="8.4661226"><ele>176.0</ele><time>2026-05-03T10:44:56.324Z</time></trkpt><trkpt lat="44.9872744" lon="8.4662022"><ele>176.0</ele><time>2026-05-03T10:44:57.324Z</time></trkpt><trkpt lat="44.9871986" lon="8.4662795"><ele>176.0</ele><time>2026-05-03T10:44:58.324Z</time></trkpt><trkpt lat="44.9871229" lon="8.4663557"><ele>176.0</ele><time>2026-05-03T10:44:59.324Z</time></trkpt><trkpt lat="44.9870493" lon="8.4664301"><ele>175.33333333333331</ele><time>2026-05-03T10:45:00.325Z</time></trkpt><trkpt lat="44.9869803" lon="8.4665073"><ele>174.66666666666666</ele><time>2026-05-03T10:45:01.325Z</time></trkpt><trkpt lat="44.9869218" lon="8.4665877"><ele>174.0</ele><time>2026-05-03T10:45:02.324Z</time></trkpt><trkpt lat="44.986879" lon="8.4666829"><ele>173.33333333333334</ele><time>2026-05-03T10:45:03.324Z</time></trkpt><trkpt lat="44.9868494" lon="8.4667899"><ele>172.66666666666669</ele><time>2026-05-03T10:45:04.324Z</time></trkpt><trkpt lat="44.9868347" lon="8.4669135"><ele>172.0</ele><time>2026-05-03T10:45:05.325Z</time></trkpt><trkpt lat="44.9868402" lon="8.4670472"><ele>171.39999999999998</ele><time>2026-05-03T10:45:06.325Z</time></trkpt><trkpt lat="44.9868642" lon="8.4671828"><ele>170.79999999999998</ele><time>2026-05-03T10:45:07.325Z</time></trkpt><trkpt lat="44.9868944" lon="8.4673184"><ele>170.2</ele><time>2026-05-03T10:45:08.325Z</time></trkpt><trkpt lat="44.9869185" lon="8.4674484"><ele>169.6</ele><time>2026-05-03T10:45:09.326Z</time></trkpt><trkpt lat="44.9869395" lon="8.4675815"><ele>169.0</ele><time>2026-05-03T10:45:10.325Z</time></trkpt><trkpt lat="44.9869599" lon="8.4677119"><ele>169.0</ele><time>2026-05-03T10:45:11.326Z</time></trkpt><trkpt lat="44.9869831" lon="8.4678399"><ele>169.0</ele><time>2026-05-03T10:45:12.325Z</time></trkpt><trkpt lat="44.9870078" lon="8.467965"><ele>169.0</ele><time>2026-05-03T10:45:13.325Z</time></trkpt><trkpt lat="44.9870318" lon="8.4680883"><ele>169.0</ele><time>2026-05-03T10:45:14.325Z</time></trkpt><trkpt lat="44.9870531" lon="8.46821"><ele>169.0</ele><time>2026-05-03T10:45:15.325Z</time></trkpt><trkpt lat="44.9870722" lon="8.4683305"><ele>169.2</ele><time>2026-05-03T10:45:16.325Z</time></trkpt><trkpt lat="44.9870911" lon="8.4684516"><ele>169.39999999999998</ele><time>2026-05-03T10:45:17.326Z</time></trkpt><trkpt lat="44.9871113" lon="8.4685739"><ele>169.6</ele><time>2026-05-03T10:45:18.325Z</time></trkpt><trkpt lat="44.9871332" lon="8.4686987"><ele>169.8</ele><time>2026-05-03T10:45:19.325Z</time></trkpt><trkpt lat="44.9871539" lon="8.4688262"><ele>170.0</ele><time>2026-05-03T10:45:20.325Z</time></trkpt><trkpt lat="44.9871736" lon="8.4689574"><ele>170.0</ele><time>2026-05-03T10:45:21.325Z</time></trkpt><trkpt lat="44.9871915" lon="8.4690889"><ele>170.0</ele><time>2026-05-03T10:45:22.326Z</time></trkpt><trkpt lat="44.9872102" lon="8.4692227"><ele>170.0</ele><time>2026-05-03T10:45:23.326Z</time></trkpt><trkpt lat="44.9872329" lon="8.4693589"><ele>170.0</ele><time>2026-05-03T10:45:24.326Z</time></trkpt><trkpt lat="44.9872579" lon="8.4694885"><ele>170.0</ele><time>2026-05-03T10:45:25.325Z</time></trkpt><trkpt lat="44.9872811" lon="8.469618"><ele>170.4</ele><time>2026-05-03T10:45:26.326Z</time></trkpt><trkpt lat="44.9873001" lon="8.4697487"><ele>170.8</ele><time>2026-05-03T10:45:27.325Z</time></trkpt><trkpt lat="44.9873197" lon="8.4698759"><ele>171.2</ele><time>2026-05-03T10:45:28.325Z</time></trkpt><trkpt lat="44.9873397" lon="8.4699999"><ele>171.6</ele><time>2026-05-03T10:45:29.325Z</time></trkpt><trkpt lat="44.9873597" lon="8.4701205"><ele>172.0</ele><time>2026-05-03T10:45:30.325Z</time></trkpt><trkpt lat="44.9873784" lon="8.4702423"><ele>172.0</ele><time>2026-05-03T10:45:31.326Z</time></trkpt><trkpt lat="44.9873975" lon="8.4703641"><ele>172.0</ele><time>2026-05-03T10:45:32.326Z</time></trkpt><trkpt lat="44.9874144" lon="8.4704874"><ele>172.0</ele><time>2026-05-03T10:45:33.325Z</time></trkpt><trkpt lat="44.9874318" lon="8.4706109"><ele>172.0</ele><time>2026-05-03T10:45:34.325Z</time></trkpt><trkpt lat="44.9874496" lon="8.4707347"><ele>172.0</ele><time>2026-05-03T10:45:35.325Z</time></trkpt><trkpt lat="44.9874669" lon="8.4708587"><ele>172.0</ele><time>2026-05-03T10:45:36.325Z</time></trkpt><trkpt lat="44.9874836" lon="8.4709823"><ele>172.33333333333334</ele><time>2026-05-03T10:45:37.325Z</time></trkpt><trkpt lat="44.9875018" lon="8.4711039"><ele>172.66666666666669</ele><time>2026-05-03T10:45:38.325Z</time></trkpt><trkpt lat="44.9875209" lon="8.4712257"><ele>173.0</ele><time>2026-05-03T10:45:39.325Z</time></trkpt><trkpt lat="44.9875385" lon="8.4713477"><ele>173.33333333333334</ele><time>2026-05-03T10:45:40.325Z</time></trkpt><trkpt lat="44.9875575" lon="8.4714682"><ele>173.66666666666666</ele><time>2026-05-03T10:45:41.325Z</time></trkpt><trkpt lat="44.9875815" lon="8.4715862"><ele>174.0</ele><time>2026-05-03T10:45:42.325Z</time></trkpt><trkpt lat="44.9876044" lon="8.4717042"><ele>175.39999999999998</ele><time>2026-05-03T10:45:43.326Z</time></trkpt><trkpt lat="44.9876248" lon="8.4718206"><ele>176.8</ele><time>2026-05-03T10:45:44.326Z</time></trkpt><trkpt lat="44.9876422" lon="8.4719364"><ele>178.2</ele><time>2026-05-03T10:45:45.325Z</time></trkpt><trkpt lat="44.9876614" lon="8.4720598"><ele>179.60000000000002</ele><time>2026-05-03T10:45:46.325Z</time></trkpt><trkpt lat="44.9876804" lon="8.4721894"><ele>181.0</ele><time>2026-05-03T10:45:47.325Z</time></trkpt><trkpt lat="44.9877042" lon="8.4723325"><ele>181.0</ele><time>2026-05-03T10:45:48.325Z</time></trkpt><trkpt lat="44.9877284" lon="8.4724655"><ele>181.0</ele><time>2026-05-03T10:45:49.325Z</time></trkpt><trkpt lat="44.9877515" lon="8.4726038"><ele>181.0</ele><time>2026-05-03T10:45:50.325Z</time></trkpt><trkpt lat="44.9877747" lon="8.4727484"><ele>181.0</ele><time>2026-05-03T10:45:51.327Z</time></trkpt><trkpt lat="44.9877986" lon="8.4728941"><ele>181.0</ele><time>2026-05-03T10:45:52.325Z</time></trkpt><trkpt lat="44.9878215" lon="8.4730346"><ele>179.20000000000002</ele><time>2026-05-03T10:45:53.326Z</time></trkpt><trkpt lat="44.9878427" lon="8.4731704"><ele>177.4</ele><time>2026-05-03T10:45:54.326Z</time></trkpt><trkpt lat="44.987863" lon="8.4733033"><ele>175.6</ele><time>2026-05-03T10:45:55.326Z</time></trkpt><trkpt lat="44.9878823" lon="8.4734362"><ele>173.8</ele><time>2026-05-03T10:45:56.327Z</time></trkpt><trkpt lat="44.9879006" lon="8.4735694"><ele>172.0</ele><time>2026-05-03T10:45:57.327Z</time></trkpt><trkpt lat="44.9879204" lon="8.4737033"><ele>171.6</ele><time>2026-05-03T10:45:58.326Z</time></trkpt><trkpt lat="44.9879439" lon="8.4738386"><ele>171.2</ele><time>2026-05-03T10:45:59.326Z</time></trkpt><trkpt lat="44.9879677" lon="8.4739761"><ele>170.8</ele><time>2026-05-03T10:46:00.326Z</time></trkpt><trkpt lat="44.9879902" lon="8.4741149"><ele>170.4</ele><time>2026-05-03T10:46:01.327Z</time></trkpt><trkpt lat="44.9880108" lon="8.4742544"><ele>170.0</ele><time>2026-05-03T10:46:02.327Z</time></trkpt><trkpt lat="44.9880314" lon="8.4743919"><ele>170.0</ele><time>2026-05-03T10:46:03.327Z</time></trkpt><trkpt lat="44.9880515" lon="8.4745263"><ele>170.0</ele><time>2026-05-03T10:46:04.327Z</time></trkpt><trkpt lat="44.9880697" lon="8.4746599"><ele>170.0</ele><time>2026-05-03T10:46:05.326Z</time></trkpt><trkpt lat="44.9880874" lon="8.4747934"><ele>170.0</ele><time>2026-05-03T10:46:06.327Z</time></trkpt><trkpt lat="44.9881068" lon="8.4749262"><ele>170.0</ele><time>2026-05-03T10:46:07.326Z</time></trkpt><trkpt lat="44.988129" lon="8.4750603"><ele>170.0</ele><time>2026-05-03T10:46:08.326Z</time></trkpt><trkpt lat="44.9881516" lon="8.4751924"><ele>170.0</ele><time>2026-05-03T10:46:09.327Z</time></trkpt><trkpt lat="44.9881724" lon="8.475325"><ele>170.0</ele><time>2026-05-03T10:46:10.327Z</time></trkpt><trkpt lat="44.9881954" lon="8.4754614"><ele>170.0</ele><time>2026-05-03T10:46:11.326Z</time></trkpt><trkpt lat="44.9882201" lon="8.4755917"><ele>170.0</ele><time>2026-05-03T10:46:12.326Z</time></trkpt><trkpt lat="44.9882453" lon="8.4757216"><ele>170.0</ele><time>2026-05-03T10:46:13.326Z</time></trkpt><trkpt lat="44.9882684" lon="8.4758509"><ele>170.0</ele><time>2026-05-03T10:46:14.327Z</time></trkpt><trkpt lat="44.9882829" lon="8.4759818"><ele>170.0</ele><time>2026-05-03T10:46:15.326Z</time></trkpt><trkpt lat="44.988294" lon="8.4761138"><ele>170.0</ele><time>2026-05-03T10:46:16.327Z</time></trkpt><trkpt lat="44.9883114" lon="8.4762416"><ele>170.0</ele><time>2026-05-03T10:46:17.327Z</time></trkpt><trkpt lat="44.9883308" lon="8.4763661"><ele>171.0</ele><time>2026-05-03T10:46:18.326Z</time></trkpt><trkpt lat="44.9883531" lon="8.4764903"><ele>172.0</ele><time>2026-05-03T10:46:19.326Z</time></trkpt><trkpt lat="44.9883748" lon="8.4766157"><ele>173.0</ele><time>2026-05-03T10:46:20.326Z</time></trkpt><trkpt lat="44.9883936" lon="8.4767441"><ele>174.0</ele><time>2026-05-03T10:46:21.326Z</time></trkpt><trkpt lat="44.9884117" lon="8.4768655"><ele>175.0</ele><time>2026-05-03T10:46:22.326Z</time></trkpt><trkpt lat="44.9884286" lon="8.4769742"><ele>176.0</ele><time>2026-05-03T10:46:23.326Z</time></trkpt><trkpt lat="44.9884453" lon="8.4770725"><ele>175.16666666666666</ele><time>2026-05-03T10:46:24.326Z</time></trkpt><trkpt lat="44.9884596" lon="8.4771629"><ele>174.33333333333331</ele><time>2026-05-03T10:46:25.326Z</time></trkpt><trkpt lat="44.9884845" lon="8.4773191"><ele>173.5</ele><time>2026-05-03T10:46:27.326Z</time></trkpt><trkpt lat="44.9884997" lon="8.4774214"><ele>172.66666666666666</ele><time>2026-05-03T10:46:29.327Z</time></trkpt><trkpt lat="44.9885842" lon="8.4774139"><ele>171.83333333333334</ele><time>2026-05-03T10:46:57.327Z</time></trkpt><trkpt lat="44.988689" lon="8.4773892"><ele>171.0</ele><time>2026-05-03T10:46:59.327Z</time></trkpt><trkpt lat="44.98877" lon="8.4773391"><ele>170.99999999999997</ele><time>2026-05-03T10:47:00.327Z</time></trkpt><trkpt lat="44.9888469" lon="8.4772932"><ele>171.0</ele><time>2026-05-03T10:47:01.327Z</time></trkpt><trkpt lat="44.9889194" lon="8.4772621"><ele>171.0</ele><time>2026-05-03T10:47:02.328Z</time></trkpt><trkpt lat="44.9889906" lon="8.4772367"><ele>171.0</ele><time>2026-05-03T10:47:03.328Z</time></trkpt><trkpt lat="44.9890584" lon="8.4772141"><ele>171.0</ele><time>2026-05-03T10:47:04.328Z</time></trkpt><trkpt lat="44.9891257" lon="8.4771975"><ele>170.99999999999997</ele><time>2026-05-03T10:47:05.327Z</time></trkpt><trkpt lat="44.9891926" lon="8.4771893"><ele>171.0</ele><time>2026-05-03T10:47:06.328Z</time></trkpt><trkpt lat="44.98926" lon="8.4771883"><ele>172.7142857142857</ele><time>2026-05-03T10:47:07.327Z</time></trkpt><trkpt lat="44.9893244" lon="8.4771979"><ele>174.42857142857142</ele><time>2026-05-03T10:47:08.327Z</time></trkpt><trkpt lat="44.9893884" lon="8.4772166"><ele>176.14285714285714</ele><time>2026-05-03T10:47:09.327Z</time></trkpt><trkpt lat="44.9894498" lon="8.477246"><ele>177.85714285714283</ele><time>2026-05-03T10:47:10.327Z</time></trkpt><trkpt lat="44.9895106" lon="8.4772826"><ele>179.57142857142858</ele><time>2026-05-03T10:47:11.328Z</time></trkpt><trkpt lat="44.9895719" lon="8.4773256"><ele>181.28571428571428</ele><time>2026-05-03T10:47:12.327Z</time></trkpt><trkpt lat="44.9896349" lon="8.4773683"><ele>183.0</ele><time>2026-05-03T10:47:13.327Z</time></trkpt><trkpt lat="44.9896984" lon="8.4774105"><ele>183.0</ele><time>2026-05-03T10:47:14.328Z</time></trkpt><trkpt lat="44.9897628" lon="8.4774497"><ele>183.0</ele><time>2026-05-03T10:47:15.327Z</time></trkpt><trkpt lat="44.9898271" lon="8.4774863"><ele>183.0</ele><time>2026-05-03T10:47:16.328Z</time></trkpt><trkpt lat="44.9898928" lon="8.4775232"><ele>183.0</ele><time>2026-05-03T10:47:17.328Z</time></trkpt><trkpt lat="44.9899586" lon="8.4775631"><ele>183.0</ele><time>2026-05-03T10:47:18.327Z</time></trkpt><trkpt lat="44.9900229" lon="8.477605"><ele>183.0</ele><time>2026-05-03T10:47:19.327Z</time></trkpt><trkpt lat="44.9900865" lon="8.477646"><ele>183.0</ele><time>2026-05-03T10:47:20.328Z</time></trkpt><trkpt lat="44.9901501" lon="8.4776856"><ele>182.85714285714286</ele><time>2026-05-03T10:47:21.327Z</time></trkpt><trkpt lat="44.9902148" lon="8.4777264"><ele>182.71428571428572</ele><time>2026-05-03T10:47:22.327Z</time></trkpt><trkpt lat="44.9902811" lon="8.477766"><ele>182.57142857142856</ele><time>2026-05-03T10:47:23.327Z</time></trkpt><trkpt lat="44.9903476" lon="8.4778083"><ele>182.42857142857144</ele><time>2026-05-03T10:47:24.327Z</time></trkpt><trkpt lat="44.990414" lon="8.4778476"><ele>182.28571428571428</ele><time>2026-05-03T10:47:25.327Z</time></trkpt><trkpt lat="44.9904834" lon="8.4778853"><ele>182.14285714285714</ele><time>2026-05-03T10:47:26.328Z</time></trkpt><trkpt lat="44.9905551" lon="8.4779232"><ele>182.0</ele><time>2026-05-03T10:47:27.327Z</time></trkpt><trkpt lat="44.9906259" lon="8.4779612"><ele>182.0</ele><time>2026-05-03T10:47:28.327Z</time></trkpt><trkpt lat="44.9906955" lon="8.4779979"><ele>182.0</ele><time>2026-05-03T10:47:29.328Z</time></trkpt><trkpt lat="44.9907631" lon="8.4780297"><ele>182.0</ele><time>2026-05-03T10:47:30.328Z</time></trkpt><trkpt lat="44.9908332" lon="8.4780548"><ele>182.0</ele><time>2026-05-03T10:47:31.328Z</time></trkpt><trkpt lat="44.9909061" lon="8.4780772"><ele>182.0</ele><time>2026-05-03T10:47:32.328Z</time></trkpt><trkpt lat="44.9909756" lon="8.4780928"><ele>182.0</ele><time>2026-05-03T10:47:33.329Z</time></trkpt><trkpt lat="44.9910474" lon="8.4781037"><ele>182.0</ele><time>2026-05-03T10:47:34.328Z</time></trkpt><trkpt lat="44.9911208" lon="8.4781139"><ele>183.33333333333331</ele><time>2026-05-03T10:47:35.328Z</time></trkpt><trkpt lat="44.9911973" lon="8.4781209"><ele>184.66666666666666</ele><time>2026-05-03T10:47:36.329Z</time></trkpt><trkpt lat="44.9912764" lon="8.4781235"><ele>186.0</ele><time>2026-05-03T10:47:37.328Z</time></trkpt><trkpt lat="44.9913547" lon="8.4781257"><ele>187.33333333333334</ele><time>2026-05-03T10:47:38.328Z</time></trkpt><trkpt lat="44.9914327" lon="8.4781193"><ele>188.66666666666669</ele><time>2026-05-03T10:47:39.328Z</time></trkpt><trkpt lat="44.99151" lon="8.4781065"><ele>190.0</ele><time>2026-05-03T10:47:40.329Z</time></trkpt><trkpt lat="44.9915868" lon="8.4780898"><ele>190.0</ele><time>2026-05-03T10:47:41.329Z</time></trkpt><trkpt lat="44.9916646" lon="8.4780722"><ele>190.0</ele><time>2026-05-03T10:47:42.328Z</time></trkpt><trkpt lat="44.9917454" lon="8.4780474"><ele>190.0</ele><time>2026-05-03T10:47:43.328Z</time></trkpt><trkpt lat="44.9918248" lon="8.4780198"><ele>190.0</ele><time>2026-05-03T10:47:44.328Z</time></trkpt><trkpt lat="44.9919025" lon="8.4779919"><ele>190.0</ele><time>2026-05-03T10:47:45.328Z</time></trkpt><trkpt lat="44.991979" lon="8.4779582"><ele>190.0</ele><time>2026-05-03T10:47:46.329Z</time></trkpt><trkpt lat="44.992055" lon="8.4779185"><ele>192.83333333333334</ele><time>2026-05-03T10:47:47.328Z</time></trkpt><trkpt lat="44.9921308" lon="8.4778783"><ele>195.66666666666669</ele><time>2026-05-03T10:47:48.328Z</time></trkpt><trkpt lat="44.9922095" lon="8.4778365"><ele>198.5</ele><time>2026-05-03T10:47:49.328Z</time></trkpt><trkpt lat="44.9922885" lon="8.4777971"><ele>201.33333333333334</ele><time>2026-05-03T10:47:50.329Z</time></trkpt><trkpt lat="44.9923675" lon="8.477759"><ele>204.16666666666666</ele><time>2026-05-03T10:47:51.329Z</time></trkpt><trkpt lat="44.9924472" lon="8.4777263"><ele>207.0</ele><time>2026-05-03T10:47:52.329Z</time></trkpt><trkpt lat="44.9925262" lon="8.4777011"><ele>207.83333333333334</ele><time>2026-05-03T10:47:53.328Z</time></trkpt><trkpt lat="44.9926031" lon="8.4776819"><ele>208.66666666666669</ele><time>2026-05-03T10:47:54.328Z</time></trkpt><trkpt lat="44.9926802" lon="8.4776646"><ele>209.5</ele><time>2026-05-03T10:47:55.329Z</time></trkpt><trkpt lat="44.9927567" lon="8.4776486"><ele>210.33333333333334</ele><time>2026-05-03T10:47:56.329Z</time></trkpt><trkpt lat="44.9928341" lon="8.4776277"><ele>211.16666666666669</ele><time>2026-05-03T10:47:57.329Z</time></trkpt><trkpt lat="44.9929102" lon="8.4776066"><ele>212.0</ele><time>2026-05-03T10:47:58.328Z</time></trkpt><trkpt lat="44.9929848" lon="8.4775895"><ele>212.00000000000003</ele><time>2026-05-03T10:47:59.328Z</time></trkpt><trkpt lat="44.9930592" lon="8.4775738"><ele>212.0</ele><time>2026-05-03T10:48:00.329Z</time></trkpt><trkpt lat="44.9931342" lon="8.4775608"><ele>212.0</ele><time>2026-05-03T10:48:01.328Z</time></trkpt><trkpt lat="44.9932111" lon="8.4775476"><ele>212.0</ele><time>2026-05-03T10:48:02.329Z</time></trkpt><trkpt lat="44.9932881" lon="8.4775303"><ele>212.00000000000003</ele><time>2026-05-03T10:48:03.328Z</time></trkpt><trkpt lat="44.9933654" lon="8.4775102"><ele>212.0</ele><time>2026-05-03T10:48:04.328Z</time></trkpt><trkpt lat="44.9934405" lon="8.4774881"><ele>212.33333333333334</ele><time>2026-05-03T10:48:05.329Z</time></trkpt><trkpt lat="44.9935148" lon="8.4774625"><ele>212.66666666666669</ele><time>2026-05-03T10:48:06.328Z</time></trkpt><trkpt lat="44.9935899" lon="8.4774273"><ele>213.0</ele><time>2026-05-03T10:48:07.328Z</time></trkpt><trkpt lat="44.9936663" lon="8.4773945"><ele>213.33333333333331</ele><time>2026-05-03T10:48:08.328Z</time></trkpt><trkpt lat="44.9937461" lon="8.4773756"><ele>213.66666666666666</ele><time>2026-05-03T10:48:09.329Z</time></trkpt><trkpt lat="44.9938306" lon="8.4773725"><ele>214.0</ele><time>2026-05-03T10:48:10.328Z</time></trkpt><trkpt lat="44.9939118" lon="8.4773955"><ele>213.99999999999997</ele><time>2026-05-03T10:48:11.328Z</time></trkpt><trkpt lat="44.9939847" lon="8.4774475"><ele>214.0</ele><time>2026-05-03T10:48:12.328Z</time></trkpt><trkpt lat="44.9940492" lon="8.4775234"><ele>214.0</ele><time>2026-05-03T10:48:13.329Z</time></trkpt><trkpt lat="44.9941032" lon="8.477611"><ele>214.0</ele><time>2026-05-03T10:48:14.328Z</time></trkpt><trkpt lat="44.9941471" lon="8.4777098"><ele>213.99999999999997</ele><time>2026-05-03T10:48:15.328Z</time></trkpt><trkpt lat="44.9941761" lon="8.4778252"><ele>214.0</ele><time>2026-05-03T10:48:16.328Z</time></trkpt><trkpt lat="44.9941906" lon="8.4779562"><ele>215.66666666666666</ele><time>2026-05-03T10:48:17.328Z</time></trkpt><trkpt lat="44.9942023" lon="8.4780752"><ele>217.33333333333331</ele><time>2026-05-03T10:48:18.33Z</time></trkpt><trkpt lat="44.9942151" lon="8.4781918"><ele>219.0</ele><time>2026-05-03T10:48:19.33Z</time></trkpt><trkpt lat="44.9942302" lon="8.4782993"><ele>220.66666666666669</ele><time>2026-05-03T10:48:20.329Z</time></trkpt><trkpt lat="44.9942457" lon="8.4784026"><ele>222.33333333333334</ele><time>2026-05-03T10:48:21.329Z</time></trkpt><trkpt lat="44.9942609" lon="8.4785028"><ele>224.0</ele><time>2026-05-03T10:48:22.33Z</time></trkpt><trkpt lat="44.994275" lon="8.4786009"><ele>224.00000000000003</ele><time>2026-05-03T10:48:23.329Z</time></trkpt><trkpt lat="44.9942804" lon="8.4786998"><ele>224.0</ele><time>2026-05-03T10:48:24.329Z</time></trkpt><trkpt lat="44.9942719" lon="8.4787984"><ele>224.0</ele><time>2026-05-03T10:48:25.33Z</time></trkpt><trkpt lat="44.994248" lon="8.4788936"><ele>224.0</ele><time>2026-05-03T10:48:26.329Z</time></trkpt><trkpt lat="44.9942072" lon="8.4789832"><ele>224.00000000000003</ele><time>2026-05-03T10:48:27.329Z</time></trkpt><trkpt lat="44.9941516" lon="8.4790658"><ele>224.0</ele><time>2026-05-03T10:48:28.329Z</time></trkpt><trkpt lat="44.9940864" lon="8.479138"><ele>222.83333333333334</ele><time>2026-05-03T10:48:29.329Z</time></trkpt><trkpt lat="44.9940177" lon="8.4791912"><ele>221.66666666666669</ele><time>2026-05-03T10:48:30.33Z</time></trkpt><trkpt lat="44.9939472" lon="8.4792333"><ele>220.5</ele><time>2026-05-03T10:48:31.33Z</time></trkpt><trkpt lat="44.9938746" lon="8.4792649"><ele>219.33333333333331</ele><time>2026-05-03T10:48:32.329Z</time></trkpt><trkpt lat="44.9937992" lon="8.4792894"><ele>218.16666666666666</ele><time>2026-05-03T10:48:33.33Z</time></trkpt><trkpt lat="44.9937192" lon="8.4793108"><ele>217.0</ele><time>2026-05-03T10:48:34.329Z</time></trkpt><trkpt lat="44.9936383" lon="8.4793367"><ele>216.99999999999997</ele><time>2026-05-03T10:48:35.329Z</time></trkpt><trkpt lat="44.9935611" lon="8.4793675"><ele>217.0</ele><time>2026-05-03T10:48:36.329Z</time></trkpt><trkpt lat="44.9934843" lon="8.4793979"><ele>217.0</ele><time>2026-05-03T10:48:37.329Z</time></trkpt><trkpt lat="44.993405" lon="8.4794304"><ele>217.0</ele><time>2026-05-03T10:48:38.329Z</time></trkpt><trkpt lat="44.9933239" lon="8.4794642"><ele>216.99999999999997</ele><time>2026-05-03T10:48:39.329Z</time></trkpt><trkpt lat="44.9932412" lon="8.4795049"><ele>217.0</ele><time>2026-05-03T10:48:40.329Z</time></trkpt><trkpt lat="44.9931662" lon="8.4795486"><ele>219.33333333333331</ele><time>2026-05-03T10:48:41.329Z</time></trkpt><trkpt lat="44.9930953" lon="8.4796079"><ele>221.66666666666666</ele><time>2026-05-03T10:48:42.33Z</time></trkpt><trkpt lat="44.9930335" lon="8.4796873"><ele>224.0</ele><time>2026-05-03T10:48:43.329Z</time></trkpt><trkpt lat="44.9929823" lon="8.4797836"><ele>226.33333333333331</ele><time>2026-05-03T10:48:44.329Z</time></trkpt><trkpt lat="44.9929453" lon="8.4798879"><ele>228.66666666666666</ele><time>2026-05-03T10:48:45.329Z</time></trkpt><trkpt lat="44.9929049" lon="8.4799838"><ele>231.0</ele><time>2026-05-03T10:48:46.329Z</time></trkpt><trkpt lat="44.9928498" lon="8.4800608"><ele>231.0</ele><time>2026-05-03T10:48:47.33Z</time></trkpt><trkpt lat="44.9927921" lon="8.4800997"><ele>231.00000000000003</ele><time>2026-05-03T10:48:48.33Z</time></trkpt><trkpt lat="44.9927109" lon="8.4801176"><ele>231.00000000000003</ele><time>2026-05-03T10:48:51.33Z</time></trkpt><trkpt lat="44.9926152" lon="8.4801523"><ele>231.0</ele><time>2026-05-03T10:48:53.33Z</time></trkpt><trkpt lat="44.992498" lon="8.4801646"><ele>231.0</ele><time>2026-05-03T10:48:55.33Z</time></trkpt><trkpt lat="44.9923705" lon="8.4801611"><ele>229.57142857142858</ele><time>2026-05-03T10:48:57.329Z</time></trkpt><trkpt lat="44.9923004" lon="8.4801615"><ele>228.14285714285714</ele><time>2026-05-03T10:48:58.33Z</time></trkpt><trkpt lat="44.9922315" lon="8.4801689"><ele>226.71428571428572</ele><time>2026-05-03T10:48:59.329Z</time></trkpt><trkpt lat="44.992161" lon="8.4801841"><ele>225.28571428571428</ele><time>2026-05-03T10:49:00.329Z</time></trkpt><trkpt lat="44.9920897" lon="8.4802059"><ele>223.85714285714286</ele><time>2026-05-03T10:49:01.329Z</time></trkpt><trkpt lat="44.9920205" lon="8.4802475"><ele>222.42857142857144</ele><time>2026-05-03T10:49:02.33Z</time></trkpt><trkpt lat="44.9919617" lon="8.4803177"><ele>221.0</ele><time>2026-05-03T10:49:03.329Z</time></trkpt><trkpt lat="44.991922" lon="8.4804197"><ele>223.8</ele><time>2026-05-03T10:49:04.329Z</time></trkpt><trkpt lat="44.9919" lon="8.4805389"><ele>226.60000000000002</ele><time>2026-05-03T10:49:05.329Z</time></trkpt><trkpt lat="44.9918977" lon="8.4806622"><ele>229.4</ele><time>2026-05-03T10:49:06.33Z</time></trkpt><trkpt lat="44.9919153" lon="8.480787"><ele>232.2</ele><time>2026-05-03T10:49:07.33Z</time></trkpt><trkpt lat="44.9919531" lon="8.4809064"><ele>235.0</ele><time>2026-05-03T10:49:08.33Z</time></trkpt><trkpt lat="44.9920016" lon="8.4810191"><ele>234.99999999999997</ele><time>2026-05-03T10:49:09.33Z</time></trkpt><trkpt lat="44.9920456" lon="8.4811282"><ele>235.0</ele><time>2026-05-03T10:49:10.33Z</time></trkpt><trkpt lat="44.9920816" lon="8.4812428"><ele>235.0</ele><time>2026-05-03T10:49:11.33Z</time></trkpt><trkpt lat="44.9921145" lon="8.4813601"><ele>235.0</ele><time>2026-05-03T10:49:12.331Z</time></trkpt><trkpt lat="44.9921478" lon="8.4814805"><ele>234.99999999999997</ele><time>2026-05-03T10:49:13.331Z</time></trkpt><trkpt lat="44.9921838" lon="8.481596"><ele>235.0</ele><time>2026-05-03T10:49:14.331Z</time></trkpt><trkpt lat="44.9922233" lon="8.4817138"><ele>235.8</ele><time>2026-05-03T10:49:15.33Z</time></trkpt><trkpt lat="44.9922633" lon="8.4818327"><ele>236.6</ele><time>2026-05-03T10:49:16.33Z</time></trkpt><trkpt lat="44.9923081" lon="8.4819515"><ele>237.39999999999998</ele><time>2026-05-03T10:49:17.33Z</time></trkpt><trkpt lat="44.9923608" lon="8.482064"><ele>238.2</ele><time>2026-05-03T10:49:18.331Z</time></trkpt><trkpt lat="44.9924212" lon="8.4821724"><ele>239.0</ele><time>2026-05-03T10:49:19.33Z</time></trkpt><trkpt lat="44.9924873" lon="8.4822804"><ele>239.6</ele><time>2026-05-03T10:49:20.331Z</time></trkpt><trkpt lat="44.9925575" lon="8.4823771"><ele>240.2</ele><time>2026-05-03T10:49:21.331Z</time></trkpt><trkpt lat="44.9926267" lon="8.4824644"><ele>240.79999999999998</ele><time>2026-05-03T10:49:22.331Z</time></trkpt><trkpt lat="44.9926985" lon="8.4825407"><ele>241.39999999999998</ele><time>2026-05-03T10:49:23.331Z</time></trkpt><trkpt lat="44.9927778" lon="8.4826043"><ele>242.0</ele><time>2026-05-03T10:49:24.33Z</time></trkpt><trkpt lat="44.9928571" lon="8.4826659"><ele>242.00000000000003</ele><time>2026-05-03T10:49:25.331Z</time></trkpt><trkpt lat="44.9929397" lon="8.4827151"><ele>242.0</ele><time>2026-05-03T10:49:26.33Z</time></trkpt><trkpt lat="44.9930279" lon="8.48275"><ele>242.0</ele><time>2026-05-03T10:49:27.33Z</time></trkpt><trkpt lat="44.9931157" lon="8.4827847"><ele>242.0</ele><time>2026-05-03T10:49:28.33Z</time></trkpt><trkpt lat="44.993203" lon="8.4828017"><ele>242.00000000000003</ele><time>2026-05-03T10:49:29.33Z</time></trkpt><trkpt lat="44.9932919" lon="8.4827978"><ele>242.0</ele><time>2026-05-03T10:49:30.33Z</time></trkpt><trkpt lat="44.9933823" lon="8.4827678"><ele>243.6</ele><time>2026-05-03T10:49:31.33Z</time></trkpt><trkpt lat="44.9934727" lon="8.4827251"><ele>245.2</ele><time>2026-05-03T10:49:32.331Z</time></trkpt><trkpt lat="44.993568" lon="8.4826998"><ele>246.8</ele><time>2026-05-03T10:49:33.33Z</time></trkpt><trkpt lat="44.9936641" lon="8.4826979"><ele>248.4</ele><time>2026-05-03T10:49:34.33Z</time></trkpt><trkpt lat="44.9937592" lon="8.4827082"><ele>250.0</ele><time>2026-05-03T10:49:35.33Z</time></trkpt><trkpt lat="44.9938508" lon="8.4827228"><ele>249.99999999999997</ele><time>2026-05-03T10:49:36.33Z</time></trkpt><trkpt lat="44.9939394" lon="8.4827372"><ele>250.0</ele><time>2026-05-03T10:49:37.33Z</time></trkpt><trkpt lat="44.9940246" lon="8.4827534"><ele>250.0</ele><time>2026-05-03T10:49:38.331Z</time></trkpt><trkpt lat="44.9941093" lon="8.4827713"><ele>250.0</ele><time>2026-05-03T10:49:39.331Z</time></trkpt><trkpt lat="44.9941951" lon="8.4827893"><ele>249.99999999999997</ele><time>2026-05-03T10:49:40.33Z</time></trkpt><trkpt lat="44.9942822" lon="8.4828087"><ele>250.0</ele><time>2026-05-03T10:49:41.331Z</time></trkpt><trkpt lat="44.9943715" lon="8.4828302"><ele>249.2</ele><time>2026-05-03T10:49:42.33Z</time></trkpt><trkpt lat="44.9944604" lon="8.4828538"><ele>248.4</ele><time>2026-05-03T10:49:43.331Z</time></trkpt><trkpt lat="44.9945493" lon="8.4828803"><ele>247.60000000000002</ele><time>2026-05-03T10:49:44.331Z</time></trkpt><trkpt lat="44.9946374" lon="8.4829138"><ele>246.8</ele><time>2026-05-03T10:49:45.33Z</time></trkpt><trkpt lat="44.9947238" lon="8.4829528"><ele>246.0</ele><time>2026-05-03T10:49:46.331Z</time></trkpt><trkpt lat="44.9948079" lon="8.482997"><ele>246.0</ele><time>2026-05-03T10:49:47.331Z</time></trkpt><trkpt lat="44.9948936" lon="8.4830452"><ele>246.00000000000003</ele><time>2026-05-03T10:49:48.33Z</time></trkpt><trkpt lat="44.9949809" lon="8.4830924"><ele>246.00000000000003</ele><time>2026-05-03T10:49:49.33Z</time></trkpt><trkpt lat="44.9950677" lon="8.4831394"><ele>246.0</ele><time>2026-05-03T10:49:50.33Z</time></trkpt><trkpt lat="44.9951521" lon="8.4831871"><ele>246.0</ele><time>2026-05-03T10:49:51.331Z</time></trkpt><trkpt lat="44.9952355" lon="8.4832329"><ele>248.60000000000002</ele><time>2026-05-03T10:49:52.331Z</time></trkpt><trkpt lat="44.9953195" lon="8.483279"><ele>251.20000000000002</ele><time>2026-05-03T10:49:53.33Z</time></trkpt><trkpt lat="44.9954034" lon="8.4833274"><ele>253.79999999999998</ele><time>2026-05-03T10:49:54.331Z</time></trkpt><trkpt lat="44.9954855" lon="8.4833821"><ele>256.4</ele><time>2026-05-03T10:49:55.33Z</time></trkpt><trkpt lat="44.9955634" lon="8.4834476"><ele>259.0</ele><time>2026-05-03T10:49:56.332Z</time></trkpt><trkpt lat="44.9956321" lon="8.4835333"><ele>259.0</ele><time>2026-05-03T10:49:57.331Z</time></trkpt><trkpt lat="44.9956884" lon="8.4836385"><ele>259.0</ele><time>2026-05-03T10:49:58.331Z</time></trkpt><trkpt lat="44.9957313" lon="8.4837575"><ele>259.0</ele><time>2026-05-03T10:49:59.332Z</time></trkpt><trkpt lat="44.9957608" lon="8.4838802"><ele>259.0</ele><time>2026-05-03T10:50:00.331Z</time></trkpt><trkpt lat="44.9957867" lon="8.4840035"><ele>259.0</ele><time>2026-05-03T10:50:01.331Z</time></trkpt><trkpt lat="44.9958227" lon="8.484124"><ele>260.8</ele><time>2026-05-03T10:50:02.331Z</time></trkpt><trkpt lat="44.9958707" lon="8.4842345"><ele>262.59999999999997</ele><time>2026-05-03T10:50:03.332Z</time></trkpt><trkpt lat="44.9959272" lon="8.4843343"><ele>264.4</ele><time>2026-05-03T10:50:04.331Z</time></trkpt><trkpt lat="44.9959951" lon="8.4844161"><ele>266.2</ele><time>2026-05-03T10:50:05.331Z</time></trkpt><trkpt lat="44.9960747" lon="8.4844809"><ele>268.0</ele><time>2026-05-03T10:50:06.331Z</time></trkpt><trkpt lat="44.9961596" lon="8.4845283"><ele>268.0</ele><time>2026-05-03T10:50:07.331Z</time></trkpt><trkpt lat="44.996245" lon="8.4845599"><ele>268.0</ele><time>2026-05-03T10:50:08.331Z</time></trkpt><trkpt lat="44.9963338" lon="8.4845725"><ele>268.0</ele><time>2026-05-03T10:50:09.332Z</time></trkpt><trkpt lat="44.9964263" lon="8.4845732"><ele>268.0</ele><time>2026-05-03T10:50:10.331Z</time></trkpt><trkpt lat="44.9965168" lon="8.4845624"><ele>268.0</ele><time>2026-05-03T10:50:11.331Z</time></trkpt><trkpt lat="44.9966095" lon="8.4845449"><ele>267.8</ele><time>2026-05-03T10:50:12.332Z</time></trkpt><trkpt lat="44.9967011" lon="8.484522"><ele>267.6</ele><time>2026-05-03T10:50:13.332Z</time></trkpt><trkpt lat="44.9967953" lon="8.4844975"><ele>267.4</ele><time>2026-05-03T10:50:14.331Z</time></trkpt><trkpt lat="44.9968892" lon="8.4844727"><ele>267.2</ele><time>2026-05-03T10:50:15.331Z</time></trkpt><trkpt lat="44.9969811" lon="8.4844459"><ele>267.0</ele><time>2026-05-03T10:50:16.332Z</time></trkpt><trkpt lat="44.9970735" lon="8.4844196"><ele>267.0</ele><time>2026-05-03T10:50:17.332Z</time></trkpt><trkpt lat="44.9971656" lon="8.484395"><ele>267.0</ele><time>2026-05-03T10:50:18.331Z</time></trkpt><trkpt lat="44.9972582" lon="8.4843694"><ele>267.0</ele><time>2026-05-03T10:50:19.331Z</time></trkpt><trkpt lat="44.9973506" lon="8.4843417"><ele>267.0</ele><time>2026-05-03T10:50:20.331Z</time></trkpt><trkpt lat="44.99744" lon="8.4843106"><ele>267.0</ele><time>2026-05-03T10:50:21.331Z</time></trkpt><trkpt lat="44.997526" lon="8.4842754"><ele>267.8333333333333</ele><time>2026-05-03T10:50:22.331Z</time></trkpt><trkpt lat="44.9976103" lon="8.4842372"><ele>268.6666666666667</ele><time>2026-05-03T10:50:23.332Z</time></trkpt><trkpt lat="44.9976929" lon="8.4841981"><ele>269.5</ele><time>2026-05-03T10:50:24.331Z</time></trkpt><trkpt lat="44.9977763" lon="8.4841531"><ele>270.33333333333337</ele><time>2026-05-03T10:50:25.331Z</time></trkpt><trkpt lat="44.9978584" lon="8.4841073"><ele>271.1666666666667</ele><time>2026-05-03T10:50:26.331Z</time></trkpt><trkpt lat="44.9979408" lon="8.4840649"><ele>272.0</ele><time>2026-05-03T10:50:27.331Z</time></trkpt><trkpt lat="44.9980236" lon="8.4840264"><ele>272.0</ele><time>2026-05-03T10:50:28.331Z</time></trkpt><trkpt lat="44.9981093" lon="8.483994"><ele>272.0</ele><time>2026-05-03T10:50:29.331Z</time></trkpt><trkpt lat="44.9981948" lon="8.4839661"><ele>272.0</ele><time>2026-05-03T10:50:30.332Z</time></trkpt><trkpt lat="44.9982783" lon="8.483945"><ele>272.0</ele><time>2026-05-03T10:50:31.331Z</time></trkpt><trkpt lat="44.9983541" lon="8.4839352"><ele>272.0</ele><time>2026-05-03T10:50:32.331Z</time></trkpt><trkpt lat="44.9984199" lon="8.4839358"><ele>272.0</ele><time>2026-05-03T10:50:33.332Z</time></trkpt><trkpt lat="44.9985236" lon="8.4839948"><ele>272.99999999999994</ele><time>2026-05-03T10:50:35.331Z</time></trkpt><trkpt lat="44.9985798" lon="8.4840455"><ele>274.0</ele><time>2026-05-03T10:50:36.331Z</time></trkpt><trkpt lat="44.9986395" lon="8.4841"><ele>275.0</ele><time>2026-05-03T10:50:37.331Z</time></trkpt><trkpt lat="44.9987053" lon="8.4841552"><ele>276.0</ele><time>2026-05-03T10:50:38.331Z</time></trkpt><trkpt lat="44.9987718" lon="8.4842038"><ele>277.0</ele><time>2026-05-03T10:50:39.331Z</time></trkpt><trkpt lat="44.998837" lon="8.4842584"><ele>277.99999999999994</ele><time>2026-05-03T10:50:40.331Z</time></trkpt><trkpt lat="44.9988984" lon="8.4843133"><ele>279.0</ele><time>2026-05-03T10:50:41.331Z</time></trkpt><trkpt lat="44.9989604" lon="8.4843691"><ele>278.99999999999994</ele><time>2026-05-03T10:50:42.331Z</time></trkpt><trkpt lat="44.9990251" lon="8.4844226"><ele>279.0</ele><time>2026-05-03T10:50:43.331Z</time></trkpt><trkpt lat="44.9990899" lon="8.484464"><ele>279.0</ele><time>2026-05-03T10:50:44.332Z</time></trkpt><trkpt lat="44.9991562" lon="8.4844778"><ele>279.0</ele><time>2026-05-03T10:50:45.332Z</time></trkpt><trkpt lat="44.9992228" lon="8.4844697"><ele>279.0</ele><time>2026-05-03T10:50:46.332Z</time></trkpt><trkpt lat="44.9992858" lon="8.4844582"><ele>278.99999999999994</ele><time>2026-05-03T10:50:47.332Z</time></trkpt><trkpt lat="44.9993526" lon="8.4844491"><ele>279.0</ele><time>2026-05-03T10:50:48.333Z</time></trkpt><trkpt lat="44.9994206" lon="8.4844394"><ele>278.5</ele><time>2026-05-03T10:50:49.332Z</time></trkpt><trkpt lat="44.9994886" lon="8.4844204"><ele>278.0</ele><time>2026-05-03T10:50:50.332Z</time></trkpt><trkpt lat="44.9995601" lon="8.4844017"><ele>277.5</ele><time>2026-05-03T10:50:51.332Z</time></trkpt><trkpt lat="44.9996298" lon="8.4843787"><ele>277.0</ele><time>2026-05-03T10:50:52.332Z</time></trkpt><trkpt lat="44.999716" lon="8.4843513"><ele>276.5</ele><time>2026-05-03T10:50:53.333Z</time></trkpt><trkpt lat="44.9997891" lon="8.4843241"><ele>276.0</ele><time>2026-05-03T10:50:54.333Z</time></trkpt><trkpt lat="44.9998644" lon="8.4842927"><ele>276.0</ele><time>2026-05-03T10:50:55.332Z</time></trkpt><trkpt lat="44.9999444" lon="8.484267"><ele>276.0</ele><time>2026-05-03T10:50:56.332Z</time></trkpt><trkpt lat="45.0000146" lon="8.4842436"><ele>276.0</ele><time>2026-05-03T10:50:57.332Z</time></trkpt><trkpt lat="45.0000772" lon="8.4842214"><ele>276.0</ele><time>2026-05-03T10:50:58.333Z</time></trkpt><trkpt lat="45.0001921" lon="8.4841907"><ele>276.0</ele><time>2026-05-03T10:51:00.333Z</time></trkpt><trkpt lat="45.0003069" lon="8.4842318"><ele>276.0</ele><time>2026-05-03T10:51:02.332Z</time></trkpt><trkpt lat="45.0003898" lon="8.4842836"><ele>276.0</ele><time>2026-05-03T10:51:03.332Z</time></trkpt><trkpt lat="45.0004697" lon="8.4843459"><ele>276.0</ele><time>2026-05-03T10:51:04.332Z</time></trkpt><trkpt lat="45.0005274" lon="8.4844154"><ele>276.0</ele><time>2026-05-03T10:51:05.332Z</time></trkpt><trkpt lat="45.0005704" lon="8.4844896"><ele>276.0</ele><time>2026-05-03T10:51:06.333Z</time></trkpt><trkpt lat="45.0006097" lon="8.48456"><ele>276.0</ele><time>2026-05-03T10:51:07.332Z</time></trkpt><trkpt lat="45.0006506" lon="8.4846324"><ele>275.1666666666667</ele><time>2026-05-03T10:51:08.332Z</time></trkpt><trkpt lat="45.0006935" lon="8.4847134"><ele>274.3333333333333</ele><time>2026-05-03T10:51:09.333Z</time></trkpt><trkpt lat="45.0007314" lon="8.4847979"><ele>273.5</ele><time>2026-05-03T10:51:10.332Z</time></trkpt><trkpt lat="45.0007661" lon="8.4848964"><ele>272.66666666666663</ele><time>2026-05-03T10:51:11.332Z</time></trkpt><trkpt lat="45.0008039" lon="8.4849947"><ele>271.8333333333333</ele><time>2026-05-03T10:51:12.332Z</time></trkpt><trkpt lat="45.0008441" lon="8.4850846"><ele>271.0</ele><time>2026-05-03T10:51:13.332Z</time></trkpt><trkpt lat="45.0008821" lon="8.4851787"><ele>271.0</ele><time>2026-05-03T10:51:14.333Z</time></trkpt><trkpt lat="45.0009264" lon="8.4852836"><ele>271.0</ele><time>2026-05-03T10:51:15.333Z</time></trkpt><trkpt lat="45.0009694" lon="8.4853936"><ele>271.0</ele><time>2026-05-03T10:51:16.332Z</time></trkpt><trkpt lat="45.001015" lon="8.4854976"><ele>271.0</ele><time>2026-05-03T10:51:17.333Z</time></trkpt><trkpt lat="45.0010577" lon="8.4855997"><ele>271.0</ele><time>2026-05-03T10:51:18.332Z</time></trkpt><trkpt lat="45.0011053" lon="8.4856964"><ele>271.0</ele><time>2026-05-03T10:51:19.332Z</time></trkpt><trkpt lat="45.0011528" lon="8.4857947"><ele>269.0</ele><time>2026-05-03T10:51:20.332Z</time></trkpt><trkpt lat="45.0011962" lon="8.4858962"><ele>267.0</ele><time>2026-05-03T10:51:21.332Z</time></trkpt><trkpt lat="45.0012401" lon="8.4859953"><ele>265.0</ele><time>2026-05-03T10:51:22.333Z</time></trkpt><trkpt lat="45.0012808" lon="8.4860958"><ele>263.0</ele><time>2026-05-03T10:51:23.333Z</time></trkpt><trkpt lat="45.0013237" lon="8.4861863"><ele>261.0</ele><time>2026-05-03T10:51:24.332Z</time></trkpt><trkpt lat="45.0013661" lon="8.4862793"><ele>259.0</ele><time>2026-05-03T10:51:25.333Z</time></trkpt><trkpt lat="45.0014088" lon="8.4863648"><ele>259.5</ele><time>2026-05-03T10:51:26.332Z</time></trkpt><trkpt lat="45.0014515" lon="8.4864525"><ele>260.0</ele><time>2026-05-03T10:51:27.332Z</time></trkpt><trkpt lat="45.0014963" lon="8.486542"><ele>260.5</ele><time>2026-05-03T10:51:28.332Z</time></trkpt><trkpt lat="45.0015448" lon="8.4866408"><ele>261.0</ele><time>2026-05-03T10:51:29.332Z</time></trkpt><trkpt lat="45.0015982" lon="8.4867232"><ele>261.5</ele><time>2026-05-03T10:51:30.333Z</time></trkpt><trkpt lat="45.0016604" lon="8.4867957"><ele>262.0</ele><time>2026-05-03T10:51:31.332Z</time></trkpt><trkpt lat="45.0017316" lon="8.4868612"><ele>262.0</ele><time>2026-05-03T10:51:32.332Z</time></trkpt><trkpt lat="45.0018069" lon="8.4869124"><ele>262.0</ele><time>2026-05-03T10:51:33.333Z</time></trkpt><trkpt lat="45.0018824" lon="8.4869553"><ele>262.0</ele><time>2026-05-03T10:51:34.333Z</time></trkpt><trkpt lat="45.0019538" lon="8.4870044"><ele>262.0</ele><time>2026-05-03T10:51:35.333Z</time></trkpt><trkpt lat="45.0020209" lon="8.4870457"><ele>262.0</ele><time>2026-05-03T10:51:36.334Z</time></trkpt><trkpt lat="45.0020821" lon="8.4870813"><ele>262.0</ele><time>2026-05-03T10:51:37.334Z</time></trkpt><trkpt lat="45.0021708" lon="8.4871493"><ele>262.0</ele><time>2026-05-03T10:51:39.334Z</time></trkpt><trkpt lat="45.0022609" lon="8.487214"><ele>262.0</ele><time>2026-05-03T10:51:42.333Z</time></trkpt><trkpt lat="45.0023418" lon="8.487279"><ele>262.0</ele><time>2026-05-03T10:51:44.334Z</time></trkpt><trkpt lat="45.0024243" lon="8.4873049"><ele>262.0</ele><time>2026-05-03T10:51:46.333Z</time></trkpt><trkpt lat="45.002502" lon="8.4872105"><ele>262.0</ele><time>2026-05-03T10:51:49.333Z</time></trkpt><trkpt lat="45.0025169" lon="8.487071"><ele>263.2</ele><time>2026-05-03T10:51:51.333Z</time></trkpt><trkpt lat="45.0025138" lon="8.4869361"><ele>264.4</ele><time>2026-05-03T10:51:53.333Z</time></trkpt><trkpt lat="45.0025797" lon="8.4868642"><ele>265.6</ele><time>2026-05-03T10:52:06.333Z</time></trkpt><trkpt lat="45.0026768" lon="8.4868771"><ele>266.8</ele><time>2026-05-03T10:52:08.333Z</time></trkpt><trkpt lat="45.0027067" lon="8.4867616"><ele>268.0</ele><time>2026-05-03T10:52:23.333Z</time></trkpt><trkpt lat="45.0026948" lon="8.4866122"><ele>268.0</ele><time>2026-05-03T10:52:25.335Z</time></trkpt><trkpt lat="45.0026752" lon="8.486492"><ele>268.0</ele><time>2026-05-03T10:52:27.334Z</time></trkpt><trkpt lat="45.0026788" lon="8.4863917"><ele>268.0</ele><time>2026-05-03T10:52:29.335Z</time></trkpt><trkpt lat="45.0027155" lon="8.4862844"><ele>268.0</ele><time>2026-05-03T10:52:31.334Z</time></trkpt><trkpt lat="45.0026948" lon="8.4861485"><ele>268.0</ele><time>2026-05-03T10:52:33.335Z</time></trkpt><trkpt lat="45.002654" lon="8.486023"><ele>268.0</ele><time>2026-05-03T10:52:35.334Z</time></trkpt><trkpt lat="45.0026372" lon="8.4858924"><ele>269.3333333333333</ele><time>2026-05-03T10:52:37.334Z</time></trkpt><trkpt lat="45.0026218" lon="8.4857677"><ele>270.66666666666663</ele><time>2026-05-03T10:52:39.335Z</time></trkpt><trkpt lat="45.0025741" lon="8.4856595"><ele>272.0</ele><time>2026-05-03T10:52:41.334Z</time></trkpt><trkpt lat="45.0025341" lon="8.4855874"><ele>273.3333333333333</ele><time>2026-05-03T10:52:43.335Z</time></trkpt><trkpt lat="45.0025043" lon="8.4854917"><ele>274.6666666666667</ele><time>2026-05-03T10:52:45.334Z</time></trkpt><trkpt lat="45.0024525" lon="8.4853739"><ele>276.0</ele><time>2026-05-03T10:52:47.335Z</time></trkpt><trkpt lat="45.0024075" lon="8.485299"><ele>277.0</ele><time>2026-05-03T10:52:49.334Z</time></trkpt><trkpt lat="45.0023492" lon="8.4851822"><ele>278.0</ele><time>2026-05-03T10:52:52.334Z</time></trkpt><trkpt lat="45.0022972" lon="8.4850626"><ele>279.0</ele><time>2026-05-03T10:52:54.335Z</time></trkpt><trkpt lat="45.0022281" lon="8.4849752"><ele>280.0</ele><time>2026-05-03T10:52:56.335Z</time></trkpt><trkpt lat="45.0021879" lon="8.484903"><ele>281.0</ele><time>2026-05-03T10:52:58.334Z</time></trkpt><trkpt lat="45.0021382" lon="8.4848361"><ele>282.0</ele><time>2026-05-03T10:53:00.335Z</time></trkpt><trkpt lat="45.0020786" lon="8.484804"><ele>282.0</ele><time>2026-05-03T10:53:02.335Z</time></trkpt><trkpt lat="45.0020227" lon="8.4847479"><ele>282.0</ele><time>2026-05-03T10:53:04.334Z</time></trkpt><trkpt lat="45.0019796" lon="8.4846694"><ele>282.0</ele><time>2026-05-03T10:53:09.335Z</time></trkpt><trkpt lat="45.0019358" lon="8.4845478"><ele>282.0</ele><time>2026-05-03T10:53:14.335Z</time></trkpt><trkpt lat="45.0019091" lon="8.4844316"><ele>282.0</ele><time>2026-05-03T10:53:16.336Z</time></trkpt><trkpt lat="45.0018811" lon="8.4843011"><ele>282.0</ele><time>2026-05-03T10:53:18.335Z</time></trkpt><trkpt lat="45.001873" lon="8.4841507"><ele>282.6</ele><time>2026-05-03T10:53:20.335Z</time></trkpt><trkpt lat="45.0018815" lon="8.4840473"><ele>283.2</ele><time>2026-05-03T10:53:22.335Z</time></trkpt><trkpt lat="45.0018793" lon="8.4839221"><ele>283.8</ele><time>2026-05-03T10:53:24.336Z</time></trkpt><trkpt lat="45.0018658" lon="8.483758"><ele>284.4</ele><time>2026-05-03T10:53:26.336Z</time></trkpt><trkpt lat="45.0018558" lon="8.4836599"><ele>285.0</ele><time>2026-05-03T10:53:27.336Z</time></trkpt><trkpt lat="45.0018391" lon="8.4834987"><ele>285.0</ele><time>2026-05-03T10:53:29.335Z</time></trkpt><trkpt lat="45.0018315" lon="8.4833887"><ele>285.0</ele><time>2026-05-03T10:53:31.336Z</time></trkpt><trkpt lat="45.0018819" lon="8.4834706"><ele>285.0</ele><time>2026-05-03T10:53:37.335Z</time></trkpt><trkpt lat="45.0018472" lon="8.48362"><ele>285.0</ele><time>2026-05-03T10:59:20.343Z</time></trkpt><trkpt lat="45.0018544" lon="8.4837131"><ele>285.0</ele><time>2026-05-03T10:59:22.343Z</time></trkpt><trkpt lat="45.0018694" lon="8.4838321"><ele>285.0</ele><time>2026-05-03T10:59:25.342Z</time></trkpt><trkpt lat="45.0018929" lon="8.4839505"><ele>285.0</ele><time>2026-05-03T10:59:28.342Z</time></trkpt><trkpt lat="45.0019015" lon="8.4840659"><ele>285.0</ele><time>2026-05-03T10:59:31.343Z</time></trkpt><trkpt lat="45.0019152" lon="8.4841621"><ele>285.0</ele><time>2026-05-03T10:59:34.343Z</time></trkpt><trkpt lat="45.0019242" lon="8.4842788"><ele>285.0</ele><time>2026-05-03T10:59:37.344Z</time></trkpt><trkpt lat="45.0019397" lon="8.4843652"><ele>285.0</ele><time>2026-05-03T10:59:39.343Z</time></trkpt><trkpt lat="45.0019628" lon="8.4844911"><ele>285.0</ele><time>2026-05-03T10:59:41.343Z</time></trkpt><trkpt lat="45.0019793" lon="8.4846151"><ele>284.5</ele><time>2026-05-03T10:59:43.344Z</time></trkpt><trkpt lat="45.0020133" lon="8.4847214"><ele>284.0</ele><time>2026-05-03T10:59:46.344Z</time></trkpt><trkpt lat="45.002056" lon="8.4847963"><ele>283.5</ele><time>2026-05-03T10:59:48.343Z</time></trkpt><trkpt lat="45.002107" lon="8.4848842"><ele>283.0</ele><time>2026-05-03T10:59:50.344Z</time></trkpt><trkpt lat="45.0021933" lon="8.4849204"><ele>282.5</ele><time>2026-05-03T10:59:53.343Z</time></trkpt><trkpt lat="45.002216" lon="8.4848183"><ele>282.0</ele><time>2026-05-03T10:59:58.343Z</time></trkpt><trkpt lat="45.0022179" lon="8.4847246"><ele>282.6</ele><time>2026-05-03T11:00:01.344Z</time></trkpt><trkpt lat="45.0022023" lon="8.4845939"><ele>283.2</ele><time>2026-05-03T11:00:03.344Z</time></trkpt><trkpt lat="45.0021688" lon="8.4844635"><ele>283.8</ele><time>2026-05-03T11:00:05.343Z</time></trkpt><trkpt lat="45.0021393" lon="8.4843818"><ele>284.4</ele><time>2026-05-03T11:00:06.344Z</time></trkpt><trkpt lat="45.0020921" lon="8.4842247"><ele>285.0</ele><time>2026-05-03T11:00:08.343Z</time></trkpt><trkpt lat="45.0020425" lon="8.4840717"><ele>285.0</ele><time>2026-05-03T11:00:10.343Z</time></trkpt><trkpt lat="45.0020001" lon="8.483923"><ele>285.0</ele><time>2026-05-03T11:00:12.343Z</time></trkpt><trkpt lat="45.0019719" lon="8.4837793"><ele>285.0</ele><time>2026-05-03T11:00:14.344Z</time></trkpt><trkpt lat="45.0019671" lon="8.4836204"><ele>285.0</ele><time>2026-05-03T11:00:16.344Z</time></trkpt><trkpt lat="45.0020074" lon="8.4834761"><ele>285.0</ele><time>2026-05-03T11:00:18.344Z</time></trkpt><trkpt lat="45.0020291" lon="8.4833851"><ele>285.0</ele><time>2026-05-03T11:00:19.344Z</time></trkpt><trkpt lat="45.002039" lon="8.4832838"><ele>285.0</ele><time>2026-05-03T11:00:20.343Z</time></trkpt><trkpt lat="45.0020402" lon="8.4831787"><ele>285.0</ele><time>2026-05-03T11:00:21.343Z</time></trkpt><trkpt lat="45.0020404" lon="8.483085"><ele>285.0</ele><time>2026-05-03T11:00:22.343Z</time></trkpt><trkpt lat="45.0020527" lon="8.4829557"><ele>285.0</ele><time>2026-05-03T11:00:24.343Z</time></trkpt><trkpt lat="45.0020794" lon="8.4828694"><ele>285.0</ele><time>2026-05-03T11:00:26.344Z</time></trkpt><trkpt lat="45.002105" lon="8.4827535"><ele>283.4</ele><time>2026-05-03T11:00:28.344Z</time></trkpt><trkpt lat="45.0021052" lon="8.4826194"><ele>281.8</ele><time>2026-05-03T11:00:30.344Z</time></trkpt><trkpt lat="45.0021006" lon="8.4824566"><ele>280.2</ele><time>2026-05-03T11:00:32.344Z</time></trkpt><trkpt lat="45.0020987" lon="8.4823274"><ele>278.6</ele><time>2026-05-03T11:00:34.344Z</time></trkpt><trkpt lat="45.0020734" lon="8.4821885"><ele>277.0</ele><time>2026-05-03T11:00:36.345Z</time></trkpt><trkpt lat="45.0020389" lon="8.4820401"><ele>273.8333333333333</ele><time>2026-05-03T11:00:38.344Z</time></trkpt><trkpt lat="45.0019895" lon="8.4818984"><ele>270.66666666666663</ele><time>2026-05-03T11:00:40.345Z</time></trkpt><trkpt lat="45.0019127" lon="8.4817875"><ele>267.5</ele><time>2026-05-03T11:00:42.344Z</time></trkpt><trkpt lat="45.0018476" lon="8.4817293"><ele>264.3333333333333</ele><time>2026-05-03T11:00:44.344Z</time></trkpt><trkpt lat="45.001793" lon="8.4816809"><ele>261.1666666666667</ele><time>2026-05-03T11:00:46.344Z</time></trkpt><trkpt lat="45.0017671" lon="8.4815894"><ele>258.0</ele><time>2026-05-03T11:00:49.344Z</time></trkpt><trkpt lat="45.0017945" lon="8.4815054"><ele>258.0</ele><time>2026-05-03T11:00:54.344Z</time></trkpt><trkpt lat="45.0018631" lon="8.4814767"><ele>258.0</ele><time>2026-05-03T11:00:56.345Z</time></trkpt><trkpt lat="45.0019462" lon="8.4814542"><ele>258.0</ele><time>2026-05-03T11:00:58.344Z</time></trkpt><trkpt lat="45.0020442" lon="8.4814805"><ele>258.0</ele><time>2026-05-03T11:01:00.344Z</time></trkpt><trkpt lat="45.0021507" lon="8.4815471"><ele>258.0</ele><time>2026-05-03T11:01:02.345Z</time></trkpt><trkpt lat="45.0022447" lon="8.4816228"><ele>258.0</ele><time>2026-05-03T11:01:04.345Z</time></trkpt><trkpt lat="45.0023036" lon="8.4816814"><ele>258.0</ele><time>2026-05-03T11:01:07.344Z</time></trkpt><trkpt lat="45.0023628" lon="8.4817592"><ele>258.0</ele><time>2026-05-03T11:01:10.345Z</time></trkpt><trkpt lat="45.0023978" lon="8.4818424"><ele>258.0</ele><time>2026-05-03T11:01:11.344Z</time></trkpt><trkpt lat="45.0024254" lon="8.4819475"><ele>258.0</ele><time>2026-05-03T11:01:12.344Z</time></trkpt><trkpt lat="45.0024623" lon="8.4820717"><ele>258.0</ele><time>2026-05-03T11:01:13.344Z</time></trkpt><trkpt lat="45.0024999" lon="8.482189"><ele>257.8333333333333</ele><time>2026-05-03T11:01:14.345Z</time></trkpt><trkpt lat="45.0025413" lon="8.4822949"><ele>257.6666666666667</ele><time>2026-05-03T11:01:15.344Z</time></trkpt><trkpt lat="45.0025868" lon="8.4823974"><ele>257.5</ele><time>2026-05-03T11:01:16.344Z</time></trkpt><trkpt lat="45.0026329" lon="8.4824965"><ele>257.33333333333337</ele><time>2026-05-03T11:01:17.345Z</time></trkpt><trkpt lat="45.0026741" lon="8.4825768"><ele>257.1666666666667</ele><time>2026-05-03T11:01:18.345Z</time></trkpt><trkpt lat="45.002754" lon="8.4826874"><ele>257.0</ele><time>2026-05-03T11:01:20.345Z</time></trkpt><trkpt lat="45.0028586" lon="8.4827228"><ele>257.0</ele><time>2026-05-03T11:01:22.345Z</time></trkpt><trkpt lat="45.002929" lon="8.4827091"><ele>257.0</ele><time>2026-05-03T11:01:23.346Z</time></trkpt><trkpt lat="45.0030031" lon="8.4826971"><ele>257.0</ele><time>2026-05-03T11:01:24.345Z</time></trkpt><trkpt lat="45.0030743" lon="8.4827128"><ele>257.0</ele><time>2026-05-03T11:01:25.345Z</time></trkpt><trkpt lat="45.003152" lon="8.4827413"><ele>257.0</ele><time>2026-05-03T11:01:26.345Z</time></trkpt><trkpt lat="45.0032358" lon="8.4827883"><ele>257.0</ele><time>2026-05-03T11:01:27.345Z</time></trkpt><trkpt lat="45.0033206" lon="8.4828348"><ele>253.0</ele><time>2026-05-03T11:01:28.346Z</time></trkpt><trkpt lat="45.0034085" lon="8.482864"><ele>249.0</ele><time>2026-05-03T11:01:29.345Z</time></trkpt><trkpt lat="45.0035033" lon="8.4828815"><ele>245.0</ele><time>2026-05-03T11:01:30.345Z</time></trkpt><trkpt lat="45.003597" lon="8.4828897"><ele>241.0</ele><time>2026-05-03T11:01:31.345Z</time></trkpt><trkpt lat="45.0036975" lon="8.4828885"><ele>237.0</ele><time>2026-05-03T11:01:32.345Z</time></trkpt><trkpt lat="45.0037917" lon="8.4828944"><ele>237.0</ele><time>2026-05-03T11:01:33.345Z</time></trkpt><trkpt lat="45.0038871" lon="8.4828953"><ele>237.0</ele><time>2026-05-03T11:01:34.345Z</time></trkpt><trkpt lat="45.0039737" lon="8.4828975"><ele>237.0</ele><time>2026-05-03T11:01:35.346Z</time></trkpt><trkpt lat="45.0040614" lon="8.4828973"><ele>237.0</ele><time>2026-05-03T11:01:36.345Z</time></trkpt><trkpt lat="45.0041463" lon="8.482895"><ele>237.0</ele><time>2026-05-03T11:01:37.346Z</time></trkpt><trkpt lat="45.0042347" lon="8.4828943"><ele>237.0</ele><time>2026-05-03T11:01:38.346Z</time></trkpt><trkpt lat="45.0043147" lon="8.4828989"><ele>235.2</ele><time>2026-05-03T11:01:39.345Z</time></trkpt><trkpt lat="45.0043855" lon="8.4829017"><ele>233.39999999999998</ele><time>2026-05-03T11:01:40.345Z</time></trkpt><trkpt lat="45.0044901" lon="8.4828741"><ele>231.60000000000002</ele><time>2026-05-03T11:01:42.346Z</time></trkpt><trkpt lat="45.0045522" lon="8.4827438"><ele>229.8</ele><time>2026-05-03T11:01:44.346Z</time></trkpt><trkpt lat="45.0045695" lon="8.4826342"><ele>228.0</ele><time>2026-05-03T11:01:45.346Z</time></trkpt><trkpt lat="45.0045772" lon="8.4825167"><ele>228.0</ele><time>2026-05-03T11:01:46.345Z</time></trkpt><trkpt lat="45.0045899" lon="8.4823993"><ele>228.0</ele><time>2026-05-03T11:01:47.345Z</time></trkpt><trkpt lat="45.0046014" lon="8.4822852"><ele>228.0</ele><time>2026-05-03T11:01:48.346Z</time></trkpt><trkpt lat="45.0046139" lon="8.4821696"><ele>228.0</ele><time>2026-05-03T11:01:49.345Z</time></trkpt><trkpt lat="45.0046276" lon="8.4820521"><ele>228.0</ele><time>2026-05-03T11:01:50.346Z</time></trkpt><trkpt lat="45.0046478" lon="8.4819286"><ele>228.0</ele><time>2026-05-03T11:01:51.345Z</time></trkpt><trkpt lat="45.00467" lon="8.4818027"><ele>226.0</ele><time>2026-05-03T11:01:52.345Z</time></trkpt><trkpt lat="45.0046922" lon="8.481678"><ele>224.0</ele><time>2026-05-03T11:01:53.345Z</time></trkpt><trkpt lat="45.0047185" lon="8.4815543"><ele>222.0</ele><time>2026-05-03T11:01:54.345Z</time></trkpt><trkpt lat="45.0047568" lon="8.4814437"><ele>220.0</ele><time>2026-05-03T11:01:55.345Z</time></trkpt><trkpt lat="45.0048158" lon="8.4813426"><ele>218.0</ele><time>2026-05-03T11:01:56.345Z</time></trkpt><trkpt lat="45.0048825" lon="8.4812462"><ele>217.0</ele><time>2026-05-03T11:01:57.345Z</time></trkpt><trkpt lat="45.0049466" lon="8.4811427"><ele>216.0</ele><time>2026-05-03T11:01:58.345Z</time></trkpt><trkpt lat="45.0050071" lon="8.4810387"><ele>215.0</ele><time>2026-05-03T11:01:59.345Z</time></trkpt><trkpt lat="45.0050607" lon="8.4809258"><ele>214.0</ele><time>2026-05-03T11:02:00.346Z</time></trkpt><trkpt lat="45.0051097" lon="8.4808073"><ele>213.0</ele><time>2026-05-03T11:02:01.345Z</time></trkpt><trkpt lat="45.0051544" lon="8.4806902"><ele>213.0</ele><time>2026-05-03T11:02:02.346Z</time></trkpt><trkpt lat="45.0051911" lon="8.4805628"><ele>213.0</ele><time>2026-05-03T11:02:03.345Z</time></trkpt><trkpt lat="45.0052188" lon="8.4804288"><ele>213.0</ele><time>2026-05-03T11:02:04.345Z</time></trkpt><trkpt lat="45.0052395" lon="8.48029"><ele>213.0</ele><time>2026-05-03T11:02:05.346Z</time></trkpt><trkpt lat="45.0052579" lon="8.4801558"><ele>213.0</ele><time>2026-05-03T11:02:06.346Z</time></trkpt><trkpt lat="45.0052764" lon="8.4800294"><ele>211.2</ele><time>2026-05-03T11:02:07.347Z</time></trkpt><trkpt lat="45.005299" lon="8.4799018"><ele>209.4</ele><time>2026-05-03T11:02:08.347Z</time></trkpt><trkpt lat="45.0053225" lon="8.4797758"><ele>207.6</ele><time>2026-05-03T11:02:09.347Z</time></trkpt><trkpt lat="45.0053418" lon="8.4796526"><ele>205.79999999999998</ele><time>2026-05-03T11:02:10.347Z</time></trkpt><trkpt lat="45.0053625" lon="8.4795268"><ele>204.0</ele><time>2026-05-03T11:02:11.347Z</time></trkpt><trkpt lat="45.0053816" lon="8.4794056"><ele>203.16666666666666</ele><time>2026-05-03T11:02:12.346Z</time></trkpt><trkpt lat="45.0054023" lon="8.4792828"><ele>202.33333333333331</ele><time>2026-05-03T11:02:13.346Z</time></trkpt><trkpt lat="45.0054235" lon="8.4791607"><ele>201.5</ele><time>2026-05-03T11:02:14.346Z</time></trkpt><trkpt lat="45.0054425" lon="8.4790387"><ele>200.66666666666666</ele><time>2026-05-03T11:02:15.347Z</time></trkpt><trkpt lat="45.0054643" lon="8.4789157"><ele>199.83333333333331</ele><time>2026-05-03T11:02:16.347Z</time></trkpt><trkpt lat="45.0054845" lon="8.4787994"><ele>199.0</ele><time>2026-05-03T11:02:17.346Z</time></trkpt><trkpt lat="45.0055053" lon="8.4786798"><ele>197.79999999999998</ele><time>2026-05-03T11:02:18.346Z</time></trkpt><trkpt lat="45.0055263" lon="8.4785558"><ele>196.6</ele><time>2026-05-03T11:02:19.347Z</time></trkpt><trkpt lat="45.0055464" lon="8.4784302"><ele>195.4</ele><time>2026-05-03T11:02:20.346Z</time></trkpt><trkpt lat="45.0055628" lon="8.478302"><ele>194.2</ele><time>2026-05-03T11:02:21.346Z</time></trkpt><trkpt lat="45.0055743" lon="8.4781727"><ele>193.0</ele><time>2026-05-03T11:02:22.346Z</time></trkpt><trkpt lat="45.0055748" lon="8.4780421"><ele>191.8</ele><time>2026-05-03T11:02:23.346Z</time></trkpt><trkpt lat="45.0055712" lon="8.4779082"><ele>190.60000000000002</ele><time>2026-05-03T11:02:24.347Z</time></trkpt><trkpt lat="45.0055683" lon="8.4777774"><ele>189.39999999999998</ele><time>2026-05-03T11:02:25.347Z</time></trkpt><trkpt lat="45.0055676" lon="8.4776446"><ele>188.2</ele><time>2026-05-03T11:02:26.346Z</time></trkpt><trkpt lat="45.0055676" lon="8.4775132"><ele>187.0</ele><time>2026-05-03T11:02:27.347Z</time></trkpt><trkpt lat="45.0055674" lon="8.4773851"><ele>187.0</ele><time>2026-05-03T11:02:28.347Z</time></trkpt><trkpt lat="45.0055681" lon="8.4772602"><ele>187.0</ele><time>2026-05-03T11:02:29.346Z</time></trkpt><trkpt lat="45.0055668" lon="8.4771338"><ele>187.0</ele><time>2026-05-03T11:02:30.346Z</time></trkpt><trkpt lat="45.0055601" lon="8.4770043"><ele>187.0</ele><time>2026-05-03T11:02:31.347Z</time></trkpt><trkpt lat="45.0055471" lon="8.4768726"><ele>187.0</ele><time>2026-05-03T11:02:32.347Z</time></trkpt><trkpt lat="45.0055265" lon="8.4767418"><ele>185.6</ele><time>2026-05-03T11:02:33.346Z</time></trkpt><trkpt lat="45.0054987" lon="8.4766158"><ele>184.2</ele><time>2026-05-03T11:02:34.347Z</time></trkpt><trkpt lat="45.0054671" lon="8.4764882"><ele>182.8</ele><time>2026-05-03T11:02:35.346Z</time></trkpt><trkpt lat="45.0054349" lon="8.4763631"><ele>181.4</ele><time>2026-05-03T11:02:36.346Z</time></trkpt><trkpt lat="45.0054065" lon="8.4762411"><ele>180.0</ele><time>2026-05-03T11:02:37.346Z</time></trkpt><trkpt lat="45.0053844" lon="8.4761243"><ele>179.5</ele><time>2026-05-03T11:02:38.347Z</time></trkpt><trkpt lat="45.0053716" lon="8.4760062"><ele>179.0</ele><time>2026-05-03T11:02:39.346Z</time></trkpt><trkpt lat="45.0053715" lon="8.4758836"><ele>178.5</ele><time>2026-05-03T11:02:40.346Z</time></trkpt><trkpt lat="45.0053908" lon="8.4757616"><ele>178.0</ele><time>2026-05-03T11:02:41.346Z</time></trkpt><trkpt lat="45.0054168" lon="8.4756393"><ele>177.5</ele><time>2026-05-03T11:02:42.346Z</time></trkpt><trkpt lat="45.0054439" lon="8.4755189"><ele>177.0</ele><time>2026-05-03T11:02:43.346Z</time></trkpt><trkpt lat="45.0054712" lon="8.4753937"><ele>175.83333333333334</ele><time>2026-05-03T11:02:44.346Z</time></trkpt><trkpt lat="45.0054937" lon="8.4752736"><ele>174.66666666666666</ele><time>2026-05-03T11:02:45.347Z</time></trkpt><trkpt lat="45.0055108" lon="8.4751525"><ele>173.5</ele><time>2026-05-03T11:02:46.346Z</time></trkpt><trkpt lat="45.0055224" lon="8.4750193"><ele>172.33333333333331</ele><time>2026-05-03T11:02:47.347Z</time></trkpt><trkpt lat="45.0055222" lon="8.4748932"><ele>171.16666666666666</ele><time>2026-05-03T11:02:48.346Z</time></trkpt><trkpt lat="45.0055172" lon="8.4747683"><ele>170.0</ele><time>2026-05-03T11:02:49.346Z</time></trkpt><trkpt lat="45.0055012" lon="8.4746301"><ele>169.2</ele><time>2026-05-03T11:02:50.347Z</time></trkpt><trkpt lat="45.0054759" lon="8.474496"><ele>168.4</ele><time>2026-05-03T11:02:51.347Z</time></trkpt><trkpt lat="45.0054453" lon="8.47437"><ele>167.60000000000002</ele><time>2026-05-03T11:02:52.346Z</time></trkpt><trkpt lat="45.0054108" lon="8.4742417"><ele>166.8</ele><time>2026-05-03T11:02:53.347Z</time></trkpt><trkpt lat="45.0053837" lon="8.4741138"><ele>166.0</ele><time>2026-05-03T11:02:54.346Z</time></trkpt><trkpt lat="45.0053635" lon="8.4740057"><ele>166.0</ele><time>2026-05-03T11:02:55.347Z</time></trkpt><trkpt lat="45.0053548" lon="8.4738966"><ele>166.0</ele><time>2026-05-03T11:02:56.347Z</time></trkpt><trkpt lat="45.0053719" lon="8.4737925"><ele>166.0</ele><time>2026-05-03T11:02:57.347Z</time></trkpt><trkpt lat="45.0054127" lon="8.4736897"><ele>166.0</ele><time>2026-05-03T11:02:58.348Z</time></trkpt><trkpt lat="45.0054709" lon="8.4736033"><ele>166.0</ele><time>2026-05-03T11:02:59.347Z</time></trkpt><trkpt lat="45.0055415" lon="8.4735408"><ele>166.0</ele><time>2026-05-03T11:03:00.347Z</time></trkpt><trkpt lat="45.0056174" lon="8.4734729"><ele>165.60000000000002</ele><time>2026-05-03T11:03:01.347Z</time></trkpt><trkpt lat="45.0057013" lon="8.4734039"><ele>165.2</ele><time>2026-05-03T11:03:02.347Z</time></trkpt><trkpt lat="45.0057907" lon="8.4733248"><ele>164.8</ele><time>2026-05-03T11:03:03.347Z</time></trkpt><trkpt lat="45.0058801" lon="8.4732467"><ele>164.39999999999998</ele><time>2026-05-03T11:03:04.347Z</time></trkpt><trkpt lat="45.0059738" lon="8.4731723"><ele>164.0</ele><time>2026-05-03T11:03:05.347Z</time></trkpt><trkpt lat="45.006066" lon="8.4730995"><ele>164.0</ele><time>2026-05-03T11:03:06.347Z</time></trkpt><trkpt lat="45.0061591" lon="8.4730336"><ele>164.0</ele><time>2026-05-03T11:03:07.347Z</time></trkpt><trkpt lat="45.0062518" lon="8.4729775"><ele>164.0</ele><time>2026-05-03T11:03:08.347Z</time></trkpt><trkpt lat="45.0063477" lon="8.4729349"><ele>164.0</ele><time>2026-05-03T11:03:09.347Z</time></trkpt><trkpt lat="45.0064464" lon="8.4728956"><ele>164.0</ele><time>2026-05-03T11:03:10.347Z</time></trkpt><trkpt lat="45.0065464" lon="8.4728583"><ele>162.79999999999998</ele><time>2026-05-03T11:03:11.347Z</time></trkpt><trkpt lat="45.0066465" lon="8.4728225"><ele>161.6</ele><time>2026-05-03T11:03:12.347Z</time></trkpt><trkpt lat="45.0067447" lon="8.472784"><ele>160.4</ele><time>2026-05-03T11:03:13.347Z</time></trkpt><trkpt lat="45.0068397" lon="8.4727422"><ele>159.2</ele><time>2026-05-03T11:03:14.348Z</time></trkpt><trkpt lat="45.0069338" lon="8.472695"><ele>158.0</ele><time>2026-05-03T11:03:15.348Z</time></trkpt><trkpt lat="45.007027" lon="8.4726418"><ele>158.0</ele><time>2026-05-03T11:03:16.347Z</time></trkpt><trkpt lat="45.0071193" lon="8.472579"><ele>158.0</ele><time>2026-05-03T11:03:17.347Z</time></trkpt><trkpt lat="45.0072068" lon="8.4725046"><ele>158.0</ele><time>2026-05-03T11:03:18.347Z</time></trkpt><trkpt lat="45.0072916" lon="8.4724196"><ele>158.0</ele><time>2026-05-03T11:03:19.347Z</time></trkpt><trkpt lat="45.0073782" lon="8.4723331"><ele>158.0</ele><time>2026-05-03T11:03:20.347Z</time></trkpt><trkpt lat="45.007467" lon="8.4722511"><ele>157.8</ele><time>2026-05-03T11:03:21.348Z</time></trkpt><trkpt lat="45.0075559" lon="8.4721696"><ele>157.60000000000002</ele><time>2026-05-03T11:03:22.348Z</time></trkpt><trkpt lat="45.007641" lon="8.4720886"><ele>157.39999999999998</ele><time>2026-05-03T11:03:23.348Z</time></trkpt><trkpt lat="45.0077271" lon="8.472005"><ele>157.2</ele><time>2026-05-03T11:03:24.347Z</time></trkpt><trkpt lat="45.0078135" lon="8.4719249"><ele>157.0</ele><time>2026-05-03T11:03:25.347Z</time></trkpt><trkpt lat="45.0078989" lon="8.4718477"><ele>156.0</ele><time>2026-05-03T11:03:26.347Z</time></trkpt><trkpt lat="45.0079834" lon="8.4717702"><ele>155.0</ele><time>2026-05-03T11:03:27.347Z</time></trkpt><trkpt lat="45.0080673" lon="8.4716869"><ele>154.0</ele><time>2026-05-03T11:03:28.347Z</time></trkpt><trkpt lat="45.0081532" lon="8.4716065"><ele>153.0</ele><time>2026-05-03T11:03:29.348Z</time></trkpt><trkpt lat="45.0082452" lon="8.4715289"><ele>152.0</ele><time>2026-05-03T11:03:30.347Z</time></trkpt><trkpt lat="45.0083361" lon="8.4714529"><ele>152.0</ele><time>2026-05-03T11:03:31.347Z</time></trkpt><trkpt lat="45.0084242" lon="8.4713771"><ele>152.0</ele><time>2026-05-03T11:03:32.347Z</time></trkpt><trkpt lat="45.0085096" lon="8.4713017"><ele>152.0</ele><time>2026-05-03T11:03:33.347Z</time></trkpt><trkpt lat="45.008593" lon="8.4712291"><ele>152.0</ele><time>2026-05-03T11:03:34.348Z</time></trkpt><trkpt lat="45.0086783" lon="8.4711593"><ele>152.0</ele><time>2026-05-03T11:03:35.348Z</time></trkpt><trkpt lat="45.0087634" lon="8.4710914"><ele>151.2</ele><time>2026-05-03T11:03:36.348Z</time></trkpt><trkpt lat="45.0088481" lon="8.4710234"><ele>150.39999999999998</ele><time>2026-05-03T11:03:37.347Z</time></trkpt><trkpt lat="45.008934" lon="8.4709546"><ele>149.60000000000002</ele><time>2026-05-03T11:03:38.347Z</time></trkpt><trkpt lat="45.0090215" lon="8.4708863"><ele>148.8</ele><time>2026-05-03T11:03:39.347Z</time></trkpt><trkpt lat="45.0091122" lon="8.4708187"><ele>148.0</ele><time>2026-05-03T11:03:40.347Z</time></trkpt><trkpt lat="45.009202" lon="8.4707504"><ele>148.0</ele><time>2026-05-03T11:03:41.347Z</time></trkpt><trkpt lat="45.0092936" lon="8.4706802"><ele>148.0</ele><time>2026-05-03T11:03:42.347Z</time></trkpt><trkpt lat="45.0093834" lon="8.470609"><ele>148.0</ele><time>2026-05-03T11:03:43.348Z</time></trkpt><trkpt lat="45.0094728" lon="8.4705404"><ele>148.0</ele><time>2026-05-03T11:03:44.349Z</time></trkpt><trkpt lat="45.0095616" lon="8.4704777"><ele>148.0</ele><time>2026-05-03T11:03:45.349Z</time></trkpt><trkpt lat="45.0096507" lon="8.4704164"><ele>147.20000000000002</ele><time>2026-05-03T11:03:46.348Z</time></trkpt><trkpt lat="45.0097406" lon="8.4703533"><ele>146.4</ele><time>2026-05-03T11:03:47.348Z</time></trkpt><trkpt lat="45.0098326" lon="8.4702868"><ele>145.60000000000002</ele><time>2026-05-03T11:03:48.348Z</time></trkpt><trkpt lat="45.0099235" lon="8.4702176"><ele>144.8</ele><time>2026-05-03T11:03:49.348Z</time></trkpt><trkpt lat="45.0100151" lon="8.4701469"><ele>144.0</ele><time>2026-05-03T11:03:50.349Z</time></trkpt><trkpt lat="45.0101071" lon="8.470076"><ele>143.8</ele><time>2026-05-03T11:03:51.348Z</time></trkpt><trkpt lat="45.0102014" lon="8.4700073"><ele>143.60000000000002</ele><time>2026-05-03T11:03:52.348Z</time></trkpt><trkpt lat="45.0102952" lon="8.469939"><ele>143.4</ele><time>2026-05-03T11:03:53.348Z</time></trkpt><trkpt lat="45.0103878" lon="8.4698726"><ele>143.20000000000002</ele><time>2026-05-03T11:03:54.348Z</time></trkpt><trkpt lat="45.0104776" lon="8.4698058"><ele>143.0</ele><time>2026-05-03T11:03:55.348Z</time></trkpt><trkpt lat="45.0105647" lon="8.4697359"><ele>143.0</ele><time>2026-05-03T11:03:56.348Z</time></trkpt><trkpt lat="45.0106523" lon="8.4696645"><ele>143.0</ele><time>2026-05-03T11:03:57.349Z</time></trkpt><trkpt lat="45.010741" lon="8.4695969"><ele>143.0</ele><time>2026-05-03T11:03:58.349Z</time></trkpt><trkpt lat="45.010833" lon="8.4695338"><ele>143.0</ele><time>2026-05-03T11:03:59.348Z</time></trkpt><trkpt lat="45.010925" lon="8.4694701"><ele>143.0</ele><time>2026-05-03T11:04:00.349Z</time></trkpt><trkpt lat="45.0110169" lon="8.4694057"><ele>142.6</ele><time>2026-05-03T11:04:01.348Z</time></trkpt><trkpt lat="45.0111098" lon="8.4693406"><ele>142.20000000000002</ele><time>2026-05-03T11:04:02.349Z</time></trkpt><trkpt lat="45.0112013" lon="8.4692732"><ele>141.8</ele><time>2026-05-03T11:04:03.348Z</time></trkpt><trkpt lat="45.0112917" lon="8.4692071"><ele>141.4</ele><time>2026-05-03T11:04:04.348Z</time></trkpt><trkpt lat="45.0113797" lon="8.4691412"><ele>141.0</ele><time>2026-05-03T11:04:05.348Z</time></trkpt><trkpt lat="45.0114674" lon="8.4690727"><ele>141.0</ele><time>2026-05-03T11:04:06.349Z</time></trkpt><trkpt lat="45.0115545" lon="8.4689989"><ele>141.0</ele><time>2026-05-03T11:04:07.348Z</time></trkpt><trkpt lat="45.0116378" lon="8.468915"><ele>141.0</ele><time>2026-05-03T11:04:08.348Z</time></trkpt><trkpt lat="45.0117148" lon="8.4688174"><ele>141.0</ele><time>2026-05-03T11:04:09.348Z</time></trkpt><trkpt lat="45.0117858" lon="8.4687094"><ele>141.0</ele><time>2026-05-03T11:04:10.348Z</time></trkpt><trkpt lat="45.0118527" lon="8.4685971"><ele>139.8</ele><time>2026-05-03T11:04:11.349Z</time></trkpt><trkpt lat="45.0119173" lon="8.4684875"><ele>138.6</ele><time>2026-05-03T11:04:12.349Z</time></trkpt><trkpt lat="45.0119818" lon="8.4683812"><ele>137.4</ele><time>2026-05-03T11:04:13.348Z</time></trkpt><trkpt lat="45.0120476" lon="8.4682737"><ele>136.2</ele><time>2026-05-03T11:04:14.349Z</time></trkpt><trkpt lat="45.0121102" lon="8.4681639"><ele>135.0</ele><time>2026-05-03T11:04:15.348Z</time></trkpt><trkpt lat="45.0121725" lon="8.4680557"><ele>135.0</ele><time>2026-05-03T11:04:16.349Z</time></trkpt><trkpt lat="45.0122355" lon="8.4679501"><ele>135.0</ele><time>2026-05-03T11:04:17.348Z</time></trkpt><trkpt lat="45.0122985" lon="8.4678448"><ele>135.0</ele><time>2026-05-03T11:04:18.348Z</time></trkpt><trkpt lat="45.0123627" lon="8.4677394"><ele>135.0</ele><time>2026-05-03T11:04:19.348Z</time></trkpt><trkpt lat="45.0124255" lon="8.4676338"><ele>135.0</ele><time>2026-05-03T11:04:20.348Z</time></trkpt><trkpt lat="45.0124876" lon="8.4675284"><ele>134.6</ele><time>2026-05-03T11:04:21.348Z</time></trkpt><trkpt lat="45.0125508" lon="8.4674244"><ele>134.2</ele><time>2026-05-03T11:04:22.348Z</time></trkpt><trkpt lat="45.0126138" lon="8.4673203"><ele>133.8</ele><time>2026-05-03T11:04:23.348Z</time></trkpt><trkpt lat="45.0126761" lon="8.4672173"><ele>133.4</ele><time>2026-05-03T11:04:24.349Z</time></trkpt><trkpt lat="45.0127382" lon="8.4671157"><ele>133.0</ele><time>2026-05-03T11:04:25.348Z</time></trkpt><trkpt lat="45.0127995" lon="8.4670112"><ele>133.0</ele><time>2026-05-03T11:04:26.349Z</time></trkpt><trkpt lat="45.0128606" lon="8.4669064"><ele>133.0</ele><time>2026-05-03T11:04:27.348Z</time></trkpt><trkpt lat="45.0129195" lon="8.4668066"><ele>133.0</ele><time>2026-05-03T11:04:28.348Z</time></trkpt><trkpt lat="45.0129792" lon="8.4667076"><ele>133.0</ele><time>2026-05-03T11:04:29.348Z</time></trkpt><trkpt lat="45.0130391" lon="8.4666092"><ele>133.0</ele><time>2026-05-03T11:04:30.348Z</time></trkpt><trkpt lat="45.0130978" lon="8.4665077"><ele>133.0</ele><time>2026-05-03T11:04:31.348Z</time></trkpt><trkpt lat="45.0131552" lon="8.4664047"><ele>133.0</ele><time>2026-05-03T11:04:32.35Z</time></trkpt><trkpt lat="45.0132123" lon="8.4663058"><ele>133.0</ele><time>2026-05-03T11:04:33.348Z</time></trkpt><trkpt lat="45.0132749" lon="8.4662081"><ele>133.0</ele><time>2026-05-03T11:04:34.35Z</time></trkpt><trkpt lat="45.0133372" lon="8.4661117"><ele>133.0</ele><time>2026-05-03T11:04:35.35Z</time></trkpt><trkpt lat="45.0133984" lon="8.4660121"><ele>132.4</ele><time>2026-05-03T11:04:36.349Z</time></trkpt><trkpt lat="45.0134632" lon="8.4659081"><ele>131.8</ele><time>2026-05-03T11:04:37.35Z</time></trkpt><trkpt lat="45.0135304" lon="8.4658011"><ele>131.2</ele><time>2026-05-03T11:04:38.349Z</time></trkpt><trkpt lat="45.0135957" lon="8.4656994"><ele>130.6</ele><time>2026-05-03T11:04:39.35Z</time></trkpt><trkpt lat="45.0136632" lon="8.4655952"><ele>130.0</ele><time>2026-05-03T11:04:40.349Z</time></trkpt><trkpt lat="45.0137258" lon="8.4654956"><ele>129.4</ele><time>2026-05-03T11:04:41.35Z</time></trkpt><trkpt lat="45.0137851" lon="8.4653968"><ele>128.8</ele><time>2026-05-03T11:04:42.349Z</time></trkpt><trkpt lat="45.0138428" lon="8.4652977"><ele>128.2</ele><time>2026-05-03T11:04:43.35Z</time></trkpt><trkpt lat="45.0139004" lon="8.4651954"><ele>127.6</ele><time>2026-05-03T11:04:44.349Z</time></trkpt><trkpt lat="45.0139602" lon="8.4650892"><ele>127.0</ele><time>2026-05-03T11:04:45.35Z</time></trkpt><trkpt lat="45.0140209" lon="8.4649818"><ele>127.0</ele><time>2026-05-03T11:04:46.349Z</time></trkpt><trkpt lat="45.0140823" lon="8.4648776"><ele>126.99999999999999</ele><time>2026-05-03T11:04:47.35Z</time></trkpt><trkpt lat="45.0141421" lon="8.4647772"><ele>126.99999999999999</ele><time>2026-05-03T11:04:48.35Z</time></trkpt><trkpt lat="45.0142021" lon="8.4646765"><ele>127.0</ele><time>2026-05-03T11:04:49.349Z</time></trkpt><trkpt lat="45.0142603" lon="8.4645757"><ele>127.0</ele><time>2026-05-03T11:04:50.349Z</time></trkpt><trkpt lat="45.0143193" lon="8.4644756"><ele>127.39999999999999</ele><time>2026-05-03T11:04:51.349Z</time></trkpt><trkpt lat="45.014382" lon="8.4643726"><ele>127.79999999999998</ele><time>2026-05-03T11:04:52.35Z</time></trkpt><trkpt lat="45.0144432" lon="8.4642724"><ele>128.2</ele><time>2026-05-03T11:04:53.349Z</time></trkpt><trkpt lat="45.0145043" lon="8.4641702"><ele>128.6</ele><time>2026-05-03T11:04:54.35Z</time></trkpt><trkpt lat="45.0145624" lon="8.4640661"><ele>129.0</ele><time>2026-05-03T11:04:55.349Z</time></trkpt><trkpt lat="45.0146198" lon="8.4639652"><ele>129.0</ele><time>2026-05-03T11:04:56.35Z</time></trkpt><trkpt lat="45.0146812" lon="8.4638611"><ele>129.0</ele><time>2026-05-03T11:04:57.349Z</time></trkpt><trkpt lat="45.014744" lon="8.4637613"><ele>129.0</ele><time>2026-05-03T11:04:58.349Z</time></trkpt><trkpt lat="45.0148079" lon="8.4636627"><ele>129.0</ele><time>2026-05-03T11:04:59.35Z</time></trkpt><trkpt lat="45.014869" lon="8.4635605"><ele>129.0</ele><time>2026-05-03T11:05:00.349Z</time></trkpt><trkpt lat="45.0149282" lon="8.4634551"><ele>129.2</ele><time>2026-05-03T11:05:01.35Z</time></trkpt><trkpt lat="45.0149863" lon="8.4633546"><ele>129.4</ele><time>2026-05-03T11:05:02.349Z</time></trkpt><trkpt lat="45.0150448" lon="8.4632561"><ele>129.6</ele><time>2026-05-03T11:05:03.349Z</time></trkpt><trkpt lat="45.0151061" lon="8.4631608"><ele>129.8</ele><time>2026-05-03T11:05:04.349Z</time></trkpt><trkpt lat="45.0151681" lon="8.4630657"><ele>130.0</ele><time>2026-05-03T11:05:05.349Z</time></trkpt><trkpt lat="45.0152288" lon="8.4629689"><ele>130.83333333333334</ele><time>2026-05-03T11:05:06.349Z</time></trkpt><trkpt lat="45.0152878" lon="8.4628714"><ele>131.66666666666669</ele><time>2026-05-03T11:05:07.349Z</time></trkpt><trkpt lat="45.0153457" lon="8.462773"><ele>132.5</ele><time>2026-05-03T11:05:08.349Z</time></trkpt><trkpt lat="45.0154018" lon="8.4626772"><ele>133.33333333333334</ele><time>2026-05-03T11:05:09.349Z</time></trkpt><trkpt lat="45.0154589" lon="8.4625784"><ele>134.16666666666666</ele><time>2026-05-03T11:05:10.35Z</time></trkpt><trkpt lat="45.0155145" lon="8.4624794"><ele>135.0</ele><time>2026-05-03T11:05:11.35Z</time></trkpt><trkpt lat="45.0155718" lon="8.4623833"><ele>135.0</ele><time>2026-05-03T11:05:12.35Z</time></trkpt><trkpt lat="45.015629" lon="8.4622892"><ele>135.0</ele><time>2026-05-03T11:05:13.35Z</time></trkpt><trkpt lat="45.0156812" lon="8.4621952"><ele>135.0</ele><time>2026-05-03T11:05:14.35Z</time></trkpt><trkpt lat="45.0157232" lon="8.4620977"><ele>135.0</ele><time>2026-05-03T11:05:15.35Z</time></trkpt><trkpt lat="45.015751" lon="8.461992"><ele>135.0</ele><time>2026-05-03T11:05:16.349Z</time></trkpt><trkpt lat="45.0157602" lon="8.4618806"><ele>135.0</ele><time>2026-05-03T11:05:17.35Z</time></trkpt><trkpt lat="45.0157519" lon="8.4617732"><ele>136.16666666666666</ele><time>2026-05-03T11:05:18.349Z</time></trkpt><trkpt lat="45.0157274" lon="8.4616755"><ele>137.33333333333334</ele><time>2026-05-03T11:05:19.35Z</time></trkpt><trkpt lat="45.0156878" lon="8.461586"><ele>138.5</ele><time>2026-05-03T11:05:20.35Z</time></trkpt><trkpt lat="45.0156391" lon="8.4615123"><ele>139.66666666666669</ele><time>2026-05-03T11:05:21.349Z</time></trkpt><trkpt lat="45.0155879" lon="8.461452"><ele>140.83333333333334</ele><time>2026-05-03T11:05:22.35Z</time></trkpt><trkpt lat="45.0154813" lon="8.4613659"><ele>142.0</ele><time>2026-05-03T11:05:24.35Z</time></trkpt><trkpt lat="45.0153848" lon="8.4612688"><ele>143.5</ele><time>2026-05-03T11:05:26.35Z</time></trkpt><trkpt lat="45.0153324" lon="8.4611957"><ele>145.0</ele><time>2026-05-03T11:05:27.35Z</time></trkpt><trkpt lat="45.0152517" lon="8.4610523"><ele>146.5</ele><time>2026-05-03T11:05:29.35Z</time></trkpt><trkpt lat="45.0152238" lon="8.4609662"><ele>148.0</ele><time>2026-05-03T11:05:30.35Z</time></trkpt><trkpt lat="45.0152102" lon="8.4608766"><ele>149.5</ele><time>2026-05-03T11:05:31.35Z</time></trkpt><trkpt lat="45.0152073" lon="8.4607809"><ele>151.0</ele><time>2026-05-03T11:05:32.351Z</time></trkpt><trkpt lat="45.0152164" lon="8.4606865"><ele>151.0</ele><time>2026-05-03T11:05:33.35Z</time></trkpt><trkpt lat="45.0152636" lon="8.4605224"><ele>151.0</ele><time>2026-05-03T11:05:35.35Z</time></trkpt><trkpt lat="45.0153025" lon="8.4604471"><ele>151.0</ele><time>2026-05-03T11:05:36.351Z</time></trkpt><trkpt lat="45.0153509" lon="8.4603748"><ele>151.0</ele><time>2026-05-03T11:05:37.35Z</time></trkpt><trkpt lat="45.0154054" lon="8.4603118"><ele>151.0</ele><time>2026-05-03T11:05:38.351Z</time></trkpt><trkpt lat="45.0154697" lon="8.4602632"><ele>151.0</ele><time>2026-05-03T11:05:39.351Z</time></trkpt><trkpt lat="45.0155426" lon="8.4602284"><ele>151.16666666666669</ele><time>2026-05-03T11:05:40.35Z</time></trkpt><trkpt lat="45.0156198" lon="8.4602104"><ele>151.33333333333334</ele><time>2026-05-03T11:05:41.35Z</time></trkpt><trkpt lat="45.0157028" lon="8.4602046"><ele>151.5</ele><time>2026-05-03T11:05:42.35Z</time></trkpt><trkpt lat="45.0157842" lon="8.4602024"><ele>151.66666666666666</ele><time>2026-05-03T11:05:43.351Z</time></trkpt><trkpt lat="45.0158646" lon="8.4601951"><ele>151.83333333333331</ele><time>2026-05-03T11:05:44.351Z</time></trkpt><trkpt lat="45.0159417" lon="8.4601804"><ele>152.0</ele><time>2026-05-03T11:05:45.351Z</time></trkpt><trkpt lat="45.0160186" lon="8.4601577"><ele>153.5</ele><time>2026-05-03T11:05:46.35Z</time></trkpt><trkpt lat="45.0160957" lon="8.4601339"><ele>155.0</ele><time>2026-05-03T11:05:47.351Z</time></trkpt><trkpt lat="45.0161727" lon="8.4601115"><ele>156.5</ele><time>2026-05-03T11:05:48.35Z</time></trkpt><trkpt lat="45.0162479" lon="8.4600954"><ele>158.0</ele><time>2026-05-03T11:05:49.35Z</time></trkpt><trkpt lat="45.0163197" lon="8.4600841"><ele>159.5</ele><time>2026-05-03T11:05:50.35Z</time></trkpt><trkpt lat="45.0163943" lon="8.4600685"><ele>161.0</ele><time>2026-05-03T11:05:51.35Z</time></trkpt><trkpt lat="45.016471" lon="8.4600453"><ele>161.0</ele><time>2026-05-03T11:05:52.35Z</time></trkpt><trkpt lat="45.0165455" lon="8.4600324"><ele>161.0</ele><time>2026-05-03T11:05:53.351Z</time></trkpt><trkpt lat="45.0166218" lon="8.4600171"><ele>161.0</ele><time>2026-05-03T11:05:54.35Z</time></trkpt><trkpt lat="45.0166968" lon="8.4599936"><ele>161.0</ele><time>2026-05-03T11:05:55.35Z</time></trkpt><trkpt lat="45.0167687" lon="8.4599669"><ele>161.0</ele><time>2026-05-03T11:05:56.35Z</time></trkpt><trkpt lat="45.0168369" lon="8.459933"><ele>161.0</ele><time>2026-05-03T11:05:57.35Z</time></trkpt><trkpt lat="45.0168985" lon="8.4598853"><ele>161.0</ele><time>2026-05-03T11:05:58.35Z</time></trkpt><trkpt lat="45.0169536" lon="8.4598232"><ele>161.66666666666666</ele><time>2026-05-03T11:05:59.35Z</time></trkpt><trkpt lat="45.0170042" lon="8.4597543"><ele>162.33333333333331</ele><time>2026-05-03T11:06:00.351Z</time></trkpt><trkpt lat="45.0170503" lon="8.4596831"><ele>163.0</ele><time>2026-05-03T11:06:01.35Z</time></trkpt><trkpt lat="45.017092" lon="8.4596114"><ele>163.66666666666666</ele><time>2026-05-03T11:06:02.35Z</time></trkpt><trkpt lat="45.0171309" lon="8.4595382"><ele>164.33333333333334</ele><time>2026-05-03T11:06:03.351Z</time></trkpt><trkpt lat="45.0171691" lon="8.459467"><ele>165.0</ele><time>2026-05-03T11:06:04.35Z</time></trkpt><trkpt lat="45.0172378" lon="8.4593292"><ele>165.0</ele><time>2026-05-03T11:06:06.35Z</time></trkpt><trkpt lat="45.0172974" lon="8.4591786"><ele>165.0</ele><time>2026-05-03T11:06:08.351Z</time></trkpt><trkpt lat="45.0173528" lon="8.4590176"><ele>165.0</ele><time>2026-05-03T11:06:10.351Z</time></trkpt><trkpt lat="45.0173771" lon="8.4589314"><ele>165.0</ele><time>2026-05-03T11:06:11.352Z</time></trkpt><trkpt lat="45.017399" lon="8.4588434"><ele>165.0</ele><time>2026-05-03T11:06:12.351Z</time></trkpt><trkpt lat="45.0174212" lon="8.4587581"><ele>165.0</ele><time>2026-05-03T11:06:13.351Z</time></trkpt><trkpt lat="45.0174613" lon="8.4585941"><ele>167.83333333333334</ele><time>2026-05-03T11:06:15.351Z</time></trkpt><trkpt lat="45.0175076" lon="8.458426"><ele>170.66666666666666</ele><time>2026-05-03T11:06:17.352Z</time></trkpt><trkpt lat="45.0175291" lon="8.458339"><ele>173.5</ele><time>2026-05-03T11:06:18.351Z</time></trkpt><trkpt lat="45.0175496" lon="8.4582411"><ele>176.33333333333331</ele><time>2026-05-03T11:06:19.351Z</time></trkpt><trkpt lat="45.0175724" lon="8.4581491"><ele>179.16666666666666</ele><time>2026-05-03T11:06:20.352Z</time></trkpt><trkpt lat="45.0175962" lon="8.4580556"><ele>182.0</ele><time>2026-05-03T11:06:21.351Z</time></trkpt><trkpt lat="45.0176152" lon="8.4579582"><ele>182.42857142857142</ele><time>2026-05-03T11:06:22.352Z</time></trkpt><trkpt lat="45.0176227" lon="8.4578559"><ele>182.85714285714286</ele><time>2026-05-03T11:06:23.352Z</time></trkpt><trkpt lat="45.0176205" lon="8.4577506"><ele>183.28571428571428</ele><time>2026-05-03T11:06:24.351Z</time></trkpt><trkpt lat="45.0176123" lon="8.457644"><ele>183.71428571428572</ele><time>2026-05-03T11:06:25.351Z</time></trkpt><trkpt lat="45.0176007" lon="8.4575367"><ele>184.14285714285714</ele><time>2026-05-03T11:06:26.351Z</time></trkpt><trkpt lat="45.0175862" lon="8.4574319"><ele>184.57142857142856</ele><time>2026-05-03T11:06:27.352Z</time></trkpt><trkpt lat="45.0175702" lon="8.4573318"><ele>185.0</ele><time>2026-05-03T11:06:28.351Z</time></trkpt><trkpt lat="45.0175565" lon="8.4572334"><ele>185.0</ele><time>2026-05-03T11:06:29.352Z</time></trkpt><trkpt lat="45.0175491" lon="8.4571371"><ele>185.0</ele><time>2026-05-03T11:06:30.351Z</time></trkpt><trkpt lat="45.0175491" lon="8.4570468"><ele>185.0</ele><time>2026-05-03T11:06:31.352Z</time></trkpt><trkpt lat="45.0175599" lon="8.4568682"><ele>185.0</ele><time>2026-05-03T11:06:33.352Z</time></trkpt><trkpt lat="45.0175678" lon="8.4567788"><ele>185.0</ele><time>2026-05-03T11:06:34.351Z</time></trkpt><trkpt lat="45.0175774" lon="8.456688"><ele>185.0</ele><time>2026-05-03T11:06:35.351Z</time></trkpt><trkpt lat="45.0175887" lon="8.4566001"><ele>186.0</ele><time>2026-05-03T11:06:36.351Z</time></trkpt><trkpt lat="45.0176008" lon="8.4565097"><ele>187.0</ele><time>2026-05-03T11:06:37.352Z</time></trkpt><trkpt lat="45.0176376" lon="8.45637"><ele>188.0</ele><time>2026-05-03T11:06:39.351Z</time></trkpt><trkpt lat="45.0177207" lon="8.4563521"><ele>189.0</ele><time>2026-05-03T11:06:41.351Z</time></trkpt><trkpt lat="45.0177796" lon="8.4564094"><ele>190.0</ele><time>2026-05-03T11:06:42.351Z</time></trkpt><trkpt lat="45.0178141" lon="8.4565069"><ele>191.0</ele><time>2026-05-03T11:06:43.352Z</time></trkpt><trkpt lat="45.0178302" lon="8.4566159"><ele>191.0</ele><time>2026-05-03T11:06:44.352Z</time></trkpt><trkpt lat="45.0178284" lon="8.4567188"><ele>191.0</ele><time>2026-05-03T11:06:45.351Z</time></trkpt><trkpt lat="45.0178217" lon="8.4568153"><ele>191.0</ele><time>2026-05-03T11:06:46.351Z</time></trkpt><trkpt lat="45.0178207" lon="8.4569143"><ele>191.0</ele><time>2026-05-03T11:06:47.351Z</time></trkpt><trkpt lat="45.0178195" lon="8.4570084"><ele>191.0</ele><time>2026-05-03T11:06:48.351Z</time></trkpt><trkpt lat="45.0178288" lon="8.4571058"><ele>191.0</ele><time>2026-05-03T11:06:49.352Z</time></trkpt><trkpt lat="45.0178546" lon="8.4571921"><ele>191.0</ele><time>2026-05-03T11:06:50.351Z</time></trkpt><trkpt lat="45.0178985" lon="8.4572723"><ele>190.0</ele><time>2026-05-03T11:06:51.351Z</time></trkpt><trkpt lat="45.017957" lon="8.4573528"><ele>189.0</ele><time>2026-05-03T11:06:52.351Z</time></trkpt><trkpt lat="45.0180251" lon="8.4574318"><ele>188.0</ele><time>2026-05-03T11:06:53.351Z</time></trkpt><trkpt lat="45.0180918" lon="8.4575095"><ele>187.0</ele><time>2026-05-03T11:06:54.351Z</time></trkpt><trkpt lat="45.0181533" lon="8.4575926"><ele>186.0</ele><time>2026-05-03T11:06:55.351Z</time></trkpt><trkpt lat="45.0182091" lon="8.4576836"><ele>185.0</ele><time>2026-05-03T11:06:56.351Z</time></trkpt><trkpt lat="45.0182593" lon="8.4577806"><ele>185.0</ele><time>2026-05-03T11:06:57.351Z</time></trkpt><trkpt lat="45.0183037" lon="8.4578804"><ele>185.0</ele><time>2026-05-03T11:06:58.352Z</time></trkpt><trkpt lat="45.0183415" lon="8.4579827"><ele>185.0</ele><time>2026-05-03T11:06:59.351Z</time></trkpt><trkpt lat="45.0183716" lon="8.4580871"><ele>185.0</ele><time>2026-05-03T11:07:00.352Z</time></trkpt><trkpt lat="45.0183975" lon="8.458194"><ele>185.0</ele><time>2026-05-03T11:07:01.352Z</time></trkpt><trkpt lat="45.0184279" lon="8.4583004"><ele>185.0</ele><time>2026-05-03T11:07:02.352Z</time></trkpt><trkpt lat="45.0184692" lon="8.4583994"><ele>188.0</ele><time>2026-05-03T11:07:03.353Z</time></trkpt><trkpt lat="45.0185259" lon="8.4584866"><ele>191.0</ele><time>2026-05-03T11:07:04.352Z</time></trkpt><trkpt lat="45.018594" lon="8.4585548"><ele>194.0</ele><time>2026-05-03T11:07:05.352Z</time></trkpt><trkpt lat="45.018667" lon="8.458611"><ele>197.0</ele><time>2026-05-03T11:07:06.352Z</time></trkpt><trkpt lat="45.0187384" lon="8.4586635"><ele>200.00000000000003</ele><time>2026-05-03T11:07:07.352Z</time></trkpt><trkpt lat="45.0188103" lon="8.4587164"><ele>203.0</ele><time>2026-05-03T11:07:08.352Z</time></trkpt><trkpt lat="45.0188849" lon="8.4587722"><ele>201.60000000000002</ele><time>2026-05-03T11:07:09.353Z</time></trkpt><trkpt lat="45.0189601" lon="8.4588271"><ele>200.20000000000002</ele><time>2026-05-03T11:07:10.352Z</time></trkpt><trkpt lat="45.0190263" lon="8.4588793"><ele>198.8</ele><time>2026-05-03T11:07:11.352Z</time></trkpt><trkpt lat="45.0191355" lon="8.4589194"><ele>197.4</ele><time>2026-05-03T11:07:13.352Z</time></trkpt><trkpt lat="45.0192204" lon="8.4588163"><ele>196.0</ele><time>2026-05-03T11:07:15.353Z</time></trkpt><trkpt lat="45.0192336" lon="8.4587126"><ele>197.0</ele><time>2026-05-03T11:07:16.353Z</time></trkpt><trkpt lat="45.0192089" lon="8.4586163"><ele>198.0</ele><time>2026-05-03T11:07:17.352Z</time></trkpt><trkpt lat="45.0191606" lon="8.4585371"><ele>199.0</ele><time>2026-05-03T11:07:18.352Z</time></trkpt><trkpt lat="45.0190948" lon="8.4584808"><ele>200.0</ele><time>2026-05-03T11:07:19.353Z</time></trkpt><trkpt lat="45.0190322" lon="8.4584336"><ele>201.0</ele><time>2026-05-03T11:07:20.353Z</time></trkpt><trkpt lat="45.0189584" lon="8.458379"><ele>202.0</ele><time>2026-05-03T11:07:21.352Z</time></trkpt><trkpt lat="45.0189157" lon="8.4583041"><ele>203.0</ele><time>2026-05-03T11:07:22.353Z</time></trkpt><trkpt lat="45.0188813" lon="8.458211"><ele>203.0</ele><time>2026-05-03T11:07:23.352Z</time></trkpt><trkpt lat="45.0188552" lon="8.4581014"><ele>203.0</ele><time>2026-05-03T11:07:24.352Z</time></trkpt><trkpt lat="45.0188302" lon="8.4580022"><ele>203.0</ele><time>2026-05-03T11:07:25.352Z</time></trkpt><trkpt lat="45.0188048" lon="8.4579075"><ele>203.0</ele><time>2026-05-03T11:07:26.353Z</time></trkpt><trkpt lat="45.0187827" lon="8.4578137"><ele>203.0</ele><time>2026-05-03T11:07:27.352Z</time></trkpt><trkpt lat="45.0187654" lon="8.4577159"><ele>203.0</ele><time>2026-05-03T11:07:28.352Z</time></trkpt><trkpt lat="45.0187569" lon="8.4576134"><ele>203.0</ele><time>2026-05-03T11:07:29.353Z</time></trkpt><trkpt lat="45.0187581" lon="8.4575078"><ele>204.0</ele><time>2026-05-03T11:07:30.352Z</time></trkpt><trkpt lat="45.0187657" lon="8.4574036"><ele>205.0</ele><time>2026-05-03T11:07:31.353Z</time></trkpt><trkpt lat="45.0187781" lon="8.4573061"><ele>206.0</ele><time>2026-05-03T11:07:32.353Z</time></trkpt><trkpt lat="45.0187889" lon="8.4572088"><ele>207.0</ele><time>2026-05-03T11:07:33.352Z</time></trkpt><trkpt lat="45.0187996" lon="8.4571136"><ele>208.0</ele><time>2026-05-03T11:07:34.353Z</time></trkpt><trkpt lat="45.0188111" lon="8.457019"><ele>209.0</ele><time>2026-05-03T11:07:35.353Z</time></trkpt><trkpt lat="45.0188209" lon="8.4569266"><ele>210.0</ele><time>2026-05-03T11:07:36.352Z</time></trkpt><trkpt lat="45.0188307" lon="8.4568364"><ele>210.57142857142858</ele><time>2026-05-03T11:07:37.352Z</time></trkpt><trkpt lat="45.0188395" lon="8.4567463"><ele>211.14285714285714</ele><time>2026-05-03T11:07:38.352Z</time></trkpt><trkpt lat="45.0188447" lon="8.4566495"><ele>211.71428571428572</ele><time>2026-05-03T11:07:39.352Z</time></trkpt><trkpt lat="45.0188486" lon="8.4565422"><ele>212.28571428571428</ele><time>2026-05-03T11:07:40.352Z</time></trkpt><trkpt lat="45.0188555" lon="8.4564341"><ele>212.85714285714286</ele><time>2026-05-03T11:07:41.353Z</time></trkpt><trkpt lat="45.0188605" lon="8.4563157"><ele>213.42857142857144</ele><time>2026-05-03T11:07:42.353Z</time></trkpt><trkpt lat="45.0188744" lon="8.4562182"><ele>214.0</ele><time>2026-05-03T11:07:43.352Z</time></trkpt><trkpt lat="45.0189098" lon="8.4560734"><ele>214.6</ele><time>2026-05-03T11:07:45.352Z</time></trkpt><trkpt lat="45.0189558" lon="8.4559482"><ele>215.2</ele><time>2026-05-03T11:07:47.352Z</time></trkpt><trkpt lat="45.0190125" lon="8.4557913"><ele>215.79999999999998</ele><time>2026-05-03T11:07:49.353Z</time></trkpt><trkpt lat="45.0190728" lon="8.4556256"><ele>216.39999999999998</ele><time>2026-05-03T11:07:51.354Z</time></trkpt><trkpt lat="45.0191059" lon="8.455543"><ele>217.0</ele><time>2026-05-03T11:07:52.353Z</time></trkpt><trkpt lat="45.0191423" lon="8.4554639"><ele>219.16666666666666</ele><time>2026-05-03T11:07:53.354Z</time></trkpt><trkpt lat="45.0191938" lon="8.4553987"><ele>221.33333333333331</ele><time>2026-05-03T11:07:54.354Z</time></trkpt><trkpt lat="45.0192554" lon="8.4553462"><ele>223.5</ele><time>2026-05-03T11:07:55.353Z</time></trkpt><trkpt lat="45.0193257" lon="8.4553027"><ele>225.66666666666669</ele><time>2026-05-03T11:07:56.353Z</time></trkpt><trkpt lat="45.0194043" lon="8.4552721"><ele>227.83333333333334</ele><time>2026-05-03T11:07:57.353Z</time></trkpt><trkpt lat="45.0194829" lon="8.4552464"><ele>230.0</ele><time>2026-05-03T11:07:58.353Z</time></trkpt><trkpt lat="45.0195661" lon="8.4552241"><ele>229.99999999999997</ele><time>2026-05-03T11:07:59.354Z</time></trkpt><trkpt lat="45.0196465" lon="8.4551986"><ele>230.0</ele><time>2026-05-03T11:08:00.354Z</time></trkpt><trkpt lat="45.019726" lon="8.4551702"><ele>229.99999999999997</ele><time>2026-05-03T11:08:01.353Z</time></trkpt><trkpt lat="45.0197924" lon="8.4551347"><ele>229.99999999999997</ele><time>2026-05-03T11:08:02.354Z</time></trkpt><trkpt lat="45.019861" lon="8.4550996"><ele>230.0</ele><time>2026-05-03T11:08:03.353Z</time></trkpt><trkpt lat="45.0199227" lon="8.4550682"><ele>229.99999999999997</ele><time>2026-05-03T11:08:04.353Z</time></trkpt><trkpt lat="45.01998" lon="8.4550312"><ele>229.99999999999997</ele><time>2026-05-03T11:08:05.353Z</time></trkpt><trkpt lat="45.0201114" lon="8.4549745"><ele>231.83333333333334</ele><time>2026-05-03T11:08:07.353Z</time></trkpt><trkpt lat="45.0201895" lon="8.4549567"><ele>233.66666666666669</ele><time>2026-05-03T11:08:08.353Z</time></trkpt><trkpt lat="45.0202645" lon="8.4549463"><ele>235.5</ele><time>2026-05-03T11:08:09.354Z</time></trkpt><trkpt lat="45.0203363" lon="8.4549245"><ele>237.33333333333331</ele><time>2026-05-03T11:08:10.353Z</time></trkpt><trkpt lat="45.0204082" lon="8.454898"><ele>239.16666666666666</ele><time>2026-05-03T11:08:11.353Z</time></trkpt><trkpt lat="45.020476" lon="8.454871"><ele>241.0</ele><time>2026-05-03T11:08:12.353Z</time></trkpt><trkpt lat="45.0205728" lon="8.4548153"><ele>241.0</ele><time>2026-05-03T11:08:14.353Z</time></trkpt><trkpt lat="45.0206626" lon="8.454754"><ele>241.00000000000003</ele><time>2026-05-03T11:08:16.354Z</time></trkpt><trkpt lat="45.0207651" lon="8.4546958"><ele>241.00000000000003</ele><time>2026-05-03T11:08:18.353Z</time></trkpt><trkpt lat="45.0208339" lon="8.4546656"><ele>241.0</ele><time>2026-05-03T11:08:20.353Z</time></trkpt><trkpt lat="45.020952" lon="8.4546495"><ele>241.0</ele><time>2026-05-03T11:08:23.353Z</time></trkpt><trkpt lat="45.0210624" lon="8.454577"><ele>241.33333333333331</ele><time>2026-05-03T11:08:25.353Z</time></trkpt><trkpt lat="45.0211267" lon="8.4545456"><ele>241.66666666666666</ele><time>2026-05-03T11:08:26.353Z</time></trkpt><trkpt lat="45.0211873" lon="8.4545167"><ele>242.0</ele><time>2026-05-03T11:08:27.354Z</time></trkpt><trkpt lat="45.0212586" lon="8.4544766"><ele>242.33333333333331</ele><time>2026-05-03T11:08:28.353Z</time></trkpt><trkpt lat="45.0213351" lon="8.4544439"><ele>242.66666666666666</ele><time>2026-05-03T11:08:29.353Z</time></trkpt><trkpt lat="45.0214155" lon="8.4544156"><ele>243.0</ele><time>2026-05-03T11:08:30.353Z</time></trkpt><trkpt lat="45.0214912" lon="8.4543789"><ele>243.0</ele><time>2026-05-03T11:08:31.354Z</time></trkpt><trkpt lat="45.0215549" lon="8.4543436"><ele>243.0</ele><time>2026-05-03T11:08:32.354Z</time></trkpt><trkpt lat="45.0216167" lon="8.4543068"><ele>243.0</ele><time>2026-05-03T11:08:33.353Z</time></trkpt><trkpt lat="45.0216834" lon="8.4542557"><ele>243.0</ele><time>2026-05-03T11:08:34.353Z</time></trkpt><trkpt lat="45.0217515" lon="8.4542038"><ele>243.0</ele><time>2026-05-03T11:08:35.354Z</time></trkpt><trkpt lat="45.0218151" lon="8.4541525"><ele>243.0</ele><time>2026-05-03T11:08:36.354Z</time></trkpt><trkpt lat="45.021887" lon="8.4541092"><ele>243.0</ele><time>2026-05-03T11:08:37.354Z</time></trkpt><trkpt lat="45.0219542" lon="8.454081"><ele>242.5</ele><time>2026-05-03T11:08:38.354Z</time></trkpt><trkpt lat="45.022022" lon="8.454079"><ele>242.0</ele><time>2026-05-03T11:08:39.355Z</time></trkpt><trkpt lat="45.0220959" lon="8.4541082"><ele>241.5</ele><time>2026-05-03T11:08:40.355Z</time></trkpt><trkpt lat="45.0221659" lon="8.4541569"><ele>241.0</ele><time>2026-05-03T11:08:41.355Z</time></trkpt><trkpt lat="45.0222387" lon="8.454215"><ele>240.5</ele><time>2026-05-03T11:08:42.354Z</time></trkpt><trkpt lat="45.0223117" lon="8.4542812"><ele>240.0</ele><time>2026-05-03T11:08:43.355Z</time></trkpt><trkpt lat="45.0223876" lon="8.4543618"><ele>240.0</ele><time>2026-05-03T11:08:44.354Z</time></trkpt><trkpt lat="45.0224655" lon="8.4544301"><ele>240.0</ele><time>2026-05-03T11:08:45.355Z</time></trkpt><trkpt lat="45.0225459" lon="8.4545121"><ele>240.0</ele><time>2026-05-03T11:08:46.354Z</time></trkpt><trkpt lat="45.0226373" lon="8.4545937"><ele>240.0</ele><time>2026-05-03T11:08:47.354Z</time></trkpt><trkpt lat="45.022722" lon="8.4546705"><ele>240.0</ele><time>2026-05-03T11:08:48.354Z</time></trkpt><trkpt lat="45.0228047" lon="8.4547345"><ele>236.2</ele><time>2026-05-03T11:08:49.354Z</time></trkpt><trkpt lat="45.0228904" lon="8.4547839"><ele>232.4</ele><time>2026-05-03T11:08:50.354Z</time></trkpt><trkpt lat="45.0229791" lon="8.4548219"><ele>228.60000000000002</ele><time>2026-05-03T11:08:51.354Z</time></trkpt><trkpt lat="45.0230687" lon="8.4548483"><ele>224.8</ele><time>2026-05-03T11:08:52.354Z</time></trkpt><trkpt lat="45.0231611" lon="8.4548638"><ele>221.0</ele><time>2026-05-03T11:08:53.354Z</time></trkpt><trkpt lat="45.023253" lon="8.4548824"><ele>220.83333333333334</ele><time>2026-05-03T11:08:54.354Z</time></trkpt><trkpt lat="45.0233382" lon="8.4549129"><ele>220.66666666666669</ele><time>2026-05-03T11:08:55.354Z</time></trkpt><trkpt lat="45.0234184" lon="8.454956"><ele>220.5</ele><time>2026-05-03T11:08:56.354Z</time></trkpt><trkpt lat="45.0234978" lon="8.4550064"><ele>220.33333333333331</ele><time>2026-05-03T11:08:57.354Z</time></trkpt><trkpt lat="45.0235724" lon="8.4550646"><ele>220.16666666666666</ele><time>2026-05-03T11:08:58.355Z</time></trkpt><trkpt lat="45.0236425" lon="8.4551321"><ele>220.0</ele><time>2026-05-03T11:08:59.355Z</time></trkpt><trkpt lat="45.023709" lon="8.4552032"><ele>219.99999999999997</ele><time>2026-05-03T11:09:00.355Z</time></trkpt><trkpt lat="45.0237749" lon="8.4552747"><ele>220.0</ele><time>2026-05-03T11:09:01.355Z</time></trkpt><trkpt lat="45.0238452" lon="8.4553431"><ele>220.0</ele><time>2026-05-03T11:09:02.354Z</time></trkpt><trkpt lat="45.0239167" lon="8.4554052"><ele>220.0</ele><time>2026-05-03T11:09:03.354Z</time></trkpt><trkpt lat="45.0239911" lon="8.4554642"><ele>219.99999999999997</ele><time>2026-05-03T11:09:04.354Z</time></trkpt><trkpt lat="45.0240713" lon="8.4555204"><ele>220.0</ele><time>2026-05-03T11:09:05.355Z</time></trkpt><trkpt lat="45.0241566" lon="8.4555643"><ele>217.8</ele><time>2026-05-03T11:09:06.354Z</time></trkpt><trkpt lat="45.0242481" lon="8.4555929"><ele>215.6</ele><time>2026-05-03T11:09:07.355Z</time></trkpt><trkpt lat="45.0243428" lon="8.4556019"><ele>213.39999999999998</ele><time>2026-05-03T11:09:08.355Z</time></trkpt><trkpt lat="45.0244429" lon="8.4555834"><ele>211.2</ele><time>2026-05-03T11:09:09.355Z</time></trkpt><trkpt lat="45.024538" lon="8.4555479"><ele>209.0</ele><time>2026-05-03T11:09:10.355Z</time></trkpt><trkpt lat="45.0246291" lon="8.4555078"><ele>209.00000000000003</ele><time>2026-05-03T11:09:11.354Z</time></trkpt><trkpt lat="45.0247181" lon="8.4554741"><ele>209.0</ele><time>2026-05-03T11:09:12.354Z</time></trkpt><trkpt lat="45.024805" lon="8.4554452"><ele>209.0</ele><time>2026-05-03T11:09:13.354Z</time></trkpt><trkpt lat="45.024887" lon="8.4554173"><ele>209.0</ele><time>2026-05-03T11:09:14.355Z</time></trkpt><trkpt lat="45.0249652" lon="8.4553897"><ele>209.00000000000003</ele><time>2026-05-03T11:09:15.355Z</time></trkpt><trkpt lat="45.0250405" lon="8.4553596"><ele>209.0</ele><time>2026-05-03T11:09:16.355Z</time></trkpt><trkpt lat="45.025114" lon="8.4553316"><ele>209.33333333333334</ele><time>2026-05-03T11:09:17.354Z</time></trkpt><trkpt lat="45.0251892" lon="8.4553075"><ele>209.66666666666669</ele><time>2026-05-03T11:09:18.354Z</time></trkpt><trkpt lat="45.025267" lon="8.4552893"><ele>210.0</ele><time>2026-05-03T11:09:19.355Z</time></trkpt><trkpt lat="45.0253488" lon="8.4552769"><ele>210.33333333333331</ele><time>2026-05-03T11:09:20.354Z</time></trkpt><trkpt lat="45.0254342" lon="8.4552721"><ele>210.66666666666666</ele><time>2026-05-03T11:09:21.355Z</time></trkpt><trkpt lat="45.0255245" lon="8.4552878"><ele>211.0</ele><time>2026-05-03T11:09:22.354Z</time></trkpt><trkpt lat="45.0256168" lon="8.4552997"><ele>211.0</ele><time>2026-05-03T11:09:23.354Z</time></trkpt><trkpt lat="45.0257064" lon="8.4553166"><ele>211.0</ele><time>2026-05-03T11:09:24.354Z</time></trkpt><trkpt lat="45.0258018" lon="8.4553295"><ele>211.0</ele><time>2026-05-03T11:09:25.355Z</time></trkpt><trkpt lat="45.0258936" lon="8.4553417"><ele>211.0</ele><time>2026-05-03T11:09:26.356Z</time></trkpt><trkpt lat="45.0259817" lon="8.4553527"><ele>211.0</ele><time>2026-05-03T11:09:27.356Z</time></trkpt><trkpt lat="45.0260667" lon="8.4553597"><ele>210.66666666666666</ele><time>2026-05-03T11:09:28.355Z</time></trkpt><trkpt lat="45.0261455" lon="8.4553623"><ele>210.33333333333331</ele><time>2026-05-03T11:09:29.355Z</time></trkpt><trkpt lat="45.0262169" lon="8.4553634"><ele>210.0</ele><time>2026-05-03T11:09:30.355Z</time></trkpt><trkpt lat="45.0262885" lon="8.4553711"><ele>209.66666666666669</ele><time>2026-05-03T11:09:31.355Z</time></trkpt><trkpt lat="45.0263535" lon="8.4553768"><ele>209.33333333333334</ele><time>2026-05-03T11:09:32.355Z</time></trkpt><trkpt lat="45.026473" lon="8.4553911"><ele>209.0</ele><time>2026-05-03T11:09:34.355Z</time></trkpt><trkpt lat="45.0265791" lon="8.4553777"><ele>208.50000000000003</ele><time>2026-05-03T11:09:36.355Z</time></trkpt><trkpt lat="45.0266923" lon="8.4553294"><ele>208.0</ele><time>2026-05-03T11:09:38.355Z</time></trkpt><trkpt lat="45.0267566" lon="8.4553016"><ele>207.5</ele><time>2026-05-03T11:09:39.356Z</time></trkpt><trkpt lat="45.0268297" lon="8.4552822"><ele>207.0</ele><time>2026-05-03T11:09:40.355Z</time></trkpt><trkpt lat="45.0269069" lon="8.4552652"><ele>206.50000000000003</ele><time>2026-05-03T11:09:41.355Z</time></trkpt><trkpt lat="45.0269836" lon="8.4552463"><ele>206.0</ele><time>2026-05-03T11:09:42.355Z</time></trkpt><trkpt lat="45.0270644" lon="8.4552274"><ele>206.00000000000003</ele><time>2026-05-03T11:09:43.355Z</time></trkpt><trkpt lat="45.0271456" lon="8.4552088"><ele>206.0</ele><time>2026-05-03T11:09:44.355Z</time></trkpt><trkpt lat="45.0272334" lon="8.4551804"><ele>206.0</ele><time>2026-05-03T11:09:45.356Z</time></trkpt><trkpt lat="45.027317" lon="8.4551389"><ele>206.0</ele><time>2026-05-03T11:09:46.355Z</time></trkpt><trkpt lat="45.0273965" lon="8.4550928"><ele>206.00000000000003</ele><time>2026-05-03T11:09:47.355Z</time></trkpt><trkpt lat="45.027468" lon="8.4550423"><ele>206.0</ele><time>2026-05-03T11:09:48.356Z</time></trkpt><trkpt lat="45.0275361" lon="8.4549818"><ele>205.8</ele><time>2026-05-03T11:09:49.355Z</time></trkpt><trkpt lat="45.0276048" lon="8.454908"><ele>205.60000000000002</ele><time>2026-05-03T11:09:50.355Z</time></trkpt><trkpt lat="45.0276741" lon="8.4548213"><ele>205.4</ele><time>2026-05-03T11:09:51.355Z</time></trkpt><trkpt lat="45.027745" lon="8.4547344"><ele>205.2</ele><time>2026-05-03T11:09:52.355Z</time></trkpt><trkpt lat="45.027813" lon="8.4546356"><ele>205.0</ele><time>2026-05-03T11:09:53.355Z</time></trkpt><trkpt lat="45.0278827" lon="8.4545401"><ele>204.8</ele><time>2026-05-03T11:09:54.355Z</time></trkpt><trkpt lat="45.0279567" lon="8.4544531"><ele>204.6</ele><time>2026-05-03T11:09:55.356Z</time></trkpt><trkpt lat="45.0280311" lon="8.454368"><ele>204.39999999999998</ele><time>2026-05-03T11:09:56.356Z</time></trkpt><trkpt lat="45.0281096" lon="8.4543012"><ele>204.2</ele><time>2026-05-03T11:09:57.355Z</time></trkpt><trkpt lat="45.0281895" lon="8.454245"><ele>204.0</ele><time>2026-05-03T11:09:58.355Z</time></trkpt><trkpt lat="45.0282718" lon="8.4542063"><ele>201.79999999999998</ele><time>2026-05-03T11:09:59.355Z</time></trkpt><trkpt lat="45.0283616" lon="8.454176"><ele>199.6</ele><time>2026-05-03T11:10:00.355Z</time></trkpt><trkpt lat="45.0284489" lon="8.4541548"><ele>197.4</ele><time>2026-05-03T11:10:01.355Z</time></trkpt><trkpt lat="45.0285391" lon="8.4541406"><ele>195.2</ele><time>2026-05-03T11:10:02.356Z</time></trkpt><trkpt lat="45.0286315" lon="8.4541242"><ele>193.0</ele><time>2026-05-03T11:10:03.356Z</time></trkpt><trkpt lat="45.0287261" lon="8.4541045"><ele>193.0</ele><time>2026-05-03T11:10:04.355Z</time></trkpt><trkpt lat="45.0288198" lon="8.4540813"><ele>193.0</ele><time>2026-05-03T11:10:05.355Z</time></trkpt><trkpt lat="45.0289147" lon="8.4540544"><ele>193.0</ele><time>2026-05-03T11:10:06.355Z</time></trkpt><trkpt lat="45.029013" lon="8.4540257"><ele>193.0</ele><time>2026-05-03T11:10:07.356Z</time></trkpt><trkpt lat="45.0291139" lon="8.4539973"><ele>193.0</ele><time>2026-05-03T11:10:08.355Z</time></trkpt><trkpt lat="45.0292139" lon="8.4539679"><ele>190.60000000000002</ele><time>2026-05-03T11:10:09.356Z</time></trkpt><trkpt lat="45.0293084" lon="8.4539331"><ele>188.20000000000002</ele><time>2026-05-03T11:10:10.355Z</time></trkpt><trkpt lat="45.0294006" lon="8.4538895"><ele>185.8</ele><time>2026-05-03T11:10:11.355Z</time></trkpt><trkpt lat="45.0294912" lon="8.4538413"><ele>183.4</ele><time>2026-05-03T11:10:12.355Z</time></trkpt><trkpt lat="45.0295804" lon="8.4537928"><ele>181.0</ele><time>2026-05-03T11:10:13.355Z</time></trkpt><trkpt lat="45.0296694" lon="8.4537444"><ele>180.4</ele><time>2026-05-03T11:10:14.355Z</time></trkpt><trkpt lat="45.0297573" lon="8.4536958"><ele>179.8</ele><time>2026-05-03T11:10:15.356Z</time></trkpt><trkpt lat="45.029844" lon="8.4536484"><ele>179.20000000000002</ele><time>2026-05-03T11:10:16.356Z</time></trkpt><trkpt lat="45.0299309" lon="8.4536049"><ele>178.60000000000002</ele><time>2026-05-03T11:10:17.356Z</time></trkpt><trkpt lat="45.0300183" lon="8.4535634"><ele>178.0</ele><time>2026-05-03T11:10:18.356Z</time></trkpt><trkpt lat="45.0301023" lon="8.4535219"><ele>177.83333333333334</ele><time>2026-05-03T11:10:19.356Z</time></trkpt><trkpt lat="45.0301835" lon="8.4534784"><ele>177.66666666666669</ele><time>2026-05-03T11:10:20.357Z</time></trkpt><trkpt lat="45.0302611" lon="8.4534307"><ele>177.5</ele><time>2026-05-03T11:10:21.357Z</time></trkpt><trkpt lat="45.0303355" lon="8.4533698"><ele>177.33333333333334</ele><time>2026-05-03T11:10:22.357Z</time></trkpt><trkpt lat="45.0304038" lon="8.4532915"><ele>177.16666666666666</ele><time>2026-05-03T11:10:23.356Z</time></trkpt><trkpt lat="45.0304629" lon="8.4532016"><ele>177.0</ele><time>2026-05-03T11:10:24.357Z</time></trkpt><trkpt lat="45.0305169" lon="8.4530955"><ele>177.0</ele><time>2026-05-03T11:10:25.356Z</time></trkpt><trkpt lat="45.0305669" lon="8.4529782"><ele>177.0</ele><time>2026-05-03T11:10:26.356Z</time></trkpt><trkpt lat="45.0306154" lon="8.4528578"><ele>177.0</ele><time>2026-05-03T11:10:27.357Z</time></trkpt><trkpt lat="45.0306719" lon="8.4527427"><ele>177.0</ele><time>2026-05-03T11:10:28.357Z</time></trkpt><trkpt lat="45.0307251" lon="8.4526405"><ele>177.0</ele><time>2026-05-03T11:10:29.357Z</time></trkpt><trkpt lat="45.0307851" lon="8.4525565"><ele>176.16666666666666</ele><time>2026-05-03T11:10:30.356Z</time></trkpt><trkpt lat="45.0308486" lon="8.4524863"><ele>175.33333333333334</ele><time>2026-05-03T11:10:31.356Z</time></trkpt><trkpt lat="45.0309108" lon="8.452442"><ele>174.5</ele><time>2026-05-03T11:10:32.357Z</time></trkpt><trkpt lat="45.0309759" lon="8.4524196"><ele>173.66666666666669</ele><time>2026-05-03T11:10:33.356Z</time></trkpt><trkpt lat="45.0310422" lon="8.4524187"><ele>172.83333333333334</ele><time>2026-05-03T11:10:34.357Z</time></trkpt><trkpt lat="45.0311229" lon="8.4524534"><ele>172.0</ele><time>2026-05-03T11:10:35.357Z</time></trkpt><trkpt lat="45.0312231" lon="8.4525201"><ele>172.0</ele><time>2026-05-03T11:10:36.357Z</time></trkpt><trkpt lat="45.0313215" lon="8.4525989"><ele>172.0</ele><time>2026-05-03T11:10:37.356Z</time></trkpt><trkpt lat="45.0314136" lon="8.4526802"><ele>172.0</ele><time>2026-05-03T11:10:38.357Z</time></trkpt><trkpt lat="45.0315152" lon="8.4527506"><ele>172.0</ele><time>2026-05-03T11:10:39.357Z</time></trkpt><trkpt lat="45.0316161" lon="8.4528146"><ele>172.0</ele><time>2026-05-03T11:10:40.356Z</time></trkpt><trkpt lat="45.0317104" lon="8.4528662"><ele>170.0</ele><time>2026-05-03T11:10:41.356Z</time></trkpt><trkpt lat="45.0318045" lon="8.4529077"><ele>168.0</ele><time>2026-05-03T11:10:42.356Z</time></trkpt><trkpt lat="45.0318947" lon="8.4529383"><ele>166.0</ele><time>2026-05-03T11:10:43.356Z</time></trkpt><trkpt lat="45.031992" lon="8.4529682"><ele>164.0</ele><time>2026-05-03T11:10:44.356Z</time></trkpt><trkpt lat="45.0320865" lon="8.4529912"><ele>162.0</ele><time>2026-05-03T11:10:45.357Z</time></trkpt><trkpt lat="45.0321836" lon="8.453012"><ele>161.4</ele><time>2026-05-03T11:10:46.357Z</time></trkpt><trkpt lat="45.032286" lon="8.453029"><ele>160.79999999999998</ele><time>2026-05-03T11:10:47.356Z</time></trkpt><trkpt lat="45.0323867" lon="8.4530469"><ele>160.2</ele><time>2026-05-03T11:10:48.356Z</time></trkpt><trkpt lat="45.0324906" lon="8.4530673"><ele>159.6</ele><time>2026-05-03T11:10:49.356Z</time></trkpt><trkpt lat="45.0325961" lon="8.4530879"><ele>159.0</ele><time>2026-05-03T11:10:50.356Z</time></trkpt><trkpt lat="45.0326979" lon="8.4531091"><ele>157.4</ele><time>2026-05-03T11:10:51.357Z</time></trkpt><trkpt lat="45.0327983" lon="8.453129"><ele>155.8</ele><time>2026-05-03T11:10:52.357Z</time></trkpt><trkpt lat="45.032897" lon="8.4531467"><ele>154.2</ele><time>2026-05-03T11:10:53.357Z</time></trkpt><trkpt lat="45.0329946" lon="8.4531614"><ele>152.6</ele><time>2026-05-03T11:10:54.357Z</time></trkpt><trkpt lat="45.0330887" lon="8.4531776"><ele>151.0</ele><time>2026-05-03T11:10:55.356Z</time></trkpt><trkpt lat="45.0331808" lon="8.453192"><ele>151.0</ele><time>2026-05-03T11:10:56.357Z</time></trkpt><trkpt lat="45.0332747" lon="8.4532001"><ele>151.0</ele><time>2026-05-03T11:10:57.356Z</time></trkpt><trkpt lat="45.0333664" lon="8.4532009"><ele>151.0</ele><time>2026-05-03T11:10:58.356Z</time></trkpt><trkpt lat="45.0334596" lon="8.4531933"><ele>151.0</ele><time>2026-05-03T11:10:59.356Z</time></trkpt><trkpt lat="45.0335555" lon="8.4531784"><ele>151.0</ele><time>2026-05-03T11:11:00.356Z</time></trkpt><trkpt lat="45.0336558" lon="8.4531563"><ele>150.8</ele><time>2026-05-03T11:11:01.356Z</time></trkpt><trkpt lat="45.0337548" lon="8.4531236"><ele>150.6</ele><time>2026-05-03T11:11:02.356Z</time></trkpt><trkpt lat="45.0338548" lon="8.45308"><ele>150.4</ele><time>2026-05-03T11:11:03.357Z</time></trkpt><trkpt lat="45.0339522" lon="8.4530353"><ele>150.2</ele><time>2026-05-03T11:11:04.357Z</time></trkpt><trkpt lat="45.0340492" lon="8.4529942"><ele>150.0</ele><time>2026-05-03T11:11:05.357Z</time></trkpt><trkpt lat="45.0341465" lon="8.4529553"><ele>149.4</ele><time>2026-05-03T11:11:06.357Z</time></trkpt><trkpt lat="45.0342429" lon="8.4529162"><ele>148.8</ele><time>2026-05-03T11:11:07.357Z</time></trkpt><trkpt lat="45.0343371" lon="8.4528798"><ele>148.2</ele><time>2026-05-03T11:11:08.357Z</time></trkpt><trkpt lat="45.03443" lon="8.4528437"><ele>147.6</ele><time>2026-05-03T11:11:09.358Z</time></trkpt><trkpt lat="45.0345232" lon="8.4528087"><ele>147.0</ele><time>2026-05-03T11:11:10.358Z</time></trkpt><trkpt lat="45.0346184" lon="8.4527721"><ele>147.0</ele><time>2026-05-03T11:11:11.358Z</time></trkpt><trkpt lat="45.0347144" lon="8.452734"><ele>147.0</ele><time>2026-05-03T11:11:12.358Z</time></trkpt><trkpt lat="45.0348056" lon="8.452696"><ele>147.0</ele><time>2026-05-03T11:11:13.358Z</time></trkpt><trkpt lat="45.0348938" lon="8.4526584"><ele>147.0</ele><time>2026-05-03T11:11:14.357Z</time></trkpt><trkpt lat="45.0349846" lon="8.4526248"><ele>147.0</ele><time>2026-05-03T11:11:15.357Z</time></trkpt><trkpt lat="45.035076" lon="8.4525946"><ele>146.83333333333334</ele><time>2026-05-03T11:11:16.358Z</time></trkpt><trkpt lat="45.0351639" lon="8.4525643"><ele>146.66666666666666</ele><time>2026-05-03T11:11:17.358Z</time></trkpt><trkpt lat="45.0352496" lon="8.4525344"><ele>146.5</ele><time>2026-05-03T11:11:18.357Z</time></trkpt><trkpt lat="45.0353323" lon="8.4525004"><ele>146.33333333333331</ele><time>2026-05-03T11:11:19.357Z</time></trkpt><trkpt lat="45.0354112" lon="8.4524683"><ele>146.16666666666666</ele><time>2026-05-03T11:11:20.357Z</time></trkpt><trkpt lat="45.0354968" lon="8.4524348"><ele>146.0</ele><time>2026-05-03T11:11:21.357Z</time></trkpt><trkpt lat="45.0355891" lon="8.4524005"><ele>146.0</ele><time>2026-05-03T11:11:22.357Z</time></trkpt><trkpt lat="45.0356806" lon="8.4523654"><ele>146.0</ele><time>2026-05-03T11:11:23.358Z</time></trkpt><trkpt lat="45.0357707" lon="8.4523309"><ele>146.0</ele><time>2026-05-03T11:11:24.358Z</time></trkpt><trkpt lat="45.0358618" lon="8.4522954"><ele>146.0</ele><time>2026-05-03T11:11:25.358Z</time></trkpt><trkpt lat="45.0359497" lon="8.4522562"><ele>146.0</ele><time>2026-05-03T11:11:26.358Z</time></trkpt><trkpt lat="45.0360409" lon="8.4522157"><ele>146.16666666666666</ele><time>2026-05-03T11:11:27.358Z</time></trkpt><trkpt lat="45.0361326" lon="8.4521808"><ele>146.33333333333331</ele><time>2026-05-03T11:11:28.357Z</time></trkpt><trkpt lat="45.0362227" lon="8.4521559"><ele>146.5</ele><time>2026-05-03T11:11:29.357Z</time></trkpt><trkpt lat="45.0363121" lon="8.4521323"><ele>146.66666666666666</ele><time>2026-05-03T11:11:30.357Z</time></trkpt><trkpt lat="45.036391" lon="8.4521073"><ele>146.83333333333334</ele><time>2026-05-03T11:11:31.357Z</time></trkpt><trkpt lat="45.0364639" lon="8.452078"><ele>147.0</ele><time>2026-05-03T11:11:32.357Z</time></trkpt><trkpt lat="45.0365309" lon="8.4520466"><ele>147.0</ele><time>2026-05-03T11:11:33.357Z</time></trkpt><trkpt lat="45.0365973" lon="8.4520178"><ele>147.0</ele><time>2026-05-03T11:11:34.357Z</time></trkpt><trkpt lat="45.0366643" lon="8.4519897"><ele>147.0</ele><time>2026-05-03T11:11:35.357Z</time></trkpt><trkpt lat="45.0367328" lon="8.4519584"><ele>147.0</ele><time>2026-05-03T11:11:36.357Z</time></trkpt><trkpt lat="45.0368056" lon="8.4519242"><ele>147.0</ele><time>2026-05-03T11:11:37.357Z</time></trkpt><trkpt lat="45.0368861" lon="8.451894"><ele>147.0</ele><time>2026-05-03T11:11:38.357Z</time></trkpt><trkpt lat="45.0369746" lon="8.4518636"><ele>147.0</ele><time>2026-05-03T11:11:39.358Z</time></trkpt><trkpt lat="45.0370658" lon="8.4518291"><ele>147.0</ele><time>2026-05-03T11:11:40.358Z</time></trkpt><trkpt lat="45.0371591" lon="8.4517917"><ele>147.0</ele><time>2026-05-03T11:11:41.358Z</time></trkpt><trkpt lat="45.0372524" lon="8.4517555"><ele>147.0</ele><time>2026-05-03T11:11:42.357Z</time></trkpt><trkpt lat="45.0373445" lon="8.4517193"><ele>147.0</ele><time>2026-05-03T11:11:43.358Z</time></trkpt><trkpt lat="45.0374381" lon="8.4516819"><ele>146.79999999999998</ele><time>2026-05-03T11:11:44.357Z</time></trkpt><trkpt lat="45.0375323" lon="8.4516449"><ele>146.6</ele><time>2026-05-03T11:11:45.357Z</time></trkpt><trkpt lat="45.0376255" lon="8.4516087"><ele>146.39999999999998</ele><time>2026-05-03T11:11:46.358Z</time></trkpt><trkpt lat="45.0377194" lon="8.4515719"><ele>146.2</ele><time>2026-05-03T11:11:47.357Z</time></trkpt><trkpt lat="45.0378159" lon="8.4515374"><ele>146.0</ele><time>2026-05-03T11:11:48.358Z</time></trkpt><trkpt lat="45.0379097" lon="8.4515088"><ele>146.0</ele><time>2026-05-03T11:11:49.358Z</time></trkpt><trkpt lat="45.0380037" lon="8.451484"><ele>146.0</ele><time>2026-05-03T11:11:50.357Z</time></trkpt><trkpt lat="45.0380968" lon="8.4514509"><ele>146.0</ele><time>2026-05-03T11:11:51.358Z</time></trkpt><trkpt lat="45.0381862" lon="8.4514168"><ele>146.0</ele><time>2026-05-03T11:11:52.358Z</time></trkpt><trkpt lat="45.0382724" lon="8.4513831"><ele>146.0</ele><time>2026-05-03T11:11:53.358Z</time></trkpt><trkpt lat="45.0383616" lon="8.4513476"><ele>146.0</ele><time>2026-05-03T11:11:54.358Z</time></trkpt><trkpt lat="45.0384537" lon="8.451313"><ele>146.0</ele><time>2026-05-03T11:11:55.358Z</time></trkpt><trkpt lat="45.0385458" lon="8.4512764"><ele>146.0</ele><time>2026-05-03T11:11:56.359Z</time></trkpt><trkpt lat="45.0386383" lon="8.4512412"><ele>146.0</ele><time>2026-05-03T11:11:57.358Z</time></trkpt><trkpt lat="45.0387297" lon="8.451211"><ele>146.0</ele><time>2026-05-03T11:11:58.358Z</time></trkpt><trkpt lat="45.0388239" lon="8.4511929"><ele>146.0</ele><time>2026-05-03T11:11:59.358Z</time></trkpt><trkpt lat="45.0389249" lon="8.4511911"><ele>146.0</ele><time>2026-05-03T11:12:00.359Z</time></trkpt><trkpt lat="45.0390274" lon="8.4512084"><ele>146.0</ele><time>2026-05-03T11:12:01.358Z</time></trkpt><trkpt lat="45.0391234" lon="8.4512444"><ele>146.0</ele><time>2026-05-03T11:12:02.358Z</time></trkpt><trkpt lat="45.0392135" lon="8.4512958"><ele>146.0</ele><time>2026-05-03T11:12:03.358Z</time></trkpt><trkpt lat="45.0393028" lon="8.4513571"><ele>145.8</ele><time>2026-05-03T11:12:04.358Z</time></trkpt><trkpt lat="45.0393894" lon="8.4514231"><ele>145.6</ele><time>2026-05-03T11:12:05.358Z</time></trkpt><trkpt lat="45.0394776" lon="8.45149"><ele>145.4</ele><time>2026-05-03T11:12:06.358Z</time></trkpt><trkpt lat="45.039563" lon="8.4515516"><ele>145.2</ele><time>2026-05-03T11:12:07.359Z</time></trkpt><trkpt lat="45.0396484" lon="8.4516105"><ele>145.0</ele><time>2026-05-03T11:12:08.358Z</time></trkpt><trkpt lat="45.0397364" lon="8.4516674"><ele>145.0</ele><time>2026-05-03T11:12:09.358Z</time></trkpt><trkpt lat="45.0398237" lon="8.4517267"><ele>145.0</ele><time>2026-05-03T11:12:10.358Z</time></trkpt><trkpt lat="45.0399086" lon="8.4517835"><ele>145.0</ele><time>2026-05-03T11:12:11.358Z</time></trkpt><trkpt lat="45.0399904" lon="8.451839"><ele>145.0</ele><time>2026-05-03T11:12:12.358Z</time></trkpt><trkpt lat="45.0400723" lon="8.4518907"><ele>145.0</ele><time>2026-05-03T11:12:13.358Z</time></trkpt><trkpt lat="45.0401527" lon="8.4519444"><ele>145.2</ele><time>2026-05-03T11:12:14.358Z</time></trkpt><trkpt lat="45.0402355" lon="8.4520008"><ele>145.4</ele><time>2026-05-03T11:12:15.358Z</time></trkpt><trkpt lat="45.0403168" lon="8.4520532"><ele>145.6</ele><time>2026-05-03T11:12:16.358Z</time></trkpt><trkpt lat="45.0404058" lon="8.4521085"><ele>145.8</ele><time>2026-05-03T11:12:17.358Z</time></trkpt><trkpt lat="45.040491" lon="8.4521596"><ele>146.0</ele><time>2026-05-03T11:12:18.358Z</time></trkpt><trkpt lat="45.0405777" lon="8.4522129"><ele>145.8</ele><time>2026-05-03T11:12:19.359Z</time></trkpt><trkpt lat="45.0406642" lon="8.4522655"><ele>145.6</ele><time>2026-05-03T11:12:20.358Z</time></trkpt><trkpt lat="45.0407504" lon="8.4523231"><ele>145.4</ele><time>2026-05-03T11:12:21.358Z</time></trkpt><trkpt lat="45.0408381" lon="8.4523823"><ele>145.2</ele><time>2026-05-03T11:12:22.358Z</time></trkpt><trkpt lat="45.0409267" lon="8.452443"><ele>145.0</ele><time>2026-05-03T11:12:23.358Z</time></trkpt><trkpt lat="45.0410153" lon="8.4524998"><ele>145.0</ele><time>2026-05-03T11:12:24.358Z</time></trkpt><trkpt lat="45.0411038" lon="8.4525511"><ele>145.0</ele><time>2026-05-03T11:12:25.358Z</time></trkpt><trkpt lat="45.0411925" lon="8.4526032"><ele>145.0</ele><time>2026-05-03T11:12:26.358Z</time></trkpt><trkpt lat="45.041279" lon="8.4526567"><ele>145.0</ele><time>2026-05-03T11:12:27.358Z</time></trkpt><trkpt lat="45.0413653" lon="8.4527116"><ele>145.0</ele><time>2026-05-03T11:12:28.358Z</time></trkpt><trkpt lat="45.0414529" lon="8.4527666"><ele>145.0</ele><time>2026-05-03T11:12:29.358Z</time></trkpt><trkpt lat="45.0415404" lon="8.4528228"><ele>145.0</ele><time>2026-05-03T11:12:30.358Z</time></trkpt><trkpt lat="45.0416248" lon="8.4528798"><ele>145.0</ele><time>2026-05-03T11:12:31.358Z</time></trkpt><trkpt lat="45.0417073" lon="8.4529362"><ele>145.0</ele><time>2026-05-03T11:12:32.358Z</time></trkpt><trkpt lat="45.0417906" lon="8.4529917"><ele>145.0</ele><time>2026-05-03T11:12:33.358Z</time></trkpt><trkpt lat="45.0418729" lon="8.4530441"><ele>144.5</ele><time>2026-05-03T11:12:34.358Z</time></trkpt><trkpt lat="45.0419546" lon="8.4530925"><ele>144.0</ele><time>2026-05-03T11:12:35.359Z</time></trkpt><trkpt lat="45.0420371" lon="8.4531371"><ele>143.5</ele><time>2026-05-03T11:12:36.359Z</time></trkpt><trkpt lat="45.0421193" lon="8.4531755"><ele>143.0</ele><time>2026-05-03T11:12:37.358Z</time></trkpt><trkpt lat="45.0422037" lon="8.4532088"><ele>142.5</ele><time>2026-05-03T11:12:38.36Z</time></trkpt><trkpt lat="45.0422897" lon="8.4532376"><ele>142.0</ele><time>2026-05-03T11:12:39.359Z</time></trkpt><trkpt lat="45.0423764" lon="8.4532679"><ele>141.79999999999998</ele><time>2026-05-03T11:12:40.359Z</time></trkpt><trkpt lat="45.0424655" lon="8.4532984"><ele>141.6</ele><time>2026-05-03T11:12:41.359Z</time></trkpt><trkpt lat="45.0425565" lon="8.4533231"><ele>141.39999999999998</ele><time>2026-05-03T11:12:42.36Z</time></trkpt><trkpt lat="45.0426472" lon="8.4533427"><ele>141.2</ele><time>2026-05-03T11:12:43.359Z</time></trkpt><trkpt lat="45.0427372" lon="8.453359"><ele>141.0</ele><time>2026-05-03T11:12:44.359Z</time></trkpt><trkpt lat="45.0428302" lon="8.4533772"><ele>141.0</ele><time>2026-05-03T11:12:45.359Z</time></trkpt><trkpt lat="45.0429193" lon="8.4533976"><ele>141.0</ele><time>2026-05-03T11:12:46.359Z</time></trkpt><trkpt lat="45.0430085" lon="8.4534201"><ele>141.0</ele><time>2026-05-03T11:12:47.359Z</time></trkpt><trkpt lat="45.0430962" lon="8.453441"><ele>141.0</ele><time>2026-05-03T11:12:48.359Z</time></trkpt><trkpt lat="45.0431801" lon="8.4534598"><ele>141.0</ele><time>2026-05-03T11:12:49.359Z</time></trkpt><trkpt lat="45.0432606" lon="8.45348"><ele>141.0</ele><time>2026-05-03T11:12:50.359Z</time></trkpt><trkpt lat="45.0433375" lon="8.4534978"><ele>140.66666666666666</ele><time>2026-05-03T11:12:51.36Z</time></trkpt><trkpt lat="45.0434166" lon="8.453518"><ele>140.33333333333334</ele><time>2026-05-03T11:12:52.36Z</time></trkpt><trkpt lat="45.0435019" lon="8.453539"><ele>140.0</ele><time>2026-05-03T11:12:53.359Z</time></trkpt><trkpt lat="45.0435903" lon="8.4535637"><ele>139.66666666666669</ele><time>2026-05-03T11:12:54.359Z</time></trkpt><trkpt lat="45.0436754" lon="8.4535865"><ele>139.33333333333334</ele><time>2026-05-03T11:12:55.359Z</time></trkpt><trkpt lat="45.0437498" lon="8.4536065"><ele>139.0</ele><time>2026-05-03T11:12:56.359Z</time></trkpt><trkpt lat="45.0438124" lon="8.4536252"><ele>139.0</ele><time>2026-05-03T11:12:57.359Z</time></trkpt><trkpt lat="45.0439233" lon="8.4536671"><ele>139.0</ele><time>2026-05-03T11:12:59.359Z</time></trkpt><trkpt lat="45.0440259" lon="8.4537237"><ele>139.0</ele><time>2026-05-03T11:13:01.359Z</time></trkpt><trkpt lat="45.0441237" lon="8.453726"><ele>139.0</ele><time>2026-05-03T11:13:03.359Z</time></trkpt><trkpt lat="45.0442205" lon="8.4536396"><ele>139.0</ele><time>2026-05-03T11:13:05.359Z</time></trkpt><trkpt lat="45.0442773" lon="8.4535865"><ele>139.0</ele><time>2026-05-03T11:13:06.359Z</time></trkpt><trkpt lat="45.0443374" lon="8.4535252"><ele>139.0</ele><time>2026-05-03T11:13:07.36Z</time></trkpt><trkpt lat="45.0443993" lon="8.4534571"><ele>139.0</ele><time>2026-05-03T11:13:08.359Z</time></trkpt><trkpt lat="45.0444683" lon="8.4533896"><ele>139.0</ele><time>2026-05-03T11:13:09.359Z</time></trkpt><trkpt lat="45.0445359" lon="8.4533242"><ele>139.0</ele><time>2026-05-03T11:13:10.359Z</time></trkpt><trkpt lat="45.04461" lon="8.4532525"><ele>139.0</ele><time>2026-05-03T11:13:11.359Z</time></trkpt><trkpt lat="45.0446949" lon="8.4531683"><ele>139.0</ele><time>2026-05-03T11:13:12.359Z</time></trkpt><trkpt lat="45.0447775" lon="8.453083"><ele>139.0</ele><time>2026-05-03T11:13:13.36Z</time></trkpt><trkpt lat="45.0448664" lon="8.452999"><ele>139.0</ele><time>2026-05-03T11:13:14.359Z</time></trkpt><trkpt lat="45.0449567" lon="8.4529133"><ele>139.0</ele><time>2026-05-03T11:13:15.36Z</time></trkpt><trkpt lat="45.0450457" lon="8.4528303"><ele>139.0</ele><time>2026-05-03T11:13:16.36Z</time></trkpt><trkpt lat="45.0451339" lon="8.4527486"><ele>136.4</ele><time>2026-05-03T11:13:17.36Z</time></trkpt><trkpt lat="45.0452182" lon="8.4526703"><ele>133.8</ele><time>2026-05-03T11:13:18.359Z</time></trkpt><trkpt lat="45.0452948" lon="8.4525961"><ele>131.2</ele><time>2026-05-03T11:13:19.359Z</time></trkpt><trkpt lat="45.0453696" lon="8.4525208"><ele>128.6</ele><time>2026-05-03T11:13:20.359Z</time></trkpt><trkpt lat="45.0454457" lon="8.4524437"><ele>126.0</ele><time>2026-05-03T11:13:21.359Z</time></trkpt><trkpt lat="45.0455254" lon="8.4523659"><ele>126.0</ele><time>2026-05-03T11:13:22.359Z</time></trkpt><trkpt lat="45.0456085" lon="8.4522909"><ele>126.0</ele><time>2026-05-03T11:13:23.359Z</time></trkpt><trkpt lat="45.0456877" lon="8.4522131"><ele>126.0</ele><time>2026-05-03T11:13:24.36Z</time></trkpt><trkpt lat="45.0457682" lon="8.4521347"><ele>126.0</ele><time>2026-05-03T11:13:25.359Z</time></trkpt><trkpt lat="45.0458453" lon="8.4520558"><ele>126.0</ele><time>2026-05-03T11:13:26.359Z</time></trkpt><trkpt lat="45.0459256" lon="8.4519822"><ele>125.6</ele><time>2026-05-03T11:13:27.36Z</time></trkpt><trkpt lat="45.0460024" lon="8.4519131"><ele>125.19999999999999</ele><time>2026-05-03T11:13:28.361Z</time></trkpt><trkpt lat="45.0460752" lon="8.4518411"><ele>124.80000000000001</ele><time>2026-05-03T11:13:29.36Z</time></trkpt><trkpt lat="45.0461467" lon="8.4517679"><ele>124.4</ele><time>2026-05-03T11:13:30.36Z</time></trkpt><trkpt lat="45.0462206" lon="8.4516914"><ele>124.0</ele><time>2026-05-03T11:13:31.361Z</time></trkpt><trkpt lat="45.0462964" lon="8.4516192"><ele>124.0</ele><time>2026-05-03T11:13:32.36Z</time></trkpt><trkpt lat="45.0463752" lon="8.4515487"><ele>124.0</ele><time>2026-05-03T11:13:33.36Z</time></trkpt><trkpt lat="45.046454" lon="8.4514799"><ele>124.0</ele><time>2026-05-03T11:13:34.361Z</time></trkpt><trkpt lat="45.0465323" lon="8.4514104"><ele>124.0</ele><time>2026-05-03T11:13:35.36Z</time></trkpt><trkpt lat="45.0466117" lon="8.4513353"><ele>124.0</ele><time>2026-05-03T11:13:36.36Z</time></trkpt><trkpt lat="45.0466904" lon="8.4512575"><ele>124.2</ele><time>2026-05-03T11:13:37.36Z</time></trkpt><trkpt lat="45.0467679" lon="8.4511783"><ele>124.4</ele><time>2026-05-03T11:13:38.361Z</time></trkpt><trkpt lat="45.0468448" lon="8.451099"><ele>124.6</ele><time>2026-05-03T11:13:39.36Z</time></trkpt><trkpt lat="45.0469215" lon="8.4510244"><ele>124.8</ele><time>2026-05-03T11:13:40.361Z</time></trkpt><trkpt lat="45.0469997" lon="8.4509516"><ele>125.0</ele><time>2026-05-03T11:13:41.36Z</time></trkpt><trkpt lat="45.0470781" lon="8.4508797"><ele>124.99999999999999</ele><time>2026-05-03T11:13:42.36Z</time></trkpt><trkpt lat="45.047155" lon="8.4508059"><ele>125.0</ele><time>2026-05-03T11:13:43.361Z</time></trkpt><trkpt lat="45.0472261" lon="8.4507314"><ele>125.0</ele><time>2026-05-03T11:13:44.361Z</time></trkpt><trkpt lat="45.0472844" lon="8.4506539"><ele>125.0</ele><time>2026-05-03T11:13:45.36Z</time></trkpt><trkpt lat="45.0473351" lon="8.4505715"><ele>124.99999999999999</ele><time>2026-05-03T11:13:46.36Z</time></trkpt><trkpt lat="45.0473854" lon="8.4504837"><ele>125.0</ele><time>2026-05-03T11:13:47.361Z</time></trkpt><trkpt lat="45.0474389" lon="8.4503876"><ele>125.2</ele><time>2026-05-03T11:13:48.36Z</time></trkpt><trkpt lat="45.0474945" lon="8.4502834"><ele>125.4</ele><time>2026-05-03T11:13:49.36Z</time></trkpt><trkpt lat="45.047553" lon="8.4501743"><ele>125.6</ele><time>2026-05-03T11:13:50.361Z</time></trkpt><trkpt lat="45.0476135" lon="8.4500655"><ele>125.8</ele><time>2026-05-03T11:13:51.361Z</time></trkpt><trkpt lat="45.047675" lon="8.4499575"><ele>126.0</ele><time>2026-05-03T11:13:52.36Z</time></trkpt><trkpt lat="45.0477347" lon="8.449848"><ele>126.0</ele><time>2026-05-03T11:13:53.36Z</time></trkpt><trkpt lat="45.0477936" lon="8.4497379"><ele>126.0</ele><time>2026-05-03T11:13:54.361Z</time></trkpt><trkpt lat="45.0478544" lon="8.4496298"><ele>126.0</ele><time>2026-05-03T11:13:55.36Z</time></trkpt><trkpt lat="45.0479184" lon="8.4495259"><ele>126.0</ele><time>2026-05-03T11:13:56.36Z</time></trkpt><trkpt lat="45.0479851" lon="8.4494193"><ele>126.0</ele><time>2026-05-03T11:13:57.36Z</time></trkpt><trkpt lat="45.0480493" lon="8.4493128"><ele>126.19999999999999</ele><time>2026-05-03T11:13:58.36Z</time></trkpt><trkpt lat="45.0481093" lon="8.4492114"><ele>126.39999999999999</ele><time>2026-05-03T11:13:59.36Z</time></trkpt><trkpt lat="45.0481669" lon="8.4491119"><ele>126.6</ele><time>2026-05-03T11:14:00.361Z</time></trkpt><trkpt lat="45.0482239" lon="8.4490156"><ele>126.8</ele><time>2026-05-03T11:14:01.36Z</time></trkpt><trkpt lat="45.0482827" lon="8.4489191"><ele>127.0</ele><time>2026-05-03T11:14:02.36Z</time></trkpt><trkpt lat="45.0483425" lon="8.4488189"><ele>126.6</ele><time>2026-05-03T11:14:03.361Z</time></trkpt><trkpt lat="45.0484017" lon="8.4487193"><ele>126.19999999999999</ele><time>2026-05-03T11:14:04.36Z</time></trkpt><trkpt lat="45.0484591" lon="8.448621"><ele>125.8</ele><time>2026-05-03T11:14:05.361Z</time></trkpt><trkpt lat="45.0485151" lon="8.4485189"><ele>125.4</ele><time>2026-05-03T11:14:06.36Z</time></trkpt><trkpt lat="45.048573" lon="8.4484131"><ele>125.0</ele><time>2026-05-03T11:14:07.36Z</time></trkpt><trkpt lat="45.0486318" lon="8.4483063"><ele>125.0</ele><time>2026-05-03T11:14:08.36Z</time></trkpt><trkpt lat="45.048691" lon="8.4482018"><ele>125.0</ele><time>2026-05-03T11:14:09.361Z</time></trkpt><trkpt lat="45.0487507" lon="8.4480969"><ele>125.0</ele><time>2026-05-03T11:14:10.361Z</time></trkpt><trkpt lat="45.0488113" lon="8.4479929"><ele>125.0</ele><time>2026-05-03T11:14:11.361Z</time></trkpt><trkpt lat="45.0488739" lon="8.4478889"><ele>125.0</ele><time>2026-05-03T11:14:12.36Z</time></trkpt><trkpt lat="45.0489353" lon="8.4477852"><ele>125.0</ele><time>2026-05-03T11:14:13.36Z</time></trkpt><trkpt lat="45.0489976" lon="8.4476812"><ele>125.0</ele><time>2026-05-03T11:14:14.36Z</time></trkpt><trkpt lat="45.0490601" lon="8.4475781"><ele>125.0</ele><time>2026-05-03T11:14:15.362Z</time></trkpt><trkpt lat="45.0491218" lon="8.447474"><ele>125.0</ele><time>2026-05-03T11:14:16.361Z</time></trkpt><trkpt lat="45.0491835" lon="8.4473692"><ele>125.0</ele><time>2026-05-03T11:14:17.362Z</time></trkpt><trkpt lat="45.049246" lon="8.4472629"><ele>125.33333333333333</ele><time>2026-05-03T11:14:18.361Z</time></trkpt><trkpt lat="45.0493074" lon="8.4471577"><ele>125.66666666666666</ele><time>2026-05-03T11:14:19.361Z</time></trkpt><trkpt lat="45.0493665" lon="8.4470552"><ele>126.0</ele><time>2026-05-03T11:14:20.362Z</time></trkpt><trkpt lat="45.0494216" lon="8.4469601"><ele>126.33333333333334</ele><time>2026-05-03T11:14:21.361Z</time></trkpt><trkpt lat="45.0494707" lon="8.4468754"><ele>126.66666666666667</ele><time>2026-05-03T11:14:22.362Z</time></trkpt><trkpt lat="45.0495145" lon="8.4468016"><ele>127.0</ele><time>2026-05-03T11:14:23.362Z</time></trkpt><trkpt lat="45.0495888" lon="8.4466844"><ele>127.00000000000001</ele><time>2026-05-03T11:14:25.361Z</time></trkpt><trkpt lat="45.0496427" lon="8.4466064"><ele>127.0</ele><time>2026-05-03T11:14:27.362Z</time></trkpt><trkpt lat="45.0497065" lon="8.446534"><ele>127.0</ele><time>2026-05-03T11:14:34.361Z</time></trkpt><trkpt lat="45.0497895" lon="8.4465984"><ele>127.0</ele><time>2026-05-03T11:14:38.361Z</time></trkpt><trkpt lat="45.049855" lon="8.4467036"><ele>127.00000000000001</ele><time>2026-05-03T11:14:40.361Z</time></trkpt><trkpt lat="45.0499214" lon="8.4467813"><ele>127.0</ele><time>2026-05-03T11:14:42.361Z</time></trkpt><trkpt lat="45.0499995" lon="8.446926"><ele>127.00000000000001</ele><time>2026-05-03T11:14:44.361Z</time></trkpt><trkpt lat="45.0500463" lon="8.4470073"><ele>127.0</ele><time>2026-05-03T11:14:45.361Z</time></trkpt><trkpt lat="45.0501009" lon="8.4470803"><ele>127.0</ele><time>2026-05-03T11:14:46.361Z</time></trkpt><trkpt lat="45.0501595" lon="8.4471489"><ele>127.0</ele><time>2026-05-03T11:14:47.361Z</time></trkpt><trkpt lat="45.0502157" lon="8.4472207"><ele>127.00000000000001</ele><time>2026-05-03T11:14:48.362Z</time></trkpt><trkpt lat="45.0502738" lon="8.447299"><ele>127.0</ele><time>2026-05-03T11:14:49.362Z</time></trkpt><trkpt lat="45.0503336" lon="8.4473794"><ele>127.00000000000001</ele><time>2026-05-03T11:14:50.361Z</time></trkpt><trkpt lat="45.0503967" lon="8.4474629"><ele>127.0</ele><time>2026-05-03T11:14:51.361Z</time></trkpt><trkpt lat="45.050461" lon="8.4475481"><ele>127.0</ele><time>2026-05-03T11:14:52.361Z</time></trkpt><trkpt lat="45.0505246" lon="8.4476341"><ele>127.0</ele><time>2026-05-03T11:14:53.361Z</time></trkpt><trkpt lat="45.0505867" lon="8.4477197"><ele>127.00000000000001</ele><time>2026-05-03T11:14:54.362Z</time></trkpt><trkpt lat="45.0506449" lon="8.4477986"><ele>127.0</ele><time>2026-05-03T11:14:55.362Z</time></trkpt><trkpt lat="45.0507044" lon="8.4478743"><ele>127.00000000000001</ele><time>2026-05-03T11:14:56.362Z</time></trkpt><trkpt lat="45.0507673" lon="8.4479517"><ele>127.0</ele><time>2026-05-03T11:14:57.361Z</time></trkpt><trkpt lat="45.0508305" lon="8.448029"><ele>127.0</ele><time>2026-05-03T11:14:58.362Z</time></trkpt><trkpt lat="45.0508905" lon="8.4481097"><ele>127.0</ele><time>2026-05-03T11:14:59.361Z</time></trkpt><trkpt lat="45.0509555" lon="8.4481956"><ele>127.00000000000001</ele><time>2026-05-03T11:15:00.361Z</time></trkpt><trkpt lat="45.0510161" lon="8.448281"><ele>127.0</ele><time>2026-05-03T11:15:01.362Z</time></trkpt><trkpt lat="45.051077" lon="8.4483654"><ele>127.00000000000001</ele><time>2026-05-03T11:15:02.363Z</time></trkpt><trkpt lat="45.0511393" lon="8.4484455"><ele>127.0</ele><time>2026-05-03T11:15:03.363Z</time></trkpt><trkpt lat="45.051202" lon="8.4485296"><ele>127.0</ele><time>2026-05-03T11:15:04.362Z</time></trkpt><trkpt lat="45.0512642" lon="8.4486127"><ele>127.0</ele><time>2026-05-03T11:15:05.363Z</time></trkpt><trkpt lat="45.0513245" lon="8.4486989"><ele>127.00000000000001</ele><time>2026-05-03T11:15:06.362Z</time></trkpt><trkpt lat="45.0513865" lon="8.4487873"><ele>127.0</ele><time>2026-05-03T11:15:07.362Z</time></trkpt><trkpt lat="45.0514486" lon="8.4488833"><ele>127.00000000000001</ele><time>2026-05-03T11:15:08.362Z</time></trkpt><trkpt lat="45.0515096" lon="8.4489687"><ele>127.0</ele><time>2026-05-03T11:15:09.363Z</time></trkpt><trkpt lat="45.0515711" lon="8.4490545"><ele>127.0</ele><time>2026-05-03T11:15:10.362Z</time></trkpt><trkpt lat="45.0516361" lon="8.4491341"><ele>127.0</ele><time>2026-05-03T11:15:11.363Z</time></trkpt><trkpt lat="45.0517101" lon="8.4492174"><ele>127.00000000000001</ele><time>2026-05-03T11:15:12.362Z</time></trkpt><trkpt lat="45.0517769" lon="8.4493034"><ele>127.0</ele><time>2026-05-03T11:15:13.362Z</time></trkpt><trkpt lat="45.0518429" lon="8.4493891"><ele>127.0</ele><time>2026-05-03T11:15:14.362Z</time></trkpt><trkpt lat="45.0519068" lon="8.4494727"><ele>126.99999999999999</ele><time>2026-05-03T11:15:15.363Z</time></trkpt><trkpt lat="45.0519735" lon="8.4495584"><ele>126.99999999999999</ele><time>2026-05-03T11:15:16.362Z</time></trkpt><trkpt lat="45.0520409" lon="8.4496489"><ele>127.0</ele><time>2026-05-03T11:15:17.362Z</time></trkpt><trkpt lat="45.0521085" lon="8.4497395"><ele>127.0</ele><time>2026-05-03T11:15:18.362Z</time></trkpt><trkpt lat="45.0521745" lon="8.4498277"><ele>126.8</ele><time>2026-05-03T11:15:19.363Z</time></trkpt><trkpt lat="45.0522413" lon="8.4499141"><ele>126.6</ele><time>2026-05-03T11:15:20.362Z</time></trkpt><trkpt lat="45.0523066" lon="8.4500016"><ele>126.39999999999999</ele><time>2026-05-03T11:15:21.363Z</time></trkpt><trkpt lat="45.0523707" lon="8.4500899"><ele>126.19999999999999</ele><time>2026-05-03T11:15:22.362Z</time></trkpt><trkpt lat="45.0524375" lon="8.4501814"><ele>126.0</ele><time>2026-05-03T11:15:23.363Z</time></trkpt><trkpt lat="45.0525064" lon="8.450274"><ele>126.0</ele><time>2026-05-03T11:15:24.363Z</time></trkpt><trkpt lat="45.0525752" lon="8.4503665"><ele>126.0</ele><time>2026-05-03T11:15:25.362Z</time></trkpt><trkpt lat="45.0526425" lon="8.4504582"><ele>126.0</ele><time>2026-05-03T11:15:26.362Z</time></trkpt><trkpt lat="45.0527107" lon="8.4505521"><ele>126.0</ele><time>2026-05-03T11:15:27.363Z</time></trkpt><trkpt lat="45.0527822" lon="8.4506476"><ele>126.0</ele><time>2026-05-03T11:15:28.362Z</time></trkpt><trkpt lat="45.0528591" lon="8.4507508"><ele>126.0</ele><time>2026-05-03T11:15:29.363Z</time></trkpt><trkpt lat="45.0529348" lon="8.4508518"><ele>126.0</ele><time>2026-05-03T11:15:30.363Z</time></trkpt><trkpt lat="45.0530116" lon="8.4509562"><ele>126.0</ele><time>2026-05-03T11:15:31.363Z</time></trkpt><trkpt lat="45.0530891" lon="8.4510621"><ele>126.0</ele><time>2026-05-03T11:15:32.363Z</time></trkpt><trkpt lat="45.0531682" lon="8.4511675"><ele>126.0</ele><time>2026-05-03T11:15:33.363Z</time></trkpt><trkpt lat="45.0532472" lon="8.4512751"><ele>125.8</ele><time>2026-05-03T11:15:34.362Z</time></trkpt><trkpt lat="45.0533261" lon="8.4513837"><ele>125.6</ele><time>2026-05-03T11:15:35.362Z</time></trkpt><trkpt lat="45.0534061" lon="8.4514943"><ele>125.4</ele><time>2026-05-03T11:15:36.362Z</time></trkpt><trkpt lat="45.0534871" lon="8.4516021"><ele>125.2</ele><time>2026-05-03T11:15:37.362Z</time></trkpt><trkpt lat="45.0535657" lon="8.4517076"><ele>125.0</ele><time>2026-05-03T11:15:38.362Z</time></trkpt><trkpt lat="45.0536453" lon="8.4518167"><ele>125.0</ele><time>2026-05-03T11:15:39.362Z</time></trkpt><trkpt lat="45.0537251" lon="8.4519262"><ele>125.0</ele><time>2026-05-03T11:15:40.362Z</time></trkpt><trkpt lat="45.053807" lon="8.4520357"><ele>125.0</ele><time>2026-05-03T11:15:41.362Z</time></trkpt><trkpt lat="45.0538895" lon="8.4521466"><ele>125.0</ele><time>2026-05-03T11:15:42.362Z</time></trkpt><trkpt lat="45.0539733" lon="8.4522601"><ele>124.5</ele><time>2026-05-03T11:15:43.364Z</time></trkpt><trkpt lat="45.0540545" lon="8.4523728"><ele>124.0</ele><time>2026-05-03T11:15:44.363Z</time></trkpt><trkpt lat="45.0541376" lon="8.4524841"><ele>123.5</ele><time>2026-05-03T11:15:45.362Z</time></trkpt><trkpt lat="45.0542215" lon="8.4525941"><ele>123.0</ele><time>2026-05-03T11:15:46.362Z</time></trkpt><trkpt lat="45.0543035" lon="8.4527043"><ele>123.0</ele><time>2026-05-03T11:15:47.363Z</time></trkpt><trkpt lat="45.054385" lon="8.4528168"><ele>123.0</ele><time>2026-05-03T11:15:48.364Z</time></trkpt><trkpt lat="45.0544677" lon="8.4529315"><ele>123.0</ele><time>2026-05-03T11:15:49.362Z</time></trkpt><trkpt lat="45.0545514" lon="8.4530467"><ele>123.0</ele><time>2026-05-03T11:15:50.363Z</time></trkpt><trkpt lat="45.0546355" lon="8.4531603"><ele>122.75</ele><time>2026-05-03T11:15:51.364Z</time></trkpt><trkpt lat="45.0547202" lon="8.4532741"><ele>122.5</ele><time>2026-05-03T11:15:52.363Z</time></trkpt><trkpt lat="45.0548039" lon="8.453387"><ele>122.25</ele><time>2026-05-03T11:15:53.363Z</time></trkpt><trkpt lat="45.0548855" lon="8.4534964"><ele>122.0</ele><time>2026-05-03T11:15:54.364Z</time></trkpt><trkpt lat="45.0549649" lon="8.4536031"><ele>122.0</ele><time>2026-05-03T11:15:55.363Z</time></trkpt><trkpt lat="45.0550426" lon="8.4537077"><ele>121.99999999999999</ele><time>2026-05-03T11:15:56.363Z</time></trkpt><trkpt lat="45.0551184" lon="8.4538106"><ele>121.99999999999999</ele><time>2026-05-03T11:15:57.363Z</time></trkpt><trkpt lat="45.0551948" lon="8.4539122"><ele>122.0</ele><time>2026-05-03T11:15:58.363Z</time></trkpt><trkpt lat="45.0552718" lon="8.4540122"><ele>122.0</ele><time>2026-05-03T11:15:59.363Z</time></trkpt><trkpt lat="45.0553499" lon="8.454114"><ele>122.39999999999999</ele><time>2026-05-03T11:16:00.364Z</time></trkpt><trkpt lat="45.0554281" lon="8.4542149"><ele>122.79999999999998</ele><time>2026-05-03T11:16:01.363Z</time></trkpt><trkpt lat="45.055506" lon="8.4543186"><ele>123.2</ele><time>2026-05-03T11:16:02.364Z</time></trkpt><trkpt lat="45.055582" lon="8.4544212"><ele>123.6</ele><time>2026-05-03T11:16:03.363Z</time></trkpt><trkpt lat="45.0556562" lon="8.4545158"><ele>124.0</ele><time>2026-05-03T11:16:04.364Z</time></trkpt><trkpt lat="45.055738" lon="8.4546129"><ele>123.4</ele><time>2026-05-03T11:16:05.363Z</time></trkpt><trkpt lat="45.0558185" lon="8.4547046"><ele>122.80000000000001</ele><time>2026-05-03T11:16:06.363Z</time></trkpt><trkpt lat="45.0558982" lon="8.4548064"><ele>122.19999999999999</ele><time>2026-05-03T11:16:07.363Z</time></trkpt><trkpt lat="45.0559732" lon="8.4549089"><ele>121.6</ele><time>2026-05-03T11:16:08.363Z</time></trkpt><trkpt lat="45.0560451" lon="8.455014"><ele>121.0</ele><time>2026-05-03T11:16:09.363Z</time></trkpt><trkpt lat="45.0561188" lon="8.4551143"><ele>121.0</ele><time>2026-05-03T11:16:10.363Z</time></trkpt><trkpt lat="45.0561935" lon="8.4552114"><ele>121.0</ele><time>2026-05-03T11:16:11.363Z</time></trkpt><trkpt lat="45.0562668" lon="8.4553104"><ele>121.0</ele><time>2026-05-03T11:16:12.364Z</time></trkpt><trkpt lat="45.0563393" lon="8.4554106"><ele>121.0</ele><time>2026-05-03T11:16:13.364Z</time></trkpt><trkpt lat="45.0564134" lon="8.455514"><ele>121.0</ele><time>2026-05-03T11:16:14.363Z</time></trkpt><trkpt lat="45.0564871" lon="8.455616"><ele>121.0</ele><time>2026-05-03T11:16:15.363Z</time></trkpt><trkpt lat="45.0565608" lon="8.4557172"><ele>121.0</ele><time>2026-05-03T11:16:16.363Z</time></trkpt><trkpt lat="45.0566339" lon="8.4558174"><ele>121.0</ele><time>2026-05-03T11:16:17.363Z</time></trkpt><trkpt lat="45.056707" lon="8.4559178"><ele>121.0</ele><time>2026-05-03T11:16:18.363Z</time></trkpt><trkpt lat="45.0567817" lon="8.4560189"><ele>121.0</ele><time>2026-05-03T11:16:19.363Z</time></trkpt><trkpt lat="45.056857" lon="8.4561193"><ele>121.4</ele><time>2026-05-03T11:16:20.363Z</time></trkpt><trkpt lat="45.0569344" lon="8.4562197"><ele>121.8</ele><time>2026-05-03T11:16:21.363Z</time></trkpt><trkpt lat="45.0570132" lon="8.456322"><ele>122.20000000000002</ele><time>2026-05-03T11:16:22.363Z</time></trkpt><trkpt lat="45.0570882" lon="8.4564226"><ele>122.60000000000001</ele><time>2026-05-03T11:16:23.363Z</time></trkpt><trkpt lat="45.0571599" lon="8.4565183"><ele>123.0</ele><time>2026-05-03T11:16:24.363Z</time></trkpt><trkpt lat="45.0572332" lon="8.4566134"><ele>123.0</ele><time>2026-05-03T11:16:25.363Z</time></trkpt><trkpt lat="45.0573078" lon="8.4567143"><ele>123.00000000000001</ele><time>2026-05-03T11:16:26.363Z</time></trkpt><trkpt lat="45.0573854" lon="8.4568225"><ele>123.00000000000001</ele><time>2026-05-03T11:16:27.363Z</time></trkpt><trkpt lat="45.0574669" lon="8.4569295"><ele>123.0</ele><time>2026-05-03T11:16:28.364Z</time></trkpt><trkpt lat="45.0575456" lon="8.4570314"><ele>123.0</ele><time>2026-05-03T11:16:29.363Z</time></trkpt><trkpt lat="45.0576228" lon="8.4571309"><ele>123.0</ele><time>2026-05-03T11:16:30.364Z</time></trkpt><trkpt lat="45.0576985" lon="8.4572316"><ele>123.00000000000001</ele><time>2026-05-03T11:16:31.363Z</time></trkpt><trkpt lat="45.057773" lon="8.4573317"><ele>123.00000000000001</ele><time>2026-05-03T11:16:32.364Z</time></trkpt><trkpt lat="45.0578438" lon="8.4574307"><ele>123.0</ele><time>2026-05-03T11:16:33.363Z</time></trkpt><trkpt lat="45.0579137" lon="8.4575278"><ele>123.0</ele><time>2026-05-03T11:16:34.363Z</time></trkpt><trkpt lat="45.0579844" lon="8.4576236"><ele>123.0</ele><time>2026-05-03T11:16:35.363Z</time></trkpt><trkpt lat="45.0580551" lon="8.4577197"><ele>123.00000000000001</ele><time>2026-05-03T11:16:36.364Z</time></trkpt><trkpt lat="45.058126" lon="8.4578159"><ele>123.00000000000001</ele><time>2026-05-03T11:16:37.363Z</time></trkpt><trkpt lat="45.0581973" lon="8.4579112"><ele>123.0</ele><time>2026-05-03T11:16:38.363Z</time></trkpt><trkpt lat="45.0582669" lon="8.458002"><ele>123.0</ele><time>2026-05-03T11:16:39.364Z</time></trkpt><trkpt lat="45.0583389" lon="8.458097"><ele>123.0</ele><time>2026-05-03T11:16:40.364Z</time></trkpt><trkpt lat="45.0584072" lon="8.4581906"><ele>123.00000000000001</ele><time>2026-05-03T11:16:41.365Z</time></trkpt><trkpt lat="45.0584731" lon="8.4582844"><ele>123.00000000000001</ele><time>2026-05-03T11:16:42.364Z</time></trkpt><trkpt lat="45.0585432" lon="8.45838"><ele>123.0</ele><time>2026-05-03T11:16:43.364Z</time></trkpt><trkpt lat="45.0586134" lon="8.4584733"><ele>123.0</ele><time>2026-05-03T11:16:44.364Z</time></trkpt><trkpt lat="45.0586851" lon="8.4585676"><ele>123.0</ele><time>2026-05-03T11:16:45.364Z</time></trkpt><trkpt lat="45.0587584" lon="8.4586635"><ele>123.00000000000001</ele><time>2026-05-03T11:16:46.365Z</time></trkpt><trkpt lat="45.058832" lon="8.4587601"><ele>123.00000000000001</ele><time>2026-05-03T11:16:47.364Z</time></trkpt><trkpt lat="45.0589077" lon="8.4588589"><ele>123.0</ele><time>2026-05-03T11:16:48.365Z</time></trkpt><trkpt lat="45.0589818" lon="8.4589553"><ele>123.0</ele><time>2026-05-03T11:16:49.365Z</time></trkpt><trkpt lat="45.0590529" lon="8.4590519"><ele>122.60000000000001</ele><time>2026-05-03T11:16:50.365Z</time></trkpt><trkpt lat="45.0591246" lon="8.4591486"><ele>122.20000000000002</ele><time>2026-05-03T11:16:51.365Z</time></trkpt><trkpt lat="45.0591963" lon="8.4592445"><ele>121.8</ele><time>2026-05-03T11:16:52.365Z</time></trkpt><trkpt lat="45.0592675" lon="8.459341"><ele>121.4</ele><time>2026-05-03T11:16:53.364Z</time></trkpt><trkpt lat="45.0593408" lon="8.4594398"><ele>121.0</ele><time>2026-05-03T11:16:54.364Z</time></trkpt><trkpt lat="45.0594146" lon="8.4595374"><ele>121.0</ele><time>2026-05-03T11:16:55.364Z</time></trkpt><trkpt lat="45.059487" lon="8.4596359"><ele>121.0</ele><time>2026-05-03T11:16:56.364Z</time></trkpt><trkpt lat="45.0595593" lon="8.4597345"><ele>121.0</ele><time>2026-05-03T11:16:57.364Z</time></trkpt><trkpt lat="45.0596309" lon="8.4598331"><ele>121.0</ele><time>2026-05-03T11:16:58.364Z</time></trkpt><trkpt lat="45.0597027" lon="8.4599322"><ele>121.0</ele><time>2026-05-03T11:16:59.364Z</time></trkpt><trkpt lat="45.0597753" lon="8.4600297"><ele>121.0</ele><time>2026-05-03T11:17:00.365Z</time></trkpt><trkpt lat="45.0598476" lon="8.4601273"><ele>121.0</ele><time>2026-05-03T11:17:01.365Z</time></trkpt><trkpt lat="45.0599189" lon="8.460225"><ele>121.0</ele><time>2026-05-03T11:17:02.364Z</time></trkpt><trkpt lat="45.0599903" lon="8.460323"><ele>121.0</ele><time>2026-05-03T11:17:03.364Z</time></trkpt><trkpt lat="45.0600616" lon="8.4604197"><ele>121.0</ele><time>2026-05-03T11:17:04.364Z</time></trkpt><trkpt lat="45.0601343" lon="8.4605195"><ele>120.8</ele><time>2026-05-03T11:17:05.365Z</time></trkpt><trkpt lat="45.0602059" lon="8.4606196"><ele>120.6</ele><time>2026-05-03T11:17:06.364Z</time></trkpt><trkpt lat="45.0602785" lon="8.4607195"><ele>120.4</ele><time>2026-05-03T11:17:07.364Z</time></trkpt><trkpt lat="45.0603511" lon="8.460819"><ele>120.2</ele><time>2026-05-03T11:17:08.364Z</time></trkpt><trkpt lat="45.060423" lon="8.4609178"><ele>120.0</ele><time>2026-05-03T11:17:09.364Z</time></trkpt><trkpt lat="45.0604943" lon="8.4610129"><ele>120.0</ele><time>2026-05-03T11:17:10.365Z</time></trkpt><trkpt lat="45.0605634" lon="8.4611028"><ele>120.0</ele><time>2026-05-03T11:17:11.364Z</time></trkpt><trkpt lat="45.0606313" lon="8.461191"><ele>120.0</ele><time>2026-05-03T11:17:12.364Z</time></trkpt><trkpt lat="45.060695" lon="8.4612801"><ele>120.0</ele><time>2026-05-03T11:17:13.364Z</time></trkpt><trkpt lat="45.0607568" lon="8.4613664"><ele>120.0</ele><time>2026-05-03T11:17:14.365Z</time></trkpt><trkpt lat="45.0608187" lon="8.461449"><ele>120.0</ele><time>2026-05-03T11:17:15.364Z</time></trkpt><trkpt lat="45.0608811" lon="8.4615321"><ele>120.0</ele><time>2026-05-03T11:17:16.365Z</time></trkpt><trkpt lat="45.0609437" lon="8.4616155"><ele>120.0</ele><time>2026-05-03T11:17:17.364Z</time></trkpt><trkpt lat="45.061003" lon="8.4616976"><ele>120.0</ele><time>2026-05-03T11:17:18.364Z</time></trkpt><trkpt lat="45.0610608" lon="8.461784"><ele>120.0</ele><time>2026-05-03T11:17:19.365Z</time></trkpt><trkpt lat="45.0611171" lon="8.4618645"><ele>120.0</ele><time>2026-05-03T11:17:20.364Z</time></trkpt><trkpt lat="45.0611726" lon="8.4619419"><ele>120.0</ele><time>2026-05-03T11:17:21.364Z</time></trkpt><trkpt lat="45.0612275" lon="8.462014"><ele>120.0</ele><time>2026-05-03T11:17:22.364Z</time></trkpt><trkpt lat="45.061281" lon="8.4620828"><ele>120.0</ele><time>2026-05-03T11:17:23.365Z</time></trkpt><trkpt lat="45.0613303" lon="8.4621493"><ele>120.0</ele><time>2026-05-03T11:17:24.365Z</time></trkpt><trkpt lat="45.0613985" lon="8.4622581"><ele>120.0</ele><time>2026-05-03T11:17:26.365Z</time></trkpt><trkpt lat="45.0614339" lon="8.462335"><ele>120.0</ele><time>2026-05-03T11:17:29.365Z</time></trkpt><trkpt lat="45.0614826" lon="8.4624064"><ele>120.0</ele><time>2026-05-03T11:17:55.366Z</time></trkpt><trkpt lat="45.0615156" lon="8.4624846"><ele>120.0</ele><time>2026-05-03T11:17:57.365Z</time></trkpt><trkpt lat="45.0615997" lon="8.462546"><ele>120.0</ele><time>2026-05-03T11:17:59.365Z</time></trkpt><trkpt lat="45.0616945" lon="8.4626424"><ele>120.0</ele><time>2026-05-03T11:18:01.365Z</time></trkpt><trkpt lat="45.0617429" lon="8.4627005"><ele>120.0</ele><time>2026-05-03T11:18:02.365Z</time></trkpt><trkpt lat="45.0618251" lon="8.4628028"><ele>120.0</ele><time>2026-05-03T11:18:04.366Z</time></trkpt><trkpt lat="45.0619029" lon="8.4628924"><ele>120.0</ele><time>2026-05-03T11:18:06.365Z</time></trkpt><trkpt lat="45.0620005" lon="8.4630134"><ele>120.0</ele><time>2026-05-03T11:18:08.365Z</time></trkpt><trkpt lat="45.0620464" lon="8.4630835"><ele>120.0</ele><time>2026-05-03T11:18:09.366Z</time></trkpt><trkpt lat="45.0621269" lon="8.4631817"><ele>120.0</ele><time>2026-05-03T11:18:11.365Z</time></trkpt><trkpt lat="45.0622136" lon="8.4631729"><ele>120.0</ele><time>2026-05-03T11:18:13.365Z</time></trkpt><trkpt lat="45.0622657" lon="8.4631194"><ele>120.0</ele><time>2026-05-03T11:18:14.365Z</time></trkpt><trkpt lat="45.062315" lon="8.4630617"><ele>120.0</ele><time>2026-05-03T11:18:15.367Z</time></trkpt><trkpt lat="45.0623711" lon="8.4630052"><ele>120.16666666666667</ele><time>2026-05-03T11:18:16.367Z</time></trkpt><trkpt lat="45.0624875" lon="8.4629255"><ele>120.33333333333334</ele><time>2026-05-03T11:18:18.366Z</time></trkpt><trkpt lat="45.0625523" lon="8.4628878"><ele>120.5</ele><time>2026-05-03T11:18:19.366Z</time></trkpt><trkpt lat="45.0626135" lon="8.4628483"><ele>120.66666666666667</ele><time>2026-05-03T11:18:20.366Z</time></trkpt><trkpt lat="45.0626761" lon="8.4628015"><ele>120.83333333333334</ele><time>2026-05-03T11:18:21.366Z</time></trkpt><trkpt lat="45.0627473" lon="8.4627448"><ele>121.0</ele><time>2026-05-03T11:18:22.367Z</time></trkpt><trkpt lat="45.0628205" lon="8.4626886"><ele>121.00000000000001</ele><time>2026-05-03T11:18:23.366Z</time></trkpt><trkpt lat="45.0628913" lon="8.4626352"><ele>121.0</ele><time>2026-05-03T11:18:24.367Z</time></trkpt><trkpt lat="45.0629628" lon="8.4625825"><ele>121.0</ele><time>2026-05-03T11:18:25.366Z</time></trkpt><trkpt lat="45.0630335" lon="8.4625294"><ele>121.0</ele><time>2026-05-03T11:18:26.367Z</time></trkpt><trkpt lat="45.0631057" lon="8.4624808"><ele>121.00000000000001</ele><time>2026-05-03T11:18:27.366Z</time></trkpt><trkpt lat="45.0631767" lon="8.4624309"><ele>121.0</ele><time>2026-05-03T11:18:28.367Z</time></trkpt><trkpt lat="45.063248" lon="8.4623794"><ele>121.33333333333334</ele><time>2026-05-03T11:18:29.366Z</time></trkpt><trkpt lat="45.0633185" lon="8.4623292"><ele>121.66666666666667</ele><time>2026-05-03T11:18:30.366Z</time></trkpt><trkpt lat="45.0633873" lon="8.462277"><ele>122.0</ele><time>2026-05-03T11:18:31.367Z</time></trkpt><trkpt lat="45.0634577" lon="8.4622257"><ele>122.33333333333334</ele><time>2026-05-03T11:18:32.366Z</time></trkpt><trkpt lat="45.0635297" lon="8.4621765"><ele>122.66666666666667</ele><time>2026-05-03T11:18:33.366Z</time></trkpt><trkpt lat="45.063602" lon="8.4621271"><ele>123.0</ele><time>2026-05-03T11:18:34.366Z</time></trkpt><trkpt lat="45.0636761" lon="8.4620776"><ele>123.0</ele><time>2026-05-03T11:18:35.366Z</time></trkpt><trkpt lat="45.0637501" lon="8.4620277"><ele>123.0</ele><time>2026-05-03T11:18:36.366Z</time></trkpt><trkpt lat="45.0638234" lon="8.461977"><ele>123.0</ele><time>2026-05-03T11:18:37.366Z</time></trkpt><trkpt lat="45.0638976" lon="8.4619234"><ele>123.0</ele><time>2026-05-03T11:18:38.367Z</time></trkpt><trkpt lat="45.0639712" lon="8.4618723"><ele>123.0</ele><time>2026-05-03T11:18:39.367Z</time></trkpt><trkpt lat="45.0640428" lon="8.4618263"><ele>123.0</ele><time>2026-05-03T11:18:40.366Z</time></trkpt><trkpt lat="45.0641207" lon="8.461782"><ele>123.16666666666667</ele><time>2026-05-03T11:18:41.366Z</time></trkpt><trkpt lat="45.0641975" lon="8.4617336"><ele>123.33333333333334</ele><time>2026-05-03T11:18:42.366Z</time></trkpt><trkpt lat="45.0642721" lon="8.4616823"><ele>123.5</ele><time>2026-05-03T11:18:43.367Z</time></trkpt><trkpt lat="45.0643439" lon="8.4616255"><ele>123.66666666666667</ele><time>2026-05-03T11:18:44.366Z</time></trkpt><trkpt lat="45.0644178" lon="8.4615635"><ele>123.83333333333334</ele><time>2026-05-03T11:18:45.367Z</time></trkpt><trkpt lat="45.0644956" lon="8.4615064"><ele>124.0</ele><time>2026-05-03T11:18:46.366Z</time></trkpt><trkpt lat="45.0645772" lon="8.4614552"><ele>124.00000000000001</ele><time>2026-05-03T11:18:47.366Z</time></trkpt><trkpt lat="45.064659" lon="8.4614006"><ele>124.0</ele><time>2026-05-03T11:18:48.366Z</time></trkpt><trkpt lat="45.0647376" lon="8.4613431"><ele>124.0</ele><time>2026-05-03T11:18:49.367Z</time></trkpt><trkpt lat="45.0648143" lon="8.4612802"><ele>124.0</ele><time>2026-05-03T11:18:50.366Z</time></trkpt><trkpt lat="45.0648885" lon="8.4612131"><ele>124.00000000000001</ele><time>2026-05-03T11:18:51.366Z</time></trkpt><trkpt lat="45.0649619" lon="8.461145"><ele>124.0</ele><time>2026-05-03T11:18:52.366Z</time></trkpt><trkpt lat="45.0650313" lon="8.4610811"><ele>124.33333333333334</ele><time>2026-05-03T11:18:53.366Z</time></trkpt><trkpt lat="45.0650987" lon="8.461013"><ele>124.66666666666667</ele><time>2026-05-03T11:18:54.366Z</time></trkpt><trkpt lat="45.065164" lon="8.4609439"><ele>125.0</ele><time>2026-05-03T11:18:55.366Z</time></trkpt><trkpt lat="45.0652344" lon="8.4608704"><ele>125.33333333333334</ele><time>2026-05-03T11:18:56.366Z</time></trkpt><trkpt lat="45.065306" lon="8.4608012"><ele>125.66666666666667</ele><time>2026-05-03T11:18:57.366Z</time></trkpt><trkpt lat="45.0653784" lon="8.4607339"><ele>126.0</ele><time>2026-05-03T11:18:58.366Z</time></trkpt><trkpt lat="45.0654506" lon="8.46067"><ele>126.0</ele><time>2026-05-03T11:18:59.366Z</time></trkpt><trkpt lat="45.0655209" lon="8.4606072"><ele>126.0</ele><time>2026-05-03T11:19:00.366Z</time></trkpt><trkpt lat="45.0655909" lon="8.4605417"><ele>126.0</ele><time>2026-05-03T11:19:01.367Z</time></trkpt><trkpt lat="45.0656592" lon="8.4604746"><ele>126.0</ele><time>2026-05-03T11:19:02.367Z</time></trkpt><trkpt lat="45.0657264" lon="8.4604066"><ele>126.0</ele><time>2026-05-03T11:19:03.367Z</time></trkpt><trkpt lat="45.0657901" lon="8.4603393"><ele>126.0</ele><time>2026-05-03T11:19:04.367Z</time></trkpt><trkpt lat="45.0658513" lon="8.4602718"><ele>126.5</ele><time>2026-05-03T11:19:05.368Z</time></trkpt><trkpt lat="45.0659107" lon="8.4602014"><ele>127.0</ele><time>2026-05-03T11:19:06.368Z</time></trkpt><trkpt lat="45.0659654" lon="8.4601298"><ele>127.5</ele><time>2026-05-03T11:19:07.368Z</time></trkpt><trkpt lat="45.0660207" lon="8.4600555"><ele>128.0</ele><time>2026-05-03T11:19:08.367Z</time></trkpt><trkpt lat="45.0660794" lon="8.4599732"><ele>128.5</ele><time>2026-05-03T11:19:09.368Z</time></trkpt><trkpt lat="45.0661365" lon="8.4598927"><ele>129.0</ele><time>2026-05-03T11:19:10.367Z</time></trkpt><trkpt lat="45.0661933" lon="8.4598121"><ele>129.0</ele><time>2026-05-03T11:19:11.368Z</time></trkpt><trkpt lat="45.0662456" lon="8.4597319"><ele>129.0</ele><time>2026-05-03T11:19:12.368Z</time></trkpt><trkpt lat="45.0662965" lon="8.4596523"><ele>129.0</ele><time>2026-05-03T11:19:13.368Z</time></trkpt><trkpt lat="45.0663483" lon="8.4595694"><ele>129.0</ele><time>2026-05-03T11:19:14.368Z</time></trkpt><trkpt lat="45.0663991" lon="8.4594875"><ele>129.0</ele><time>2026-05-03T11:19:15.367Z</time></trkpt><trkpt lat="45.0664536" lon="8.4594137"><ele>129.0</ele><time>2026-05-03T11:19:16.368Z</time></trkpt><trkpt lat="45.0665119" lon="8.4593479"><ele>129.0</ele><time>2026-05-03T11:19:17.368Z</time></trkpt><trkpt lat="45.066583" lon="8.4592945"><ele>129.0</ele><time>2026-05-03T11:19:18.367Z</time></trkpt><trkpt lat="45.0666582" lon="8.4592529"><ele>129.0</ele><time>2026-05-03T11:19:19.367Z</time></trkpt><trkpt lat="45.0667405" lon="8.4592206"><ele>129.0</ele><time>2026-05-03T11:19:20.367Z</time></trkpt><trkpt lat="45.0668243" lon="8.4591859"><ele>129.0</ele><time>2026-05-03T11:19:21.367Z</time></trkpt><trkpt lat="45.0669099" lon="8.4591495"><ele>129.0</ele><time>2026-05-03T11:19:22.367Z</time></trkpt><trkpt lat="45.0669941" lon="8.4591056"><ele>129.66666666666666</ele><time>2026-05-03T11:19:23.367Z</time></trkpt><trkpt lat="45.0670745" lon="8.4590576"><ele>130.33333333333334</ele><time>2026-05-03T11:19:24.367Z</time></trkpt><trkpt lat="45.0671533" lon="8.4590019"><ele>131.0</ele><time>2026-05-03T11:19:25.368Z</time></trkpt><trkpt lat="45.0672275" lon="8.4589373"><ele>131.66666666666669</ele><time>2026-05-03T11:19:26.368Z</time></trkpt><trkpt lat="45.0672948" lon="8.4588611"><ele>132.33333333333334</ele><time>2026-05-03T11:19:27.367Z</time></trkpt><trkpt lat="45.067357" lon="8.4587727"><ele>133.0</ele><time>2026-05-03T11:19:28.368Z</time></trkpt><trkpt lat="45.0674157" lon="8.4586764"><ele>133.4</ele><time>2026-05-03T11:19:29.367Z</time></trkpt><trkpt lat="45.0674718" lon="8.4585771"><ele>133.8</ele><time>2026-05-03T11:19:30.367Z</time></trkpt><trkpt lat="45.0675249" lon="8.4584739"><ele>134.2</ele><time>2026-05-03T11:19:31.368Z</time></trkpt><trkpt lat="45.067576" lon="8.4583674"><ele>134.6</ele><time>2026-05-03T11:19:32.368Z</time></trkpt><trkpt lat="45.0676266" lon="8.4582602"><ele>135.0</ele><time>2026-05-03T11:19:33.367Z</time></trkpt><trkpt lat="45.0676781" lon="8.4581547"><ele>135.0</ele><time>2026-05-03T11:19:34.367Z</time></trkpt><trkpt lat="45.0677332" lon="8.4580527"><ele>135.0</ele><time>2026-05-03T11:19:35.367Z</time></trkpt><trkpt lat="45.0677892" lon="8.4579522"><ele>135.0</ele><time>2026-05-03T11:19:36.367Z</time></trkpt><trkpt lat="45.0678445" lon="8.45785"><ele>135.0</ele><time>2026-05-03T11:19:37.367Z</time></trkpt><trkpt lat="45.0678988" lon="8.4577476"><ele>135.0</ele><time>2026-05-03T11:19:38.368Z</time></trkpt><trkpt lat="45.0679527" lon="8.4576449"><ele>135.6</ele><time>2026-05-03T11:19:39.367Z</time></trkpt><trkpt lat="45.068007" lon="8.4575407"><ele>136.2</ele><time>2026-05-03T11:19:40.367Z</time></trkpt><trkpt lat="45.0680622" lon="8.457437"><ele>136.8</ele><time>2026-05-03T11:19:41.367Z</time></trkpt><trkpt lat="45.0681179" lon="8.4573329"><ele>137.4</ele><time>2026-05-03T11:19:42.367Z</time></trkpt><trkpt lat="45.0681736" lon="8.4572287"><ele>138.0</ele><time>2026-05-03T11:19:43.367Z</time></trkpt><trkpt lat="45.0682278" lon="8.4571239"><ele>138.0</ele><time>2026-05-03T11:19:44.367Z</time></trkpt><trkpt lat="45.0682829" lon="8.4570183"><ele>138.0</ele><time>2026-05-03T11:19:45.367Z</time></trkpt><trkpt lat="45.0683388" lon="8.4569144"><ele>138.0</ele><time>2026-05-03T11:19:46.368Z</time></trkpt><trkpt lat="45.0683932" lon="8.4568119"><ele>138.0</ele><time>2026-05-03T11:19:47.367Z</time></trkpt><trkpt lat="45.0684442" lon="8.4567059"><ele>138.0</ele><time>2026-05-03T11:19:48.367Z</time></trkpt><trkpt lat="45.0684961" lon="8.4565993"><ele>138.0</ele><time>2026-05-03T11:19:49.367Z</time></trkpt><trkpt lat="45.0685495" lon="8.4564938"><ele>138.0</ele><time>2026-05-03T11:19:50.368Z</time></trkpt><trkpt lat="45.0686068" lon="8.4563924"><ele>138.0</ele><time>2026-05-03T11:19:51.368Z</time></trkpt><trkpt lat="45.0686705" lon="8.4562955"><ele>138.0</ele><time>2026-05-03T11:19:52.369Z</time></trkpt><trkpt lat="45.068739" lon="8.4562072"><ele>138.0</ele><time>2026-05-03T11:19:53.368Z</time></trkpt><trkpt lat="45.0688156" lon="8.4561252"><ele>138.0</ele><time>2026-05-03T11:19:54.368Z</time></trkpt><trkpt lat="45.0688996" lon="8.4560551"><ele>138.0</ele><time>2026-05-03T11:19:55.368Z</time></trkpt><trkpt lat="45.0689894" lon="8.4559917"><ele>138.0</ele><time>2026-05-03T11:19:56.368Z</time></trkpt><trkpt lat="45.0690773" lon="8.4559288"><ele>138.0</ele><time>2026-05-03T11:19:57.368Z</time></trkpt><trkpt lat="45.0691652" lon="8.4558653"><ele>138.0</ele><time>2026-05-03T11:19:58.368Z</time></trkpt><trkpt lat="45.0692527" lon="8.4558018"><ele>138.4</ele><time>2026-05-03T11:19:59.368Z</time></trkpt><trkpt lat="45.0693394" lon="8.4557377"><ele>138.8</ele><time>2026-05-03T11:20:00.368Z</time></trkpt><trkpt lat="45.069427" lon="8.4556779"><ele>139.2</ele><time>2026-05-03T11:20:01.369Z</time></trkpt><trkpt lat="45.0695141" lon="8.4556222"><ele>139.6</ele><time>2026-05-03T11:20:02.368Z</time></trkpt><trkpt lat="45.0696026" lon="8.4555707"><ele>140.0</ele><time>2026-05-03T11:20:03.368Z</time></trkpt><trkpt lat="45.0696902" lon="8.455519"><ele>140.0</ele><time>2026-05-03T11:20:04.368Z</time></trkpt><trkpt lat="45.0697779" lon="8.4554668"><ele>140.0</ele><time>2026-05-03T11:20:05.368Z</time></trkpt><trkpt lat="45.0698652" lon="8.4554134"><ele>140.0</ele><time>2026-05-03T11:20:06.368Z</time></trkpt><trkpt lat="45.069953" lon="8.4553572"><ele>140.0</ele><time>2026-05-03T11:20:07.368Z</time></trkpt><trkpt lat="45.0700428" lon="8.4552993"><ele>140.0</ele><time>2026-05-03T11:20:08.369Z</time></trkpt><trkpt lat="45.0701318" lon="8.45524"><ele>139.8</ele><time>2026-05-03T11:20:09.368Z</time></trkpt><trkpt lat="45.0702184" lon="8.4551812"><ele>139.6</ele><time>2026-05-03T11:20:10.369Z</time></trkpt><trkpt lat="45.0703057" lon="8.4551254"><ele>139.4</ele><time>2026-05-03T11:20:11.368Z</time></trkpt><trkpt lat="45.0703941" lon="8.4550716"><ele>139.2</ele><time>2026-05-03T11:20:12.368Z</time></trkpt><trkpt lat="45.0704831" lon="8.4550168"><ele>139.0</ele><time>2026-05-03T11:20:13.368Z</time></trkpt><trkpt lat="45.0705715" lon="8.4549594"><ele>139.0</ele><time>2026-05-03T11:20:14.368Z</time></trkpt><trkpt lat="45.0706589" lon="8.4548995"><ele>139.0</ele><time>2026-05-03T11:20:15.368Z</time></trkpt><trkpt lat="45.0707457" lon="8.4548381"><ele>139.0</ele><time>2026-05-03T11:20:16.368Z</time></trkpt><trkpt lat="45.0708321" lon="8.4547816"><ele>139.0</ele><time>2026-05-03T11:20:17.368Z</time></trkpt><trkpt lat="45.0709195" lon="8.4547241"><ele>139.0</ele><time>2026-05-03T11:20:18.368Z</time></trkpt><trkpt lat="45.0710082" lon="8.4546634"><ele>139.6</ele><time>2026-05-03T11:20:19.369Z</time></trkpt><trkpt lat="45.0710967" lon="8.454601"><ele>140.2</ele><time>2026-05-03T11:20:20.368Z</time></trkpt><trkpt lat="45.0711864" lon="8.4545364"><ele>140.79999999999998</ele><time>2026-05-03T11:20:21.369Z</time></trkpt><trkpt lat="45.0712766" lon="8.4544745"><ele>141.4</ele><time>2026-05-03T11:20:22.368Z</time></trkpt><trkpt lat="45.0713658" lon="8.4544136"><ele>142.0</ele><time>2026-05-03T11:20:23.369Z</time></trkpt><trkpt lat="45.0714543" lon="8.4543494"><ele>142.0</ele><time>2026-05-03T11:20:24.369Z</time></trkpt><trkpt lat="45.0715417" lon="8.454285"><ele>142.0</ele><time>2026-05-03T11:20:25.369Z</time></trkpt><trkpt lat="45.0716271" lon="8.4542192"><ele>142.0</ele><time>2026-05-03T11:20:26.368Z</time></trkpt><trkpt lat="45.0717169" lon="8.4541542"><ele>142.0</ele><time>2026-05-03T11:20:27.369Z</time></trkpt><trkpt lat="45.071799" lon="8.454081"><ele>142.0</ele><time>2026-05-03T11:20:28.369Z</time></trkpt><trkpt lat="45.071886" lon="8.4540107"><ele>142.6</ele><time>2026-05-03T11:20:29.368Z</time></trkpt><trkpt lat="45.0719719" lon="8.4539408"><ele>143.2</ele><time>2026-05-03T11:20:30.369Z</time></trkpt><trkpt lat="45.0720583" lon="8.4538674"><ele>143.8</ele><time>2026-05-03T11:20:31.369Z</time></trkpt><trkpt lat="45.0721426" lon="8.4537943"><ele>144.4</ele><time>2026-05-03T11:20:32.369Z</time></trkpt><trkpt lat="45.0722279" lon="8.4537205"><ele>145.0</ele><time>2026-05-03T11:20:33.368Z</time></trkpt><trkpt lat="45.0723139" lon="8.4536441"><ele>145.0</ele><time>2026-05-03T11:20:34.368Z</time></trkpt><trkpt lat="45.0723978" lon="8.4535683"><ele>145.0</ele><time>2026-05-03T11:20:35.368Z</time></trkpt><trkpt lat="45.0724814" lon="8.4534926"><ele>145.0</ele><time>2026-05-03T11:20:36.368Z</time></trkpt><trkpt lat="45.0725645" lon="8.4534156"><ele>145.0</ele><time>2026-05-03T11:20:37.368Z</time></trkpt><trkpt lat="45.0726489" lon="8.4533374"><ele>145.0</ele><time>2026-05-03T11:20:38.369Z</time></trkpt><trkpt lat="45.0727332" lon="8.453261"><ele>145.2</ele><time>2026-05-03T11:20:39.37Z</time></trkpt><trkpt lat="45.0728177" lon="8.4531878"><ele>145.4</ele><time>2026-05-03T11:20:40.369Z</time></trkpt><trkpt lat="45.0728992" lon="8.4531167"><ele>145.6</ele><time>2026-05-03T11:20:41.369Z</time></trkpt><trkpt lat="45.0729797" lon="8.4530451"><ele>145.8</ele><time>2026-05-03T11:20:42.369Z</time></trkpt><trkpt lat="45.0730614" lon="8.4529742"><ele>146.0</ele><time>2026-05-03T11:20:43.369Z</time></trkpt><trkpt lat="45.0731402" lon="8.4529056"><ele>146.4</ele><time>2026-05-03T11:20:44.37Z</time></trkpt><trkpt lat="45.0732258" lon="8.4528263"><ele>146.8</ele><time>2026-05-03T11:20:45.37Z</time></trkpt><trkpt lat="45.073308" lon="8.4527563"><ele>147.20000000000002</ele><time>2026-05-03T11:20:46.369Z</time></trkpt><trkpt lat="45.0733947" lon="8.4526878"><ele>147.6</ele><time>2026-05-03T11:20:47.37Z</time></trkpt><trkpt lat="45.0734867" lon="8.4526266"><ele>148.0</ele><time>2026-05-03T11:20:48.369Z</time></trkpt><trkpt lat="45.0735815" lon="8.4525681"><ele>148.0</ele><time>2026-05-03T11:20:49.369Z</time></trkpt><trkpt lat="45.0736747" lon="8.4525114"><ele>148.0</ele><time>2026-05-03T11:20:50.37Z</time></trkpt><trkpt lat="45.0737655" lon="8.4524544"><ele>148.0</ele><time>2026-05-03T11:20:51.369Z</time></trkpt><trkpt lat="45.0738553" lon="8.4523962"><ele>148.0</ele><time>2026-05-03T11:20:52.369Z</time></trkpt><trkpt lat="45.0739449" lon="8.4523359"><ele>148.0</ele><time>2026-05-03T11:20:53.369Z</time></trkpt><trkpt lat="45.0740338" lon="8.4522748"><ele>147.8</ele><time>2026-05-03T11:20:54.37Z</time></trkpt><trkpt lat="45.0741218" lon="8.4522138"><ele>147.60000000000002</ele><time>2026-05-03T11:20:55.369Z</time></trkpt><trkpt lat="45.0742066" lon="8.4521546"><ele>147.39999999999998</ele><time>2026-05-03T11:20:56.37Z</time></trkpt><trkpt lat="45.0742917" lon="8.4520949"><ele>147.2</ele><time>2026-05-03T11:20:57.369Z</time></trkpt><trkpt lat="45.0743785" lon="8.4520339"><ele>147.0</ele><time>2026-05-03T11:20:58.37Z</time></trkpt><trkpt lat="45.0744637" lon="8.4519731"><ele>147.0</ele><time>2026-05-03T11:20:59.369Z</time></trkpt><trkpt lat="45.0745494" lon="8.4519123"><ele>147.0</ele><time>2026-05-03T11:21:00.369Z</time></trkpt><trkpt lat="45.0746355" lon="8.451854"><ele>147.0</ele><time>2026-05-03T11:21:01.369Z</time></trkpt><trkpt lat="45.0747217" lon="8.451796"><ele>147.0</ele><time>2026-05-03T11:21:02.371Z</time></trkpt><trkpt lat="45.0748077" lon="8.4517377"><ele>147.0</ele><time>2026-05-03T11:21:03.369Z</time></trkpt><trkpt lat="45.0748926" lon="8.451678"><ele>147.2</ele><time>2026-05-03T11:21:04.369Z</time></trkpt><trkpt lat="45.074977" lon="8.451617"><ele>147.39999999999998</ele><time>2026-05-03T11:21:05.369Z</time></trkpt><trkpt lat="45.0750599" lon="8.4515557"><ele>147.60000000000002</ele><time>2026-05-03T11:21:06.369Z</time></trkpt><trkpt lat="45.0751435" lon="8.4514963"><ele>147.8</ele><time>2026-05-03T11:21:07.37Z</time></trkpt><trkpt lat="45.0752272" lon="8.4514398"><ele>148.0</ele><time>2026-05-03T11:21:08.369Z</time></trkpt><trkpt lat="45.0753106" lon="8.4513843"><ele>148.0</ele><time>2026-05-03T11:21:09.37Z</time></trkpt><trkpt lat="45.0753949" lon="8.4513289"><ele>148.0</ele><time>2026-05-03T11:21:10.369Z</time></trkpt><trkpt lat="45.0754789" lon="8.4512731"><ele>148.0</ele><time>2026-05-03T11:21:11.37Z</time></trkpt><trkpt lat="45.0755615" lon="8.4512166"><ele>148.0</ele><time>2026-05-03T11:21:12.369Z</time></trkpt><trkpt lat="45.0756378" lon="8.4511639"><ele>148.0</ele><time>2026-05-03T11:21:13.37Z</time></trkpt><trkpt lat="45.0757074" lon="8.4511179"><ele>148.0</ele><time>2026-05-03T11:21:14.369Z</time></trkpt><trkpt lat="45.0757669" lon="8.4510768"><ele>148.5</ele><time>2026-05-03T11:21:15.369Z</time></trkpt><trkpt lat="45.0758556" lon="8.4510077"><ele>149.0</ele><time>2026-05-03T11:21:17.37Z</time></trkpt><trkpt lat="45.075951" lon="8.4509391"><ele>149.5</ele><time>2026-05-03T11:21:19.369Z</time></trkpt><trkpt lat="45.0760108" lon="8.4509014"><ele>150.0</ele><time>2026-05-03T11:21:20.369Z</time></trkpt><trkpt lat="45.0760742" lon="8.45086"><ele>150.5</ele><time>2026-05-03T11:21:21.369Z</time></trkpt><trkpt lat="45.0761407" lon="8.4508116"><ele>151.0</ele><time>2026-05-03T11:21:22.369Z</time></trkpt><trkpt lat="45.0762091" lon="8.4507574"><ele>151.0</ele><time>2026-05-03T11:21:23.369Z</time></trkpt><trkpt lat="45.0762799" lon="8.4507087"><ele>151.0</ele><time>2026-05-03T11:21:24.369Z</time></trkpt><trkpt lat="45.07635" lon="8.4506631"><ele>151.0</ele><time>2026-05-03T11:21:25.37Z</time></trkpt><trkpt lat="45.0764343" lon="8.4506143"><ele>151.0</ele><time>2026-05-03T11:21:26.37Z</time></trkpt><trkpt lat="45.0765138" lon="8.4505495"><ele>151.0</ele><time>2026-05-03T11:21:27.37Z</time></trkpt><trkpt lat="45.0765925" lon="8.4504751"><ele>151.0</ele><time>2026-05-03T11:21:28.371Z</time></trkpt><trkpt lat="45.0766663" lon="8.4503979"><ele>151.4</ele><time>2026-05-03T11:21:29.37Z</time></trkpt><trkpt lat="45.076744" lon="8.4503199"><ele>151.8</ele><time>2026-05-03T11:21:30.371Z</time></trkpt><trkpt lat="45.0768211" lon="8.4502411"><ele>152.20000000000002</ele><time>2026-05-03T11:21:31.37Z</time></trkpt><trkpt lat="45.0768973" lon="8.4501642"><ele>152.6</ele><time>2026-05-03T11:21:32.37Z</time></trkpt><trkpt lat="45.0769727" lon="8.4500891"><ele>153.0</ele><time>2026-05-03T11:21:33.371Z</time></trkpt><trkpt lat="45.0770483" lon="8.4500179"><ele>153.0</ele><time>2026-05-03T11:21:34.37Z</time></trkpt><trkpt lat="45.0771237" lon="8.4499476"><ele>153.0</ele><time>2026-05-03T11:21:35.371Z</time></trkpt><trkpt lat="45.0771979" lon="8.4498762"><ele>153.0</ele><time>2026-05-03T11:21:36.37Z</time></trkpt><trkpt lat="45.0772743" lon="8.449803"><ele>153.0</ele><time>2026-05-03T11:21:37.37Z</time></trkpt><trkpt lat="45.0773533" lon="8.4497303"><ele>153.0</ele><time>2026-05-03T11:21:38.37Z</time></trkpt><trkpt lat="45.0774332" lon="8.4496579"><ele>152.6</ele><time>2026-05-03T11:21:39.371Z</time></trkpt><trkpt lat="45.0775142" lon="8.4495861"><ele>152.20000000000002</ele><time>2026-05-03T11:21:40.37Z</time></trkpt><trkpt lat="45.0775937" lon="8.4495124"><ele>151.8</ele><time>2026-05-03T11:21:41.37Z</time></trkpt><trkpt lat="45.0776702" lon="8.4494352"><ele>151.4</ele><time>2026-05-03T11:21:42.37Z</time></trkpt><trkpt lat="45.077744" lon="8.4493557"><ele>151.0</ele><time>2026-05-03T11:21:43.37Z</time></trkpt><trkpt lat="45.0778195" lon="8.4492794"><ele>151.0</ele><time>2026-05-03T11:21:44.371Z</time></trkpt><trkpt lat="45.0778971" lon="8.4492067"><ele>151.0</ele><time>2026-05-03T11:21:45.37Z</time></trkpt><trkpt lat="45.0779721" lon="8.4491341"><ele>151.0</ele><time>2026-05-03T11:21:46.371Z</time></trkpt><trkpt lat="45.078044" lon="8.4490606"><ele>151.0</ele><time>2026-05-03T11:21:47.37Z</time></trkpt><trkpt lat="45.0781148" lon="8.4489868"><ele>151.0</ele><time>2026-05-03T11:21:48.371Z</time></trkpt><trkpt lat="45.0781844" lon="8.4489167"><ele>151.0</ele><time>2026-05-03T11:21:49.37Z</time></trkpt><trkpt lat="45.0782536" lon="8.4488506"><ele>151.66666666666669</ele><time>2026-05-03T11:21:50.37Z</time></trkpt><trkpt lat="45.0783252" lon="8.4487892"><ele>152.33333333333334</ele><time>2026-05-03T11:21:51.37Z</time></trkpt><trkpt lat="45.0783985" lon="8.4487228"><ele>153.0</ele><time>2026-05-03T11:21:52.37Z</time></trkpt><trkpt lat="45.0784717" lon="8.4486506"><ele>153.66666666666666</ele><time>2026-05-03T11:21:53.37Z</time></trkpt><trkpt lat="45.0785408" lon="8.448577"><ele>154.33333333333331</ele><time>2026-05-03T11:21:54.371Z</time></trkpt><trkpt lat="45.0786068" lon="8.4485069"><ele>155.0</ele><time>2026-05-03T11:21:55.37Z</time></trkpt><trkpt lat="45.0786689" lon="8.4484446"><ele>155.0</ele><time>2026-05-03T11:21:56.37Z</time></trkpt><trkpt lat="45.078725" lon="8.4483924"><ele>155.0</ele><time>2026-05-03T11:21:57.371Z</time></trkpt><trkpt lat="45.0788082" lon="8.4483089"><ele>155.0</ele><time>2026-05-03T11:21:59.37Z</time></trkpt><trkpt lat="45.0788964" lon="8.4482205"><ele>155.0</ele><time>2026-05-03T11:22:01.371Z</time></trkpt><trkpt lat="45.0789502" lon="8.4481667"><ele>155.0</ele><time>2026-05-03T11:22:02.37Z</time></trkpt><trkpt lat="45.0790045" lon="8.4481006"><ele>155.0</ele><time>2026-05-03T11:22:03.371Z</time></trkpt><trkpt lat="45.0790552" lon="8.4480258"><ele>156.28571428571428</ele><time>2026-05-03T11:22:04.37Z</time></trkpt><trkpt lat="45.0791041" lon="8.4479465"><ele>157.57142857142856</ele><time>2026-05-03T11:22:05.37Z</time></trkpt><trkpt lat="45.0791513" lon="8.4478738"><ele>158.85714285714283</ele><time>2026-05-03T11:22:06.37Z</time></trkpt><trkpt lat="45.0792011" lon="8.4478051"><ele>160.14285714285714</ele><time>2026-05-03T11:22:07.37Z</time></trkpt><trkpt lat="45.0792466" lon="8.4477276"><ele>161.42857142857142</ele><time>2026-05-03T11:22:08.37Z</time></trkpt><trkpt lat="45.0792848" lon="8.4476366"><ele>162.7142857142857</ele><time>2026-05-03T11:22:09.37Z</time></trkpt><trkpt lat="45.0793264" lon="8.4475474"><ele>164.0</ele><time>2026-05-03T11:22:10.371Z</time></trkpt><trkpt lat="45.0793641" lon="8.4474584"><ele>163.99999999999997</ele><time>2026-05-03T11:22:11.371Z</time></trkpt><trkpt lat="45.0793946" lon="8.4473642"><ele>164.0</ele><time>2026-05-03T11:22:12.37Z</time></trkpt><trkpt lat="45.0794196" lon="8.4472611"><ele>164.0</ele><time>2026-05-03T11:22:13.37Z</time></trkpt><trkpt lat="45.0794417" lon="8.4471579"><ele>164.0</ele><time>2026-05-03T11:22:14.37Z</time></trkpt><trkpt lat="45.0794665" lon="8.4470641"><ele>164.0</ele><time>2026-05-03T11:22:15.372Z</time></trkpt><trkpt lat="45.079491" lon="8.4469718"><ele>163.99999999999997</ele><time>2026-05-03T11:22:16.372Z</time></trkpt><trkpt lat="45.0795169" lon="8.4468783"><ele>164.0</ele><time>2026-05-03T11:22:17.371Z</time></trkpt><trkpt lat="45.0795478" lon="8.4467916"><ele>163.57142857142856</ele><time>2026-05-03T11:22:18.372Z</time></trkpt><trkpt lat="45.079589" lon="8.446724"><ele>163.14285714285714</ele><time>2026-05-03T11:22:19.372Z</time></trkpt><trkpt lat="45.0796478" lon="8.446676"><ele>162.71428571428572</ele><time>2026-05-03T11:22:20.372Z</time></trkpt><trkpt lat="45.0797159" lon="8.446654"><ele>162.28571428571428</ele><time>2026-05-03T11:22:21.371Z</time></trkpt><trkpt lat="45.0797888" lon="8.446648"><ele>161.85714285714286</ele><time>2026-05-03T11:22:22.371Z</time></trkpt><trkpt lat="45.079861" lon="8.4466527"><ele>161.42857142857142</ele><time>2026-05-03T11:22:23.372Z</time></trkpt><trkpt lat="45.0799362" lon="8.446656"><ele>161.0</ele><time>2026-05-03T11:22:24.372Z</time></trkpt><trkpt lat="45.0800108" lon="8.4466569"><ele>162.85714285714286</ele><time>2026-05-03T11:22:25.371Z</time></trkpt><trkpt lat="45.0800851" lon="8.4466513"><ele>164.71428571428572</ele><time>2026-05-03T11:22:26.371Z</time></trkpt><trkpt lat="45.0801585" lon="8.4466428"><ele>166.57142857142856</ele><time>2026-05-03T11:22:27.371Z</time></trkpt><trkpt lat="45.0802303" lon="8.4466349"><ele>168.42857142857144</ele><time>2026-05-03T11:22:28.371Z</time></trkpt><trkpt lat="45.0803038" lon="8.4466249"><ele>170.28571428571428</ele><time>2026-05-03T11:22:29.372Z</time></trkpt><trkpt lat="45.0803775" lon="8.4466145"><ele>172.14285714285714</ele><time>2026-05-03T11:22:30.371Z</time></trkpt><trkpt lat="45.0804519" lon="8.4466051"><ele>174.0</ele><time>2026-05-03T11:22:31.371Z</time></trkpt><trkpt lat="45.080527" lon="8.4465968"><ele>174.0</ele><time>2026-05-03T11:22:32.372Z</time></trkpt><trkpt lat="45.0806015" lon="8.446588"><ele>174.0</ele><time>2026-05-03T11:22:33.371Z</time></trkpt><trkpt lat="45.0806742" lon="8.4465755"><ele>174.0</ele><time>2026-05-03T11:22:34.372Z</time></trkpt><trkpt lat="45.0807473" lon="8.4465571"><ele>174.0</ele><time>2026-05-03T11:22:35.372Z</time></trkpt><trkpt lat="45.0808194" lon="8.4465289"><ele>174.0</ele><time>2026-05-03T11:22:36.371Z</time></trkpt><trkpt lat="45.0808879" lon="8.4464851"><ele>174.0</ele><time>2026-05-03T11:22:37.371Z</time></trkpt><trkpt lat="45.0809529" lon="8.4464271"><ele>174.0</ele><time>2026-05-03T11:22:38.371Z</time></trkpt><trkpt lat="45.0810131" lon="8.4463515"><ele>175.0</ele><time>2026-05-03T11:22:39.372Z</time></trkpt><trkpt lat="45.0810716" lon="8.4462676"><ele>176.0</ele><time>2026-05-03T11:22:40.371Z</time></trkpt><trkpt lat="45.0811364" lon="8.4461838"><ele>177.0</ele><time>2026-05-03T11:22:41.371Z</time></trkpt><trkpt lat="45.0811956" lon="8.4461141"><ele>178.0</ele><time>2026-05-03T11:22:42.371Z</time></trkpt><trkpt lat="45.081253" lon="8.4460495"><ele>179.0</ele><time>2026-05-03T11:22:43.372Z</time></trkpt><trkpt lat="45.0813428" lon="8.4459489"><ele>180.0</ele><time>2026-05-03T11:22:45.371Z</time></trkpt><trkpt lat="45.0814239" lon="8.4458729"><ele>180.0</ele><time>2026-05-03T11:22:47.372Z</time></trkpt><trkpt lat="45.0815066" lon="8.4458054"><ele>180.0</ele><time>2026-05-03T11:22:50.372Z</time></trkpt><trkpt lat="45.081563" lon="8.445737"><ele>180.0</ele><time>2026-05-03T11:22:52.371Z</time></trkpt><trkpt lat="45.0816648" lon="8.4456547"><ele>180.0</ele><time>2026-05-03T11:22:54.371Z</time></trkpt><trkpt lat="45.0817345" lon="8.4456022"><ele>180.0</ele><time>2026-05-03T11:22:55.371Z</time></trkpt><trkpt lat="45.0817967" lon="8.4455461"><ele>180.0</ele><time>2026-05-03T11:22:56.372Z</time></trkpt><trkpt lat="45.0818552" lon="8.4454862"><ele>179.83333333333334</ele><time>2026-05-03T11:22:57.371Z</time></trkpt><trkpt lat="45.0819289" lon="8.4454374"><ele>179.66666666666666</ele><time>2026-05-03T11:22:58.371Z</time></trkpt><trkpt lat="45.0819941" lon="8.4453573"><ele>179.5</ele><time>2026-05-03T11:22:59.371Z</time></trkpt><trkpt lat="45.0820542" lon="8.4452702"><ele>179.33333333333331</ele><time>2026-05-03T11:23:00.371Z</time></trkpt><trkpt lat="45.0821075" lon="8.4451883"><ele>179.16666666666666</ele><time>2026-05-03T11:23:01.372Z</time></trkpt><trkpt lat="45.082152" lon="8.4451122"><ele>179.0</ele><time>2026-05-03T11:23:02.371Z</time></trkpt><trkpt lat="45.0821891" lon="8.4450357"><ele>179.0</ele><time>2026-05-03T11:23:03.372Z</time></trkpt><trkpt lat="45.0822509" lon="8.4448961"><ele>179.0</ele><time>2026-05-03T11:23:05.372Z</time></trkpt><trkpt lat="45.0823042" lon="8.4447552"><ele>179.0</ele><time>2026-05-03T11:23:07.373Z</time></trkpt><trkpt lat="45.0823327" lon="8.4446429"><ele>179.0</ele><time>2026-05-03T11:23:09.373Z</time></trkpt><trkpt lat="45.0824115" lon="8.4446189"><ele>179.0</ele><time>2026-05-03T11:23:13.372Z</time></trkpt><trkpt lat="45.0824628" lon="8.4446939"><ele>180.33333333333331</ele><time>2026-05-03T11:23:15.373Z</time></trkpt><trkpt lat="45.0825407" lon="8.4447405"><ele>181.66666666666666</ele><time>2026-05-03T11:23:17.372Z</time></trkpt><trkpt lat="45.0826487" lon="8.4447248"><ele>183.0</ele><time>2026-05-03T11:23:19.372Z</time></trkpt><trkpt lat="45.0827207" lon="8.4446809"><ele>184.33333333333334</ele><time>2026-05-03T11:23:20.373Z</time></trkpt><trkpt lat="45.0827831" lon="8.4446123"><ele>185.66666666666669</ele><time>2026-05-03T11:23:21.373Z</time></trkpt><trkpt lat="45.0828418" lon="8.4445362"><ele>187.0</ele><time>2026-05-03T11:23:22.373Z</time></trkpt><trkpt lat="45.0829021" lon="8.4444744"><ele>187.66666666666669</ele><time>2026-05-03T11:23:23.372Z</time></trkpt><trkpt lat="45.0829769" lon="8.444415"><ele>188.33333333333334</ele><time>2026-05-03T11:23:24.372Z</time></trkpt><trkpt lat="45.0830532" lon="8.4443566"><ele>189.0</ele><time>2026-05-03T11:23:25.373Z</time></trkpt><trkpt lat="45.083131" lon="8.4443005"><ele>189.66666666666666</ele><time>2026-05-03T11:23:26.373Z</time></trkpt><trkpt lat="45.0832019" lon="8.4442494"><ele>190.33333333333331</ele><time>2026-05-03T11:23:27.372Z</time></trkpt><trkpt lat="45.083275" lon="8.444215"><ele>191.0</ele><time>2026-05-03T11:23:28.372Z</time></trkpt><trkpt lat="45.0833522" lon="8.4441895"><ele>189.16666666666666</ele><time>2026-05-03T11:23:29.372Z</time></trkpt><trkpt lat="45.0834275" lon="8.4441781"><ele>187.33333333333331</ele><time>2026-05-03T11:23:30.372Z</time></trkpt><trkpt lat="45.0835132" lon="8.44417"><ele>185.5</ele><time>2026-05-03T11:23:31.373Z</time></trkpt><trkpt lat="45.0836015" lon="8.44416"><ele>183.66666666666666</ele><time>2026-05-03T11:23:32.373Z</time></trkpt><trkpt lat="45.083688" lon="8.4441547"><ele>181.83333333333334</ele><time>2026-05-03T11:23:33.372Z</time></trkpt><trkpt lat="45.0837672" lon="8.4441606"><ele>180.0</ele><time>2026-05-03T11:23:34.372Z</time></trkpt><trkpt lat="45.0838459" lon="8.4441782"><ele>180.0</ele><time>2026-05-03T11:23:35.372Z</time></trkpt><trkpt lat="45.083921" lon="8.4441976"><ele>180.0</ele><time>2026-05-03T11:23:36.373Z</time></trkpt><trkpt lat="45.0839952" lon="8.4442192"><ele>180.0</ele><time>2026-05-03T11:23:37.372Z</time></trkpt><trkpt lat="45.0840757" lon="8.4442383"><ele>180.0</ele><time>2026-05-03T11:23:38.373Z</time></trkpt><trkpt lat="45.0841565" lon="8.4442574"><ele>180.0</ele><time>2026-05-03T11:23:39.373Z</time></trkpt><trkpt lat="45.0842331" lon="8.4442688"><ele>180.0</ele><time>2026-05-03T11:23:40.372Z</time></trkpt><trkpt lat="45.0843085" lon="8.4442791"><ele>179.33333333333334</ele><time>2026-05-03T11:23:41.372Z</time></trkpt><trkpt lat="45.084391" lon="8.4442913"><ele>178.66666666666666</ele><time>2026-05-03T11:23:42.372Z</time></trkpt><trkpt lat="45.0844772" lon="8.4443074"><ele>178.0</ele><time>2026-05-03T11:23:43.372Z</time></trkpt><trkpt lat="45.0845662" lon="8.4443249"><ele>177.33333333333331</ele><time>2026-05-03T11:23:44.373Z</time></trkpt><trkpt lat="45.0846547" lon="8.4443406"><ele>176.66666666666666</ele><time>2026-05-03T11:23:45.372Z</time></trkpt><trkpt lat="45.0847447" lon="8.4443537"><ele>176.0</ele><time>2026-05-03T11:23:46.372Z</time></trkpt><trkpt lat="45.0848355" lon="8.4443635"><ele>176.0</ele><time>2026-05-03T11:23:47.373Z</time></trkpt><trkpt lat="45.0849233" lon="8.444361"><ele>176.0</ele><time>2026-05-03T11:23:48.372Z</time></trkpt><trkpt lat="45.0850102" lon="8.444349"><ele>176.0</ele><time>2026-05-03T11:23:49.373Z</time></trkpt><trkpt lat="45.0851015" lon="8.4443332"><ele>176.0</ele><time>2026-05-03T11:23:50.372Z</time></trkpt><trkpt lat="45.0851952" lon="8.4443083"><ele>176.0</ele><time>2026-05-03T11:23:51.372Z</time></trkpt><trkpt lat="45.0852858" lon="8.4442724"><ele>175.4</ele><time>2026-05-03T11:23:52.374Z</time></trkpt><trkpt lat="45.0853745" lon="8.4442248"><ele>174.8</ele><time>2026-05-03T11:23:53.373Z</time></trkpt><trkpt lat="45.0854635" lon="8.4441706"><ele>174.20000000000002</ele><time>2026-05-03T11:23:54.373Z</time></trkpt><trkpt lat="45.0855554" lon="8.4441093"><ele>173.60000000000002</ele><time>2026-05-03T11:23:55.374Z</time></trkpt><trkpt lat="45.0856521" lon="8.4440511"><ele>173.0</ele><time>2026-05-03T11:23:56.373Z</time></trkpt><trkpt lat="45.0857463" lon="8.4440053"><ele>170.60000000000002</ele><time>2026-05-03T11:23:57.373Z</time></trkpt><trkpt lat="45.0858371" lon="8.4439693"><ele>168.20000000000002</ele><time>2026-05-03T11:23:58.373Z</time></trkpt><trkpt lat="45.0859262" lon="8.4439372"><ele>165.8</ele><time>2026-05-03T11:23:59.374Z</time></trkpt><trkpt lat="45.0860171" lon="8.4439116"><ele>163.4</ele><time>2026-05-03T11:24:00.373Z</time></trkpt><trkpt lat="45.0861074" lon="8.4438934"><ele>161.0</ele><time>2026-05-03T11:24:01.373Z</time></trkpt><trkpt lat="45.0861957" lon="8.4438844"><ele>161.0</ele><time>2026-05-03T11:24:02.373Z</time></trkpt><trkpt lat="45.086286" lon="8.4438865"><ele>161.0</ele><time>2026-05-03T11:24:03.373Z</time></trkpt><trkpt lat="45.0863749" lon="8.443889"><ele>161.0</ele><time>2026-05-03T11:24:04.373Z</time></trkpt><trkpt lat="45.0864627" lon="8.4438928"><ele>161.0</ele><time>2026-05-03T11:24:05.373Z</time></trkpt><trkpt lat="45.0865544" lon="8.4439048"><ele>161.0</ele><time>2026-05-03T11:24:06.373Z</time></trkpt><trkpt lat="45.0866558" lon="8.4439268"><ele>160.20000000000002</ele><time>2026-05-03T11:24:07.373Z</time></trkpt><trkpt lat="45.0867547" lon="8.4439643"><ele>159.4</ele><time>2026-05-03T11:24:08.373Z</time></trkpt><trkpt lat="45.08685" lon="8.4440018"><ele>158.6</ele><time>2026-05-03T11:24:09.373Z</time></trkpt><trkpt lat="45.0869367" lon="8.4440384"><ele>157.8</ele><time>2026-05-03T11:24:10.373Z</time></trkpt><trkpt lat="45.0870275" lon="8.4440774"><ele>157.0</ele><time>2026-05-03T11:24:11.373Z</time></trkpt><trkpt lat="45.0871189" lon="8.4441168"><ele>157.0</ele><time>2026-05-03T11:24:12.373Z</time></trkpt><trkpt lat="45.0872093" lon="8.4441524"><ele>157.0</ele><time>2026-05-03T11:24:13.373Z</time></trkpt><trkpt lat="45.0873015" lon="8.4441834"><ele>157.0</ele><time>2026-05-03T11:24:14.374Z</time></trkpt><trkpt lat="45.0873942" lon="8.4442133"><ele>157.0</ele><time>2026-05-03T11:24:15.373Z</time></trkpt><trkpt lat="45.0874885" lon="8.4442453"><ele>157.0</ele><time>2026-05-03T11:24:16.374Z</time></trkpt><trkpt lat="45.087584" lon="8.4442778"><ele>156.79999999999998</ele><time>2026-05-03T11:24:17.373Z</time></trkpt><trkpt lat="45.0876811" lon="8.4443094"><ele>156.6</ele><time>2026-05-03T11:24:18.373Z</time></trkpt><trkpt lat="45.0877776" lon="8.4443395"><ele>156.39999999999998</ele><time>2026-05-03T11:24:19.374Z</time></trkpt><trkpt lat="45.0878767" lon="8.444368"><ele>156.2</ele><time>2026-05-03T11:24:20.374Z</time></trkpt><trkpt lat="45.0879775" lon="8.4443962"><ele>156.0</ele><time>2026-05-03T11:24:21.373Z</time></trkpt><trkpt lat="45.0880782" lon="8.4444232"><ele>156.0</ele><time>2026-05-03T11:24:22.374Z</time></trkpt><trkpt lat="45.0881803" lon="8.4444527"><ele>156.0</ele><time>2026-05-03T11:24:23.374Z</time></trkpt><trkpt lat="45.0882837" lon="8.4444824"><ele>156.0</ele><time>2026-05-03T11:24:24.373Z</time></trkpt><trkpt lat="45.0883849" lon="8.4445145"><ele>156.0</ele><time>2026-05-03T11:24:25.373Z</time></trkpt><trkpt lat="45.0884859" lon="8.4445491"><ele>156.0</ele><time>2026-05-03T11:24:26.373Z</time></trkpt><trkpt lat="45.0885881" lon="8.4445842"><ele>156.6</ele><time>2026-05-03T11:24:27.373Z</time></trkpt><trkpt lat="45.0886896" lon="8.4446201"><ele>157.2</ele><time>2026-05-03T11:24:28.374Z</time></trkpt><trkpt lat="45.0887925" lon="8.444655"><ele>157.8</ele><time>2026-05-03T11:24:29.373Z</time></trkpt><trkpt lat="45.0888971" lon="8.444691"><ele>158.4</ele><time>2026-05-03T11:24:30.373Z</time></trkpt><trkpt lat="45.0890024" lon="8.4447261"><ele>159.0</ele><time>2026-05-03T11:24:31.373Z</time></trkpt><trkpt lat="45.0891058" lon="8.44476"><ele>157.6</ele><time>2026-05-03T11:24:32.375Z</time></trkpt><trkpt lat="45.0892093" lon="8.4447938"><ele>156.2</ele><time>2026-05-03T11:24:33.374Z</time></trkpt><trkpt lat="45.0893117" lon="8.4448256"><ele>154.79999999999998</ele><time>2026-05-03T11:24:34.373Z</time></trkpt><trkpt lat="45.0894136" lon="8.4448573"><ele>153.4</ele><time>2026-05-03T11:24:35.374Z</time></trkpt><trkpt lat="45.0895163" lon="8.4448842"><ele>152.0</ele><time>2026-05-03T11:24:36.374Z</time></trkpt><trkpt lat="45.089616" lon="8.4449086"><ele>152.0</ele><time>2026-05-03T11:24:37.374Z</time></trkpt><trkpt lat="45.0897165" lon="8.4449313"><ele>152.0</ele><time>2026-05-03T11:24:38.373Z</time></trkpt><trkpt lat="45.0898178" lon="8.4449484"><ele>152.0</ele><time>2026-05-03T11:24:39.373Z</time></trkpt><trkpt lat="45.08992" lon="8.4449569"><ele>152.0</ele><time>2026-05-03T11:24:40.373Z</time></trkpt><trkpt lat="45.0900234" lon="8.4449576"><ele>152.0</ele><time>2026-05-03T11:24:41.374Z</time></trkpt><trkpt lat="45.090125" lon="8.4449574"><ele>150.6</ele><time>2026-05-03T11:24:42.374Z</time></trkpt><trkpt lat="45.0902247" lon="8.4449576"><ele>149.2</ele><time>2026-05-03T11:24:43.374Z</time></trkpt><trkpt lat="45.0903248" lon="8.444956"><ele>147.8</ele><time>2026-05-03T11:24:44.374Z</time></trkpt><trkpt lat="45.0904275" lon="8.4449549"><ele>146.4</ele><time>2026-05-03T11:24:45.374Z</time></trkpt><trkpt lat="45.0905332" lon="8.444957"><ele>145.0</ele><time>2026-05-03T11:24:46.375Z</time></trkpt><trkpt lat="45.0906399" lon="8.4449656"><ele>145.0</ele><time>2026-05-03T11:24:47.374Z</time></trkpt><trkpt lat="45.0907431" lon="8.4449809"><ele>145.0</ele><time>2026-05-03T11:24:48.374Z</time></trkpt><trkpt lat="45.0908445" lon="8.4450061"><ele>145.0</ele><time>2026-05-03T11:24:49.375Z</time></trkpt><trkpt lat="45.0909459" lon="8.4450403"><ele>145.0</ele><time>2026-05-03T11:24:50.375Z</time></trkpt><trkpt lat="45.0910477" lon="8.4450843"><ele>145.0</ele><time>2026-05-03T11:24:51.374Z</time></trkpt><trkpt lat="45.0911488" lon="8.4451372"><ele>144.4</ele><time>2026-05-03T11:24:52.375Z</time></trkpt><trkpt lat="45.0912488" lon="8.4451975"><ele>143.8</ele><time>2026-05-03T11:24:53.374Z</time></trkpt><trkpt lat="45.0913426" lon="8.4452667"><ele>143.2</ele><time>2026-05-03T11:24:54.375Z</time></trkpt><trkpt lat="45.0914302" lon="8.4453444"><ele>142.6</ele><time>2026-05-03T11:24:55.374Z</time></trkpt><trkpt lat="45.0915153" lon="8.4454293"><ele>142.0</ele><time>2026-05-03T11:24:56.374Z</time></trkpt><trkpt lat="45.091595" lon="8.4455212"><ele>141.6</ele><time>2026-05-03T11:24:57.375Z</time></trkpt><trkpt lat="45.0916691" lon="8.4456203"><ele>141.2</ele><time>2026-05-03T11:24:58.374Z</time></trkpt><trkpt lat="45.0917398" lon="8.4457245"><ele>140.8</ele><time>2026-05-03T11:24:59.374Z</time></trkpt><trkpt lat="45.0918085" lon="8.4458341"><ele>140.4</ele><time>2026-05-03T11:25:00.375Z</time></trkpt><trkpt lat="45.0918732" lon="8.4459474"><ele>140.0</ele><time>2026-05-03T11:25:01.374Z</time></trkpt><trkpt lat="45.0919319" lon="8.4460658"><ele>140.0</ele><time>2026-05-03T11:25:02.374Z</time></trkpt><trkpt lat="45.0919837" lon="8.4461899"><ele>140.0</ele><time>2026-05-03T11:25:03.374Z</time></trkpt><trkpt lat="45.092029" lon="8.446315"><ele>140.0</ele><time>2026-05-03T11:25:04.374Z</time></trkpt><trkpt lat="45.0920682" lon="8.4464394"><ele>140.0</ele><time>2026-05-03T11:25:05.375Z</time></trkpt><trkpt lat="45.0921037" lon="8.4465679"><ele>140.0</ele><time>2026-05-03T11:25:06.374Z</time></trkpt><trkpt lat="45.0921359" lon="8.4467008"><ele>141.0</ele><time>2026-05-03T11:25:07.374Z</time></trkpt><trkpt lat="45.0921645" lon="8.4468342"><ele>142.0</ele><time>2026-05-03T11:25:08.374Z</time></trkpt><trkpt lat="45.0921883" lon="8.4469669"><ele>143.0</ele><time>2026-05-03T11:25:09.375Z</time></trkpt><trkpt lat="45.0922103" lon="8.4470979"><ele>144.0</ele><time>2026-05-03T11:25:10.374Z</time></trkpt><trkpt lat="45.0922323" lon="8.4472286"><ele>145.0</ele><time>2026-05-03T11:25:11.374Z</time></trkpt><trkpt lat="45.0922564" lon="8.4473598"><ele>145.2</ele><time>2026-05-03T11:25:12.374Z</time></trkpt><trkpt lat="45.0922818" lon="8.4474937"><ele>145.4</ele><time>2026-05-03T11:25:13.374Z</time></trkpt><trkpt lat="45.0923085" lon="8.4476285"><ele>145.6</ele><time>2026-05-03T11:25:14.375Z</time></trkpt><trkpt lat="45.0923354" lon="8.4477622"><ele>145.8</ele><time>2026-05-03T11:25:15.375Z</time></trkpt><trkpt lat="45.0923623" lon="8.4478939"><ele>146.0</ele><time>2026-05-03T11:25:16.374Z</time></trkpt><trkpt lat="45.0923925" lon="8.4480247"><ele>144.2</ele><time>2026-05-03T11:25:17.375Z</time></trkpt><trkpt lat="45.0924292" lon="8.448154"><ele>142.39999999999998</ele><time>2026-05-03T11:25:18.374Z</time></trkpt><trkpt lat="45.0924751" lon="8.4482766"><ele>140.6</ele><time>2026-05-03T11:25:19.375Z</time></trkpt><trkpt lat="45.0925299" lon="8.4483943"><ele>138.79999999999998</ele><time>2026-05-03T11:25:20.374Z</time></trkpt><trkpt lat="45.0925928" lon="8.4485027"><ele>137.0</ele><time>2026-05-03T11:25:21.374Z</time></trkpt><trkpt lat="45.0926617" lon="8.4486034"><ele>137.0</ele><time>2026-05-03T11:25:22.375Z</time></trkpt><trkpt lat="45.0927364" lon="8.4486997"><ele>137.0</ele><time>2026-05-03T11:25:23.374Z</time></trkpt><trkpt lat="45.0928144" lon="8.4487875"><ele>137.0</ele><time>2026-05-03T11:25:24.375Z</time></trkpt><trkpt lat="45.0928992" lon="8.4488658"><ele>137.0</ele><time>2026-05-03T11:25:25.375Z</time></trkpt><trkpt lat="45.0929883" lon="8.4489366"><ele>137.0</ele><time>2026-05-03T11:25:26.374Z</time></trkpt><trkpt lat="45.0930814" lon="8.4489981"><ele>136.79999999999998</ele><time>2026-05-03T11:25:27.375Z</time></trkpt><trkpt lat="45.0931803" lon="8.4490464"><ele>136.6</ele><time>2026-05-03T11:25:28.374Z</time></trkpt><trkpt lat="45.0932808" lon="8.4490862"><ele>136.39999999999998</ele><time>2026-05-03T11:25:29.375Z</time></trkpt><trkpt lat="45.0933816" lon="8.4491246"><ele>136.2</ele><time>2026-05-03T11:25:30.375Z</time></trkpt><trkpt lat="45.0934819" lon="8.4491591"><ele>136.0</ele><time>2026-05-03T11:25:31.375Z</time></trkpt><trkpt lat="45.0935827" lon="8.44919"><ele>136.0</ele><time>2026-05-03T11:25:32.375Z</time></trkpt><trkpt lat="45.0936833" lon="8.4492224"><ele>136.0</ele><time>2026-05-03T11:25:33.376Z</time></trkpt><trkpt lat="45.0937829" lon="8.4492602"><ele>136.0</ele><time>2026-05-03T11:25:34.376Z</time></trkpt><trkpt lat="45.0938845" lon="8.4493004"><ele>136.0</ele><time>2026-05-03T11:25:35.375Z</time></trkpt><trkpt lat="45.0939854" lon="8.4493364"><ele>136.0</ele><time>2026-05-03T11:25:36.376Z</time></trkpt><trkpt lat="45.0940864" lon="8.4493704"><ele>135.4</ele><time>2026-05-03T11:25:37.375Z</time></trkpt><trkpt lat="45.0941867" lon="8.4494019"><ele>134.8</ele><time>2026-05-03T11:25:38.376Z</time></trkpt><trkpt lat="45.0942878" lon="8.4494305"><ele>134.20000000000002</ele><time>2026-05-03T11:25:39.376Z</time></trkpt><trkpt lat="45.09439" lon="8.4494554"><ele>133.6</ele><time>2026-05-03T11:25:40.376Z</time></trkpt><trkpt lat="45.0944911" lon="8.4494812"><ele>133.0</ele><time>2026-05-03T11:25:41.375Z</time></trkpt><trkpt lat="45.0945942" lon="8.4495027"><ele>133.0</ele><time>2026-05-03T11:25:42.375Z</time></trkpt><trkpt lat="45.0946952" lon="8.4495154"><ele>133.0</ele><time>2026-05-03T11:25:43.375Z</time></trkpt><trkpt lat="45.0948004" lon="8.4495242"><ele>133.0</ele><time>2026-05-03T11:25:44.375Z</time></trkpt><trkpt lat="45.094903" lon="8.449534"><ele>133.0</ele><time>2026-05-03T11:25:45.375Z</time></trkpt><trkpt lat="45.0950044" lon="8.4495436"><ele>133.0</ele><time>2026-05-03T11:25:46.376Z</time></trkpt><trkpt lat="45.0951005" lon="8.4495556"><ele>133.0</ele><time>2026-05-03T11:25:47.375Z</time></trkpt><trkpt lat="45.0952009" lon="8.4495707"><ele>133.0</ele><time>2026-05-03T11:25:48.376Z</time></trkpt><trkpt lat="45.0952995" lon="8.4495854"><ele>133.0</ele><time>2026-05-03T11:25:49.375Z</time></trkpt><trkpt lat="45.0953985" lon="8.4495987"><ele>133.0</ele><time>2026-05-03T11:25:50.375Z</time></trkpt><trkpt lat="45.0955003" lon="8.449611"><ele>133.0</ele><time>2026-05-03T11:25:51.375Z</time></trkpt><trkpt lat="45.0955996" lon="8.4496224"><ele>133.4</ele><time>2026-05-03T11:25:52.376Z</time></trkpt><trkpt lat="45.0956996" lon="8.4496349"><ele>133.8</ele><time>2026-05-03T11:25:53.375Z</time></trkpt><trkpt lat="45.0957982" lon="8.4496493"><ele>134.2</ele><time>2026-05-03T11:25:54.375Z</time></trkpt><trkpt lat="45.0958972" lon="8.4496664"><ele>134.6</ele><time>2026-05-03T11:25:55.375Z</time></trkpt><trkpt lat="45.0959936" lon="8.449686"><ele>135.0</ele><time>2026-05-03T11:25:56.375Z</time></trkpt><trkpt lat="45.0960853" lon="8.4497054"><ele>135.0</ele><time>2026-05-03T11:25:57.375Z</time></trkpt><trkpt lat="45.0961729" lon="8.4497247"><ele>135.0</ele><time>2026-05-03T11:25:58.376Z</time></trkpt><trkpt lat="45.0962553" lon="8.4497469"><ele>135.0</ele><time>2026-05-03T11:25:59.375Z</time></trkpt><trkpt lat="45.0963354" lon="8.4497711"><ele>135.0</ele><time>2026-05-03T11:26:00.375Z</time></trkpt><trkpt lat="45.0964136" lon="8.4497966"><ele>135.0</ele><time>2026-05-03T11:26:01.376Z</time></trkpt><trkpt lat="45.0964905" lon="8.449822"><ele>135.0</ele><time>2026-05-03T11:26:02.375Z</time></trkpt><trkpt lat="45.0965646" lon="8.4498486"><ele>136.0</ele><time>2026-05-03T11:26:03.375Z</time></trkpt><trkpt lat="45.0966373" lon="8.4498769"><ele>137.0</ele><time>2026-05-03T11:26:04.375Z</time></trkpt><trkpt lat="45.0967085" lon="8.4499035"><ele>138.0</ele><time>2026-05-03T11:26:05.375Z</time></trkpt><trkpt lat="45.0967815" lon="8.4499266"><ele>139.0</ele><time>2026-05-03T11:26:06.375Z</time></trkpt><trkpt lat="45.0968563" lon="8.4499503"><ele>140.0</ele><time>2026-05-03T11:26:07.375Z</time></trkpt><trkpt lat="45.0969335" lon="8.449977"><ele>141.0</ele><time>2026-05-03T11:26:08.375Z</time></trkpt><trkpt lat="45.0970116" lon="8.4500059"><ele>141.0</ele><time>2026-05-03T11:26:09.375Z</time></trkpt><trkpt lat="45.0970913" lon="8.450037"><ele>141.0</ele><time>2026-05-03T11:26:10.376Z</time></trkpt><trkpt lat="45.0971721" lon="8.450064"><ele>141.0</ele><time>2026-05-03T11:26:11.375Z</time></trkpt><trkpt lat="45.0972552" lon="8.4500701"><ele>141.0</ele><time>2026-05-03T11:26:12.376Z</time></trkpt><trkpt lat="45.0973433" lon="8.4500552"><ele>141.0</ele><time>2026-05-03T11:26:13.375Z</time></trkpt><trkpt lat="45.0974326" lon="8.4500369"><ele>141.0</ele><time>2026-05-03T11:26:14.375Z</time></trkpt><trkpt lat="45.0975269" lon="8.4500095"><ele>139.6</ele><time>2026-05-03T11:26:15.375Z</time></trkpt><trkpt lat="45.0976263" lon="8.4499725"><ele>138.2</ele><time>2026-05-03T11:26:16.376Z</time></trkpt><trkpt lat="45.0977289" lon="8.4499309"><ele>136.8</ele><time>2026-05-03T11:26:17.376Z</time></trkpt><trkpt lat="45.0978258" lon="8.4498937"><ele>135.4</ele><time>2026-05-03T11:26:18.377Z</time></trkpt><trkpt lat="45.0979194" lon="8.4498572"><ele>134.0</ele><time>2026-05-03T11:26:19.376Z</time></trkpt><trkpt lat="45.0980086" lon="8.449823"><ele>134.0</ele><time>2026-05-03T11:26:20.376Z</time></trkpt><trkpt lat="45.0980949" lon="8.4497923"><ele>134.0</ele><time>2026-05-03T11:26:21.376Z</time></trkpt><trkpt lat="45.0981748" lon="8.4497621"><ele>134.0</ele><time>2026-05-03T11:26:22.376Z</time></trkpt><trkpt lat="45.0982454" lon="8.4497362"><ele>134.0</ele><time>2026-05-03T11:26:23.376Z</time></trkpt><trkpt lat="45.0983085" lon="8.4497126"><ele>134.0</ele><time>2026-05-03T11:26:24.376Z</time></trkpt><trkpt lat="45.0984263" lon="8.4497394"><ele>134.0</ele><time>2026-05-03T11:26:26.376Z</time></trkpt><trkpt lat="45.0984804" lon="8.4498153"><ele>132.5</ele><time>2026-05-03T11:26:27.377Z</time></trkpt><trkpt lat="45.098526" lon="8.4499181"><ele>131.0</ele><time>2026-05-03T11:26:28.376Z</time></trkpt><trkpt lat="45.0985637" lon="8.4500281"><ele>129.5</ele><time>2026-05-03T11:26:29.376Z</time></trkpt><trkpt lat="45.0985901" lon="8.4501301"><ele>128.0</ele><time>2026-05-03T11:26:30.376Z</time></trkpt><trkpt lat="45.098605" lon="8.4502519"><ele>126.49999999999999</ele><time>2026-05-03T11:26:31.376Z</time></trkpt><trkpt lat="45.0986299" lon="8.4503582"><ele>125.0</ele><time>2026-05-03T11:26:32.376Z</time></trkpt><trkpt lat="45.0986691" lon="8.4504707"><ele>124.83333333333333</ele><time>2026-05-03T11:26:33.376Z</time></trkpt><trkpt lat="45.0987052" lon="8.4505823"><ele>124.66666666666666</ele><time>2026-05-03T11:26:34.376Z</time></trkpt><trkpt lat="45.0987383" lon="8.4506939"><ele>124.5</ele><time>2026-05-03T11:26:35.376Z</time></trkpt><trkpt lat="45.0987802" lon="8.450805"><ele>124.33333333333334</ele><time>2026-05-03T11:26:36.377Z</time></trkpt><trkpt lat="45.0988215" lon="8.4509171"><ele>124.16666666666667</ele><time>2026-05-03T11:26:37.376Z</time></trkpt><trkpt lat="45.0988617" lon="8.4510316"><ele>124.0</ele><time>2026-05-03T11:26:38.376Z</time></trkpt><trkpt lat="45.0989004" lon="8.451145"><ele>124.00000000000001</ele><time>2026-05-03T11:26:39.377Z</time></trkpt><trkpt lat="45.0989367" lon="8.4512537"><ele>124.0</ele><time>2026-05-03T11:26:40.376Z</time></trkpt><trkpt lat="45.0989761" lon="8.4513496"><ele>124.0</ele><time>2026-05-03T11:26:41.376Z</time></trkpt><trkpt lat="45.0990147" lon="8.4514411"><ele>124.0</ele><time>2026-05-03T11:26:42.376Z</time></trkpt><trkpt lat="45.099052" lon="8.4515298"><ele>124.00000000000001</ele><time>2026-05-03T11:26:43.376Z</time></trkpt><trkpt lat="45.099127" lon="8.451669"><ele>124.0</ele><time>2026-05-03T11:26:45.377Z</time></trkpt><trkpt lat="45.0991772" lon="8.451791"><ele>124.16666666666667</ele><time>2026-05-03T11:26:47.377Z</time></trkpt><trkpt lat="45.0991824" lon="8.4519045"><ele>124.33333333333334</ele><time>2026-05-03T11:26:50.376Z</time></trkpt><trkpt lat="45.0990822" lon="8.4519662"><ele>124.5</ele><time>2026-05-03T11:26:52.377Z</time></trkpt><trkpt lat="45.0990252" lon="8.4520119"><ele>124.66666666666666</ele><time>2026-05-03T11:26:53.376Z</time></trkpt><trkpt lat="45.0989772" lon="8.452072"><ele>124.83333333333333</ele><time>2026-05-03T11:26:54.377Z</time></trkpt><trkpt lat="45.0989334" lon="8.4521491"><ele>125.0</ele><time>2026-05-03T11:26:55.376Z</time></trkpt><trkpt lat="45.0988994" lon="8.4522369"><ele>125.0</ele><time>2026-05-03T11:26:56.376Z</time></trkpt><trkpt lat="45.0988798" lon="8.4523412"><ele>125.0</ele><time>2026-05-03T11:26:57.377Z</time></trkpt><trkpt lat="45.0988645" lon="8.4524407"><ele>125.0</ele><time>2026-05-03T11:26:58.376Z</time></trkpt><trkpt lat="45.09885" lon="8.4525418"><ele>125.0</ele><time>2026-05-03T11:26:59.377Z</time></trkpt><trkpt lat="45.0988369" lon="8.4526408"><ele>125.0</ele><time>2026-05-03T11:27:00.377Z</time></trkpt><trkpt lat="45.0988106" lon="8.45274"><ele>125.0</ele><time>2026-05-03T11:27:01.376Z</time></trkpt><trkpt lat="45.0987984" lon="8.4528458"><ele>125.0</ele><time>2026-05-03T11:27:02.376Z</time></trkpt><trkpt lat="45.0987841" lon="8.4529464"><ele>124.83333333333333</ele><time>2026-05-03T11:27:03.376Z</time></trkpt><trkpt lat="45.0987668" lon="8.4530474"><ele>124.66666666666666</ele><time>2026-05-03T11:27:04.377Z</time></trkpt><trkpt lat="45.0987434" lon="8.453154"><ele>124.5</ele><time>2026-05-03T11:27:05.378Z</time></trkpt><trkpt lat="45.0987077" lon="8.4532585"><ele>124.33333333333334</ele><time>2026-05-03T11:27:06.377Z</time></trkpt><trkpt lat="45.0986717" lon="8.4533536"><ele>124.16666666666667</ele><time>2026-05-03T11:27:07.376Z</time></trkpt><trkpt lat="45.0986449" lon="8.453453"><ele>124.0</ele><time>2026-05-03T11:27:08.377Z</time></trkpt><trkpt lat="45.0986154" lon="8.453544"><ele>124.00000000000001</ele><time>2026-05-03T11:27:09.377Z</time></trkpt><trkpt lat="45.0985842" lon="8.453622"><ele>124.0</ele><time>2026-05-03T11:27:10.377Z</time></trkpt><trkpt lat="45.0985221" lon="8.4537762"><ele>124.0</ele><time>2026-05-03T11:27:12.378Z</time></trkpt><trkpt lat="45.0984884" lon="8.4538638"><ele>124.0</ele><time>2026-05-03T11:27:13.378Z</time></trkpt><trkpt lat="45.0984605" lon="8.4539611"><ele>124.00000000000001</ele><time>2026-05-03T11:27:14.378Z</time></trkpt><trkpt lat="45.098437" lon="8.4540565"><ele>124.0</ele><time>2026-05-03T11:27:15.377Z</time></trkpt><trkpt lat="45.098414" lon="8.4541556"><ele>123.66666666666667</ele><time>2026-05-03T11:27:16.377Z</time></trkpt><trkpt lat="45.0983902" lon="8.4542594"><ele>123.33333333333334</ele><time>2026-05-03T11:27:17.377Z</time></trkpt><trkpt lat="45.0983721" lon="8.4543608"><ele>123.0</ele><time>2026-05-03T11:27:18.377Z</time></trkpt><trkpt lat="45.0983573" lon="8.4544615"><ele>122.66666666666666</ele><time>2026-05-03T11:27:19.377Z</time></trkpt><trkpt lat="45.0983463" lon="8.4545631"><ele>122.33333333333333</ele><time>2026-05-03T11:27:20.377Z</time></trkpt><trkpt lat="45.098335" lon="8.4546732"><ele>122.0</ele><time>2026-05-03T11:27:21.378Z</time></trkpt><trkpt lat="45.0983228" lon="8.4547813"><ele>121.83333333333333</ele><time>2026-05-03T11:27:22.378Z</time></trkpt><trkpt lat="45.0983081" lon="8.4548908"><ele>121.66666666666666</ele><time>2026-05-03T11:27:23.378Z</time></trkpt><trkpt lat="45.098294" lon="8.4549988"><ele>121.5</ele><time>2026-05-03T11:27:24.377Z</time></trkpt><trkpt lat="45.0982797" lon="8.4550956"><ele>121.33333333333334</ele><time>2026-05-03T11:27:25.378Z</time></trkpt><trkpt lat="45.0982678" lon="8.4551864"><ele>121.16666666666667</ele><time>2026-05-03T11:27:26.377Z</time></trkpt><trkpt lat="45.0982567" lon="8.4552784"><ele>121.0</ele><time>2026-05-03T11:27:27.378Z</time></trkpt><trkpt lat="45.0982465" lon="8.4554401"><ele>121.0</ele><time>2026-05-03T11:27:29.378Z</time></trkpt><trkpt lat="45.0982633" lon="8.4555326"><ele>121.0</ele><time>2026-05-03T11:27:31.378Z</time></trkpt><trkpt lat="45.0983481" lon="8.4555564"><ele>121.0</ele><time>2026-05-03T11:27:38.377Z</time></trkpt><trkpt lat="45.0984432" lon="8.4554666"><ele>121.0</ele><time>2026-05-03T11:27:40.378Z</time></trkpt><trkpt lat="45.0984879" lon="8.4553855"><ele>121.0</ele><time>2026-05-03T11:27:41.377Z</time></trkpt><trkpt lat="45.0985867" lon="8.4552476"><ele>121.0</ele><time>2026-05-03T11:27:43.377Z</time></trkpt><trkpt lat="45.0986471" lon="8.4551671"><ele>121.0</ele><time>2026-05-03T11:27:44.378Z</time></trkpt><trkpt lat="45.0987159" lon="8.4550716"><ele>121.0</ele><time>2026-05-03T11:27:45.377Z</time></trkpt><trkpt lat="45.0988043" lon="8.4549411"><ele>121.0</ele><time>2026-05-03T11:27:46.377Z</time></trkpt><trkpt lat="45.0988917" lon="8.4548379"><ele>121.0</ele><time>2026-05-03T11:27:47.377Z</time></trkpt><trkpt lat="45.0989694" lon="8.4547457"><ele>121.0</ele><time>2026-05-03T11:27:48.378Z</time></trkpt><trkpt lat="45.0990393" lon="8.4546591"><ele>121.0</ele><time>2026-05-03T11:27:49.377Z</time></trkpt><trkpt lat="45.0991081" lon="8.4545756"><ele>121.0</ele><time>2026-05-03T11:27:50.377Z</time></trkpt><trkpt lat="45.0991733" lon="8.4544921"><ele>121.0</ele><time>2026-05-03T11:27:51.377Z</time></trkpt><trkpt lat="45.0992421" lon="8.4544016"><ele>121.0</ele><time>2026-05-03T11:27:52.377Z</time></trkpt><trkpt lat="45.0993055" lon="8.4543159"><ele>120.66666666666667</ele><time>2026-05-03T11:27:53.378Z</time></trkpt><trkpt lat="45.099374" lon="8.4542352"><ele>120.33333333333334</ele><time>2026-05-03T11:27:54.377Z</time></trkpt><trkpt lat="45.09944" lon="8.4541499"><ele>120.0</ele><time>2026-05-03T11:27:55.377Z</time></trkpt><trkpt lat="45.0995081" lon="8.4540624"><ele>119.66666666666666</ele><time>2026-05-03T11:27:56.377Z</time></trkpt><trkpt lat="45.099576" lon="8.4539767"><ele>119.33333333333333</ele><time>2026-05-03T11:27:57.378Z</time></trkpt><trkpt lat="45.0996405" lon="8.4538967"><ele>119.0</ele><time>2026-05-03T11:27:58.379Z</time></trkpt><trkpt lat="45.0997023" lon="8.4538143"><ele>118.99999999999999</ele><time>2026-05-03T11:27:59.378Z</time></trkpt><trkpt lat="45.0997675" lon="8.4537306"><ele>119.0</ele><time>2026-05-03T11:28:00.379Z</time></trkpt><trkpt lat="45.0998321" lon="8.453642"><ele>119.0</ele><time>2026-05-03T11:28:01.378Z</time></trkpt><trkpt lat="45.0998952" lon="8.4535536"><ele>119.0</ele><time>2026-05-03T11:28:02.379Z</time></trkpt><trkpt lat="45.0999619" lon="8.4534645"><ele>118.99999999999999</ele><time>2026-05-03T11:28:03.379Z</time></trkpt><trkpt lat="45.1000285" lon="8.4533816"><ele>119.0</ele><time>2026-05-03T11:28:04.379Z</time></trkpt><trkpt lat="45.1000892" lon="8.4533084"><ele>118.83333333333333</ele><time>2026-05-03T11:28:05.378Z</time></trkpt><trkpt lat="45.1001507" lon="8.453236"><ele>118.66666666666666</ele><time>2026-05-03T11:28:06.378Z</time></trkpt><trkpt lat="45.1002219" lon="8.4531679"><ele>118.5</ele><time>2026-05-03T11:28:07.378Z</time></trkpt><trkpt lat="45.1002931" lon="8.453109"><ele>118.33333333333334</ele><time>2026-05-03T11:28:08.378Z</time></trkpt><trkpt lat="45.1003651" lon="8.453061"><ele>118.16666666666667</ele><time>2026-05-03T11:28:09.378Z</time></trkpt><trkpt lat="45.1004263" lon="8.4530279"><ele>118.0</ele><time>2026-05-03T11:28:10.379Z</time></trkpt><trkpt lat="45.1005404" lon="8.4529918"><ele>118.00000000000001</ele><time>2026-05-03T11:28:12.378Z</time></trkpt><trkpt lat="45.1006663" lon="8.4529839"><ele>118.0</ele><time>2026-05-03T11:28:14.379Z</time></trkpt><trkpt lat="45.1007353" lon="8.4529711"><ele>118.0</ele><time>2026-05-03T11:28:15.378Z</time></trkpt><trkpt lat="45.1008089" lon="8.4529527"><ele>118.0</ele><time>2026-05-03T11:28:16.378Z</time></trkpt><trkpt lat="45.1008884" lon="8.4529329"><ele>118.00000000000001</ele><time>2026-05-03T11:28:17.378Z</time></trkpt><trkpt lat="45.1009804" lon="8.4529138"><ele>118.0</ele><time>2026-05-03T11:28:18.378Z</time></trkpt><trkpt lat="45.1010796" lon="8.4528948"><ele>118.2</ele><time>2026-05-03T11:28:19.378Z</time></trkpt><trkpt lat="45.1011809" lon="8.4528793"><ele>118.4</ele><time>2026-05-03T11:28:20.378Z</time></trkpt><trkpt lat="45.1012788" lon="8.4528591"><ele>118.60000000000001</ele><time>2026-05-03T11:28:21.379Z</time></trkpt><trkpt lat="45.1013807" lon="8.4528363"><ele>118.80000000000001</ele><time>2026-05-03T11:28:22.379Z</time></trkpt><trkpt lat="45.1014812" lon="8.4528166"><ele>119.0</ele><time>2026-05-03T11:28:23.378Z</time></trkpt><trkpt lat="45.1015823" lon="8.4527984"><ele>118.6</ele><time>2026-05-03T11:28:24.378Z</time></trkpt><trkpt lat="45.1016868" lon="8.4527829"><ele>118.2</ele><time>2026-05-03T11:28:25.378Z</time></trkpt><trkpt lat="45.101788" lon="8.4527655"><ele>117.79999999999998</ele><time>2026-05-03T11:28:26.378Z</time></trkpt><trkpt lat="45.1018927" lon="8.4527462"><ele>117.39999999999999</ele><time>2026-05-03T11:28:27.379Z</time></trkpt><trkpt lat="45.1019978" lon="8.4527247"><ele>117.0</ele><time>2026-05-03T11:28:28.378Z</time></trkpt><trkpt lat="45.1021073" lon="8.4527042"><ele>117.0</ele><time>2026-05-03T11:28:29.378Z</time></trkpt><trkpt lat="45.1022199" lon="8.4526825"><ele>116.99999999999999</ele><time>2026-05-03T11:28:30.378Z</time></trkpt><trkpt lat="45.1023287" lon="8.452657"><ele>116.99999999999999</ele><time>2026-05-03T11:28:31.378Z</time></trkpt><trkpt lat="45.1024314" lon="8.452636"><ele>117.0</ele><time>2026-05-03T11:28:32.378Z</time></trkpt><trkpt lat="45.1025394" lon="8.4526142"><ele>117.0</ele><time>2026-05-03T11:28:33.378Z</time></trkpt><trkpt lat="45.102647" lon="8.4525933"><ele>117.19999999999999</ele><time>2026-05-03T11:28:34.378Z</time></trkpt><trkpt lat="45.1027539" lon="8.4525704"><ele>117.39999999999999</ele><time>2026-05-03T11:28:35.379Z</time></trkpt><trkpt lat="45.1028595" lon="8.4525486"><ele>117.60000000000001</ele><time>2026-05-03T11:28:36.379Z</time></trkpt><trkpt lat="45.1029645" lon="8.4525267"><ele>117.80000000000001</ele><time>2026-05-03T11:28:37.378Z</time></trkpt><trkpt lat="45.1030701" lon="8.4525048"><ele>118.0</ele><time>2026-05-03T11:28:38.378Z</time></trkpt><trkpt lat="45.103177" lon="8.4524823"><ele>118.2</ele><time>2026-05-03T11:28:39.379Z</time></trkpt><trkpt lat="45.1032835" lon="8.4524594"><ele>118.4</ele><time>2026-05-03T11:28:40.379Z</time></trkpt><trkpt lat="45.1033905" lon="8.4524362"><ele>118.60000000000001</ele><time>2026-05-03T11:28:41.379Z</time></trkpt><trkpt lat="45.1034972" lon="8.4524136"><ele>118.80000000000001</ele><time>2026-05-03T11:28:42.378Z</time></trkpt><trkpt lat="45.103603" lon="8.4523901"><ele>119.0</ele><time>2026-05-03T11:28:43.378Z</time></trkpt><trkpt lat="45.1037074" lon="8.4523642"><ele>119.0</ele><time>2026-05-03T11:28:44.378Z</time></trkpt><trkpt lat="45.1038136" lon="8.4523413"><ele>119.0</ele><time>2026-05-03T11:28:45.378Z</time></trkpt><trkpt lat="45.103922" lon="8.452321"><ele>119.0</ele><time>2026-05-03T11:28:46.379Z</time></trkpt><trkpt lat="45.1040306" lon="8.4523024"><ele>119.0</ele><time>2026-05-03T11:28:47.379Z</time></trkpt><trkpt lat="45.1041387" lon="8.4522848"><ele>119.0</ele><time>2026-05-03T11:28:48.379Z</time></trkpt><trkpt lat="45.1042475" lon="8.4522677"><ele>118.6</ele><time>2026-05-03T11:28:49.379Z</time></trkpt><trkpt lat="45.1043579" lon="8.452255"><ele>118.2</ele><time>2026-05-03T11:28:50.379Z</time></trkpt><trkpt lat="45.1044676" lon="8.4522444"><ele>117.79999999999998</ele><time>2026-05-03T11:28:51.38Z</time></trkpt><trkpt lat="45.1045761" lon="8.452233"><ele>117.39999999999999</ele><time>2026-05-03T11:28:52.379Z</time></trkpt><trkpt lat="45.1046826" lon="8.4522204"><ele>117.0</ele><time>2026-05-03T11:28:53.379Z</time></trkpt><trkpt lat="45.1047857" lon="8.4522051"><ele>117.0</ele><time>2026-05-03T11:28:54.379Z</time></trkpt><trkpt lat="45.1048888" lon="8.4521921"><ele>116.99999999999999</ele><time>2026-05-03T11:28:55.38Z</time></trkpt><trkpt lat="45.1050004" lon="8.4521802"><ele>116.99999999999999</ele><time>2026-05-03T11:28:56.379Z</time></trkpt><trkpt lat="45.1051096" lon="8.4521671"><ele>117.0</ele><time>2026-05-03T11:28:57.379Z</time></trkpt><trkpt lat="45.105218" lon="8.4521496"><ele>117.0</ele><time>2026-05-03T11:28:58.38Z</time></trkpt><trkpt lat="45.1053256" lon="8.4521345"><ele>117.0</ele><time>2026-05-03T11:28:59.379Z</time></trkpt><trkpt lat="45.1054345" lon="8.4521236"><ele>116.99999999999999</ele><time>2026-05-03T11:29:00.379Z</time></trkpt><trkpt lat="45.1055439" lon="8.4521086"><ele>116.99999999999999</ele><time>2026-05-03T11:29:01.379Z</time></trkpt><trkpt lat="45.1056517" lon="8.4520926"><ele>117.0</ele><time>2026-05-03T11:29:02.38Z</time></trkpt><trkpt lat="45.1057592" lon="8.4520783"><ele>117.0</ele><time>2026-05-03T11:29:03.38Z</time></trkpt><trkpt lat="45.1058656" lon="8.4520645"><ele>117.0</ele><time>2026-05-03T11:29:04.38Z</time></trkpt><trkpt lat="45.1059727" lon="8.4520512"><ele>116.99999999999999</ele><time>2026-05-03T11:29:05.379Z</time></trkpt><trkpt lat="45.1060785" lon="8.4520367"><ele>116.99999999999999</ele><time>2026-05-03T11:29:06.379Z</time></trkpt><trkpt lat="45.1061839" lon="8.4520211"><ele>117.0</ele><time>2026-05-03T11:29:07.379Z</time></trkpt><trkpt lat="45.1062909" lon="8.4520061"><ele>117.0</ele><time>2026-05-03T11:29:08.379Z</time></trkpt><trkpt lat="45.1063991" lon="8.451992"><ele>117.0</ele><time>2026-05-03T11:29:09.379Z</time></trkpt><trkpt lat="45.106509" lon="8.451981"><ele>116.99999999999999</ele><time>2026-05-03T11:29:10.379Z</time></trkpt><trkpt lat="45.1066205" lon="8.4519733"><ele>116.99999999999999</ele><time>2026-05-03T11:29:11.379Z</time></trkpt><trkpt lat="45.1067308" lon="8.451968"><ele>117.0</ele><time>2026-05-03T11:29:12.379Z</time></trkpt><trkpt lat="45.1068429" lon="8.4519631"><ele>117.0</ele><time>2026-05-03T11:29:13.38Z</time></trkpt><trkpt lat="45.1069567" lon="8.4519575"><ele>117.0</ele><time>2026-05-03T11:29:14.38Z</time></trkpt><trkpt lat="45.1070684" lon="8.4519516"><ele>116.99999999999999</ele><time>2026-05-03T11:29:15.379Z</time></trkpt><trkpt lat="45.1071799" lon="8.4519478"><ele>116.99999999999999</ele><time>2026-05-03T11:29:16.379Z</time></trkpt><trkpt lat="45.1072879" lon="8.451943"><ele>117.0</ele><time>2026-05-03T11:29:17.38Z</time></trkpt><trkpt lat="45.1073959" lon="8.4519363"><ele>117.0</ele><time>2026-05-03T11:29:18.379Z</time></trkpt><trkpt lat="45.1075016" lon="8.4519274"><ele>117.39999999999999</ele><time>2026-05-03T11:29:19.379Z</time></trkpt><trkpt lat="45.1076097" lon="8.4519184"><ele>117.79999999999998</ele><time>2026-05-03T11:29:20.379Z</time></trkpt><trkpt lat="45.1077153" lon="8.4519089"><ele>118.2</ele><time>2026-05-03T11:29:21.379Z</time></trkpt><trkpt lat="45.1078187" lon="8.4519017"><ele>118.6</ele><time>2026-05-03T11:29:22.379Z</time></trkpt><trkpt lat="45.1079239" lon="8.4518912"><ele>119.0</ele><time>2026-05-03T11:29:23.379Z</time></trkpt><trkpt lat="45.1080292" lon="8.4518791"><ele>119.0</ele><time>2026-05-03T11:29:24.38Z</time></trkpt><trkpt lat="45.1081387" lon="8.4518652"><ele>119.0</ele><time>2026-05-03T11:29:25.379Z</time></trkpt><trkpt lat="45.1082459" lon="8.4518698"><ele>119.0</ele><time>2026-05-03T11:29:26.379Z</time></trkpt><trkpt lat="45.1083524" lon="8.4518777"><ele>119.0</ele><time>2026-05-03T11:29:27.379Z</time></trkpt><trkpt lat="45.1084573" lon="8.4518813"><ele>119.0</ele><time>2026-05-03T11:29:28.38Z</time></trkpt><trkpt lat="45.1085673" lon="8.4518793"><ele>119.0</ele><time>2026-05-03T11:29:29.379Z</time></trkpt><trkpt lat="45.1086752" lon="8.451873"><ele>119.0</ele><time>2026-05-03T11:29:30.379Z</time></trkpt><trkpt lat="45.1087815" lon="8.4518686"><ele>119.0</ele><time>2026-05-03T11:29:31.379Z</time></trkpt><trkpt lat="45.1088894" lon="8.4518622"><ele>119.0</ele><time>2026-05-03T11:29:32.379Z</time></trkpt><trkpt lat="45.1089947" lon="8.4518544"><ele>119.0</ele><time>2026-05-03T11:29:33.38Z</time></trkpt><trkpt lat="45.1091019" lon="8.4518458"><ele>118.80000000000001</ele><time>2026-05-03T11:29:34.38Z</time></trkpt><trkpt lat="45.1092115" lon="8.4518355"><ele>118.60000000000001</ele><time>2026-05-03T11:29:35.38Z</time></trkpt><trkpt lat="45.1093171" lon="8.45183"><ele>118.4</ele><time>2026-05-03T11:29:36.38Z</time></trkpt><trkpt lat="45.1094255" lon="8.4518181"><ele>118.2</ele><time>2026-05-03T11:29:37.38Z</time></trkpt><trkpt lat="45.1095339" lon="8.4518107"><ele>118.0</ele><time>2026-05-03T11:29:38.38Z</time></trkpt><trkpt lat="45.1096438" lon="8.4518052"><ele>118.0</ele><time>2026-05-03T11:29:39.38Z</time></trkpt><trkpt lat="45.109753" lon="8.4518046"><ele>118.00000000000001</ele><time>2026-05-03T11:29:40.38Z</time></trkpt><trkpt lat="45.109862" lon="8.4518032"><ele>118.00000000000001</ele><time>2026-05-03T11:29:41.38Z</time></trkpt><trkpt lat="45.1099691" lon="8.4518003"><ele>118.0</ele><time>2026-05-03T11:29:42.381Z</time></trkpt><trkpt lat="45.110077" lon="8.4517933"><ele>118.0</ele><time>2026-05-03T11:29:43.38Z</time></trkpt><trkpt lat="45.1101852" lon="8.4517881"><ele>117.80000000000001</ele><time>2026-05-03T11:29:44.38Z</time></trkpt><trkpt lat="45.1102933" lon="8.4517835"><ele>117.60000000000001</ele><time>2026-05-03T11:29:45.38Z</time></trkpt><trkpt lat="45.1104014" lon="8.4517787"><ele>117.39999999999999</ele><time>2026-05-03T11:29:46.38Z</time></trkpt><trkpt lat="45.1105119" lon="8.4517718"><ele>117.19999999999999</ele><time>2026-05-03T11:29:47.38Z</time></trkpt><trkpt lat="45.110622" lon="8.4517652"><ele>117.0</ele><time>2026-05-03T11:29:48.38Z</time></trkpt><trkpt lat="45.1107335" lon="8.45176"><ele>117.19999999999999</ele><time>2026-05-03T11:29:49.381Z</time></trkpt><trkpt lat="45.110843" lon="8.4517562"><ele>117.39999999999999</ele><time>2026-05-03T11:29:50.381Z</time></trkpt><trkpt lat="45.1109524" lon="8.4517509"><ele>117.60000000000001</ele><time>2026-05-03T11:29:51.38Z</time></trkpt><trkpt lat="45.1110632" lon="8.4517447"><ele>117.80000000000001</ele><time>2026-05-03T11:29:52.38Z</time></trkpt><trkpt lat="45.1111726" lon="8.451737"><ele>118.0</ele><time>2026-05-03T11:29:53.38Z</time></trkpt><trkpt lat="45.1112814" lon="8.4517313"><ele>118.0</ele><time>2026-05-03T11:29:54.38Z</time></trkpt><trkpt lat="45.1113897" lon="8.4517263"><ele>118.00000000000001</ele><time>2026-05-03T11:29:55.38Z</time></trkpt><trkpt lat="45.1114962" lon="8.4517205"><ele>118.00000000000001</ele><time>2026-05-03T11:29:56.38Z</time></trkpt><trkpt lat="45.111603" lon="8.4517135"><ele>118.0</ele><time>2026-05-03T11:29:57.38Z</time></trkpt><trkpt lat="45.1117112" lon="8.4517073"><ele>118.0</ele><time>2026-05-03T11:29:58.38Z</time></trkpt><trkpt lat="45.1118195" lon="8.4517003"><ele>118.4</ele><time>2026-05-03T11:29:59.38Z</time></trkpt><trkpt lat="45.1119266" lon="8.4516936"><ele>118.80000000000001</ele><time>2026-05-03T11:30:00.381Z</time></trkpt><trkpt lat="45.1120337" lon="8.4516887"><ele>119.2</ele><time>2026-05-03T11:30:01.38Z</time></trkpt><trkpt lat="45.1121414" lon="8.4516851"><ele>119.6</ele><time>2026-05-03T11:30:02.38Z</time></trkpt><trkpt lat="45.1122505" lon="8.4516787"><ele>120.0</ele><time>2026-05-03T11:30:03.381Z</time></trkpt><trkpt lat="45.1123604" lon="8.451669"><ele>119.6</ele><time>2026-05-03T11:30:04.38Z</time></trkpt><trkpt lat="45.1124697" lon="8.4516611"><ele>119.2</ele><time>2026-05-03T11:30:05.38Z</time></trkpt><trkpt lat="45.1125767" lon="8.4516576"><ele>118.80000000000001</ele><time>2026-05-03T11:30:06.38Z</time></trkpt><trkpt lat="45.112686" lon="8.4516534"><ele>118.4</ele><time>2026-05-03T11:30:07.38Z</time></trkpt><trkpt lat="45.1127916" lon="8.451648"><ele>118.0</ele><time>2026-05-03T11:30:08.38Z</time></trkpt><trkpt lat="45.1128955" lon="8.4516432"><ele>118.0</ele><time>2026-05-03T11:30:09.38Z</time></trkpt><trkpt lat="45.1130009" lon="8.4516386"><ele>118.00000000000001</ele><time>2026-05-03T11:30:10.38Z</time></trkpt><trkpt lat="45.113109" lon="8.451634"><ele>118.00000000000001</ele><time>2026-05-03T11:30:11.38Z</time></trkpt><trkpt lat="45.1132179" lon="8.451628"><ele>118.0</ele><time>2026-05-03T11:30:12.38Z</time></trkpt><trkpt lat="45.1133278" lon="8.4516199"><ele>118.0</ele><time>2026-05-03T11:30:13.38Z</time></trkpt><trkpt lat="45.1134375" lon="8.4516117"><ele>118.4</ele><time>2026-05-03T11:30:14.381Z</time></trkpt><trkpt lat="45.1135463" lon="8.4516065"><ele>118.80000000000001</ele><time>2026-05-03T11:30:15.381Z</time></trkpt><trkpt lat="45.1136537" lon="8.4516015"><ele>119.2</ele><time>2026-05-03T11:30:16.38Z</time></trkpt><trkpt lat="45.1137597" lon="8.4515947"><ele>119.6</ele><time>2026-05-03T11:30:17.38Z</time></trkpt><trkpt lat="45.1138672" lon="8.451586"><ele>120.0</ele><time>2026-05-03T11:30:18.38Z</time></trkpt><trkpt lat="45.1139746" lon="8.4515784"><ele>119.4</ele><time>2026-05-03T11:30:19.381Z</time></trkpt><trkpt lat="45.1140806" lon="8.4515728"><ele>118.8</ele><time>2026-05-03T11:30:20.381Z</time></trkpt><trkpt lat="45.1141859" lon="8.4515665"><ele>118.19999999999999</ele><time>2026-05-03T11:30:21.381Z</time></trkpt><trkpt lat="45.1142894" lon="8.4515593"><ele>117.6</ele><time>2026-05-03T11:30:22.381Z</time></trkpt><trkpt lat="45.1143871" lon="8.4515479"><ele>117.0</ele><time>2026-05-03T11:30:23.382Z</time></trkpt><trkpt lat="45.1144829" lon="8.4515352"><ele>117.0</ele><time>2026-05-03T11:30:24.381Z</time></trkpt><trkpt lat="45.114578" lon="8.4515193"><ele>116.99999999999999</ele><time>2026-05-03T11:30:25.381Z</time></trkpt><trkpt lat="45.1146727" lon="8.451503"><ele>116.99999999999999</ele><time>2026-05-03T11:30:26.381Z</time></trkpt><trkpt lat="45.1147668" lon="8.4514924"><ele>117.0</ele><time>2026-05-03T11:30:27.381Z</time></trkpt><trkpt lat="45.1148592" lon="8.4514916"><ele>117.0</ele><time>2026-05-03T11:30:28.381Z</time></trkpt><trkpt lat="45.1149499" lon="8.4514969"><ele>117.39999999999999</ele><time>2026-05-03T11:30:29.381Z</time></trkpt><trkpt lat="45.1150412" lon="8.4515062"><ele>117.79999999999998</ele><time>2026-05-03T11:30:30.381Z</time></trkpt><trkpt lat="45.1151354" lon="8.4515116"><ele>118.2</ele><time>2026-05-03T11:30:31.382Z</time></trkpt><trkpt lat="45.115231" lon="8.4515113"><ele>118.6</ele><time>2026-05-03T11:30:32.381Z</time></trkpt><trkpt lat="45.1153265" lon="8.4515068"><ele>119.0</ele><time>2026-05-03T11:30:33.381Z</time></trkpt><trkpt lat="45.1154215" lon="8.4514985"><ele>119.0</ele><time>2026-05-03T11:30:34.381Z</time></trkpt><trkpt lat="45.1155162" lon="8.4514944"><ele>119.0</ele><time>2026-05-03T11:30:35.382Z</time></trkpt><trkpt lat="45.1156105" lon="8.4514898"><ele>119.0</ele><time>2026-05-03T11:30:36.381Z</time></trkpt><trkpt lat="45.1157017" lon="8.4514878"><ele>119.0</ele><time>2026-05-03T11:30:37.381Z</time></trkpt><trkpt lat="45.1157929" lon="8.4514852"><ele>119.0</ele><time>2026-05-03T11:30:38.382Z</time></trkpt><trkpt lat="45.1158844" lon="8.4514836"><ele>118.6</ele><time>2026-05-03T11:30:39.381Z</time></trkpt><trkpt lat="45.1159758" lon="8.4514773"><ele>118.2</ele><time>2026-05-03T11:30:40.382Z</time></trkpt><trkpt lat="45.1160676" lon="8.4514689"><ele>117.79999999999998</ele><time>2026-05-03T11:30:41.381Z</time></trkpt><trkpt lat="45.1161602" lon="8.451457"><ele>117.39999999999999</ele><time>2026-05-03T11:30:42.381Z</time></trkpt><trkpt lat="45.1162534" lon="8.4514458"><ele>117.0</ele><time>2026-05-03T11:30:43.381Z</time></trkpt><trkpt lat="45.1163466" lon="8.4514398"><ele>117.0</ele><time>2026-05-03T11:30:44.382Z</time></trkpt><trkpt lat="45.116438" lon="8.4514386"><ele>116.99999999999999</ele><time>2026-05-03T11:30:45.382Z</time></trkpt><trkpt lat="45.1165321" lon="8.4514363"><ele>116.99999999999999</ele><time>2026-05-03T11:30:46.381Z</time></trkpt><trkpt lat="45.1166309" lon="8.4514306"><ele>117.0</ele><time>2026-05-03T11:30:47.382Z</time></trkpt><trkpt lat="45.1167357" lon="8.4514231"><ele>117.0</ele><time>2026-05-03T11:30:48.382Z</time></trkpt><trkpt lat="45.1168409" lon="8.4514159"><ele>116.8</ele><time>2026-05-03T11:30:49.381Z</time></trkpt><trkpt lat="45.1169431" lon="8.4514101"><ele>116.6</ele><time>2026-05-03T11:30:50.381Z</time></trkpt><trkpt lat="45.1170394" lon="8.4514055"><ele>116.39999999999999</ele><time>2026-05-03T11:30:51.381Z</time></trkpt><trkpt lat="45.1171334" lon="8.4514008"><ele>116.19999999999999</ele><time>2026-05-03T11:30:52.382Z</time></trkpt><trkpt lat="45.1172246" lon="8.4513966"><ele>116.0</ele><time>2026-05-03T11:30:53.381Z</time></trkpt><trkpt lat="45.1173137" lon="8.4513942"><ele>116.33333333333333</ele><time>2026-05-03T11:30:54.382Z</time></trkpt><trkpt lat="45.1174105" lon="8.45139"><ele>116.66666666666666</ele><time>2026-05-03T11:30:55.382Z</time></trkpt><trkpt lat="45.1175041" lon="8.4513867"><ele>117.0</ele><time>2026-05-03T11:30:56.382Z</time></trkpt><trkpt lat="45.1185761" lon="8.4512596"><ele>117.5</ele><time>2026-05-03T11:31:08.382Z</time></trkpt><trkpt lat="45.118667" lon="8.4512608"><ele>118.0</ele><time>2026-05-03T11:31:09.381Z</time></trkpt><trkpt lat="45.1187454" lon="8.4512582"><ele>118.5</ele><time>2026-05-03T11:31:10.381Z</time></trkpt><trkpt lat="45.1188241" lon="8.4512572"><ele>119.0</ele><time>2026-05-03T11:31:11.382Z</time></trkpt><trkpt lat="45.1188928" lon="8.4512575"><ele>119.5</ele><time>2026-05-03T11:31:12.382Z</time></trkpt><trkpt lat="45.1189608" lon="8.451253"><ele>120.0</ele><time>2026-05-03T11:31:13.382Z</time></trkpt><trkpt lat="45.1190285" lon="8.4512538"><ele>119.83333333333333</ele><time>2026-05-03T11:31:14.382Z</time></trkpt><trkpt lat="45.1191001" lon="8.451261"><ele>119.66666666666666</ele><time>2026-05-03T11:31:15.382Z</time></trkpt><trkpt lat="45.11917" lon="8.4512683"><ele>119.5</ele><time>2026-05-03T11:31:16.383Z</time></trkpt><trkpt lat="45.1192906" lon="8.451269"><ele>119.33333333333333</ele><time>2026-05-03T11:31:18.382Z</time></trkpt><trkpt lat="45.1193575" lon="8.4512742"><ele>119.16666666666666</ele><time>2026-05-03T11:31:19.382Z</time></trkpt><trkpt lat="45.1194236" lon="8.4512765"><ele>119.0</ele><time>2026-05-03T11:31:20.383Z</time></trkpt><trkpt lat="45.1194921" lon="8.4512787"><ele>119.0</ele><time>2026-05-03T11:31:21.383Z</time></trkpt><trkpt lat="45.1195589" lon="8.4512838"><ele>119.0</ele><time>2026-05-03T11:31:22.382Z</time></trkpt><trkpt lat="45.119634" lon="8.4512917"><ele>119.0</ele><time>2026-05-03T11:31:23.382Z</time></trkpt><trkpt lat="45.1197142" lon="8.4512955"><ele>119.0</ele><time>2026-05-03T11:31:24.383Z</time></trkpt><trkpt lat="45.11979" lon="8.4512886"><ele>119.0</ele><time>2026-05-03T11:31:25.383Z</time></trkpt><trkpt lat="45.1198636" lon="8.4512792"><ele>119.0</ele><time>2026-05-03T11:31:26.382Z</time></trkpt><trkpt lat="45.119934" lon="8.4512698"><ele>119.0</ele><time>2026-05-03T11:31:27.383Z</time></trkpt><trkpt lat="45.1200018" lon="8.4512611"><ele>119.16666666666666</ele><time>2026-05-03T11:31:28.382Z</time></trkpt><trkpt lat="45.1200694" lon="8.4512544"><ele>119.33333333333333</ele><time>2026-05-03T11:31:29.382Z</time></trkpt><trkpt lat="45.1201356" lon="8.4512497"><ele>119.5</ele><time>2026-05-03T11:31:30.383Z</time></trkpt><trkpt lat="45.1202418" lon="8.4512408"><ele>119.66666666666666</ele><time>2026-05-03T11:31:32.382Z</time></trkpt><trkpt lat="45.1203146" lon="8.4512393"><ele>119.83333333333333</ele><time>2026-05-03T11:31:34.383Z</time></trkpt><trkpt lat="45.1204284" lon="8.4512297"><ele>120.0</ele><time>2026-05-03T11:31:36.382Z</time></trkpt><trkpt lat="45.1205546" lon="8.4512184"><ele>120.0</ele><time>2026-05-03T11:31:38.382Z</time></trkpt><trkpt lat="45.1206787" lon="8.4512246"><ele>120.0</ele><time>2026-05-03T11:31:40.382Z</time></trkpt><trkpt lat="45.1207528" lon="8.4512226"><ele>120.0</ele><time>2026-05-03T11:31:41.382Z</time></trkpt><trkpt lat="45.1208366" lon="8.4512205"><ele>120.0</ele><time>2026-05-03T11:31:42.383Z</time></trkpt><trkpt lat="45.1209235" lon="8.4512215"><ele>120.0</ele><time>2026-05-03T11:31:43.382Z</time></trkpt><trkpt lat="45.1210058" lon="8.4512143"><ele>119.83333333333333</ele><time>2026-05-03T11:31:44.382Z</time></trkpt><trkpt lat="45.1210898" lon="8.4512059"><ele>119.66666666666666</ele><time>2026-05-03T11:31:45.382Z</time></trkpt><trkpt lat="45.1211826" lon="8.4512047"><ele>119.5</ele><time>2026-05-03T11:31:46.383Z</time></trkpt><trkpt lat="45.1212614" lon="8.451221"><ele>119.33333333333333</ele><time>2026-05-03T11:31:47.383Z</time></trkpt><trkpt lat="45.1213361" lon="8.4512093"><ele>119.16666666666666</ele><time>2026-05-03T11:31:48.383Z</time></trkpt><trkpt lat="45.1214061" lon="8.4511913"><ele>119.0</ele><time>2026-05-03T11:31:49.382Z</time></trkpt><trkpt lat="45.121471" lon="8.4511781"><ele>119.2</ele><time>2026-05-03T11:31:50.382Z</time></trkpt><trkpt lat="45.1215781" lon="8.4511663"><ele>119.4</ele><time>2026-05-03T11:31:52.382Z</time></trkpt><trkpt lat="45.1217088" lon="8.4511469"><ele>119.6</ele><time>2026-05-03T11:31:54.383Z</time></trkpt><trkpt lat="45.1217811" lon="8.4511426"><ele>119.8</ele><time>2026-05-03T11:31:55.383Z</time></trkpt><trkpt lat="45.1219175" lon="8.4511465"><ele>120.0</ele><time>2026-05-03T11:31:57.383Z</time></trkpt><trkpt lat="45.122024" lon="8.4511748"><ele>120.0</ele><time>2026-05-03T11:31:58.383Z</time></trkpt><trkpt lat="45.1221019" lon="8.4511788"><ele>120.0</ele><time>2026-05-03T11:31:59.384Z</time></trkpt><trkpt lat="45.1221852" lon="8.4511772"><ele>120.0</ele><time>2026-05-03T11:32:00.383Z</time></trkpt><trkpt lat="45.122266" lon="8.4511696"><ele>120.0</ele><time>2026-05-03T11:32:01.384Z</time></trkpt><trkpt lat="45.1223406" lon="8.4511651"><ele>120.0</ele><time>2026-05-03T11:32:02.384Z</time></trkpt><trkpt lat="45.1224157" lon="8.4511637"><ele>120.0</ele><time>2026-05-03T11:32:03.384Z</time></trkpt><trkpt lat="45.1224833" lon="8.4511598"><ele>119.8</ele><time>2026-05-03T11:32:04.383Z</time></trkpt><trkpt lat="45.1225649" lon="8.4511801"><ele>119.6</ele><time>2026-05-03T11:32:05.383Z</time></trkpt><trkpt lat="45.1226528" lon="8.4511757"><ele>119.4</ele><time>2026-05-03T11:32:06.383Z</time></trkpt><trkpt lat="45.1227467" lon="8.4511705"><ele>119.2</ele><time>2026-05-03T11:32:07.383Z</time></trkpt><trkpt lat="45.1228415" lon="8.4511443"><ele>119.0</ele><time>2026-05-03T11:32:08.383Z</time></trkpt><trkpt lat="45.1229391" lon="8.4511302"><ele>118.99999999999999</ele><time>2026-05-03T11:32:09.384Z</time></trkpt><trkpt lat="45.1230414" lon="8.4511161"><ele>119.0</ele><time>2026-05-03T11:32:10.383Z</time></trkpt><trkpt lat="45.1231297" lon="8.4511219"><ele>119.0</ele><time>2026-05-03T11:32:11.383Z</time></trkpt><trkpt lat="45.123218" lon="8.4511231"><ele>119.0</ele><time>2026-05-03T11:32:12.383Z</time></trkpt><trkpt lat="45.1232959" lon="8.4511237"><ele>118.99999999999999</ele><time>2026-05-03T11:32:13.383Z</time></trkpt><trkpt lat="45.1233778" lon="8.4511162"><ele>119.0</ele><time>2026-05-03T11:32:14.383Z</time></trkpt><trkpt lat="45.1234632" lon="8.4511139"><ele>118.83333333333333</ele><time>2026-05-03T11:32:15.384Z</time></trkpt><trkpt lat="45.1235562" lon="8.4511197"><ele>118.66666666666666</ele><time>2026-05-03T11:32:16.383Z</time></trkpt><trkpt lat="45.1236401" lon="8.4511323"><ele>118.5</ele><time>2026-05-03T11:32:17.384Z</time></trkpt><trkpt lat="45.1237211" lon="8.4511219"><ele>118.33333333333334</ele><time>2026-05-03T11:32:18.383Z</time></trkpt><trkpt lat="45.1237974" lon="8.4511104"><ele>118.16666666666667</ele><time>2026-05-03T11:32:19.383Z</time></trkpt><trkpt lat="45.1238689" lon="8.4511002"><ele>118.0</ele><time>2026-05-03T11:32:20.384Z</time></trkpt><trkpt lat="45.1239384" lon="8.451096"><ele>118.00000000000001</ele><time>2026-05-03T11:32:21.384Z</time></trkpt><trkpt lat="45.1240027" lon="8.451098"><ele>118.0</ele><time>2026-05-03T11:32:22.384Z</time></trkpt><trkpt lat="45.1240863" lon="8.4510954"><ele>118.0</ele><time>2026-05-03T11:32:24.383Z</time></trkpt><trkpt lat="45.1241348" lon="8.4511742"><ele>118.0</ele><time>2026-05-03T11:32:26.383Z</time></trkpt><trkpt lat="45.124216" lon="8.4512396"><ele>118.00000000000001</ele><time>2026-05-03T11:32:28.383Z</time></trkpt><trkpt lat="45.1243196" lon="8.4511634"><ele>118.0</ele><time>2026-05-03T11:32:30.383Z</time></trkpt><trkpt lat="45.1243836" lon="8.4510941"><ele>117.66666666666667</ele><time>2026-05-03T11:32:31.383Z</time></trkpt><trkpt lat="45.1244568" lon="8.4510295"><ele>117.33333333333334</ele><time>2026-05-03T11:32:32.383Z</time></trkpt><trkpt lat="45.1245398" lon="8.450988"><ele>117.0</ele><time>2026-05-03T11:32:33.384Z</time></trkpt><trkpt lat="45.1246184" lon="8.4509752"><ele>116.66666666666666</ele><time>2026-05-03T11:32:34.383Z</time></trkpt><trkpt lat="45.1246973" lon="8.4509759"><ele>116.33333333333333</ele><time>2026-05-03T11:32:35.384Z</time></trkpt><trkpt lat="45.1247768" lon="8.4509802"><ele>116.0</ele><time>2026-05-03T11:32:36.383Z</time></trkpt><trkpt lat="45.12486" lon="8.4509836"><ele>115.99999999999999</ele><time>2026-05-03T11:32:37.384Z</time></trkpt><trkpt lat="45.1249448" lon="8.4509859"><ele>116.0</ele><time>2026-05-03T11:32:38.383Z</time></trkpt><trkpt lat="45.1250277" lon="8.4509859"><ele>116.0</ele><time>2026-05-03T11:32:39.383Z</time></trkpt><trkpt lat="45.1251143" lon="8.4509854"><ele>116.0</ele><time>2026-05-03T11:32:40.383Z</time></trkpt><trkpt lat="45.1252069" lon="8.4509848"><ele>115.99999999999999</ele><time>2026-05-03T11:32:41.383Z</time></trkpt><trkpt lat="45.1252997" lon="8.4509805"><ele>116.0</ele><time>2026-05-03T11:32:42.383Z</time></trkpt><trkpt lat="45.1253899" lon="8.4509745"><ele>115.99999999999999</ele><time>2026-05-03T11:32:43.383Z</time></trkpt><trkpt lat="45.125473" lon="8.4509708"><ele>116.0</ele><time>2026-05-03T11:32:44.384Z</time></trkpt><trkpt lat="45.1255535" lon="8.4509683"><ele>116.0</ele><time>2026-05-03T11:32:45.383Z</time></trkpt><trkpt lat="45.1256336" lon="8.4509636"><ele>116.0</ele><time>2026-05-03T11:32:46.383Z</time></trkpt><trkpt lat="45.1257174" lon="8.4509629"><ele>115.99999999999999</ele><time>2026-05-03T11:32:47.383Z</time></trkpt><trkpt lat="45.1257991" lon="8.4509613"><ele>116.0</ele><time>2026-05-03T11:32:48.384Z</time></trkpt><trkpt lat="45.1258797" lon="8.450967"><ele>116.33333333333333</ele><time>2026-05-03T11:32:49.384Z</time></trkpt><trkpt lat="45.1259569" lon="8.4509653"><ele>116.66666666666666</ele><time>2026-05-03T11:32:50.385Z</time></trkpt><trkpt lat="45.1260382" lon="8.4509584"><ele>117.0</ele><time>2026-05-03T11:32:51.385Z</time></trkpt><trkpt lat="45.1261241" lon="8.4509563"><ele>117.33333333333334</ele><time>2026-05-03T11:32:52.384Z</time></trkpt><trkpt lat="45.1262094" lon="8.4509461"><ele>117.66666666666667</ele><time>2026-05-03T11:32:53.384Z</time></trkpt><trkpt lat="45.1262968" lon="8.4509371"><ele>118.0</ele><time>2026-05-03T11:32:54.384Z</time></trkpt><trkpt lat="45.1263901" lon="8.4509289"><ele>118.0</ele><time>2026-05-03T11:32:55.384Z</time></trkpt><trkpt lat="45.1264896" lon="8.4509204"><ele>118.00000000000001</ele><time>2026-05-03T11:32:56.384Z</time></trkpt><trkpt lat="45.1266123" lon="8.4509227"><ele>118.00000000000001</ele><time>2026-05-03T11:32:57.384Z</time></trkpt><trkpt lat="45.1267163" lon="8.4509197"><ele>118.0</ele><time>2026-05-03T11:32:58.384Z</time></trkpt><trkpt lat="45.1268202" lon="8.4509136"><ele>118.0</ele><time>2026-05-03T11:32:59.384Z</time></trkpt><trkpt lat="45.12692" lon="8.4509079"><ele>118.00000000000001</ele><time>2026-05-03T11:33:00.385Z</time></trkpt><trkpt lat="45.1270185" lon="8.450909"><ele>118.0</ele><time>2026-05-03T11:33:01.384Z</time></trkpt><trkpt lat="45.12711" lon="8.4509054"><ele>118.0</ele><time>2026-05-03T11:33:02.385Z</time></trkpt><trkpt lat="45.1271881" lon="8.4509009"><ele>118.0</ele><time>2026-05-03T11:33:03.384Z</time></trkpt><trkpt lat="45.1272616" lon="8.4509009"><ele>118.00000000000001</ele><time>2026-05-03T11:33:04.384Z</time></trkpt><trkpt lat="45.127329" lon="8.4509022"><ele>118.0</ele><time>2026-05-03T11:33:05.385Z</time></trkpt><trkpt lat="45.1273975" lon="8.4508979"><ele>117.83333333333334</ele><time>2026-05-03T11:33:06.385Z</time></trkpt><trkpt lat="45.1274645" lon="8.4508943"><ele>117.66666666666667</ele><time>2026-05-03T11:33:07.384Z</time></trkpt><trkpt lat="45.1275392" lon="8.4508844"><ele>117.5</ele><time>2026-05-03T11:33:08.385Z</time></trkpt><trkpt lat="45.1276206" lon="8.4508812"><ele>117.33333333333334</ele><time>2026-05-03T11:33:09.384Z</time></trkpt><trkpt lat="45.1277131" lon="8.4508757"><ele>117.16666666666667</ele><time>2026-05-03T11:33:10.384Z</time></trkpt><trkpt lat="45.1278229" lon="8.4508804"><ele>117.0</ele><time>2026-05-03T11:33:11.384Z</time></trkpt><trkpt lat="45.1279227" lon="8.450875"><ele>117.0</ele><time>2026-05-03T11:33:12.385Z</time></trkpt><trkpt lat="45.1280165" lon="8.4508773"><ele>116.99999999999999</ele><time>2026-05-03T11:33:13.385Z</time></trkpt><trkpt lat="45.1281047" lon="8.4508689"><ele>116.99999999999999</ele><time>2026-05-03T11:33:14.385Z</time></trkpt><trkpt lat="45.1281905" lon="8.4508566"><ele>117.0</ele><time>2026-05-03T11:33:15.384Z</time></trkpt><trkpt lat="45.1282846" lon="8.4508513"><ele>117.0</ele><time>2026-05-03T11:33:16.385Z</time></trkpt><trkpt lat="45.12838" lon="8.4508446"><ele>117.0</ele><time>2026-05-03T11:33:17.384Z</time></trkpt><trkpt lat="45.1284708" lon="8.4508458"><ele>117.0</ele><time>2026-05-03T11:33:18.384Z</time></trkpt><trkpt lat="45.1285528" lon="8.4508393"><ele>117.0</ele><time>2026-05-03T11:33:19.384Z</time></trkpt><trkpt lat="45.1286338" lon="8.4508315"><ele>117.0</ele><time>2026-05-03T11:33:20.384Z</time></trkpt><trkpt lat="45.128713" lon="8.4508205"><ele>117.0</ele><time>2026-05-03T11:33:21.384Z</time></trkpt><trkpt lat="45.1287958" lon="8.4508042"><ele>117.0</ele><time>2026-05-03T11:33:22.385Z</time></trkpt><trkpt lat="45.1288785" lon="8.4507942"><ele>117.0</ele><time>2026-05-03T11:33:23.385Z</time></trkpt><trkpt lat="45.1289537" lon="8.4507819"><ele>116.99999999999999</ele><time>2026-05-03T11:33:24.384Z</time></trkpt><trkpt lat="45.1290503" lon="8.4507764"><ele>116.99999999999999</ele><time>2026-05-03T11:33:26.384Z</time></trkpt><trkpt lat="45.1291324" lon="8.4508048"><ele>117.0</ele><time>2026-05-03T11:33:28.385Z</time></trkpt><trkpt lat="45.1292478" lon="8.4507865"><ele>117.0</ele><time>2026-05-03T11:33:30.384Z</time></trkpt><trkpt lat="45.1293011" lon="8.4506898"><ele>117.0</ele><time>2026-05-03T11:33:32.384Z</time></trkpt><trkpt lat="45.1292941" lon="8.4505589"><ele>116.99999999999999</ele><time>2026-05-03T11:33:34.384Z</time></trkpt><trkpt lat="45.1293086" lon="8.4503894"><ele>116.99999999999999</ele><time>2026-05-03T11:33:36.384Z</time></trkpt><trkpt lat="45.1293818" lon="8.4502378"><ele>117.0</ele><time>2026-05-03T11:33:38.384Z</time></trkpt><trkpt lat="45.1294235" lon="8.4501678"><ele>117.0</ele><time>2026-05-03T11:33:39.386Z</time></trkpt><trkpt lat="45.1294644" lon="8.4500968"><ele>117.16666666666667</ele><time>2026-05-03T11:33:40.386Z</time></trkpt><trkpt lat="45.1295044" lon="8.4499808"><ele>117.33333333333334</ele><time>2026-05-03T11:33:41.385Z</time></trkpt><trkpt lat="45.1295495" lon="8.4498856"><ele>117.5</ele><time>2026-05-03T11:33:42.385Z</time></trkpt><trkpt lat="45.1296168" lon="8.4497986"><ele>117.66666666666667</ele><time>2026-05-03T11:33:43.385Z</time></trkpt><trkpt lat="45.1296788" lon="8.4496959"><ele>117.83333333333334</ele><time>2026-05-03T11:33:44.385Z</time></trkpt><trkpt lat="45.1297348" lon="8.4496138"><ele>118.0</ele><time>2026-05-03T11:33:45.385Z</time></trkpt><trkpt lat="45.1297873" lon="8.4495303"><ele>118.16666666666667</ele><time>2026-05-03T11:33:46.386Z</time></trkpt><trkpt lat="45.1298452" lon="8.4494513"><ele>118.33333333333334</ele><time>2026-05-03T11:33:47.385Z</time></trkpt><trkpt lat="45.1299027" lon="8.4493699"><ele>118.5</ele><time>2026-05-03T11:33:48.386Z</time></trkpt><trkpt lat="45.1299522" lon="8.4492966"><ele>118.66666666666666</ele><time>2026-05-03T11:33:49.385Z</time></trkpt><trkpt lat="45.1300063" lon="8.4492096"><ele>118.83333333333333</ele><time>2026-05-03T11:33:50.385Z</time></trkpt><trkpt lat="45.1300775" lon="8.4491379"><ele>119.0</ele><time>2026-05-03T11:33:51.386Z</time></trkpt><trkpt lat="45.1301331" lon="8.4490588"><ele>118.99999999999999</ele><time>2026-05-03T11:33:52.385Z</time></trkpt><trkpt lat="45.1301758" lon="8.4489868"><ele>119.0</ele><time>2026-05-03T11:33:53.385Z</time></trkpt><trkpt lat="45.1302099" lon="8.4488817"><ele>119.0</ele><time>2026-05-03T11:33:55.385Z</time></trkpt><trkpt lat="45.1302627" lon="8.4488296"><ele>119.0</ele><time>2026-05-03T11:33:57.385Z</time></trkpt><trkpt lat="45.1303437" lon="8.4487446"><ele>118.99999999999999</ele><time>2026-05-03T11:33:59.386Z</time></trkpt><trkpt lat="45.1303926" lon="8.4486665"><ele>119.0</ele><time>2026-05-03T11:34:00.385Z</time></trkpt><trkpt lat="45.1304431" lon="8.4485712"><ele>119.0</ele><time>2026-05-03T11:34:01.385Z</time></trkpt><trkpt lat="45.1305107" lon="8.4484973"><ele>119.0</ele><time>2026-05-03T11:34:02.385Z</time></trkpt><trkpt lat="45.1305495" lon="8.4484086"><ele>119.0</ele><time>2026-05-03T11:34:03.386Z</time></trkpt><trkpt lat="45.1305994" lon="8.44834"><ele>119.0</ele><time>2026-05-03T11:34:04.386Z</time></trkpt><trkpt lat="45.1306513" lon="8.4482799"><ele>119.0</ele><time>2026-05-03T11:34:05.386Z</time></trkpt><trkpt lat="45.1307052" lon="8.4482211"><ele>119.0</ele><time>2026-05-03T11:34:06.386Z</time></trkpt><trkpt lat="45.1307675" lon="8.448152"><ele>119.0</ele><time>2026-05-03T11:34:07.385Z</time></trkpt><trkpt lat="45.1308171" lon="8.4480759"><ele>118.83333333333333</ele><time>2026-05-03T11:34:08.385Z</time></trkpt><trkpt lat="45.1308699" lon="8.4479929"><ele>118.66666666666666</ele><time>2026-05-03T11:34:09.386Z</time></trkpt><trkpt lat="45.1309255" lon="8.4479064"><ele>118.5</ele><time>2026-05-03T11:34:10.385Z</time></trkpt><trkpt lat="45.1309818" lon="8.4478193"><ele>118.33333333333334</ele><time>2026-05-03T11:34:11.385Z</time></trkpt><trkpt lat="45.1310418" lon="8.4477334"><ele>118.16666666666667</ele><time>2026-05-03T11:34:12.386Z</time></trkpt><trkpt lat="45.1311007" lon="8.4476433"><ele>118.0</ele><time>2026-05-03T11:34:13.386Z</time></trkpt><trkpt lat="45.1311592" lon="8.4475465"><ele>117.80000000000001</ele><time>2026-05-03T11:34:14.386Z</time></trkpt><trkpt lat="45.1312236" lon="8.4474537"><ele>117.60000000000001</ele><time>2026-05-03T11:34:15.386Z</time></trkpt><trkpt lat="45.1312893" lon="8.4473591"><ele>117.39999999999999</ele><time>2026-05-03T11:34:16.385Z</time></trkpt><trkpt lat="45.1313524" lon="8.447268"><ele>117.19999999999999</ele><time>2026-05-03T11:34:17.385Z</time></trkpt><trkpt lat="45.1314161" lon="8.4471763"><ele>117.0</ele><time>2026-05-03T11:34:18.385Z</time></trkpt><trkpt lat="45.1314832" lon="8.4470819"><ele>116.83333333333333</ele><time>2026-05-03T11:34:19.385Z</time></trkpt><trkpt lat="45.1315444" lon="8.4469909"><ele>116.66666666666666</ele><time>2026-05-03T11:34:20.385Z</time></trkpt><trkpt lat="45.131606" lon="8.4468993"><ele>116.5</ele><time>2026-05-03T11:34:21.386Z</time></trkpt><trkpt lat="45.13167" lon="8.4468"><ele>116.33333333333333</ele><time>2026-05-03T11:34:22.385Z</time></trkpt><trkpt lat="45.1317197" lon="8.4467015"><ele>116.16666666666666</ele><time>2026-05-03T11:34:23.386Z</time></trkpt><trkpt lat="45.131778" lon="8.4466075"><ele>116.0</ele><time>2026-05-03T11:34:24.385Z</time></trkpt><trkpt lat="45.1318417" lon="8.4465214"><ele>116.0</ele><time>2026-05-03T11:34:25.386Z</time></trkpt><trkpt lat="45.1319111" lon="8.4464319"><ele>116.0</ele><time>2026-05-03T11:34:26.386Z</time></trkpt><trkpt lat="45.1319763" lon="8.446343"><ele>116.0</ele><time>2026-05-03T11:34:27.385Z</time></trkpt><trkpt lat="45.1320415" lon="8.446251"><ele>116.0</ele><time>2026-05-03T11:34:28.387Z</time></trkpt><trkpt lat="45.1321036" lon="8.4461557"><ele>116.0</ele><time>2026-05-03T11:34:29.386Z</time></trkpt><trkpt lat="45.1321646" lon="8.4460624"><ele>116.0</ele><time>2026-05-03T11:34:30.386Z</time></trkpt><trkpt lat="45.1322285" lon="8.4459648"><ele>116.0</ele><time>2026-05-03T11:34:31.387Z</time></trkpt><trkpt lat="45.1322939" lon="8.4458671"><ele>116.0</ele><time>2026-05-03T11:34:32.386Z</time></trkpt><trkpt lat="45.1323601" lon="8.4457692"><ele>116.0</ele><time>2026-05-03T11:34:33.387Z</time></trkpt><trkpt lat="45.1324249" lon="8.4456731"><ele>116.0</ele><time>2026-05-03T11:34:34.387Z</time></trkpt><trkpt lat="45.132487" lon="8.4455799"><ele>115.83333333333333</ele><time>2026-05-03T11:34:35.386Z</time></trkpt><trkpt lat="45.1325472" lon="8.4454907"><ele>115.66666666666666</ele><time>2026-05-03T11:34:36.386Z</time></trkpt><trkpt lat="45.1326065" lon="8.4454033"><ele>115.5</ele><time>2026-05-03T11:34:37.386Z</time></trkpt><trkpt lat="45.1326646" lon="8.4453176"><ele>115.33333333333334</ele><time>2026-05-03T11:34:38.386Z</time></trkpt><trkpt lat="45.1327217" lon="8.4452367"><ele>115.16666666666667</ele><time>2026-05-03T11:34:39.387Z</time></trkpt><trkpt lat="45.1327774" lon="8.4451546"><ele>115.0</ele><time>2026-05-03T11:34:40.386Z</time></trkpt><trkpt lat="45.1328318" lon="8.4450675"><ele>115.83333333333334</ele><time>2026-05-03T11:34:41.386Z</time></trkpt><trkpt lat="45.1328869" lon="8.4449823"><ele>116.66666666666667</ele><time>2026-05-03T11:34:42.386Z</time></trkpt><trkpt lat="45.1329438" lon="8.4448928"><ele>117.5</ele><time>2026-05-03T11:34:43.386Z</time></trkpt><trkpt lat="45.1329912" lon="8.4448128"><ele>118.33333333333334</ele><time>2026-05-03T11:34:44.386Z</time></trkpt><trkpt lat="45.1330297" lon="8.4447366"><ele>119.16666666666667</ele><time>2026-05-03T11:34:45.386Z</time></trkpt><trkpt lat="45.1330883" lon="8.4446341"><ele>120.0</ele><time>2026-05-03T11:34:47.387Z</time></trkpt><trkpt lat="45.1331535" lon="8.444586"><ele>119.4</ele><time>2026-05-03T11:34:49.386Z</time></trkpt><trkpt lat="45.1332397" lon="8.4446191"><ele>118.8</ele><time>2026-05-03T11:34:51.387Z</time></trkpt><trkpt lat="45.1333334" lon="8.4447003"><ele>118.19999999999999</ele><time>2026-05-03T11:34:53.386Z</time></trkpt><trkpt lat="45.1334322" lon="8.4447631"><ele>117.6</ele><time>2026-05-03T11:34:55.387Z</time></trkpt><trkpt lat="45.1335216" lon="8.4447911"><ele>117.0</ele><time>2026-05-03T11:34:57.386Z</time></trkpt><trkpt lat="45.1336141" lon="8.444766"><ele>117.0</ele><time>2026-05-03T11:34:59.386Z</time></trkpt><trkpt lat="45.1336862" lon="8.4446385"><ele>116.99999999999999</ele><time>2026-05-03T11:35:01.386Z</time></trkpt><trkpt lat="45.1337688" lon="8.4445343"><ele>116.99999999999999</ele><time>2026-05-03T11:35:03.386Z</time></trkpt><trkpt lat="45.1338338" lon="8.4444836"><ele>117.0</ele><time>2026-05-03T11:35:04.387Z</time></trkpt><trkpt lat="45.133913" lon="8.4444454"><ele>117.0</ele><time>2026-05-03T11:35:05.386Z</time></trkpt><trkpt lat="45.1339931" lon="8.444414"><ele>116.83333333333333</ele><time>2026-05-03T11:35:06.387Z</time></trkpt><trkpt lat="45.1340729" lon="8.4443966"><ele>116.66666666666666</ele><time>2026-05-03T11:35:07.386Z</time></trkpt><trkpt lat="45.1341524" lon="8.4443872"><ele>116.5</ele><time>2026-05-03T11:35:08.387Z</time></trkpt><trkpt lat="45.1342321" lon="8.4443819"><ele>116.33333333333333</ele><time>2026-05-03T11:35:09.386Z</time></trkpt><trkpt lat="45.134312" lon="8.444377"><ele>116.16666666666666</ele><time>2026-05-03T11:35:10.386Z</time></trkpt><trkpt lat="45.1343893" lon="8.444373"><ele>116.0</ele><time>2026-05-03T11:35:11.387Z</time></trkpt><trkpt lat="45.134459" lon="8.4443736"><ele>116.0</ele><time>2026-05-03T11:35:12.386Z</time></trkpt><trkpt lat="45.1345758" lon="8.4444116"><ele>116.0</ele><time>2026-05-03T11:35:14.386Z</time></trkpt><trkpt lat="45.1346782" lon="8.4445048"><ele>116.0</ele><time>2026-05-03T11:35:16.386Z</time></trkpt><trkpt lat="45.1347742" lon="8.4444638"><ele>116.0</ele><time>2026-05-03T11:35:18.387Z</time></trkpt><trkpt lat="45.1348346" lon="8.4444105"><ele>116.0</ele><time>2026-05-03T11:35:19.387Z</time></trkpt><trkpt lat="45.1349418" lon="8.4443419"><ele>116.00000000000001</ele><time>2026-05-03T11:35:21.388Z</time></trkpt><trkpt lat="45.1350527" lon="8.4443147"><ele>116.0</ele><time>2026-05-03T11:35:23.387Z</time></trkpt><trkpt lat="45.1351187" lon="8.444313"><ele>116.00000000000001</ele><time>2026-05-03T11:35:24.387Z</time></trkpt><trkpt lat="45.1351827" lon="8.4443172"><ele>116.00000000000001</ele><time>2026-05-03T11:35:25.387Z</time></trkpt><trkpt lat="45.1352484" lon="8.4443206"><ele>116.0</ele><time>2026-05-03T11:35:26.387Z</time></trkpt><trkpt lat="45.1353155" lon="8.4443216"><ele>116.00000000000001</ele><time>2026-05-03T11:35:27.388Z</time></trkpt><trkpt lat="45.1353843" lon="8.4443264"><ele>116.00000000000001</ele><time>2026-05-03T11:35:28.387Z</time></trkpt><trkpt lat="45.1354602" lon="8.4443296"><ele>115.99999999999999</ele><time>2026-05-03T11:35:29.388Z</time></trkpt><trkpt lat="45.1355365" lon="8.4443258"><ele>116.0</ele><time>2026-05-03T11:35:30.388Z</time></trkpt><trkpt lat="45.1356166" lon="8.4443214"><ele>116.0</ele><time>2026-05-03T11:35:31.388Z</time></trkpt><trkpt lat="45.1356993" lon="8.4443271"><ele>116.0</ele><time>2026-05-03T11:35:32.387Z</time></trkpt><trkpt lat="45.1357709" lon="8.4443368"><ele>115.99999999999999</ele><time>2026-05-03T11:35:33.387Z</time></trkpt><trkpt lat="45.1358815" lon="8.4443943"><ele>116.0</ele><time>2026-05-03T11:35:35.388Z</time></trkpt><trkpt lat="45.1359709" lon="8.4444856"><ele>116.33333333333333</ele><time>2026-05-03T11:35:37.388Z</time></trkpt><trkpt lat="45.1360902" lon="8.4444932"><ele>116.66666666666666</ele><time>2026-05-03T11:35:39.388Z</time></trkpt><trkpt lat="45.1361624" lon="8.4444646"><ele>117.0</ele><time>2026-05-03T11:35:40.388Z</time></trkpt><trkpt lat="45.1362355" lon="8.4444321"><ele>117.33333333333334</ele><time>2026-05-03T11:35:41.387Z</time></trkpt><trkpt lat="45.1363142" lon="8.4444083"><ele>117.66666666666667</ele><time>2026-05-03T11:35:42.387Z</time></trkpt><trkpt lat="45.1363933" lon="8.4444118"><ele>118.0</ele><time>2026-05-03T11:35:43.387Z</time></trkpt><trkpt lat="45.1364728" lon="8.4444327"><ele>118.00000000000001</ele><time>2026-05-03T11:35:44.387Z</time></trkpt><trkpt lat="45.1365541" lon="8.4444538"><ele>118.0</ele><time>2026-05-03T11:35:45.387Z</time></trkpt><trkpt lat="45.1366381" lon="8.4444751"><ele>118.0</ele><time>2026-05-03T11:35:46.387Z</time></trkpt><trkpt lat="45.136725" lon="8.4444918"><ele>118.0</ele><time>2026-05-03T11:35:47.388Z</time></trkpt><trkpt lat="45.1368135" lon="8.444508"><ele>118.00000000000001</ele><time>2026-05-03T11:35:48.387Z</time></trkpt><trkpt lat="45.1369027" lon="8.4445284"><ele>118.0</ele><time>2026-05-03T11:35:49.387Z</time></trkpt><trkpt lat="45.1369945" lon="8.4445512"><ele>118.00000000000001</ele><time>2026-05-03T11:35:50.387Z</time></trkpt><trkpt lat="45.1370865" lon="8.4445738"><ele>118.0</ele><time>2026-05-03T11:35:51.388Z</time></trkpt><trkpt lat="45.137171" lon="8.4445936"><ele>118.0</ele><time>2026-05-03T11:35:52.387Z</time></trkpt><trkpt lat="45.1372474" lon="8.4446116"><ele>118.0</ele><time>2026-05-03T11:35:53.387Z</time></trkpt><trkpt lat="45.1373152" lon="8.4446318"><ele>118.00000000000001</ele><time>2026-05-03T11:35:54.388Z</time></trkpt><trkpt lat="45.1373829" lon="8.4446512"><ele>118.0</ele><time>2026-05-03T11:35:55.387Z</time></trkpt><trkpt lat="45.1374465" lon="8.4446708"><ele>118.0</ele><time>2026-05-03T11:35:56.388Z</time></trkpt><trkpt lat="45.1375701" lon="8.4447235"><ele>118.00000000000001</ele><time>2026-05-03T11:35:58.387Z</time></trkpt><trkpt lat="45.137676" lon="8.444814"><ele>118.00000000000001</ele><time>2026-05-03T11:36:00.387Z</time></trkpt><trkpt lat="45.137725" lon="8.4448833"><ele>118.0</ele><time>2026-05-03T11:36:01.388Z</time></trkpt><trkpt lat="45.1377732" lon="8.4449626"><ele>118.0</ele><time>2026-05-03T11:36:02.387Z</time></trkpt><trkpt lat="45.1378226" lon="8.4450436"><ele>118.00000000000001</ele><time>2026-05-03T11:36:03.388Z</time></trkpt><trkpt lat="45.1378787" lon="8.445128"><ele>118.0</ele><time>2026-05-03T11:36:04.388Z</time></trkpt><trkpt lat="45.1379347" lon="8.445204"><ele>118.0</ele><time>2026-05-03T11:36:05.388Z</time></trkpt><trkpt lat="45.1379876" lon="8.4452757"><ele>118.0</ele><time>2026-05-03T11:36:06.388Z</time></trkpt><trkpt lat="45.1380406" lon="8.4453468"><ele>118.00000000000001</ele><time>2026-05-03T11:36:07.389Z</time></trkpt><trkpt lat="45.1380932" lon="8.4454216"><ele>118.0</ele><time>2026-05-03T11:36:08.388Z</time></trkpt><trkpt lat="45.1381483" lon="8.4454984"><ele>117.66666666666667</ele><time>2026-05-03T11:36:09.388Z</time></trkpt><trkpt lat="45.1382117" lon="8.4455836"><ele>117.33333333333334</ele><time>2026-05-03T11:36:10.388Z</time></trkpt><trkpt lat="45.1382752" lon="8.4456677"><ele>117.0</ele><time>2026-05-03T11:36:11.388Z</time></trkpt><trkpt lat="45.1383401" lon="8.4457491"><ele>116.66666666666666</ele><time>2026-05-03T11:36:12.388Z</time></trkpt><trkpt lat="45.1384091" lon="8.4458318"><ele>116.33333333333333</ele><time>2026-05-03T11:36:13.388Z</time></trkpt><trkpt lat="45.1384782" lon="8.4459102"><ele>116.0</ele><time>2026-05-03T11:36:14.389Z</time></trkpt><trkpt lat="45.1385442" lon="8.4459831"><ele>115.99999999999999</ele><time>2026-05-03T11:36:15.388Z</time></trkpt><trkpt lat="45.1386034" lon="8.4460513"><ele>116.0</ele><time>2026-05-03T11:36:16.389Z</time></trkpt><trkpt lat="45.1386527" lon="8.446116"><ele>116.0</ele><time>2026-05-03T11:36:17.388Z</time></trkpt><trkpt lat="45.1386934" lon="8.446185"><ele>116.0</ele><time>2026-05-03T11:36:18.388Z</time></trkpt><trkpt lat="45.1387476" lon="8.446319"><ele>115.99999999999999</ele><time>2026-05-03T11:36:20.388Z</time></trkpt><trkpt lat="45.1387733" lon="8.4464657"><ele>116.0</ele><time>2026-05-03T11:36:22.388Z</time></trkpt><trkpt lat="45.1388442" lon="8.446589"><ele>116.2857142857143</ele><time>2026-05-03T11:36:24.388Z</time></trkpt><trkpt lat="45.1389128" lon="8.4465943"><ele>116.57142857142858</ele><time>2026-05-03T11:36:25.388Z</time></trkpt><trkpt lat="45.1389862" lon="8.4465713"><ele>116.85714285714286</ele><time>2026-05-03T11:36:26.388Z</time></trkpt><trkpt lat="45.1390609" lon="8.4465442"><ele>117.14285714285715</ele><time>2026-05-03T11:36:27.388Z</time></trkpt><trkpt lat="45.139131" lon="8.4465369"><ele>117.42857142857144</ele><time>2026-05-03T11:36:28.388Z</time></trkpt><trkpt lat="45.1391981" lon="8.446558"><ele>117.71428571428571</ele><time>2026-05-03T11:36:29.389Z</time></trkpt><trkpt lat="45.13927" lon="8.4465914"><ele>118.0</ele><time>2026-05-03T11:36:30.388Z</time></trkpt><trkpt lat="45.1393547" lon="8.4466324"><ele>118.00000000000001</ele><time>2026-05-03T11:36:31.388Z</time></trkpt><trkpt lat="45.1394354" lon="8.4466644"><ele>118.0</ele><time>2026-05-03T11:36:32.388Z</time></trkpt><trkpt lat="45.1395142" lon="8.4466918"><ele>118.0</ele><time>2026-05-03T11:36:33.388Z</time></trkpt><trkpt lat="45.1395959" lon="8.4467198"><ele>118.0</ele><time>2026-05-03T11:36:34.388Z</time></trkpt><trkpt lat="45.1396798" lon="8.4467479"><ele>118.00000000000001</ele><time>2026-05-03T11:36:35.389Z</time></trkpt><trkpt lat="45.1397687" lon="8.44678"><ele>118.0</ele><time>2026-05-03T11:36:36.388Z</time></trkpt><trkpt lat="45.1398542" lon="8.4468221"><ele>118.60000000000001</ele><time>2026-05-03T11:36:37.388Z</time></trkpt><trkpt lat="45.1399416" lon="8.4468787"><ele>119.20000000000002</ele><time>2026-05-03T11:36:38.388Z</time></trkpt><trkpt lat="45.1400244" lon="8.446956"><ele>119.8</ele><time>2026-05-03T11:36:39.388Z</time></trkpt><trkpt lat="45.140099" lon="8.4470461"><ele>120.4</ele><time>2026-05-03T11:36:40.388Z</time></trkpt><trkpt lat="45.1401622" lon="8.4471462"><ele>121.0</ele><time>2026-05-03T11:36:41.388Z</time></trkpt><trkpt lat="45.1402147" lon="8.4472502"><ele>121.00000000000001</ele><time>2026-05-03T11:36:42.388Z</time></trkpt><trkpt lat="45.1402587" lon="8.4473609"><ele>121.0</ele><time>2026-05-03T11:36:43.388Z</time></trkpt><trkpt lat="45.1403044" lon="8.4474707"><ele>121.0</ele><time>2026-05-03T11:36:44.388Z</time></trkpt><trkpt lat="45.1403515" lon="8.4475773"><ele>121.0</ele><time>2026-05-03T11:36:45.389Z</time></trkpt><trkpt lat="45.1403968" lon="8.4476883"><ele>121.00000000000001</ele><time>2026-05-03T11:36:46.388Z</time></trkpt><trkpt lat="45.1404412" lon="8.4477919"><ele>121.0</ele><time>2026-05-03T11:36:47.389Z</time></trkpt><trkpt lat="45.140486" lon="8.4478946"><ele>121.00000000000001</ele><time>2026-05-03T11:36:48.388Z</time></trkpt><trkpt lat="45.1405277" lon="8.4479923"><ele>121.0</ele><time>2026-05-03T11:36:49.388Z</time></trkpt><trkpt lat="45.1405724" lon="8.4480907"><ele>121.0</ele><time>2026-05-03T11:36:50.388Z</time></trkpt><trkpt lat="45.1406093" lon="8.4481818"><ele>121.0</ele><time>2026-05-03T11:36:51.388Z</time></trkpt><trkpt lat="45.1406571" lon="8.4483324"><ele>121.00000000000001</ele><time>2026-05-03T11:36:53.388Z</time></trkpt><trkpt lat="45.1407032" lon="8.4484335"><ele>121.0</ele><time>2026-05-03T11:36:55.39Z</time></trkpt><trkpt lat="45.1408184" lon="8.4484284"><ele>120.33333333333334</ele><time>2026-05-03T11:36:57.389Z</time></trkpt><trkpt lat="45.1408844" lon="8.4483619"><ele>119.66666666666667</ele><time>2026-05-03T11:36:58.389Z</time></trkpt><trkpt lat="45.1409462" lon="8.4482893"><ele>119.0</ele><time>2026-05-03T11:36:59.389Z</time></trkpt><trkpt lat="45.1410214" lon="8.4482163"><ele>118.33333333333334</ele><time>2026-05-03T11:37:00.389Z</time></trkpt><trkpt lat="45.1410994" lon="8.4481618"><ele>117.66666666666667</ele><time>2026-05-03T11:37:01.39Z</time></trkpt><trkpt lat="45.141181" lon="8.4481145"><ele>117.0</ele><time>2026-05-03T11:37:02.389Z</time></trkpt><trkpt lat="45.1412719" lon="8.4480682"><ele>117.0</ele><time>2026-05-03T11:37:03.389Z</time></trkpt><trkpt lat="45.1413638" lon="8.4480193"><ele>116.99999999999999</ele><time>2026-05-03T11:37:04.389Z</time></trkpt><trkpt lat="45.1414554" lon="8.4479652"><ele>116.99999999999999</ele><time>2026-05-03T11:37:05.389Z</time></trkpt><trkpt lat="45.1415502" lon="8.447908"><ele>117.0</ele><time>2026-05-03T11:37:06.389Z</time></trkpt><trkpt lat="45.1416425" lon="8.4478557"><ele>117.0</ele><time>2026-05-03T11:37:07.39Z</time></trkpt><trkpt lat="45.1417369" lon="8.4478025"><ele>115.0</ele><time>2026-05-03T11:37:08.389Z</time></trkpt><trkpt lat="45.1418338" lon="8.4477474"><ele>112.99999999999999</ele><time>2026-05-03T11:37:09.39Z</time></trkpt><trkpt lat="45.1419274" lon="8.4476925"><ele>110.99999999999999</ele><time>2026-05-03T11:37:10.39Z</time></trkpt><trkpt lat="45.142018" lon="8.4476409"><ele>109.0</ele><time>2026-05-03T11:37:11.389Z</time></trkpt><trkpt lat="45.1421034" lon="8.4475896"><ele>107.0</ele><time>2026-05-03T11:37:12.389Z</time></trkpt><trkpt lat="45.1421874" lon="8.4475375"><ele>106.99999999999999</ele><time>2026-05-03T11:37:13.39Z</time></trkpt><trkpt lat="45.1422702" lon="8.4474867"><ele>107.0</ele><time>2026-05-03T11:37:14.39Z</time></trkpt><trkpt lat="45.1423545" lon="8.4474373"><ele>107.0</ele><time>2026-05-03T11:37:15.389Z</time></trkpt><trkpt lat="45.1424363" lon="8.447392"><ele>107.0</ele><time>2026-05-03T11:37:16.389Z</time></trkpt><trkpt lat="45.1425171" lon="8.4473452"><ele>106.99999999999999</ele><time>2026-05-03T11:37:17.39Z</time></trkpt><trkpt lat="45.1425951" lon="8.4472978"><ele>107.0</ele><time>2026-05-03T11:37:18.389Z</time></trkpt><trkpt lat="45.1426737" lon="8.4472509"><ele>107.33333333333333</ele><time>2026-05-03T11:37:19.389Z</time></trkpt><trkpt lat="45.1427509" lon="8.4472085"><ele>107.66666666666666</ele><time>2026-05-03T11:37:20.389Z</time></trkpt><trkpt lat="45.1428254" lon="8.4471735"><ele>108.0</ele><time>2026-05-03T11:37:21.389Z</time></trkpt><trkpt lat="45.1428952" lon="8.4471512"><ele>108.33333333333334</ele><time>2026-05-03T11:37:22.389Z</time></trkpt><trkpt lat="45.1429658" lon="8.447136"><ele>108.66666666666667</ele><time>2026-05-03T11:37:23.39Z</time></trkpt><trkpt lat="45.1430801" lon="8.4471365"><ele>109.0</ele><time>2026-05-03T11:37:25.39Z</time></trkpt><trkpt lat="45.1431431" lon="8.4471657"><ele>109.00000000000001</ele><time>2026-05-03T11:37:26.39Z</time></trkpt><trkpt lat="45.1432085" lon="8.4472329"><ele>109.0</ele><time>2026-05-03T11:37:27.39Z</time></trkpt><trkpt lat="45.1432759" lon="8.4473259"><ele>109.0</ele><time>2026-05-03T11:37:28.39Z</time></trkpt><trkpt lat="45.1433313" lon="8.4474055"><ele>109.0</ele><time>2026-05-03T11:37:29.389Z</time></trkpt><trkpt lat="45.1433835" lon="8.4474745"><ele>109.00000000000001</ele><time>2026-05-03T11:37:30.389Z</time></trkpt><trkpt lat="45.1434387" lon="8.44754"><ele>109.0</ele><time>2026-05-03T11:37:31.39Z</time></trkpt><trkpt lat="45.1434979" lon="8.4476054"><ele>109.6</ele><time>2026-05-03T11:37:32.389Z</time></trkpt><trkpt lat="45.1435611" lon="8.4476751"><ele>110.2</ele><time>2026-05-03T11:37:33.389Z</time></trkpt><trkpt lat="45.1436312" lon="8.4477556"><ele>110.79999999999998</ele><time>2026-05-03T11:37:34.389Z</time></trkpt><trkpt lat="45.1437045" lon="8.44784"><ele>111.39999999999999</ele><time>2026-05-03T11:37:35.39Z</time></trkpt><trkpt lat="45.1437797" lon="8.4479369"><ele>112.0</ele><time>2026-05-03T11:37:36.39Z</time></trkpt><trkpt lat="45.1438554" lon="8.4480592"><ele>112.0</ele><time>2026-05-03T11:37:37.39Z</time></trkpt><trkpt lat="45.1439229" lon="8.4481793"><ele>111.99999999999999</ele><time>2026-05-03T11:37:38.389Z</time></trkpt><trkpt lat="45.143976" lon="8.4483039"><ele>111.99999999999999</ele><time>2026-05-03T11:37:39.389Z</time></trkpt><trkpt lat="45.1440206" lon="8.4484308"><ele>112.0</ele><time>2026-05-03T11:37:40.389Z</time></trkpt><trkpt lat="45.1440677" lon="8.4485535"><ele>112.0</ele><time>2026-05-03T11:37:41.39Z</time></trkpt><trkpt lat="45.1441144" lon="8.4486742"><ele>112.00000000000001</ele><time>2026-05-03T11:37:42.39Z</time></trkpt><trkpt lat="45.1441628" lon="8.4487827"><ele>112.0</ele><time>2026-05-03T11:37:43.391Z</time></trkpt><trkpt lat="45.1442154" lon="8.4488896"><ele>112.0</ele><time>2026-05-03T11:37:44.39Z</time></trkpt><trkpt lat="45.1442661" lon="8.448998"><ele>112.0</ele><time>2026-05-03T11:37:45.391Z</time></trkpt><trkpt lat="45.1443096" lon="8.4491023"><ele>112.00000000000001</ele><time>2026-05-03T11:37:46.39Z</time></trkpt><trkpt lat="45.1443507" lon="8.4491997"><ele>112.0</ele><time>2026-05-03T11:37:47.391Z</time></trkpt><trkpt lat="45.1443892" lon="8.4493017"><ele>112.16666666666667</ele><time>2026-05-03T11:37:48.39Z</time></trkpt><trkpt lat="45.1444269" lon="8.4494124"><ele>112.33333333333334</ele><time>2026-05-03T11:37:49.39Z</time></trkpt><trkpt lat="45.1444664" lon="8.4495232"><ele>112.5</ele><time>2026-05-03T11:37:50.39Z</time></trkpt><trkpt lat="45.1445064" lon="8.4496318"><ele>112.66666666666666</ele><time>2026-05-03T11:37:51.39Z</time></trkpt><trkpt lat="45.144548" lon="8.4497311"><ele>112.83333333333333</ele><time>2026-05-03T11:37:52.39Z</time></trkpt><trkpt lat="45.1445913" lon="8.4498248"><ele>113.0</ele><time>2026-05-03T11:37:53.39Z</time></trkpt><trkpt lat="45.1446357" lon="8.4499071"><ele>112.83333333333333</ele><time>2026-05-03T11:37:54.39Z</time></trkpt><trkpt lat="45.1446816" lon="8.449973"><ele>112.66666666666666</ele><time>2026-05-03T11:37:55.39Z</time></trkpt><trkpt lat="45.1447621" lon="8.4500481"><ele>112.5</ele><time>2026-05-03T11:37:57.39Z</time></trkpt><trkpt lat="45.1448446" lon="8.4501211"><ele>112.33333333333334</ele><time>2026-05-03T11:38:00.39Z</time></trkpt><trkpt lat="45.1449359" lon="8.4501881"><ele>112.16666666666667</ele><time>2026-05-03T11:38:02.39Z</time></trkpt><trkpt lat="45.1449928" lon="8.4502356"><ele>112.0</ele><time>2026-05-03T11:38:03.39Z</time></trkpt><trkpt lat="45.145107" lon="8.4503123"><ele>112.00000000000001</ele><time>2026-05-03T11:38:05.391Z</time></trkpt><trkpt lat="45.1451774" lon="8.4503416"><ele>112.0</ele><time>2026-05-03T11:38:06.39Z</time></trkpt><trkpt lat="45.1452537" lon="8.4503685"><ele>112.0</ele><time>2026-05-03T11:38:07.39Z</time></trkpt><trkpt lat="45.1453328" lon="8.4503944"><ele>112.0</ele><time>2026-05-03T11:38:08.39Z</time></trkpt><trkpt lat="45.1454165" lon="8.4504193"><ele>112.00000000000001</ele><time>2026-05-03T11:38:09.391Z</time></trkpt><trkpt lat="45.1454991" lon="8.4504425"><ele>112.0</ele><time>2026-05-03T11:38:10.391Z</time></trkpt><trkpt lat="45.145585" lon="8.4504655"><ele>112.0</ele><time>2026-05-03T11:38:11.39Z</time></trkpt><trkpt lat="45.1456676" lon="8.4504923"><ele>111.99999999999999</ele><time>2026-05-03T11:38:12.39Z</time></trkpt><trkpt lat="45.1457529" lon="8.4505222"><ele>111.99999999999999</ele><time>2026-05-03T11:38:13.39Z</time></trkpt><trkpt lat="45.1458422" lon="8.4505495"><ele>112.0</ele><time>2026-05-03T11:38:14.39Z</time></trkpt><trkpt lat="45.1459344" lon="8.4505747"><ele>112.0</ele><time>2026-05-03T11:38:15.39Z</time></trkpt><trkpt lat="45.1460263" lon="8.4506013"><ele>112.0</ele><time>2026-05-03T11:38:16.39Z</time></trkpt><trkpt lat="45.1461176" lon="8.4506299"><ele>111.99999999999999</ele><time>2026-05-03T11:38:17.39Z</time></trkpt><trkpt lat="45.1462122" lon="8.4506591"><ele>111.99999999999999</ele><time>2026-05-03T11:38:18.391Z</time></trkpt><trkpt lat="45.1463071" lon="8.4506882"><ele>112.0</ele><time>2026-05-03T11:38:19.391Z</time></trkpt><trkpt lat="45.1464043" lon="8.4507177"><ele>112.0</ele><time>2026-05-03T11:38:20.39Z</time></trkpt><trkpt lat="45.1464992" lon="8.4507471"><ele>112.0</ele><time>2026-05-03T11:38:21.39Z</time></trkpt><trkpt lat="45.1465967" lon="8.4507781"><ele>111.99999999999999</ele><time>2026-05-03T11:38:22.391Z</time></trkpt><trkpt lat="45.146693" lon="8.4508132"><ele>111.99999999999999</ele><time>2026-05-03T11:38:23.39Z</time></trkpt><trkpt lat="45.1467857" lon="8.450848"><ele>112.0</ele><time>2026-05-03T11:38:24.39Z</time></trkpt><trkpt lat="45.1468794" lon="8.4508795"><ele>112.0</ele><time>2026-05-03T11:38:25.39Z</time></trkpt><trkpt lat="45.1469724" lon="8.4509118"><ele>112.0</ele><time>2026-05-03T11:38:26.391Z</time></trkpt><trkpt lat="45.1470654" lon="8.450945"><ele>111.99999999999999</ele><time>2026-05-03T11:38:27.39Z</time></trkpt><trkpt lat="45.1471586" lon="8.4509775"><ele>111.99999999999999</ele><time>2026-05-03T11:38:28.39Z</time></trkpt><trkpt lat="45.1472508" lon="8.4510091"><ele>112.0</ele><time>2026-05-03T11:38:29.39Z</time></trkpt><trkpt lat="45.147341" lon="8.4510425"><ele>112.0</ele><time>2026-05-03T11:38:30.39Z</time></trkpt><trkpt lat="45.147426" lon="8.4510719"><ele>111.8</ele><time>2026-05-03T11:38:31.39Z</time></trkpt><trkpt lat="45.1475086" lon="8.4511028"><ele>111.6</ele><time>2026-05-03T11:38:32.391Z</time></trkpt><trkpt lat="45.1475841" lon="8.4511386"><ele>111.39999999999999</ele><time>2026-05-03T11:38:33.391Z</time></trkpt><trkpt lat="45.1476471" lon="8.4511654"><ele>111.19999999999999</ele><time>2026-05-03T11:38:34.391Z</time></trkpt><trkpt lat="45.1477508" lon="8.4512024"><ele>111.0</ele><time>2026-05-03T11:38:36.391Z</time></trkpt><trkpt lat="45.1478639" lon="8.4512438"><ele>111.0</ele><time>2026-05-03T11:38:38.392Z</time></trkpt><trkpt lat="45.1479262" lon="8.4512679"><ele>111.0</ele><time>2026-05-03T11:38:39.392Z</time></trkpt><trkpt lat="45.1480028" lon="8.451296"><ele>111.0</ele><time>2026-05-03T11:38:40.392Z</time></trkpt><trkpt lat="45.1480777" lon="8.4513182"><ele>111.0</ele><time>2026-05-03T11:38:41.391Z</time></trkpt><trkpt lat="45.148159" lon="8.4513425"><ele>111.0</ele><time>2026-05-03T11:38:42.391Z</time></trkpt><trkpt lat="45.1482431" lon="8.451369"><ele>111.0</ele><time>2026-05-03T11:38:43.391Z</time></trkpt><trkpt lat="45.1483292" lon="8.451398"><ele>111.0</ele><time>2026-05-03T11:38:44.391Z</time></trkpt><trkpt lat="45.1484221" lon="8.4514279"><ele>111.0</ele><time>2026-05-03T11:38:45.391Z</time></trkpt><trkpt lat="45.1485185" lon="8.4514592"><ele>111.0</ele><time>2026-05-03T11:38:46.391Z</time></trkpt><trkpt lat="45.1486145" lon="8.4514903"><ele>111.0</ele><time>2026-05-03T11:38:47.392Z</time></trkpt><trkpt lat="45.1487143" lon="8.4515244"><ele>111.0</ele><time>2026-05-03T11:38:48.391Z</time></trkpt><trkpt lat="45.1488077" lon="8.4515583"><ele>111.0</ele><time>2026-05-03T11:38:49.391Z</time></trkpt><trkpt lat="45.1488987" lon="8.4515928"><ele>111.0</ele><time>2026-05-03T11:38:50.392Z</time></trkpt><trkpt lat="45.1489902" lon="8.4516234"><ele>111.0</ele><time>2026-05-03T11:38:51.392Z</time></trkpt><trkpt lat="45.1490821" lon="8.4516509"><ele>111.0</ele><time>2026-05-03T11:38:52.392Z</time></trkpt><trkpt lat="45.1491766" lon="8.4516776"><ele>111.0</ele><time>2026-05-03T11:38:53.391Z</time></trkpt><trkpt lat="45.1492713" lon="8.4517064"><ele>111.0</ele><time>2026-05-03T11:38:54.391Z</time></trkpt><trkpt lat="45.1493662" lon="8.4517385"><ele>111.0</ele><time>2026-05-03T11:38:55.391Z</time></trkpt><trkpt lat="45.1494623" lon="8.4517712"><ele>111.0</ele><time>2026-05-03T11:38:56.391Z</time></trkpt><trkpt lat="45.1495581" lon="8.4518031"><ele>111.0</ele><time>2026-05-03T11:38:57.391Z</time></trkpt><trkpt lat="45.1496528" lon="8.4518345"><ele>111.0</ele><time>2026-05-03T11:38:58.392Z</time></trkpt><trkpt lat="45.1497483" lon="8.4518646"><ele>111.0</ele><time>2026-05-03T11:38:59.392Z</time></trkpt><trkpt lat="45.1498444" lon="8.4518935"><ele>111.0</ele><time>2026-05-03T11:39:00.391Z</time></trkpt><trkpt lat="45.1499398" lon="8.4519252"><ele>111.0</ele><time>2026-05-03T11:39:01.392Z</time></trkpt><trkpt lat="45.150035" lon="8.4519574"><ele>111.0</ele><time>2026-05-03T11:39:02.392Z</time></trkpt><trkpt lat="45.1501306" lon="8.4519904"><ele>111.0</ele><time>2026-05-03T11:39:03.392Z</time></trkpt><trkpt lat="45.1502289" lon="8.452024"><ele>111.0</ele><time>2026-05-03T11:39:04.391Z</time></trkpt><trkpt lat="45.1504275" lon="8.4520943"><ele>111.0</ele><time>2026-05-03T11:39:06.391Z</time></trkpt><trkpt lat="45.1505229" lon="8.4521297"><ele>111.0</ele><time>2026-05-03T11:39:07.391Z</time></trkpt><trkpt lat="45.1506062" lon="8.4521657"><ele>111.0</ele><time>2026-05-03T11:39:08.391Z</time></trkpt><trkpt lat="45.1506818" lon="8.4522009"><ele>110.66666666666667</ele><time>2026-05-03T11:39:09.391Z</time></trkpt><trkpt lat="45.1507529" lon="8.4522344"><ele>110.33333333333334</ele><time>2026-05-03T11:39:10.391Z</time></trkpt><trkpt lat="45.1508215" lon="8.4522674"><ele>110.0</ele><time>2026-05-03T11:39:11.391Z</time></trkpt><trkpt lat="45.1508893" lon="8.4522951"><ele>109.66666666666667</ele><time>2026-05-03T11:39:12.391Z</time></trkpt><trkpt lat="45.1509539" lon="8.4523153"><ele>109.33333333333334</ele><time>2026-05-03T11:39:13.392Z</time></trkpt><trkpt lat="45.1510176" lon="8.4523377"><ele>109.0</ele><time>2026-05-03T11:39:14.391Z</time></trkpt><trkpt lat="45.1511336" lon="8.452417"><ele>109.00000000000001</ele><time>2026-05-03T11:39:16.391Z</time></trkpt><trkpt lat="45.1512037" lon="8.4524798"><ele>109.0</ele><time>2026-05-03T11:39:17.391Z</time></trkpt><trkpt lat="45.1512779" lon="8.4525396"><ele>109.0</ele><time>2026-05-03T11:39:18.392Z</time></trkpt><trkpt lat="45.1513582" lon="8.452593"><ele>109.0</ele><time>2026-05-03T11:39:19.393Z</time></trkpt><trkpt lat="45.151439" lon="8.4526464"><ele>109.00000000000001</ele><time>2026-05-03T11:39:20.392Z</time></trkpt><trkpt lat="45.1515184" lon="8.4526977"><ele>109.0</ele><time>2026-05-03T11:39:21.392Z</time></trkpt><trkpt lat="45.1515935" lon="8.4527507"><ele>109.0</ele><time>2026-05-03T11:39:22.392Z</time></trkpt><trkpt lat="45.1516718" lon="8.452804"><ele>109.0</ele><time>2026-05-03T11:39:23.392Z</time></trkpt><trkpt lat="45.1517523" lon="8.4528566"><ele>109.0</ele><time>2026-05-03T11:39:24.392Z</time></trkpt><trkpt lat="45.1518366" lon="8.4529108"><ele>109.0</ele><time>2026-05-03T11:39:25.392Z</time></trkpt><trkpt lat="45.1519274" lon="8.4529664"><ele>109.0</ele><time>2026-05-03T11:39:26.393Z</time></trkpt><trkpt lat="45.1520179" lon="8.4530238"><ele>109.2</ele><time>2026-05-03T11:39:27.392Z</time></trkpt><trkpt lat="45.1521094" lon="8.4530828"><ele>109.4</ele><time>2026-05-03T11:39:28.392Z</time></trkpt><trkpt lat="45.1522013" lon="8.4531416"><ele>109.6</ele><time>2026-05-03T11:39:29.392Z</time></trkpt><trkpt lat="45.1522935" lon="8.4532008"><ele>109.8</ele><time>2026-05-03T11:39:30.392Z</time></trkpt><trkpt lat="45.1523871" lon="8.4532626"><ele>110.0</ele><time>2026-05-03T11:39:31.392Z</time></trkpt><trkpt lat="45.1524809" lon="8.453323"><ele>110.0</ele><time>2026-05-03T11:39:32.393Z</time></trkpt><trkpt lat="45.1525752" lon="8.4533834"><ele>110.0</ele><time>2026-05-03T11:39:33.392Z</time></trkpt><trkpt lat="45.1526704" lon="8.4534458"><ele>110.0</ele><time>2026-05-03T11:39:34.392Z</time></trkpt><trkpt lat="45.1527667" lon="8.4535108"><ele>110.0</ele><time>2026-05-03T11:39:35.393Z</time></trkpt><trkpt lat="45.152863" lon="8.4535748"><ele>110.0</ele><time>2026-05-03T11:39:36.392Z</time></trkpt><trkpt lat="45.1529598" lon="8.4536387"><ele>110.0</ele><time>2026-05-03T11:39:37.393Z</time></trkpt><trkpt lat="45.1530562" lon="8.4537028"><ele>110.0</ele><time>2026-05-03T11:39:38.393Z</time></trkpt><trkpt lat="45.1531537" lon="8.4537683"><ele>110.0</ele><time>2026-05-03T11:39:39.392Z</time></trkpt><trkpt lat="45.1532513" lon="8.4538344"><ele>110.0</ele><time>2026-05-03T11:39:40.392Z</time></trkpt><trkpt lat="45.1533495" lon="8.4539008"><ele>110.0</ele><time>2026-05-03T11:39:41.392Z</time></trkpt><trkpt lat="45.1534476" lon="8.453966"><ele>110.2</ele><time>2026-05-03T11:39:42.392Z</time></trkpt><trkpt lat="45.1535448" lon="8.4540295"><ele>110.4</ele><time>2026-05-03T11:39:43.392Z</time></trkpt><trkpt lat="45.1536421" lon="8.4540924"><ele>110.6</ele><time>2026-05-03T11:39:44.393Z</time></trkpt><trkpt lat="45.1537399" lon="8.4541545"><ele>110.8</ele><time>2026-05-03T11:39:45.392Z</time></trkpt><trkpt lat="45.1538368" lon="8.4542162"><ele>111.0</ele><time>2026-05-03T11:39:46.392Z</time></trkpt><trkpt lat="45.1539329" lon="8.4542783"><ele>111.0</ele><time>2026-05-03T11:39:47.392Z</time></trkpt><trkpt lat="45.1540296" lon="8.4543421"><ele>111.0</ele><time>2026-05-03T11:39:48.392Z</time></trkpt><trkpt lat="45.154126" lon="8.4544061"><ele>111.0</ele><time>2026-05-03T11:39:49.392Z</time></trkpt><trkpt lat="45.1542226" lon="8.4544699"><ele>111.0</ele><time>2026-05-03T11:39:50.393Z</time></trkpt><trkpt lat="45.1543183" lon="8.4545346"><ele>111.0</ele><time>2026-05-03T11:39:51.392Z</time></trkpt><trkpt lat="45.1544146" lon="8.4545992"><ele>111.0</ele><time>2026-05-03T11:39:52.392Z</time></trkpt><trkpt lat="45.1545114" lon="8.4546634"><ele>111.0</ele><time>2026-05-03T11:39:53.393Z</time></trkpt><trkpt lat="45.1546084" lon="8.4547269"><ele>111.0</ele><time>2026-05-03T11:39:54.392Z</time></trkpt><trkpt lat="45.154706" lon="8.4547893"><ele>111.0</ele><time>2026-05-03T11:39:55.392Z</time></trkpt><trkpt lat="45.1548031" lon="8.4548508"><ele>111.0</ele><time>2026-05-03T11:39:56.392Z</time></trkpt><trkpt lat="45.1549003" lon="8.4549141"><ele>111.0</ele><time>2026-05-03T11:39:57.392Z</time></trkpt><trkpt lat="45.1549977" lon="8.4549809"><ele>111.0</ele><time>2026-05-03T11:39:58.392Z</time></trkpt><trkpt lat="45.1550936" lon="8.4550485"><ele>111.0</ele><time>2026-05-03T11:39:59.392Z</time></trkpt><trkpt lat="45.1551909" lon="8.4551127"><ele>111.0</ele><time>2026-05-03T11:40:00.392Z</time></trkpt><trkpt lat="45.1552895" lon="8.4551743"><ele>111.0</ele><time>2026-05-03T11:40:01.392Z</time></trkpt><trkpt lat="45.1553858" lon="8.4552385"><ele>111.0</ele><time>2026-05-03T11:40:02.392Z</time></trkpt><trkpt lat="45.1554809" lon="8.4553024"><ele>111.0</ele><time>2026-05-03T11:40:03.392Z</time></trkpt><trkpt lat="45.155576" lon="8.4553654"><ele>111.0</ele><time>2026-05-03T11:40:04.393Z</time></trkpt><trkpt lat="45.1556714" lon="8.4554232"><ele>111.0</ele><time>2026-05-03T11:40:05.393Z</time></trkpt><trkpt lat="45.1557628" lon="8.4554775"><ele>111.0</ele><time>2026-05-03T11:40:06.394Z</time></trkpt><trkpt lat="45.155858" lon="8.455542"><ele>111.0</ele><time>2026-05-03T11:40:07.393Z</time></trkpt><trkpt lat="45.1559497" lon="8.4556111"><ele>111.0</ele><time>2026-05-03T11:40:08.393Z</time></trkpt><trkpt lat="45.1560466" lon="8.4556761"><ele>111.0</ele><time>2026-05-03T11:40:09.393Z</time></trkpt><trkpt lat="45.1561431" lon="8.4557392"><ele>111.0</ele><time>2026-05-03T11:40:10.394Z</time></trkpt><trkpt lat="45.1562395" lon="8.4558004"><ele>111.0</ele><time>2026-05-03T11:40:11.393Z</time></trkpt><trkpt lat="45.156335" lon="8.4558605"><ele>111.0</ele><time>2026-05-03T11:40:12.394Z</time></trkpt><trkpt lat="45.1564301" lon="8.4559212"><ele>111.0</ele><time>2026-05-03T11:40:13.393Z</time></trkpt><trkpt lat="45.1565252" lon="8.4559838"><ele>111.0</ele><time>2026-05-03T11:40:14.393Z</time></trkpt><trkpt lat="45.1566201" lon="8.4560489"><ele>111.0</ele><time>2026-05-03T11:40:15.393Z</time></trkpt><trkpt lat="45.1567142" lon="8.4561158"><ele>111.0</ele><time>2026-05-03T11:40:16.393Z</time></trkpt><trkpt lat="45.1568107" lon="8.456182"><ele>110.6</ele><time>2026-05-03T11:40:17.393Z</time></trkpt><trkpt lat="45.1569094" lon="8.4562484"><ele>110.19999999999999</ele><time>2026-05-03T11:40:18.393Z</time></trkpt><trkpt lat="45.157007" lon="8.4563147"><ele>109.80000000000001</ele><time>2026-05-03T11:40:19.393Z</time></trkpt><trkpt lat="45.157103" lon="8.4563772"><ele>109.4</ele><time>2026-05-03T11:40:20.394Z</time></trkpt><trkpt lat="45.1571976" lon="8.4564368"><ele>109.0</ele><time>2026-05-03T11:40:21.393Z</time></trkpt><trkpt lat="45.1572907" lon="8.4564987"><ele>109.4</ele><time>2026-05-03T11:40:22.393Z</time></trkpt><trkpt lat="45.1573843" lon="8.456563"><ele>109.80000000000001</ele><time>2026-05-03T11:40:23.393Z</time></trkpt><trkpt lat="45.1574746" lon="8.4566256"><ele>110.19999999999999</ele><time>2026-05-03T11:40:24.394Z</time></trkpt><trkpt lat="45.1575595" lon="8.4566846"><ele>110.6</ele><time>2026-05-03T11:40:25.393Z</time></trkpt><trkpt lat="45.1576416" lon="8.4567378"><ele>111.0</ele><time>2026-05-03T11:40:26.394Z</time></trkpt><trkpt lat="45.1577203" lon="8.4567861"><ele>111.0</ele><time>2026-05-03T11:40:27.394Z</time></trkpt><trkpt lat="45.1577981" lon="8.4568345"><ele>111.0</ele><time>2026-05-03T11:40:28.393Z</time></trkpt><trkpt lat="45.1578758" lon="8.4568798"><ele>111.0</ele><time>2026-05-03T11:40:29.394Z</time></trkpt><trkpt lat="45.1579546" lon="8.4569251"><ele>111.0</ele><time>2026-05-03T11:40:30.393Z</time></trkpt><trkpt lat="45.1580307" lon="8.4569705"><ele>111.0</ele><time>2026-05-03T11:40:31.394Z</time></trkpt><trkpt lat="45.1580992" lon="8.4570181"><ele>111.0</ele><time>2026-05-03T11:40:32.393Z</time></trkpt><trkpt lat="45.1581606" lon="8.4570658"><ele>111.0</ele><time>2026-05-03T11:40:33.394Z</time></trkpt><trkpt lat="45.1582161" lon="8.4571122"><ele>111.0</ele><time>2026-05-03T11:40:34.394Z</time></trkpt><trkpt lat="45.1582944" lon="8.4571802"><ele>111.0</ele><time>2026-05-03T11:40:36.394Z</time></trkpt><trkpt lat="45.1583618" lon="8.4572833"><ele>111.0</ele><time>2026-05-03T11:40:39.393Z</time></trkpt><trkpt lat="45.158423" lon="8.4574513"><ele>111.0</ele><time>2026-05-03T11:40:41.393Z</time></trkpt><trkpt lat="45.1584579" lon="8.4575652"><ele>111.0</ele><time>2026-05-03T11:40:42.394Z</time></trkpt><trkpt lat="45.1584984" lon="8.4576741"><ele>111.0</ele><time>2026-05-03T11:40:43.393Z</time></trkpt><trkpt lat="45.1585583" lon="8.457752"><ele>111.0</ele><time>2026-05-03T11:40:44.393Z</time></trkpt><trkpt lat="45.1586345" lon="8.4577964"><ele>111.0</ele><time>2026-05-03T11:40:45.393Z</time></trkpt><trkpt lat="45.1587243" lon="8.4578074"><ele>111.0</ele><time>2026-05-03T11:40:46.393Z</time></trkpt><trkpt lat="45.1588136" lon="8.4577875"><ele>111.0</ele><time>2026-05-03T11:40:47.393Z</time></trkpt><trkpt lat="45.1589024" lon="8.457758"><ele>111.0</ele><time>2026-05-03T11:40:48.394Z</time></trkpt><trkpt lat="45.1589911" lon="8.4577389"><ele>111.0</ele><time>2026-05-03T11:40:49.394Z</time></trkpt><trkpt lat="45.1590809" lon="8.4577422"><ele>111.0</ele><time>2026-05-03T11:40:50.393Z</time></trkpt><trkpt lat="45.1591719" lon="8.457772"><ele>111.0</ele><time>2026-05-03T11:40:51.394Z</time></trkpt><trkpt lat="45.1592631" lon="8.4578161"><ele>111.0</ele><time>2026-05-03T11:40:52.393Z</time></trkpt><trkpt lat="45.1593541" lon="8.4578719"><ele>111.0</ele><time>2026-05-03T11:40:53.393Z</time></trkpt><trkpt lat="45.1594442" lon="8.4579348"><ele>111.0</ele><time>2026-05-03T11:40:54.394Z</time></trkpt><trkpt lat="45.1595326" lon="8.458001"><ele>111.0</ele><time>2026-05-03T11:40:55.394Z</time></trkpt><trkpt lat="45.1596234" lon="8.4580662"><ele>111.0</ele><time>2026-05-03T11:40:56.395Z</time></trkpt><trkpt lat="45.1597185" lon="8.4581312"><ele>111.0</ele><time>2026-05-03T11:40:57.394Z</time></trkpt><trkpt lat="45.1598139" lon="8.4581959"><ele>110.6</ele><time>2026-05-03T11:40:58.394Z</time></trkpt><trkpt lat="45.1599097" lon="8.4582604"><ele>110.19999999999999</ele><time>2026-05-03T11:40:59.395Z</time></trkpt><trkpt lat="45.160005" lon="8.4583236"><ele>109.80000000000001</ele><time>2026-05-03T11:41:00.394Z</time></trkpt><trkpt lat="45.1601014" lon="8.4583859"><ele>109.4</ele><time>2026-05-03T11:41:01.394Z</time></trkpt><trkpt lat="45.1601991" lon="8.4584489"><ele>109.0</ele><time>2026-05-03T11:41:02.394Z</time></trkpt><trkpt lat="45.1602951" lon="8.4585113"><ele>109.0</ele><time>2026-05-03T11:41:03.394Z</time></trkpt><trkpt lat="45.1603923" lon="8.4585739"><ele>109.0</ele><time>2026-05-03T11:41:04.394Z</time></trkpt><trkpt lat="45.1604904" lon="8.458639"><ele>109.0</ele><time>2026-05-03T11:41:05.395Z</time></trkpt><trkpt lat="45.1605905" lon="8.4587038"><ele>109.0</ele><time>2026-05-03T11:41:06.395Z</time></trkpt><trkpt lat="45.1606912" lon="8.4587684"><ele>109.0</ele><time>2026-05-03T11:41:07.394Z</time></trkpt><trkpt lat="45.1607902" lon="8.4588334"><ele>109.2</ele><time>2026-05-03T11:41:08.394Z</time></trkpt><trkpt lat="45.1608892" lon="8.4589007"><ele>109.4</ele><time>2026-05-03T11:41:09.395Z</time></trkpt><trkpt lat="45.1609886" lon="8.4589693"><ele>109.6</ele><time>2026-05-03T11:41:10.394Z</time></trkpt><trkpt lat="45.1610894" lon="8.4590388"><ele>109.8</ele><time>2026-05-03T11:41:11.394Z</time></trkpt><trkpt lat="45.1611913" lon="8.4591063"><ele>110.0</ele><time>2026-05-03T11:41:12.395Z</time></trkpt><trkpt lat="45.1612926" lon="8.4591725"><ele>110.0</ele><time>2026-05-03T11:41:13.394Z</time></trkpt><trkpt lat="45.1613942" lon="8.4592398"><ele>110.0</ele><time>2026-05-03T11:41:14.394Z</time></trkpt><trkpt lat="45.1614969" lon="8.4593063"><ele>110.0</ele><time>2026-05-03T11:41:15.395Z</time></trkpt><trkpt lat="45.1615999" lon="8.4593717"><ele>110.0</ele><time>2026-05-03T11:41:16.394Z</time></trkpt><trkpt lat="45.1617015" lon="8.4594368"><ele>110.0</ele><time>2026-05-03T11:41:17.395Z</time></trkpt><trkpt lat="45.1618027" lon="8.4595025"><ele>110.0</ele><time>2026-05-03T11:41:18.395Z</time></trkpt><trkpt lat="45.161907" lon="8.4595676"><ele>110.0</ele><time>2026-05-03T11:41:19.394Z</time></trkpt><trkpt lat="45.1620068" lon="8.4596339"><ele>110.0</ele><time>2026-05-03T11:41:20.394Z</time></trkpt><trkpt lat="45.1621066" lon="8.4597014"><ele>110.0</ele><time>2026-05-03T11:41:21.395Z</time></trkpt><trkpt lat="45.1622065" lon="8.4597684"><ele>110.0</ele><time>2026-05-03T11:41:22.394Z</time></trkpt><trkpt lat="45.1623064" lon="8.4598342"><ele>109.4</ele><time>2026-05-03T11:41:23.394Z</time></trkpt><trkpt lat="45.1624071" lon="8.4598999"><ele>108.8</ele><time>2026-05-03T11:41:24.395Z</time></trkpt><trkpt lat="45.1625073" lon="8.4599673"><ele>108.19999999999999</ele><time>2026-05-03T11:41:25.394Z</time></trkpt><trkpt lat="45.162607" lon="8.4600348"><ele>107.6</ele><time>2026-05-03T11:41:26.394Z</time></trkpt><trkpt lat="45.162706" lon="8.4601015"><ele>107.0</ele><time>2026-05-03T11:41:27.394Z</time></trkpt><trkpt lat="45.1628036" lon="8.4601691"><ele>107.0</ele><time>2026-05-03T11:41:28.395Z</time></trkpt><trkpt lat="45.1629032" lon="8.4602359"><ele>106.99999999999999</ele><time>2026-05-03T11:41:29.394Z</time></trkpt><trkpt lat="45.1630038" lon="8.4603034"><ele>106.99999999999999</ele><time>2026-05-03T11:41:30.395Z</time></trkpt><trkpt lat="45.1631053" lon="8.4603693"><ele>107.0</ele><time>2026-05-03T11:41:31.394Z</time></trkpt><trkpt lat="45.163207" lon="8.4604356"><ele>107.0</ele><time>2026-05-03T11:41:32.395Z</time></trkpt><trkpt lat="45.1633088" lon="8.4605032"><ele>107.0</ele><time>2026-05-03T11:41:33.394Z</time></trkpt><trkpt lat="45.1634112" lon="8.460572"><ele>107.0</ele><time>2026-05-03T11:41:34.394Z</time></trkpt><trkpt lat="45.1635144" lon="8.4606408"><ele>107.0</ele><time>2026-05-03T11:41:35.395Z</time></trkpt><trkpt lat="45.1636177" lon="8.4607094"><ele>107.0</ele><time>2026-05-03T11:41:36.394Z</time></trkpt><trkpt lat="45.1637204" lon="8.4607771"><ele>107.0</ele><time>2026-05-03T11:41:37.394Z</time></trkpt><trkpt lat="45.163823" lon="8.4608457"><ele>107.0</ele><time>2026-05-03T11:41:38.395Z</time></trkpt><trkpt lat="45.1639267" lon="8.4609143"><ele>107.0</ele><time>2026-05-03T11:41:39.394Z</time></trkpt><trkpt lat="45.1640318" lon="8.4609834"><ele>107.0</ele><time>2026-05-03T11:41:40.394Z</time></trkpt><trkpt lat="45.164137" lon="8.4610514"><ele>107.0</ele><time>2026-05-03T11:41:41.395Z</time></trkpt><trkpt lat="45.1642409" lon="8.4611197"><ele>107.0</ele><time>2026-05-03T11:41:42.395Z</time></trkpt><trkpt lat="45.1643429" lon="8.4611877"><ele>107.0</ele><time>2026-05-03T11:41:43.396Z</time></trkpt><trkpt lat="45.1644443" lon="8.4612563"><ele>107.0</ele><time>2026-05-03T11:41:44.396Z</time></trkpt><trkpt lat="45.1645454" lon="8.4613231"><ele>107.0</ele><time>2026-05-03T11:41:45.395Z</time></trkpt><trkpt lat="45.1646475" lon="8.4613909"><ele>107.0</ele><time>2026-05-03T11:41:46.395Z</time></trkpt><trkpt lat="45.1647493" lon="8.4614596"><ele>107.0</ele><time>2026-05-03T11:41:47.395Z</time></trkpt><trkpt lat="45.1648516" lon="8.4615282"><ele>107.0</ele><time>2026-05-03T11:41:48.396Z</time></trkpt><trkpt lat="45.1649539" lon="8.4615963"><ele>107.5</ele><time>2026-05-03T11:41:49.395Z</time></trkpt><trkpt lat="45.1650563" lon="8.4616662"><ele>108.0</ele><time>2026-05-03T11:41:50.395Z</time></trkpt><trkpt lat="45.1651585" lon="8.4617355"><ele>108.5</ele><time>2026-05-03T11:41:51.395Z</time></trkpt><trkpt lat="45.1652604" lon="8.4618036"><ele>109.0</ele><time>2026-05-03T11:41:52.395Z</time></trkpt><trkpt lat="45.1653609" lon="8.461871"><ele>109.0</ele><time>2026-05-03T11:41:53.395Z</time></trkpt><trkpt lat="45.1654627" lon="8.4619378"><ele>109.0</ele><time>2026-05-03T11:41:54.396Z</time></trkpt><trkpt lat="45.1655651" lon="8.4620043"><ele>109.0</ele><time>2026-05-03T11:41:55.396Z</time></trkpt><trkpt lat="45.1656669" lon="8.4620691"><ele>109.0</ele><time>2026-05-03T11:41:56.395Z</time></trkpt><trkpt lat="45.1657687" lon="8.4621324"><ele>109.0</ele><time>2026-05-03T11:41:57.395Z</time></trkpt><trkpt lat="45.1658696" lon="8.4621957"><ele>109.2</ele><time>2026-05-03T11:41:58.396Z</time></trkpt><trkpt lat="45.1659715" lon="8.4622607"><ele>109.4</ele><time>2026-05-03T11:41:59.395Z</time></trkpt><trkpt lat="45.1660725" lon="8.4623274"><ele>109.6</ele><time>2026-05-03T11:42:00.396Z</time></trkpt><trkpt lat="45.1661725" lon="8.4623992"><ele>109.8</ele><time>2026-05-03T11:42:01.395Z</time></trkpt><trkpt lat="45.1662719" lon="8.4624745"><ele>110.0</ele><time>2026-05-03T11:42:02.395Z</time></trkpt><trkpt lat="45.1663692" lon="8.4625544"><ele>110.0</ele><time>2026-05-03T11:42:03.395Z</time></trkpt><trkpt lat="45.1664627" lon="8.4626403"><ele>110.0</ele><time>2026-05-03T11:42:04.395Z</time></trkpt><trkpt lat="45.1665543" lon="8.4627331"><ele>110.0</ele><time>2026-05-03T11:42:05.396Z</time></trkpt><trkpt lat="45.1666417" lon="8.4628339"><ele>110.0</ele><time>2026-05-03T11:42:06.395Z</time></trkpt><trkpt lat="45.1667266" lon="8.4629423"><ele>110.5</ele><time>2026-05-03T11:42:07.395Z</time></trkpt><trkpt lat="45.1668075" lon="8.4630562"><ele>111.0</ele><time>2026-05-03T11:42:08.395Z</time></trkpt><trkpt lat="45.1668852" lon="8.4631705"><ele>111.5</ele><time>2026-05-03T11:42:09.395Z</time></trkpt><trkpt lat="45.1669615" lon="8.4632878"><ele>112.0</ele><time>2026-05-03T11:42:10.395Z</time></trkpt><trkpt lat="45.1670359" lon="8.463405"><ele>112.0</ele><time>2026-05-03T11:42:11.395Z</time></trkpt><trkpt lat="45.1671091" lon="8.4635231"><ele>111.99999999999999</ele><time>2026-05-03T11:42:12.395Z</time></trkpt><trkpt lat="45.1671819" lon="8.4636389"><ele>111.99999999999999</ele><time>2026-05-03T11:42:13.395Z</time></trkpt><trkpt lat="45.1672519" lon="8.4637514"><ele>112.0</ele><time>2026-05-03T11:42:14.395Z</time></trkpt><trkpt lat="45.1673193" lon="8.4638582"><ele>112.0</ele><time>2026-05-03T11:42:15.395Z</time></trkpt><trkpt lat="45.1673829" lon="8.4639626"><ele>111.33333333333334</ele><time>2026-05-03T11:42:16.395Z</time></trkpt><trkpt lat="45.1674411" lon="8.4640609"><ele>110.66666666666667</ele><time>2026-05-03T11:42:17.396Z</time></trkpt><trkpt lat="45.167493" lon="8.464154"><ele>110.0</ele><time>2026-05-03T11:42:18.396Z</time></trkpt><trkpt lat="45.1675367" lon="8.4642453"><ele>109.33333333333334</ele><time>2026-05-03T11:42:19.395Z</time></trkpt><trkpt lat="45.1675723" lon="8.464335"><ele>108.66666666666667</ele><time>2026-05-03T11:42:20.395Z</time></trkpt><trkpt lat="45.1676064" lon="8.464432"><ele>108.0</ele><time>2026-05-03T11:42:21.395Z</time></trkpt><trkpt lat="45.1676499" lon="8.4645244"><ele>108.0</ele><time>2026-05-03T11:42:22.395Z</time></trkpt><trkpt lat="45.1677096" lon="8.4646055"><ele>108.00000000000001</ele><time>2026-05-03T11:42:23.396Z</time></trkpt><trkpt lat="45.167786" lon="8.4646715"><ele>108.00000000000001</ele><time>2026-05-03T11:42:24.396Z</time></trkpt><trkpt lat="45.1678662" lon="8.4647336"><ele>108.0</ele><time>2026-05-03T11:42:25.396Z</time></trkpt><trkpt lat="45.1679448" lon="8.4648077"><ele>108.0</ele><time>2026-05-03T11:42:26.395Z</time></trkpt><trkpt lat="45.1680152" lon="8.4648961"><ele>108.4</ele><time>2026-05-03T11:42:27.396Z</time></trkpt><trkpt lat="45.1680802" lon="8.4649974"><ele>108.80000000000001</ele><time>2026-05-03T11:42:28.396Z</time></trkpt><trkpt lat="45.1681418" lon="8.4651054"><ele>109.2</ele><time>2026-05-03T11:42:29.397Z</time></trkpt><trkpt lat="45.1682038" lon="8.4652123"><ele>109.6</ele><time>2026-05-03T11:42:30.397Z</time></trkpt><trkpt lat="45.1682678" lon="8.4653159"><ele>110.0</ele><time>2026-05-03T11:42:31.396Z</time></trkpt><trkpt lat="45.1683343" lon="8.4654197"><ele>110.2</ele><time>2026-05-03T11:42:32.396Z</time></trkpt><trkpt lat="45.1684028" lon="8.4655249"><ele>110.4</ele><time>2026-05-03T11:42:33.396Z</time></trkpt><trkpt lat="45.1684714" lon="8.4656293"><ele>110.6</ele><time>2026-05-03T11:42:34.397Z</time></trkpt><trkpt lat="45.1685404" lon="8.4657351"><ele>110.8</ele><time>2026-05-03T11:42:35.397Z</time></trkpt><trkpt lat="45.1686091" lon="8.465842"><ele>111.0</ele><time>2026-05-03T11:42:36.396Z</time></trkpt><trkpt lat="45.1686778" lon="8.4659497"><ele>111.0</ele><time>2026-05-03T11:42:37.396Z</time></trkpt><trkpt lat="45.1687472" lon="8.4660593"><ele>111.0</ele><time>2026-05-03T11:42:38.396Z</time></trkpt><trkpt lat="45.1688172" lon="8.46617"><ele>111.0</ele><time>2026-05-03T11:42:39.396Z</time></trkpt><trkpt lat="45.1688886" lon="8.4662803"><ele>111.0</ele><time>2026-05-03T11:42:40.396Z</time></trkpt><trkpt lat="45.1689617" lon="8.4663871"><ele>111.0</ele><time>2026-05-03T11:42:41.396Z</time></trkpt><trkpt lat="45.1690354" lon="8.4664943"><ele>110.8</ele><time>2026-05-03T11:42:42.397Z</time></trkpt><trkpt lat="45.1691074" lon="8.4666027"><ele>110.6</ele><time>2026-05-03T11:42:43.397Z</time></trkpt><trkpt lat="45.1691795" lon="8.4667072"><ele>110.4</ele><time>2026-05-03T11:42:44.396Z</time></trkpt><trkpt lat="45.1692522" lon="8.4668151"><ele>110.2</ele><time>2026-05-03T11:42:45.396Z</time></trkpt><trkpt lat="45.1693283" lon="8.466923"><ele>110.0</ele><time>2026-05-03T11:42:46.396Z</time></trkpt><trkpt lat="45.1694022" lon="8.4670287"><ele>110.0</ele><time>2026-05-03T11:42:47.397Z</time></trkpt><trkpt lat="45.1694763" lon="8.4671418"><ele>110.0</ele><time>2026-05-03T11:42:48.396Z</time></trkpt><trkpt lat="45.1695475" lon="8.4672534"><ele>110.0</ele><time>2026-05-03T11:42:49.396Z</time></trkpt><trkpt lat="45.169621" lon="8.467365"><ele>110.0</ele><time>2026-05-03T11:42:50.396Z</time></trkpt><trkpt lat="45.1696945" lon="8.4674763"><ele>110.0</ele><time>2026-05-03T11:42:51.396Z</time></trkpt><trkpt lat="45.1697679" lon="8.4675886"><ele>110.0</ele><time>2026-05-03T11:42:52.396Z</time></trkpt><trkpt lat="45.16984" lon="8.4676988"><ele>110.0</ele><time>2026-05-03T11:42:53.396Z</time></trkpt><trkpt lat="45.1699159" lon="8.4678117"><ele>110.0</ele><time>2026-05-03T11:42:54.396Z</time></trkpt><trkpt lat="45.1699922" lon="8.4679252"><ele>110.0</ele><time>2026-05-03T11:42:55.396Z</time></trkpt><trkpt lat="45.1700667" lon="8.4680365"><ele>110.0</ele><time>2026-05-03T11:42:56.396Z</time></trkpt><trkpt lat="45.1701414" lon="8.4681465"><ele>110.0</ele><time>2026-05-03T11:42:57.396Z</time></trkpt><trkpt lat="45.1702158" lon="8.468255"><ele>110.0</ele><time>2026-05-03T11:42:58.396Z</time></trkpt><trkpt lat="45.1702899" lon="8.4683637"><ele>110.0</ele><time>2026-05-03T11:42:59.396Z</time></trkpt><trkpt lat="45.1703642" lon="8.4684743"><ele>110.0</ele><time>2026-05-03T11:43:00.396Z</time></trkpt><trkpt lat="45.1704379" lon="8.4685866"><ele>110.0</ele><time>2026-05-03T11:43:01.396Z</time></trkpt><trkpt lat="45.1705111" lon="8.4686987"><ele>109.8</ele><time>2026-05-03T11:43:02.396Z</time></trkpt><trkpt lat="45.1705846" lon="8.46881"><ele>109.6</ele><time>2026-05-03T11:43:03.397Z</time></trkpt><trkpt lat="45.1706588" lon="8.4689213"><ele>109.4</ele><time>2026-05-03T11:43:04.397Z</time></trkpt><trkpt lat="45.1707328" lon="8.4690331"><ele>109.2</ele><time>2026-05-03T11:43:05.396Z</time></trkpt><trkpt lat="45.170806" lon="8.4691451"><ele>109.0</ele><time>2026-05-03T11:43:06.396Z</time></trkpt><trkpt lat="45.1708789" lon="8.4692588"><ele>108.6</ele><time>2026-05-03T11:43:07.396Z</time></trkpt><trkpt lat="45.1709517" lon="8.4693737"><ele>108.2</ele><time>2026-05-03T11:43:08.396Z</time></trkpt><trkpt lat="45.1710245" lon="8.4694874"><ele>107.79999999999998</ele><time>2026-05-03T11:43:09.396Z</time></trkpt><trkpt lat="45.1710982" lon="8.4696012"><ele>107.39999999999999</ele><time>2026-05-03T11:43:10.396Z</time></trkpt><trkpt lat="45.1711718" lon="8.4697122"><ele>107.0</ele><time>2026-05-03T11:43:11.396Z</time></trkpt><trkpt lat="45.1712444" lon="8.4698199"><ele>107.0</ele><time>2026-05-03T11:43:12.397Z</time></trkpt><trkpt lat="45.1713161" lon="8.4699249"><ele>106.99999999999999</ele><time>2026-05-03T11:43:13.398Z</time></trkpt><trkpt lat="45.1713865" lon="8.4700292"><ele>106.99999999999999</ele><time>2026-05-03T11:43:14.396Z</time></trkpt><trkpt lat="45.1714572" lon="8.4701337"><ele>107.0</ele><time>2026-05-03T11:43:15.397Z</time></trkpt><trkpt lat="45.1715288" lon="8.4702378"><ele>107.0</ele><time>2026-05-03T11:43:16.398Z</time></trkpt><trkpt lat="45.1716028" lon="8.4703471"><ele>107.39999999999999</ele><time>2026-05-03T11:43:17.397Z</time></trkpt><trkpt lat="45.171675" lon="8.4704585"><ele>107.79999999999998</ele><time>2026-05-03T11:43:18.397Z</time></trkpt><trkpt lat="45.1717444" lon="8.4705737"><ele>108.2</ele><time>2026-05-03T11:43:19.397Z</time></trkpt><trkpt lat="45.1718137" lon="8.4706873"><ele>108.6</ele><time>2026-05-03T11:43:20.398Z</time></trkpt><trkpt lat="45.1718851" lon="8.4708039"><ele>109.0</ele><time>2026-05-03T11:43:21.398Z</time></trkpt><trkpt lat="45.1719516" lon="8.4709163"><ele>109.0</ele><time>2026-05-03T11:43:22.397Z</time></trkpt><trkpt lat="45.1720201" lon="8.4710293"><ele>109.0</ele><time>2026-05-03T11:43:23.398Z</time></trkpt><trkpt lat="45.1720882" lon="8.4711375"><ele>109.0</ele><time>2026-05-03T11:43:24.397Z</time></trkpt><trkpt lat="45.1721551" lon="8.4712398"><ele>109.0</ele><time>2026-05-03T11:43:25.397Z</time></trkpt><trkpt lat="45.1722258" lon="8.4713376"><ele>109.0</ele><time>2026-05-03T11:43:26.397Z</time></trkpt><trkpt lat="45.1722967" lon="8.4714322"><ele>109.2</ele><time>2026-05-03T11:43:27.398Z</time></trkpt><trkpt lat="45.1723683" lon="8.4715329"><ele>109.4</ele><time>2026-05-03T11:43:28.397Z</time></trkpt><trkpt lat="45.1724321" lon="8.4716329"><ele>109.6</ele><time>2026-05-03T11:43:29.397Z</time></trkpt><trkpt lat="45.1724952" lon="8.4717347"><ele>109.8</ele><time>2026-05-03T11:43:30.397Z</time></trkpt><trkpt lat="45.1725609" lon="8.4718361"><ele>110.0</ele><time>2026-05-03T11:43:31.397Z</time></trkpt><trkpt lat="45.1726267" lon="8.4719356"><ele>110.0</ele><time>2026-05-03T11:43:32.398Z</time></trkpt><trkpt lat="45.1726929" lon="8.472038"><ele>110.0</ele><time>2026-05-03T11:43:33.397Z</time></trkpt><trkpt lat="45.1727586" lon="8.4721396"><ele>110.0</ele><time>2026-05-03T11:43:34.397Z</time></trkpt><trkpt lat="45.1728246" lon="8.4722403"><ele>110.0</ele><time>2026-05-03T11:43:35.397Z</time></trkpt><trkpt lat="45.1728904" lon="8.4723413"><ele>110.0</ele><time>2026-05-03T11:43:36.397Z</time></trkpt><trkpt lat="45.1729564" lon="8.4724419"><ele>109.8</ele><time>2026-05-03T11:43:37.398Z</time></trkpt><trkpt lat="45.1730221" lon="8.4725425"><ele>109.6</ele><time>2026-05-03T11:43:38.397Z</time></trkpt><trkpt lat="45.1730873" lon="8.4726433"><ele>109.4</ele><time>2026-05-03T11:43:39.397Z</time></trkpt><trkpt lat="45.1731528" lon="8.4727443"><ele>109.2</ele><time>2026-05-03T11:43:40.397Z</time></trkpt><trkpt lat="45.1732179" lon="8.4728458"><ele>109.0</ele><time>2026-05-03T11:43:41.397Z</time></trkpt><trkpt lat="45.173283" lon="8.4729465"><ele>108.80000000000001</ele><time>2026-05-03T11:43:42.397Z</time></trkpt><trkpt lat="45.173348" lon="8.4730455"><ele>108.60000000000001</ele><time>2026-05-03T11:43:43.397Z</time></trkpt><trkpt lat="45.173414" lon="8.4731462"><ele>108.4</ele><time>2026-05-03T11:43:44.397Z</time></trkpt><trkpt lat="45.1734806" lon="8.4732466"><ele>108.2</ele><time>2026-05-03T11:43:45.397Z</time></trkpt><trkpt lat="45.1735465" lon="8.4733454"><ele>108.0</ele><time>2026-05-03T11:43:46.397Z</time></trkpt><trkpt lat="45.1736115" lon="8.4734447"><ele>108.0</ele><time>2026-05-03T11:43:47.397Z</time></trkpt><trkpt lat="45.1736777" lon="8.4735435"><ele>108.00000000000001</ele><time>2026-05-03T11:43:48.397Z</time></trkpt><trkpt lat="45.1737441" lon="8.4736391"><ele>108.00000000000001</ele><time>2026-05-03T11:43:49.397Z</time></trkpt><trkpt lat="45.1738108" lon="8.4737371"><ele>108.0</ele><time>2026-05-03T11:43:50.397Z</time></trkpt><trkpt lat="45.1738767" lon="8.4738332"><ele>108.0</ele><time>2026-05-03T11:43:51.397Z</time></trkpt><trkpt lat="45.1739447" lon="8.4739268"><ele>108.0</ele><time>2026-05-03T11:43:52.398Z</time></trkpt><trkpt lat="45.1740134" lon="8.4740212"><ele>108.00000000000001</ele><time>2026-05-03T11:43:53.397Z</time></trkpt><trkpt lat="45.1740778" lon="8.4741231"><ele>108.00000000000001</ele><time>2026-05-03T11:43:54.398Z</time></trkpt><trkpt lat="45.1741387" lon="8.4742276"><ele>108.0</ele><time>2026-05-03T11:43:55.398Z</time></trkpt><trkpt lat="45.1741999" lon="8.4743314"><ele>108.0</ele><time>2026-05-03T11:43:56.397Z</time></trkpt><trkpt lat="45.1742648" lon="8.4744303"><ele>108.0</ele><time>2026-05-03T11:43:57.397Z</time></trkpt><trkpt lat="45.1743292" lon="8.4745245"><ele>108.00000000000001</ele><time>2026-05-03T11:43:58.397Z</time></trkpt><trkpt lat="45.174395" lon="8.4746203"><ele>108.00000000000001</ele><time>2026-05-03T11:43:59.398Z</time></trkpt><trkpt lat="45.1744599" lon="8.4747172"><ele>108.0</ele><time>2026-05-03T11:44:00.398Z</time></trkpt><trkpt lat="45.1745283" lon="8.4748149"><ele>108.0</ele><time>2026-05-03T11:44:01.397Z</time></trkpt><trkpt lat="45.1745986" lon="8.4749164"><ele>108.0</ele><time>2026-05-03T11:44:02.397Z</time></trkpt><trkpt lat="45.1746671" lon="8.4750183"><ele>108.00000000000001</ele><time>2026-05-03T11:44:03.398Z</time></trkpt><trkpt lat="45.1747404" lon="8.4751189"><ele>108.00000000000001</ele><time>2026-05-03T11:44:04.398Z</time></trkpt><trkpt lat="45.1748132" lon="8.4752214"><ele>108.0</ele><time>2026-05-03T11:44:05.398Z</time></trkpt><trkpt lat="45.1748822" lon="8.4753297"><ele>108.0</ele><time>2026-05-03T11:44:06.398Z</time></trkpt><trkpt lat="45.1749463" lon="8.4754431"><ele>108.2</ele><time>2026-05-03T11:44:07.398Z</time></trkpt><trkpt lat="45.1750097" lon="8.4755531"><ele>108.4</ele><time>2026-05-03T11:44:08.398Z</time></trkpt><trkpt lat="45.1750743" lon="8.4756591"><ele>108.60000000000001</ele><time>2026-05-03T11:44:09.398Z</time></trkpt><trkpt lat="45.1751401" lon="8.4757632"><ele>108.80000000000001</ele><time>2026-05-03T11:44:10.398Z</time></trkpt><trkpt lat="45.1752118" lon="8.4758663"><ele>109.0</ele><time>2026-05-03T11:44:11.398Z</time></trkpt><trkpt lat="45.1752933" lon="8.4759732"><ele>109.0</ele><time>2026-05-03T11:44:12.398Z</time></trkpt><trkpt lat="45.1753686" lon="8.4760859"><ele>109.0</ele><time>2026-05-03T11:44:13.398Z</time></trkpt><trkpt lat="45.1754458" lon="8.4762011"><ele>109.0</ele><time>2026-05-03T11:44:14.399Z</time></trkpt><trkpt lat="45.17552" lon="8.4763137"><ele>109.0</ele><time>2026-05-03T11:44:15.398Z</time></trkpt><trkpt lat="45.1755908" lon="8.4764226"><ele>109.0</ele><time>2026-05-03T11:44:16.398Z</time></trkpt><trkpt lat="45.1756645" lon="8.4765334"><ele>108.80000000000001</ele><time>2026-05-03T11:44:17.398Z</time></trkpt><trkpt lat="45.1757376" lon="8.4766392"><ele>108.60000000000001</ele><time>2026-05-03T11:44:18.399Z</time></trkpt><trkpt lat="45.1758102" lon="8.476744"><ele>108.4</ele><time>2026-05-03T11:44:19.398Z</time></trkpt><trkpt lat="45.1758809" lon="8.4768494"><ele>108.2</ele><time>2026-05-03T11:44:20.398Z</time></trkpt><trkpt lat="45.1759499" lon="8.4769543"><ele>108.0</ele><time>2026-05-03T11:44:21.398Z</time></trkpt><trkpt lat="45.1760188" lon="8.4770593"><ele>108.0</ele><time>2026-05-03T11:44:22.398Z</time></trkpt><trkpt lat="45.1760891" lon="8.4771679"><ele>108.00000000000001</ele><time>2026-05-03T11:44:23.399Z</time></trkpt><trkpt lat="45.1761587" lon="8.4772758"><ele>108.00000000000001</ele><time>2026-05-03T11:44:24.399Z</time></trkpt><trkpt lat="45.1762268" lon="8.477383"><ele>108.0</ele><time>2026-05-03T11:44:25.399Z</time></trkpt><trkpt lat="45.1762936" lon="8.4774931"><ele>108.0</ele><time>2026-05-03T11:44:26.398Z</time></trkpt><trkpt lat="45.1763634" lon="8.4776041"><ele>108.0</ele><time>2026-05-03T11:44:27.398Z</time></trkpt><trkpt lat="45.1764345" lon="8.4777143"><ele>108.00000000000001</ele><time>2026-05-03T11:44:28.399Z</time></trkpt><trkpt lat="45.1765072" lon="8.4778238"><ele>108.00000000000001</ele><time>2026-05-03T11:44:29.398Z</time></trkpt><trkpt lat="45.1765765" lon="8.4779304"><ele>108.0</ele><time>2026-05-03T11:44:30.398Z</time></trkpt><trkpt lat="45.1766454" lon="8.4780383"><ele>108.0</ele><time>2026-05-03T11:44:31.398Z</time></trkpt><trkpt lat="45.1767164" lon="8.4781463"><ele>107.80000000000001</ele><time>2026-05-03T11:44:32.399Z</time></trkpt><trkpt lat="45.1767886" lon="8.4782544"><ele>107.60000000000001</ele><time>2026-05-03T11:44:33.398Z</time></trkpt><trkpt lat="45.1768613" lon="8.4783648"><ele>107.39999999999999</ele><time>2026-05-03T11:44:34.398Z</time></trkpt><trkpt lat="45.1769338" lon="8.4784752"><ele>107.19999999999999</ele><time>2026-05-03T11:44:35.399Z</time></trkpt><trkpt lat="45.1770038" lon="8.4785839"><ele>107.0</ele><time>2026-05-03T11:44:36.398Z</time></trkpt><trkpt lat="45.1770749" lon="8.47869"><ele>107.0</ele><time>2026-05-03T11:44:37.398Z</time></trkpt><trkpt lat="45.177147" lon="8.4787957"><ele>106.99999999999999</ele><time>2026-05-03T11:44:38.399Z</time></trkpt><trkpt lat="45.1772194" lon="8.4789035"><ele>106.99999999999999</ele><time>2026-05-03T11:44:39.398Z</time></trkpt><trkpt lat="45.1772907" lon="8.4790129"><ele>107.0</ele><time>2026-05-03T11:44:40.399Z</time></trkpt><trkpt lat="45.1773626" lon="8.479123"><ele>107.0</ele><time>2026-05-03T11:44:41.398Z</time></trkpt><trkpt lat="45.1774343" lon="8.4792335"><ele>107.0</ele><time>2026-05-03T11:44:42.398Z</time></trkpt><trkpt lat="45.1775053" lon="8.4793437"><ele>106.99999999999999</ele><time>2026-05-03T11:44:43.399Z</time></trkpt><trkpt lat="45.177575" lon="8.4794501"><ele>106.99999999999999</ele><time>2026-05-03T11:44:44.398Z</time></trkpt><trkpt lat="45.1776436" lon="8.4795554"><ele>107.0</ele><time>2026-05-03T11:44:45.398Z</time></trkpt><trkpt lat="45.1777104" lon="8.4796595"><ele>107.0</ele><time>2026-05-03T11:44:46.398Z</time></trkpt><trkpt lat="45.1777753" lon="8.4797615"><ele>107.0</ele><time>2026-05-03T11:44:47.399Z</time></trkpt><trkpt lat="45.1778434" lon="8.4798581"><ele>106.99999999999999</ele><time>2026-05-03T11:44:48.399Z</time></trkpt><trkpt lat="45.1779114" lon="8.4799476"><ele>106.99999999999999</ele><time>2026-05-03T11:44:49.399Z</time></trkpt><trkpt lat="45.1779799" lon="8.4800336"><ele>107.0</ele><time>2026-05-03T11:44:50.399Z</time></trkpt><trkpt lat="45.178053" lon="8.4801143"><ele>107.0</ele><time>2026-05-03T11:44:51.399Z</time></trkpt><trkpt lat="45.1781317" lon="8.4801923"><ele>107.19999999999999</ele><time>2026-05-03T11:44:52.4Z</time></trkpt><trkpt lat="45.1782149" lon="8.4802716"><ele>107.39999999999999</ele><time>2026-05-03T11:44:53.399Z</time></trkpt><trkpt lat="45.178302" lon="8.4803492"><ele>107.60000000000001</ele><time>2026-05-03T11:44:54.399Z</time></trkpt><trkpt lat="45.1783901" lon="8.480428"><ele>107.80000000000001</ele><time>2026-05-03T11:44:55.4Z</time></trkpt><trkpt lat="45.1784783" lon="8.4805038"><ele>108.0</ele><time>2026-05-03T11:44:56.399Z</time></trkpt><trkpt lat="45.1785655" lon="8.4805768"><ele>108.0</ele><time>2026-05-03T11:44:57.4Z</time></trkpt><trkpt lat="45.1786496" lon="8.4806501"><ele>108.00000000000001</ele><time>2026-05-03T11:44:58.399Z</time></trkpt><trkpt lat="45.1787351" lon="8.4807249"><ele>108.00000000000001</ele><time>2026-05-03T11:44:59.399Z</time></trkpt><trkpt lat="45.1788205" lon="8.4808007"><ele>108.0</ele><time>2026-05-03T11:45:00.399Z</time></trkpt><trkpt lat="45.1789045" lon="8.4808784"><ele>108.0</ele><time>2026-05-03T11:45:01.399Z</time></trkpt><trkpt lat="45.1789856" lon="8.4809524"><ele>108.16666666666667</ele><time>2026-05-03T11:45:02.399Z</time></trkpt><trkpt lat="45.179058" lon="8.4810162"><ele>108.33333333333334</ele><time>2026-05-03T11:45:03.399Z</time></trkpt><trkpt lat="45.1791289" lon="8.481067"><ele>108.5</ele><time>2026-05-03T11:45:04.399Z</time></trkpt><trkpt lat="45.1791976" lon="8.4811039"><ele>108.66666666666667</ele><time>2026-05-03T11:45:05.399Z</time></trkpt><trkpt lat="45.1792743" lon="8.4811154"><ele>108.83333333333334</ele><time>2026-05-03T11:45:06.399Z</time></trkpt><trkpt lat="45.17936" lon="8.4811075"><ele>109.0</ele><time>2026-05-03T11:45:07.399Z</time></trkpt><trkpt lat="45.1794478" lon="8.481068"><ele>109.0</ele><time>2026-05-03T11:45:08.399Z</time></trkpt><trkpt lat="45.179536" lon="8.4810107"><ele>109.0</ele><time>2026-05-03T11:45:09.4Z</time></trkpt><trkpt lat="45.1796166" lon="8.4809465"><ele>109.0</ele><time>2026-05-03T11:45:10.399Z</time></trkpt><trkpt lat="45.1796978" lon="8.4808696"><ele>109.0</ele><time>2026-05-03T11:45:11.4Z</time></trkpt><trkpt lat="45.1797806" lon="8.480793"><ele>109.0</ele><time>2026-05-03T11:45:12.399Z</time></trkpt><trkpt lat="45.1798637" lon="8.4807193"><ele>109.2</ele><time>2026-05-03T11:45:13.4Z</time></trkpt><trkpt lat="45.1799453" lon="8.4806431"><ele>109.4</ele><time>2026-05-03T11:45:14.4Z</time></trkpt><trkpt lat="45.1800241" lon="8.4805702"><ele>109.6</ele><time>2026-05-03T11:45:15.4Z</time></trkpt><trkpt lat="45.1801012" lon="8.4805002"><ele>109.8</ele><time>2026-05-03T11:45:16.4Z</time></trkpt><trkpt lat="45.1801753" lon="8.4804337"><ele>110.0</ele><time>2026-05-03T11:45:17.4Z</time></trkpt><trkpt lat="45.1802477" lon="8.480368"><ele>109.99999999999999</ele><time>2026-05-03T11:45:18.4Z</time></trkpt><trkpt lat="45.18032" lon="8.4803034"><ele>110.0</ele><time>2026-05-03T11:45:19.399Z</time></trkpt><trkpt lat="45.1803935" lon="8.4802411"><ele>110.0</ele><time>2026-05-03T11:45:20.399Z</time></trkpt><trkpt lat="45.1804695" lon="8.4801778"><ele>110.0</ele><time>2026-05-03T11:45:21.399Z</time></trkpt><trkpt lat="45.1805451" lon="8.4801166"><ele>109.99999999999999</ele><time>2026-05-03T11:45:22.399Z</time></trkpt><trkpt lat="45.180617" lon="8.4800578"><ele>110.0</ele><time>2026-05-03T11:45:23.4Z</time></trkpt><trkpt lat="45.1806867" lon="8.4799946"><ele>110.33333333333333</ele><time>2026-05-03T11:45:24.4Z</time></trkpt><trkpt lat="45.1807569" lon="8.479945"><ele>110.66666666666666</ele><time>2026-05-03T11:45:25.399Z</time></trkpt><trkpt lat="45.1808198" lon="8.4798874"><ele>111.0</ele><time>2026-05-03T11:45:26.399Z</time></trkpt><trkpt lat="45.1808992" lon="8.4798261"><ele>111.33333333333334</ele><time>2026-05-03T11:45:27.399Z</time></trkpt><trkpt lat="45.1809683" lon="8.4797599"><ele>111.66666666666667</ele><time>2026-05-03T11:45:28.399Z</time></trkpt><trkpt lat="45.1810232" lon="8.4796854"><ele>112.0</ele><time>2026-05-03T11:45:29.399Z</time></trkpt><trkpt lat="45.1810779" lon="8.4796152"><ele>111.83333333333334</ele><time>2026-05-03T11:45:30.4Z</time></trkpt><trkpt lat="45.1811387" lon="8.479543"><ele>111.66666666666667</ele><time>2026-05-03T11:45:31.399Z</time></trkpt><trkpt lat="45.1811982" lon="8.479473"><ele>111.5</ele><time>2026-05-03T11:45:32.4Z</time></trkpt><trkpt lat="45.1812549" lon="8.4794046"><ele>111.33333333333334</ele><time>2026-05-03T11:45:33.4Z</time></trkpt><trkpt lat="45.1813106" lon="8.479339"><ele>111.16666666666667</ele><time>2026-05-03T11:45:34.399Z</time></trkpt><trkpt lat="45.1813723" lon="8.4792735"><ele>111.0</ele><time>2026-05-03T11:45:35.399Z</time></trkpt><trkpt lat="45.1814359" lon="8.4792143"><ele>111.0</ele><time>2026-05-03T11:45:36.4Z</time></trkpt><trkpt lat="45.1814965" lon="8.479162"><ele>111.0</ele><time>2026-05-03T11:45:37.4Z</time></trkpt><trkpt lat="45.1815636" lon="8.4791102"><ele>111.0</ele><time>2026-05-03T11:45:38.4Z</time></trkpt><trkpt lat="45.1816289" lon="8.4790637"><ele>111.0</ele><time>2026-05-03T11:45:39.4Z</time></trkpt><trkpt lat="45.1816942" lon="8.4790187"><ele>111.0</ele><time>2026-05-03T11:45:40.401Z</time></trkpt><trkpt lat="45.1817612" lon="8.4789652"><ele>111.0</ele><time>2026-05-03T11:45:41.401Z</time></trkpt><trkpt lat="45.1818294" lon="8.4789211"><ele>111.0</ele><time>2026-05-03T11:45:42.401Z</time></trkpt><trkpt lat="45.1818915" lon="8.4788715"><ele>111.6</ele><time>2026-05-03T11:45:43.401Z</time></trkpt><trkpt lat="45.181954" lon="8.4788353"><ele>112.19999999999999</ele><time>2026-05-03T11:45:44.4Z</time></trkpt><trkpt lat="45.1820701" lon="8.4787765"><ele>112.80000000000001</ele><time>2026-05-03T11:45:46.401Z</time></trkpt><trkpt lat="45.1821731" lon="8.4787477"><ele>113.4</ele><time>2026-05-03T11:45:48.4Z</time></trkpt><trkpt lat="45.1822282" lon="8.4788187"><ele>114.0</ele><time>2026-05-03T11:45:52.4Z</time></trkpt><trkpt lat="45.1822478" lon="8.4789595"><ele>114.0</ele><time>2026-05-03T11:45:54.401Z</time></trkpt><trkpt lat="45.1822703" lon="8.4791078"><ele>114.0</ele><time>2026-05-03T11:45:56.401Z</time></trkpt><trkpt lat="45.1823025" lon="8.4792782"><ele>114.0</ele><time>2026-05-03T11:45:58.4Z</time></trkpt><trkpt lat="45.182317" lon="8.4793715"><ele>114.0</ele><time>2026-05-03T11:45:59.4Z</time></trkpt><trkpt lat="45.1823372" lon="8.4794707"><ele>114.0</ele><time>2026-05-03T11:46:00.4Z</time></trkpt><trkpt lat="45.1823596" lon="8.4795652"><ele>114.0</ele><time>2026-05-03T11:46:01.4Z</time></trkpt><trkpt lat="45.182377" lon="8.4796558"><ele>113.83333333333333</ele><time>2026-05-03T11:46:02.4Z</time></trkpt><trkpt lat="45.1823954" lon="8.4797522"><ele>113.66666666666666</ele><time>2026-05-03T11:46:03.4Z</time></trkpt><trkpt lat="45.1824168" lon="8.4798579"><ele>113.5</ele><time>2026-05-03T11:46:04.401Z</time></trkpt><trkpt lat="45.182439" lon="8.4799668"><ele>113.33333333333333</ele><time>2026-05-03T11:46:05.4Z</time></trkpt><trkpt lat="45.1824614" lon="8.4800797"><ele>113.16666666666666</ele><time>2026-05-03T11:46:06.4Z</time></trkpt><trkpt lat="45.1824834" lon="8.4801975"><ele>113.0</ele><time>2026-05-03T11:46:07.4Z</time></trkpt><trkpt lat="45.182509" lon="8.4803125"><ele>112.99999999999999</ele><time>2026-05-03T11:46:08.4Z</time></trkpt><trkpt lat="45.1825325" lon="8.4804304"><ele>113.0</ele><time>2026-05-03T11:46:09.4Z</time></trkpt><trkpt lat="45.1825554" lon="8.4805552"><ele>113.0</ele><time>2026-05-03T11:46:10.4Z</time></trkpt><trkpt lat="45.1825501" lon="8.4806638"><ele>113.0</ele><time>2026-05-03T11:46:11.4Z</time></trkpt><trkpt lat="45.1825781" lon="8.4807684"><ele>112.99999999999999</ele><time>2026-05-03T11:46:12.4Z</time></trkpt><trkpt lat="45.1825982" lon="8.4808698"><ele>113.0</ele><time>2026-05-03T11:46:13.401Z</time></trkpt><trkpt lat="45.1826124" lon="8.4809732"><ele>112.66666666666666</ele><time>2026-05-03T11:46:14.401Z</time></trkpt><trkpt lat="45.1826273" lon="8.4810789"><ele>112.33333333333333</ele><time>2026-05-03T11:46:15.401Z</time></trkpt><trkpt lat="45.1826389" lon="8.4811917"><ele>112.0</ele><time>2026-05-03T11:46:16.4Z</time></trkpt><trkpt lat="45.1826512" lon="8.4813017"><ele>111.66666666666666</ele><time>2026-05-03T11:46:17.4Z</time></trkpt><trkpt lat="45.1826644" lon="8.4814084"><ele>111.33333333333333</ele><time>2026-05-03T11:46:18.4Z</time></trkpt><trkpt lat="45.1826807" lon="8.481516"><ele>111.0</ele><time>2026-05-03T11:46:19.4Z</time></trkpt><trkpt lat="45.1826889" lon="8.4816305"><ele>111.0</ele><time>2026-05-03T11:46:20.401Z</time></trkpt><trkpt lat="45.1827057" lon="8.4817475"><ele>111.0</ele><time>2026-05-03T11:46:21.401Z</time></trkpt><trkpt lat="45.1827205" lon="8.4818652"><ele>111.0</ele><time>2026-05-03T11:46:22.401Z</time></trkpt><trkpt lat="45.1827369" lon="8.4819863"><ele>111.0</ele><time>2026-05-03T11:46:23.401Z</time></trkpt><trkpt lat="45.1827557" lon="8.4821122"><ele>111.0</ele><time>2026-05-03T11:46:24.401Z</time></trkpt><trkpt lat="45.1827627" lon="8.4822478"><ele>111.0</ele><time>2026-05-03T11:46:25.401Z</time></trkpt><trkpt lat="45.1827821" lon="8.4823733"><ele>110.83333333333333</ele><time>2026-05-03T11:46:26.401Z</time></trkpt><trkpt lat="45.1828062" lon="8.4825003"><ele>110.66666666666666</ele><time>2026-05-03T11:46:27.401Z</time></trkpt><trkpt lat="45.1828293" lon="8.4826258"><ele>110.5</ele><time>2026-05-03T11:46:28.401Z</time></trkpt><trkpt lat="45.1828556" lon="8.4827444"><ele>110.33333333333333</ele><time>2026-05-03T11:46:29.401Z</time></trkpt><trkpt lat="45.1828788" lon="8.4828596"><ele>110.16666666666666</ele><time>2026-05-03T11:46:30.402Z</time></trkpt><trkpt lat="45.1829002" lon="8.4829739"><ele>110.0</ele><time>2026-05-03T11:46:31.401Z</time></trkpt><trkpt lat="45.182925" lon="8.4830907"><ele>109.99999999999999</ele><time>2026-05-03T11:46:32.401Z</time></trkpt><trkpt lat="45.1829463" lon="8.4832054"><ele>110.0</ele><time>2026-05-03T11:46:33.401Z</time></trkpt><trkpt lat="45.1829671" lon="8.4833183"><ele>110.0</ele><time>2026-05-03T11:46:34.401Z</time></trkpt><trkpt lat="45.1829859" lon="8.4834314"><ele>110.0</ele><time>2026-05-03T11:46:35.401Z</time></trkpt><trkpt lat="45.1830085" lon="8.4835515"><ele>109.99999999999999</ele><time>2026-05-03T11:46:36.402Z</time></trkpt><trkpt lat="45.1830318" lon="8.4836775"><ele>110.0</ele><time>2026-05-03T11:46:37.401Z</time></trkpt><trkpt lat="45.1830515" lon="8.483805"><ele>109.8</ele><time>2026-05-03T11:46:38.401Z</time></trkpt><trkpt lat="45.1830719" lon="8.4839312"><ele>109.6</ele><time>2026-05-03T11:46:39.401Z</time></trkpt><trkpt lat="45.1830942" lon="8.4840573"><ele>109.4</ele><time>2026-05-03T11:46:40.401Z</time></trkpt><trkpt lat="45.1831175" lon="8.4841891"><ele>109.2</ele><time>2026-05-03T11:46:41.401Z</time></trkpt><trkpt lat="45.1831465" lon="8.4843293"><ele>109.0</ele><time>2026-05-03T11:46:42.401Z</time></trkpt><trkpt lat="45.183172" lon="8.4844717"><ele>109.2</ele><time>2026-05-03T11:46:43.401Z</time></trkpt><trkpt lat="45.1831957" lon="8.4846158"><ele>109.4</ele><time>2026-05-03T11:46:44.402Z</time></trkpt><trkpt lat="45.1832178" lon="8.4847589"><ele>109.6</ele><time>2026-05-03T11:46:45.401Z</time></trkpt><trkpt lat="45.1832413" lon="8.4849019"><ele>109.8</ele><time>2026-05-03T11:46:46.401Z</time></trkpt><trkpt lat="45.1832675" lon="8.4850416"><ele>110.0</ele><time>2026-05-03T11:46:47.402Z</time></trkpt><trkpt lat="45.1832935" lon="8.4851799"><ele>110.0</ele><time>2026-05-03T11:46:48.402Z</time></trkpt><trkpt lat="45.183319" lon="8.4853165"><ele>110.0</ele><time>2026-05-03T11:46:49.401Z</time></trkpt><trkpt lat="45.1833456" lon="8.4854521"><ele>110.0</ele><time>2026-05-03T11:46:50.401Z</time></trkpt><trkpt lat="45.1833701" lon="8.4855851"><ele>110.0</ele><time>2026-05-03T11:46:51.402Z</time></trkpt><trkpt lat="45.1833932" lon="8.48572"><ele>110.0</ele><time>2026-05-03T11:46:52.401Z</time></trkpt><trkpt lat="45.1834144" lon="8.4858519"><ele>109.66666666666666</ele><time>2026-05-03T11:46:53.401Z</time></trkpt><trkpt lat="45.1834341" lon="8.4859746"><ele>109.33333333333333</ele><time>2026-05-03T11:46:54.402Z</time></trkpt><trkpt lat="45.1834533" lon="8.4860934"><ele>109.0</ele><time>2026-05-03T11:46:55.401Z</time></trkpt><trkpt lat="45.1834747" lon="8.4861985"><ele>108.66666666666666</ele><time>2026-05-03T11:46:56.401Z</time></trkpt><trkpt lat="45.1835006" lon="8.4862937"><ele>108.33333333333333</ele><time>2026-05-03T11:46:57.401Z</time></trkpt><trkpt lat="45.183535" lon="8.4863805"><ele>108.0</ele><time>2026-05-03T11:46:58.402Z</time></trkpt><trkpt lat="45.1835802" lon="8.4864592"><ele>108.0</ele><time>2026-05-03T11:46:59.402Z</time></trkpt><trkpt lat="45.1836363" lon="8.4865257"><ele>108.0</ele><time>2026-05-03T11:47:00.401Z</time></trkpt><trkpt lat="45.183707" lon="8.4865817"><ele>108.0</ele><time>2026-05-03T11:47:01.402Z</time></trkpt><trkpt lat="45.1837838" lon="8.4866243"><ele>108.0</ele><time>2026-05-03T11:47:02.402Z</time></trkpt><trkpt lat="45.1838628" lon="8.4866569"><ele>108.0</ele><time>2026-05-03T11:47:03.401Z</time></trkpt><trkpt lat="45.1839457" lon="8.4866907"><ele>108.0</ele><time>2026-05-03T11:47:04.401Z</time></trkpt><trkpt lat="45.1840309" lon="8.4867288"><ele>108.4</ele><time>2026-05-03T11:47:05.401Z</time></trkpt><trkpt lat="45.1841174" lon="8.4867714"><ele>108.80000000000001</ele><time>2026-05-03T11:47:06.401Z</time></trkpt><trkpt lat="45.184208" lon="8.4868193"><ele>109.2</ele><time>2026-05-03T11:47:07.401Z</time></trkpt><trkpt lat="45.1843025" lon="8.4868662"><ele>109.6</ele><time>2026-05-03T11:47:08.401Z</time></trkpt><trkpt lat="45.184398" lon="8.4869102"><ele>110.0</ele><time>2026-05-03T11:47:09.402Z</time></trkpt><trkpt lat="45.184494" lon="8.4869537"><ele>110.0</ele><time>2026-05-03T11:47:10.402Z</time></trkpt><trkpt lat="45.1845899" lon="8.4870003"><ele>110.0</ele><time>2026-05-03T11:47:11.402Z</time></trkpt><trkpt lat="45.1846869" lon="8.4870496"><ele>110.0</ele><time>2026-05-03T11:47:12.403Z</time></trkpt><trkpt lat="45.1847845" lon="8.4871006"><ele>110.0</ele><time>2026-05-03T11:47:13.402Z</time></trkpt><trkpt lat="45.184884" lon="8.4871505"><ele>110.0</ele><time>2026-05-03T11:47:14.403Z</time></trkpt><trkpt lat="45.1849846" lon="8.4871999"><ele>109.6</ele><time>2026-05-03T11:47:15.402Z</time></trkpt><trkpt lat="45.1850839" lon="8.4872508"><ele>109.2</ele><time>2026-05-03T11:47:16.403Z</time></trkpt><trkpt lat="45.1851829" lon="8.4873004"><ele>108.80000000000001</ele><time>2026-05-03T11:47:17.402Z</time></trkpt><trkpt lat="45.1852802" lon="8.487349"><ele>108.4</ele><time>2026-05-03T11:47:18.402Z</time></trkpt><trkpt lat="45.1853811" lon="8.4873985"><ele>108.0</ele><time>2026-05-03T11:47:19.403Z</time></trkpt><trkpt lat="45.18548" lon="8.4874459"><ele>108.0</ele><time>2026-05-03T11:47:20.402Z</time></trkpt><trkpt lat="45.1855799" lon="8.4874957"><ele>108.00000000000001</ele><time>2026-05-03T11:47:21.402Z</time></trkpt><trkpt lat="45.1856802" lon="8.4875465"><ele>108.00000000000001</ele><time>2026-05-03T11:47:22.402Z</time></trkpt><trkpt lat="45.1857827" lon="8.4875929"><ele>108.0</ele><time>2026-05-03T11:47:23.402Z</time></trkpt><trkpt lat="45.1858877" lon="8.4876413"><ele>108.0</ele><time>2026-05-03T11:47:24.403Z</time></trkpt><trkpt lat="45.1859933" lon="8.487692"><ele>108.0</ele><time>2026-05-03T11:47:25.402Z</time></trkpt><trkpt lat="45.1860983" lon="8.4877424"><ele>108.00000000000001</ele><time>2026-05-03T11:47:26.402Z</time></trkpt><trkpt lat="45.1862017" lon="8.4877895"><ele>108.00000000000001</ele><time>2026-05-03T11:47:27.402Z</time></trkpt><trkpt lat="45.1863053" lon="8.4878363"><ele>108.0</ele><time>2026-05-03T11:47:28.402Z</time></trkpt><trkpt lat="45.1864076" lon="8.4878875"><ele>108.0</ele><time>2026-05-03T11:47:29.402Z</time></trkpt><trkpt lat="45.1865103" lon="8.4879391"><ele>107.80000000000001</ele><time>2026-05-03T11:47:30.402Z</time></trkpt><trkpt lat="45.1866141" lon="8.4879879"><ele>107.60000000000001</ele><time>2026-05-03T11:47:31.402Z</time></trkpt><trkpt lat="45.1867172" lon="8.4880396"><ele>107.39999999999999</ele><time>2026-05-03T11:47:32.402Z</time></trkpt><trkpt lat="45.1868166" lon="8.4881055"><ele>107.19999999999999</ele><time>2026-05-03T11:47:33.403Z</time></trkpt><trkpt lat="45.1869074" lon="8.4881898"><ele>107.0</ele><time>2026-05-03T11:47:34.402Z</time></trkpt><trkpt lat="45.1869781" lon="8.4883104"><ele>107.0</ele><time>2026-05-03T11:47:35.402Z</time></trkpt><trkpt lat="45.1870389" lon="8.4884397"><ele>106.99999999999999</ele><time>2026-05-03T11:47:36.403Z</time></trkpt><trkpt lat="45.1870839" lon="8.4885841"><ele>106.99999999999999</ele><time>2026-05-03T11:47:37.402Z</time></trkpt><trkpt lat="45.1871311" lon="8.4887212"><ele>107.0</ele><time>2026-05-03T11:47:38.403Z</time></trkpt><trkpt lat="45.1871846" lon="8.4888507"><ele>107.0</ele><time>2026-05-03T11:47:39.403Z</time></trkpt><trkpt lat="45.1872424" lon="8.4889765"><ele>107.0</ele><time>2026-05-03T11:47:40.403Z</time></trkpt><trkpt lat="45.1873008" lon="8.4891063"><ele>106.99999999999999</ele><time>2026-05-03T11:47:41.403Z</time></trkpt><trkpt lat="45.1873574" lon="8.4892373"><ele>106.99999999999999</ele><time>2026-05-03T11:47:42.403Z</time></trkpt><trkpt lat="45.1874145" lon="8.4893684"><ele>107.0</ele><time>2026-05-03T11:47:43.402Z</time></trkpt><trkpt lat="45.1874727" lon="8.4895011"><ele>107.0</ele><time>2026-05-03T11:47:44.403Z</time></trkpt><trkpt lat="45.1875333" lon="8.4896324"><ele>107.0</ele><time>2026-05-03T11:47:45.403Z</time></trkpt><trkpt lat="45.1875969" lon="8.4897611"><ele>106.99999999999999</ele><time>2026-05-03T11:47:46.403Z</time></trkpt><trkpt lat="45.1876656" lon="8.4898848"><ele>106.99999999999999</ele><time>2026-05-03T11:47:47.403Z</time></trkpt><trkpt lat="45.1877403" lon="8.4900032"><ele>107.0</ele><time>2026-05-03T11:47:48.402Z</time></trkpt><trkpt lat="45.1878185" lon="8.490118"><ele>107.0</ele><time>2026-05-03T11:47:49.402Z</time></trkpt><trkpt lat="45.1878985" lon="8.4902312"><ele>107.0</ele><time>2026-05-03T11:47:50.403Z</time></trkpt><trkpt lat="45.1879776" lon="8.4903467"><ele>107.0</ele><time>2026-05-03T11:47:51.402Z</time></trkpt><trkpt lat="45.1880596" lon="8.4904625"><ele>107.0</ele><time>2026-05-03T11:47:52.403Z</time></trkpt><trkpt lat="45.1881456" lon="8.4905762"><ele>107.0</ele><time>2026-05-03T11:47:53.403Z</time></trkpt><trkpt lat="45.1882294" lon="8.4906859"><ele>107.25</ele><time>2026-05-03T11:47:54.403Z</time></trkpt><trkpt lat="45.1883127" lon="8.490796"><ele>107.5</ele><time>2026-05-03T11:47:55.402Z</time></trkpt><trkpt lat="45.1883928" lon="8.4909066"><ele>107.75</ele><time>2026-05-03T11:47:56.404Z</time></trkpt><trkpt lat="45.1884746" lon="8.4910199"><ele>108.0</ele><time>2026-05-03T11:47:57.404Z</time></trkpt><trkpt lat="45.1885588" lon="8.4911329"><ele>108.0</ele><time>2026-05-03T11:47:58.403Z</time></trkpt><trkpt lat="45.1886443" lon="8.491243"><ele>108.0</ele><time>2026-05-03T11:47:59.403Z</time></trkpt><trkpt lat="45.1887287" lon="8.491358"><ele>108.0</ele><time>2026-05-03T11:48:00.403Z</time></trkpt><trkpt lat="45.1888122" lon="8.491473"><ele>108.0</ele><time>2026-05-03T11:48:01.403Z</time></trkpt><trkpt lat="45.1888955" lon="8.4915871"><ele>108.0</ele><time>2026-05-03T11:48:02.403Z</time></trkpt><trkpt lat="45.1889817" lon="8.4916985"><ele>108.00000000000001</ele><time>2026-05-03T11:48:03.403Z</time></trkpt><trkpt lat="45.1890671" lon="8.4918057"><ele>108.00000000000001</ele><time>2026-05-03T11:48:04.403Z</time></trkpt><trkpt lat="45.1891481" lon="8.4919064"><ele>108.0</ele><time>2026-05-03T11:48:05.404Z</time></trkpt><trkpt lat="45.189233" lon="8.4920063"><ele>108.0</ele><time>2026-05-03T11:48:06.403Z</time></trkpt><trkpt lat="45.1893276" lon="8.4921034"><ele>107.75</ele><time>2026-05-03T11:48:07.403Z</time></trkpt><trkpt lat="45.1894296" lon="8.4921975"><ele>107.5</ele><time>2026-05-03T11:48:08.403Z</time></trkpt><trkpt lat="45.1895327" lon="8.4922878"><ele>107.25</ele><time>2026-05-03T11:48:09.404Z</time></trkpt><trkpt lat="45.1896342" lon="8.4923708"><ele>107.0</ele><time>2026-05-03T11:48:10.403Z</time></trkpt><trkpt lat="45.1897326" lon="8.4924516"><ele>107.0</ele><time>2026-05-03T11:48:11.403Z</time></trkpt><trkpt lat="45.1898265" lon="8.4925304"><ele>106.99999999999999</ele><time>2026-05-03T11:48:12.403Z</time></trkpt><trkpt lat="45.1899204" lon="8.4926106"><ele>106.99999999999999</ele><time>2026-05-03T11:48:13.403Z</time></trkpt><trkpt lat="45.1900134" lon="8.4926877"><ele>107.0</ele><time>2026-05-03T11:48:14.404Z</time></trkpt><trkpt lat="45.1901061" lon="8.492765"><ele>107.0</ele><time>2026-05-03T11:48:15.403Z</time></trkpt><trkpt lat="45.1901941" lon="8.4928383"><ele>107.39999999999999</ele><time>2026-05-03T11:48:16.404Z</time></trkpt><trkpt lat="45.1902804" lon="8.4929099"><ele>107.79999999999998</ele><time>2026-05-03T11:48:17.403Z</time></trkpt><trkpt lat="45.1903677" lon="8.4929808"><ele>108.2</ele><time>2026-05-03T11:48:18.404Z</time></trkpt><trkpt lat="45.1904575" lon="8.4930525"><ele>108.6</ele><time>2026-05-03T11:48:19.403Z</time></trkpt><trkpt lat="45.1905455" lon="8.4931223"><ele>109.0</ele><time>2026-05-03T11:48:20.403Z</time></trkpt><trkpt lat="45.1906315" lon="8.4931918"><ele>109.4</ele><time>2026-05-03T11:48:21.403Z</time></trkpt><trkpt lat="45.1907163" lon="8.4932649"><ele>109.80000000000001</ele><time>2026-05-03T11:48:22.403Z</time></trkpt><trkpt lat="45.1907984" lon="8.4933346"><ele>110.19999999999999</ele><time>2026-05-03T11:48:23.404Z</time></trkpt><trkpt lat="45.1908812" lon="8.4934009"><ele>110.6</ele><time>2026-05-03T11:48:24.404Z</time></trkpt><trkpt lat="45.1909634" lon="8.4934657"><ele>111.0</ele><time>2026-05-03T11:48:25.403Z</time></trkpt><trkpt lat="45.1910439" lon="8.4935354"><ele>111.0</ele><time>2026-05-03T11:48:26.404Z</time></trkpt><trkpt lat="45.1911238" lon="8.493611"><ele>111.0</ele><time>2026-05-03T11:48:27.403Z</time></trkpt><trkpt lat="45.1912012" lon="8.4936901"><ele>111.0</ele><time>2026-05-03T11:48:28.404Z</time></trkpt><trkpt lat="45.1912769" lon="8.4937771"><ele>111.0</ele><time>2026-05-03T11:48:29.403Z</time></trkpt><trkpt lat="45.1913524" lon="8.4938628"><ele>111.0</ele><time>2026-05-03T11:48:30.404Z</time></trkpt><trkpt lat="45.1914259" lon="8.4939479"><ele>110.8</ele><time>2026-05-03T11:48:31.403Z</time></trkpt><trkpt lat="45.1915028" lon="8.4940363"><ele>110.6</ele><time>2026-05-03T11:48:32.404Z</time></trkpt><trkpt lat="45.1915789" lon="8.4941237"><ele>110.4</ele><time>2026-05-03T11:48:33.403Z</time></trkpt><trkpt lat="45.1916569" lon="8.4942107"><ele>110.2</ele><time>2026-05-03T11:48:34.404Z</time></trkpt><trkpt lat="45.1917382" lon="8.4943024"><ele>110.0</ele><time>2026-05-03T11:48:35.403Z</time></trkpt><trkpt lat="45.1918218" lon="8.4943991"><ele>110.0</ele><time>2026-05-03T11:48:36.404Z</time></trkpt><trkpt lat="45.1918977" lon="8.4944947"><ele>110.0</ele><time>2026-05-03T11:48:37.404Z</time></trkpt><trkpt lat="45.1919742" lon="8.4945915"><ele>110.0</ele><time>2026-05-03T11:48:38.403Z</time></trkpt><trkpt lat="45.1920529" lon="8.4946859"><ele>110.0</ele><time>2026-05-03T11:48:39.405Z</time></trkpt><trkpt lat="45.192133" lon="8.4947762"><ele>110.0</ele><time>2026-05-03T11:48:40.403Z</time></trkpt><trkpt lat="45.1922193" lon="8.4948577"><ele>110.0</ele><time>2026-05-03T11:48:41.403Z</time></trkpt><trkpt lat="45.1923108" lon="8.4949291"><ele>110.0</ele><time>2026-05-03T11:48:42.405Z</time></trkpt><trkpt lat="45.1924052" lon="8.4949896"><ele>110.0</ele><time>2026-05-03T11:48:43.405Z</time></trkpt><trkpt lat="45.1925031" lon="8.4950383"><ele>110.0</ele><time>2026-05-03T11:48:44.405Z</time></trkpt><trkpt lat="45.1926043" lon="8.4950799"><ele>110.0</ele><time>2026-05-03T11:48:45.405Z</time></trkpt><trkpt lat="45.1927104" lon="8.4951124"><ele>110.0</ele><time>2026-05-03T11:48:46.404Z</time></trkpt><trkpt lat="45.1928177" lon="8.4951361"><ele>110.0</ele><time>2026-05-03T11:48:47.404Z</time></trkpt><trkpt lat="45.1929241" lon="8.495149"><ele>110.0</ele><time>2026-05-03T11:48:48.405Z</time></trkpt><trkpt lat="45.1930308" lon="8.4951535"><ele>110.0</ele><time>2026-05-03T11:48:49.404Z</time></trkpt><trkpt lat="45.1931365" lon="8.4951493"><ele>110.0</ele><time>2026-05-03T11:48:50.405Z</time></trkpt><trkpt lat="45.1932437" lon="8.49514"><ele>109.8</ele><time>2026-05-03T11:48:51.405Z</time></trkpt><trkpt lat="45.1933517" lon="8.495133"><ele>109.6</ele><time>2026-05-03T11:48:52.405Z</time></trkpt><trkpt lat="45.1934587" lon="8.4951308"><ele>109.4</ele><time>2026-05-03T11:48:53.404Z</time></trkpt><trkpt lat="45.1935649" lon="8.4951262"><ele>109.2</ele><time>2026-05-03T11:48:54.405Z</time></trkpt><trkpt lat="45.1936729" lon="8.4951186"><ele>109.0</ele><time>2026-05-03T11:48:55.404Z</time></trkpt><trkpt lat="45.1937823" lon="8.4951119"><ele>109.0</ele><time>2026-05-03T11:48:56.404Z</time></trkpt><trkpt lat="45.193892" lon="8.4951124"><ele>109.0</ele><time>2026-05-03T11:48:57.404Z</time></trkpt><trkpt lat="45.194002" lon="8.4951252"><ele>109.0</ele><time>2026-05-03T11:48:58.405Z</time></trkpt><trkpt lat="45.1941102" lon="8.4951452"><ele>109.0</ele><time>2026-05-03T11:48:59.404Z</time></trkpt><trkpt lat="45.1942173" lon="8.4951717"><ele>109.0</ele><time>2026-05-03T11:49:00.404Z</time></trkpt><trkpt lat="45.1943221" lon="8.4952031"><ele>109.0</ele><time>2026-05-03T11:49:01.405Z</time></trkpt><trkpt lat="45.1944245" lon="8.4952354"><ele>109.0</ele><time>2026-05-03T11:49:02.405Z</time></trkpt><trkpt lat="45.1945251" lon="8.4952722"><ele>109.0</ele><time>2026-05-03T11:49:03.404Z</time></trkpt><trkpt lat="45.194625" lon="8.4953137"><ele>109.0</ele><time>2026-05-03T11:49:04.405Z</time></trkpt><trkpt lat="45.1947249" lon="8.495358"><ele>109.0</ele><time>2026-05-03T11:49:05.404Z</time></trkpt><trkpt lat="45.1948247" lon="8.4954027"><ele>108.80000000000001</ele><time>2026-05-03T11:49:06.404Z</time></trkpt><trkpt lat="45.1949239" lon="8.4954482"><ele>108.60000000000001</ele><time>2026-05-03T11:49:07.405Z</time></trkpt><trkpt lat="45.1950242" lon="8.4954959"><ele>108.4</ele><time>2026-05-03T11:49:08.404Z</time></trkpt><trkpt lat="45.1951243" lon="8.4955468"><ele>108.2</ele><time>2026-05-03T11:49:09.404Z</time></trkpt><trkpt lat="45.1952237" lon="8.4956046"><ele>108.0</ele><time>2026-05-03T11:49:10.404Z</time></trkpt><trkpt lat="45.195322" lon="8.4956678"><ele>108.0</ele><time>2026-05-03T11:49:11.404Z</time></trkpt><trkpt lat="45.1954197" lon="8.4957252"><ele>108.00000000000001</ele><time>2026-05-03T11:49:12.404Z</time></trkpt><trkpt lat="45.1955184" lon="8.4957771"><ele>108.00000000000001</ele><time>2026-05-03T11:49:13.405Z</time></trkpt><trkpt lat="45.1956171" lon="8.4958286"><ele>108.0</ele><time>2026-05-03T11:49:14.405Z</time></trkpt><trkpt lat="45.1957183" lon="8.4958799"><ele>108.0</ele><time>2026-05-03T11:49:15.404Z</time></trkpt><trkpt lat="45.1958205" lon="8.4959289"><ele>107.60000000000001</ele><time>2026-05-03T11:49:16.404Z</time></trkpt><trkpt lat="45.1959221" lon="8.4959745"><ele>107.20000000000002</ele><time>2026-05-03T11:49:17.404Z</time></trkpt><trkpt lat="45.1960254" lon="8.496019"><ele>106.8</ele><time>2026-05-03T11:49:18.404Z</time></trkpt><trkpt lat="45.1961299" lon="8.4960608"><ele>106.4</ele><time>2026-05-03T11:49:19.405Z</time></trkpt><trkpt lat="45.196234" lon="8.4961017"><ele>106.0</ele><time>2026-05-03T11:49:20.405Z</time></trkpt><trkpt lat="45.1963374" lon="8.4961407"><ele>106.0</ele><time>2026-05-03T11:49:21.404Z</time></trkpt><trkpt lat="45.1964409" lon="8.4961759"><ele>106.0</ele><time>2026-05-03T11:49:22.404Z</time></trkpt><trkpt lat="45.1965449" lon="8.4962072"><ele>106.0</ele><time>2026-05-03T11:49:23.407Z</time></trkpt><trkpt lat="45.1966509" lon="8.4962297"><ele>106.0</ele><time>2026-05-03T11:49:24.404Z</time></trkpt><trkpt lat="45.1967577" lon="8.496244"><ele>106.0</ele><time>2026-05-03T11:49:25.404Z</time></trkpt><trkpt lat="45.1968649" lon="8.4962538"><ele>106.4</ele><time>2026-05-03T11:49:26.404Z</time></trkpt><trkpt lat="45.196971" lon="8.4962622"><ele>106.8</ele><time>2026-05-03T11:49:27.405Z</time></trkpt><trkpt lat="45.1970776" lon="8.4962686"><ele>107.20000000000002</ele><time>2026-05-03T11:49:28.404Z</time></trkpt><trkpt lat="45.1971841" lon="8.4962747"><ele>107.60000000000001</ele><time>2026-05-03T11:49:29.405Z</time></trkpt><trkpt lat="45.1972894" lon="8.4962781"><ele>108.0</ele><time>2026-05-03T11:49:30.406Z</time></trkpt><trkpt lat="45.1973966" lon="8.4962782"><ele>108.0</ele><time>2026-05-03T11:49:31.405Z</time></trkpt><trkpt lat="45.1975033" lon="8.4962782"><ele>108.00000000000001</ele><time>2026-05-03T11:49:32.406Z</time></trkpt><trkpt lat="45.1976097" lon="8.4962828"><ele>108.00000000000001</ele><time>2026-05-03T11:49:33.405Z</time></trkpt><trkpt lat="45.1977169" lon="8.4962926"><ele>108.0</ele><time>2026-05-03T11:49:34.405Z</time></trkpt><trkpt lat="45.1978236" lon="8.4963027"><ele>108.0</ele><time>2026-05-03T11:49:35.405Z</time></trkpt><trkpt lat="45.1979308" lon="8.4963127"><ele>108.0</ele><time>2026-05-03T11:49:36.406Z</time></trkpt><trkpt lat="45.1980389" lon="8.496323"><ele>108.00000000000001</ele><time>2026-05-03T11:49:37.406Z</time></trkpt><trkpt lat="45.1981466" lon="8.4963351"><ele>108.00000000000001</ele><time>2026-05-03T11:49:38.406Z</time></trkpt><trkpt lat="45.198252" lon="8.4963528"><ele>108.0</ele><time>2026-05-03T11:49:39.405Z</time></trkpt><trkpt lat="45.1983554" lon="8.4963699"><ele>108.0</ele><time>2026-05-03T11:49:40.405Z</time></trkpt><trkpt lat="45.1984574" lon="8.4963843"><ele>107.80000000000001</ele><time>2026-05-03T11:49:41.405Z</time></trkpt><trkpt lat="45.1985593" lon="8.4963987"><ele>107.60000000000001</ele><time>2026-05-03T11:49:42.405Z</time></trkpt><trkpt lat="45.1986626" lon="8.4964132"><ele>107.39999999999999</ele><time>2026-05-03T11:49:43.405Z</time></trkpt><trkpt lat="45.1987663" lon="8.4964291"><ele>107.19999999999999</ele><time>2026-05-03T11:49:44.405Z</time></trkpt><trkpt lat="45.1988706" lon="8.4964486"><ele>107.0</ele><time>2026-05-03T11:49:45.405Z</time></trkpt><trkpt lat="45.1989718" lon="8.4964727"><ele>106.8</ele><time>2026-05-03T11:49:46.406Z</time></trkpt><trkpt lat="45.1990714" lon="8.4964986"><ele>106.6</ele><time>2026-05-03T11:49:47.405Z</time></trkpt><trkpt lat="45.1991716" lon="8.4965251"><ele>106.39999999999999</ele><time>2026-05-03T11:49:48.405Z</time></trkpt><trkpt lat="45.1992717" lon="8.4965546"><ele>106.19999999999999</ele><time>2026-05-03T11:49:49.406Z</time></trkpt><trkpt lat="45.1993736" lon="8.4965887"><ele>106.0</ele><time>2026-05-03T11:49:50.405Z</time></trkpt><trkpt lat="45.1994747" lon="8.496625"><ele>106.0</ele><time>2026-05-03T11:49:51.405Z</time></trkpt><trkpt lat="45.1995776" lon="8.4966559"><ele>106.0</ele><time>2026-05-03T11:49:52.405Z</time></trkpt><trkpt lat="45.199683" lon="8.4966803"><ele>106.0</ele><time>2026-05-03T11:49:53.406Z</time></trkpt><trkpt lat="45.1997906" lon="8.4966997"><ele>106.0</ele><time>2026-05-03T11:49:54.405Z</time></trkpt><trkpt lat="45.1998993" lon="8.4967167"><ele>106.0</ele><time>2026-05-03T11:49:55.405Z</time></trkpt><trkpt lat="45.2000084" lon="8.4967308"><ele>106.19999999999999</ele><time>2026-05-03T11:49:56.405Z</time></trkpt><trkpt lat="45.2001166" lon="8.4967427"><ele>106.39999999999999</ele><time>2026-05-03T11:49:57.405Z</time></trkpt><trkpt lat="45.2002267" lon="8.4967537"><ele>106.6</ele><time>2026-05-03T11:49:58.405Z</time></trkpt><trkpt lat="45.2003377" lon="8.4967624"><ele>106.8</ele><time>2026-05-03T11:49:59.406Z</time></trkpt><trkpt lat="45.2004495" lon="8.4967711"><ele>107.0</ele><time>2026-05-03T11:50:00.406Z</time></trkpt><trkpt lat="45.2005621" lon="8.4967788"><ele>107.0</ele><time>2026-05-03T11:50:01.405Z</time></trkpt><trkpt lat="45.2006749" lon="8.4967895"><ele>106.99999999999999</ele><time>2026-05-03T11:50:02.405Z</time></trkpt><trkpt lat="45.2007856" lon="8.496802"><ele>106.99999999999999</ele><time>2026-05-03T11:50:03.405Z</time></trkpt><trkpt lat="45.2008951" lon="8.4968137"><ele>107.0</ele><time>2026-05-03T11:50:04.406Z</time></trkpt><trkpt lat="45.2010074" lon="8.4968257"><ele>107.0</ele><time>2026-05-03T11:50:05.406Z</time></trkpt><trkpt lat="45.2011226" lon="8.496843"><ele>107.0</ele><time>2026-05-03T11:50:06.405Z</time></trkpt><trkpt lat="45.2012353" lon="8.4968699"><ele>107.0</ele><time>2026-05-03T11:50:07.405Z</time></trkpt><trkpt lat="45.2013448" lon="8.4969081"><ele>107.0</ele><time>2026-05-03T11:50:08.406Z</time></trkpt><trkpt lat="45.201452" lon="8.4969585"><ele>107.0</ele><time>2026-05-03T11:50:09.406Z</time></trkpt><trkpt lat="45.2015577" lon="8.4970156"><ele>107.0</ele><time>2026-05-03T11:50:10.405Z</time></trkpt><trkpt lat="45.2016654" lon="8.4970733"><ele>107.0</ele><time>2026-05-03T11:50:11.406Z</time></trkpt><trkpt lat="45.2017735" lon="8.4971294"><ele>107.0</ele><time>2026-05-03T11:50:12.405Z</time></trkpt><trkpt lat="45.2018803" lon="8.497185"><ele>107.0</ele><time>2026-05-03T11:50:13.406Z</time></trkpt><trkpt lat="45.2019856" lon="8.4972407"><ele>107.0</ele><time>2026-05-03T11:50:14.405Z</time></trkpt><trkpt lat="45.2020853" lon="8.4972927"><ele>106.99999999999999</ele><time>2026-05-03T11:50:15.406Z</time></trkpt><trkpt lat="45.2021856" lon="8.4973381"><ele>106.99999999999999</ele><time>2026-05-03T11:50:16.406Z</time></trkpt><trkpt lat="45.2022862" lon="8.497373"><ele>107.0</ele><time>2026-05-03T11:50:17.406Z</time></trkpt><trkpt lat="45.2023934" lon="8.4973913"><ele>107.0</ele><time>2026-05-03T11:50:18.406Z</time></trkpt><trkpt lat="45.2025034" lon="8.4973929"><ele>107.19999999999999</ele><time>2026-05-03T11:50:19.406Z</time></trkpt><trkpt lat="45.2026171" lon="8.4973849"><ele>107.39999999999999</ele><time>2026-05-03T11:50:20.407Z</time></trkpt><trkpt lat="45.2027294" lon="8.4973769"><ele>107.60000000000001</ele><time>2026-05-03T11:50:21.407Z</time></trkpt><trkpt lat="45.2028354" lon="8.4973675"><ele>107.80000000000001</ele><time>2026-05-03T11:50:22.406Z</time></trkpt><trkpt lat="45.2029366" lon="8.4973573"><ele>108.0</ele><time>2026-05-03T11:50:23.407Z</time></trkpt><trkpt lat="45.203043" lon="8.497354"><ele>108.0</ele><time>2026-05-03T11:50:24.406Z</time></trkpt><trkpt lat="45.2031471" lon="8.4973595"><ele>108.00000000000001</ele><time>2026-05-03T11:50:25.406Z</time></trkpt><trkpt lat="45.2032477" lon="8.4973656"><ele>108.00000000000001</ele><time>2026-05-03T11:50:26.407Z</time></trkpt><trkpt lat="45.2033537" lon="8.4973736"><ele>108.0</ele><time>2026-05-03T11:50:27.406Z</time></trkpt><trkpt lat="45.2034527" lon="8.4973862"><ele>108.0</ele><time>2026-05-03T11:50:28.406Z</time></trkpt><trkpt lat="45.203563" lon="8.4974121"><ele>108.0</ele><time>2026-05-03T11:50:29.407Z</time></trkpt><trkpt lat="45.2036662" lon="8.4974517"><ele>108.00000000000001</ele><time>2026-05-03T11:50:30.406Z</time></trkpt><trkpt lat="45.2037711" lon="8.4975031"><ele>108.00000000000001</ele><time>2026-05-03T11:50:31.406Z</time></trkpt><trkpt lat="45.2038765" lon="8.4975587"><ele>108.0</ele><time>2026-05-03T11:50:32.406Z</time></trkpt><trkpt lat="45.2039818" lon="8.4976132"><ele>108.0</ele><time>2026-05-03T11:50:33.407Z</time></trkpt><trkpt lat="45.2040857" lon="8.4976666"><ele>108.0</ele><time>2026-05-03T11:50:34.406Z</time></trkpt><trkpt lat="45.2041874" lon="8.4977194"><ele>108.00000000000001</ele><time>2026-05-03T11:50:35.406Z</time></trkpt><trkpt lat="45.2042895" lon="8.497772"><ele>108.00000000000001</ele><time>2026-05-03T11:50:36.406Z</time></trkpt><trkpt lat="45.2043918" lon="8.4978244"><ele>108.0</ele><time>2026-05-03T11:50:37.406Z</time></trkpt><trkpt lat="45.2044925" lon="8.4978773"><ele>108.0</ele><time>2026-05-03T11:50:38.406Z</time></trkpt><trkpt lat="45.2045926" lon="8.4979288"><ele>107.80000000000001</ele><time>2026-05-03T11:50:39.406Z</time></trkpt><trkpt lat="45.204693" lon="8.4979774"><ele>107.60000000000001</ele><time>2026-05-03T11:50:40.407Z</time></trkpt><trkpt lat="45.2047946" lon="8.4980241"><ele>107.39999999999999</ele><time>2026-05-03T11:50:41.406Z</time></trkpt><trkpt lat="45.2048969" lon="8.4980677"><ele>107.19999999999999</ele><time>2026-05-03T11:50:42.406Z</time></trkpt><trkpt lat="45.2049988" lon="8.4981103"><ele>107.0</ele><time>2026-05-03T11:50:43.406Z</time></trkpt><trkpt lat="45.2051007" lon="8.4981471"><ele>107.6</ele><time>2026-05-03T11:50:44.406Z</time></trkpt><trkpt lat="45.2052077" lon="8.4981778"><ele>108.19999999999999</ele><time>2026-05-03T11:50:45.406Z</time></trkpt><trkpt lat="45.2053136" lon="8.4982127"><ele>108.8</ele><time>2026-05-03T11:50:46.406Z</time></trkpt><trkpt lat="45.2054194" lon="8.4982543"><ele>109.4</ele><time>2026-05-03T11:50:47.406Z</time></trkpt><trkpt lat="45.2055235" lon="8.4983035"><ele>110.0</ele><time>2026-05-03T11:50:48.406Z</time></trkpt><trkpt lat="45.2056247" lon="8.4983632"><ele>110.2</ele><time>2026-05-03T11:50:49.406Z</time></trkpt><trkpt lat="45.2057239" lon="8.498431"><ele>110.4</ele><time>2026-05-03T11:50:50.407Z</time></trkpt><trkpt lat="45.2058213" lon="8.4985009"><ele>110.6</ele><time>2026-05-03T11:50:51.407Z</time></trkpt><trkpt lat="45.2059194" lon="8.4985689"><ele>110.8</ele><time>2026-05-03T11:50:52.407Z</time></trkpt><trkpt lat="45.2060169" lon="8.4986369"><ele>111.0</ele><time>2026-05-03T11:50:53.406Z</time></trkpt><trkpt lat="45.2061143" lon="8.4987051"><ele>111.0</ele><time>2026-05-03T11:50:54.406Z</time></trkpt><trkpt lat="45.2062159" lon="8.4987661"><ele>111.0</ele><time>2026-05-03T11:50:55.406Z</time></trkpt><trkpt lat="45.2063214" lon="8.4988159"><ele>111.0</ele><time>2026-05-03T11:50:56.406Z</time></trkpt><trkpt lat="45.2064294" lon="8.4988585"><ele>111.0</ele><time>2026-05-03T11:50:57.407Z</time></trkpt><trkpt lat="45.2065401" lon="8.4988998"><ele>111.0</ele><time>2026-05-03T11:50:58.406Z</time></trkpt><trkpt lat="45.2066432" lon="8.4989397"><ele>111.0</ele><time>2026-05-03T11:50:59.406Z</time></trkpt><trkpt lat="45.2067473" lon="8.498979"><ele>111.0</ele><time>2026-05-03T11:51:00.406Z</time></trkpt><trkpt lat="45.2068519" lon="8.499018"><ele>111.0</ele><time>2026-05-03T11:51:01.407Z</time></trkpt><trkpt lat="45.2069555" lon="8.4990575"><ele>111.0</ele><time>2026-05-03T11:51:02.407Z</time></trkpt><trkpt lat="45.2070593" lon="8.4990984"><ele>111.0</ele><time>2026-05-03T11:51:03.407Z</time></trkpt><trkpt lat="45.20716" lon="8.4991386"><ele>111.0</ele><time>2026-05-03T11:51:04.407Z</time></trkpt><trkpt lat="45.2072618" lon="8.499177"><ele>111.0</ele><time>2026-05-03T11:51:05.407Z</time></trkpt><trkpt lat="45.2073666" lon="8.4992142"><ele>111.0</ele><time>2026-05-03T11:51:06.407Z</time></trkpt><trkpt lat="45.2074701" lon="8.4992512"><ele>111.0</ele><time>2026-05-03T11:51:07.407Z</time></trkpt><trkpt lat="45.2075719" lon="8.4992889"><ele>111.0</ele><time>2026-05-03T11:51:08.408Z</time></trkpt><trkpt lat="45.2076745" lon="8.4993264"><ele>111.0</ele><time>2026-05-03T11:51:09.407Z</time></trkpt><trkpt lat="45.2077795" lon="8.4993615"><ele>111.0</ele><time>2026-05-03T11:51:10.407Z</time></trkpt><trkpt lat="45.2078851" lon="8.4993975"><ele>111.0</ele><time>2026-05-03T11:51:11.407Z</time></trkpt><trkpt lat="45.2079899" lon="8.4994363"><ele>111.0</ele><time>2026-05-03T11:51:12.407Z</time></trkpt><trkpt lat="45.2080943" lon="8.4994833"><ele>111.0</ele><time>2026-05-03T11:51:13.408Z</time></trkpt><trkpt lat="45.2081964" lon="8.4995439"><ele>110.8</ele><time>2026-05-03T11:51:14.408Z</time></trkpt><trkpt lat="45.2082954" lon="8.4996189"><ele>110.6</ele><time>2026-05-03T11:51:15.407Z</time></trkpt><trkpt lat="45.2083886" lon="8.4997085"><ele>110.4</ele><time>2026-05-03T11:51:16.408Z</time></trkpt><trkpt lat="45.2084786" lon="8.4998054"><ele>110.2</ele><time>2026-05-03T11:51:17.407Z</time></trkpt><trkpt lat="45.208568" lon="8.4999004"><ele>110.0</ele><time>2026-05-03T11:51:18.407Z</time></trkpt><trkpt lat="45.2086595" lon="8.4999956"><ele>110.0</ele><time>2026-05-03T11:51:19.408Z</time></trkpt><trkpt lat="45.2087482" lon="8.5000947"><ele>110.0</ele><time>2026-05-03T11:51:20.408Z</time></trkpt><trkpt lat="45.2088386" lon="8.5001867"><ele>110.0</ele><time>2026-05-03T11:51:21.407Z</time></trkpt><trkpt lat="45.2089358" lon="8.5002614"><ele>110.0</ele><time>2026-05-03T11:51:22.407Z</time></trkpt><trkpt lat="45.2090382" lon="8.500316"><ele>110.0</ele><time>2026-05-03T11:51:23.408Z</time></trkpt><trkpt lat="45.2091484" lon="8.5003558"><ele>110.0</ele><time>2026-05-03T11:51:24.407Z</time></trkpt><trkpt lat="45.2092638" lon="8.5003895"><ele>110.0</ele><time>2026-05-03T11:51:25.407Z</time></trkpt><trkpt lat="45.2093767" lon="8.5004246"><ele>110.0</ele><time>2026-05-03T11:51:26.407Z</time></trkpt><trkpt lat="45.2094839" lon="8.5004682"><ele>110.0</ele><time>2026-05-03T11:51:27.407Z</time></trkpt><trkpt lat="45.209582" lon="8.5005217"><ele>109.8</ele><time>2026-05-03T11:51:28.407Z</time></trkpt><trkpt lat="45.2096746" lon="8.5005925"><ele>109.6</ele><time>2026-05-03T11:51:29.407Z</time></trkpt><trkpt lat="45.2097652" lon="8.5006788"><ele>109.4</ele><time>2026-05-03T11:51:30.407Z</time></trkpt><trkpt lat="45.2098513" lon="8.5007777"><ele>109.2</ele><time>2026-05-03T11:51:31.407Z</time></trkpt><trkpt lat="45.2099327" lon="8.5008842"><ele>109.0</ele><time>2026-05-03T11:51:32.407Z</time></trkpt><trkpt lat="45.2100164" lon="8.5009876"><ele>108.80000000000001</ele><time>2026-05-03T11:51:33.409Z</time></trkpt><trkpt lat="45.2101018" lon="8.5010865"><ele>108.60000000000001</ele><time>2026-05-03T11:51:34.407Z</time></trkpt><trkpt lat="45.2101879" lon="8.5011822"><ele>108.4</ele><time>2026-05-03T11:51:35.407Z</time></trkpt><trkpt lat="45.2102766" lon="8.5012757"><ele>108.2</ele><time>2026-05-03T11:51:36.407Z</time></trkpt><trkpt lat="45.210365" lon="8.5013734"><ele>108.0</ele><time>2026-05-03T11:51:37.407Z</time></trkpt><trkpt lat="45.2104523" lon="8.501474"><ele>108.2</ele><time>2026-05-03T11:51:38.407Z</time></trkpt><trkpt lat="45.2105401" lon="8.5015755"><ele>108.4</ele><time>2026-05-03T11:51:39.407Z</time></trkpt><trkpt lat="45.2106271" lon="8.5016775"><ele>108.60000000000001</ele><time>2026-05-03T11:51:40.408Z</time></trkpt><trkpt lat="45.2107121" lon="8.501778"><ele>108.80000000000001</ele><time>2026-05-03T11:51:41.408Z</time></trkpt><trkpt lat="45.2107973" lon="8.5018778"><ele>109.0</ele><time>2026-05-03T11:51:42.408Z</time></trkpt><trkpt lat="45.2108816" lon="8.5019766"><ele>109.0</ele><time>2026-05-03T11:51:43.407Z</time></trkpt><trkpt lat="45.2109662" lon="8.5020802"><ele>109.0</ele><time>2026-05-03T11:51:44.407Z</time></trkpt><trkpt lat="45.2110501" lon="8.5021867"><ele>109.0</ele><time>2026-05-03T11:51:45.407Z</time></trkpt><trkpt lat="45.2111323" lon="8.5022945"><ele>109.0</ele><time>2026-05-03T11:51:46.408Z</time></trkpt><trkpt lat="45.211214" lon="8.5024034"><ele>109.0</ele><time>2026-05-03T11:51:47.408Z</time></trkpt><trkpt lat="45.2112965" lon="8.5025113"><ele>109.0</ele><time>2026-05-03T11:51:48.409Z</time></trkpt><trkpt lat="45.2113799" lon="8.5026182"><ele>109.0</ele><time>2026-05-03T11:51:49.408Z</time></trkpt><trkpt lat="45.2114652" lon="8.5027216"><ele>109.0</ele><time>2026-05-03T11:51:50.408Z</time></trkpt><trkpt lat="45.2115539" lon="8.5028202"><ele>109.0</ele><time>2026-05-03T11:51:51.408Z</time></trkpt><trkpt lat="45.2116466" lon="8.5029121"><ele>109.0</ele><time>2026-05-03T11:51:52.408Z</time></trkpt><trkpt lat="45.2117435" lon="8.502997"><ele>109.0</ele><time>2026-05-03T11:51:53.408Z</time></trkpt><trkpt lat="45.2118441" lon="8.5030756"><ele>109.0</ele><time>2026-05-03T11:51:54.409Z</time></trkpt><trkpt lat="45.2119472" lon="8.5031522"><ele>109.0</ele><time>2026-05-03T11:51:55.408Z</time></trkpt><trkpt lat="45.2120476" lon="8.5032287"><ele>109.0</ele><time>2026-05-03T11:51:56.408Z</time></trkpt><trkpt lat="45.2121444" lon="8.503307"><ele>109.0</ele><time>2026-05-03T11:51:57.408Z</time></trkpt><trkpt lat="45.2122398" lon="8.5033837"><ele>109.0</ele><time>2026-05-03T11:51:58.408Z</time></trkpt><trkpt lat="45.2123336" lon="8.5034592"><ele>109.0</ele><time>2026-05-03T11:51:59.408Z</time></trkpt><trkpt lat="45.2124246" lon="8.5035345"><ele>109.0</ele><time>2026-05-03T11:52:00.408Z</time></trkpt><trkpt lat="45.2125157" lon="8.503612"><ele>109.0</ele><time>2026-05-03T11:52:01.408Z</time></trkpt><trkpt lat="45.2126073" lon="8.5036885"><ele>109.0</ele><time>2026-05-03T11:52:02.408Z</time></trkpt><trkpt lat="45.2126999" lon="8.5037645"><ele>109.0</ele><time>2026-05-03T11:52:03.409Z</time></trkpt><trkpt lat="45.2127916" lon="8.5038404"><ele>109.0</ele><time>2026-05-03T11:52:04.409Z</time></trkpt><trkpt lat="45.2128837" lon="8.5039148"><ele>109.0</ele><time>2026-05-03T11:52:05.408Z</time></trkpt><trkpt lat="45.2129766" lon="8.5039861"><ele>109.0</ele><time>2026-05-03T11:52:06.409Z</time></trkpt><trkpt lat="45.2130697" lon="8.5040569"><ele>109.0</ele><time>2026-05-03T11:52:07.409Z</time></trkpt><trkpt lat="45.2131631" lon="8.5041303"><ele>109.0</ele><time>2026-05-03T11:52:08.408Z</time></trkpt><trkpt lat="45.213253" lon="8.5042081"><ele>109.0</ele><time>2026-05-03T11:52:09.408Z</time></trkpt><trkpt lat="45.2133418" lon="8.504286"><ele>109.0</ele><time>2026-05-03T11:52:10.408Z</time></trkpt><trkpt lat="45.2134314" lon="8.5043618"><ele>109.0</ele><time>2026-05-03T11:52:11.409Z</time></trkpt><trkpt lat="45.2135222" lon="8.5044323"><ele>109.0</ele><time>2026-05-03T11:52:12.408Z</time></trkpt><trkpt lat="45.2136141" lon="8.5044991"><ele>109.0</ele><time>2026-05-03T11:52:13.408Z</time></trkpt><trkpt lat="45.213706" lon="8.5045673"><ele>109.0</ele><time>2026-05-03T11:52:14.408Z</time></trkpt><trkpt lat="45.2137945" lon="8.5046409"><ele>109.0</ele><time>2026-05-03T11:52:15.408Z</time></trkpt><trkpt lat="45.2138795" lon="8.5047178"><ele>109.0</ele><time>2026-05-03T11:52:16.408Z</time></trkpt><trkpt lat="45.2139646" lon="8.5047908"><ele>109.0</ele><time>2026-05-03T11:52:17.408Z</time></trkpt><trkpt lat="45.2140481" lon="8.5048553"><ele>109.0</ele><time>2026-05-03T11:52:18.408Z</time></trkpt><trkpt lat="45.2141274" lon="8.5049159"><ele>109.0</ele><time>2026-05-03T11:52:19.408Z</time></trkpt><trkpt lat="45.2142023" lon="8.5049777"><ele>109.0</ele><time>2026-05-03T11:52:20.408Z</time></trkpt><trkpt lat="45.2142758" lon="8.5050402"><ele>109.4</ele><time>2026-05-03T11:52:21.409Z</time></trkpt><trkpt lat="45.2143512" lon="8.505099"><ele>109.80000000000001</ele><time>2026-05-03T11:52:22.408Z</time></trkpt><trkpt lat="45.2144326" lon="8.5051564"><ele>110.19999999999999</ele><time>2026-05-03T11:52:23.41Z</time></trkpt><trkpt lat="45.21452" lon="8.5052163"><ele>110.6</ele><time>2026-05-03T11:52:24.408Z</time></trkpt><trkpt lat="45.2146087" lon="8.5052804"><ele>111.0</ele><time>2026-05-03T11:52:25.408Z</time></trkpt><trkpt lat="45.2146966" lon="8.505349"><ele>111.0</ele><time>2026-05-03T11:52:26.408Z</time></trkpt><trkpt lat="45.2147836" lon="8.5054203"><ele>111.0</ele><time>2026-05-03T11:52:27.408Z</time></trkpt><trkpt lat="45.2148722" lon="8.5054888"><ele>111.0</ele><time>2026-05-03T11:52:28.408Z</time></trkpt><trkpt lat="45.2149647" lon="8.5055558"><ele>111.0</ele><time>2026-05-03T11:52:29.408Z</time></trkpt><trkpt lat="45.2150567" lon="8.5056223"><ele>111.0</ele><time>2026-05-03T11:52:30.408Z</time></trkpt><trkpt lat="45.2151444" lon="8.5056885"><ele>111.14285714285714</ele><time>2026-05-03T11:52:31.409Z</time></trkpt><trkpt lat="45.2152216" lon="8.5057511"><ele>111.28571428571429</ele><time>2026-05-03T11:52:32.409Z</time></trkpt><trkpt lat="45.2152898" lon="8.5058066"><ele>111.42857142857143</ele><time>2026-05-03T11:52:33.408Z</time></trkpt><trkpt lat="45.2153518" lon="8.5058559"><ele>111.57142857142857</ele><time>2026-05-03T11:52:34.41Z</time></trkpt><trkpt lat="45.2154123" lon="8.5059026"><ele>111.71428571428572</ele><time>2026-05-03T11:52:35.409Z</time></trkpt><trkpt lat="45.2154702" lon="8.5059477"><ele>111.85714285714286</ele><time>2026-05-03T11:52:36.41Z</time></trkpt><trkpt lat="45.2155269" lon="8.5059924"><ele>112.0</ele><time>2026-05-03T11:52:37.409Z</time></trkpt><trkpt lat="45.2156129" lon="8.5060586"><ele>111.83333333333334</ele><time>2026-05-03T11:52:39.409Z</time></trkpt><trkpt lat="45.2156878" lon="8.5060839"><ele>111.66666666666667</ele><time>2026-05-03T11:53:06.41Z</time></trkpt><trkpt lat="45.2158065" lon="8.5061269"><ele>111.5</ele><time>2026-05-03T11:53:08.409Z</time></trkpt><trkpt lat="45.2158736" lon="8.5061509"><ele>111.33333333333334</ele><time>2026-05-03T11:53:09.409Z</time></trkpt><trkpt lat="45.2159376" lon="8.5061796"><ele>111.16666666666667</ele><time>2026-05-03T11:53:10.409Z</time></trkpt><trkpt lat="45.2160021" lon="8.5062064"><ele>111.0</ele><time>2026-05-03T11:53:11.41Z</time></trkpt><trkpt lat="45.2160677" lon="8.5062305"><ele>111.0</ele><time>2026-05-03T11:53:12.41Z</time></trkpt><trkpt lat="45.2161383" lon="8.506252"><ele>111.0</ele><time>2026-05-03T11:53:13.41Z</time></trkpt><trkpt lat="45.2162121" lon="8.5062729"><ele>111.0</ele><time>2026-05-03T11:53:14.409Z</time></trkpt><trkpt lat="45.2162858" lon="8.5062918"><ele>111.0</ele><time>2026-05-03T11:53:15.409Z</time></trkpt><trkpt lat="45.2163634" lon="8.5063101"><ele>111.0</ele><time>2026-05-03T11:53:16.409Z</time></trkpt><trkpt lat="45.2164455" lon="8.5063294"><ele>111.0</ele><time>2026-05-03T11:53:17.41Z</time></trkpt><trkpt lat="45.2165321" lon="8.5063478"><ele>111.0</ele><time>2026-05-03T11:53:18.41Z</time></trkpt><trkpt lat="45.2166194" lon="8.5063611"><ele>111.0</ele><time>2026-05-03T11:53:19.41Z</time></trkpt><trkpt lat="45.2167098" lon="8.5063686"><ele>111.0</ele><time>2026-05-03T11:53:20.41Z</time></trkpt><trkpt lat="45.2167957" lon="8.5063734"><ele>111.0</ele><time>2026-05-03T11:53:21.411Z</time></trkpt><trkpt lat="45.216876" lon="8.5063823"><ele>111.0</ele><time>2026-05-03T11:53:22.41Z</time></trkpt><trkpt lat="45.2169562" lon="8.5063904"><ele>111.0</ele><time>2026-05-03T11:53:23.41Z</time></trkpt><trkpt lat="45.2170372" lon="8.5063887"><ele>111.0</ele><time>2026-05-03T11:53:24.41Z</time></trkpt><trkpt lat="45.2171153" lon="8.5063885"><ele>111.0</ele><time>2026-05-03T11:53:25.41Z</time></trkpt><trkpt lat="45.2171931" lon="8.5063862"><ele>111.0</ele><time>2026-05-03T11:53:26.41Z</time></trkpt><trkpt lat="45.2172847" lon="8.5063815"><ele>111.0</ele><time>2026-05-03T11:53:27.411Z</time></trkpt><trkpt lat="45.2173777" lon="8.506381"><ele>111.0</ele><time>2026-05-03T11:53:28.41Z</time></trkpt><trkpt lat="45.2174665" lon="8.5063845"><ele>111.0</ele><time>2026-05-03T11:53:29.411Z</time></trkpt><trkpt lat="45.2175574" lon="8.5063848"><ele>111.0</ele><time>2026-05-03T11:53:30.41Z</time></trkpt><trkpt lat="45.217646" lon="8.5063826"><ele>111.0</ele><time>2026-05-03T11:53:31.41Z</time></trkpt><trkpt lat="45.2177344" lon="8.5063865"><ele>111.0</ele><time>2026-05-03T11:53:32.411Z</time></trkpt><trkpt lat="45.2178226" lon="8.506388"><ele>111.0</ele><time>2026-05-03T11:53:33.41Z</time></trkpt><trkpt lat="45.2179111" lon="8.5063887"><ele>111.0</ele><time>2026-05-03T11:53:34.41Z</time></trkpt><trkpt lat="45.2180018" lon="8.5063854"><ele>111.0</ele><time>2026-05-03T11:53:35.411Z</time></trkpt><trkpt lat="45.218097" lon="8.506381"><ele>111.0</ele><time>2026-05-03T11:53:36.41Z</time></trkpt><trkpt lat="45.2181912" lon="8.5063778"><ele>111.0</ele><time>2026-05-03T11:53:37.41Z</time></trkpt><trkpt lat="45.2182821" lon="8.5063762"><ele>111.0</ele><time>2026-05-03T11:53:38.41Z</time></trkpt><trkpt lat="45.218372" lon="8.5063746"><ele>111.0</ele><time>2026-05-03T11:53:39.411Z</time></trkpt><trkpt lat="45.21846" lon="8.5063703"><ele>111.0</ele><time>2026-05-03T11:53:40.41Z</time></trkpt><trkpt lat="45.2185447" lon="8.5063724"><ele>111.0</ele><time>2026-05-03T11:53:41.411Z</time></trkpt><trkpt lat="45.2186188" lon="8.5063787"><ele>111.0</ele><time>2026-05-03T11:53:42.41Z</time></trkpt><trkpt lat="45.218697" lon="8.5063845"><ele>111.0</ele><time>2026-05-03T11:53:43.411Z</time></trkpt><trkpt lat="45.2187608" lon="8.5063939"><ele>111.0</ele><time>2026-05-03T11:53:44.41Z</time></trkpt><trkpt lat="45.2188565" lon="8.5064044"><ele>111.0</ele><time>2026-05-03T11:53:46.411Z</time></trkpt><trkpt lat="45.218957" lon="8.5064032"><ele>111.0</ele><time>2026-05-03T11:53:48.41Z</time></trkpt><trkpt lat="45.2190263" lon="8.5064056"><ele>111.0</ele><time>2026-05-03T11:53:49.41Z</time></trkpt><trkpt lat="45.2190973" lon="8.5064094"><ele>111.0</ele><time>2026-05-03T11:53:50.41Z</time></trkpt><trkpt lat="45.2191733" lon="8.506417"><ele>111.0</ele><time>2026-05-03T11:53:51.41Z</time></trkpt><trkpt lat="45.2192548" lon="8.5064201"><ele>111.0</ele><time>2026-05-03T11:53:52.41Z</time></trkpt><trkpt lat="45.2193401" lon="8.5064185"><ele>111.0</ele><time>2026-05-03T11:53:53.411Z</time></trkpt><trkpt lat="45.2194299" lon="8.50642"><ele>111.0</ele><time>2026-05-03T11:53:54.411Z</time></trkpt><trkpt lat="45.2195128" lon="8.5064174"><ele>111.0</ele><time>2026-05-03T11:53:55.411Z</time></trkpt><trkpt lat="45.2195986" lon="8.506412"><ele>111.0</ele><time>2026-05-03T11:53:56.41Z</time></trkpt><trkpt lat="45.2196881" lon="8.5064016"><ele>111.0</ele><time>2026-05-03T11:53:57.41Z</time></trkpt><trkpt lat="45.2197803" lon="8.5063882"><ele>111.0</ele><time>2026-05-03T11:53:58.41Z</time></trkpt><trkpt lat="45.2198651" lon="8.5063799"><ele>111.0</ele><time>2026-05-03T11:53:59.41Z</time></trkpt><trkpt lat="45.2199379" lon="8.5063717"><ele>111.0</ele><time>2026-05-03T11:54:00.41Z</time></trkpt><trkpt lat="45.2200115" lon="8.5063949"><ele>111.0</ele><time>2026-05-03T11:54:02.41Z</time></trkpt><trkpt lat="45.2200191" lon="8.5065242"><ele>111.0</ele><time>2026-05-03T11:54:05.41Z</time></trkpt><trkpt lat="45.220011" lon="8.5066829"><ele>111.0</ele><time>2026-05-03T11:54:07.41Z</time></trkpt><trkpt lat="45.2200133" lon="8.5068694"><ele>111.0</ele><time>2026-05-03T11:54:09.411Z</time></trkpt><trkpt lat="45.2200118" lon="8.5069589"><ele>111.0</ele><time>2026-05-03T11:54:10.411Z</time></trkpt><trkpt lat="45.2200051" lon="8.5070566"><ele>111.0</ele><time>2026-05-03T11:54:11.411Z</time></trkpt><trkpt lat="45.21999" lon="8.5071499"><ele>111.0</ele><time>2026-05-03T11:54:12.411Z</time></trkpt><trkpt lat="45.2199845" lon="8.5072411"><ele>110.83333333333333</ele><time>2026-05-03T11:54:13.412Z</time></trkpt><trkpt lat="45.2199734" lon="8.5073848"><ele>110.66666666666666</ele><time>2026-05-03T11:54:15.411Z</time></trkpt><trkpt lat="45.2200283" lon="8.5074646"><ele>110.5</ele><time>2026-05-03T11:54:17.411Z</time></trkpt><trkpt lat="45.2200992" lon="8.5074715"><ele>110.33333333333333</ele><time>2026-05-03T11:54:18.412Z</time></trkpt><trkpt lat="45.2201725" lon="8.5074606"><ele>110.16666666666666</ele><time>2026-05-03T11:54:19.411Z</time></trkpt><trkpt lat="45.2202406" lon="8.5074449"><ele>110.0</ele><time>2026-05-03T11:54:20.412Z</time></trkpt><trkpt lat="45.2203013" lon="8.5074209"><ele>110.0</ele><time>2026-05-03T11:54:21.411Z</time></trkpt><trkpt lat="45.2204117" lon="8.5074195"><ele>110.0</ele><time>2026-05-03T11:54:23.411Z</time></trkpt><trkpt lat="45.2205185" lon="8.5074369"><ele>110.0</ele><time>2026-05-03T11:54:25.412Z</time></trkpt><trkpt lat="45.2206278" lon="8.5074484"><ele>110.0</ele><time>2026-05-03T11:54:27.411Z</time></trkpt><trkpt lat="45.2207101" lon="8.5074404"><ele>110.0</ele><time>2026-05-03T11:54:29.411Z</time></trkpt><trkpt lat="45.2206891" lon="8.5075621"><ele>112.0</ele><time>2026-05-03T11:54:38.411Z</time></trkpt><trkpt lat="45.2206232" lon="8.5075794"><ele>110.0</ele><time>2026-05-03T11:54:41.411Z</time></trkpt><trkpt lat="45.2205753" lon="8.5076402"><ele>110.0</ele><time>2026-05-03T11:54:48.411Z</time></trkpt></trkseg></trk></gpx>